<?xml version="1.0" encoding="UTF-8" standalone="no" ?>
<gpx xmlns="http://www.topografix.com/GPX/1/1" xmlns:xsi="http://www.w3.org/2001/XMLSchema-instance" xsi:schemaLocation="http://www.topografix.com/GPX/1/1 http://www.topografix.com/GPX/1/1/gpx.xsd" version="1.1" creator="VisuGPX - https://www.visugpx.com">
  <metadata>
    <name>VTT 13 mars 2019</name>
    <desc><![CDATA[VTT 13 mars 2019 vers mont Aurelien]]></desc>
  </metadata>
  <trk>
    <name><![CDATA[2018-12-27 12:59:17]]></name>
    <trkseg>
      <trkpt lat="43.24361" lon="6.00074">
        <ele>74.64</ele>
        <time>2018-12-27T09:42:32Z</time>
      </trkpt>
      <trkpt lat="43.24365" lon="6.0007">
        <ele>78</ele>
        <time>2018-12-27T09:42:33Z</time>
      </trkpt>
      <trkpt lat="43.24366" lon="6.00069">
        <ele>80.89</ele>
        <time>2018-12-27T09:42:34Z</time>
      </trkpt>
      <trkpt lat="43.24367" lon="6.00067">
        <ele>84.25</ele>
        <time>2018-12-27T09:42:35Z</time>
      </trkpt>
      <trkpt lat="43.2437" lon="6.00065">
        <ele>89.54</ele>
        <time>2018-12-27T09:42:37Z</time>
      </trkpt>
      <trkpt lat="43.24371" lon="6.00064">
        <ele>94.35</ele>
        <time>2018-12-27T09:42:39Z</time>
      </trkpt>
      <trkpt lat="43.24373" lon="6.00063">
        <ele>99.15</ele>
        <time>2018-12-27T09:42:41Z</time>
      </trkpt>
      <trkpt lat="43.24373" lon="6.00062">
        <ele>103</ele>
        <time>2018-12-27T09:42:43Z</time>
      </trkpt>
      <trkpt lat="43.24372" lon="6.00064">
        <ele>106.84</ele>
        <time>2018-12-27T09:42:45Z</time>
      </trkpt>
      <trkpt lat="43.24371" lon="6.00065">
        <ele>110.21</ele>
        <time>2018-12-27T09:42:47Z</time>
      </trkpt>
      <trkpt lat="43.2437" lon="6.00066">
        <ele>113.57</ele>
        <time>2018-12-27T09:42:49Z</time>
      </trkpt>
      <trkpt lat="43.2437" lon="6.00066">
        <ele>117.9</ele>
        <time>2018-12-27T09:42:51Z</time>
      </trkpt>
      <trkpt lat="43.24369" lon="6.00065">
        <ele>120.78</ele>
        <time>2018-12-27T09:42:54Z</time>
      </trkpt>
      <trkpt lat="43.24369" lon="6.00065">
        <ele>123.67</ele>
        <time>2018-12-27T09:42:56Z</time>
      </trkpt>
      <trkpt lat="43.24369" lon="6.00064">
        <ele>127.03</ele>
        <time>2018-12-27T09:43:07Z</time>
      </trkpt>
      <trkpt lat="43.24371" lon="6.00063">
        <ele>130.4</ele>
        <time>2018-12-27T09:43:10Z</time>
      </trkpt>
      <trkpt lat="43.24374" lon="6.00061">
        <ele>133.76</ele>
        <time>2018-12-27T09:43:14Z</time>
      </trkpt>
      <trkpt lat="43.24376" lon="6.00059">
        <ele>137.61</ele>
        <time>2018-12-27T09:43:18Z</time>
      </trkpt>
      <trkpt lat="43.24376" lon="6.00059">
        <ele>138.57</ele>
        <time>2018-12-27T09:43:20Z</time>
      </trkpt>
      <trkpt lat="43.24379" lon="6.00058">
        <ele>141.45</ele>
        <time>2018-12-27T09:43:25Z</time>
      </trkpt>
      <trkpt lat="43.24382" lon="6.00056">
        <ele>142.89</ele>
        <time>2018-12-27T09:43:28Z</time>
      </trkpt>
      <trkpt lat="43.24393" lon="6.00049">
        <ele>145.78</ele>
        <time>2018-12-27T09:43:41Z</time>
      </trkpt>
      <trkpt lat="43.24408" lon="6.00043">
        <ele>147.22</ele>
        <time>2018-12-27T09:43:57Z</time>
      </trkpt>
      <trkpt lat="43.24428" lon="6.00039">
        <ele>147.7</ele>
        <time>2018-12-27T09:44:17Z</time>
      </trkpt>
      <trkpt lat="43.24429" lon="6.0004">
        <ele>147.7</ele>
        <time>2018-12-27T09:44:18Z</time>
      </trkpt>
      <trkpt lat="43.24434" lon="6.00039">
        <ele>146.26</ele>
        <time>2018-12-27T09:44:24Z</time>
      </trkpt>
      <trkpt lat="43.24445" lon="6.00036">
        <ele>145.78</ele>
        <time>2018-12-27T09:44:36Z</time>
      </trkpt>
      <trkpt lat="43.24456" lon="6.00034">
        <ele>144.82</ele>
        <time>2018-12-27T09:44:46Z</time>
      </trkpt>
      <trkpt lat="43.24464" lon="6.00035">
        <ele>143.85</ele>
        <time>2018-12-27T09:44:58Z</time>
      </trkpt>
      <trkpt lat="43.24466" lon="6.00036">
        <ele>144.82</ele>
        <time>2018-12-27T09:45:01Z</time>
      </trkpt>
      <trkpt lat="43.2447" lon="6.00036">
        <ele>144.82</ele>
        <time>2018-12-27T09:45:05Z</time>
      </trkpt>
      <trkpt lat="43.24488" lon="6.00039">
        <ele>145.3</ele>
        <time>2018-12-27T09:45:18Z</time>
      </trkpt>
      <trkpt lat="43.24503" lon="6.00028">
        <ele>145.3</ele>
        <time>2018-12-27T09:45:30Z</time>
      </trkpt>
      <trkpt lat="43.24512" lon="6.00019">
        <ele>145.78</ele>
        <time>2018-12-27T09:45:45Z</time>
      </trkpt>
      <trkpt lat="43.24514" lon="6.00018">
        <ele>145.78</ele>
        <time>2018-12-27T09:45:57Z</time>
      </trkpt>
      <trkpt lat="43.24503" lon="5.9999">
        <ele>146.74</ele>
        <time>2018-12-27T09:46:19Z</time>
      </trkpt>
      <trkpt lat="43.24504" lon="5.99972">
        <ele>146.74</ele>
        <time>2018-12-27T09:46:29Z</time>
      </trkpt>
      <trkpt lat="43.24493" lon="5.99933">
        <ele>147.22</ele>
        <time>2018-12-27T09:46:51Z</time>
      </trkpt>
      <trkpt lat="43.24491" lon="5.99931">
        <ele>147.22</ele>
        <time>2018-12-27T09:46:53Z</time>
      </trkpt>
      <trkpt lat="43.24483" lon="5.99926">
        <ele>145.78</ele>
        <time>2018-12-27T09:47:07Z</time>
      </trkpt>
      <trkpt lat="43.2448" lon="5.99927">
        <ele>146.74</ele>
        <time>2018-12-27T09:47:10Z</time>
      </trkpt>
      <trkpt lat="43.24477" lon="5.9993">
        <ele>146.74</ele>
        <time>2018-12-27T09:47:14Z</time>
      </trkpt>
      <trkpt lat="43.24475" lon="5.99938">
        <ele>143.85</ele>
        <time>2018-12-27T09:47:18Z</time>
      </trkpt>
      <trkpt lat="43.24474" lon="5.99941">
        <ele>147.7</ele>
        <time>2018-12-27T09:47:20Z</time>
      </trkpt>
      <trkpt lat="43.24473" lon="5.99946">
        <ele>146.26</ele>
        <time>2018-12-27T09:47:22Z</time>
      </trkpt>
      <trkpt lat="43.24471" lon="5.99949">
        <ele>147.7</ele>
        <time>2018-12-27T09:47:24Z</time>
      </trkpt>
      <trkpt lat="43.24469" lon="5.99952">
        <ele>146.26</ele>
        <time>2018-12-27T09:47:26Z</time>
      </trkpt>
      <trkpt lat="43.24457" lon="5.99923">
        <ele>147.7</ele>
        <time>2018-12-27T09:47:44Z</time>
      </trkpt>
      <trkpt lat="43.24461" lon="5.99888">
        <ele>147.7</ele>
        <time>2018-12-27T09:48:05Z</time>
      </trkpt>
      <trkpt lat="43.24462" lon="5.99884">
        <ele>148.18</ele>
        <time>2018-12-27T09:48:31Z</time>
      </trkpt>
      <trkpt lat="43.24464" lon="5.99865">
        <ele>149.62</ele>
        <time>2018-12-27T09:48:50Z</time>
      </trkpt>
      <trkpt lat="43.24464" lon="5.99855">
        <ele>151.06</ele>
        <time>2018-12-27T09:48:56Z</time>
      </trkpt>
      <trkpt lat="43.24466" lon="5.99845">
        <ele>152.99</ele>
        <time>2018-12-27T09:49:11Z</time>
      </trkpt>
      <trkpt lat="43.2447" lon="5.99845">
        <ele>153.95</ele>
        <time>2018-12-27T09:49:15Z</time>
      </trkpt>
      <trkpt lat="43.24486" lon="5.99856">
        <ele>156.35</ele>
        <time>2018-12-27T09:49:30Z</time>
      </trkpt>
      <trkpt lat="43.24492" lon="5.99853">
        <ele>156.35</ele>
        <time>2018-12-27T09:49:34Z</time>
      </trkpt>
      <trkpt lat="43.24504" lon="5.99848">
        <ele>157.79</ele>
        <time>2018-12-27T09:49:47Z</time>
      </trkpt>
      <trkpt lat="43.24522" lon="5.9987">
        <ele>158.75</ele>
        <time>2018-12-27T09:50:06Z</time>
      </trkpt>
      <trkpt lat="43.24537" lon="5.9987">
        <ele>160.2</ele>
        <time>2018-12-27T09:50:22Z</time>
      </trkpt>
      <trkpt lat="43.24552" lon="5.99859">
        <ele>162.6</ele>
        <time>2018-12-27T09:50:42Z</time>
      </trkpt>
      <trkpt lat="43.24563" lon="5.9985">
        <ele>163.56</ele>
        <time>2018-12-27T09:50:57Z</time>
      </trkpt>
      <trkpt lat="43.24576" lon="5.99835">
        <ele>165.48</ele>
        <time>2018-12-27T09:51:15Z</time>
      </trkpt>
      <trkpt lat="43.24587" lon="5.99823">
        <ele>165.96</ele>
        <time>2018-12-27T09:51:35Z</time>
      </trkpt>
      <trkpt lat="43.24602" lon="5.99812">
        <ele>166.45</ele>
        <time>2018-12-27T09:51:53Z</time>
      </trkpt>
      <trkpt lat="43.24622" lon="5.99797">
        <ele>167.89</ele>
        <time>2018-12-27T09:52:14Z</time>
      </trkpt>
      <trkpt lat="43.24632" lon="5.99793">
        <ele>166.45</ele>
        <time>2018-12-27T09:52:28Z</time>
      </trkpt>
      <trkpt lat="43.24634" lon="5.99793">
        <ele>165.96</ele>
        <time>2018-12-27T09:52:37Z</time>
      </trkpt>
      <trkpt lat="43.24645" lon="5.99783">
        <ele>166.93</ele>
        <time>2018-12-27T09:52:54Z</time>
      </trkpt>
      <trkpt lat="43.24661" lon="5.99768">
        <ele>164.52</ele>
        <time>2018-12-27T09:53:13Z</time>
      </trkpt>
      <trkpt lat="43.24661" lon="5.99767">
        <ele>164.52</ele>
        <time>2018-12-27T09:53:14Z</time>
      </trkpt>
      <trkpt lat="43.24663" lon="5.99766">
        <ele>166.45</ele>
        <time>2018-12-27T09:53:16Z</time>
      </trkpt>
      <trkpt lat="43.24671" lon="5.99763">
        <ele>165.48</ele>
        <time>2018-12-27T09:53:29Z</time>
      </trkpt>
      <trkpt lat="43.2468" lon="5.99753">
        <ele>165.48</ele>
        <time>2018-12-27T09:53:39Z</time>
      </trkpt>
      <trkpt lat="43.24682" lon="5.99749">
        <ele>167.41</ele>
        <time>2018-12-27T09:53:42Z</time>
      </trkpt>
      <trkpt lat="43.24691" lon="5.99739">
        <ele>165.96</ele>
        <time>2018-12-27T09:53:48Z</time>
      </trkpt>
      <trkpt lat="43.24703" lon="5.99718">
        <ele>167.89</ele>
        <time>2018-12-27T09:54:07Z</time>
      </trkpt>
      <trkpt lat="43.24714" lon="5.997">
        <ele>167.89</ele>
        <time>2018-12-27T09:54:22Z</time>
      </trkpt>
      <trkpt lat="43.24732" lon="5.99688">
        <ele>167.89</ele>
        <time>2018-12-27T09:54:40Z</time>
      </trkpt>
      <trkpt lat="43.24754" lon="5.9968">
        <ele>168.85</ele>
        <time>2018-12-27T09:55:00Z</time>
      </trkpt>
      <trkpt lat="43.24774" lon="5.99679">
        <ele>168.85</ele>
        <time>2018-12-27T09:55:19Z</time>
      </trkpt>
      <trkpt lat="43.24794" lon="5.99682">
        <ele>169.33</ele>
        <time>2018-12-27T09:55:35Z</time>
      </trkpt>
      <trkpt lat="43.24806" lon="5.99681">
        <ele>169.33</ele>
        <time>2018-12-27T09:55:44Z</time>
      </trkpt>
      <trkpt lat="43.24815" lon="5.99679">
        <ele>169.33</ele>
        <time>2018-12-27T09:55:53Z</time>
      </trkpt>
      <trkpt lat="43.24833" lon="5.99679">
        <ele>169.33</ele>
        <time>2018-12-27T09:56:06Z</time>
      </trkpt>
      <trkpt lat="43.24852" lon="5.9968">
        <ele>170.29</ele>
        <time>2018-12-27T09:56:24Z</time>
      </trkpt>
      <trkpt lat="43.24857" lon="5.9968">
        <ele>170.77</ele>
        <time>2018-12-27T09:56:29Z</time>
      </trkpt>
      <trkpt lat="43.2488" lon="5.99673">
        <ele>173.17</ele>
        <time>2018-12-27T09:56:46Z</time>
      </trkpt>
      <trkpt lat="43.24896" lon="5.99672">
        <ele>173.66</ele>
        <time>2018-12-27T09:57:01Z</time>
      </trkpt>
      <trkpt lat="43.24918" lon="5.9967">
        <ele>173.66</ele>
        <time>2018-12-27T09:57:21Z</time>
      </trkpt>
      <trkpt lat="43.2494" lon="5.99665">
        <ele>173.66</ele>
        <time>2018-12-27T09:57:41Z</time>
      </trkpt>
      <trkpt lat="43.24942" lon="5.99665">
        <ele>172.21</ele>
        <time>2018-12-27T09:57:43Z</time>
      </trkpt>
      <trkpt lat="43.24961" lon="5.9965">
        <ele>171.73</ele>
        <time>2018-12-27T09:57:59Z</time>
      </trkpt>
      <trkpt lat="43.24964" lon="5.99631">
        <ele>171.73</ele>
        <time>2018-12-27T09:58:11Z</time>
      </trkpt>
      <trkpt lat="43.24966" lon="5.99602">
        <ele>172.21</ele>
        <time>2018-12-27T09:58:30Z</time>
      </trkpt>
      <trkpt lat="43.24963" lon="5.99588">
        <ele>173.17</ele>
        <time>2018-12-27T09:58:39Z</time>
      </trkpt>
      <trkpt lat="43.24963" lon="5.99555">
        <ele>174.62</ele>
        <time>2018-12-27T09:58:56Z</time>
      </trkpt>
      <trkpt lat="43.24966" lon="5.99525">
        <ele>174.62</ele>
        <time>2018-12-27T09:59:15Z</time>
      </trkpt>
      <trkpt lat="43.2497" lon="5.99494">
        <ele>174.62</ele>
        <time>2018-12-27T09:59:36Z</time>
      </trkpt>
      <trkpt lat="43.24973" lon="5.99465">
        <ele>175.1</ele>
        <time>2018-12-27T09:59:56Z</time>
      </trkpt>
      <trkpt lat="43.24979" lon="5.9944">
        <ele>175.58</ele>
        <time>2018-12-27T10:00:13Z</time>
      </trkpt>
      <trkpt lat="43.24988" lon="5.99417">
        <ele>176.06</ele>
        <time>2018-12-27T10:00:31Z</time>
      </trkpt>
      <trkpt lat="43.24999" lon="5.99398">
        <ele>176.06</ele>
        <time>2018-12-27T10:00:48Z</time>
      </trkpt>
      <trkpt lat="43.25014" lon="5.99374">
        <ele>176.54</ele>
        <time>2018-12-27T10:01:07Z</time>
      </trkpt>
      <trkpt lat="43.2503" lon="5.99351">
        <ele>176.54</ele>
        <time>2018-12-27T10:01:25Z</time>
      </trkpt>
      <trkpt lat="43.25043" lon="5.99335">
        <ele>175.58</ele>
        <time>2018-12-27T10:01:38Z</time>
      </trkpt>
      <trkpt lat="43.25049" lon="5.99327">
        <ele>175.58</ele>
        <time>2018-12-27T10:01:46Z</time>
      </trkpt>
      <trkpt lat="43.25051" lon="5.99326">
        <ele>175.58</ele>
        <time>2018-12-27T10:01:47Z</time>
      </trkpt>
      <trkpt lat="43.25065" lon="5.99314">
        <ele>175.58</ele>
        <time>2018-12-27T10:02:00Z</time>
      </trkpt>
      <trkpt lat="43.25078" lon="5.99303">
        <ele>175.58</ele>
        <time>2018-12-27T10:02:15Z</time>
      </trkpt>
      <trkpt lat="43.25088" lon="5.99297">
        <ele>175.58</ele>
        <time>2018-12-27T10:02:25Z</time>
      </trkpt>
      <trkpt lat="43.25089" lon="5.99297">
        <ele>175.58</ele>
        <time>2018-12-27T10:02:26Z</time>
      </trkpt>
      <trkpt lat="43.251" lon="5.99295">
        <ele>175.58</ele>
        <time>2018-12-27T10:02:35Z</time>
      </trkpt>
      <trkpt lat="43.25102" lon="5.99295">
        <ele>175.58</ele>
        <time>2018-12-27T10:02:36Z</time>
      </trkpt>
      <trkpt lat="43.25104" lon="5.99294">
        <ele>175.58</ele>
        <time>2018-12-27T10:02:37Z</time>
      </trkpt>
      <trkpt lat="43.25118" lon="5.99289">
        <ele>176.54</ele>
        <time>2018-12-27T10:02:49Z</time>
      </trkpt>
      <trkpt lat="43.25127" lon="5.99288">
        <ele>176.54</ele>
        <time>2018-12-27T10:02:57Z</time>
      </trkpt>
      <trkpt lat="43.25142" lon="5.99279">
        <ele>176.54</ele>
        <time>2018-12-27T10:03:09Z</time>
      </trkpt>
      <trkpt lat="43.25152" lon="5.9928">
        <ele>176.54</ele>
        <time>2018-12-27T10:03:24Z</time>
      </trkpt>
      <trkpt lat="43.25159" lon="5.99277">
        <ele>176.54</ele>
        <time>2018-12-27T10:03:40Z</time>
      </trkpt>
      <trkpt lat="43.25173" lon="5.99269">
        <ele>177.02</ele>
        <time>2018-12-27T10:03:54Z</time>
      </trkpt>
      <trkpt lat="43.25173" lon="5.99268">
        <ele>177.02</ele>
        <time>2018-12-27T10:03:55Z</time>
      </trkpt>
      <trkpt lat="43.25182" lon="5.99258">
        <ele>176.54</ele>
        <time>2018-12-27T10:04:07Z</time>
      </trkpt>
      <trkpt lat="43.25183" lon="5.99257">
        <ele>176.54</ele>
        <time>2018-12-27T10:04:08Z</time>
      </trkpt>
      <trkpt lat="43.25184" lon="5.99254">
        <ele>178.46</ele>
        <time>2018-12-27T10:04:10Z</time>
      </trkpt>
      <trkpt lat="43.25188" lon="5.99249">
        <ele>176.54</ele>
        <time>2018-12-27T10:04:14Z</time>
      </trkpt>
      <trkpt lat="43.2519" lon="5.99247">
        <ele>178.46</ele>
        <time>2018-12-27T10:04:16Z</time>
      </trkpt>
      <trkpt lat="43.25193" lon="5.99244">
        <ele>177.02</ele>
        <time>2018-12-27T10:04:19Z</time>
      </trkpt>
      <trkpt lat="43.25195" lon="5.99243">
        <ele>177.02</ele>
        <time>2018-12-27T10:04:20Z</time>
      </trkpt>
      <trkpt lat="43.25218" lon="5.99223">
        <ele>176.54</ele>
        <time>2018-12-27T10:04:42Z</time>
      </trkpt>
      <trkpt lat="43.25219" lon="5.99221">
        <ele>177.98</ele>
        <time>2018-12-27T10:04:44Z</time>
      </trkpt>
      <trkpt lat="43.25224" lon="5.99209">
        <ele>177.5</ele>
        <time>2018-12-27T10:04:53Z</time>
      </trkpt>
      <trkpt lat="43.25226" lon="5.99204">
        <ele>178.46</ele>
        <time>2018-12-27T10:04:57Z</time>
      </trkpt>
      <trkpt lat="43.2523" lon="5.99199">
        <ele>177.02</ele>
        <time>2018-12-27T10:05:01Z</time>
      </trkpt>
      <trkpt lat="43.25233" lon="5.99195">
        <ele>178.46</ele>
        <time>2018-12-27T10:05:05Z</time>
      </trkpt>
      <trkpt lat="43.2524" lon="5.99191">
        <ele>176.54</ele>
        <time>2018-12-27T10:05:10Z</time>
      </trkpt>
      <trkpt lat="43.25259" lon="5.99175">
        <ele>177.5</ele>
        <time>2018-12-27T10:05:28Z</time>
      </trkpt>
      <trkpt lat="43.25275" lon="5.99141">
        <ele>177.98</ele>
        <time>2018-12-27T10:05:54Z</time>
      </trkpt>
      <trkpt lat="43.25279" lon="5.99127">
        <ele>176.54</ele>
        <time>2018-12-27T10:06:03Z</time>
      </trkpt>
      <trkpt lat="43.2528" lon="5.99124">
        <ele>178.46</ele>
        <time>2018-12-27T10:06:05Z</time>
      </trkpt>
      <trkpt lat="43.25283" lon="5.99117">
        <ele>177.02</ele>
        <time>2018-12-27T10:06:10Z</time>
      </trkpt>
      <trkpt lat="43.25286" lon="5.99115">
        <ele>178.46</ele>
        <time>2018-12-27T10:06:12Z</time>
      </trkpt>
      <trkpt lat="43.25289" lon="5.99112">
        <ele>177.5</ele>
        <time>2018-12-27T10:06:15Z</time>
      </trkpt>
      <trkpt lat="43.2529" lon="5.99109">
        <ele>178.94</ele>
        <time>2018-12-27T10:06:17Z</time>
      </trkpt>
      <trkpt lat="43.25299" lon="5.99088">
        <ele>179.42</ele>
        <time>2018-12-27T10:06:33Z</time>
      </trkpt>
      <trkpt lat="43.25311" lon="5.99052">
        <ele>180.38</ele>
        <time>2018-12-27T10:06:52Z</time>
      </trkpt>
      <trkpt lat="43.25311" lon="5.99049">
        <ele>178.94</ele>
        <time>2018-12-27T10:06:54Z</time>
      </trkpt>
      <trkpt lat="43.2531" lon="5.9904">
        <ele>180.38</ele>
        <time>2018-12-27T10:07:01Z</time>
      </trkpt>
      <trkpt lat="43.25312" lon="5.99013">
        <ele>179.9</ele>
        <time>2018-12-27T10:07:20Z</time>
      </trkpt>
      <trkpt lat="43.25313" lon="5.98993">
        <ele>180.38</ele>
        <time>2018-12-27T10:07:30Z</time>
      </trkpt>
      <trkpt lat="43.25313" lon="5.98988">
        <ele>178.94</ele>
        <time>2018-12-27T10:07:33Z</time>
      </trkpt>
      <trkpt lat="43.25322" lon="5.98956">
        <ele>178.46</ele>
        <time>2018-12-27T10:07:53Z</time>
      </trkpt>
      <trkpt lat="43.25325" lon="5.98949">
        <ele>179.9</ele>
        <time>2018-12-27T10:07:57Z</time>
      </trkpt>
      <trkpt lat="43.25326" lon="5.98945">
        <ele>178.46</ele>
        <time>2018-12-27T10:07:59Z</time>
      </trkpt>
      <trkpt lat="43.25326" lon="5.98935">
        <ele>177.98</ele>
        <time>2018-12-27T10:08:07Z</time>
      </trkpt>
      <trkpt lat="43.25324" lon="5.98929">
        <ele>179.42</ele>
        <time>2018-12-27T10:08:10Z</time>
      </trkpt>
      <trkpt lat="43.25326" lon="5.9892">
        <ele>177.5</ele>
        <time>2018-12-27T10:08:15Z</time>
      </trkpt>
      <trkpt lat="43.25328" lon="5.98917">
        <ele>178.94</ele>
        <time>2018-12-27T10:08:17Z</time>
      </trkpt>
      <trkpt lat="43.25329" lon="5.98912">
        <ele>177.02</ele>
        <time>2018-12-27T10:08:21Z</time>
      </trkpt>
      <trkpt lat="43.2533" lon="5.98909">
        <ele>178.46</ele>
        <time>2018-12-27T10:08:23Z</time>
      </trkpt>
      <trkpt lat="43.25334" lon="5.9889">
        <ele>176.54</ele>
        <time>2018-12-27T10:08:42Z</time>
      </trkpt>
      <trkpt lat="43.25333" lon="5.98887">
        <ele>178.46</ele>
        <time>2018-12-27T10:08:44Z</time>
      </trkpt>
      <trkpt lat="43.25329" lon="5.98866">
        <ele>178.46</ele>
        <time>2018-12-27T10:08:59Z</time>
      </trkpt>
      <trkpt lat="43.25329" lon="5.9886">
        <ele>177.02</ele>
        <time>2018-12-27T10:09:02Z</time>
      </trkpt>
      <trkpt lat="43.2533" lon="5.98856">
        <ele>178.94</ele>
        <time>2018-12-27T10:09:04Z</time>
      </trkpt>
      <trkpt lat="43.2533" lon="5.98847">
        <ele>177.02</ele>
        <time>2018-12-27T10:09:08Z</time>
      </trkpt>
      <trkpt lat="43.25329" lon="5.98834">
        <ele>178.94</ele>
        <time>2018-12-27T10:09:16Z</time>
      </trkpt>
      <trkpt lat="43.25329" lon="5.9883">
        <ele>177.5</ele>
        <time>2018-12-27T10:09:18Z</time>
      </trkpt>
      <trkpt lat="43.25329" lon="5.98812">
        <ele>177.98</ele>
        <time>2018-12-27T10:09:27Z</time>
      </trkpt>
      <trkpt lat="43.25329" lon="5.98808">
        <ele>178.46</ele>
        <time>2018-12-27T10:09:29Z</time>
      </trkpt>
      <trkpt lat="43.25327" lon="5.98798">
        <ele>178.46</ele>
        <time>2018-12-27T10:09:35Z</time>
      </trkpt>
      <trkpt lat="43.25328" lon="5.98788">
        <ele>178.46</ele>
        <time>2018-12-27T10:09:43Z</time>
      </trkpt>
      <trkpt lat="43.2534" lon="5.98773">
        <ele>179.9</ele>
        <time>2018-12-27T10:09:57Z</time>
      </trkpt>
      <trkpt lat="43.25341" lon="5.9877">
        <ele>180.38</ele>
        <time>2018-12-27T10:10:00Z</time>
      </trkpt>
      <trkpt lat="43.25342" lon="5.98768">
        <ele>180.38</ele>
        <time>2018-12-27T10:10:01Z</time>
      </trkpt>
      <trkpt lat="43.25343" lon="5.98766">
        <ele>180.38</ele>
        <time>2018-12-27T10:10:02Z</time>
      </trkpt>
      <trkpt lat="43.25346" lon="5.98756">
        <ele>180.87</ele>
        <time>2018-12-27T10:10:08Z</time>
      </trkpt>
      <trkpt lat="43.25346" lon="5.98754">
        <ele>180.87</ele>
        <time>2018-12-27T10:10:09Z</time>
      </trkpt>
      <trkpt lat="43.25346" lon="5.98752">
        <ele>180.87</ele>
        <time>2018-12-27T10:10:10Z</time>
      </trkpt>
      <trkpt lat="43.25346" lon="5.9875">
        <ele>181.83</ele>
        <time>2018-12-27T10:10:11Z</time>
      </trkpt>
      <trkpt lat="43.25347" lon="5.98748">
        <ele>181.83</ele>
        <time>2018-12-27T10:10:12Z</time>
      </trkpt>
      <trkpt lat="43.25347" lon="5.98747">
        <ele>181.83</ele>
        <time>2018-12-27T10:10:13Z</time>
      </trkpt>
      <trkpt lat="43.2535" lon="5.98723">
        <ele>181.83</ele>
        <time>2018-12-27T10:10:27Z</time>
      </trkpt>
      <trkpt lat="43.2535" lon="5.98705">
        <ele>182.79</ele>
        <time>2018-12-27T10:10:38Z</time>
      </trkpt>
      <trkpt lat="43.2535" lon="5.98693">
        <ele>182.79</ele>
        <time>2018-12-27T10:10:46Z</time>
      </trkpt>
      <trkpt lat="43.2535" lon="5.98692">
        <ele>182.79</ele>
        <time>2018-12-27T10:10:47Z</time>
      </trkpt>
      <trkpt lat="43.2535" lon="5.98689">
        <ele>182.79</ele>
        <time>2018-12-27T10:10:48Z</time>
      </trkpt>
      <trkpt lat="43.2535" lon="5.98687">
        <ele>182.79</ele>
        <time>2018-12-27T10:10:49Z</time>
      </trkpt>
      <trkpt lat="43.2535" lon="5.9867">
        <ele>182.79</ele>
        <time>2018-12-27T10:11:00Z</time>
      </trkpt>
      <trkpt lat="43.25355" lon="5.98652">
        <ele>182.79</ele>
        <time>2018-12-27T10:11:12Z</time>
      </trkpt>
      <trkpt lat="43.25358" lon="5.98645">
        <ele>182.79</ele>
        <time>2018-12-27T10:11:18Z</time>
      </trkpt>
      <trkpt lat="43.2536" lon="5.98643">
        <ele>182.79</ele>
        <time>2018-12-27T10:11:19Z</time>
      </trkpt>
      <trkpt lat="43.2536" lon="5.9864">
        <ele>182.79</ele>
        <time>2018-12-27T10:11:20Z</time>
      </trkpt>
      <trkpt lat="43.25365" lon="5.98627">
        <ele>182.79</ele>
        <time>2018-12-27T10:11:29Z</time>
      </trkpt>
      <trkpt lat="43.25365" lon="5.98623">
        <ele>182.79</ele>
        <time>2018-12-27T10:11:32Z</time>
      </trkpt>
      <trkpt lat="43.25365" lon="5.98621">
        <ele>182.79</ele>
        <time>2018-12-27T10:11:33Z</time>
      </trkpt>
      <trkpt lat="43.25365" lon="5.98619">
        <ele>182.79</ele>
        <time>2018-12-27T10:11:34Z</time>
      </trkpt>
      <trkpt lat="43.25363" lon="5.986">
        <ele>182.79</ele>
        <time>2018-12-27T10:11:47Z</time>
      </trkpt>
      <trkpt lat="43.25363" lon="5.98596">
        <ele>182.79</ele>
        <time>2018-12-27T10:11:49Z</time>
      </trkpt>
      <trkpt lat="43.25363" lon="5.98594">
        <ele>182.79</ele>
        <time>2018-12-27T10:11:50Z</time>
      </trkpt>
      <trkpt lat="43.25362" lon="5.98592">
        <ele>182.79</ele>
        <time>2018-12-27T10:11:51Z</time>
      </trkpt>
      <trkpt lat="43.25359" lon="5.98584">
        <ele>182.79</ele>
        <time>2018-12-27T10:11:57Z</time>
      </trkpt>
      <trkpt lat="43.25354" lon="5.9857">
        <ele>183.27</ele>
        <time>2018-12-27T10:12:09Z</time>
      </trkpt>
      <trkpt lat="43.25352" lon="5.98568">
        <ele>183.27</ele>
        <time>2018-12-27T10:12:12Z</time>
      </trkpt>
      <trkpt lat="43.25351" lon="5.98567">
        <ele>183.27</ele>
        <time>2018-12-27T10:12:13Z</time>
      </trkpt>
      <trkpt lat="43.25349" lon="5.98561">
        <ele>183.27</ele>
        <time>2018-12-27T10:12:18Z</time>
      </trkpt>
      <trkpt lat="43.25349" lon="5.98559">
        <ele>183.27</ele>
        <time>2018-12-27T10:12:19Z</time>
      </trkpt>
      <trkpt lat="43.25345" lon="5.98543">
        <ele>184.71</ele>
        <time>2018-12-27T10:12:27Z</time>
      </trkpt>
      <trkpt lat="43.25344" lon="5.9854">
        <ele>184.71</ele>
        <time>2018-12-27T10:12:30Z</time>
      </trkpt>
      <trkpt lat="43.25342" lon="5.98532">
        <ele>184.71</ele>
        <time>2018-12-27T10:12:37Z</time>
      </trkpt>
      <trkpt lat="43.2534" lon="5.98527">
        <ele>184.71</ele>
        <time>2018-12-27T10:12:41Z</time>
      </trkpt>
      <trkpt lat="43.25337" lon="5.98521">
        <ele>185.19</ele>
        <time>2018-12-27T10:12:46Z</time>
      </trkpt>
      <trkpt lat="43.25334" lon="5.98515">
        <ele>185.67</ele>
        <time>2018-12-27T10:12:50Z</time>
      </trkpt>
      <trkpt lat="43.25327" lon="5.98497">
        <ele>186.63</ele>
        <time>2018-12-27T10:13:05Z</time>
      </trkpt>
      <trkpt lat="43.25322" lon="5.98487">
        <ele>187.59</ele>
        <time>2018-12-27T10:13:15Z</time>
      </trkpt>
      <trkpt lat="43.25321" lon="5.98483">
        <ele>188.56</ele>
        <time>2018-12-27T10:13:17Z</time>
      </trkpt>
      <trkpt lat="43.25318" lon="5.98479">
        <ele>188.08</ele>
        <time>2018-12-27T10:13:21Z</time>
      </trkpt>
      <trkpt lat="43.25317" lon="5.98477">
        <ele>188.56</ele>
        <time>2018-12-27T10:13:22Z</time>
      </trkpt>
      <trkpt lat="43.25315" lon="5.98471">
        <ele>188.56</ele>
        <time>2018-12-27T10:13:27Z</time>
      </trkpt>
      <trkpt lat="43.25315" lon="5.98468">
        <ele>188.56</ele>
        <time>2018-12-27T10:13:28Z</time>
      </trkpt>
      <trkpt lat="43.25313" lon="5.98459">
        <ele>188.56</ele>
        <time>2018-12-27T10:13:34Z</time>
      </trkpt>
      <trkpt lat="43.25314" lon="5.98457">
        <ele>188.56</ele>
        <time>2018-12-27T10:13:35Z</time>
      </trkpt>
      <trkpt lat="43.25314" lon="5.98455">
        <ele>188.56</ele>
        <time>2018-12-27T10:13:36Z</time>
      </trkpt>
      <trkpt lat="43.25315" lon="5.98448">
        <ele>188.56</ele>
        <time>2018-12-27T10:13:41Z</time>
      </trkpt>
      <trkpt lat="43.25316" lon="5.98446">
        <ele>188.56</ele>
        <time>2018-12-27T10:13:42Z</time>
      </trkpt>
      <trkpt lat="43.25317" lon="5.98444">
        <ele>188.56</ele>
        <time>2018-12-27T10:13:43Z</time>
      </trkpt>
      <trkpt lat="43.2532" lon="5.98441">
        <ele>188.56</ele>
        <time>2018-12-27T10:13:47Z</time>
      </trkpt>
      <trkpt lat="43.25328" lon="5.98443">
        <ele>188.56</ele>
        <time>2018-12-27T10:13:58Z</time>
      </trkpt>
      <trkpt lat="43.25329" lon="5.98444">
        <ele>188.56</ele>
        <time>2018-12-27T10:13:59Z</time>
      </trkpt>
      <trkpt lat="43.25334" lon="5.98447">
        <ele>188.56</ele>
        <time>2018-12-27T10:14:03Z</time>
      </trkpt>
      <trkpt lat="43.25335" lon="5.98448">
        <ele>188.56</ele>
        <time>2018-12-27T10:14:04Z</time>
      </trkpt>
      <trkpt lat="43.25336" lon="5.98448">
        <ele>188.56</ele>
        <time>2018-12-27T10:14:05Z</time>
      </trkpt>
      <trkpt lat="43.25338" lon="5.98449">
        <ele>188.56</ele>
        <time>2018-12-27T10:14:08Z</time>
      </trkpt>
      <trkpt lat="43.25339" lon="5.9845">
        <ele>188.56</ele>
        <time>2018-12-27T10:14:09Z</time>
      </trkpt>
      <trkpt lat="43.2534" lon="5.98451">
        <ele>188.56</ele>
        <time>2018-12-27T10:14:10Z</time>
      </trkpt>
      <trkpt lat="43.25351" lon="5.98459">
        <ele>187.11</ele>
        <time>2018-12-27T10:14:20Z</time>
      </trkpt>
      <trkpt lat="43.25352" lon="5.9846">
        <ele>187.11</ele>
        <time>2018-12-27T10:14:22Z</time>
      </trkpt>
      <trkpt lat="43.25354" lon="5.98461">
        <ele>187.11</ele>
        <time>2018-12-27T10:14:23Z</time>
      </trkpt>
      <trkpt lat="43.25355" lon="5.98462">
        <ele>186.63</ele>
        <time>2018-12-27T10:14:24Z</time>
      </trkpt>
      <trkpt lat="43.25359" lon="5.98463">
        <ele>186.63</ele>
        <time>2018-12-27T10:14:28Z</time>
      </trkpt>
      <trkpt lat="43.25361" lon="5.98464">
        <ele>186.63</ele>
        <time>2018-12-27T10:14:29Z</time>
      </trkpt>
      <trkpt lat="43.25368" lon="5.98465">
        <ele>186.15</ele>
        <time>2018-12-27T10:14:35Z</time>
      </trkpt>
      <trkpt lat="43.25369" lon="5.98466">
        <ele>185.67</ele>
        <time>2018-12-27T10:14:36Z</time>
      </trkpt>
      <trkpt lat="43.25372" lon="5.98466">
        <ele>185.67</ele>
        <time>2018-12-27T10:14:37Z</time>
      </trkpt>
      <trkpt lat="43.25374" lon="5.98466">
        <ele>185.67</ele>
        <time>2018-12-27T10:14:38Z</time>
      </trkpt>
      <trkpt lat="43.25376" lon="5.98467">
        <ele>185.67</ele>
        <time>2018-12-27T10:14:42Z</time>
      </trkpt>
      <trkpt lat="43.25377" lon="5.98467">
        <ele>185.19</ele>
        <time>2018-12-27T10:14:43Z</time>
      </trkpt>
      <trkpt lat="43.25379" lon="5.98467">
        <ele>185.19</ele>
        <time>2018-12-27T10:14:44Z</time>
      </trkpt>
      <trkpt lat="43.25381" lon="5.98467">
        <ele>185.19</ele>
        <time>2018-12-27T10:14:45Z</time>
      </trkpt>
      <trkpt lat="43.2539" lon="5.98458">
        <ele>185.19</ele>
        <time>2018-12-27T10:14:55Z</time>
      </trkpt>
      <trkpt lat="43.25398" lon="5.98448">
        <ele>185.67</ele>
        <time>2018-12-27T10:15:06Z</time>
      </trkpt>
      <trkpt lat="43.25402" lon="5.98435">
        <ele>185.67</ele>
        <time>2018-12-27T10:15:17Z</time>
      </trkpt>
      <trkpt lat="43.25405" lon="5.98426">
        <ele>185.67</ele>
        <time>2018-12-27T10:15:23Z</time>
      </trkpt>
      <trkpt lat="43.25405" lon="5.98424">
        <ele>185.67</ele>
        <time>2018-12-27T10:15:24Z</time>
      </trkpt>
      <trkpt lat="43.25411" lon="5.98403">
        <ele>185.67</ele>
        <time>2018-12-27T10:15:38Z</time>
      </trkpt>
      <trkpt lat="43.25414" lon="5.98394">
        <ele>185.67</ele>
        <time>2018-12-27T10:15:44Z</time>
      </trkpt>
      <trkpt lat="43.25415" lon="5.98392">
        <ele>186.15</ele>
        <time>2018-12-27T10:15:45Z</time>
      </trkpt>
      <trkpt lat="43.2542" lon="5.98375">
        <ele>186.15</ele>
        <time>2018-12-27T10:15:57Z</time>
      </trkpt>
      <trkpt lat="43.25421" lon="5.98374">
        <ele>186.15</ele>
        <time>2018-12-27T10:15:58Z</time>
      </trkpt>
      <trkpt lat="43.25421" lon="5.98372">
        <ele>186.15</ele>
        <time>2018-12-27T10:15:59Z</time>
      </trkpt>
      <trkpt lat="43.25428" lon="5.98355">
        <ele>186.15</ele>
        <time>2018-12-27T10:16:11Z</time>
      </trkpt>
      <trkpt lat="43.25432" lon="5.98337">
        <ele>186.15</ele>
        <time>2018-12-27T10:16:23Z</time>
      </trkpt>
      <trkpt lat="43.25432" lon="5.98319">
        <ele>187.11</ele>
        <time>2018-12-27T10:16:37Z</time>
      </trkpt>
      <trkpt lat="43.25432" lon="5.98318">
        <ele>187.11</ele>
        <time>2018-12-27T10:16:38Z</time>
      </trkpt>
      <trkpt lat="43.25434" lon="5.9829">
        <ele>187.59</ele>
        <time>2018-12-27T10:16:56Z</time>
      </trkpt>
      <trkpt lat="43.25433" lon="5.98284">
        <ele>187.59</ele>
        <time>2018-12-27T10:17:00Z</time>
      </trkpt>
      <trkpt lat="43.25433" lon="5.98283">
        <ele>187.59</ele>
        <time>2018-12-27T10:17:01Z</time>
      </trkpt>
      <trkpt lat="43.25432" lon="5.98261">
        <ele>187.59</ele>
        <time>2018-12-27T10:17:14Z</time>
      </trkpt>
      <trkpt lat="43.25433" lon="5.9824">
        <ele>187.59</ele>
        <time>2018-12-27T10:17:30Z</time>
      </trkpt>
      <trkpt lat="43.25429" lon="5.98213">
        <ele>189.04</ele>
        <time>2018-12-27T10:17:49Z</time>
      </trkpt>
      <trkpt lat="43.25429" lon="5.98209">
        <ele>189.04</ele>
        <time>2018-12-27T10:17:52Z</time>
      </trkpt>
      <trkpt lat="43.25425" lon="5.98193">
        <ele>190</ele>
        <time>2018-12-27T10:18:02Z</time>
      </trkpt>
      <trkpt lat="43.25425" lon="5.98186">
        <ele>190</ele>
        <time>2018-12-27T10:18:07Z</time>
      </trkpt>
      <trkpt lat="43.25425" lon="5.98184">
        <ele>190</ele>
        <time>2018-12-27T10:18:08Z</time>
      </trkpt>
      <trkpt lat="43.25424" lon="5.98168">
        <ele>191.44</ele>
        <time>2018-12-27T10:18:16Z</time>
      </trkpt>
      <trkpt lat="43.25422" lon="5.9816">
        <ele>191.44</ele>
        <time>2018-12-27T10:18:22Z</time>
      </trkpt>
      <trkpt lat="43.25414" lon="5.9814">
        <ele>192.4</ele>
        <time>2018-12-27T10:18:36Z</time>
      </trkpt>
      <trkpt lat="43.25413" lon="5.9813">
        <ele>192.4</ele>
        <time>2018-12-27T10:18:49Z</time>
      </trkpt>
      <trkpt lat="43.25412" lon="5.98123">
        <ele>192.4</ele>
        <time>2018-12-27T10:18:56Z</time>
      </trkpt>
      <trkpt lat="43.25411" lon="5.98121">
        <ele>192.4</ele>
        <time>2018-12-27T10:18:57Z</time>
      </trkpt>
      <trkpt lat="43.2541" lon="5.98109">
        <ele>193.84</ele>
        <time>2018-12-27T10:19:11Z</time>
      </trkpt>
      <trkpt lat="43.2541" lon="5.98105">
        <ele>194.32</ele>
        <time>2018-12-27T10:19:15Z</time>
      </trkpt>
      <trkpt lat="43.25411" lon="5.98091">
        <ele>194.8</ele>
        <time>2018-12-27T10:19:27Z</time>
      </trkpt>
      <trkpt lat="43.25409" lon="5.98078">
        <ele>195.77</ele>
        <time>2018-12-27T10:19:41Z</time>
      </trkpt>
      <trkpt lat="43.25409" lon="5.98071">
        <ele>195.77</ele>
        <time>2018-12-27T10:19:55Z</time>
      </trkpt>
      <trkpt lat="43.25411" lon="5.98066">
        <ele>195.77</ele>
        <time>2018-12-27T10:20:12Z</time>
      </trkpt>
      <trkpt lat="43.25409" lon="5.98051">
        <ele>197.69</ele>
        <time>2018-12-27T10:20:25Z</time>
      </trkpt>
      <trkpt lat="43.25406" lon="5.98032">
        <ele>201.05</ele>
        <time>2018-12-27T10:20:39Z</time>
      </trkpt>
      <trkpt lat="43.25406" lon="5.98023">
        <ele>202.98</ele>
        <time>2018-12-27T10:20:51Z</time>
      </trkpt>
      <trkpt lat="43.25404" lon="5.98018">
        <ele>203.94</ele>
        <time>2018-12-27T10:20:58Z</time>
      </trkpt>
      <trkpt lat="43.25403" lon="5.98011">
        <ele>205.38</ele>
        <time>2018-12-27T10:21:03Z</time>
      </trkpt>
      <trkpt lat="43.25406" lon="5.98005">
        <ele>207.78</ele>
        <time>2018-12-27T10:21:08Z</time>
      </trkpt>
      <trkpt lat="43.25411" lon="5.98005">
        <ele>208.74</ele>
        <time>2018-12-27T10:21:23Z</time>
      </trkpt>
      <trkpt lat="43.25414" lon="5.98008">
        <ele>209.22</ele>
        <time>2018-12-27T10:21:28Z</time>
      </trkpt>
      <trkpt lat="43.25416" lon="5.98008">
        <ele>209.7</ele>
        <time>2018-12-27T10:21:29Z</time>
      </trkpt>
      <trkpt lat="43.25419" lon="5.98011">
        <ele>211.63</ele>
        <time>2018-12-27T10:21:39Z</time>
      </trkpt>
      <trkpt lat="43.25427" lon="5.98016">
        <ele>213.55</ele>
        <time>2018-12-27T10:21:49Z</time>
      </trkpt>
      <trkpt lat="43.25434" lon="5.98021">
        <ele>214.99</ele>
        <time>2018-12-27T10:21:58Z</time>
      </trkpt>
      <trkpt lat="43.25439" lon="5.98023">
        <ele>215.95</ele>
        <time>2018-12-27T10:22:12Z</time>
      </trkpt>
      <trkpt lat="43.25448" lon="5.98025">
        <ele>219.32</ele>
        <time>2018-12-27T10:22:25Z</time>
      </trkpt>
      <trkpt lat="43.25453" lon="5.98019">
        <ele>220.76</ele>
        <time>2018-12-27T10:22:39Z</time>
      </trkpt>
      <trkpt lat="43.25457" lon="5.98013">
        <ele>224.12</ele>
        <time>2018-12-27T10:22:52Z</time>
      </trkpt>
      <trkpt lat="43.25462" lon="5.98003">
        <ele>226.05</ele>
        <time>2018-12-27T10:23:05Z</time>
      </trkpt>
      <trkpt lat="43.25464" lon="5.97997">
        <ele>227.49</ele>
        <time>2018-12-27T10:23:11Z</time>
      </trkpt>
      <trkpt lat="43.25473" lon="5.97985">
        <ele>229.89</ele>
        <time>2018-12-27T10:23:26Z</time>
      </trkpt>
      <trkpt lat="43.25478" lon="5.9798">
        <ele>230.85</ele>
        <time>2018-12-27T10:23:40Z</time>
      </trkpt>
      <trkpt lat="43.2548" lon="5.97978">
        <ele>230.85</ele>
        <time>2018-12-27T10:23:43Z</time>
      </trkpt>
      <trkpt lat="43.2548" lon="5.97977">
        <ele>230.85</ele>
        <time>2018-12-27T10:23:44Z</time>
      </trkpt>
      <trkpt lat="43.25492" lon="5.97965">
        <ele>233.26</ele>
        <time>2018-12-27T10:23:58Z</time>
      </trkpt>
      <trkpt lat="43.25496" lon="5.97963">
        <ele>233.74</ele>
        <time>2018-12-27T10:24:05Z</time>
      </trkpt>
      <trkpt lat="43.25499" lon="5.9796">
        <ele>234.22</ele>
        <time>2018-12-27T10:24:10Z</time>
      </trkpt>
      <trkpt lat="43.25501" lon="5.97956">
        <ele>234.22</ele>
        <time>2018-12-27T10:24:14Z</time>
      </trkpt>
      <trkpt lat="43.25502" lon="5.97955">
        <ele>234.22</ele>
        <time>2018-12-27T10:24:15Z</time>
      </trkpt>
      <trkpt lat="43.25504" lon="5.9795">
        <ele>234.7</ele>
        <time>2018-12-27T10:24:19Z</time>
      </trkpt>
      <trkpt lat="43.25505" lon="5.97948">
        <ele>234.7</ele>
        <time>2018-12-27T10:24:20Z</time>
      </trkpt>
      <trkpt lat="43.25507" lon="5.97942">
        <ele>235.18</ele>
        <time>2018-12-27T10:24:24Z</time>
      </trkpt>
      <trkpt lat="43.25514" lon="5.97932">
        <ele>237.58</ele>
        <time>2018-12-27T10:24:37Z</time>
      </trkpt>
      <trkpt lat="43.25514" lon="5.97932">
        <ele>238.54</ele>
        <time>2018-12-27T10:24:50Z</time>
      </trkpt>
      <trkpt lat="43.25511" lon="5.97933">
        <ele>238.54</ele>
        <time>2018-12-27T10:24:59Z</time>
      </trkpt>
      <trkpt lat="43.25506" lon="5.97932">
        <ele>239.02</ele>
        <time>2018-12-27T10:25:12Z</time>
      </trkpt>
      <trkpt lat="43.25494" lon="5.97938">
        <ele>241.43</ele>
        <time>2018-12-27T10:25:28Z</time>
      </trkpt>
      <trkpt lat="43.25483" lon="5.97939">
        <ele>244.31</ele>
        <time>2018-12-27T10:25:42Z</time>
      </trkpt>
      <trkpt lat="43.2548" lon="5.9794">
        <ele>246.23</ele>
        <time>2018-12-27T10:25:45Z</time>
      </trkpt>
      <trkpt lat="43.2547" lon="5.97941">
        <ele>248.64</ele>
        <time>2018-12-27T10:25:57Z</time>
      </trkpt>
      <trkpt lat="43.25458" lon="5.9794">
        <ele>250.56</ele>
        <time>2018-12-27T10:26:11Z</time>
      </trkpt>
      <trkpt lat="43.25459" lon="5.97942">
        <ele>250.56</ele>
        <time>2018-12-27T10:26:26Z</time>
      </trkpt>
      <trkpt lat="43.25455" lon="5.97943">
        <ele>251.04</ele>
        <time>2018-12-27T10:26:45Z</time>
      </trkpt>
      <trkpt lat="43.25454" lon="5.97939">
        <ele>251.04</ele>
        <time>2018-12-27T10:27:07Z</time>
      </trkpt>
      <trkpt lat="43.25451" lon="5.97936">
        <ele>252.48</ele>
        <time>2018-12-27T10:27:12Z</time>
      </trkpt>
      <trkpt lat="43.25449" lon="5.97934">
        <ele>252.96</ele>
        <time>2018-12-27T10:27:15Z</time>
      </trkpt>
      <trkpt lat="43.25446" lon="5.97921">
        <ele>255.37</ele>
        <time>2018-12-27T10:27:26Z</time>
      </trkpt>
      <trkpt lat="43.25446" lon="5.97919">
        <ele>255.37</ele>
        <time>2018-12-27T10:27:27Z</time>
      </trkpt>
      <trkpt lat="43.25447" lon="5.97913">
        <ele>256.81</ele>
        <time>2018-12-27T10:27:32Z</time>
      </trkpt>
      <trkpt lat="43.25448" lon="5.97908">
        <ele>258.25</ele>
        <time>2018-12-27T10:27:43Z</time>
      </trkpt>
      <trkpt lat="43.25449" lon="5.97905">
        <ele>258.25</ele>
        <time>2018-12-27T10:27:46Z</time>
      </trkpt>
      <trkpt lat="43.25449" lon="5.97903">
        <ele>258.73</ele>
        <time>2018-12-27T10:27:47Z</time>
      </trkpt>
      <trkpt lat="43.25454" lon="5.97889">
        <ele>260.65</ele>
        <time>2018-12-27T10:28:01Z</time>
      </trkpt>
      <trkpt lat="43.25455" lon="5.97886">
        <ele>261.14</ele>
        <time>2018-12-27T10:28:04Z</time>
      </trkpt>
      <trkpt lat="43.25455" lon="5.97881">
        <ele>261.62</ele>
        <time>2018-12-27T10:28:16Z</time>
      </trkpt>
      <trkpt lat="43.25455" lon="5.97869">
        <ele>263.54</ele>
        <time>2018-12-27T10:28:33Z</time>
      </trkpt>
      <trkpt lat="43.25453" lon="5.97856">
        <ele>265.94</ele>
        <time>2018-12-27T10:28:50Z</time>
      </trkpt>
      <trkpt lat="43.25448" lon="5.97842">
        <ele>268.83</ele>
        <time>2018-12-27T10:29:03Z</time>
      </trkpt>
      <trkpt lat="43.25447" lon="5.97838">
        <ele>269.79</ele>
        <time>2018-12-27T10:29:16Z</time>
      </trkpt>
      <trkpt lat="43.25449" lon="5.97829">
        <ele>270.27</ele>
        <time>2018-12-27T10:29:30Z</time>
      </trkpt>
      <trkpt lat="43.25451" lon="5.97819">
        <ele>272.67</ele>
        <time>2018-12-27T10:29:47Z</time>
      </trkpt>
      <trkpt lat="43.25455" lon="5.97808">
        <ele>275.56</ele>
        <time>2018-12-27T10:29:59Z</time>
      </trkpt>
      <trkpt lat="43.25456" lon="5.978">
        <ele>277</ele>
        <time>2018-12-27T10:30:10Z</time>
      </trkpt>
      <trkpt lat="43.25457" lon="5.97797">
        <ele>277.48</ele>
        <time>2018-12-27T10:30:25Z</time>
      </trkpt>
      <trkpt lat="43.2546" lon="5.97784">
        <ele>279.4</ele>
        <time>2018-12-27T10:30:40Z</time>
      </trkpt>
      <trkpt lat="43.25468" lon="5.97775">
        <ele>281.32</ele>
        <time>2018-12-27T10:30:54Z</time>
      </trkpt>
      <trkpt lat="43.25479" lon="5.97767">
        <ele>283.73</ele>
        <time>2018-12-27T10:31:09Z</time>
      </trkpt>
      <trkpt lat="43.25482" lon="5.97763">
        <ele>284.69</ele>
        <time>2018-12-27T10:31:22Z</time>
      </trkpt>
      <trkpt lat="43.25489" lon="5.97756">
        <ele>287.57</ele>
        <time>2018-12-27T10:31:35Z</time>
      </trkpt>
      <trkpt lat="43.25492" lon="5.97752">
        <ele>288.53</ele>
        <time>2018-12-27T10:31:54Z</time>
      </trkpt>
      <trkpt lat="43.25499" lon="5.97744">
        <ele>291.42</ele>
        <time>2018-12-27T10:32:08Z</time>
      </trkpt>
      <trkpt lat="43.25502" lon="5.97739">
        <ele>292.86</ele>
        <time>2018-12-27T10:32:20Z</time>
      </trkpt>
      <trkpt lat="43.25502" lon="5.97737">
        <ele>292.86</ele>
        <time>2018-12-27T10:32:21Z</time>
      </trkpt>
      <trkpt lat="43.25503" lon="5.97735">
        <ele>293.34</ele>
        <time>2018-12-27T10:32:23Z</time>
      </trkpt>
      <trkpt lat="43.25506" lon="5.9773">
        <ele>294.78</ele>
        <time>2018-12-27T10:32:35Z</time>
      </trkpt>
      <trkpt lat="43.25506" lon="5.97729">
        <ele>295.26</ele>
        <time>2018-12-27T10:32:41Z</time>
      </trkpt>
      <trkpt lat="43.25509" lon="5.97725">
        <ele>295.74</ele>
        <time>2018-12-27T10:32:51Z</time>
      </trkpt>
      <trkpt lat="43.25513" lon="5.97715">
        <ele>298.63</ele>
        <time>2018-12-27T10:33:00Z</time>
      </trkpt>
      <trkpt lat="43.25514" lon="5.97713">
        <ele>299.11</ele>
        <time>2018-12-27T10:33:01Z</time>
      </trkpt>
      <trkpt lat="43.25514" lon="5.97707">
        <ele>301.51</ele>
        <time>2018-12-27T10:33:12Z</time>
      </trkpt>
      <trkpt lat="43.25514" lon="5.97706">
        <ele>301.51</ele>
        <time>2018-12-27T10:33:25Z</time>
      </trkpt>
      <trkpt lat="43.25513" lon="5.97705">
        <ele>301.51</ele>
        <time>2018-12-27T10:33:40Z</time>
      </trkpt>
      <trkpt lat="43.25513" lon="5.97705">
        <ele>296.7</ele>
        <time>2018-12-27T10:33:54Z</time>
      </trkpt>
      <trkpt lat="43.25512" lon="5.97705">
        <ele>300.07</ele>
        <time>2018-12-27T10:33:55Z</time>
      </trkpt>
      <trkpt lat="43.25512" lon="5.97703">
        <ele>303.43</ele>
        <time>2018-12-27T10:34:01Z</time>
      </trkpt>
      <trkpt lat="43.25513" lon="5.97704">
        <ele>303.43</ele>
        <time>2018-12-27T10:34:02Z</time>
      </trkpt>
      <trkpt lat="43.25514" lon="5.97704">
        <ele>301.03</ele>
        <time>2018-12-27T10:34:04Z</time>
      </trkpt>
      <trkpt lat="43.25513" lon="5.97701">
        <ele>302.47</ele>
        <time>2018-12-27T10:34:35Z</time>
      </trkpt>
      <trkpt lat="43.25513" lon="5.97702">
        <ele>301.03</ele>
        <time>2018-12-27T10:34:37Z</time>
      </trkpt>
      <trkpt lat="43.25514" lon="5.97703">
        <ele>299.59</ele>
        <time>2018-12-27T10:34:44Z</time>
      </trkpt>
      <trkpt lat="43.25515" lon="5.97703">
        <ele>302.95</ele>
        <time>2018-12-27T10:34:46Z</time>
      </trkpt>
      <trkpt lat="43.25515" lon="5.97703">
        <ele>301.51</ele>
        <time>2018-12-27T10:34:47Z</time>
      </trkpt>
      <trkpt lat="43.25514" lon="5.97703">
        <ele>301.51</ele>
        <time>2018-12-27T10:35:04Z</time>
      </trkpt>
      <trkpt lat="43.25514" lon="5.97702">
        <ele>302.47</ele>
        <time>2018-12-27T10:35:20Z</time>
      </trkpt>
      <trkpt lat="43.25511" lon="5.97699">
        <ele>303.91</ele>
        <time>2018-12-27T10:35:35Z</time>
      </trkpt>
      <trkpt lat="43.2551" lon="5.97697">
        <ele>304.39</ele>
        <time>2018-12-27T10:35:48Z</time>
      </trkpt>
      <trkpt lat="43.255" lon="5.97697">
        <ele>306.8</ele>
        <time>2018-12-27T10:36:04Z</time>
      </trkpt>
      <trkpt lat="43.2549" lon="5.97696">
        <ele>309.68</ele>
        <time>2018-12-27T10:36:19Z</time>
      </trkpt>
      <trkpt lat="43.25484" lon="5.97695">
        <ele>312.09</ele>
        <time>2018-12-27T10:36:34Z</time>
      </trkpt>
      <trkpt lat="43.25478" lon="5.9769">
        <ele>314.01</ele>
        <time>2018-12-27T10:36:51Z</time>
      </trkpt>
      <trkpt lat="43.25469" lon="5.97684">
        <ele>314.97</ele>
        <time>2018-12-27T10:37:04Z</time>
      </trkpt>
      <trkpt lat="43.2546" lon="5.97679">
        <ele>317.37</ele>
        <time>2018-12-27T10:37:19Z</time>
      </trkpt>
      <trkpt lat="43.2546" lon="5.9768">
        <ele>317.85</ele>
        <time>2018-12-27T10:37:33Z</time>
      </trkpt>
      <trkpt lat="43.25452" lon="5.97672">
        <ele>318.81</ele>
        <time>2018-12-27T10:37:48Z</time>
      </trkpt>
      <trkpt lat="43.25445" lon="5.97671">
        <ele>321.22</ele>
        <time>2018-12-27T10:38:03Z</time>
      </trkpt>
      <trkpt lat="43.25443" lon="5.97663">
        <ele>322.66</ele>
        <time>2018-12-27T10:38:16Z</time>
      </trkpt>
      <trkpt lat="43.25443" lon="5.97659">
        <ele>324.58</ele>
        <time>2018-12-27T10:38:30Z</time>
      </trkpt>
      <trkpt lat="43.25444" lon="5.97661">
        <ele>323.14</ele>
        <time>2018-12-27T10:38:33Z</time>
      </trkpt>
      <trkpt lat="43.2544" lon="5.97664">
        <ele>323.62</ele>
        <time>2018-12-27T10:38:44Z</time>
      </trkpt>
      <trkpt lat="43.25431" lon="5.97663">
        <ele>326.99</ele>
        <time>2018-12-27T10:38:57Z</time>
      </trkpt>
      <trkpt lat="43.25423" lon="5.97666">
        <ele>327.95</ele>
        <time>2018-12-27T10:39:11Z</time>
      </trkpt>
      <trkpt lat="43.25421" lon="5.97666">
        <ele>328.43</ele>
        <time>2018-12-27T10:39:14Z</time>
      </trkpt>
      <trkpt lat="43.25413" lon="5.97666">
        <ele>329.87</ele>
        <time>2018-12-27T10:39:27Z</time>
      </trkpt>
      <trkpt lat="43.25402" lon="5.97671">
        <ele>332.27</ele>
        <time>2018-12-27T10:39:40Z</time>
      </trkpt>
      <trkpt lat="43.25399" lon="5.97672">
        <ele>332.75</ele>
        <time>2018-12-27T10:39:44Z</time>
      </trkpt>
      <trkpt lat="43.25389" lon="5.97677">
        <ele>335.64</ele>
        <time>2018-12-27T10:39:58Z</time>
      </trkpt>
      <trkpt lat="43.25386" lon="5.97679">
        <ele>335.64</ele>
        <time>2018-12-27T10:40:11Z</time>
      </trkpt>
      <trkpt lat="43.25381" lon="5.9768">
        <ele>335.64</ele>
        <time>2018-12-27T10:40:28Z</time>
      </trkpt>
      <trkpt lat="43.25373" lon="5.9768">
        <ele>336.6</ele>
        <time>2018-12-27T10:40:41Z</time>
      </trkpt>
      <trkpt lat="43.25373" lon="5.9768">
        <ele>337.08</ele>
        <time>2018-12-27T10:40:55Z</time>
      </trkpt>
      <trkpt lat="43.25371" lon="5.97679">
        <ele>337.08</ele>
        <time>2018-12-27T10:41:17Z</time>
      </trkpt>
      <trkpt lat="43.25363" lon="5.97677">
        <ele>338.52</ele>
        <time>2018-12-27T10:41:30Z</time>
      </trkpt>
      <trkpt lat="43.25349" lon="5.97676">
        <ele>339.96</ele>
        <time>2018-12-27T10:41:49Z</time>
      </trkpt>
      <trkpt lat="43.25339" lon="5.97671">
        <ele>341.41</ele>
        <time>2018-12-27T10:42:05Z</time>
      </trkpt>
      <trkpt lat="43.25336" lon="5.97664">
        <ele>341.89</ele>
        <time>2018-12-27T10:42:19Z</time>
      </trkpt>
      <trkpt lat="43.25328" lon="5.97661">
        <ele>342.37</ele>
        <time>2018-12-27T10:42:34Z</time>
      </trkpt>
      <trkpt lat="43.25318" lon="5.97663">
        <ele>340.44</ele>
        <time>2018-12-27T10:42:47Z</time>
      </trkpt>
      <trkpt lat="43.25305" lon="5.97666">
        <ele>339</ele>
        <time>2018-12-27T10:43:01Z</time>
      </trkpt>
      <trkpt lat="43.25304" lon="5.97665">
        <ele>339</ele>
        <time>2018-12-27T10:43:13Z</time>
      </trkpt>
      <trkpt lat="43.25298" lon="5.97667">
        <ele>338.52</ele>
        <time>2018-12-27T10:43:29Z</time>
      </trkpt>
      <trkpt lat="43.25295" lon="5.97668">
        <ele>338.04</ele>
        <time>2018-12-27T10:43:41Z</time>
      </trkpt>
      <trkpt lat="43.25293" lon="5.97667">
        <ele>339</ele>
        <time>2018-12-27T10:43:59Z</time>
      </trkpt>
      <trkpt lat="43.25282" lon="5.97669">
        <ele>339</ele>
        <time>2018-12-27T10:44:12Z</time>
      </trkpt>
      <trkpt lat="43.2527" lon="5.97669">
        <ele>339.48</ele>
        <time>2018-12-27T10:44:26Z</time>
      </trkpt>
      <trkpt lat="43.25266" lon="5.97668">
        <ele>337.56</ele>
        <time>2018-12-27T10:44:31Z</time>
      </trkpt>
      <trkpt lat="43.25264" lon="5.97668">
        <ele>338.52</ele>
        <time>2018-12-27T10:44:33Z</time>
      </trkpt>
      <trkpt lat="43.25263" lon="5.97669">
        <ele>337.08</ele>
        <time>2018-12-27T10:44:35Z</time>
      </trkpt>
      <trkpt lat="43.25252" lon="5.97667">
        <ele>337.08</ele>
        <time>2018-12-27T10:44:50Z</time>
      </trkpt>
      <trkpt lat="43.25241" lon="5.97668">
        <ele>333.23</ele>
        <time>2018-12-27T10:45:03Z</time>
      </trkpt>
      <trkpt lat="43.25234" lon="5.97667">
        <ele>330.35</ele>
        <time>2018-12-27T10:45:15Z</time>
      </trkpt>
      <trkpt lat="43.25234" lon="5.97663">
        <ele>329.87</ele>
        <time>2018-12-27T10:45:28Z</time>
      </trkpt>
      <trkpt lat="43.25231" lon="5.97666">
        <ele>329.87</ele>
        <time>2018-12-27T10:45:49Z</time>
      </trkpt>
      <trkpt lat="43.25223" lon="5.97666">
        <ele>327.95</ele>
        <time>2018-12-27T10:46:03Z</time>
      </trkpt>
      <trkpt lat="43.25217" lon="5.97663">
        <ele>326.5</ele>
        <time>2018-12-27T10:46:17Z</time>
      </trkpt>
      <trkpt lat="43.25211" lon="5.97666">
        <ele>324.1</ele>
        <time>2018-12-27T10:46:34Z</time>
      </trkpt>
      <trkpt lat="43.25207" lon="5.97666">
        <ele>322.66</ele>
        <time>2018-12-27T10:46:39Z</time>
      </trkpt>
      <trkpt lat="43.25206" lon="5.97666">
        <ele>326.02</ele>
        <time>2018-12-27T10:46:40Z</time>
      </trkpt>
      <trkpt lat="43.25206" lon="5.97666">
        <ele>322.66</ele>
        <time>2018-12-27T10:46:41Z</time>
      </trkpt>
      <trkpt lat="43.25205" lon="5.97666">
        <ele>326.5</ele>
        <time>2018-12-27T10:46:42Z</time>
      </trkpt>
      <trkpt lat="43.25201" lon="5.97671">
        <ele>324.58</ele>
        <time>2018-12-27T10:46:51Z</time>
      </trkpt>
      <trkpt lat="43.25201" lon="5.97671">
        <ele>326.02</ele>
        <time>2018-12-27T10:47:00Z</time>
      </trkpt>
      <trkpt lat="43.25201" lon="5.9767">
        <ele>324.58</ele>
        <time>2018-12-27T10:47:09Z</time>
      </trkpt>
      <trkpt lat="43.252" lon="5.97671">
        <ele>326.02</ele>
        <time>2018-12-27T10:47:15Z</time>
      </trkpt>
      <trkpt lat="43.25192" lon="5.97667">
        <ele>325.54</ele>
        <time>2018-12-27T10:47:36Z</time>
      </trkpt>
      <trkpt lat="43.25178" lon="5.97669">
        <ele>326.02</ele>
        <time>2018-12-27T10:47:55Z</time>
      </trkpt>
      <trkpt lat="43.25177" lon="5.97668">
        <ele>324.58</ele>
        <time>2018-12-27T10:48:00Z</time>
      </trkpt>
      <trkpt lat="43.2518" lon="5.97661">
        <ele>326.02</ele>
        <time>2018-12-27T10:48:28Z</time>
      </trkpt>
      <trkpt lat="43.25169" lon="5.9766">
        <ele>325.54</ele>
        <time>2018-12-27T10:48:51Z</time>
      </trkpt>
      <trkpt lat="43.25162" lon="5.97666">
        <ele>323.14</ele>
        <time>2018-12-27T10:49:18Z</time>
      </trkpt>
      <trkpt lat="43.25157" lon="5.97664">
        <ele>322.66</ele>
        <time>2018-12-27T10:49:34Z</time>
      </trkpt>
      <trkpt lat="43.25147" lon="5.97664">
        <ele>324.58</ele>
        <time>2018-12-27T10:49:49Z</time>
      </trkpt>
      <trkpt lat="43.2514" lon="5.97664">
        <ele>327.47</ele>
        <time>2018-12-27T10:50:00Z</time>
      </trkpt>
      <trkpt lat="43.25135" lon="5.97669">
        <ele>328.43</ele>
        <time>2018-12-27T10:50:17Z</time>
      </trkpt>
      <trkpt lat="43.25127" lon="5.97672">
        <ele>329.87</ele>
        <time>2018-12-27T10:50:31Z</time>
      </trkpt>
      <trkpt lat="43.25119" lon="5.97667">
        <ele>329.87</ele>
        <time>2018-12-27T10:50:47Z</time>
      </trkpt>
      <trkpt lat="43.25113" lon="5.97664">
        <ele>328.43</ele>
        <time>2018-12-27T10:51:02Z</time>
      </trkpt>
      <trkpt lat="43.25107" lon="5.97659">
        <ele>324.58</ele>
        <time>2018-12-27T10:51:20Z</time>
      </trkpt>
      <trkpt lat="43.25106" lon="5.97659">
        <ele>328.91</ele>
        <time>2018-12-27T10:51:21Z</time>
      </trkpt>
      <trkpt lat="43.25098" lon="5.97655">
        <ele>327.95</ele>
        <time>2018-12-27T10:51:44Z</time>
      </trkpt>
      <trkpt lat="43.25089" lon="5.97656">
        <ele>327.95</ele>
        <time>2018-12-27T10:52:06Z</time>
      </trkpt>
      <trkpt lat="43.25074" lon="5.97658">
        <ele>329.87</ele>
        <time>2018-12-27T10:52:26Z</time>
      </trkpt>
      <trkpt lat="43.25069" lon="5.97661">
        <ele>328.43</ele>
        <time>2018-12-27T10:52:32Z</time>
      </trkpt>
      <trkpt lat="43.25068" lon="5.97661">
        <ele>327.95</ele>
        <time>2018-12-27T10:52:34Z</time>
      </trkpt>
      <trkpt lat="43.25064" lon="5.97666">
        <ele>326.99</ele>
        <time>2018-12-27T10:52:39Z</time>
      </trkpt>
      <trkpt lat="43.2506" lon="5.97669">
        <ele>322.66</ele>
        <time>2018-12-27T10:52:54Z</time>
      </trkpt>
      <trkpt lat="43.2506" lon="5.97668">
        <ele>326.02</ele>
        <time>2018-12-27T10:52:55Z</time>
      </trkpt>
      <trkpt lat="43.2506" lon="5.97667">
        <ele>326.02</ele>
        <time>2018-12-27T10:52:56Z</time>
      </trkpt>
      <trkpt lat="43.25057" lon="5.97661">
        <ele>325.06</ele>
        <time>2018-12-27T10:53:02Z</time>
      </trkpt>
      <trkpt lat="43.25056" lon="5.97655">
        <ele>325.54</ele>
        <time>2018-12-27T10:53:20Z</time>
      </trkpt>
      <trkpt lat="43.25059" lon="5.97656">
        <ele>326.02</ele>
        <time>2018-12-27T10:53:28Z</time>
      </trkpt>
      <trkpt lat="43.25057" lon="5.97666">
        <ele>327.95</ele>
        <time>2018-12-27T10:53:47Z</time>
      </trkpt>
      <trkpt lat="43.25044" lon="5.97682">
        <ele>329.39</ele>
        <time>2018-12-27T10:54:02Z</time>
      </trkpt>
      <trkpt lat="43.25042" lon="5.97688">
        <ele>330.35</ele>
        <time>2018-12-27T10:54:08Z</time>
      </trkpt>
      <trkpt lat="43.25034" lon="5.97693">
        <ele>328.91</ele>
        <time>2018-12-27T10:54:16Z</time>
      </trkpt>
      <trkpt lat="43.25024" lon="5.97691">
        <ele>328.43</ele>
        <time>2018-12-27T10:54:30Z</time>
      </trkpt>
      <trkpt lat="43.25017" lon="5.97689">
        <ele>330.35</ele>
        <time>2018-12-27T10:54:40Z</time>
      </trkpt>
      <trkpt lat="43.25012" lon="5.97689">
        <ele>328.91</ele>
        <time>2018-12-27T10:54:46Z</time>
      </trkpt>
      <trkpt lat="43.25001" lon="5.97684">
        <ele>327.95</ele>
        <time>2018-12-27T10:54:59Z</time>
      </trkpt>
      <trkpt lat="43.24994" lon="5.97679">
        <ele>327.47</ele>
        <time>2018-12-27T10:55:12Z</time>
      </trkpt>
      <trkpt lat="43.24985" lon="5.97679">
        <ele>325.54</ele>
        <time>2018-12-27T10:55:25Z</time>
      </trkpt>
      <trkpt lat="43.24974" lon="5.97675">
        <ele>323.14</ele>
        <time>2018-12-27T10:55:39Z</time>
      </trkpt>
      <trkpt lat="43.24964" lon="5.97673">
        <ele>321.7</ele>
        <time>2018-12-27T10:55:55Z</time>
      </trkpt>
      <trkpt lat="43.24956" lon="5.97667">
        <ele>320.74</ele>
        <time>2018-12-27T10:56:10Z</time>
      </trkpt>
      <trkpt lat="43.24951" lon="5.97665">
        <ele>320.74</ele>
        <time>2018-12-27T10:56:18Z</time>
      </trkpt>
      <trkpt lat="43.24947" lon="5.97677">
        <ele>319.3</ele>
        <time>2018-12-27T10:56:34Z</time>
      </trkpt>
      <trkpt lat="43.24947" lon="5.97691">
        <ele>318.33</ele>
        <time>2018-12-27T10:56:49Z</time>
      </trkpt>
      <trkpt lat="43.24947" lon="5.9771">
        <ele>319.78</ele>
        <time>2018-12-27T10:57:05Z</time>
      </trkpt>
      <trkpt lat="43.24946" lon="5.9772">
        <ele>320.74</ele>
        <time>2018-12-27T10:57:16Z</time>
      </trkpt>
      <trkpt lat="43.24947" lon="5.9774">
        <ele>322.18</ele>
        <time>2018-12-27T10:57:31Z</time>
      </trkpt>
      <trkpt lat="43.24944" lon="5.97758">
        <ele>324.58</ele>
        <time>2018-12-27T10:57:47Z</time>
      </trkpt>
      <trkpt lat="43.24944" lon="5.97769">
        <ele>324.58</ele>
        <time>2018-12-27T10:58:00Z</time>
      </trkpt>
      <trkpt lat="43.24945" lon="5.97788">
        <ele>326.99</ele>
        <time>2018-12-27T10:58:17Z</time>
      </trkpt>
      <trkpt lat="43.24945" lon="5.978">
        <ele>328.43</ele>
        <time>2018-12-27T10:58:30Z</time>
      </trkpt>
      <trkpt lat="43.24943" lon="5.97812">
        <ele>330.35</ele>
        <time>2018-12-27T10:58:39Z</time>
      </trkpt>
      <trkpt lat="43.24942" lon="5.9782">
        <ele>330.35</ele>
        <time>2018-12-27T10:59:04Z</time>
      </trkpt>
      <trkpt lat="43.24942" lon="5.97831">
        <ele>333.23</ele>
        <time>2018-12-27T10:59:14Z</time>
      </trkpt>
      <trkpt lat="43.24941" lon="5.97844">
        <ele>334.68</ele>
        <time>2018-12-27T10:59:28Z</time>
      </trkpt>
      <trkpt lat="43.24938" lon="5.97857">
        <ele>337.08</ele>
        <time>2018-12-27T10:59:48Z</time>
      </trkpt>
      <trkpt lat="43.24937" lon="5.97853">
        <ele>334.68</ele>
        <time>2018-12-27T11:00:10Z</time>
      </trkpt>
      <trkpt lat="43.24938" lon="5.97853">
        <ele>337.08</ele>
        <time>2018-12-27T11:00:28Z</time>
      </trkpt>
      <trkpt lat="43.24939" lon="5.97858">
        <ele>337.56</ele>
        <time>2018-12-27T11:00:46Z</time>
      </trkpt>
      <trkpt lat="43.24939" lon="5.97859">
        <ele>336.6</ele>
        <time>2018-12-27T11:00:54Z</time>
      </trkpt>
      <trkpt lat="43.24945" lon="5.97857">
        <ele>336.12</ele>
        <time>2018-12-27T11:01:17Z</time>
      </trkpt>
      <trkpt lat="43.24942" lon="5.97858">
        <ele>334.68</ele>
        <time>2018-12-27T11:01:40Z</time>
      </trkpt>
      <trkpt lat="43.24941" lon="5.97859">
        <ele>338.52</ele>
        <time>2018-12-27T11:01:41Z</time>
      </trkpt>
      <trkpt lat="43.24939" lon="5.97867">
        <ele>337.56</ele>
        <time>2018-12-27T11:02:00Z</time>
      </trkpt>
      <trkpt lat="43.24945" lon="5.9788">
        <ele>339</ele>
        <time>2018-12-27T11:02:19Z</time>
      </trkpt>
      <trkpt lat="43.24951" lon="5.97887">
        <ele>339.48</ele>
        <time>2018-12-27T11:02:30Z</time>
      </trkpt>
      <trkpt lat="43.24959" lon="5.97893">
        <ele>339.96</ele>
        <time>2018-12-27T11:02:44Z</time>
      </trkpt>
      <trkpt lat="43.24964" lon="5.97901">
        <ele>339.96</ele>
        <time>2018-12-27T11:03:02Z</time>
      </trkpt>
      <trkpt lat="43.24964" lon="5.97901">
        <ele>334.2</ele>
        <time>2018-12-27T11:03:15Z</time>
      </trkpt>
      <trkpt lat="43.24964" lon="5.97901">
        <ele>343.81</ele>
        <time>2018-12-27T11:03:16Z</time>
      </trkpt>
      <trkpt lat="43.24963" lon="5.97901">
        <ele>341.41</ele>
        <time>2018-12-27T11:03:17Z</time>
      </trkpt>
      <trkpt lat="43.24964" lon="5.979">
        <ele>339</ele>
        <time>2018-12-27T11:03:19Z</time>
      </trkpt>
      <trkpt lat="43.24965" lon="5.97901">
        <ele>340.44</ele>
        <time>2018-12-27T11:03:51Z</time>
      </trkpt>
      <trkpt lat="43.24957" lon="5.97903">
        <ele>341.89</ele>
        <time>2018-12-27T11:03:58Z</time>
      </trkpt>
      <trkpt lat="43.24955" lon="5.97907">
        <ele>342.37</ele>
        <time>2018-12-27T11:04:07Z</time>
      </trkpt>
      <trkpt lat="43.24955" lon="5.97914">
        <ele>343.33</ele>
        <time>2018-12-27T11:04:25Z</time>
      </trkpt>
      <trkpt lat="43.24956" lon="5.97915">
        <ele>343.33</ele>
        <time>2018-12-27T11:04:47Z</time>
      </trkpt>
      <trkpt lat="43.24954" lon="5.97917">
        <ele>343.33</ele>
        <time>2018-12-27T11:05:21Z</time>
      </trkpt>
      <trkpt lat="43.24954" lon="5.9791">
        <ele>341.89</ele>
        <time>2018-12-27T11:05:45Z</time>
      </trkpt>
      <trkpt lat="43.24956" lon="5.97903">
        <ele>341.41</ele>
        <time>2018-12-27T11:06:02Z</time>
      </trkpt>
      <trkpt lat="43.24958" lon="5.9791">
        <ele>342.37</ele>
        <time>2018-12-27T11:06:18Z</time>
      </trkpt>
      <trkpt lat="43.24957" lon="5.97913">
        <ele>342.37</ele>
        <time>2018-12-27T11:06:38Z</time>
      </trkpt>
      <trkpt lat="43.24957" lon="5.97913">
        <ele>342.85</ele>
        <time>2018-12-27T11:06:47Z</time>
      </trkpt>
      <trkpt lat="43.24958" lon="5.97915">
        <ele>341.41</ele>
        <time>2018-12-27T11:07:00Z</time>
      </trkpt>
      <trkpt lat="43.24958" lon="5.97915">
        <ele>343.33</ele>
        <time>2018-12-27T11:07:02Z</time>
      </trkpt>
      <trkpt lat="43.24958" lon="5.9791">
        <ele>342.37</ele>
        <time>2018-12-27T11:07:17Z</time>
      </trkpt>
      <trkpt lat="43.24956" lon="5.97914">
        <ele>341.89</ele>
        <time>2018-12-27T11:07:35Z</time>
      </trkpt>
      <trkpt lat="43.24958" lon="5.97913">
        <ele>341.89</ele>
        <time>2018-12-27T11:07:52Z</time>
      </trkpt>
      <trkpt lat="43.24953" lon="5.97906">
        <ele>341.41</ele>
        <time>2018-12-27T11:08:06Z</time>
      </trkpt>
      <trkpt lat="43.24958" lon="5.97909">
        <ele>343.33</ele>
        <time>2018-12-27T11:08:19Z</time>
      </trkpt>
      <trkpt lat="43.24957" lon="5.97915">
        <ele>341.89</ele>
        <time>2018-12-27T11:08:41Z</time>
      </trkpt>
      <trkpt lat="43.24956" lon="5.97914">
        <ele>343.33</ele>
        <time>2018-12-27T11:09:16Z</time>
      </trkpt>
      <trkpt lat="43.24958" lon="5.97912">
        <ele>341.89</ele>
        <time>2018-12-27T11:09:31Z</time>
      </trkpt>
      <trkpt lat="43.24964" lon="5.97912">
        <ele>341.89</ele>
        <time>2018-12-27T11:09:44Z</time>
      </trkpt>
      <trkpt lat="43.24965" lon="5.9791">
        <ele>342.85</ele>
        <time>2018-12-27T11:09:56Z</time>
      </trkpt>
      <trkpt lat="43.24965" lon="5.97909">
        <ele>340.44</ele>
        <time>2018-12-27T11:09:59Z</time>
      </trkpt>
      <trkpt lat="43.2497" lon="5.97906">
        <ele>341.41</ele>
        <time>2018-12-27T11:10:19Z</time>
      </trkpt>
      <trkpt lat="43.24973" lon="5.97907">
        <ele>340.44</ele>
        <time>2018-12-27T11:10:23Z</time>
      </trkpt>
      <trkpt lat="43.24983" lon="5.97914">
        <ele>339.48</ele>
        <time>2018-12-27T11:10:40Z</time>
      </trkpt>
      <trkpt lat="43.24988" lon="5.97921">
        <ele>338.52</ele>
        <time>2018-12-27T11:10:50Z</time>
      </trkpt>
      <trkpt lat="43.24993" lon="5.97929">
        <ele>338.04</ele>
        <time>2018-12-27T11:10:59Z</time>
      </trkpt>
      <trkpt lat="43.24999" lon="5.97942">
        <ele>337.56</ele>
        <time>2018-12-27T11:11:12Z</time>
      </trkpt>
      <trkpt lat="43.25" lon="5.97949">
        <ele>336.6</ele>
        <time>2018-12-27T11:11:18Z</time>
      </trkpt>
      <trkpt lat="43.25001" lon="5.9795">
        <ele>336.6</ele>
        <time>2018-12-27T11:11:19Z</time>
      </trkpt>
      <trkpt lat="43.25003" lon="5.97955">
        <ele>335.16</ele>
        <time>2018-12-27T11:11:23Z</time>
      </trkpt>
      <trkpt lat="43.25008" lon="5.97967">
        <ele>333.23</ele>
        <time>2018-12-27T11:11:42Z</time>
      </trkpt>
      <trkpt lat="43.25018" lon="5.97985">
        <ele>330.83</ele>
        <time>2018-12-27T11:12:00Z</time>
      </trkpt>
      <trkpt lat="43.2502" lon="5.97981">
        <ele>332.75</ele>
        <time>2018-12-27T11:12:04Z</time>
      </trkpt>
      <trkpt lat="43.25021" lon="5.97977">
        <ele>330.35</ele>
        <time>2018-12-27T11:12:09Z</time>
      </trkpt>
      <trkpt lat="43.25022" lon="5.97977">
        <ele>335.64</ele>
        <time>2018-12-27T11:12:13Z</time>
      </trkpt>
      <trkpt lat="43.25022" lon="5.97976">
        <ele>335.64</ele>
        <time>2018-12-27T11:12:14Z</time>
      </trkpt>
      <trkpt lat="43.25022" lon="5.97975">
        <ele>331.79</ele>
        <time>2018-12-27T11:12:16Z</time>
      </trkpt>
      <trkpt lat="43.25022" lon="5.97975">
        <ele>331.79</ele>
        <time>2018-12-27T11:12:17Z</time>
      </trkpt>
      <trkpt lat="43.25024" lon="5.97993">
        <ele>329.87</ele>
        <time>2018-12-27T11:12:38Z</time>
      </trkpt>
      <trkpt lat="43.25026" lon="5.98004">
        <ele>328.91</ele>
        <time>2018-12-27T11:12:47Z</time>
      </trkpt>
      <trkpt lat="43.25034" lon="5.98025">
        <ele>327.95</ele>
        <time>2018-12-27T11:13:06Z</time>
      </trkpt>
      <trkpt lat="43.2504" lon="5.98049">
        <ele>324.1</ele>
        <time>2018-12-27T11:13:25Z</time>
      </trkpt>
      <trkpt lat="43.25046" lon="5.98063">
        <ele>323.14</ele>
        <time>2018-12-27T11:13:39Z</time>
      </trkpt>
      <trkpt lat="43.25057" lon="5.98079">
        <ele>320.26</ele>
        <time>2018-12-27T11:13:57Z</time>
      </trkpt>
      <trkpt lat="43.25058" lon="5.98081">
        <ele>321.7</ele>
        <time>2018-12-27T11:13:59Z</time>
      </trkpt>
      <trkpt lat="43.25067" lon="5.98089">
        <ele>319.3</ele>
        <time>2018-12-27T11:14:11Z</time>
      </trkpt>
      <trkpt lat="43.25083" lon="5.98109">
        <ele>317.37</ele>
        <time>2018-12-27T11:14:32Z</time>
      </trkpt>
      <trkpt lat="43.25091" lon="5.98133">
        <ele>314.97</ele>
        <time>2018-12-27T11:14:51Z</time>
      </trkpt>
      <trkpt lat="43.25089" lon="5.98149">
        <ele>313.05</ele>
        <time>2018-12-27T11:15:11Z</time>
      </trkpt>
      <trkpt lat="43.25089" lon="5.98165">
        <ele>311.6</ele>
        <time>2018-12-27T11:15:30Z</time>
      </trkpt>
      <trkpt lat="43.2509" lon="5.98174">
        <ele>312.57</ele>
        <time>2018-12-27T11:15:38Z</time>
      </trkpt>
      <trkpt lat="43.25092" lon="5.98182">
        <ele>313.05</ele>
        <time>2018-12-27T11:15:46Z</time>
      </trkpt>
      <trkpt lat="43.25093" lon="5.98184">
        <ele>311.6</ele>
        <time>2018-12-27T11:15:49Z</time>
      </trkpt>
      <trkpt lat="43.25085" lon="5.98195">
        <ele>312.57</ele>
        <time>2018-12-27T11:16:08Z</time>
      </trkpt>
      <trkpt lat="43.25085" lon="5.98194">
        <ele>305.84</ele>
        <time>2018-12-27T11:16:09Z</time>
      </trkpt>
      <trkpt lat="43.25085" lon="5.98194">
        <ele>311.6</ele>
        <time>2018-12-27T11:16:10Z</time>
      </trkpt>
      <trkpt lat="43.25085" lon="5.98192">
        <ele>315.45</ele>
        <time>2018-12-27T11:16:22Z</time>
      </trkpt>
      <trkpt lat="43.25085" lon="5.98191">
        <ele>311.6</ele>
        <time>2018-12-27T11:16:23Z</time>
      </trkpt>
      <trkpt lat="43.25087" lon="5.98195">
        <ele>313.05</ele>
        <time>2018-12-27T11:16:28Z</time>
      </trkpt>
      <trkpt lat="43.25088" lon="5.98197">
        <ele>311.12</ele>
        <time>2018-12-27T11:16:30Z</time>
      </trkpt>
      <trkpt lat="43.25088" lon="5.98199">
        <ele>313.53</ele>
        <time>2018-12-27T11:16:32Z</time>
      </trkpt>
      <trkpt lat="43.25087" lon="5.98201">
        <ele>313.53</ele>
        <time>2018-12-27T11:16:33Z</time>
      </trkpt>
      <trkpt lat="43.25074" lon="5.9823">
        <ele>314.49</ele>
        <time>2018-12-27T11:16:54Z</time>
      </trkpt>
      <trkpt lat="43.25071" lon="5.98233">
        <ele>315.93</ele>
        <time>2018-12-27T11:16:56Z</time>
      </trkpt>
      <trkpt lat="43.25062" lon="5.98245">
        <ele>317.37</ele>
        <time>2018-12-27T11:17:09Z</time>
      </trkpt>
      <trkpt lat="43.25046" lon="5.98259">
        <ele>316.41</ele>
        <time>2018-12-27T11:17:28Z</time>
      </trkpt>
      <trkpt lat="43.25043" lon="5.98262">
        <ele>316.89</ele>
        <time>2018-12-27T11:17:32Z</time>
      </trkpt>
      <trkpt lat="43.25039" lon="5.98266">
        <ele>315.45</ele>
        <time>2018-12-27T11:17:36Z</time>
      </trkpt>
      <trkpt lat="43.25019" lon="5.98277">
        <ele>314.01</ele>
        <time>2018-12-27T11:17:57Z</time>
      </trkpt>
      <trkpt lat="43.2501" lon="5.98287">
        <ele>313.05</ele>
        <time>2018-12-27T11:18:15Z</time>
      </trkpt>
      <trkpt lat="43.25008" lon="5.98289">
        <ele>314.49</ele>
        <time>2018-12-27T11:18:17Z</time>
      </trkpt>
      <trkpt lat="43.24993" lon="5.98306">
        <ele>311.6</ele>
        <time>2018-12-27T11:18:39Z</time>
      </trkpt>
      <trkpt lat="43.2498" lon="5.9832">
        <ele>311.12</ele>
        <time>2018-12-27T11:19:01Z</time>
      </trkpt>
      <trkpt lat="43.2498" lon="5.98324">
        <ele>310.64</ele>
        <time>2018-12-27T11:19:26Z</time>
      </trkpt>
      <trkpt lat="43.24979" lon="5.98325">
        <ele>310.64</ele>
        <time>2018-12-27T11:19:27Z</time>
      </trkpt>
      <trkpt lat="43.24956" lon="5.98341">
        <ele>308.24</ele>
        <time>2018-12-27T11:19:50Z</time>
      </trkpt>
      <trkpt lat="43.24944" lon="5.98359">
        <ele>307.28</ele>
        <time>2018-12-27T11:20:10Z</time>
      </trkpt>
      <trkpt lat="43.24935" lon="5.98377">
        <ele>307.28</ele>
        <time>2018-12-27T11:20:23Z</time>
      </trkpt>
      <trkpt lat="43.2493" lon="5.98407">
        <ele>306.32</ele>
        <time>2018-12-27T11:20:44Z</time>
      </trkpt>
      <trkpt lat="43.24947" lon="5.98429">
        <ele>305.84</ele>
        <time>2018-12-27T11:21:06Z</time>
      </trkpt>
      <trkpt lat="43.24964" lon="5.98449">
        <ele>304.39</ele>
        <time>2018-12-27T11:21:26Z</time>
      </trkpt>
      <trkpt lat="43.24967" lon="5.98453">
        <ele>304.88</ele>
        <time>2018-12-27T11:21:30Z</time>
      </trkpt>
      <trkpt lat="43.24969" lon="5.98456">
        <ele>303.43</ele>
        <time>2018-12-27T11:21:33Z</time>
      </trkpt>
      <trkpt lat="43.24982" lon="5.98474">
        <ele>303.91</ele>
        <time>2018-12-27T11:21:50Z</time>
      </trkpt>
      <trkpt lat="43.24986" lon="5.98503">
        <ele>301.51</ele>
        <time>2018-12-27T11:22:10Z</time>
      </trkpt>
      <trkpt lat="43.24985" lon="5.98533">
        <ele>299.59</ele>
        <time>2018-12-27T11:22:30Z</time>
      </trkpt>
      <trkpt lat="43.24991" lon="5.98549">
        <ele>298.63</ele>
        <time>2018-12-27T11:22:42Z</time>
      </trkpt>
      <trkpt lat="43.25008" lon="5.98561">
        <ele>296.7</ele>
        <time>2018-12-27T11:23:01Z</time>
      </trkpt>
      <trkpt lat="43.25027" lon="5.9856">
        <ele>294.78</ele>
        <time>2018-12-27T11:23:21Z</time>
      </trkpt>
      <trkpt lat="43.25026" lon="5.98559">
        <ele>294.78</ele>
        <time>2018-12-27T11:23:57Z</time>
      </trkpt>
      <trkpt lat="43.25038" lon="5.98564">
        <ele>293.34</ele>
        <time>2018-12-27T11:24:15Z</time>
      </trkpt>
      <trkpt lat="43.25044" lon="5.98566">
        <ele>290.94</ele>
        <time>2018-12-27T11:24:25Z</time>
      </trkpt>
      <trkpt lat="43.25054" lon="5.98567">
        <ele>288.53</ele>
        <time>2018-12-27T11:24:39Z</time>
      </trkpt>
      <trkpt lat="43.25069" lon="5.98583">
        <ele>285.17</ele>
        <time>2018-12-27T11:24:59Z</time>
      </trkpt>
      <trkpt lat="43.25073" lon="5.98614">
        <ele>283.25</ele>
        <time>2018-12-27T11:25:19Z</time>
      </trkpt>
      <trkpt lat="43.25073" lon="5.98634">
        <ele>281.32</ele>
        <time>2018-12-27T11:25:35Z</time>
      </trkpt>
      <trkpt lat="43.25069" lon="5.98663">
        <ele>279.4</ele>
        <time>2018-12-27T11:25:56Z</time>
      </trkpt>
      <trkpt lat="43.25067" lon="5.98675">
        <ele>277.96</ele>
        <time>2018-12-27T11:26:06Z</time>
      </trkpt>
      <trkpt lat="43.25066" lon="5.98685">
        <ele>279.4</ele>
        <time>2018-12-27T11:26:13Z</time>
      </trkpt>
      <trkpt lat="43.25064" lon="5.98691">
        <ele>277.96</ele>
        <time>2018-12-27T11:26:20Z</time>
      </trkpt>
      <trkpt lat="43.2506" lon="5.98704">
        <ele>278.44</ele>
        <time>2018-12-27T11:26:28Z</time>
      </trkpt>
      <trkpt lat="43.25059" lon="5.98719">
        <ele>277.48</ele>
        <time>2018-12-27T11:26:41Z</time>
      </trkpt>
      <trkpt lat="43.25056" lon="5.9872">
        <ele>279.4</ele>
        <time>2018-12-27T11:26:47Z</time>
      </trkpt>
      <trkpt lat="43.25055" lon="5.98722">
        <ele>278.92</ele>
        <time>2018-12-27T11:26:48Z</time>
      </trkpt>
      <trkpt lat="43.25052" lon="5.98727">
        <ele>278.92</ele>
        <time>2018-12-27T11:26:53Z</time>
      </trkpt>
      <trkpt lat="43.25052" lon="5.98728">
        <ele>279.88</ele>
        <time>2018-12-27T11:26:54Z</time>
      </trkpt>
      <trkpt lat="43.25051" lon="5.98731">
        <ele>280.84</ele>
        <time>2018-12-27T11:26:56Z</time>
      </trkpt>
      <trkpt lat="43.25042" lon="5.98738">
        <ele>280.84</ele>
        <time>2018-12-27T11:27:12Z</time>
      </trkpt>
      <trkpt lat="43.2504" lon="5.98736">
        <ele>279.88</ele>
        <time>2018-12-27T11:27:26Z</time>
      </trkpt>
      <trkpt lat="43.2504" lon="5.98736">
        <ele>280.84</ele>
        <time>2018-12-27T11:27:28Z</time>
      </trkpt>
      <trkpt lat="43.25039" lon="5.98735">
        <ele>282.28</ele>
        <time>2018-12-27T11:27:37Z</time>
      </trkpt>
      <trkpt lat="43.25039" lon="5.98735">
        <ele>280.84</ele>
        <time>2018-12-27T11:27:39Z</time>
      </trkpt>
      <trkpt lat="43.25039" lon="5.98737">
        <ele>280.84</ele>
        <time>2018-12-27T11:27:59Z</time>
      </trkpt>
      <trkpt lat="43.25038" lon="5.98737">
        <ele>280.36</ele>
        <time>2018-12-27T11:28:08Z</time>
      </trkpt>
      <trkpt lat="43.25036" lon="5.98736">
        <ele>281.8</ele>
        <time>2018-12-27T11:28:10Z</time>
      </trkpt>
      <trkpt lat="43.25028" lon="5.9873">
        <ele>282.28</ele>
        <time>2018-12-27T11:28:21Z</time>
      </trkpt>
      <trkpt lat="43.25026" lon="5.98729">
        <ele>282.28</ele>
        <time>2018-12-27T11:28:22Z</time>
      </trkpt>
      <trkpt lat="43.25016" lon="5.98723">
        <ele>281.32</ele>
        <time>2018-12-27T11:28:35Z</time>
      </trkpt>
      <trkpt lat="43.25015" lon="5.98722">
        <ele>281.32</ele>
        <time>2018-12-27T11:28:36Z</time>
      </trkpt>
      <trkpt lat="43.25014" lon="5.98721">
        <ele>282.28</ele>
        <time>2018-12-27T11:28:37Z</time>
      </trkpt>
      <trkpt lat="43.25011" lon="5.9872">
        <ele>281.32</ele>
        <time>2018-12-27T11:28:40Z</time>
      </trkpt>
      <trkpt lat="43.25003" lon="5.98716">
        <ele>282.28</ele>
        <time>2018-12-27T11:28:49Z</time>
      </trkpt>
      <trkpt lat="43.25002" lon="5.98716">
        <ele>282.28</ele>
        <time>2018-12-27T11:28:50Z</time>
      </trkpt>
      <trkpt lat="43.25001" lon="5.98716">
        <ele>282.28</ele>
        <time>2018-12-27T11:28:51Z</time>
      </trkpt>
      <trkpt lat="43.24996" lon="5.98713">
        <ele>280.36</ele>
        <time>2018-12-27T11:28:56Z</time>
      </trkpt>
      <trkpt lat="43.24994" lon="5.98711">
        <ele>281.8</ele>
        <time>2018-12-27T11:28:58Z</time>
      </trkpt>
      <trkpt lat="43.24992" lon="5.9871">
        <ele>280.36</ele>
        <time>2018-12-27T11:29:00Z</time>
      </trkpt>
      <trkpt lat="43.2499" lon="5.9871">
        <ele>280.36</ele>
        <time>2018-12-27T11:29:02Z</time>
      </trkpt>
      <trkpt lat="43.24988" lon="5.9871">
        <ele>280.36</ele>
        <time>2018-12-27T11:29:04Z</time>
      </trkpt>
      <trkpt lat="43.24987" lon="5.9871">
        <ele>280.36</ele>
        <time>2018-12-27T11:29:05Z</time>
      </trkpt>
      <trkpt lat="43.24986" lon="5.98709">
        <ele>280.36</ele>
        <time>2018-12-27T11:29:06Z</time>
      </trkpt>
      <trkpt lat="43.24981" lon="5.98709">
        <ele>280.36</ele>
        <time>2018-12-27T11:29:11Z</time>
      </trkpt>
      <trkpt lat="43.24978" lon="5.9871">
        <ele>280.84</ele>
        <time>2018-12-27T11:29:15Z</time>
      </trkpt>
      <trkpt lat="43.24975" lon="5.9871">
        <ele>279.88</ele>
        <time>2018-12-27T11:29:20Z</time>
      </trkpt>
      <trkpt lat="43.2497" lon="5.98714">
        <ele>280.36</ele>
        <time>2018-12-27T11:29:30Z</time>
      </trkpt>
      <trkpt lat="43.24963" lon="5.98722">
        <ele>279.88</ele>
        <time>2018-12-27T11:29:40Z</time>
      </trkpt>
      <trkpt lat="43.24958" lon="5.98721">
        <ele>277.96</ele>
        <time>2018-12-27T11:29:44Z</time>
      </trkpt>
      <trkpt lat="43.24955" lon="5.98722">
        <ele>279.4</ele>
        <time>2018-12-27T11:29:47Z</time>
      </trkpt>
      <trkpt lat="43.24949" lon="5.98728">
        <ele>277.96</ele>
        <time>2018-12-27T11:29:54Z</time>
      </trkpt>
      <trkpt lat="43.24947" lon="5.98728">
        <ele>279.4</ele>
        <time>2018-12-27T11:29:56Z</time>
      </trkpt>
      <trkpt lat="43.24943" lon="5.98731">
        <ele>278.44</ele>
        <time>2018-12-27T11:30:02Z</time>
      </trkpt>
      <trkpt lat="43.2493" lon="5.9874">
        <ele>279.4</ele>
        <time>2018-12-27T11:30:20Z</time>
      </trkpt>
      <trkpt lat="43.24922" lon="5.9875">
        <ele>279.4</ele>
        <time>2018-12-27T11:30:35Z</time>
      </trkpt>
      <trkpt lat="43.24918" lon="5.98759">
        <ele>278.44</ele>
        <time>2018-12-27T11:30:56Z</time>
      </trkpt>
      <trkpt lat="43.24922" lon="5.98756">
        <ele>279.4</ele>
        <time>2018-12-27T11:31:01Z</time>
      </trkpt>
      <trkpt lat="43.24925" lon="5.98753">
        <ele>279.88</ele>
        <time>2018-12-27T11:31:15Z</time>
      </trkpt>
      <trkpt lat="43.24924" lon="5.98752">
        <ele>278.44</ele>
        <time>2018-12-27T11:31:36Z</time>
      </trkpt>
      <trkpt lat="43.24919" lon="5.98754">
        <ele>278.44</ele>
        <time>2018-12-27T11:31:52Z</time>
      </trkpt>
      <trkpt lat="43.2492" lon="5.98756">
        <ele>279.4</ele>
        <time>2018-12-27T11:32:07Z</time>
      </trkpt>
      <trkpt lat="43.24917" lon="5.98756">
        <ele>277.96</ele>
        <time>2018-12-27T11:32:16Z</time>
      </trkpt>
      <trkpt lat="43.24916" lon="5.98757">
        <ele>277.96</ele>
        <time>2018-12-27T11:32:18Z</time>
      </trkpt>
      <trkpt lat="43.24914" lon="5.98758">
        <ele>279.4</ele>
        <time>2018-12-27T11:32:20Z</time>
      </trkpt>
      <trkpt lat="43.24912" lon="5.98759">
        <ele>277.48</ele>
        <time>2018-12-27T11:32:22Z</time>
      </trkpt>
      <trkpt lat="43.24905" lon="5.98773">
        <ele>277</ele>
        <time>2018-12-27T11:32:38Z</time>
      </trkpt>
      <trkpt lat="43.24901" lon="5.98776">
        <ele>276.04</ele>
        <time>2018-12-27T11:32:43Z</time>
      </trkpt>
      <trkpt lat="43.24899" lon="5.98777">
        <ele>277</ele>
        <time>2018-12-27T11:32:45Z</time>
      </trkpt>
      <trkpt lat="43.24894" lon="5.98777">
        <ele>275.07</ele>
        <time>2018-12-27T11:32:49Z</time>
      </trkpt>
      <trkpt lat="43.24887" lon="5.9877">
        <ele>277</ele>
        <time>2018-12-27T11:32:56Z</time>
      </trkpt>
      <trkpt lat="43.24887" lon="5.98767">
        <ele>275.07</ele>
        <time>2018-12-27T11:32:58Z</time>
      </trkpt>
      <trkpt lat="43.24886" lon="5.98765">
        <ele>276.04</ele>
        <time>2018-12-27T11:33:00Z</time>
      </trkpt>
      <trkpt lat="43.24885" lon="5.98761">
        <ele>275.07</ele>
        <time>2018-12-27T11:33:03Z</time>
      </trkpt>
      <trkpt lat="43.24885" lon="5.98759">
        <ele>276.52</ele>
        <time>2018-12-27T11:33:05Z</time>
      </trkpt>
      <trkpt lat="43.24882" lon="5.98752">
        <ele>274.59</ele>
        <time>2018-12-27T11:33:11Z</time>
      </trkpt>
      <trkpt lat="43.24877" lon="5.98739">
        <ele>276.04</ele>
        <time>2018-12-27T11:33:23Z</time>
      </trkpt>
      <trkpt lat="43.24874" lon="5.98734">
        <ele>274.11</ele>
        <time>2018-12-27T11:33:27Z</time>
      </trkpt>
      <trkpt lat="43.24857" lon="5.98716">
        <ele>274.11</ele>
        <time>2018-12-27T11:33:45Z</time>
      </trkpt>
      <trkpt lat="43.24854" lon="5.98714">
        <ele>275.56</ele>
        <time>2018-12-27T11:33:48Z</time>
      </trkpt>
      <trkpt lat="43.24839" lon="5.987">
        <ele>273.15</ele>
        <time>2018-12-27T11:34:03Z</time>
      </trkpt>
      <trkpt lat="43.24817" lon="5.98697">
        <ele>270.75</ele>
        <time>2018-12-27T11:34:24Z</time>
      </trkpt>
      <trkpt lat="43.24809" lon="5.98698">
        <ele>268.35</ele>
        <time>2018-12-27T11:34:32Z</time>
      </trkpt>
      <trkpt lat="43.24806" lon="5.98698">
        <ele>269.79</ele>
        <time>2018-12-27T11:34:34Z</time>
      </trkpt>
      <trkpt lat="43.24803" lon="5.98701">
        <ele>267.86</ele>
        <time>2018-12-27T11:34:39Z</time>
      </trkpt>
      <trkpt lat="43.24785" lon="5.98711">
        <ele>264.98</ele>
        <time>2018-12-27T11:34:55Z</time>
      </trkpt>
      <trkpt lat="43.24776" lon="5.98721">
        <ele>265.94</ele>
        <time>2018-12-27T11:35:04Z</time>
      </trkpt>
      <trkpt lat="43.24775" lon="5.98722">
        <ele>265.46</ele>
        <time>2018-12-27T11:35:05Z</time>
      </trkpt>
      <trkpt lat="43.2476" lon="5.98737">
        <ele>264.02</ele>
        <time>2018-12-27T11:35:24Z</time>
      </trkpt>
      <trkpt lat="43.2475" lon="5.98751">
        <ele>261.62</ele>
        <time>2018-12-27T11:35:39Z</time>
      </trkpt>
      <trkpt lat="43.24739" lon="5.98762">
        <ele>260.65</ele>
        <time>2018-12-27T11:35:51Z</time>
      </trkpt>
      <trkpt lat="43.24728" lon="5.98787">
        <ele>259.21</ele>
        <time>2018-12-27T11:36:10Z</time>
      </trkpt>
      <trkpt lat="43.24724" lon="5.98801">
        <ele>259.21</ele>
        <time>2018-12-27T11:36:20Z</time>
      </trkpt>
      <trkpt lat="43.24722" lon="5.98815">
        <ele>259.21</ele>
        <time>2018-12-27T11:36:29Z</time>
      </trkpt>
      <trkpt lat="43.2472" lon="5.98822">
        <ele>260.17</ele>
        <time>2018-12-27T11:36:40Z</time>
      </trkpt>
      <trkpt lat="43.24719" lon="5.98831">
        <ele>260.65</ele>
        <time>2018-12-27T11:36:59Z</time>
      </trkpt>
      <trkpt lat="43.24718" lon="5.98835">
        <ele>260.65</ele>
        <time>2018-12-27T11:37:03Z</time>
      </trkpt>
      <trkpt lat="43.24717" lon="5.98847">
        <ele>261.14</ele>
        <time>2018-12-27T11:37:11Z</time>
      </trkpt>
      <trkpt lat="43.24717" lon="5.98851">
        <ele>262.1</ele>
        <time>2018-12-27T11:37:15Z</time>
      </trkpt>
      <trkpt lat="43.24717" lon="5.98856">
        <ele>262.58</ele>
        <time>2018-12-27T11:37:19Z</time>
      </trkpt>
      <trkpt lat="43.24718" lon="5.98874">
        <ele>263.54</ele>
        <time>2018-12-27T11:37:31Z</time>
      </trkpt>
      <trkpt lat="43.24719" lon="5.98889">
        <ele>264.5</ele>
        <time>2018-12-27T11:37:43Z</time>
      </trkpt>
      <trkpt lat="43.24719" lon="5.98904">
        <ele>264.5</ele>
        <time>2018-12-27T11:37:53Z</time>
      </trkpt>
      <trkpt lat="43.24717" lon="5.98917">
        <ele>264.5</ele>
        <time>2018-12-27T11:38:01Z</time>
      </trkpt>
      <trkpt lat="43.24717" lon="5.98919">
        <ele>264.5</ele>
        <time>2018-12-27T11:38:02Z</time>
      </trkpt>
      <trkpt lat="43.24713" lon="5.98935">
        <ele>264.5</ele>
        <time>2018-12-27T11:38:11Z</time>
      </trkpt>
      <trkpt lat="43.24711" lon="5.98956">
        <ele>263.54</ele>
        <time>2018-12-27T11:38:25Z</time>
      </trkpt>
      <trkpt lat="43.24706" lon="5.98977">
        <ele>263.06</ele>
        <time>2018-12-27T11:38:37Z</time>
      </trkpt>
      <trkpt lat="43.24699" lon="5.99003">
        <ele>262.58</ele>
        <time>2018-12-27T11:38:54Z</time>
      </trkpt>
      <trkpt lat="43.24699" lon="5.99004">
        <ele>262.58</ele>
        <time>2018-12-27T11:38:55Z</time>
      </trkpt>
      <trkpt lat="43.24697" lon="5.99008">
        <ele>262.58</ele>
        <time>2018-12-27T11:38:57Z</time>
      </trkpt>
      <trkpt lat="43.24697" lon="5.9901">
        <ele>262.58</ele>
        <time>2018-12-27T11:38:58Z</time>
      </trkpt>
      <trkpt lat="43.24696" lon="5.99012">
        <ele>262.1</ele>
        <time>2018-12-27T11:38:59Z</time>
      </trkpt>
      <trkpt lat="43.24696" lon="5.99014">
        <ele>262.58</ele>
        <time>2018-12-27T11:39:00Z</time>
      </trkpt>
      <trkpt lat="43.24695" lon="5.99015">
        <ele>262.1</ele>
        <time>2018-12-27T11:39:01Z</time>
      </trkpt>
      <trkpt lat="43.24688" lon="5.99042">
        <ele>263.54</ele>
        <time>2018-12-27T11:39:21Z</time>
      </trkpt>
      <trkpt lat="43.24687" lon="5.99049">
        <ele>263.06</ele>
        <time>2018-12-27T11:39:25Z</time>
      </trkpt>
      <trkpt lat="43.24683" lon="5.99064">
        <ele>263.54</ele>
        <time>2018-12-27T11:39:36Z</time>
      </trkpt>
      <trkpt lat="43.24678" lon="5.9908">
        <ele>263.54</ele>
        <time>2018-12-27T11:39:45Z</time>
      </trkpt>
      <trkpt lat="43.24677" lon="5.99089">
        <ele>264.02</ele>
        <time>2018-12-27T11:39:55Z</time>
      </trkpt>
      <trkpt lat="43.24676" lon="5.9909">
        <ele>264.02</ele>
        <time>2018-12-27T11:39:56Z</time>
      </trkpt>
      <trkpt lat="43.24672" lon="5.99095">
        <ele>261.62</ele>
        <time>2018-12-27T11:40:02Z</time>
      </trkpt>
      <trkpt lat="43.24665" lon="5.99108">
        <ele>258.73</ele>
        <time>2018-12-27T11:40:17Z</time>
      </trkpt>
      <trkpt lat="43.24659" lon="5.99115">
        <ele>255.37</ele>
        <time>2018-12-27T11:40:29Z</time>
      </trkpt>
      <trkpt lat="43.24657" lon="5.99118">
        <ele>257.29</ele>
        <time>2018-12-27T11:40:37Z</time>
      </trkpt>
      <trkpt lat="43.24657" lon="5.99118">
        <ele>255.85</ele>
        <time>2018-12-27T11:40:39Z</time>
      </trkpt>
      <trkpt lat="43.24652" lon="5.99122">
        <ele>254.41</ele>
        <time>2018-12-27T11:41:09Z</time>
      </trkpt>
      <trkpt lat="43.24645" lon="5.99132">
        <ele>251.52</ele>
        <time>2018-12-27T11:41:27Z</time>
      </trkpt>
      <trkpt lat="43.24638" lon="5.99143">
        <ele>249.12</ele>
        <time>2018-12-27T11:41:40Z</time>
      </trkpt>
      <trkpt lat="43.24633" lon="5.99151">
        <ele>247.2</ele>
        <time>2018-12-27T11:41:48Z</time>
      </trkpt>
      <trkpt lat="43.24629" lon="5.99153">
        <ele>245.75</ele>
        <time>2018-12-27T11:41:53Z</time>
      </trkpt>
      <trkpt lat="43.24622" lon="5.99165">
        <ele>244.79</ele>
        <time>2018-12-27T11:42:12Z</time>
      </trkpt>
      <trkpt lat="43.24612" lon="5.99189">
        <ele>243.35</ele>
        <time>2018-12-27T11:42:32Z</time>
      </trkpt>
      <trkpt lat="43.24611" lon="5.99192">
        <ele>244.79</ele>
        <time>2018-12-27T11:42:34Z</time>
      </trkpt>
      <trkpt lat="43.24611" lon="5.99193">
        <ele>243.35</ele>
        <time>2018-12-27T11:42:36Z</time>
      </trkpt>
      <trkpt lat="43.246" lon="5.99219">
        <ele>239.99</ele>
        <time>2018-12-27T11:42:58Z</time>
      </trkpt>
      <trkpt lat="43.24588" lon="5.99241">
        <ele>237.1</ele>
        <time>2018-12-27T11:43:22Z</time>
      </trkpt>
      <trkpt lat="43.24576" lon="5.99276">
        <ele>234.7</ele>
        <time>2018-12-27T11:43:47Z</time>
      </trkpt>
      <trkpt lat="43.24572" lon="5.99283">
        <ele>231.81</ele>
        <time>2018-12-27T11:43:55Z</time>
      </trkpt>
      <trkpt lat="43.24572" lon="5.99284">
        <ele>231.81</ele>
        <time>2018-12-27T11:43:56Z</time>
      </trkpt>
      <trkpt lat="43.24564" lon="5.99307">
        <ele>228.45</ele>
        <time>2018-12-27T11:44:13Z</time>
      </trkpt>
      <trkpt lat="43.2456" lon="5.99319">
        <ele>226.53</ele>
        <time>2018-12-27T11:44:38Z</time>
      </trkpt>
      <trkpt lat="43.2455" lon="5.99334">
        <ele>226.05</ele>
        <time>2018-12-27T11:45:02Z</time>
      </trkpt>
      <trkpt lat="43.24549" lon="5.99341">
        <ele>224.12</ele>
        <time>2018-12-27T11:45:08Z</time>
      </trkpt>
      <trkpt lat="43.24542" lon="5.99373">
        <ele>222.68</ele>
        <time>2018-12-27T11:45:34Z</time>
      </trkpt>
      <trkpt lat="43.24535" lon="5.99387">
        <ele>219.32</ele>
        <time>2018-12-27T11:45:47Z</time>
      </trkpt>
      <trkpt lat="43.24533" lon="5.99388">
        <ele>218.36</ele>
        <time>2018-12-27T11:45:49Z</time>
      </trkpt>
      <trkpt lat="43.24523" lon="5.99401">
        <ele>214.99</ele>
        <time>2018-12-27T11:46:10Z</time>
      </trkpt>
      <trkpt lat="43.24512" lon="5.99419">
        <ele>213.07</ele>
        <time>2018-12-27T11:46:33Z</time>
      </trkpt>
      <trkpt lat="43.24508" lon="5.99422">
        <ele>213.07</ele>
        <time>2018-12-27T11:46:46Z</time>
      </trkpt>
      <trkpt lat="43.24509" lon="5.99442">
        <ele>213.55</ele>
        <time>2018-12-27T11:47:08Z</time>
      </trkpt>
      <trkpt lat="43.24508" lon="5.99442">
        <ele>212.11</ele>
        <time>2018-12-27T11:47:13Z</time>
      </trkpt>
      <trkpt lat="43.24509" lon="5.99446">
        <ele>213.07</ele>
        <time>2018-12-27T11:47:18Z</time>
      </trkpt>
      <trkpt lat="43.24509" lon="5.99454">
        <ele>212.59</ele>
        <time>2018-12-27T11:47:24Z</time>
      </trkpt>
      <trkpt lat="43.24508" lon="5.9946">
        <ele>211.15</ele>
        <time>2018-12-27T11:47:27Z</time>
      </trkpt>
      <trkpt lat="43.24504" lon="5.99475">
        <ele>210.19</ele>
        <time>2018-12-27T11:47:40Z</time>
      </trkpt>
      <trkpt lat="43.245" lon="5.9949">
        <ele>208.26</ele>
        <time>2018-12-27T11:48:02Z</time>
      </trkpt>
      <trkpt lat="43.24502" lon="5.99514">
        <ele>205.86</ele>
        <time>2018-12-27T11:48:21Z</time>
      </trkpt>
      <trkpt lat="43.245" lon="5.99533">
        <ele>202.98</ele>
        <time>2018-12-27T11:48:34Z</time>
      </trkpt>
      <trkpt lat="43.24496" lon="5.99547">
        <ele>200.57</ele>
        <time>2018-12-27T11:48:46Z</time>
      </trkpt>
      <trkpt lat="43.24494" lon="5.9956">
        <ele>198.17</ele>
        <time>2018-12-27T11:49:02Z</time>
      </trkpt>
      <trkpt lat="43.24493" lon="5.99568">
        <ele>196.25</ele>
        <time>2018-12-27T11:49:10Z</time>
      </trkpt>
      <trkpt lat="43.2449" lon="5.99591">
        <ele>193.36</ele>
        <time>2018-12-27T11:49:25Z</time>
      </trkpt>
      <trkpt lat="43.2449" lon="5.99601">
        <ele>193.36</ele>
        <time>2018-12-27T11:49:30Z</time>
      </trkpt>
      <trkpt lat="43.2449" lon="5.99614">
        <ele>191.92</ele>
        <time>2018-12-27T11:49:46Z</time>
      </trkpt>
      <trkpt lat="43.2449" lon="5.99628">
        <ele>190.96</ele>
        <time>2018-12-27T11:50:02Z</time>
      </trkpt>
      <trkpt lat="43.24487" lon="5.99632">
        <ele>190</ele>
        <time>2018-12-27T11:50:10Z</time>
      </trkpt>
      <trkpt lat="43.24487" lon="5.99635">
        <ele>190</ele>
        <time>2018-12-27T11:50:11Z</time>
      </trkpt>
      <trkpt lat="43.24487" lon="5.99641">
        <ele>189.52</ele>
        <time>2018-12-27T11:50:21Z</time>
      </trkpt>
      <trkpt lat="43.2449" lon="5.99647">
        <ele>189.04</ele>
        <time>2018-12-27T11:50:40Z</time>
      </trkpt>
      <trkpt lat="43.24489" lon="5.99648">
        <ele>188.08</ele>
        <time>2018-12-27T11:50:41Z</time>
      </trkpt>
      <trkpt lat="43.24488" lon="5.99651">
        <ele>188.08</ele>
        <time>2018-12-27T11:50:44Z</time>
      </trkpt>
      <trkpt lat="43.24488" lon="5.99653">
        <ele>187.59</ele>
        <time>2018-12-27T11:50:45Z</time>
      </trkpt>
      <trkpt lat="43.24488" lon="5.99655">
        <ele>187.59</ele>
        <time>2018-12-27T11:50:46Z</time>
      </trkpt>
      <trkpt lat="43.24489" lon="5.99656">
        <ele>187.59</ele>
        <time>2018-12-27T11:50:47Z</time>
      </trkpt>
      <trkpt lat="43.2449" lon="5.99658">
        <ele>187.11</ele>
        <time>2018-12-27T11:50:48Z</time>
      </trkpt>
      <trkpt lat="43.24492" lon="5.99675">
        <ele>185.19</ele>
        <time>2018-12-27T11:51:02Z</time>
      </trkpt>
      <trkpt lat="43.2449" lon="5.99689">
        <ele>184.23</ele>
        <time>2018-12-27T11:51:16Z</time>
      </trkpt>
      <trkpt lat="43.2449" lon="5.99691">
        <ele>184.23</ele>
        <time>2018-12-27T11:51:17Z</time>
      </trkpt>
      <trkpt lat="43.24496" lon="5.99708">
        <ele>184.23</ele>
        <time>2018-12-27T11:51:31Z</time>
      </trkpt>
      <trkpt lat="43.24496" lon="5.9971">
        <ele>184.23</ele>
        <time>2018-12-27T11:51:33Z</time>
      </trkpt>
      <trkpt lat="43.24495" lon="5.99712">
        <ele>184.23</ele>
        <time>2018-12-27T11:51:34Z</time>
      </trkpt>
      <trkpt lat="43.24496" lon="5.99717">
        <ele>183.27</ele>
        <time>2018-12-27T11:51:38Z</time>
      </trkpt>
      <trkpt lat="43.24496" lon="5.99724">
        <ele>182.31</ele>
        <time>2018-12-27T11:51:47Z</time>
      </trkpt>
      <trkpt lat="43.24498" lon="5.99726">
        <ele>181.83</ele>
        <time>2018-12-27T11:52:14Z</time>
      </trkpt>
      <trkpt lat="43.24502" lon="5.99734">
        <ele>180.87</ele>
        <time>2018-12-27T11:52:24Z</time>
      </trkpt>
      <trkpt lat="43.24507" lon="5.99751">
        <ele>177.02</ele>
        <time>2018-12-27T11:52:34Z</time>
      </trkpt>
      <trkpt lat="43.24507" lon="5.99759">
        <ele>177.02</ele>
        <time>2018-12-27T11:52:41Z</time>
      </trkpt>
      <trkpt lat="43.24506" lon="5.99761">
        <ele>178.46</ele>
        <time>2018-12-27T11:52:43Z</time>
      </trkpt>
      <trkpt lat="43.24498" lon="5.99779">
        <ele>174.14</ele>
        <time>2018-12-27T11:52:59Z</time>
      </trkpt>
      <trkpt lat="43.24497" lon="5.9978">
        <ele>174.14</ele>
        <time>2018-12-27T11:53:00Z</time>
      </trkpt>
      <trkpt lat="43.24487" lon="5.99788">
        <ele>171.25</ele>
        <time>2018-12-27T11:53:16Z</time>
      </trkpt>
      <trkpt lat="43.24496" lon="5.99813">
        <ele>170.29</ele>
        <time>2018-12-27T11:53:38Z</time>
      </trkpt>
      <trkpt lat="43.24495" lon="5.99837">
        <ele>168.85</ele>
        <time>2018-12-27T11:53:55Z</time>
      </trkpt>
      <trkpt lat="43.24497" lon="5.99841">
        <ele>167.41</ele>
        <time>2018-12-27T11:53:58Z</time>
      </trkpt>
      <trkpt lat="43.24502" lon="5.99847">
        <ele>167.41</ele>
        <time>2018-12-27T11:54:02Z</time>
      </trkpt>
      <trkpt lat="43.24522" lon="5.99864">
        <ele>168.85</ele>
        <time>2018-12-27T11:54:23Z</time>
      </trkpt>
      <trkpt lat="43.24534" lon="5.99881">
        <ele>169.33</ele>
        <time>2018-12-27T11:54:39Z</time>
      </trkpt>
      <trkpt lat="43.24539" lon="5.99904">
        <ele>166.93</ele>
        <time>2018-12-27T11:54:59Z</time>
      </trkpt>
      <trkpt lat="43.24549" lon="5.99925">
        <ele>164.04</ele>
        <time>2018-12-27T11:55:19Z</time>
      </trkpt>
      <trkpt lat="43.24557" lon="5.99951">
        <ele>163.56</ele>
        <time>2018-12-27T11:55:39Z</time>
      </trkpt>
      <trkpt lat="43.24558" lon="5.9996">
        <ele>161.64</ele>
        <time>2018-12-27T11:55:44Z</time>
      </trkpt>
      <trkpt lat="43.24555" lon="5.99967">
        <ele>159.24</ele>
        <time>2018-12-27T11:55:58Z</time>
      </trkpt>
      <trkpt lat="43.24538" lon="5.99986">
        <ele>158.75</ele>
        <time>2018-12-27T11:56:19Z</time>
      </trkpt>
      <trkpt lat="43.24531" lon="5.99998">
        <ele>157.79</ele>
        <time>2018-12-27T11:56:39Z</time>
      </trkpt>
      <trkpt lat="43.24517" lon="6.00019">
        <ele>156.35</ele>
        <time>2018-12-27T11:57:00Z</time>
      </trkpt>
      <trkpt lat="43.24502" lon="6.00034">
        <ele>155.87</ele>
        <time>2018-12-27T11:57:21Z</time>
      </trkpt>
      <trkpt lat="43.24501" lon="6.00033">
        <ele>156.83</ele>
        <time>2018-12-27T11:57:45Z</time>
      </trkpt>
      <trkpt lat="43.24485" lon="6.00034">
        <ele>156.83</ele>
        <time>2018-12-27T11:58:09Z</time>
      </trkpt>
      <trkpt lat="43.24472" lon="6.00032">
        <ele>155.39</ele>
        <time>2018-12-27T11:58:18Z</time>
      </trkpt>
      <trkpt lat="43.24467" lon="6.00031">
        <ele>154.91</ele>
        <time>2018-12-27T11:58:36Z</time>
      </trkpt>
      <trkpt lat="43.24452" lon="6.00032">
        <ele>154.91</ele>
        <time>2018-12-27T11:58:55Z</time>
      </trkpt>
      <trkpt lat="43.24452" lon="6.00032">
        <ele>157.31</ele>
        <time>2018-12-27T11:59:01Z</time>
      </trkpt>
      <trkpt lat="43.24445" lon="6.00039">
        <ele>157.79</ele>
        <time>2018-12-27T11:59:18Z</time>
      </trkpt>
    </trkseg>
  </trk>
  <trk>
    <name><![CDATA[2019-01-06 14:53:14 001]]></name>
    <trkseg>
      <trkpt lat="43.35484" lon="5.77731">
        <ele>367.36</ele>
        <time>2019-01-06T10:51:28Z</time>
      </trkpt>
      <trkpt lat="43.35476" lon="5.77719">
        <ele>368.8</ele>
        <time>2019-01-06T10:51:43Z</time>
      </trkpt>
      <trkpt lat="43.35466" lon="5.7771">
        <ele>369.76</ele>
        <time>2019-01-06T10:51:59Z</time>
      </trkpt>
      <trkpt lat="43.35458" lon="5.77696">
        <ele>369.76</ele>
        <time>2019-01-06T10:52:19Z</time>
      </trkpt>
      <trkpt lat="43.35446" lon="5.77686">
        <ele>370.73</ele>
        <time>2019-01-06T10:52:39Z</time>
      </trkpt>
      <trkpt lat="43.35445" lon="5.77693">
        <ele>371.21</ele>
        <time>2019-01-06T10:53:02Z</time>
      </trkpt>
      <trkpt lat="43.35444" lon="5.77694">
        <ele>367.84</ele>
        <time>2019-01-06T10:53:09Z</time>
      </trkpt>
      <trkpt lat="43.35443" lon="5.77695">
        <ele>372.17</ele>
        <time>2019-01-06T10:53:12Z</time>
      </trkpt>
      <trkpt lat="43.35431" lon="5.77691">
        <ele>371.21</ele>
        <time>2019-01-06T10:53:33Z</time>
      </trkpt>
      <trkpt lat="43.35429" lon="5.77691">
        <ele>372.65</ele>
        <time>2019-01-06T10:53:35Z</time>
      </trkpt>
      <trkpt lat="43.35426" lon="5.7769">
        <ele>370.73</ele>
        <time>2019-01-06T10:53:38Z</time>
      </trkpt>
      <trkpt lat="43.35422" lon="5.77689">
        <ele>372.65</ele>
        <time>2019-01-06T10:53:41Z</time>
      </trkpt>
      <trkpt lat="43.35402" lon="5.77684">
        <ele>373.13</ele>
        <time>2019-01-06T10:54:02Z</time>
      </trkpt>
      <trkpt lat="43.35378" lon="5.7768">
        <ele>375.05</ele>
        <time>2019-01-06T10:54:24Z</time>
      </trkpt>
      <trkpt lat="43.35369" lon="5.7768">
        <ele>376.01</ele>
        <time>2019-01-06T10:54:32Z</time>
      </trkpt>
      <trkpt lat="43.35367" lon="5.7768">
        <ele>376.01</ele>
        <time>2019-01-06T10:54:33Z</time>
      </trkpt>
      <trkpt lat="43.35366" lon="5.7768">
        <ele>376.01</ele>
        <time>2019-01-06T10:54:34Z</time>
      </trkpt>
      <trkpt lat="43.35365" lon="5.77679">
        <ele>376.01</ele>
        <time>2019-01-06T10:54:35Z</time>
      </trkpt>
      <trkpt lat="43.35364" lon="5.77678">
        <ele>374.57</ele>
        <time>2019-01-06T10:54:36Z</time>
      </trkpt>
      <trkpt lat="43.3536" lon="5.77674">
        <ele>376.97</ele>
        <time>2019-01-06T10:54:41Z</time>
      </trkpt>
      <trkpt lat="43.35346" lon="5.77669">
        <ele>378.42</ele>
        <time>2019-01-06T10:54:56Z</time>
      </trkpt>
      <trkpt lat="43.3534" lon="5.77666">
        <ele>378.9</ele>
        <time>2019-01-06T10:55:03Z</time>
      </trkpt>
      <trkpt lat="43.35323" lon="5.77651">
        <ele>380.34</ele>
        <time>2019-01-06T10:55:19Z</time>
      </trkpt>
      <trkpt lat="43.3531" lon="5.77642">
        <ele>380.34</ele>
        <time>2019-01-06T10:55:31Z</time>
      </trkpt>
      <trkpt lat="43.35308" lon="5.77639">
        <ele>382.26</ele>
        <time>2019-01-06T10:55:33Z</time>
      </trkpt>
      <trkpt lat="43.35299" lon="5.77632">
        <ele>383.22</ele>
        <time>2019-01-06T10:55:42Z</time>
      </trkpt>
      <trkpt lat="43.35293" lon="5.77628">
        <ele>382.74</ele>
        <time>2019-01-06T10:55:50Z</time>
      </trkpt>
      <trkpt lat="43.35288" lon="5.77625">
        <ele>385.15</ele>
        <time>2019-01-06T10:55:55Z</time>
      </trkpt>
      <trkpt lat="43.35287" lon="5.77624">
        <ele>383.22</ele>
        <time>2019-01-06T10:55:57Z</time>
      </trkpt>
      <trkpt lat="43.35285" lon="5.77621">
        <ele>384.66</ele>
        <time>2019-01-06T10:55:59Z</time>
      </trkpt>
      <trkpt lat="43.35279" lon="5.77615">
        <ele>386.59</ele>
        <time>2019-01-06T10:56:07Z</time>
      </trkpt>
      <trkpt lat="43.35273" lon="5.77611">
        <ele>386.59</ele>
        <time>2019-01-06T10:56:18Z</time>
      </trkpt>
      <trkpt lat="43.35268" lon="5.77609">
        <ele>388.03</ele>
        <time>2019-01-06T10:56:24Z</time>
      </trkpt>
      <trkpt lat="43.3526" lon="5.77602">
        <ele>388.99</ele>
        <time>2019-01-06T10:56:36Z</time>
      </trkpt>
      <trkpt lat="43.35256" lon="5.776">
        <ele>390.43</ele>
        <time>2019-01-06T10:56:42Z</time>
      </trkpt>
      <trkpt lat="43.35252" lon="5.77597">
        <ele>391.87</ele>
        <time>2019-01-06T10:56:48Z</time>
      </trkpt>
      <trkpt lat="43.35241" lon="5.7759">
        <ele>393.32</ele>
        <time>2019-01-06T10:57:00Z</time>
      </trkpt>
      <trkpt lat="43.35233" lon="5.77581">
        <ele>395.72</ele>
        <time>2019-01-06T10:57:10Z</time>
      </trkpt>
      <trkpt lat="43.35229" lon="5.77578">
        <ele>395.72</ele>
        <time>2019-01-06T10:57:14Z</time>
      </trkpt>
      <trkpt lat="43.35223" lon="5.77573">
        <ele>396.2</ele>
        <time>2019-01-06T10:57:22Z</time>
      </trkpt>
      <trkpt lat="43.35219" lon="5.77571">
        <ele>396.68</ele>
        <time>2019-01-06T10:57:26Z</time>
      </trkpt>
      <trkpt lat="43.35212" lon="5.77561">
        <ele>399.08</ele>
        <time>2019-01-06T10:57:40Z</time>
      </trkpt>
      <trkpt lat="43.35212" lon="5.77556">
        <ele>400.05</ele>
        <time>2019-01-06T10:57:44Z</time>
      </trkpt>
      <trkpt lat="43.35211" lon="5.77555">
        <ele>400.05</ele>
        <time>2019-01-06T10:57:45Z</time>
      </trkpt>
      <trkpt lat="43.35207" lon="5.77537">
        <ele>400.53</ele>
        <time>2019-01-06T10:57:58Z</time>
      </trkpt>
      <trkpt lat="43.35204" lon="5.77521">
        <ele>400.53</ele>
        <time>2019-01-06T10:58:11Z</time>
      </trkpt>
      <trkpt lat="43.35201" lon="5.77504">
        <ele>400.53</ele>
        <time>2019-01-06T10:58:23Z</time>
      </trkpt>
      <trkpt lat="43.35201" lon="5.77484">
        <ele>401.49</ele>
        <time>2019-01-06T10:58:35Z</time>
      </trkpt>
      <trkpt lat="43.35201" lon="5.7746">
        <ele>401.01</ele>
        <time>2019-01-06T10:58:49Z</time>
      </trkpt>
      <trkpt lat="43.35203" lon="5.77455">
        <ele>401.49</ele>
        <time>2019-01-06T10:58:53Z</time>
      </trkpt>
      <trkpt lat="43.35204" lon="5.77451">
        <ele>399.57</ele>
        <time>2019-01-06T10:58:56Z</time>
      </trkpt>
      <trkpt lat="43.35205" lon="5.77449">
        <ele>401.97</ele>
        <time>2019-01-06T10:58:58Z</time>
      </trkpt>
      <trkpt lat="43.35208" lon="5.77446">
        <ele>400.53</ele>
        <time>2019-01-06T10:59:01Z</time>
      </trkpt>
      <trkpt lat="43.35209" lon="5.77444">
        <ele>401.97</ele>
        <time>2019-01-06T10:59:03Z</time>
      </trkpt>
      <trkpt lat="43.35209" lon="5.77431">
        <ele>400.53</ele>
        <time>2019-01-06T10:59:13Z</time>
      </trkpt>
      <trkpt lat="43.35209" lon="5.77428">
        <ele>401.97</ele>
        <time>2019-01-06T10:59:15Z</time>
      </trkpt>
      <trkpt lat="43.3521" lon="5.7741">
        <ele>401.49</ele>
        <time>2019-01-06T10:59:25Z</time>
      </trkpt>
      <trkpt lat="43.35211" lon="5.77404">
        <ele>402.93</ele>
        <time>2019-01-06T10:59:28Z</time>
      </trkpt>
      <trkpt lat="43.35212" lon="5.77396">
        <ele>403.41</ele>
        <time>2019-01-06T10:59:32Z</time>
      </trkpt>
      <trkpt lat="43.35212" lon="5.77378">
        <ele>403.89</ele>
        <time>2019-01-06T10:59:45Z</time>
      </trkpt>
      <trkpt lat="43.35214" lon="5.77353">
        <ele>405.81</ele>
        <time>2019-01-06T10:59:59Z</time>
      </trkpt>
      <trkpt lat="43.35214" lon="5.77335">
        <ele>405.33</ele>
        <time>2019-01-06T11:00:12Z</time>
      </trkpt>
      <trkpt lat="43.35215" lon="5.77332">
        <ele>406.77</ele>
        <time>2019-01-06T11:00:14Z</time>
      </trkpt>
      <trkpt lat="43.3522" lon="5.77306">
        <ele>407.26</ele>
        <time>2019-01-06T11:00:33Z</time>
      </trkpt>
      <trkpt lat="43.35219" lon="5.77301">
        <ele>405.33</ele>
        <time>2019-01-06T11:00:36Z</time>
      </trkpt>
      <trkpt lat="43.35218" lon="5.77297">
        <ele>407.74</ele>
        <time>2019-01-06T11:00:38Z</time>
      </trkpt>
      <trkpt lat="43.35218" lon="5.77293">
        <ele>406.29</ele>
        <time>2019-01-06T11:00:41Z</time>
      </trkpt>
      <trkpt lat="43.3522" lon="5.77269">
        <ele>408.22</ele>
        <time>2019-01-06T11:01:04Z</time>
      </trkpt>
      <trkpt lat="43.35221" lon="5.77266">
        <ele>407.26</ele>
        <time>2019-01-06T11:01:08Z</time>
      </trkpt>
      <trkpt lat="43.35222" lon="5.77265">
        <ele>408.7</ele>
        <time>2019-01-06T11:01:10Z</time>
      </trkpt>
      <trkpt lat="43.35214" lon="5.77239">
        <ele>411.1</ele>
        <time>2019-01-06T11:01:30Z</time>
      </trkpt>
      <trkpt lat="43.35209" lon="5.77226">
        <ele>411.58</ele>
        <time>2019-01-06T11:01:36Z</time>
      </trkpt>
      <trkpt lat="43.35208" lon="5.77224">
        <ele>411.1</ele>
        <time>2019-01-06T11:01:37Z</time>
      </trkpt>
      <trkpt lat="43.35203" lon="5.77199">
        <ele>410.62</ele>
        <time>2019-01-06T11:01:55Z</time>
      </trkpt>
      <trkpt lat="43.35201" lon="5.77179">
        <ele>411.1</ele>
        <time>2019-01-06T11:02:10Z</time>
      </trkpt>
      <trkpt lat="43.35201" lon="5.77176">
        <ele>411.1</ele>
        <time>2019-01-06T11:02:12Z</time>
      </trkpt>
      <trkpt lat="43.35201" lon="5.77175">
        <ele>411.1</ele>
        <time>2019-01-06T11:02:13Z</time>
      </trkpt>
      <trkpt lat="43.35203" lon="5.77143">
        <ele>413.02</ele>
        <time>2019-01-06T11:02:34Z</time>
      </trkpt>
      <trkpt lat="43.35203" lon="5.77135">
        <ele>411.1</ele>
        <time>2019-01-06T11:02:38Z</time>
      </trkpt>
      <trkpt lat="43.35204" lon="5.77131">
        <ele>413.02</ele>
        <time>2019-01-06T11:02:40Z</time>
      </trkpt>
      <trkpt lat="43.35204" lon="5.77128">
        <ele>412.06</ele>
        <time>2019-01-06T11:02:43Z</time>
      </trkpt>
      <trkpt lat="43.35204" lon="5.77126">
        <ele>413.02</ele>
        <time>2019-01-06T11:02:45Z</time>
      </trkpt>
      <trkpt lat="43.35204" lon="5.77122">
        <ele>411.1</ele>
        <time>2019-01-06T11:02:49Z</time>
      </trkpt>
      <trkpt lat="43.35204" lon="5.77121">
        <ele>412.54</ele>
        <time>2019-01-06T11:02:51Z</time>
      </trkpt>
      <trkpt lat="43.35205" lon="5.77118">
        <ele>411.58</ele>
        <time>2019-01-06T11:02:54Z</time>
      </trkpt>
      <trkpt lat="43.35209" lon="5.77115">
        <ele>412.54</ele>
        <time>2019-01-06T11:02:59Z</time>
      </trkpt>
      <trkpt lat="43.35216" lon="5.77108">
        <ele>411.1</ele>
        <time>2019-01-06T11:03:06Z</time>
      </trkpt>
      <trkpt lat="43.35219" lon="5.77106">
        <ele>412.06</ele>
        <time>2019-01-06T11:03:10Z</time>
      </trkpt>
      <trkpt lat="43.35224" lon="5.77105">
        <ele>410.62</ele>
        <time>2019-01-06T11:03:14Z</time>
      </trkpt>
      <trkpt lat="43.35226" lon="5.77106">
        <ele>411.58</ele>
        <time>2019-01-06T11:03:16Z</time>
      </trkpt>
      <trkpt lat="43.35238" lon="5.77102">
        <ele>410.14</ele>
        <time>2019-01-06T11:03:25Z</time>
      </trkpt>
      <trkpt lat="43.3524" lon="5.77101">
        <ele>411.58</ele>
        <time>2019-01-06T11:03:27Z</time>
      </trkpt>
      <trkpt lat="43.35255" lon="5.77099">
        <ele>410.62</ele>
        <time>2019-01-06T11:03:39Z</time>
      </trkpt>
      <trkpt lat="43.35257" lon="5.771">
        <ele>412.06</ele>
        <time>2019-01-06T11:03:41Z</time>
      </trkpt>
      <trkpt lat="43.35271" lon="5.77095">
        <ele>412.54</ele>
        <time>2019-01-06T11:04:01Z</time>
      </trkpt>
      <trkpt lat="43.35278" lon="5.77099">
        <ele>413.5</ele>
        <time>2019-01-06T11:04:19Z</time>
      </trkpt>
      <trkpt lat="43.35279" lon="5.77102">
        <ele>412.06</ele>
        <time>2019-01-06T11:04:23Z</time>
      </trkpt>
      <trkpt lat="43.35278" lon="5.77105">
        <ele>413.5</ele>
        <time>2019-01-06T11:04:30Z</time>
      </trkpt>
      <trkpt lat="43.35283" lon="5.77106">
        <ele>413.98</ele>
        <time>2019-01-06T11:04:37Z</time>
      </trkpt>
      <trkpt lat="43.35295" lon="5.771">
        <ele>415.43</ele>
        <time>2019-01-06T11:04:49Z</time>
      </trkpt>
      <trkpt lat="43.35298" lon="5.77091">
        <ele>415.91</ele>
        <time>2019-01-06T11:05:00Z</time>
      </trkpt>
      <trkpt lat="43.35296" lon="5.77074">
        <ele>416.87</ele>
        <time>2019-01-06T11:05:13Z</time>
      </trkpt>
      <trkpt lat="43.35295" lon="5.77056">
        <ele>417.35</ele>
        <time>2019-01-06T11:05:26Z</time>
      </trkpt>
      <trkpt lat="43.35296" lon="5.77054">
        <ele>417.35</ele>
        <time>2019-01-06T11:05:27Z</time>
      </trkpt>
      <trkpt lat="43.35296" lon="5.77052">
        <ele>417.35</ele>
        <time>2019-01-06T11:05:28Z</time>
      </trkpt>
      <trkpt lat="43.35298" lon="5.77049">
        <ele>417.83</ele>
        <time>2019-01-06T11:05:29Z</time>
      </trkpt>
      <trkpt lat="43.35303" lon="5.77037">
        <ele>419.27</ele>
        <time>2019-01-06T11:05:43Z</time>
      </trkpt>
      <trkpt lat="43.35297" lon="5.77023">
        <ele>420.71</ele>
        <time>2019-01-06T11:05:58Z</time>
      </trkpt>
      <trkpt lat="43.35289" lon="5.7701">
        <ele>421.19</ele>
        <time>2019-01-06T11:06:12Z</time>
      </trkpt>
      <trkpt lat="43.35288" lon="5.77009">
        <ele>421.68</ele>
        <time>2019-01-06T11:06:13Z</time>
      </trkpt>
      <trkpt lat="43.35278" lon="5.76997">
        <ele>423.12</ele>
        <time>2019-01-06T11:06:27Z</time>
      </trkpt>
      <trkpt lat="43.3527" lon="5.76984">
        <ele>424.56</ele>
        <time>2019-01-06T11:06:42Z</time>
      </trkpt>
      <trkpt lat="43.35261" lon="5.76968">
        <ele>425.52</ele>
        <time>2019-01-06T11:06:57Z</time>
      </trkpt>
      <trkpt lat="43.35257" lon="5.76954">
        <ele>426.48</ele>
        <time>2019-01-06T11:07:10Z</time>
      </trkpt>
      <trkpt lat="43.35252" lon="5.76943">
        <ele>427.44</ele>
        <time>2019-01-06T11:07:26Z</time>
      </trkpt>
      <trkpt lat="43.3525" lon="5.76938">
        <ele>427.92</ele>
        <time>2019-01-06T11:07:31Z</time>
      </trkpt>
      <trkpt lat="43.3525" lon="5.76927">
        <ele>428.89</ele>
        <time>2019-01-06T11:07:43Z</time>
      </trkpt>
      <trkpt lat="43.35247" lon="5.76911">
        <ele>429.85</ele>
        <time>2019-01-06T11:07:58Z</time>
      </trkpt>
      <trkpt lat="43.35245" lon="5.76892">
        <ele>431.77</ele>
        <time>2019-01-06T11:08:13Z</time>
      </trkpt>
      <trkpt lat="43.35239" lon="5.76875">
        <ele>433.69</ele>
        <time>2019-01-06T11:08:27Z</time>
      </trkpt>
      <trkpt lat="43.35233" lon="5.76868">
        <ele>435.13</ele>
        <time>2019-01-06T11:08:40Z</time>
      </trkpt>
      <trkpt lat="43.35226" lon="5.7687">
        <ele>433.69</ele>
        <time>2019-01-06T11:08:47Z</time>
      </trkpt>
      <trkpt lat="43.35225" lon="5.76869">
        <ele>433.69</ele>
        <time>2019-01-06T11:08:49Z</time>
      </trkpt>
      <trkpt lat="43.35221" lon="5.76862">
        <ele>434.65</ele>
        <time>2019-01-06T11:09:01Z</time>
      </trkpt>
      <trkpt lat="43.3522" lon="5.76851">
        <ele>435.13</ele>
        <time>2019-01-06T11:09:17Z</time>
      </trkpt>
      <trkpt lat="43.35213" lon="5.76836">
        <ele>437.54</ele>
        <time>2019-01-06T11:09:34Z</time>
      </trkpt>
      <trkpt lat="43.35212" lon="5.76832">
        <ele>438.02</ele>
        <time>2019-01-06T11:09:44Z</time>
      </trkpt>
      <trkpt lat="43.35205" lon="5.76816">
        <ele>438.98</ele>
        <time>2019-01-06T11:09:54Z</time>
      </trkpt>
      <trkpt lat="43.35201" lon="5.76812">
        <ele>440.42</ele>
        <time>2019-01-06T11:09:58Z</time>
      </trkpt>
      <trkpt lat="43.35197" lon="5.76797">
        <ele>441.38</ele>
        <time>2019-01-06T11:10:06Z</time>
      </trkpt>
      <trkpt lat="43.35193" lon="5.76786">
        <ele>442.34</ele>
        <time>2019-01-06T11:10:23Z</time>
      </trkpt>
      <trkpt lat="43.35188" lon="5.76778">
        <ele>443.79</ele>
        <time>2019-01-06T11:10:36Z</time>
      </trkpt>
      <trkpt lat="43.35185" lon="5.76773">
        <ele>443.79</ele>
        <time>2019-01-06T11:10:40Z</time>
      </trkpt>
      <trkpt lat="43.35177" lon="5.76765">
        <ele>443.31</ele>
        <time>2019-01-06T11:10:48Z</time>
      </trkpt>
      <trkpt lat="43.35177" lon="5.76775">
        <ele>443.79</ele>
        <time>2019-01-06T11:11:03Z</time>
      </trkpt>
      <trkpt lat="43.35178" lon="5.76777">
        <ele>445.23</ele>
        <time>2019-01-06T11:11:06Z</time>
      </trkpt>
      <trkpt lat="43.35175" lon="5.76769">
        <ele>444.27</ele>
        <time>2019-01-06T11:11:23Z</time>
      </trkpt>
      <trkpt lat="43.35172" lon="5.76765">
        <ele>445.71</ele>
        <time>2019-01-06T11:11:26Z</time>
      </trkpt>
      <trkpt lat="43.35162" lon="5.76756">
        <ele>445.23</ele>
        <time>2019-01-06T11:11:36Z</time>
      </trkpt>
      <trkpt lat="43.35149" lon="5.76741">
        <ele>444.75</ele>
        <time>2019-01-06T11:11:50Z</time>
      </trkpt>
      <trkpt lat="43.3514" lon="5.76732">
        <ele>445.23</ele>
        <time>2019-01-06T11:12:02Z</time>
      </trkpt>
      <trkpt lat="43.35137" lon="5.76727">
        <ele>444.75</ele>
        <time>2019-01-06T11:12:05Z</time>
      </trkpt>
      <trkpt lat="43.3513" lon="5.76718">
        <ele>444.75</ele>
        <time>2019-01-06T11:12:18Z</time>
      </trkpt>
      <trkpt lat="43.35122" lon="5.76704">
        <ele>444.75</ele>
        <time>2019-01-06T11:12:36Z</time>
      </trkpt>
      <trkpt lat="43.35115" lon="5.76696">
        <ele>444.27</ele>
        <time>2019-01-06T11:12:48Z</time>
      </trkpt>
      <trkpt lat="43.35108" lon="5.76684">
        <ele>444.27</ele>
        <time>2019-01-06T11:13:02Z</time>
      </trkpt>
      <trkpt lat="43.35101" lon="5.76666">
        <ele>444.27</ele>
        <time>2019-01-06T11:13:19Z</time>
      </trkpt>
      <trkpt lat="43.35097" lon="5.76652">
        <ele>443.79</ele>
        <time>2019-01-06T11:13:31Z</time>
      </trkpt>
      <trkpt lat="43.35094" lon="5.76638">
        <ele>442.34</ele>
        <time>2019-01-06T11:13:42Z</time>
      </trkpt>
      <trkpt lat="43.35091" lon="5.76628">
        <ele>441.38</ele>
        <time>2019-01-06T11:13:52Z</time>
      </trkpt>
      <trkpt lat="43.35092" lon="5.76622">
        <ele>440.9</ele>
        <time>2019-01-06T11:14:03Z</time>
      </trkpt>
      <trkpt lat="43.35087" lon="5.76604">
        <ele>440.9</ele>
        <time>2019-01-06T11:14:17Z</time>
      </trkpt>
      <trkpt lat="43.35087" lon="5.76594">
        <ele>439.94</ele>
        <time>2019-01-06T11:14:23Z</time>
      </trkpt>
      <trkpt lat="43.35086" lon="5.76593">
        <ele>439.94</ele>
        <time>2019-01-06T11:14:24Z</time>
      </trkpt>
      <trkpt lat="43.35086" lon="5.76591">
        <ele>439.94</ele>
        <time>2019-01-06T11:14:25Z</time>
      </trkpt>
      <trkpt lat="43.35085" lon="5.76588">
        <ele>439.94</ele>
        <time>2019-01-06T11:14:27Z</time>
      </trkpt>
      <trkpt lat="43.35085" lon="5.76586">
        <ele>439.46</ele>
        <time>2019-01-06T11:14:28Z</time>
      </trkpt>
      <trkpt lat="43.35084" lon="5.76585">
        <ele>439.46</ele>
        <time>2019-01-06T11:14:29Z</time>
      </trkpt>
      <trkpt lat="43.3508" lon="5.76574">
        <ele>438.98</ele>
        <time>2019-01-06T11:14:37Z</time>
      </trkpt>
      <trkpt lat="43.35081" lon="5.76572">
        <ele>438.5</ele>
        <time>2019-01-06T11:14:38Z</time>
      </trkpt>
      <trkpt lat="43.3508" lon="5.7657">
        <ele>438.5</ele>
        <time>2019-01-06T11:14:39Z</time>
      </trkpt>
      <trkpt lat="43.3508" lon="5.76555">
        <ele>436.58</ele>
        <time>2019-01-06T11:14:50Z</time>
      </trkpt>
      <trkpt lat="43.3508" lon="5.76547">
        <ele>436.58</ele>
        <time>2019-01-06T11:14:56Z</time>
      </trkpt>
      <trkpt lat="43.3508" lon="5.76546">
        <ele>436.1</ele>
        <time>2019-01-06T11:14:57Z</time>
      </trkpt>
      <trkpt lat="43.35075" lon="5.76525">
        <ele>435.61</ele>
        <time>2019-01-06T11:15:12Z</time>
      </trkpt>
      <trkpt lat="43.35061" lon="5.76507">
        <ele>435.61</ele>
        <time>2019-01-06T11:15:27Z</time>
      </trkpt>
      <trkpt lat="43.35059" lon="5.76492">
        <ele>434.65</ele>
        <time>2019-01-06T11:15:39Z</time>
      </trkpt>
      <trkpt lat="43.35057" lon="5.76485">
        <ele>434.65</ele>
        <time>2019-01-06T11:15:44Z</time>
      </trkpt>
      <trkpt lat="43.35054" lon="5.76479">
        <ele>434.17</ele>
        <time>2019-01-06T11:15:59Z</time>
      </trkpt>
      <trkpt lat="43.35051" lon="5.76477">
        <ele>433.69</ele>
        <time>2019-01-06T11:16:06Z</time>
      </trkpt>
      <trkpt lat="43.35044" lon="5.76471">
        <ele>433.21</ele>
        <time>2019-01-06T11:16:15Z</time>
      </trkpt>
      <trkpt lat="43.35043" lon="5.76471">
        <ele>433.21</ele>
        <time>2019-01-06T11:16:16Z</time>
      </trkpt>
      <trkpt lat="43.35037" lon="5.76469">
        <ele>432.25</ele>
        <time>2019-01-06T11:16:25Z</time>
      </trkpt>
      <trkpt lat="43.35035" lon="5.7647">
        <ele>432.25</ele>
        <time>2019-01-06T11:16:28Z</time>
      </trkpt>
      <trkpt lat="43.35034" lon="5.76471">
        <ele>431.77</ele>
        <time>2019-01-06T11:16:29Z</time>
      </trkpt>
      <trkpt lat="43.35032" lon="5.76472">
        <ele>431.77</ele>
        <time>2019-01-06T11:16:30Z</time>
      </trkpt>
      <trkpt lat="43.35031" lon="5.76473">
        <ele>431.77</ele>
        <time>2019-01-06T11:16:31Z</time>
      </trkpt>
      <trkpt lat="43.35027" lon="5.76474">
        <ele>430.81</ele>
        <time>2019-01-06T11:16:36Z</time>
      </trkpt>
      <trkpt lat="43.35014" lon="5.76477">
        <ele>430.33</ele>
        <time>2019-01-06T11:16:49Z</time>
      </trkpt>
      <trkpt lat="43.35008" lon="5.76476">
        <ele>429.85</ele>
        <time>2019-01-06T11:17:00Z</time>
      </trkpt>
      <trkpt lat="43.35006" lon="5.76475">
        <ele>429.85</ele>
        <time>2019-01-06T11:17:02Z</time>
      </trkpt>
      <trkpt lat="43.35004" lon="5.76474">
        <ele>429.85</ele>
        <time>2019-01-06T11:17:03Z</time>
      </trkpt>
      <trkpt lat="43.35003" lon="5.76473">
        <ele>429.37</ele>
        <time>2019-01-06T11:17:04Z</time>
      </trkpt>
      <trkpt lat="43.35001" lon="5.76472">
        <ele>429.37</ele>
        <time>2019-01-06T11:17:05Z</time>
      </trkpt>
      <trkpt lat="43.34998" lon="5.76471">
        <ele>429.85</ele>
        <time>2019-01-06T11:17:06Z</time>
      </trkpt>
      <trkpt lat="43.34997" lon="5.76471">
        <ele>429.85</ele>
        <time>2019-01-06T11:17:07Z</time>
      </trkpt>
      <trkpt lat="43.34995" lon="5.7647">
        <ele>429.37</ele>
        <time>2019-01-06T11:17:11Z</time>
      </trkpt>
      <trkpt lat="43.34994" lon="5.76469">
        <ele>428.89</ele>
        <time>2019-01-06T11:17:12Z</time>
      </trkpt>
      <trkpt lat="43.34992" lon="5.76468">
        <ele>428.89</ele>
        <time>2019-01-06T11:17:13Z</time>
      </trkpt>
      <trkpt lat="43.3499" lon="5.76467">
        <ele>428.4</ele>
        <time>2019-01-06T11:17:14Z</time>
      </trkpt>
      <trkpt lat="43.34989" lon="5.76465">
        <ele>428.4</ele>
        <time>2019-01-06T11:17:15Z</time>
      </trkpt>
      <trkpt lat="43.34987" lon="5.76464">
        <ele>428.4</ele>
        <time>2019-01-06T11:17:16Z</time>
      </trkpt>
      <trkpt lat="43.34986" lon="5.76464">
        <ele>428.4</ele>
        <time>2019-01-06T11:17:17Z</time>
      </trkpt>
      <trkpt lat="43.34977" lon="5.7646">
        <ele>427.44</ele>
        <time>2019-01-06T11:17:28Z</time>
      </trkpt>
      <trkpt lat="43.34973" lon="5.7646">
        <ele>427.44</ele>
        <time>2019-01-06T11:17:34Z</time>
      </trkpt>
      <trkpt lat="43.34972" lon="5.76459">
        <ele>427.44</ele>
        <time>2019-01-06T11:17:35Z</time>
      </trkpt>
      <trkpt lat="43.34971" lon="5.76458">
        <ele>427.44</ele>
        <time>2019-01-06T11:17:36Z</time>
      </trkpt>
      <trkpt lat="43.34967" lon="5.76461">
        <ele>427.44</ele>
        <time>2019-01-06T11:17:51Z</time>
      </trkpt>
      <trkpt lat="43.34965" lon="5.76463">
        <ele>428.89</ele>
        <time>2019-01-06T11:17:58Z</time>
      </trkpt>
      <trkpt lat="43.34964" lon="5.76463">
        <ele>428.89</ele>
        <time>2019-01-06T11:17:59Z</time>
      </trkpt>
      <trkpt lat="43.34964" lon="5.76455">
        <ele>427.44</ele>
        <time>2019-01-06T11:18:10Z</time>
      </trkpt>
      <trkpt lat="43.34964" lon="5.76448">
        <ele>433.21</ele>
        <time>2019-01-06T11:25:20Z</time>
      </trkpt>
      <trkpt lat="43.34953" lon="5.76451">
        <ele>435.13</ele>
        <time>2019-01-06T11:25:33Z</time>
      </trkpt>
      <trkpt lat="43.34952" lon="5.7645">
        <ele>433.21</ele>
        <time>2019-01-06T11:25:35Z</time>
      </trkpt>
      <trkpt lat="43.34951" lon="5.76449">
        <ele>435.61</ele>
        <time>2019-01-06T11:25:37Z</time>
      </trkpt>
      <trkpt lat="43.34938" lon="5.76444">
        <ele>435.61</ele>
        <time>2019-01-06T11:25:51Z</time>
      </trkpt>
      <trkpt lat="43.34928" lon="5.76438">
        <ele>434.17</ele>
        <time>2019-01-06T11:26:14Z</time>
      </trkpt>
      <trkpt lat="43.34911" lon="5.76437">
        <ele>433.69</ele>
        <time>2019-01-06T11:26:35Z</time>
      </trkpt>
      <trkpt lat="43.34908" lon="5.76436">
        <ele>433.69</ele>
        <time>2019-01-06T11:26:37Z</time>
      </trkpt>
      <trkpt lat="43.34895" lon="5.7643">
        <ele>433.21</ele>
        <time>2019-01-06T11:26:44Z</time>
      </trkpt>
      <trkpt lat="43.34894" lon="5.76429">
        <ele>433.21</ele>
        <time>2019-01-06T11:26:45Z</time>
      </trkpt>
      <trkpt lat="43.34889" lon="5.76425">
        <ele>433.21</ele>
        <time>2019-01-06T11:26:50Z</time>
      </trkpt>
      <trkpt lat="43.34873" lon="5.76425">
        <ele>433.21</ele>
        <time>2019-01-06T11:27:06Z</time>
      </trkpt>
      <trkpt lat="43.34869" lon="5.76423">
        <ele>434.17</ele>
        <time>2019-01-06T11:27:29Z</time>
      </trkpt>
      <trkpt lat="43.3487" lon="5.76418">
        <ele>433.21</ele>
        <time>2019-01-06T11:27:50Z</time>
      </trkpt>
      <trkpt lat="43.34865" lon="5.76424">
        <ele>435.13</ele>
        <time>2019-01-06T11:28:06Z</time>
      </trkpt>
      <trkpt lat="43.34861" lon="5.76424">
        <ele>435.61</ele>
        <time>2019-01-06T11:28:20Z</time>
      </trkpt>
      <trkpt lat="43.34847" lon="5.76419">
        <ele>440.9</ele>
        <time>2019-01-06T11:28:41Z</time>
      </trkpt>
      <trkpt lat="43.34846" lon="5.7642">
        <ele>440.9</ele>
        <time>2019-01-06T11:28:42Z</time>
      </trkpt>
      <trkpt lat="43.34839" lon="5.76423">
        <ele>439.46</ele>
        <time>2019-01-06T11:28:45Z</time>
      </trkpt>
      <trkpt lat="43.34836" lon="5.76425">
        <ele>440.42</ele>
        <time>2019-01-06T11:28:47Z</time>
      </trkpt>
      <trkpt lat="43.34806" lon="5.76432">
        <ele>442.82</ele>
        <time>2019-01-06T11:29:09Z</time>
      </trkpt>
      <trkpt lat="43.34777" lon="5.76428">
        <ele>442.82</ele>
        <time>2019-01-06T11:29:29Z</time>
      </trkpt>
      <trkpt lat="43.34766" lon="5.76426">
        <ele>442.34</ele>
        <time>2019-01-06T11:29:38Z</time>
      </trkpt>
      <trkpt lat="43.34743" lon="5.76408">
        <ele>443.79</ele>
        <time>2019-01-06T11:30:01Z</time>
      </trkpt>
      <trkpt lat="43.34738" lon="5.76393">
        <ele>445.23</ele>
        <time>2019-01-06T11:30:13Z</time>
      </trkpt>
      <trkpt lat="43.34737" lon="5.76392">
        <ele>443.79</ele>
        <time>2019-01-06T11:30:15Z</time>
      </trkpt>
      <trkpt lat="43.34732" lon="5.76386">
        <ele>445.23</ele>
        <time>2019-01-06T11:30:21Z</time>
      </trkpt>
      <trkpt lat="43.34722" lon="5.7638">
        <ele>446.67</ele>
        <time>2019-01-06T11:30:44Z</time>
      </trkpt>
      <trkpt lat="43.34721" lon="5.76378">
        <ele>443.79</ele>
        <time>2019-01-06T11:30:50Z</time>
      </trkpt>
      <trkpt lat="43.3472" lon="5.76376">
        <ele>448.59</ele>
        <time>2019-01-06T11:30:54Z</time>
      </trkpt>
      <trkpt lat="43.34719" lon="5.76376">
        <ele>448.59</ele>
        <time>2019-01-06T11:30:55Z</time>
      </trkpt>
      <trkpt lat="43.34718" lon="5.76376">
        <ele>444.75</ele>
        <time>2019-01-06T11:30:56Z</time>
      </trkpt>
      <trkpt lat="43.34717" lon="5.76376">
        <ele>448.11</ele>
        <time>2019-01-06T11:30:57Z</time>
      </trkpt>
      <trkpt lat="43.34713" lon="5.76375">
        <ele>446.19</ele>
        <time>2019-01-06T11:31:00Z</time>
      </trkpt>
      <trkpt lat="43.34705" lon="5.76371">
        <ele>446.19</ele>
        <time>2019-01-06T11:31:09Z</time>
      </trkpt>
      <trkpt lat="43.34704" lon="5.76371">
        <ele>448.11</ele>
        <time>2019-01-06T11:31:11Z</time>
      </trkpt>
      <trkpt lat="43.34696" lon="5.76364">
        <ele>448.59</ele>
        <time>2019-01-06T11:31:23Z</time>
      </trkpt>
      <trkpt lat="43.34693" lon="5.76351">
        <ele>448.59</ele>
        <time>2019-01-06T11:31:36Z</time>
      </trkpt>
      <trkpt lat="43.34692" lon="5.7635">
        <ele>450.52</ele>
        <time>2019-01-06T11:31:38Z</time>
      </trkpt>
      <trkpt lat="43.34672" lon="5.76321">
        <ele>451.48</ele>
        <time>2019-01-06T11:31:55Z</time>
      </trkpt>
      <trkpt lat="43.34671" lon="5.76319">
        <ele>451.48</ele>
        <time>2019-01-06T11:31:57Z</time>
      </trkpt>
      <trkpt lat="43.34666" lon="5.76313">
        <ele>451.48</ele>
        <time>2019-01-06T11:32:03Z</time>
      </trkpt>
      <trkpt lat="43.34657" lon="5.76293">
        <ele>452.44</ele>
        <time>2019-01-06T11:32:19Z</time>
      </trkpt>
      <trkpt lat="43.34645" lon="5.76281">
        <ele>451.48</ele>
        <time>2019-01-06T11:32:35Z</time>
      </trkpt>
      <trkpt lat="43.34627" lon="5.76277">
        <ele>454.36</ele>
        <time>2019-01-06T11:32:56Z</time>
      </trkpt>
      <trkpt lat="43.3462" lon="5.76278">
        <ele>454.36</ele>
        <time>2019-01-06T11:33:06Z</time>
      </trkpt>
      <trkpt lat="43.34614" lon="5.76282">
        <ele>450.52</ele>
        <time>2019-01-06T11:33:16Z</time>
      </trkpt>
      <trkpt lat="43.34613" lon="5.76283">
        <ele>450.52</ele>
        <time>2019-01-06T11:33:17Z</time>
      </trkpt>
      <trkpt lat="43.34613" lon="5.76284">
        <ele>456.76</ele>
        <time>2019-01-06T11:33:18Z</time>
      </trkpt>
      <trkpt lat="43.34612" lon="5.76284">
        <ele>455.32</ele>
        <time>2019-01-06T11:33:19Z</time>
      </trkpt>
      <trkpt lat="43.34612" lon="5.76286">
        <ele>453.88</ele>
        <time>2019-01-06T11:33:21Z</time>
      </trkpt>
      <trkpt lat="43.3461" lon="5.76287">
        <ele>450.03</ele>
        <time>2019-01-06T11:33:25Z</time>
      </trkpt>
      <trkpt lat="43.3461" lon="5.76287">
        <ele>453.4</ele>
        <time>2019-01-06T11:33:26Z</time>
      </trkpt>
      <trkpt lat="43.3461" lon="5.76288">
        <ele>453.4</ele>
        <time>2019-01-06T11:33:27Z</time>
      </trkpt>
      <trkpt lat="43.34606" lon="5.76281">
        <ele>463.01</ele>
        <time>2019-01-06T11:33:45Z</time>
      </trkpt>
      <trkpt lat="43.34616" lon="5.76257">
        <ele>457.24</ele>
        <time>2019-01-06T11:43:02Z</time>
      </trkpt>
      <trkpt lat="43.34622" lon="5.76259">
        <ele>456.76</ele>
        <time>2019-01-06T11:43:23Z</time>
      </trkpt>
      <trkpt lat="43.3463" lon="5.76256">
        <ele>457.72</ele>
        <time>2019-01-06T11:43:41Z</time>
      </trkpt>
      <trkpt lat="43.34633" lon="5.76256">
        <ele>456.28</ele>
        <time>2019-01-06T11:43:43Z</time>
      </trkpt>
      <trkpt lat="43.34639" lon="5.76257">
        <ele>457.72</ele>
        <time>2019-01-06T11:43:45Z</time>
      </trkpt>
      <trkpt lat="43.34655" lon="5.76262">
        <ele>456.28</ele>
        <time>2019-01-06T11:44:02Z</time>
      </trkpt>
      <trkpt lat="43.34664" lon="5.76268">
        <ele>455.8</ele>
        <time>2019-01-06T11:44:14Z</time>
      </trkpt>
      <trkpt lat="43.34676" lon="5.76277">
        <ele>454.84</ele>
        <time>2019-01-06T11:44:29Z</time>
      </trkpt>
      <trkpt lat="43.34683" lon="5.76286">
        <ele>453.88</ele>
        <time>2019-01-06T11:44:41Z</time>
      </trkpt>
      <trkpt lat="43.34687" lon="5.76294">
        <ele>452.92</ele>
        <time>2019-01-06T11:44:51Z</time>
      </trkpt>
      <trkpt lat="43.34688" lon="5.76297">
        <ele>452.44</ele>
        <time>2019-01-06T11:45:12Z</time>
      </trkpt>
      <trkpt lat="43.34692" lon="5.76302">
        <ele>453.4</ele>
        <time>2019-01-06T11:45:29Z</time>
      </trkpt>
      <trkpt lat="43.34699" lon="5.76311">
        <ele>453.88</ele>
        <time>2019-01-06T11:45:42Z</time>
      </trkpt>
      <trkpt lat="43.347" lon="5.76313">
        <ele>453.88</ele>
        <time>2019-01-06T11:45:44Z</time>
      </trkpt>
      <trkpt lat="43.34707" lon="5.76322">
        <ele>452.44</ele>
        <time>2019-01-06T11:45:52Z</time>
      </trkpt>
      <trkpt lat="43.3471" lon="5.76333">
        <ele>451.96</ele>
        <time>2019-01-06T11:46:02Z</time>
      </trkpt>
      <trkpt lat="43.34716" lon="5.76342">
        <ele>451.48</ele>
        <time>2019-01-06T11:46:18Z</time>
      </trkpt>
      <trkpt lat="43.34712" lon="5.76341">
        <ele>450.52</ele>
        <time>2019-01-06T11:46:33Z</time>
      </trkpt>
      <trkpt lat="43.34713" lon="5.7634">
        <ele>451.96</ele>
        <time>2019-01-06T11:46:35Z</time>
      </trkpt>
      <trkpt lat="43.34726" lon="5.76347">
        <ele>451</ele>
        <time>2019-01-06T11:46:50Z</time>
      </trkpt>
      <trkpt lat="43.34738" lon="5.7636">
        <ele>449.07</ele>
        <time>2019-01-06T11:47:06Z</time>
      </trkpt>
      <trkpt lat="43.34745" lon="5.76368">
        <ele>448.59</ele>
        <time>2019-01-06T11:47:16Z</time>
      </trkpt>
      <trkpt lat="43.34744" lon="5.76371">
        <ele>444.75</ele>
        <time>2019-01-06T11:47:19Z</time>
      </trkpt>
      <trkpt lat="43.34744" lon="5.76371">
        <ele>438.98</ele>
        <time>2019-01-06T11:47:20Z</time>
      </trkpt>
      <trkpt lat="43.34744" lon="5.76371">
        <ele>450.03</ele>
        <time>2019-01-06T11:47:21Z</time>
      </trkpt>
      <trkpt lat="43.34743" lon="5.76371">
        <ele>449.07</ele>
        <time>2019-01-06T11:47:22Z</time>
      </trkpt>
      <trkpt lat="43.34743" lon="5.76371">
        <ele>448.11</ele>
        <time>2019-01-06T11:47:24Z</time>
      </trkpt>
      <trkpt lat="43.3475" lon="5.76382">
        <ele>447.15</ele>
        <time>2019-01-06T11:47:46Z</time>
      </trkpt>
      <trkpt lat="43.34751" lon="5.76385">
        <ele>453.88</ele>
        <time>2019-01-06T11:47:48Z</time>
      </trkpt>
      <trkpt lat="43.34742" lon="5.76378">
        <ele>449.07</ele>
        <time>2019-01-06T11:47:49Z</time>
      </trkpt>
      <trkpt lat="43.34735" lon="5.76372">
        <ele>448.11</ele>
        <time>2019-01-06T11:47:59Z</time>
      </trkpt>
      <trkpt lat="43.34736" lon="5.76372">
        <ele>450.03</ele>
        <time>2019-01-06T11:48:02Z</time>
      </trkpt>
      <trkpt lat="43.34737" lon="5.76371">
        <ele>449.07</ele>
        <time>2019-01-06T11:48:04Z</time>
      </trkpt>
      <trkpt lat="43.3475" lon="5.76382">
        <ele>447.63</ele>
        <time>2019-01-06T11:48:18Z</time>
      </trkpt>
      <trkpt lat="43.34757" lon="5.76389">
        <ele>448.59</ele>
        <time>2019-01-06T11:48:29Z</time>
      </trkpt>
      <trkpt lat="43.34772" lon="5.76403">
        <ele>445.23</ele>
        <time>2019-01-06T11:48:44Z</time>
      </trkpt>
      <trkpt lat="43.34773" lon="5.76408">
        <ele>441.86</ele>
        <time>2019-01-06T11:48:51Z</time>
      </trkpt>
      <trkpt lat="43.34773" lon="5.76407">
        <ele>446.19</ele>
        <time>2019-01-06T11:48:52Z</time>
      </trkpt>
      <trkpt lat="43.34773" lon="5.76406">
        <ele>444.75</ele>
        <time>2019-01-06T11:48:53Z</time>
      </trkpt>
      <trkpt lat="43.34772" lon="5.76401">
        <ele>451.96</ele>
        <time>2019-01-06T11:49:01Z</time>
      </trkpt>
      <trkpt lat="43.34772" lon="5.76401">
        <ele>446.19</ele>
        <time>2019-01-06T11:49:02Z</time>
      </trkpt>
      <trkpt lat="43.3477" lon="5.76402">
        <ele>445.71</ele>
        <time>2019-01-06T11:49:04Z</time>
      </trkpt>
      <trkpt lat="43.34789" lon="5.764">
        <ele>445.71</ele>
        <time>2019-01-06T11:49:21Z</time>
      </trkpt>
      <trkpt lat="43.34806" lon="5.76406">
        <ele>443.79</ele>
        <time>2019-01-06T11:49:39Z</time>
      </trkpt>
      <trkpt lat="43.34808" lon="5.76406">
        <ele>445.23</ele>
        <time>2019-01-06T11:49:42Z</time>
      </trkpt>
      <trkpt lat="43.34814" lon="5.7641">
        <ele>441.86</ele>
        <time>2019-01-06T11:49:52Z</time>
      </trkpt>
      <trkpt lat="43.34816" lon="5.7641">
        <ele>438.98</ele>
        <time>2019-01-06T11:50:07Z</time>
      </trkpt>
      <trkpt lat="43.34819" lon="5.76405">
        <ele>441.38</ele>
        <time>2019-01-06T11:50:09Z</time>
      </trkpt>
      <trkpt lat="43.3482" lon="5.76406">
        <ele>444.27</ele>
        <time>2019-01-06T11:50:12Z</time>
      </trkpt>
      <trkpt lat="43.3482" lon="5.76405">
        <ele>442.34</ele>
        <time>2019-01-06T11:50:14Z</time>
      </trkpt>
      <trkpt lat="43.3482" lon="5.76407">
        <ele>440.42</ele>
        <time>2019-01-06T11:50:16Z</time>
      </trkpt>
      <trkpt lat="43.34821" lon="5.76404">
        <ele>440.9</ele>
        <time>2019-01-06T11:50:20Z</time>
      </trkpt>
      <trkpt lat="43.3482" lon="5.76404">
        <ele>446.19</ele>
        <time>2019-01-06T11:50:21Z</time>
      </trkpt>
      <trkpt lat="43.3482" lon="5.76403">
        <ele>441.86</ele>
        <time>2019-01-06T11:50:25Z</time>
      </trkpt>
      <trkpt lat="43.34821" lon="5.76402">
        <ele>445.23</ele>
        <time>2019-01-06T11:50:33Z</time>
      </trkpt>
      <trkpt lat="43.34822" lon="5.76403">
        <ele>444.75</ele>
        <time>2019-01-06T11:50:44Z</time>
      </trkpt>
      <trkpt lat="43.34828" lon="5.764">
        <ele>444.27</ele>
        <time>2019-01-06T11:50:51Z</time>
      </trkpt>
      <trkpt lat="43.34836" lon="5.764">
        <ele>444.75</ele>
        <time>2019-01-06T11:51:00Z</time>
      </trkpt>
      <trkpt lat="43.3486" lon="5.76395">
        <ele>445.23</ele>
        <time>2019-01-06T11:51:21Z</time>
      </trkpt>
      <trkpt lat="43.34867" lon="5.76397">
        <ele>444.27</ele>
        <time>2019-01-06T11:51:28Z</time>
      </trkpt>
      <trkpt lat="43.34871" lon="5.76397">
        <ele>445.23</ele>
        <time>2019-01-06T11:51:31Z</time>
      </trkpt>
      <trkpt lat="43.3489" lon="5.76397">
        <ele>446.19</ele>
        <time>2019-01-06T11:51:45Z</time>
      </trkpt>
      <trkpt lat="43.34901" lon="5.76399">
        <ele>446.19</ele>
        <time>2019-01-06T11:51:55Z</time>
      </trkpt>
      <trkpt lat="43.34912" lon="5.76398">
        <ele>446.67</ele>
        <time>2019-01-06T11:52:07Z</time>
      </trkpt>
      <trkpt lat="43.34926" lon="5.76396">
        <ele>448.11</ele>
        <time>2019-01-06T11:52:21Z</time>
      </trkpt>
      <trkpt lat="43.34938" lon="5.76392">
        <ele>449.55</ele>
        <time>2019-01-06T11:52:34Z</time>
      </trkpt>
      <trkpt lat="43.34939" lon="5.76391">
        <ele>449.55</ele>
        <time>2019-01-06T11:52:35Z</time>
      </trkpt>
      <trkpt lat="43.34948" lon="5.76389">
        <ele>448.59</ele>
        <time>2019-01-06T11:52:43Z</time>
      </trkpt>
      <trkpt lat="43.34953" lon="5.76387">
        <ele>448.11</ele>
        <time>2019-01-06T11:52:52Z</time>
      </trkpt>
      <trkpt lat="43.34959" lon="5.76383">
        <ele>447.63</ele>
        <time>2019-01-06T11:53:00Z</time>
      </trkpt>
      <trkpt lat="43.34962" lon="5.76378">
        <ele>447.15</ele>
        <time>2019-01-06T11:53:06Z</time>
      </trkpt>
      <trkpt lat="43.34975" lon="5.76365">
        <ele>448.59</ele>
        <time>2019-01-06T11:53:21Z</time>
      </trkpt>
      <trkpt lat="43.34979" lon="5.7636">
        <ele>448.59</ele>
        <time>2019-01-06T11:53:30Z</time>
      </trkpt>
      <trkpt lat="43.3498" lon="5.76357">
        <ele>447.63</ele>
        <time>2019-01-06T11:53:34Z</time>
      </trkpt>
      <trkpt lat="43.34988" lon="5.7635">
        <ele>445.23</ele>
        <time>2019-01-06T11:53:46Z</time>
      </trkpt>
      <trkpt lat="43.3499" lon="5.7635">
        <ele>445.23</ele>
        <time>2019-01-06T11:53:47Z</time>
      </trkpt>
      <trkpt lat="43.34997" lon="5.76345">
        <ele>444.75</ele>
        <time>2019-01-06T11:53:57Z</time>
      </trkpt>
      <trkpt lat="43.35005" lon="5.76338">
        <ele>442.34</ele>
        <time>2019-01-06T11:54:09Z</time>
      </trkpt>
      <trkpt lat="43.35007" lon="5.76328">
        <ele>440.42</ele>
        <time>2019-01-06T11:54:20Z</time>
      </trkpt>
      <trkpt lat="43.35009" lon="5.7632">
        <ele>439.46</ele>
        <time>2019-01-06T11:54:27Z</time>
      </trkpt>
      <trkpt lat="43.35009" lon="5.76316">
        <ele>438.98</ele>
        <time>2019-01-06T11:54:30Z</time>
      </trkpt>
      <trkpt lat="43.35014" lon="5.76304">
        <ele>436.58</ele>
        <time>2019-01-06T11:54:42Z</time>
      </trkpt>
      <trkpt lat="43.35012" lon="5.76301">
        <ele>436.58</ele>
        <time>2019-01-06T11:54:53Z</time>
      </trkpt>
      <trkpt lat="43.35012" lon="5.76298">
        <ele>436.58</ele>
        <time>2019-01-06T11:54:56Z</time>
      </trkpt>
      <trkpt lat="43.35012" lon="5.76285">
        <ele>435.61</ele>
        <time>2019-01-06T11:55:09Z</time>
      </trkpt>
      <trkpt lat="43.35011" lon="5.76266">
        <ele>434.17</ele>
        <time>2019-01-06T11:55:24Z</time>
      </trkpt>
      <trkpt lat="43.35013" lon="5.76251">
        <ele>431.77</ele>
        <time>2019-01-06T11:55:39Z</time>
      </trkpt>
      <trkpt lat="43.35014" lon="5.76245">
        <ele>431.29</ele>
        <time>2019-01-06T11:55:44Z</time>
      </trkpt>
      <trkpt lat="43.35019" lon="5.76232">
        <ele>429.85</ele>
        <time>2019-01-06T11:55:58Z</time>
      </trkpt>
      <trkpt lat="43.35023" lon="5.76231">
        <ele>428.4</ele>
        <time>2019-01-06T11:56:03Z</time>
      </trkpt>
      <trkpt lat="43.3503" lon="5.76234">
        <ele>426.96</ele>
        <time>2019-01-06T11:56:16Z</time>
      </trkpt>
      <trkpt lat="43.35031" lon="5.76236">
        <ele>426</ele>
        <time>2019-01-06T11:56:36Z</time>
      </trkpt>
      <trkpt lat="43.35031" lon="5.76234">
        <ele>426</ele>
        <time>2019-01-06T11:56:52Z</time>
      </trkpt>
      <trkpt lat="43.35036" lon="5.76235">
        <ele>425.04</ele>
        <time>2019-01-06T11:57:03Z</time>
      </trkpt>
      <trkpt lat="43.35037" lon="5.76234">
        <ele>425.52</ele>
        <time>2019-01-06T11:57:31Z</time>
      </trkpt>
      <trkpt lat="43.35038" lon="5.7623">
        <ele>425.52</ele>
        <time>2019-01-06T11:57:53Z</time>
      </trkpt>
      <trkpt lat="43.3504" lon="5.7623">
        <ele>427.44</ele>
        <time>2019-01-06T11:57:55Z</time>
      </trkpt>
      <trkpt lat="43.35045" lon="5.76226">
        <ele>427.44</ele>
        <time>2019-01-06T11:58:02Z</time>
      </trkpt>
      <trkpt lat="43.35049" lon="5.76211">
        <ele>428.4</ele>
        <time>2019-01-06T11:58:14Z</time>
      </trkpt>
      <trkpt lat="43.35049" lon="5.76211">
        <ele>428.4</ele>
        <time>2019-01-06T11:58:15Z</time>
      </trkpt>
      <trkpt lat="43.35051" lon="5.76203">
        <ele>428.4</ele>
        <time>2019-01-06T11:58:20Z</time>
      </trkpt>
      <trkpt lat="43.35055" lon="5.76188">
        <ele>428.89</ele>
        <time>2019-01-06T11:58:30Z</time>
      </trkpt>
      <trkpt lat="43.35057" lon="5.7618">
        <ele>428.89</ele>
        <time>2019-01-06T11:58:37Z</time>
      </trkpt>
      <trkpt lat="43.3506" lon="5.76168">
        <ele>427.44</ele>
        <time>2019-01-06T11:58:44Z</time>
      </trkpt>
      <trkpt lat="43.35064" lon="5.76153">
        <ele>426</ele>
        <time>2019-01-06T11:58:54Z</time>
      </trkpt>
      <trkpt lat="43.35071" lon="5.7614">
        <ele>424.56</ele>
        <time>2019-01-06T11:59:04Z</time>
      </trkpt>
      <trkpt lat="43.35074" lon="5.7613">
        <ele>422.64</ele>
        <time>2019-01-06T11:59:15Z</time>
      </trkpt>
      <trkpt lat="43.3508" lon="5.76126">
        <ele>416.39</ele>
        <time>2019-01-06T11:59:32Z</time>
      </trkpt>
      <trkpt lat="43.35081" lon="5.76126">
        <ele>419.75</ele>
        <time>2019-01-06T11:59:33Z</time>
      </trkpt>
      <trkpt lat="43.35082" lon="5.76125">
        <ele>423.12</ele>
        <time>2019-01-06T11:59:37Z</time>
      </trkpt>
      <trkpt lat="43.35083" lon="5.76123">
        <ele>419.27</ele>
        <time>2019-01-06T11:59:42Z</time>
      </trkpt>
      <trkpt lat="43.35084" lon="5.76117">
        <ele>421.68</ele>
        <time>2019-01-06T11:59:45Z</time>
      </trkpt>
      <trkpt lat="43.35084" lon="5.76113">
        <ele>421.68</ele>
        <time>2019-01-06T11:59:49Z</time>
      </trkpt>
      <trkpt lat="43.35091" lon="5.76094">
        <ele>420.23</ele>
        <time>2019-01-06T12:00:07Z</time>
      </trkpt>
      <trkpt lat="43.35094" lon="5.76074">
        <ele>420.23</ele>
        <time>2019-01-06T12:00:27Z</time>
      </trkpt>
      <trkpt lat="43.351" lon="5.76052">
        <ele>419.75</ele>
        <time>2019-01-06T12:00:44Z</time>
      </trkpt>
      <trkpt lat="43.35105" lon="5.76048">
        <ele>419.75</ele>
        <time>2019-01-06T12:00:56Z</time>
      </trkpt>
      <trkpt lat="43.35118" lon="5.76044">
        <ele>419.75</ele>
        <time>2019-01-06T12:01:13Z</time>
      </trkpt>
      <trkpt lat="43.35124" lon="5.7604">
        <ele>421.19</ele>
        <time>2019-01-06T12:01:29Z</time>
      </trkpt>
      <trkpt lat="43.3513" lon="5.76046">
        <ele>421.68</ele>
        <time>2019-01-06T12:01:44Z</time>
      </trkpt>
      <trkpt lat="43.3513" lon="5.76046">
        <ele>421.68</ele>
        <time>2019-01-06T12:02:06Z</time>
      </trkpt>
      <trkpt lat="43.35123" lon="5.76045">
        <ele>422.16</ele>
        <time>2019-01-06T12:02:17Z</time>
      </trkpt>
      <trkpt lat="43.35107" lon="5.76044">
        <ele>423.12</ele>
        <time>2019-01-06T12:02:31Z</time>
      </trkpt>
      <trkpt lat="43.35102" lon="5.76045">
        <ele>423.6</ele>
        <time>2019-01-06T12:02:44Z</time>
      </trkpt>
      <trkpt lat="43.35113" lon="5.76046">
        <ele>423.6</ele>
        <time>2019-01-06T12:03:00Z</time>
      </trkpt>
      <trkpt lat="43.35125" lon="5.76043">
        <ele>422.64</ele>
        <time>2019-01-06T12:03:16Z</time>
      </trkpt>
      <trkpt lat="43.35135" lon="5.76042">
        <ele>422.16</ele>
        <time>2019-01-06T12:03:27Z</time>
      </trkpt>
      <trkpt lat="43.35149" lon="5.76037">
        <ele>421.19</ele>
        <time>2019-01-06T12:03:40Z</time>
      </trkpt>
      <trkpt lat="43.3516" lon="5.76027">
        <ele>421.19</ele>
        <time>2019-01-06T12:03:55Z</time>
      </trkpt>
      <trkpt lat="43.35165" lon="5.76018">
        <ele>420.23</ele>
        <time>2019-01-06T12:04:08Z</time>
      </trkpt>
      <trkpt lat="43.35173" lon="5.76009">
        <ele>420.23</ele>
        <time>2019-01-06T12:04:18Z</time>
      </trkpt>
      <trkpt lat="43.35179" lon="5.76004">
        <ele>420.23</ele>
        <time>2019-01-06T12:04:29Z</time>
      </trkpt>
      <trkpt lat="43.35185" lon="5.75991">
        <ele>419.75</ele>
        <time>2019-01-06T12:04:42Z</time>
      </trkpt>
      <trkpt lat="43.35191" lon="5.75987">
        <ele>419.75</ele>
        <time>2019-01-06T12:04:50Z</time>
      </trkpt>
      <trkpt lat="43.352" lon="5.75979">
        <ele>419.27</ele>
        <time>2019-01-06T12:05:05Z</time>
      </trkpt>
      <trkpt lat="43.35204" lon="5.75969">
        <ele>418.79</ele>
        <time>2019-01-06T12:05:15Z</time>
      </trkpt>
      <trkpt lat="43.35213" lon="5.7596">
        <ele>419.27</ele>
        <time>2019-01-06T12:05:25Z</time>
      </trkpt>
      <trkpt lat="43.35217" lon="5.75956">
        <ele>419.27</ele>
        <time>2019-01-06T12:05:31Z</time>
      </trkpt>
      <trkpt lat="43.3522" lon="5.75954">
        <ele>418.79</ele>
        <time>2019-01-06T12:05:35Z</time>
      </trkpt>
      <trkpt lat="43.35227" lon="5.7595">
        <ele>418.31</ele>
        <time>2019-01-06T12:05:41Z</time>
      </trkpt>
      <trkpt lat="43.35237" lon="5.75945">
        <ele>418.31</ele>
        <time>2019-01-06T12:05:53Z</time>
      </trkpt>
      <trkpt lat="43.35242" lon="5.75941">
        <ele>418.31</ele>
        <time>2019-01-06T12:06:07Z</time>
      </trkpt>
      <trkpt lat="43.35251" lon="5.75937">
        <ele>418.31</ele>
        <time>2019-01-06T12:06:20Z</time>
      </trkpt>
      <trkpt lat="43.35257" lon="5.75933">
        <ele>418.31</ele>
        <time>2019-01-06T12:06:26Z</time>
      </trkpt>
      <trkpt lat="43.3526" lon="5.75931">
        <ele>419.75</ele>
        <time>2019-01-06T12:06:29Z</time>
      </trkpt>
      <trkpt lat="43.35267" lon="5.7593">
        <ele>419.75</ele>
        <time>2019-01-06T12:06:35Z</time>
      </trkpt>
      <trkpt lat="43.35277" lon="5.75927">
        <ele>420.71</ele>
        <time>2019-01-06T12:06:46Z</time>
      </trkpt>
      <trkpt lat="43.35278" lon="5.7592">
        <ele>421.19</ele>
        <time>2019-01-06T12:06:50Z</time>
      </trkpt>
      <trkpt lat="43.35279" lon="5.75918">
        <ele>422.64</ele>
        <time>2019-01-06T12:06:58Z</time>
      </trkpt>
      <trkpt lat="43.35277" lon="5.75921">
        <ele>422.64</ele>
        <time>2019-01-06T12:07:00Z</time>
      </trkpt>
      <trkpt lat="43.35278" lon="5.75923">
        <ele>421.19</ele>
        <time>2019-01-06T12:07:02Z</time>
      </trkpt>
      <trkpt lat="43.35279" lon="5.75923">
        <ele>421.19</ele>
        <time>2019-01-06T12:07:03Z</time>
      </trkpt>
      <trkpt lat="43.35282" lon="5.75925">
        <ele>420.71</ele>
        <time>2019-01-06T12:07:06Z</time>
      </trkpt>
      <trkpt lat="43.35284" lon="5.75925">
        <ele>420.71</ele>
        <time>2019-01-06T12:07:07Z</time>
      </trkpt>
      <trkpt lat="43.35286" lon="5.75924">
        <ele>420.71</ele>
        <time>2019-01-06T12:07:08Z</time>
      </trkpt>
      <trkpt lat="43.35289" lon="5.75925">
        <ele>420.23</ele>
        <time>2019-01-06T12:07:13Z</time>
      </trkpt>
      <trkpt lat="43.35291" lon="5.75925">
        <ele>420.23</ele>
        <time>2019-01-06T12:07:14Z</time>
      </trkpt>
      <trkpt lat="43.35296" lon="5.75925">
        <ele>419.27</ele>
        <time>2019-01-06T12:07:22Z</time>
      </trkpt>
      <trkpt lat="43.3531" lon="5.75926">
        <ele>418.31</ele>
        <time>2019-01-06T12:07:38Z</time>
      </trkpt>
      <trkpt lat="43.35318" lon="5.75928">
        <ele>416.39</ele>
        <time>2019-01-06T12:07:50Z</time>
      </trkpt>
      <trkpt lat="43.35319" lon="5.75929">
        <ele>416.39</ele>
        <time>2019-01-06T12:08:03Z</time>
      </trkpt>
      <trkpt lat="43.35318" lon="5.75931">
        <ele>416.39</ele>
        <time>2019-01-06T12:08:04Z</time>
      </trkpt>
      <trkpt lat="43.35315" lon="5.75942">
        <ele>416.39</ele>
        <time>2019-01-06T12:08:17Z</time>
      </trkpt>
      <trkpt lat="43.35315" lon="5.75944">
        <ele>416.39</ele>
        <time>2019-01-06T12:08:26Z</time>
      </trkpt>
      <trkpt lat="43.35316" lon="5.75949">
        <ele>416.39</ele>
        <time>2019-01-06T12:08:38Z</time>
      </trkpt>
      <trkpt lat="43.35316" lon="5.7595">
        <ele>416.39</ele>
        <time>2019-01-06T12:08:57Z</time>
      </trkpt>
      <trkpt lat="43.35319" lon="5.75951">
        <ele>416.39</ele>
        <time>2019-01-06T12:09:04Z</time>
      </trkpt>
      <trkpt lat="43.35325" lon="5.75951">
        <ele>416.39</ele>
        <time>2019-01-06T12:09:17Z</time>
      </trkpt>
      <trkpt lat="43.35328" lon="5.7595">
        <ele>416.39</ele>
        <time>2019-01-06T12:09:26Z</time>
      </trkpt>
      <trkpt lat="43.35338" lon="5.75947">
        <ele>417.35</ele>
        <time>2019-01-06T12:09:38Z</time>
      </trkpt>
      <trkpt lat="43.35341" lon="5.75947">
        <ele>417.35</ele>
        <time>2019-01-06T12:09:41Z</time>
      </trkpt>
      <trkpt lat="43.35345" lon="5.75946">
        <ele>417.35</ele>
        <time>2019-01-06T12:09:46Z</time>
      </trkpt>
      <trkpt lat="43.35347" lon="5.75945">
        <ele>417.35</ele>
        <time>2019-01-06T12:09:47Z</time>
      </trkpt>
      <trkpt lat="43.35348" lon="5.75945">
        <ele>417.35</ele>
        <time>2019-01-06T12:09:48Z</time>
      </trkpt>
      <trkpt lat="43.3535" lon="5.75945">
        <ele>417.35</ele>
        <time>2019-01-06T12:09:51Z</time>
      </trkpt>
      <trkpt lat="43.35352" lon="5.75946">
        <ele>417.35</ele>
        <time>2019-01-06T12:09:52Z</time>
      </trkpt>
      <trkpt lat="43.35359" lon="5.75947">
        <ele>417.35</ele>
        <time>2019-01-06T12:10:01Z</time>
      </trkpt>
      <trkpt lat="43.3536" lon="5.75947">
        <ele>417.35</ele>
        <time>2019-01-06T12:10:02Z</time>
      </trkpt>
      <trkpt lat="43.35363" lon="5.75943">
        <ele>417.35</ele>
        <time>2019-01-06T12:10:07Z</time>
      </trkpt>
      <trkpt lat="43.35364" lon="5.75942">
        <ele>417.35</ele>
        <time>2019-01-06T12:10:08Z</time>
      </trkpt>
      <trkpt lat="43.35366" lon="5.7594">
        <ele>417.35</ele>
        <time>2019-01-06T12:10:09Z</time>
      </trkpt>
      <trkpt lat="43.35367" lon="5.75937">
        <ele>417.35</ele>
        <time>2019-01-06T12:10:10Z</time>
      </trkpt>
      <trkpt lat="43.35367" lon="5.75935">
        <ele>417.35</ele>
        <time>2019-01-06T12:10:11Z</time>
      </trkpt>
      <trkpt lat="43.35376" lon="5.75933">
        <ele>415.91</ele>
        <time>2019-01-06T12:10:18Z</time>
      </trkpt>
      <trkpt lat="43.35378" lon="5.75932">
        <ele>415.43</ele>
        <time>2019-01-06T12:10:19Z</time>
      </trkpt>
      <trkpt lat="43.35379" lon="5.75931">
        <ele>415.43</ele>
        <time>2019-01-06T12:10:20Z</time>
      </trkpt>
      <trkpt lat="43.3538" lon="5.7593">
        <ele>415.43</ele>
        <time>2019-01-06T12:10:21Z</time>
      </trkpt>
      <trkpt lat="43.35383" lon="5.75927">
        <ele>415.43</ele>
        <time>2019-01-06T12:10:26Z</time>
      </trkpt>
      <trkpt lat="43.35385" lon="5.75926">
        <ele>415.43</ele>
        <time>2019-01-06T12:10:27Z</time>
      </trkpt>
      <trkpt lat="43.35387" lon="5.75925">
        <ele>414.95</ele>
        <time>2019-01-06T12:10:29Z</time>
      </trkpt>
      <trkpt lat="43.35392" lon="5.75922">
        <ele>414.95</ele>
        <time>2019-01-06T12:10:34Z</time>
      </trkpt>
      <trkpt lat="43.35393" lon="5.75921">
        <ele>414.95</ele>
        <time>2019-01-06T12:10:35Z</time>
      </trkpt>
      <trkpt lat="43.35399" lon="5.75911">
        <ele>413.5</ele>
        <time>2019-01-06T12:10:42Z</time>
      </trkpt>
      <trkpt lat="43.35401" lon="5.7591">
        <ele>413.98</ele>
        <time>2019-01-06T12:10:43Z</time>
      </trkpt>
      <trkpt lat="43.35402" lon="5.75908">
        <ele>413.98</ele>
        <time>2019-01-06T12:10:44Z</time>
      </trkpt>
      <trkpt lat="43.35404" lon="5.75906">
        <ele>413.5</ele>
        <time>2019-01-06T12:10:47Z</time>
      </trkpt>
      <trkpt lat="43.35405" lon="5.75905">
        <ele>413.5</ele>
        <time>2019-01-06T12:10:48Z</time>
      </trkpt>
      <trkpt lat="43.35406" lon="5.75904">
        <ele>413.02</ele>
        <time>2019-01-06T12:10:49Z</time>
      </trkpt>
      <trkpt lat="43.35408" lon="5.75902">
        <ele>413.02</ele>
        <time>2019-01-06T12:10:53Z</time>
      </trkpt>
      <trkpt lat="43.35409" lon="5.759">
        <ele>413.02</ele>
        <time>2019-01-06T12:10:54Z</time>
      </trkpt>
      <trkpt lat="43.3541" lon="5.75899">
        <ele>413.02</ele>
        <time>2019-01-06T12:10:55Z</time>
      </trkpt>
      <trkpt lat="43.3541" lon="5.75898">
        <ele>413.02</ele>
        <time>2019-01-06T12:10:56Z</time>
      </trkpt>
      <trkpt lat="43.35411" lon="5.75895">
        <ele>412.06</ele>
        <time>2019-01-06T12:11:00Z</time>
      </trkpt>
      <trkpt lat="43.35412" lon="5.75893">
        <ele>412.06</ele>
        <time>2019-01-06T12:11:01Z</time>
      </trkpt>
      <trkpt lat="43.35412" lon="5.75891">
        <ele>412.06</ele>
        <time>2019-01-06T12:11:02Z</time>
      </trkpt>
      <trkpt lat="43.35414" lon="5.75887">
        <ele>413.98</ele>
        <time>2019-01-06T12:11:15Z</time>
      </trkpt>
      <trkpt lat="43.35418" lon="5.7588">
        <ele>412.54</ele>
        <time>2019-01-06T12:11:20Z</time>
      </trkpt>
      <trkpt lat="43.35429" lon="5.75863">
        <ele>412.54</ele>
        <time>2019-01-06T12:11:36Z</time>
      </trkpt>
      <trkpt lat="43.35434" lon="5.75856">
        <ele>412.54</ele>
        <time>2019-01-06T12:11:41Z</time>
      </trkpt>
      <trkpt lat="43.35438" lon="5.75853">
        <ele>412.06</ele>
        <time>2019-01-06T12:11:46Z</time>
      </trkpt>
      <trkpt lat="43.35441" lon="5.75851">
        <ele>411.58</ele>
        <time>2019-01-06T12:11:48Z</time>
      </trkpt>
      <trkpt lat="43.35441" lon="5.7585">
        <ele>411.58</ele>
        <time>2019-01-06T12:11:49Z</time>
      </trkpt>
      <trkpt lat="43.3545" lon="5.75838">
        <ele>411.1</ele>
        <time>2019-01-06T12:12:01Z</time>
      </trkpt>
      <trkpt lat="43.35459" lon="5.75826">
        <ele>411.1</ele>
        <time>2019-01-06T12:12:16Z</time>
      </trkpt>
      <trkpt lat="43.35463" lon="5.75824">
        <ele>411.1</ele>
        <time>2019-01-06T12:12:28Z</time>
      </trkpt>
      <trkpt lat="43.35469" lon="5.75818">
        <ele>412.54</ele>
        <time>2019-01-06T12:12:44Z</time>
      </trkpt>
      <trkpt lat="43.3548" lon="5.75811">
        <ele>412.06</ele>
        <time>2019-01-06T12:12:56Z</time>
      </trkpt>
      <trkpt lat="43.35483" lon="5.75809">
        <ele>412.06</ele>
        <time>2019-01-06T12:13:00Z</time>
      </trkpt>
      <trkpt lat="43.35485" lon="5.75808">
        <ele>412.06</ele>
        <time>2019-01-06T12:13:01Z</time>
      </trkpt>
      <trkpt lat="43.3549" lon="5.75804">
        <ele>412.54</ele>
        <time>2019-01-06T12:13:06Z</time>
      </trkpt>
      <trkpt lat="43.35498" lon="5.75796">
        <ele>412.06</ele>
        <time>2019-01-06T12:13:16Z</time>
      </trkpt>
      <trkpt lat="43.35512" lon="5.75788">
        <ele>412.06</ele>
        <time>2019-01-06T12:13:30Z</time>
      </trkpt>
      <trkpt lat="43.35521" lon="5.75784">
        <ele>412.06</ele>
        <time>2019-01-06T12:13:40Z</time>
      </trkpt>
      <trkpt lat="43.3553" lon="5.75777">
        <ele>412.06</ele>
        <time>2019-01-06T12:13:50Z</time>
      </trkpt>
      <trkpt lat="43.35539" lon="5.75771">
        <ele>412.06</ele>
        <time>2019-01-06T12:14:01Z</time>
      </trkpt>
      <trkpt lat="43.35541" lon="5.7577">
        <ele>412.06</ele>
        <time>2019-01-06T12:14:02Z</time>
      </trkpt>
      <trkpt lat="43.35542" lon="5.75768">
        <ele>412.06</ele>
        <time>2019-01-06T12:14:03Z</time>
      </trkpt>
      <trkpt lat="43.35548" lon="5.75763">
        <ele>412.06</ele>
        <time>2019-01-06T12:14:08Z</time>
      </trkpt>
      <trkpt lat="43.35549" lon="5.75763">
        <ele>412.06</ele>
        <time>2019-01-06T12:14:09Z</time>
      </trkpt>
      <trkpt lat="43.35551" lon="5.75762">
        <ele>412.06</ele>
        <time>2019-01-06T12:14:13Z</time>
      </trkpt>
      <trkpt lat="43.35552" lon="5.75761">
        <ele>412.06</ele>
        <time>2019-01-06T12:14:14Z</time>
      </trkpt>
      <trkpt lat="43.35554" lon="5.75756">
        <ele>412.06</ele>
        <time>2019-01-06T12:14:18Z</time>
      </trkpt>
      <trkpt lat="43.35555" lon="5.75754">
        <ele>412.06</ele>
        <time>2019-01-06T12:14:19Z</time>
      </trkpt>
      <trkpt lat="43.3556" lon="5.75748">
        <ele>411.1</ele>
        <time>2019-01-06T12:14:28Z</time>
      </trkpt>
      <trkpt lat="43.35562" lon="5.75747">
        <ele>411.1</ele>
        <time>2019-01-06T12:14:30Z</time>
      </trkpt>
      <trkpt lat="43.35563" lon="5.75746">
        <ele>411.1</ele>
        <time>2019-01-06T12:14:31Z</time>
      </trkpt>
      <trkpt lat="43.35566" lon="5.75744">
        <ele>410.62</ele>
        <time>2019-01-06T12:14:36Z</time>
      </trkpt>
      <trkpt lat="43.35575" lon="5.75742">
        <ele>410.62</ele>
        <time>2019-01-06T12:14:46Z</time>
      </trkpt>
      <trkpt lat="43.35579" lon="5.75741">
        <ele>410.62</ele>
        <time>2019-01-06T12:14:49Z</time>
      </trkpt>
      <trkpt lat="43.3558" lon="5.7574">
        <ele>410.62</ele>
        <time>2019-01-06T12:14:50Z</time>
      </trkpt>
      <trkpt lat="43.35586" lon="5.75738">
        <ele>410.62</ele>
        <time>2019-01-06T12:14:55Z</time>
      </trkpt>
      <trkpt lat="43.35587" lon="5.75738">
        <ele>410.62</ele>
        <time>2019-01-06T12:14:56Z</time>
      </trkpt>
      <trkpt lat="43.35596" lon="5.75729">
        <ele>410.62</ele>
        <time>2019-01-06T12:15:07Z</time>
      </trkpt>
      <trkpt lat="43.35604" lon="5.75717">
        <ele>409.66</ele>
        <time>2019-01-06T12:15:21Z</time>
      </trkpt>
      <trkpt lat="43.35618" lon="5.75704">
        <ele>408.7</ele>
        <time>2019-01-06T12:15:36Z</time>
      </trkpt>
      <trkpt lat="43.35625" lon="5.75696">
        <ele>408.22</ele>
        <time>2019-01-06T12:15:46Z</time>
      </trkpt>
      <trkpt lat="43.3563" lon="5.75688">
        <ele>408.22</ele>
        <time>2019-01-06T12:15:56Z</time>
      </trkpt>
      <trkpt lat="43.35632" lon="5.75685">
        <ele>408.22</ele>
        <time>2019-01-06T12:15:58Z</time>
      </trkpt>
      <trkpt lat="43.35636" lon="5.75682">
        <ele>407.74</ele>
        <time>2019-01-06T12:16:04Z</time>
      </trkpt>
      <trkpt lat="43.35638" lon="5.75681">
        <ele>406.77</ele>
        <time>2019-01-06T12:16:05Z</time>
      </trkpt>
      <trkpt lat="43.3564" lon="5.75679">
        <ele>406.77</ele>
        <time>2019-01-06T12:16:06Z</time>
      </trkpt>
      <trkpt lat="43.3564" lon="5.75676">
        <ele>406.77</ele>
        <time>2019-01-06T12:16:13Z</time>
      </trkpt>
      <trkpt lat="43.35641" lon="5.75674">
        <ele>406.77</ele>
        <time>2019-01-06T12:16:14Z</time>
      </trkpt>
      <trkpt lat="43.35643" lon="5.75672">
        <ele>406.77</ele>
        <time>2019-01-06T12:16:15Z</time>
      </trkpt>
      <trkpt lat="43.35644" lon="5.75671">
        <ele>406.77</ele>
        <time>2019-01-06T12:16:16Z</time>
      </trkpt>
      <trkpt lat="43.35644" lon="5.7567">
        <ele>406.77</ele>
        <time>2019-01-06T12:16:17Z</time>
      </trkpt>
      <trkpt lat="43.35647" lon="5.75668">
        <ele>406.77</ele>
        <time>2019-01-06T12:16:21Z</time>
      </trkpt>
      <trkpt lat="43.35648" lon="5.75667">
        <ele>406.77</ele>
        <time>2019-01-06T12:16:22Z</time>
      </trkpt>
      <trkpt lat="43.3565" lon="5.75666">
        <ele>406.77</ele>
        <time>2019-01-06T12:16:23Z</time>
      </trkpt>
      <trkpt lat="43.35652" lon="5.75665">
        <ele>406.77</ele>
        <time>2019-01-06T12:16:24Z</time>
      </trkpt>
      <trkpt lat="43.35655" lon="5.75661">
        <ele>406.77</ele>
        <time>2019-01-06T12:16:29Z</time>
      </trkpt>
      <trkpt lat="43.35656" lon="5.75661">
        <ele>406.77</ele>
        <time>2019-01-06T12:16:30Z</time>
      </trkpt>
      <trkpt lat="43.35658" lon="5.7566">
        <ele>406.77</ele>
        <time>2019-01-06T12:16:31Z</time>
      </trkpt>
      <trkpt lat="43.35659" lon="5.75659">
        <ele>406.77</ele>
        <time>2019-01-06T12:16:32Z</time>
      </trkpt>
      <trkpt lat="43.35668" lon="5.75656">
        <ele>406.77</ele>
        <time>2019-01-06T12:16:42Z</time>
      </trkpt>
      <trkpt lat="43.35669" lon="5.75655">
        <ele>406.77</ele>
        <time>2019-01-06T12:16:43Z</time>
      </trkpt>
      <trkpt lat="43.35671" lon="5.75654">
        <ele>406.77</ele>
        <time>2019-01-06T12:16:44Z</time>
      </trkpt>
      <trkpt lat="43.35677" lon="5.75649">
        <ele>406.29</ele>
        <time>2019-01-06T12:16:50Z</time>
      </trkpt>
      <trkpt lat="43.3568" lon="5.75646">
        <ele>406.29</ele>
        <time>2019-01-06T12:16:55Z</time>
      </trkpt>
      <trkpt lat="43.35682" lon="5.75645">
        <ele>406.29</ele>
        <time>2019-01-06T12:16:56Z</time>
      </trkpt>
      <trkpt lat="43.35684" lon="5.75644">
        <ele>405.81</ele>
        <time>2019-01-06T12:16:57Z</time>
      </trkpt>
      <trkpt lat="43.35687" lon="5.75642">
        <ele>406.29</ele>
        <time>2019-01-06T12:17:01Z</time>
      </trkpt>
      <trkpt lat="43.35693" lon="5.75641">
        <ele>405.81</ele>
        <time>2019-01-06T12:17:08Z</time>
      </trkpt>
      <trkpt lat="43.35695" lon="5.7564">
        <ele>405.81</ele>
        <time>2019-01-06T12:17:09Z</time>
      </trkpt>
      <trkpt lat="43.35699" lon="5.75639">
        <ele>405.81</ele>
        <time>2019-01-06T12:17:17Z</time>
      </trkpt>
      <trkpt lat="43.35704" lon="5.75636">
        <ele>405.81</ele>
        <time>2019-01-06T12:17:27Z</time>
      </trkpt>
      <trkpt lat="43.35706" lon="5.75633">
        <ele>405.33</ele>
        <time>2019-01-06T12:17:31Z</time>
      </trkpt>
      <trkpt lat="43.35707" lon="5.75634">
        <ele>405.33</ele>
        <time>2019-01-06T12:17:44Z</time>
      </trkpt>
      <trkpt lat="43.35709" lon="5.75635">
        <ele>405.33</ele>
        <time>2019-01-06T12:18:04Z</time>
      </trkpt>
      <trkpt lat="43.35717" lon="5.75631">
        <ele>406.77</ele>
        <time>2019-01-06T12:18:21Z</time>
      </trkpt>
      <trkpt lat="43.35725" lon="5.75626">
        <ele>406.77</ele>
        <time>2019-01-06T12:18:32Z</time>
      </trkpt>
      <trkpt lat="43.35731" lon="5.75616">
        <ele>406.77</ele>
        <time>2019-01-06T12:18:42Z</time>
      </trkpt>
      <trkpt lat="43.35733" lon="5.75613">
        <ele>406.77</ele>
        <time>2019-01-06T12:18:49Z</time>
      </trkpt>
      <trkpt lat="43.35739" lon="5.75598">
        <ele>406.77</ele>
        <time>2019-01-06T12:18:59Z</time>
      </trkpt>
      <trkpt lat="43.35744" lon="5.75588">
        <ele>407.26</ele>
        <time>2019-01-06T12:19:09Z</time>
      </trkpt>
      <trkpt lat="43.35745" lon="5.75587">
        <ele>407.26</ele>
        <time>2019-01-06T12:19:10Z</time>
      </trkpt>
      <trkpt lat="43.35746" lon="5.75585">
        <ele>407.26</ele>
        <time>2019-01-06T12:19:11Z</time>
      </trkpt>
      <trkpt lat="43.35747" lon="5.75584">
        <ele>407.26</ele>
        <time>2019-01-06T12:19:12Z</time>
      </trkpt>
      <trkpt lat="43.35748" lon="5.75582">
        <ele>407.26</ele>
        <time>2019-01-06T12:19:13Z</time>
      </trkpt>
      <trkpt lat="43.35757" lon="5.75564">
        <ele>407.26</ele>
        <time>2019-01-06T12:19:29Z</time>
      </trkpt>
      <trkpt lat="43.35763" lon="5.75551">
        <ele>407.26</ele>
        <time>2019-01-06T12:19:40Z</time>
      </trkpt>
      <trkpt lat="43.35764" lon="5.75551">
        <ele>407.26</ele>
        <time>2019-01-06T12:19:41Z</time>
      </trkpt>
      <trkpt lat="43.35767" lon="5.75547">
        <ele>407.26</ele>
        <time>2019-01-06T12:19:45Z</time>
      </trkpt>
      <trkpt lat="43.35768" lon="5.75546">
        <ele>407.26</ele>
        <time>2019-01-06T12:19:46Z</time>
      </trkpt>
      <trkpt lat="43.35773" lon="5.75539">
        <ele>407.26</ele>
        <time>2019-01-06T12:19:58Z</time>
      </trkpt>
      <trkpt lat="43.35778" lon="5.75523">
        <ele>405.33</ele>
        <time>2019-01-06T12:20:11Z</time>
      </trkpt>
      <trkpt lat="43.35779" lon="5.75521">
        <ele>406.77</ele>
        <time>2019-01-06T12:20:13Z</time>
      </trkpt>
      <trkpt lat="43.35792" lon="5.755">
        <ele>405.81</ele>
        <time>2019-01-06T12:20:35Z</time>
      </trkpt>
      <trkpt lat="43.35796" lon="5.75494">
        <ele>406.29</ele>
        <time>2019-01-06T12:20:41Z</time>
      </trkpt>
      <trkpt lat="43.35802" lon="5.75484">
        <ele>405.33</ele>
        <time>2019-01-06T12:20:49Z</time>
      </trkpt>
      <trkpt lat="43.35807" lon="5.75469">
        <ele>405.33</ele>
        <time>2019-01-06T12:21:09Z</time>
      </trkpt>
      <trkpt lat="43.35815" lon="5.75456">
        <ele>406.29</ele>
        <time>2019-01-06T12:21:22Z</time>
      </trkpt>
      <trkpt lat="43.35817" lon="5.7545">
        <ele>404.85</ele>
        <time>2019-01-06T12:21:26Z</time>
      </trkpt>
      <trkpt lat="43.35821" lon="5.75444">
        <ele>404.37</ele>
        <time>2019-01-06T12:21:43Z</time>
      </trkpt>
      <trkpt lat="43.35822" lon="5.7544">
        <ele>405.81</ele>
        <time>2019-01-06T12:21:52Z</time>
      </trkpt>
      <trkpt lat="43.35821" lon="5.75437">
        <ele>404.37</ele>
        <time>2019-01-06T12:21:55Z</time>
      </trkpt>
      <trkpt lat="43.35828" lon="5.7543">
        <ele>405.81</ele>
        <time>2019-01-06T12:22:15Z</time>
      </trkpt>
      <trkpt lat="43.35831" lon="5.75426">
        <ele>405.33</ele>
        <time>2019-01-06T12:22:20Z</time>
      </trkpt>
      <trkpt lat="43.35834" lon="5.75423">
        <ele>405.33</ele>
        <time>2019-01-06T12:22:25Z</time>
      </trkpt>
      <trkpt lat="43.35835" lon="5.75422">
        <ele>405.81</ele>
        <time>2019-01-06T12:22:26Z</time>
      </trkpt>
      <trkpt lat="43.35837" lon="5.7542">
        <ele>405.81</ele>
        <time>2019-01-06T12:22:27Z</time>
      </trkpt>
      <trkpt lat="43.3584" lon="5.75416">
        <ele>405.33</ele>
        <time>2019-01-06T12:22:32Z</time>
      </trkpt>
      <trkpt lat="43.35847" lon="5.75405">
        <ele>405.33</ele>
        <time>2019-01-06T12:22:41Z</time>
      </trkpt>
      <trkpt lat="43.35847" lon="5.75401">
        <ele>404.37</ele>
        <time>2019-01-06T12:22:46Z</time>
      </trkpt>
      <trkpt lat="43.35849" lon="5.75399">
        <ele>404.37</ele>
        <time>2019-01-06T12:22:47Z</time>
      </trkpt>
      <trkpt lat="43.3585" lon="5.75396">
        <ele>404.37</ele>
        <time>2019-01-06T12:22:48Z</time>
      </trkpt>
      <trkpt lat="43.35851" lon="5.75394">
        <ele>404.37</ele>
        <time>2019-01-06T12:22:49Z</time>
      </trkpt>
      <trkpt lat="43.35858" lon="5.75383">
        <ele>404.37</ele>
        <time>2019-01-06T12:22:57Z</time>
      </trkpt>
      <trkpt lat="43.35859" lon="5.75383">
        <ele>404.37</ele>
        <time>2019-01-06T12:22:58Z</time>
      </trkpt>
      <trkpt lat="43.35861" lon="5.75382">
        <ele>404.37</ele>
        <time>2019-01-06T12:22:59Z</time>
      </trkpt>
      <trkpt lat="43.35863" lon="5.75381">
        <ele>404.37</ele>
        <time>2019-01-06T12:23:00Z</time>
      </trkpt>
      <trkpt lat="43.35864" lon="5.7538">
        <ele>404.37</ele>
        <time>2019-01-06T12:23:01Z</time>
      </trkpt>
      <trkpt lat="43.35866" lon="5.75377">
        <ele>404.37</ele>
        <time>2019-01-06T12:23:04Z</time>
      </trkpt>
      <trkpt lat="43.35868" lon="5.75375">
        <ele>403.89</ele>
        <time>2019-01-06T12:23:05Z</time>
      </trkpt>
      <trkpt lat="43.35871" lon="5.75374">
        <ele>403.89</ele>
        <time>2019-01-06T12:23:09Z</time>
      </trkpt>
      <trkpt lat="43.35872" lon="5.75375">
        <ele>403.89</ele>
        <time>2019-01-06T12:23:10Z</time>
      </trkpt>
      <trkpt lat="43.35874" lon="5.75375">
        <ele>403.89</ele>
        <time>2019-01-06T12:23:11Z</time>
      </trkpt>
      <trkpt lat="43.35877" lon="5.75375">
        <ele>404.37</ele>
        <time>2019-01-06T12:23:13Z</time>
      </trkpt>
      <trkpt lat="43.35877" lon="5.75371">
        <ele>403.89</ele>
        <time>2019-01-06T12:23:17Z</time>
      </trkpt>
      <trkpt lat="43.35878" lon="5.75367">
        <ele>405.33</ele>
        <time>2019-01-06T12:23:20Z</time>
      </trkpt>
      <trkpt lat="43.35879" lon="5.75366">
        <ele>405.33</ele>
        <time>2019-01-06T12:23:21Z</time>
      </trkpt>
      <trkpt lat="43.35887" lon="5.75353">
        <ele>405.81</ele>
        <time>2019-01-06T12:23:38Z</time>
      </trkpt>
      <trkpt lat="43.35888" lon="5.7535">
        <ele>405.81</ele>
        <time>2019-01-06T12:23:40Z</time>
      </trkpt>
      <trkpt lat="43.35895" lon="5.75341">
        <ele>405.81</ele>
        <time>2019-01-06T12:23:49Z</time>
      </trkpt>
      <trkpt lat="43.359" lon="5.75336">
        <ele>405.81</ele>
        <time>2019-01-06T12:23:54Z</time>
      </trkpt>
      <trkpt lat="43.35902" lon="5.75336">
        <ele>405.81</ele>
        <time>2019-01-06T12:23:55Z</time>
      </trkpt>
      <trkpt lat="43.35905" lon="5.75334">
        <ele>405.81</ele>
        <time>2019-01-06T12:23:58Z</time>
      </trkpt>
      <trkpt lat="43.35912" lon="5.75325">
        <ele>406.29</ele>
        <time>2019-01-06T12:24:06Z</time>
      </trkpt>
      <trkpt lat="43.35915" lon="5.75322">
        <ele>406.77</ele>
        <time>2019-01-06T12:24:10Z</time>
      </trkpt>
      <trkpt lat="43.35913" lon="5.75317">
        <ele>406.77</ele>
        <time>2019-01-06T12:24:16Z</time>
      </trkpt>
      <trkpt lat="43.35912" lon="5.75314">
        <ele>406.77</ele>
        <time>2019-01-06T12:24:17Z</time>
      </trkpt>
      <trkpt lat="43.35912" lon="5.75312">
        <ele>406.77</ele>
        <time>2019-01-06T12:24:18Z</time>
      </trkpt>
      <trkpt lat="43.35915" lon="5.75309">
        <ele>406.77</ele>
        <time>2019-01-06T12:24:21Z</time>
      </trkpt>
      <trkpt lat="43.35922" lon="5.75299">
        <ele>406.77</ele>
        <time>2019-01-06T12:24:39Z</time>
      </trkpt>
      <trkpt lat="43.35927" lon="5.75291">
        <ele>406.29</ele>
        <time>2019-01-06T12:25:02Z</time>
      </trkpt>
      <trkpt lat="43.35929" lon="5.75288">
        <ele>406.29</ele>
        <time>2019-01-06T12:25:18Z</time>
      </trkpt>
      <trkpt lat="43.35935" lon="5.75295">
        <ele>406.29</ele>
        <time>2019-01-06T12:25:31Z</time>
      </trkpt>
      <trkpt lat="43.35934" lon="5.75307">
        <ele>407.26</ele>
        <time>2019-01-06T12:25:42Z</time>
      </trkpt>
      <trkpt lat="43.35932" lon="5.75317">
        <ele>408.22</ele>
        <time>2019-01-06T12:25:47Z</time>
      </trkpt>
      <trkpt lat="43.35934" lon="5.75332">
        <ele>408.7</ele>
        <time>2019-01-06T12:26:03Z</time>
      </trkpt>
      <trkpt lat="43.35938" lon="5.75348">
        <ele>410.14</ele>
        <time>2019-01-06T12:26:14Z</time>
      </trkpt>
      <trkpt lat="43.35942" lon="5.75361">
        <ele>411.1</ele>
        <time>2019-01-06T12:26:23Z</time>
      </trkpt>
      <trkpt lat="43.3595" lon="5.75374">
        <ele>413.98</ele>
        <time>2019-01-06T12:26:37Z</time>
      </trkpt>
      <trkpt lat="43.35954" lon="5.7539">
        <ele>415.91</ele>
        <time>2019-01-06T12:26:51Z</time>
      </trkpt>
      <trkpt lat="43.35956" lon="5.75403">
        <ele>416.87</ele>
        <time>2019-01-06T12:27:06Z</time>
      </trkpt>
      <trkpt lat="43.35956" lon="5.75405">
        <ele>416.87</ele>
        <time>2019-01-06T12:27:07Z</time>
      </trkpt>
      <trkpt lat="43.35956" lon="5.75407">
        <ele>416.87</ele>
        <time>2019-01-06T12:27:08Z</time>
      </trkpt>
      <trkpt lat="43.35959" lon="5.75423">
        <ele>418.31</ele>
        <time>2019-01-06T12:27:23Z</time>
      </trkpt>
      <trkpt lat="43.35958" lon="5.75425">
        <ele>418.31</ele>
        <time>2019-01-06T12:27:25Z</time>
      </trkpt>
      <trkpt lat="43.35958" lon="5.75427">
        <ele>418.31</ele>
        <time>2019-01-06T12:27:26Z</time>
      </trkpt>
      <trkpt lat="43.35957" lon="5.75429">
        <ele>418.31</ele>
        <time>2019-01-06T12:27:27Z</time>
      </trkpt>
      <trkpt lat="43.35955" lon="5.75433">
        <ele>418.31</ele>
        <time>2019-01-06T12:27:35Z</time>
      </trkpt>
      <trkpt lat="43.35954" lon="5.75433">
        <ele>418.31</ele>
        <time>2019-01-06T12:27:42Z</time>
      </trkpt>
      <trkpt lat="43.35952" lon="5.75435">
        <ele>418.31</ele>
        <time>2019-01-06T12:27:43Z</time>
      </trkpt>
      <trkpt lat="43.35951" lon="5.75437">
        <ele>418.31</ele>
        <time>2019-01-06T12:27:44Z</time>
      </trkpt>
      <trkpt lat="43.3595" lon="5.75439">
        <ele>418.31</ele>
        <time>2019-01-06T12:27:45Z</time>
      </trkpt>
      <trkpt lat="43.3595" lon="5.75439">
        <ele>418.31</ele>
        <time>2019-01-06T12:27:46Z</time>
      </trkpt>
      <trkpt lat="43.35947" lon="5.75447">
        <ele>418.31</ele>
        <time>2019-01-06T12:27:53Z</time>
      </trkpt>
      <trkpt lat="43.35946" lon="5.75451">
        <ele>418.79</ele>
        <time>2019-01-06T12:28:07Z</time>
      </trkpt>
      <trkpt lat="43.35945" lon="5.75453">
        <ele>418.79</ele>
        <time>2019-01-06T12:28:11Z</time>
      </trkpt>
      <trkpt lat="43.35943" lon="5.75459">
        <ele>419.27</ele>
        <time>2019-01-06T12:28:22Z</time>
      </trkpt>
      <trkpt lat="43.35943" lon="5.7546">
        <ele>419.27</ele>
        <time>2019-01-06T12:28:27Z</time>
      </trkpt>
      <trkpt lat="43.35941" lon="5.75464">
        <ele>419.27</ele>
        <time>2019-01-06T12:28:32Z</time>
      </trkpt>
      <trkpt lat="43.3594" lon="5.75465">
        <ele>419.27</ele>
        <time>2019-01-06T12:28:33Z</time>
      </trkpt>
      <trkpt lat="43.35937" lon="5.75469">
        <ele>420.23</ele>
        <time>2019-01-06T12:28:43Z</time>
      </trkpt>
      <trkpt lat="43.35935" lon="5.75473">
        <ele>420.23</ele>
        <time>2019-01-06T12:28:47Z</time>
      </trkpt>
      <trkpt lat="43.35928" lon="5.75487">
        <ele>422.16</ele>
        <time>2019-01-06T12:28:58Z</time>
      </trkpt>
      <trkpt lat="43.35928" lon="5.75489">
        <ele>422.16</ele>
        <time>2019-01-06T12:29:00Z</time>
      </trkpt>
      <trkpt lat="43.35927" lon="5.75491">
        <ele>422.16</ele>
        <time>2019-01-06T12:29:02Z</time>
      </trkpt>
      <trkpt lat="43.35926" lon="5.75494">
        <ele>422.64</ele>
        <time>2019-01-06T12:29:03Z</time>
      </trkpt>
      <trkpt lat="43.35924" lon="5.75496">
        <ele>422.64</ele>
        <time>2019-01-06T12:29:06Z</time>
      </trkpt>
      <trkpt lat="43.35925" lon="5.75498">
        <ele>422.64</ele>
        <time>2019-01-06T12:29:07Z</time>
      </trkpt>
      <trkpt lat="43.35924" lon="5.75501">
        <ele>423.12</ele>
        <time>2019-01-06T12:29:10Z</time>
      </trkpt>
      <trkpt lat="43.35923" lon="5.75503">
        <ele>423.12</ele>
        <time>2019-01-06T12:29:11Z</time>
      </trkpt>
      <trkpt lat="43.35922" lon="5.75509">
        <ele>423.6</ele>
        <time>2019-01-06T12:29:17Z</time>
      </trkpt>
      <trkpt lat="43.35922" lon="5.75511">
        <ele>424.08</ele>
        <time>2019-01-06T12:29:18Z</time>
      </trkpt>
      <trkpt lat="43.35924" lon="5.75521">
        <ele>425.04</ele>
        <time>2019-01-06T12:29:29Z</time>
      </trkpt>
      <trkpt lat="43.35921" lon="5.75522">
        <ele>424.56</ele>
        <time>2019-01-06T12:29:46Z</time>
      </trkpt>
      <trkpt lat="43.35921" lon="5.75522">
        <ele>424.56</ele>
        <time>2019-01-06T12:29:47Z</time>
      </trkpt>
      <trkpt lat="43.35921" lon="5.75523">
        <ele>426.48</ele>
        <time>2019-01-06T12:29:49Z</time>
      </trkpt>
      <trkpt lat="43.35922" lon="5.7553">
        <ele>424.56</ele>
        <time>2019-01-06T12:29:57Z</time>
      </trkpt>
      <trkpt lat="43.35923" lon="5.75531">
        <ele>428.89</ele>
        <time>2019-01-06T12:29:58Z</time>
      </trkpt>
      <trkpt lat="43.35922" lon="5.75538">
        <ele>425.52</ele>
        <time>2019-01-06T12:30:08Z</time>
      </trkpt>
      <trkpt lat="43.35922" lon="5.7554">
        <ele>425.52</ele>
        <time>2019-01-06T12:30:14Z</time>
      </trkpt>
      <trkpt lat="43.35922" lon="5.7554">
        <ele>424.08</ele>
        <time>2019-01-06T12:30:16Z</time>
      </trkpt>
      <trkpt lat="43.35922" lon="5.75541">
        <ele>428.89</ele>
        <time>2019-01-06T12:30:18Z</time>
      </trkpt>
      <trkpt lat="43.35921" lon="5.75541">
        <ele>426.96</ele>
        <time>2019-01-06T12:30:19Z</time>
      </trkpt>
      <trkpt lat="43.35922" lon="5.75539">
        <ele>426.48</ele>
        <time>2019-01-06T12:30:41Z</time>
      </trkpt>
      <trkpt lat="43.35925" lon="5.75535">
        <ele>426</ele>
        <time>2019-01-06T12:30:43Z</time>
      </trkpt>
      <trkpt lat="43.35929" lon="5.75526">
        <ele>425.52</ele>
        <time>2019-01-06T12:31:10Z</time>
      </trkpt>
      <trkpt lat="43.3592" lon="5.75522">
        <ele>426</ele>
        <time>2019-01-06T12:31:26Z</time>
      </trkpt>
      <trkpt lat="43.35921" lon="5.75522">
        <ele>425.52</ele>
        <time>2019-01-06T12:31:41Z</time>
      </trkpt>
      <trkpt lat="43.35922" lon="5.75524">
        <ele>426.48</ele>
        <time>2019-01-06T12:32:00Z</time>
      </trkpt>
      <trkpt lat="43.3592" lon="5.75522">
        <ele>425.04</ele>
        <time>2019-01-06T12:32:13Z</time>
      </trkpt>
      <trkpt lat="43.3592" lon="5.75523">
        <ele>426.48</ele>
        <time>2019-01-06T12:32:15Z</time>
      </trkpt>
      <trkpt lat="43.35923" lon="5.75532">
        <ele>427.92</ele>
        <time>2019-01-06T12:32:25Z</time>
      </trkpt>
      <trkpt lat="43.35926" lon="5.75545">
        <ele>426.96</ele>
        <time>2019-01-06T12:32:41Z</time>
      </trkpt>
      <trkpt lat="43.35926" lon="5.75546">
        <ele>426.96</ele>
        <time>2019-01-06T12:32:42Z</time>
      </trkpt>
      <trkpt lat="43.35926" lon="5.75547">
        <ele>429.37</ele>
        <time>2019-01-06T12:32:43Z</time>
      </trkpt>
      <trkpt lat="43.35927" lon="5.75549">
        <ele>429.37</ele>
        <time>2019-01-06T12:32:44Z</time>
      </trkpt>
      <trkpt lat="43.35929" lon="5.75554">
        <ele>428.89</ele>
        <time>2019-01-06T12:32:59Z</time>
      </trkpt>
      <trkpt lat="43.35929" lon="5.75556">
        <ele>431.77</ele>
        <time>2019-01-06T12:33:02Z</time>
      </trkpt>
      <trkpt lat="43.3593" lon="5.75569">
        <ele>433.69</ele>
        <time>2019-01-06T12:33:11Z</time>
      </trkpt>
      <trkpt lat="43.35937" lon="5.7558">
        <ele>432.73</ele>
        <time>2019-01-06T12:33:23Z</time>
      </trkpt>
      <trkpt lat="43.35942" lon="5.75589">
        <ele>433.21</ele>
        <time>2019-01-06T12:33:31Z</time>
      </trkpt>
      <trkpt lat="43.35944" lon="5.75596">
        <ele>434.17</ele>
        <time>2019-01-06T12:33:40Z</time>
      </trkpt>
      <trkpt lat="43.35946" lon="5.756">
        <ele>435.61</ele>
        <time>2019-01-06T12:33:44Z</time>
      </trkpt>
      <trkpt lat="43.35947" lon="5.75604">
        <ele>436.1</ele>
        <time>2019-01-06T12:33:51Z</time>
      </trkpt>
      <trkpt lat="43.35948" lon="5.75609">
        <ele>437.06</ele>
        <time>2019-01-06T12:34:00Z</time>
      </trkpt>
      <trkpt lat="43.35948" lon="5.75612">
        <ele>436.1</ele>
        <time>2019-01-06T12:34:09Z</time>
      </trkpt>
      <trkpt lat="43.35949" lon="5.75619">
        <ele>437.54</ele>
        <time>2019-01-06T12:34:25Z</time>
      </trkpt>
      <trkpt lat="43.35959" lon="5.75628">
        <ele>438.5</ele>
        <time>2019-01-06T12:34:45Z</time>
      </trkpt>
      <trkpt lat="43.35968" lon="5.7563">
        <ele>438.98</ele>
        <time>2019-01-06T12:35:05Z</time>
      </trkpt>
      <trkpt lat="43.3596" lon="5.75635">
        <ele>439.94</ele>
        <time>2019-01-06T12:35:23Z</time>
      </trkpt>
      <trkpt lat="43.35959" lon="5.75645">
        <ele>442.34</ele>
        <time>2019-01-06T12:35:42Z</time>
      </trkpt>
      <trkpt lat="43.3596" lon="5.75652">
        <ele>442.82</ele>
        <time>2019-01-06T12:35:59Z</time>
      </trkpt>
      <trkpt lat="43.35962" lon="5.75655">
        <ele>444.27</ele>
        <time>2019-01-06T12:36:11Z</time>
      </trkpt>
      <trkpt lat="43.35964" lon="5.75662">
        <ele>442.82</ele>
        <time>2019-01-06T12:36:16Z</time>
      </trkpt>
      <trkpt lat="43.35965" lon="5.75664">
        <ele>444.75</ele>
        <time>2019-01-06T12:36:18Z</time>
      </trkpt>
      <trkpt lat="43.35971" lon="5.75682">
        <ele>446.67</ele>
        <time>2019-01-06T12:36:34Z</time>
      </trkpt>
      <trkpt lat="43.35974" lon="5.75693">
        <ele>447.15</ele>
        <time>2019-01-06T12:36:47Z</time>
      </trkpt>
      <trkpt lat="43.35975" lon="5.75706">
        <ele>448.59</ele>
        <time>2019-01-06T12:36:58Z</time>
      </trkpt>
      <trkpt lat="43.35974" lon="5.75716">
        <ele>451</ele>
        <time>2019-01-06T12:37:06Z</time>
      </trkpt>
      <trkpt lat="43.35974" lon="5.75718">
        <ele>451</ele>
        <time>2019-01-06T12:37:07Z</time>
      </trkpt>
      <trkpt lat="43.35975" lon="5.75723">
        <ele>451.48</ele>
        <time>2019-01-06T12:37:11Z</time>
      </trkpt>
      <trkpt lat="43.35979" lon="5.75727">
        <ele>451.96</ele>
        <time>2019-01-06T12:37:25Z</time>
      </trkpt>
      <trkpt lat="43.3598" lon="5.75728">
        <ele>451.96</ele>
        <time>2019-01-06T12:37:28Z</time>
      </trkpt>
      <trkpt lat="43.35981" lon="5.75729">
        <ele>451.96</ele>
        <time>2019-01-06T12:37:29Z</time>
      </trkpt>
      <trkpt lat="43.35984" lon="5.75738">
        <ele>453.88</ele>
        <time>2019-01-06T12:37:41Z</time>
      </trkpt>
      <trkpt lat="43.35987" lon="5.75745">
        <ele>454.36</ele>
        <time>2019-01-06T12:37:52Z</time>
      </trkpt>
      <trkpt lat="43.35987" lon="5.75747">
        <ele>453.88</ele>
        <time>2019-01-06T12:37:53Z</time>
      </trkpt>
      <trkpt lat="43.35987" lon="5.75749">
        <ele>454.36</ele>
        <time>2019-01-06T12:37:54Z</time>
      </trkpt>
      <trkpt lat="43.3599" lon="5.75762">
        <ele>456.28</ele>
        <time>2019-01-06T12:38:04Z</time>
      </trkpt>
      <trkpt lat="43.35991" lon="5.75766">
        <ele>456.76</ele>
        <time>2019-01-06T12:38:08Z</time>
      </trkpt>
      <trkpt lat="43.35993" lon="5.75771">
        <ele>458.21</ele>
        <time>2019-01-06T12:38:20Z</time>
      </trkpt>
      <trkpt lat="43.35993" lon="5.75779">
        <ele>459.17</ele>
        <time>2019-01-06T12:38:32Z</time>
      </trkpt>
      <trkpt lat="43.35993" lon="5.75783">
        <ele>459.17</ele>
        <time>2019-01-06T12:38:36Z</time>
      </trkpt>
      <trkpt lat="43.35995" lon="5.75786">
        <ele>459.17</ele>
        <time>2019-01-06T12:38:39Z</time>
      </trkpt>
      <trkpt lat="43.35996" lon="5.75788">
        <ele>459.17</ele>
        <time>2019-01-06T12:38:40Z</time>
      </trkpt>
      <trkpt lat="43.36003" lon="5.75799">
        <ele>460.61</ele>
        <time>2019-01-06T12:38:50Z</time>
      </trkpt>
      <trkpt lat="43.36011" lon="5.75808">
        <ele>463.01</ele>
        <time>2019-01-06T12:39:01Z</time>
      </trkpt>
      <trkpt lat="43.36012" lon="5.75809">
        <ele>463.49</ele>
        <time>2019-01-06T12:39:15Z</time>
      </trkpt>
      <trkpt lat="43.36015" lon="5.75821">
        <ele>464.93</ele>
        <time>2019-01-06T12:39:30Z</time>
      </trkpt>
      <trkpt lat="43.36015" lon="5.75831">
        <ele>466.86</ele>
        <time>2019-01-06T12:39:43Z</time>
      </trkpt>
      <trkpt lat="43.36015" lon="5.75837">
        <ele>466.86</ele>
        <time>2019-01-06T12:39:48Z</time>
      </trkpt>
      <trkpt lat="43.36017" lon="5.75854">
        <ele>470.22</ele>
        <time>2019-01-06T12:40:02Z</time>
      </trkpt>
      <trkpt lat="43.3602" lon="5.75874">
        <ele>473.59</ele>
        <time>2019-01-06T12:40:21Z</time>
      </trkpt>
      <trkpt lat="43.36019" lon="5.75878">
        <ele>473.59</ele>
        <time>2019-01-06T12:40:25Z</time>
      </trkpt>
      <trkpt lat="43.36021" lon="5.75891">
        <ele>475.51</ele>
        <time>2019-01-06T12:40:41Z</time>
      </trkpt>
      <trkpt lat="43.36022" lon="5.75894">
        <ele>476.47</ele>
        <time>2019-01-06T12:40:52Z</time>
      </trkpt>
      <trkpt lat="43.36024" lon="5.75907">
        <ele>477.91</ele>
        <time>2019-01-06T12:41:00Z</time>
      </trkpt>
      <trkpt lat="43.36029" lon="5.75918">
        <ele>479.84</ele>
        <time>2019-01-06T12:41:12Z</time>
      </trkpt>
      <trkpt lat="43.36032" lon="5.75924">
        <ele>480.8</ele>
        <time>2019-01-06T12:41:17Z</time>
      </trkpt>
      <trkpt lat="43.36034" lon="5.75927">
        <ele>480.32</ele>
        <time>2019-01-06T12:41:20Z</time>
      </trkpt>
      <trkpt lat="43.36039" lon="5.75935">
        <ele>481.76</ele>
        <time>2019-01-06T12:41:28Z</time>
      </trkpt>
      <trkpt lat="43.36041" lon="5.75949">
        <ele>483.2</ele>
        <time>2019-01-06T12:41:41Z</time>
      </trkpt>
      <trkpt lat="43.36043" lon="5.75958">
        <ele>484.16</ele>
        <time>2019-01-06T12:41:54Z</time>
      </trkpt>
      <trkpt lat="43.36044" lon="5.75959">
        <ele>484.16</ele>
        <time>2019-01-06T12:41:55Z</time>
      </trkpt>
      <trkpt lat="43.36045" lon="5.75962">
        <ele>484.64</ele>
        <time>2019-01-06T12:41:58Z</time>
      </trkpt>
      <trkpt lat="43.36046" lon="5.75965">
        <ele>485.12</ele>
        <time>2019-01-06T12:42:02Z</time>
      </trkpt>
      <trkpt lat="43.36052" lon="5.75967">
        <ele>485.6</ele>
        <time>2019-01-06T12:42:10Z</time>
      </trkpt>
      <trkpt lat="43.36058" lon="5.75968">
        <ele>486.08</ele>
        <time>2019-01-06T12:42:19Z</time>
      </trkpt>
      <trkpt lat="43.36062" lon="5.75969">
        <ele>487.05</ele>
        <time>2019-01-06T12:42:35Z</time>
      </trkpt>
      <trkpt lat="43.36056" lon="5.7597">
        <ele>487.05</ele>
        <time>2019-01-06T12:42:52Z</time>
      </trkpt>
      <trkpt lat="43.36054" lon="5.75968">
        <ele>486.56</ele>
        <time>2019-01-06T12:43:17Z</time>
      </trkpt>
      <trkpt lat="43.36056" lon="5.75971">
        <ele>487.05</ele>
        <time>2019-01-06T12:43:24Z</time>
      </trkpt>
      <trkpt lat="43.36058" lon="5.75982">
        <ele>488.97</ele>
        <time>2019-01-06T12:43:45Z</time>
      </trkpt>
      <trkpt lat="43.36059" lon="5.76003">
        <ele>490.41</ele>
        <time>2019-01-06T12:43:59Z</time>
      </trkpt>
      <trkpt lat="43.36061" lon="5.76005">
        <ele>490.41</ele>
        <time>2019-01-06T12:44:03Z</time>
      </trkpt>
      <trkpt lat="43.36064" lon="5.76006">
        <ele>490.89</ele>
        <time>2019-01-06T12:44:07Z</time>
      </trkpt>
      <trkpt lat="43.36069" lon="5.76011">
        <ele>491.85</ele>
        <time>2019-01-06T12:44:12Z</time>
      </trkpt>
      <trkpt lat="43.36078" lon="5.76014">
        <ele>492.81</ele>
        <time>2019-01-06T12:44:24Z</time>
      </trkpt>
      <trkpt lat="43.36082" lon="5.76015">
        <ele>492.81</ele>
        <time>2019-01-06T12:44:28Z</time>
      </trkpt>
      <trkpt lat="43.36088" lon="5.76015">
        <ele>494.26</ele>
        <time>2019-01-06T12:44:33Z</time>
      </trkpt>
      <trkpt lat="43.361" lon="5.76016">
        <ele>494.74</ele>
        <time>2019-01-06T12:44:45Z</time>
      </trkpt>
      <trkpt lat="43.36108" lon="5.76016">
        <ele>495.22</ele>
        <time>2019-01-06T12:44:56Z</time>
      </trkpt>
      <trkpt lat="43.36113" lon="5.76013">
        <ele>495.7</ele>
        <time>2019-01-06T12:45:02Z</time>
      </trkpt>
      <trkpt lat="43.36118" lon="5.76015">
        <ele>495.7</ele>
        <time>2019-01-06T12:45:06Z</time>
      </trkpt>
      <trkpt lat="43.36122" lon="5.76015">
        <ele>496.18</ele>
        <time>2019-01-06T12:45:11Z</time>
      </trkpt>
      <trkpt lat="43.36129" lon="5.76013">
        <ele>497.14</ele>
        <time>2019-01-06T12:45:20Z</time>
      </trkpt>
      <trkpt lat="43.36127" lon="5.75995">
        <ele>497.14</ele>
        <time>2019-01-06T12:45:39Z</time>
      </trkpt>
      <trkpt lat="43.36126" lon="5.75983">
        <ele>495.7</ele>
        <time>2019-01-06T12:46:01Z</time>
      </trkpt>
      <trkpt lat="43.36126" lon="5.75982">
        <ele>495.7</ele>
        <time>2019-01-06T12:46:20Z</time>
      </trkpt>
      <trkpt lat="43.36127" lon="5.75989">
        <ele>495.7</ele>
        <time>2019-01-06T12:46:41Z</time>
      </trkpt>
      <trkpt lat="43.36129" lon="5.75993">
        <ele>497.14</ele>
        <time>2019-01-06T12:46:45Z</time>
      </trkpt>
      <trkpt lat="43.36128" lon="5.76007">
        <ele>497.14</ele>
        <time>2019-01-06T12:47:13Z</time>
      </trkpt>
      <trkpt lat="43.36129" lon="5.76011">
        <ele>498.1</ele>
        <time>2019-01-06T12:47:39Z</time>
      </trkpt>
      <trkpt lat="43.36132" lon="5.76019">
        <ele>498.1</ele>
        <time>2019-01-06T12:47:58Z</time>
      </trkpt>
      <trkpt lat="43.36133" lon="5.76019">
        <ele>500.02</ele>
        <time>2019-01-06T12:48:01Z</time>
      </trkpt>
      <trkpt lat="43.36137" lon="5.76022">
        <ele>498.58</ele>
        <time>2019-01-06T12:48:04Z</time>
      </trkpt>
      <trkpt lat="43.36139" lon="5.76023">
        <ele>498.58</ele>
        <time>2019-01-06T12:48:05Z</time>
      </trkpt>
      <trkpt lat="43.36147" lon="5.76028">
        <ele>499.54</ele>
        <time>2019-01-06T12:48:13Z</time>
      </trkpt>
      <trkpt lat="43.36149" lon="5.76031">
        <ele>500.98</ele>
        <time>2019-01-06T12:48:18Z</time>
      </trkpt>
      <trkpt lat="43.3615" lon="5.76038">
        <ele>501.46</ele>
        <time>2019-01-06T12:48:24Z</time>
      </trkpt>
      <trkpt lat="43.36155" lon="5.76057">
        <ele>501.95</ele>
        <time>2019-01-06T12:48:37Z</time>
      </trkpt>
      <trkpt lat="43.36157" lon="5.76069">
        <ele>502.43</ele>
        <time>2019-01-06T12:48:48Z</time>
      </trkpt>
      <trkpt lat="43.36158" lon="5.76072">
        <ele>502.43</ele>
        <time>2019-01-06T12:48:50Z</time>
      </trkpt>
      <trkpt lat="43.36159" lon="5.76074">
        <ele>502.43</ele>
        <time>2019-01-06T12:48:51Z</time>
      </trkpt>
      <trkpt lat="43.36161" lon="5.7608">
        <ele>502.43</ele>
        <time>2019-01-06T12:48:56Z</time>
      </trkpt>
      <trkpt lat="43.36162" lon="5.76082">
        <ele>502.91</ele>
        <time>2019-01-06T12:48:57Z</time>
      </trkpt>
      <trkpt lat="43.36166" lon="5.76092">
        <ele>504.35</ele>
        <time>2019-01-06T12:49:03Z</time>
      </trkpt>
      <trkpt lat="43.36178" lon="5.76106">
        <ele>504.83</ele>
        <time>2019-01-06T12:49:23Z</time>
      </trkpt>
      <trkpt lat="43.36191" lon="5.76118">
        <ele>506.27</ele>
        <time>2019-01-06T12:49:45Z</time>
      </trkpt>
      <trkpt lat="43.36205" lon="5.76147">
        <ele>508.67</ele>
        <time>2019-01-06T12:50:04Z</time>
      </trkpt>
      <trkpt lat="43.36207" lon="5.76152">
        <ele>508.67</ele>
        <time>2019-01-06T12:50:05Z</time>
      </trkpt>
      <trkpt lat="43.3621" lon="5.76163">
        <ele>508.67</ele>
        <time>2019-01-06T12:50:11Z</time>
      </trkpt>
      <trkpt lat="43.36218" lon="5.76177">
        <ele>509.64</ele>
        <time>2019-01-06T12:50:25Z</time>
      </trkpt>
      <trkpt lat="43.3622" lon="5.76179">
        <ele>509.64</ele>
        <time>2019-01-06T12:50:36Z</time>
      </trkpt>
      <trkpt lat="43.36219" lon="5.76185">
        <ele>510.12</ele>
        <time>2019-01-06T12:50:52Z</time>
      </trkpt>
      <trkpt lat="43.3622" lon="5.76183">
        <ele>510.12</ele>
        <time>2019-01-06T12:51:05Z</time>
      </trkpt>
      <trkpt lat="43.36219" lon="5.7618">
        <ele>509.16</ele>
        <time>2019-01-06T12:51:13Z</time>
      </trkpt>
      <trkpt lat="43.36218" lon="5.76178">
        <ele>509.16</ele>
        <time>2019-01-06T12:51:14Z</time>
      </trkpt>
      <trkpt lat="43.36215" lon="5.76175">
        <ele>509.16</ele>
        <time>2019-01-06T12:51:23Z</time>
      </trkpt>
      <trkpt lat="43.36217" lon="5.76172">
        <ele>508.67</ele>
        <time>2019-01-06T12:51:35Z</time>
      </trkpt>
      <trkpt lat="43.3622" lon="5.76176">
        <ele>508.67</ele>
        <time>2019-01-06T12:51:39Z</time>
      </trkpt>
      <trkpt lat="43.36221" lon="5.76177">
        <ele>508.67</ele>
        <time>2019-01-06T12:51:40Z</time>
      </trkpt>
      <trkpt lat="43.36222" lon="5.76179">
        <ele>508.67</ele>
        <time>2019-01-06T12:51:41Z</time>
      </trkpt>
      <trkpt lat="43.36227" lon="5.76184">
        <ele>508.19</ele>
        <time>2019-01-06T12:51:49Z</time>
      </trkpt>
      <trkpt lat="43.36225" lon="5.76184">
        <ele>508.19</ele>
        <time>2019-01-06T12:52:01Z</time>
      </trkpt>
      <trkpt lat="43.36223" lon="5.76185">
        <ele>508.19</ele>
        <time>2019-01-06T12:52:02Z</time>
      </trkpt>
      <trkpt lat="43.3622" lon="5.7619">
        <ele>509.64</ele>
        <time>2019-01-06T12:52:09Z</time>
      </trkpt>
      <trkpt lat="43.3622" lon="5.7619">
        <ele>509.64</ele>
        <time>2019-01-06T12:52:10Z</time>
      </trkpt>
      <trkpt lat="43.36225" lon="5.76201">
        <ele>510.6</ele>
        <time>2019-01-06T12:52:24Z</time>
      </trkpt>
      <trkpt lat="43.36225" lon="5.76201">
        <ele>510.6</ele>
        <time>2019-01-06T12:52:40Z</time>
      </trkpt>
      <trkpt lat="43.36226" lon="5.76208">
        <ele>511.08</ele>
        <time>2019-01-06T12:52:55Z</time>
      </trkpt>
      <trkpt lat="43.36233" lon="5.76218">
        <ele>511.08</ele>
        <time>2019-01-06T12:53:15Z</time>
      </trkpt>
      <trkpt lat="43.3624" lon="5.76229">
        <ele>511.08</ele>
        <time>2019-01-06T12:53:27Z</time>
      </trkpt>
      <trkpt lat="43.36242" lon="5.76231">
        <ele>509.64</ele>
        <time>2019-01-06T12:53:29Z</time>
      </trkpt>
      <trkpt lat="43.36246" lon="5.76242">
        <ele>509.64</ele>
        <time>2019-01-06T12:53:40Z</time>
      </trkpt>
      <trkpt lat="43.36248" lon="5.76244">
        <ele>509.64</ele>
        <time>2019-01-06T12:53:43Z</time>
      </trkpt>
      <trkpt lat="43.36248" lon="5.76245">
        <ele>509.16</ele>
        <time>2019-01-06T12:53:44Z</time>
      </trkpt>
      <trkpt lat="43.3625" lon="5.76251">
        <ele>509.16</ele>
        <time>2019-01-06T12:53:50Z</time>
      </trkpt>
      <trkpt lat="43.36251" lon="5.76256">
        <ele>509.16</ele>
        <time>2019-01-06T12:54:02Z</time>
      </trkpt>
      <trkpt lat="43.36256" lon="5.76274">
        <ele>509.16</ele>
        <time>2019-01-06T12:54:19Z</time>
      </trkpt>
      <trkpt lat="43.36258" lon="5.76281">
        <ele>509.16</ele>
        <time>2019-01-06T12:54:25Z</time>
      </trkpt>
      <trkpt lat="43.3626" lon="5.76285">
        <ele>509.16</ele>
        <time>2019-01-06T12:54:28Z</time>
      </trkpt>
      <trkpt lat="43.3626" lon="5.76287">
        <ele>509.16</ele>
        <time>2019-01-06T12:54:29Z</time>
      </trkpt>
      <trkpt lat="43.36263" lon="5.76303">
        <ele>509.16</ele>
        <time>2019-01-06T12:54:41Z</time>
      </trkpt>
      <trkpt lat="43.36268" lon="5.76316">
        <ele>509.16</ele>
        <time>2019-01-06T12:54:51Z</time>
      </trkpt>
      <trkpt lat="43.36273" lon="5.76331">
        <ele>509.16</ele>
        <time>2019-01-06T12:55:00Z</time>
      </trkpt>
      <trkpt lat="43.3628" lon="5.76345">
        <ele>510.6</ele>
        <time>2019-01-06T12:55:10Z</time>
      </trkpt>
      <trkpt lat="43.36285" lon="5.76353">
        <ele>510.12</ele>
        <time>2019-01-06T12:55:19Z</time>
      </trkpt>
      <trkpt lat="43.36287" lon="5.76356">
        <ele>510.12</ele>
        <time>2019-01-06T12:55:22Z</time>
      </trkpt>
      <trkpt lat="43.36288" lon="5.76357">
        <ele>510.12</ele>
        <time>2019-01-06T12:55:23Z</time>
      </trkpt>
      <trkpt lat="43.36294" lon="5.7637">
        <ele>510.12</ele>
        <time>2019-01-06T12:55:34Z</time>
      </trkpt>
      <trkpt lat="43.36297" lon="5.76374">
        <ele>510.12</ele>
        <time>2019-01-06T12:55:38Z</time>
      </trkpt>
      <trkpt lat="43.36297" lon="5.76376">
        <ele>510.12</ele>
        <time>2019-01-06T12:55:39Z</time>
      </trkpt>
      <trkpt lat="43.36298" lon="5.76378">
        <ele>510.12</ele>
        <time>2019-01-06T12:55:40Z</time>
      </trkpt>
      <trkpt lat="43.36299" lon="5.7638">
        <ele>510.12</ele>
        <time>2019-01-06T12:55:41Z</time>
      </trkpt>
      <trkpt lat="43.36305" lon="5.76393">
        <ele>510.12</ele>
        <time>2019-01-06T12:55:50Z</time>
      </trkpt>
      <trkpt lat="43.36304" lon="5.76395">
        <ele>510.12</ele>
        <time>2019-01-06T12:55:53Z</time>
      </trkpt>
      <trkpt lat="43.36305" lon="5.76396">
        <ele>510.6</ele>
        <time>2019-01-06T12:55:54Z</time>
      </trkpt>
      <trkpt lat="43.36308" lon="5.76404">
        <ele>510.6</ele>
        <time>2019-01-06T12:55:59Z</time>
      </trkpt>
      <trkpt lat="43.36309" lon="5.76405">
        <ele>510.6</ele>
        <time>2019-01-06T12:56:00Z</time>
      </trkpt>
      <trkpt lat="43.36311" lon="5.76411">
        <ele>510.6</ele>
        <time>2019-01-06T12:56:05Z</time>
      </trkpt>
      <trkpt lat="43.36313" lon="5.76417">
        <ele>510.6</ele>
        <time>2019-01-06T12:56:10Z</time>
      </trkpt>
      <trkpt lat="43.36314" lon="5.76418">
        <ele>510.6</ele>
        <time>2019-01-06T12:56:11Z</time>
      </trkpt>
      <trkpt lat="43.36318" lon="5.76428">
        <ele>509.64</ele>
        <time>2019-01-06T12:56:18Z</time>
      </trkpt>
      <trkpt lat="43.36317" lon="5.76429">
        <ele>509.64</ele>
        <time>2019-01-06T12:56:21Z</time>
      </trkpt>
      <trkpt lat="43.36319" lon="5.76439">
        <ele>508.67</ele>
        <time>2019-01-06T12:56:31Z</time>
      </trkpt>
      <trkpt lat="43.36319" lon="5.76442">
        <ele>508.19</ele>
        <time>2019-01-06T12:56:32Z</time>
      </trkpt>
      <trkpt lat="43.36319" lon="5.76444">
        <ele>508.19</ele>
        <time>2019-01-06T12:56:33Z</time>
      </trkpt>
      <trkpt lat="43.36322" lon="5.76452">
        <ele>508.19</ele>
        <time>2019-01-06T12:56:40Z</time>
      </trkpt>
      <trkpt lat="43.36327" lon="5.76459">
        <ele>507.23</ele>
        <time>2019-01-06T12:56:48Z</time>
      </trkpt>
      <trkpt lat="43.36329" lon="5.7646">
        <ele>507.23</ele>
        <time>2019-01-06T12:56:49Z</time>
      </trkpt>
      <trkpt lat="43.36331" lon="5.76461">
        <ele>507.23</ele>
        <time>2019-01-06T12:56:50Z</time>
      </trkpt>
      <trkpt lat="43.36332" lon="5.76462">
        <ele>507.23</ele>
        <time>2019-01-06T12:56:51Z</time>
      </trkpt>
      <trkpt lat="43.36334" lon="5.76462">
        <ele>507.23</ele>
        <time>2019-01-06T12:56:52Z</time>
      </trkpt>
      <trkpt lat="43.36337" lon="5.76465">
        <ele>507.23</ele>
        <time>2019-01-06T12:56:57Z</time>
      </trkpt>
      <trkpt lat="43.36339" lon="5.76468">
        <ele>507.23</ele>
        <time>2019-01-06T12:56:59Z</time>
      </trkpt>
      <trkpt lat="43.36343" lon="5.7647">
        <ele>507.23</ele>
        <time>2019-01-06T12:57:04Z</time>
      </trkpt>
      <trkpt lat="43.36344" lon="5.76471">
        <ele>507.23</ele>
        <time>2019-01-06T12:57:05Z</time>
      </trkpt>
      <trkpt lat="43.36357" lon="5.76475">
        <ele>509.64</ele>
        <time>2019-01-06T12:57:16Z</time>
      </trkpt>
      <trkpt lat="43.3636" lon="5.76475">
        <ele>510.12</ele>
        <time>2019-01-06T12:57:20Z</time>
      </trkpt>
      <trkpt lat="43.36361" lon="5.76475">
        <ele>510.12</ele>
        <time>2019-01-06T12:57:21Z</time>
      </trkpt>
      <trkpt lat="43.36365" lon="5.76473">
        <ele>510.6</ele>
        <time>2019-01-06T12:57:25Z</time>
      </trkpt>
      <trkpt lat="43.36366" lon="5.76472">
        <ele>511.08</ele>
        <time>2019-01-06T12:57:26Z</time>
      </trkpt>
      <trkpt lat="43.36369" lon="5.76472">
        <ele>511.56</ele>
        <time>2019-01-06T12:57:29Z</time>
      </trkpt>
      <trkpt lat="43.36374" lon="5.76474">
        <ele>511.56</ele>
        <time>2019-01-06T12:57:34Z</time>
      </trkpt>
      <trkpt lat="43.36376" lon="5.76474">
        <ele>512.52</ele>
        <time>2019-01-06T12:57:36Z</time>
      </trkpt>
      <trkpt lat="43.36378" lon="5.76475">
        <ele>512.52</ele>
        <time>2019-01-06T12:57:38Z</time>
      </trkpt>
      <trkpt lat="43.36379" lon="5.76476">
        <ele>512.52</ele>
        <time>2019-01-06T12:57:39Z</time>
      </trkpt>
      <trkpt lat="43.36381" lon="5.76477">
        <ele>512.52</ele>
        <time>2019-01-06T12:57:40Z</time>
      </trkpt>
      <trkpt lat="43.36383" lon="5.76479">
        <ele>512.52</ele>
        <time>2019-01-06T12:57:43Z</time>
      </trkpt>
      <trkpt lat="43.36387" lon="5.76483">
        <ele>513</ele>
        <time>2019-01-06T12:57:53Z</time>
      </trkpt>
      <trkpt lat="43.36389" lon="5.76485">
        <ele>513</ele>
        <time>2019-01-06T12:58:00Z</time>
      </trkpt>
      <trkpt lat="43.36391" lon="5.76489">
        <ele>513</ele>
        <time>2019-01-06T12:58:04Z</time>
      </trkpt>
      <trkpt lat="43.36398" lon="5.76497">
        <ele>511.56</ele>
        <time>2019-01-06T12:58:15Z</time>
      </trkpt>
      <trkpt lat="43.36399" lon="5.76498">
        <ele>513</ele>
        <time>2019-01-06T12:58:17Z</time>
      </trkpt>
      <trkpt lat="43.36405" lon="5.76507">
        <ele>512.52</ele>
        <time>2019-01-06T12:58:30Z</time>
      </trkpt>
      <trkpt lat="43.36413" lon="5.76513">
        <ele>513.48</ele>
        <time>2019-01-06T12:58:37Z</time>
      </trkpt>
      <trkpt lat="43.36418" lon="5.76521">
        <ele>513.48</ele>
        <time>2019-01-06T12:58:43Z</time>
      </trkpt>
      <trkpt lat="43.36431" lon="5.7654">
        <ele>513.48</ele>
        <time>2019-01-06T12:58:57Z</time>
      </trkpt>
      <trkpt lat="43.36433" lon="5.76543">
        <ele>512.52</ele>
        <time>2019-01-06T12:59:02Z</time>
      </trkpt>
      <trkpt lat="43.36435" lon="5.76544">
        <ele>512.04</ele>
        <time>2019-01-06T12:59:03Z</time>
      </trkpt>
      <trkpt lat="43.36437" lon="5.76546">
        <ele>511.56</ele>
        <time>2019-01-06T12:59:07Z</time>
      </trkpt>
      <trkpt lat="43.3644" lon="5.76546">
        <ele>511.56</ele>
        <time>2019-01-06T12:59:08Z</time>
      </trkpt>
      <trkpt lat="43.36443" lon="5.76547">
        <ele>511.08</ele>
        <time>2019-01-06T12:59:12Z</time>
      </trkpt>
      <trkpt lat="43.36445" lon="5.76548">
        <ele>511.08</ele>
        <time>2019-01-06T12:59:13Z</time>
      </trkpt>
      <trkpt lat="43.36446" lon="5.76549">
        <ele>511.08</ele>
        <time>2019-01-06T12:59:14Z</time>
      </trkpt>
      <trkpt lat="43.36448" lon="5.76551">
        <ele>510.6</ele>
        <time>2019-01-06T12:59:18Z</time>
      </trkpt>
      <trkpt lat="43.36449" lon="5.76553">
        <ele>510.6</ele>
        <time>2019-01-06T12:59:19Z</time>
      </trkpt>
      <trkpt lat="43.36452" lon="5.76556">
        <ele>510.6</ele>
        <time>2019-01-06T12:59:22Z</time>
      </trkpt>
      <trkpt lat="43.36452" lon="5.76557">
        <ele>510.6</ele>
        <time>2019-01-06T12:59:23Z</time>
      </trkpt>
      <trkpt lat="43.36454" lon="5.76559">
        <ele>510.6</ele>
        <time>2019-01-06T12:59:25Z</time>
      </trkpt>
      <trkpt lat="43.3646" lon="5.76567">
        <ele>510.6</ele>
        <time>2019-01-06T12:59:33Z</time>
      </trkpt>
      <trkpt lat="43.36467" lon="5.76578">
        <ele>510.6</ele>
        <time>2019-01-06T12:59:45Z</time>
      </trkpt>
      <trkpt lat="43.36477" lon="5.76591">
        <ele>510.6</ele>
        <time>2019-01-06T13:00:03Z</time>
      </trkpt>
      <trkpt lat="43.36483" lon="5.76599">
        <ele>510.6</ele>
        <time>2019-01-06T13:00:11Z</time>
      </trkpt>
      <trkpt lat="43.36483" lon="5.766">
        <ele>510.6</ele>
        <time>2019-01-06T13:00:12Z</time>
      </trkpt>
      <trkpt lat="43.36493" lon="5.76612">
        <ele>511.56</ele>
        <time>2019-01-06T13:00:25Z</time>
      </trkpt>
      <trkpt lat="43.36495" lon="5.76615">
        <ele>511.56</ele>
        <time>2019-01-06T13:00:28Z</time>
      </trkpt>
      <trkpt lat="43.36496" lon="5.76616">
        <ele>511.56</ele>
        <time>2019-01-06T13:00:29Z</time>
      </trkpt>
      <trkpt lat="43.36497" lon="5.76618">
        <ele>511.56</ele>
        <time>2019-01-06T13:00:30Z</time>
      </trkpt>
      <trkpt lat="43.365" lon="5.76621">
        <ele>511.56</ele>
        <time>2019-01-06T13:00:35Z</time>
      </trkpt>
      <trkpt lat="43.36503" lon="5.76625">
        <ele>511.56</ele>
        <time>2019-01-06T13:00:40Z</time>
      </trkpt>
      <trkpt lat="43.36506" lon="5.76631">
        <ele>510.12</ele>
        <time>2019-01-06T13:00:45Z</time>
      </trkpt>
      <trkpt lat="43.36507" lon="5.76633">
        <ele>510.12</ele>
        <time>2019-01-06T13:00:46Z</time>
      </trkpt>
      <trkpt lat="43.36509" lon="5.76636">
        <ele>510.12</ele>
        <time>2019-01-06T13:00:50Z</time>
      </trkpt>
      <trkpt lat="43.36509" lon="5.76638">
        <ele>510.12</ele>
        <time>2019-01-06T13:00:51Z</time>
      </trkpt>
      <trkpt lat="43.36513" lon="5.76654">
        <ele>510.12</ele>
        <time>2019-01-06T13:01:04Z</time>
      </trkpt>
      <trkpt lat="43.36515" lon="5.76669">
        <ele>510.12</ele>
        <time>2019-01-06T13:01:18Z</time>
      </trkpt>
      <trkpt lat="43.36521" lon="5.76687">
        <ele>508.67</ele>
        <time>2019-01-06T13:01:33Z</time>
      </trkpt>
      <trkpt lat="43.36526" lon="5.76701">
        <ele>508.19</ele>
        <time>2019-01-06T13:01:44Z</time>
      </trkpt>
      <trkpt lat="43.3653" lon="5.76714">
        <ele>507.23</ele>
        <time>2019-01-06T13:01:57Z</time>
      </trkpt>
      <trkpt lat="43.36531" lon="5.76735">
        <ele>506.27</ele>
        <time>2019-01-06T13:02:12Z</time>
      </trkpt>
      <trkpt lat="43.36531" lon="5.76754">
        <ele>505.79</ele>
        <time>2019-01-06T13:02:26Z</time>
      </trkpt>
      <trkpt lat="43.36528" lon="5.76769">
        <ele>505.79</ele>
        <time>2019-01-06T13:02:39Z</time>
      </trkpt>
      <trkpt lat="43.36531" lon="5.76797">
        <ele>503.87</ele>
        <time>2019-01-06T13:03:01Z</time>
      </trkpt>
      <trkpt lat="43.36539" lon="5.7682">
        <ele>502.43</ele>
        <time>2019-01-06T13:03:19Z</time>
      </trkpt>
      <trkpt lat="43.36544" lon="5.76843">
        <ele>502.43</ele>
        <time>2019-01-06T13:03:37Z</time>
      </trkpt>
      <trkpt lat="43.36544" lon="5.76851">
        <ele>502.43</ele>
        <time>2019-01-06T13:03:40Z</time>
      </trkpt>
      <trkpt lat="43.36544" lon="5.76855">
        <ele>502.43</ele>
        <time>2019-01-06T13:03:41Z</time>
      </trkpt>
      <trkpt lat="43.36551" lon="5.76878">
        <ele>504.83</ele>
        <time>2019-01-06T13:03:57Z</time>
      </trkpt>
      <trkpt lat="43.36554" lon="5.76894">
        <ele>504.83</ele>
        <time>2019-01-06T13:04:08Z</time>
      </trkpt>
      <trkpt lat="43.36555" lon="5.76914">
        <ele>504.83</ele>
        <time>2019-01-06T13:04:24Z</time>
      </trkpt>
      <trkpt lat="43.36557" lon="5.76936">
        <ele>505.31</ele>
        <time>2019-01-06T13:04:38Z</time>
      </trkpt>
      <trkpt lat="43.36558" lon="5.7695">
        <ele>505.79</ele>
        <time>2019-01-06T13:04:50Z</time>
      </trkpt>
      <trkpt lat="43.36558" lon="5.76952">
        <ele>505.79</ele>
        <time>2019-01-06T13:04:51Z</time>
      </trkpt>
      <trkpt lat="43.36558" lon="5.76954">
        <ele>505.79</ele>
        <time>2019-01-06T13:04:52Z</time>
      </trkpt>
      <trkpt lat="43.36562" lon="5.76963">
        <ele>504.83</ele>
        <time>2019-01-06T13:04:58Z</time>
      </trkpt>
      <trkpt lat="43.36566" lon="5.76981">
        <ele>504.35</ele>
        <time>2019-01-06T13:05:11Z</time>
      </trkpt>
      <trkpt lat="43.36576" lon="5.77">
        <ele>504.35</ele>
        <time>2019-01-06T13:05:25Z</time>
      </trkpt>
      <trkpt lat="43.36577" lon="5.77001">
        <ele>504.35</ele>
        <time>2019-01-06T13:05:26Z</time>
      </trkpt>
      <trkpt lat="43.36577" lon="5.77003">
        <ele>504.35</ele>
        <time>2019-01-06T13:05:27Z</time>
      </trkpt>
      <trkpt lat="43.36585" lon="5.77019">
        <ele>503.39</ele>
        <time>2019-01-06T13:05:42Z</time>
      </trkpt>
      <trkpt lat="43.36586" lon="5.77021">
        <ele>502.91</ele>
        <time>2019-01-06T13:05:43Z</time>
      </trkpt>
      <trkpt lat="43.3659" lon="5.77028">
        <ele>503.39</ele>
        <time>2019-01-06T13:05:49Z</time>
      </trkpt>
      <trkpt lat="43.36591" lon="5.7703">
        <ele>502.91</ele>
        <time>2019-01-06T13:05:50Z</time>
      </trkpt>
      <trkpt lat="43.36593" lon="5.77032">
        <ele>502.91</ele>
        <time>2019-01-06T13:05:51Z</time>
      </trkpt>
      <trkpt lat="43.36595" lon="5.77034">
        <ele>502.91</ele>
        <time>2019-01-06T13:05:52Z</time>
      </trkpt>
      <trkpt lat="43.36596" lon="5.77036">
        <ele>502.91</ele>
        <time>2019-01-06T13:05:53Z</time>
      </trkpt>
      <trkpt lat="43.36604" lon="5.77044">
        <ele>502.91</ele>
        <time>2019-01-06T13:06:02Z</time>
      </trkpt>
      <trkpt lat="43.36605" lon="5.77053">
        <ele>502.43</ele>
        <time>2019-01-06T13:06:11Z</time>
      </trkpt>
      <trkpt lat="43.36605" lon="5.77063">
        <ele>500.5</ele>
        <time>2019-01-06T13:06:20Z</time>
      </trkpt>
      <trkpt lat="43.36608" lon="5.77075">
        <ele>499.54</ele>
        <time>2019-01-06T13:06:29Z</time>
      </trkpt>
      <trkpt lat="43.36608" lon="5.77077">
        <ele>499.06</ele>
        <time>2019-01-06T13:06:30Z</time>
      </trkpt>
      <trkpt lat="43.3661" lon="5.77086">
        <ele>498.58</ele>
        <time>2019-01-06T13:06:34Z</time>
      </trkpt>
      <trkpt lat="43.3661" lon="5.77092">
        <ele>498.58</ele>
        <time>2019-01-06T13:06:45Z</time>
      </trkpt>
      <trkpt lat="43.36614" lon="5.77097">
        <ele>497.62</ele>
        <time>2019-01-06T13:06:55Z</time>
      </trkpt>
      <trkpt lat="43.36615" lon="5.77099">
        <ele>497.62</ele>
        <time>2019-01-06T13:06:56Z</time>
      </trkpt>
      <trkpt lat="43.36616" lon="5.77101">
        <ele>497.14</ele>
        <time>2019-01-06T13:06:57Z</time>
      </trkpt>
      <trkpt lat="43.36618" lon="5.77103">
        <ele>497.14</ele>
        <time>2019-01-06T13:06:58Z</time>
      </trkpt>
      <trkpt lat="43.36619" lon="5.77105">
        <ele>497.14</ele>
        <time>2019-01-06T13:06:59Z</time>
      </trkpt>
      <trkpt lat="43.36627" lon="5.77117">
        <ele>495.7</ele>
        <time>2019-01-06T13:07:10Z</time>
      </trkpt>
      <trkpt lat="43.36633" lon="5.77131">
        <ele>494.74</ele>
        <time>2019-01-06T13:07:23Z</time>
      </trkpt>
      <trkpt lat="43.36631" lon="5.77133">
        <ele>493.77</ele>
        <time>2019-01-06T13:07:26Z</time>
      </trkpt>
      <trkpt lat="43.36625" lon="5.77146">
        <ele>490.41</ele>
        <time>2019-01-06T13:07:39Z</time>
      </trkpt>
      <trkpt lat="43.36631" lon="5.77159">
        <ele>488.97</ele>
        <time>2019-01-06T13:07:53Z</time>
      </trkpt>
      <trkpt lat="43.36632" lon="5.77165">
        <ele>488.49</ele>
        <time>2019-01-06T13:07:57Z</time>
      </trkpt>
      <trkpt lat="43.3663" lon="5.77183">
        <ele>487.05</ele>
        <time>2019-01-06T13:08:14Z</time>
      </trkpt>
      <trkpt lat="43.36626" lon="5.77186">
        <ele>486.56</ele>
        <time>2019-01-06T13:08:19Z</time>
      </trkpt>
      <trkpt lat="43.3662" lon="5.7719">
        <ele>486.08</ele>
        <time>2019-01-06T13:08:26Z</time>
      </trkpt>
      <trkpt lat="43.36612" lon="5.772">
        <ele>486.08</ele>
        <time>2019-01-06T13:08:39Z</time>
      </trkpt>
      <trkpt lat="43.36613" lon="5.77201">
        <ele>486.08</ele>
        <time>2019-01-06T13:08:46Z</time>
      </trkpt>
      <trkpt lat="43.36613" lon="5.77203">
        <ele>486.08</ele>
        <time>2019-01-06T13:08:47Z</time>
      </trkpt>
      <trkpt lat="43.36614" lon="5.77206">
        <ele>485.6</ele>
        <time>2019-01-06T13:08:52Z</time>
      </trkpt>
      <trkpt lat="43.36614" lon="5.77213">
        <ele>485.12</ele>
        <time>2019-01-06T13:08:57Z</time>
      </trkpt>
      <trkpt lat="43.36615" lon="5.77224">
        <ele>484.64</ele>
        <time>2019-01-06T13:09:06Z</time>
      </trkpt>
      <trkpt lat="43.36615" lon="5.77229">
        <ele>484.64</ele>
        <time>2019-01-06T13:09:09Z</time>
      </trkpt>
      <trkpt lat="43.36617" lon="5.77243">
        <ele>483.68</ele>
        <time>2019-01-06T13:09:21Z</time>
      </trkpt>
      <trkpt lat="43.3662" lon="5.77261">
        <ele>482.72</ele>
        <time>2019-01-06T13:09:40Z</time>
      </trkpt>
      <trkpt lat="43.36621" lon="5.7728">
        <ele>480.8</ele>
        <time>2019-01-06T13:09:57Z</time>
      </trkpt>
      <trkpt lat="43.3662" lon="5.77302">
        <ele>479.35</ele>
        <time>2019-01-06T13:10:14Z</time>
      </trkpt>
      <trkpt lat="43.36621" lon="5.77304">
        <ele>479.35</ele>
        <time>2019-01-06T13:10:15Z</time>
      </trkpt>
      <trkpt lat="43.3662" lon="5.77321">
        <ele>476.95</ele>
        <time>2019-01-06T13:10:31Z</time>
      </trkpt>
      <trkpt lat="43.36621" lon="5.77335">
        <ele>476.47</ele>
        <time>2019-01-06T13:10:39Z</time>
      </trkpt>
      <trkpt lat="43.36628" lon="5.7735">
        <ele>475.51</ele>
        <time>2019-01-06T13:10:51Z</time>
      </trkpt>
      <trkpt lat="43.36629" lon="5.77356">
        <ele>475.03</ele>
        <time>2019-01-06T13:10:54Z</time>
      </trkpt>
      <trkpt lat="43.3663" lon="5.77358">
        <ele>475.03</ele>
        <time>2019-01-06T13:10:55Z</time>
      </trkpt>
      <trkpt lat="43.3663" lon="5.7736">
        <ele>475.03</ele>
        <time>2019-01-06T13:10:56Z</time>
      </trkpt>
      <trkpt lat="43.36632" lon="5.77383">
        <ele>474.07</ele>
        <time>2019-01-06T13:11:12Z</time>
      </trkpt>
      <trkpt lat="43.36632" lon="5.77399">
        <ele>473.11</ele>
        <time>2019-01-06T13:11:27Z</time>
      </trkpt>
      <trkpt lat="43.36637" lon="5.77417">
        <ele>472.14</ele>
        <time>2019-01-06T13:11:42Z</time>
      </trkpt>
      <trkpt lat="43.36642" lon="5.77433">
        <ele>471.18</ele>
        <time>2019-01-06T13:11:58Z</time>
      </trkpt>
      <trkpt lat="43.36649" lon="5.77448">
        <ele>470.22</ele>
        <time>2019-01-06T13:12:17Z</time>
      </trkpt>
      <trkpt lat="43.36656" lon="5.77453">
        <ele>468.3</ele>
        <time>2019-01-06T13:12:30Z</time>
      </trkpt>
      <trkpt lat="43.36659" lon="5.77465">
        <ele>468.3</ele>
        <time>2019-01-06T13:12:47Z</time>
      </trkpt>
      <trkpt lat="43.36664" lon="5.77488">
        <ele>466.86</ele>
        <time>2019-01-06T13:13:02Z</time>
      </trkpt>
      <trkpt lat="43.36674" lon="5.77502">
        <ele>464.93</ele>
        <time>2019-01-06T13:13:16Z</time>
      </trkpt>
      <trkpt lat="43.36684" lon="5.77514">
        <ele>463.01</ele>
        <time>2019-01-06T13:13:32Z</time>
      </trkpt>
      <trkpt lat="43.36689" lon="5.77518">
        <ele>462.53</ele>
        <time>2019-01-06T13:13:49Z</time>
      </trkpt>
      <trkpt lat="43.36688" lon="5.77518">
        <ele>462.05</ele>
        <time>2019-01-06T13:13:56Z</time>
      </trkpt>
      <trkpt lat="43.36684" lon="5.7752">
        <ele>462.53</ele>
        <time>2019-01-06T13:14:06Z</time>
      </trkpt>
      <trkpt lat="43.36681" lon="5.77536">
        <ele>462.53</ele>
        <time>2019-01-06T13:14:22Z</time>
      </trkpt>
      <trkpt lat="43.36677" lon="5.77552">
        <ele>462.53</ele>
        <time>2019-01-06T13:14:33Z</time>
      </trkpt>
      <trkpt lat="43.36668" lon="5.77562">
        <ele>462.53</ele>
        <time>2019-01-06T13:14:45Z</time>
      </trkpt>
      <trkpt lat="43.36656" lon="5.77576">
        <ele>461.09</ele>
        <time>2019-01-06T13:14:58Z</time>
      </trkpt>
      <trkpt lat="43.36654" lon="5.7758">
        <ele>461.09</ele>
        <time>2019-01-06T13:15:01Z</time>
      </trkpt>
      <trkpt lat="43.36654" lon="5.77586">
        <ele>461.57</ele>
        <time>2019-01-06T13:15:06Z</time>
      </trkpt>
      <trkpt lat="43.36653" lon="5.77599">
        <ele>461.09</ele>
        <time>2019-01-06T13:15:16Z</time>
      </trkpt>
      <trkpt lat="43.36656" lon="5.77622">
        <ele>461.09</ele>
        <time>2019-01-06T13:15:30Z</time>
      </trkpt>
      <trkpt lat="43.36658" lon="5.77627">
        <ele>459.17</ele>
        <time>2019-01-06T13:15:36Z</time>
      </trkpt>
      <trkpt lat="43.36659" lon="5.77629">
        <ele>459.17</ele>
        <time>2019-01-06T13:15:37Z</time>
      </trkpt>
      <trkpt lat="43.36661" lon="5.7763">
        <ele>459.17</ele>
        <time>2019-01-06T13:15:38Z</time>
      </trkpt>
      <trkpt lat="43.36663" lon="5.77631">
        <ele>459.17</ele>
        <time>2019-01-06T13:15:39Z</time>
      </trkpt>
      <trkpt lat="43.36664" lon="5.77631">
        <ele>458.69</ele>
        <time>2019-01-06T13:15:40Z</time>
      </trkpt>
      <trkpt lat="43.36666" lon="5.77632">
        <ele>458.69</ele>
        <time>2019-01-06T13:15:41Z</time>
      </trkpt>
      <trkpt lat="43.36671" lon="5.77635">
        <ele>457.72</ele>
        <time>2019-01-06T13:15:45Z</time>
      </trkpt>
      <trkpt lat="43.36672" lon="5.77636">
        <ele>457.24</ele>
        <time>2019-01-06T13:15:46Z</time>
      </trkpt>
      <trkpt lat="43.3668" lon="5.77652">
        <ele>456.28</ele>
        <time>2019-01-06T13:15:58Z</time>
      </trkpt>
      <trkpt lat="43.3669" lon="5.77674">
        <ele>454.84</ele>
        <time>2019-01-06T13:16:14Z</time>
      </trkpt>
      <trkpt lat="43.36693" lon="5.77681">
        <ele>453.4</ele>
        <time>2019-01-06T13:16:24Z</time>
      </trkpt>
      <trkpt lat="43.367" lon="5.77693">
        <ele>451</ele>
        <time>2019-01-06T13:16:38Z</time>
      </trkpt>
      <trkpt lat="43.36715" lon="5.77703">
        <ele>447.63</ele>
        <time>2019-01-06T13:16:52Z</time>
      </trkpt>
      <trkpt lat="43.3672" lon="5.77705">
        <ele>447.15</ele>
        <time>2019-01-06T13:16:57Z</time>
      </trkpt>
      <trkpt lat="43.36728" lon="5.77708">
        <ele>445.23</ele>
        <time>2019-01-06T13:17:06Z</time>
      </trkpt>
      <trkpt lat="43.36732" lon="5.77709">
        <ele>444.27</ele>
        <time>2019-01-06T13:17:18Z</time>
      </trkpt>
      <trkpt lat="43.36734" lon="5.77714">
        <ele>443.31</ele>
        <time>2019-01-06T13:17:32Z</time>
      </trkpt>
      <trkpt lat="43.36736" lon="5.77728">
        <ele>441.86</ele>
        <time>2019-01-06T13:17:41Z</time>
      </trkpt>
      <trkpt lat="43.36738" lon="5.77738">
        <ele>441.86</ele>
        <time>2019-01-06T13:17:47Z</time>
      </trkpt>
      <trkpt lat="43.3674" lon="5.7774">
        <ele>440.42</ele>
        <time>2019-01-06T13:17:50Z</time>
      </trkpt>
      <trkpt lat="43.36744" lon="5.7774">
        <ele>439.94</ele>
        <time>2019-01-06T13:18:03Z</time>
      </trkpt>
      <trkpt lat="43.36741" lon="5.77749">
        <ele>440.9</ele>
        <time>2019-01-06T13:18:12Z</time>
      </trkpt>
      <trkpt lat="43.36741" lon="5.77752">
        <ele>440.9</ele>
        <time>2019-01-06T13:18:14Z</time>
      </trkpt>
      <trkpt lat="43.36741" lon="5.77766">
        <ele>439.46</ele>
        <time>2019-01-06T13:18:27Z</time>
      </trkpt>
      <trkpt lat="43.36743" lon="5.77781">
        <ele>438.98</ele>
        <time>2019-01-06T13:18:40Z</time>
      </trkpt>
      <trkpt lat="43.36744" lon="5.77798">
        <ele>437.54</ele>
        <time>2019-01-06T13:18:51Z</time>
      </trkpt>
      <trkpt lat="43.36744" lon="5.77801">
        <ele>438.02</ele>
        <time>2019-01-06T13:18:55Z</time>
      </trkpt>
      <trkpt lat="43.36748" lon="5.77811">
        <ele>437.06</ele>
        <time>2019-01-06T13:19:02Z</time>
      </trkpt>
      <trkpt lat="43.36756" lon="5.77825">
        <ele>435.13</ele>
        <time>2019-01-06T13:19:14Z</time>
      </trkpt>
      <trkpt lat="43.36759" lon="5.77829">
        <ele>434.65</ele>
        <time>2019-01-06T13:19:18Z</time>
      </trkpt>
      <trkpt lat="43.36764" lon="5.77839">
        <ele>434.17</ele>
        <time>2019-01-06T13:19:26Z</time>
      </trkpt>
      <trkpt lat="43.36769" lon="5.77853">
        <ele>433.69</ele>
        <time>2019-01-06T13:19:38Z</time>
      </trkpt>
      <trkpt lat="43.36772" lon="5.77866">
        <ele>432.25</ele>
        <time>2019-01-06T13:19:48Z</time>
      </trkpt>
      <trkpt lat="43.36773" lon="5.77873">
        <ele>431.77</ele>
        <time>2019-01-06T13:19:53Z</time>
      </trkpt>
      <trkpt lat="43.36782" lon="5.77887">
        <ele>429.37</ele>
        <time>2019-01-06T13:20:08Z</time>
      </trkpt>
      <trkpt lat="43.36791" lon="5.77902">
        <ele>426</ele>
        <time>2019-01-06T13:20:28Z</time>
      </trkpt>
      <trkpt lat="43.36797" lon="5.77927">
        <ele>423.6</ele>
        <time>2019-01-06T13:20:48Z</time>
      </trkpt>
      <trkpt lat="43.36796" lon="5.77939">
        <ele>420.71</ele>
        <time>2019-01-06T13:21:05Z</time>
      </trkpt>
      <trkpt lat="43.36801" lon="5.77951">
        <ele>417.83</ele>
        <time>2019-01-06T13:21:20Z</time>
      </trkpt>
      <trkpt lat="43.36818" lon="5.77961">
        <ele>414.95</ele>
        <time>2019-01-06T13:21:38Z</time>
      </trkpt>
      <trkpt lat="43.36826" lon="5.77979">
        <ele>413.5</ele>
        <time>2019-01-06T13:21:54Z</time>
      </trkpt>
      <trkpt lat="43.36837" lon="5.78">
        <ele>411.1</ele>
        <time>2019-01-06T13:22:13Z</time>
      </trkpt>
      <trkpt lat="43.36846" lon="5.78016">
        <ele>410.14</ele>
        <time>2019-01-06T13:22:28Z</time>
      </trkpt>
      <trkpt lat="43.36852" lon="5.78027">
        <ele>408.7</ele>
        <time>2019-01-06T13:22:44Z</time>
      </trkpt>
      <trkpt lat="43.36853" lon="5.78032">
        <ele>408.22</ele>
        <time>2019-01-06T13:22:47Z</time>
      </trkpt>
      <trkpt lat="43.36862" lon="5.7805">
        <ele>405.81</ele>
        <time>2019-01-06T13:23:07Z</time>
      </trkpt>
      <trkpt lat="43.36862" lon="5.78066">
        <ele>404.85</ele>
        <time>2019-01-06T13:23:20Z</time>
      </trkpt>
      <trkpt lat="43.36854" lon="5.78078">
        <ele>404.37</ele>
        <time>2019-01-06T13:23:29Z</time>
      </trkpt>
      <trkpt lat="43.36837" lon="5.78097">
        <ele>404.37</ele>
        <time>2019-01-06T13:23:49Z</time>
      </trkpt>
      <trkpt lat="43.36824" lon="5.78108">
        <ele>405.81</ele>
        <time>2019-01-06T13:24:05Z</time>
      </trkpt>
      <trkpt lat="43.36805" lon="5.7811">
        <ele>406.77</ele>
        <time>2019-01-06T13:24:24Z</time>
      </trkpt>
      <trkpt lat="43.36798" lon="5.7811">
        <ele>406.77</ele>
        <time>2019-01-06T13:24:32Z</time>
      </trkpt>
      <trkpt lat="43.36772" lon="5.78105">
        <ele>407.26</ele>
        <time>2019-01-06T13:24:55Z</time>
      </trkpt>
      <trkpt lat="43.36746" lon="5.78102">
        <ele>407.74</ele>
        <time>2019-01-06T13:25:16Z</time>
      </trkpt>
      <trkpt lat="43.36719" lon="5.78099">
        <ele>408.22</ele>
        <time>2019-01-06T13:25:36Z</time>
      </trkpt>
      <trkpt lat="43.36702" lon="5.78093">
        <ele>408.7</ele>
        <time>2019-01-06T13:25:54Z</time>
      </trkpt>
      <trkpt lat="43.36679" lon="5.78079">
        <ele>410.62</ele>
        <time>2019-01-06T13:26:15Z</time>
      </trkpt>
      <trkpt lat="43.36662" lon="5.78071">
        <ele>411.58</ele>
        <time>2019-01-06T13:26:36Z</time>
      </trkpt>
      <trkpt lat="43.36646" lon="5.78075">
        <ele>413.5</ele>
        <time>2019-01-06T13:26:56Z</time>
      </trkpt>
      <trkpt lat="43.36623" lon="5.78073">
        <ele>413.98</ele>
        <time>2019-01-06T13:27:16Z</time>
      </trkpt>
      <trkpt lat="43.36601" lon="5.78072">
        <ele>414.47</ele>
        <time>2019-01-06T13:27:35Z</time>
      </trkpt>
      <trkpt lat="43.36595" lon="5.78072">
        <ele>414.95</ele>
        <time>2019-01-06T13:27:48Z</time>
      </trkpt>
      <trkpt lat="43.36589" lon="5.78073">
        <ele>414.95</ele>
        <time>2019-01-06T13:27:53Z</time>
      </trkpt>
      <trkpt lat="43.36579" lon="5.78065">
        <ele>414.95</ele>
        <time>2019-01-06T13:28:03Z</time>
      </trkpt>
      <trkpt lat="43.36574" lon="5.78053">
        <ele>415.43</ele>
        <time>2019-01-06T13:28:05Z</time>
      </trkpt>
      <trkpt lat="43.36553" lon="5.78038">
        <ele>415.91</ele>
        <time>2019-01-06T13:28:24Z</time>
      </trkpt>
      <trkpt lat="43.3655" lon="5.78036">
        <ele>416.39</ele>
        <time>2019-01-06T13:28:27Z</time>
      </trkpt>
      <trkpt lat="43.36542" lon="5.7803">
        <ele>416.39</ele>
        <time>2019-01-06T13:28:37Z</time>
      </trkpt>
      <trkpt lat="43.36537" lon="5.78026">
        <ele>417.35</ele>
        <time>2019-01-06T13:28:44Z</time>
      </trkpt>
      <trkpt lat="43.36532" lon="5.7802">
        <ele>417.83</ele>
        <time>2019-01-06T13:28:51Z</time>
      </trkpt>
      <trkpt lat="43.3653" lon="5.78017">
        <ele>417.83</ele>
        <time>2019-01-06T13:28:54Z</time>
      </trkpt>
      <trkpt lat="43.36528" lon="5.78015">
        <ele>417.83</ele>
        <time>2019-01-06T13:28:57Z</time>
      </trkpt>
      <trkpt lat="43.36522" lon="5.78009">
        <ele>418.79</ele>
        <time>2019-01-06T13:29:05Z</time>
      </trkpt>
      <trkpt lat="43.3652" lon="5.78007">
        <ele>419.27</ele>
        <time>2019-01-06T13:29:08Z</time>
      </trkpt>
      <trkpt lat="43.3651" lon="5.77996">
        <ele>421.19</ele>
        <time>2019-01-06T13:29:30Z</time>
      </trkpt>
      <trkpt lat="43.36501" lon="5.77993">
        <ele>424.56</ele>
        <time>2019-01-06T13:29:46Z</time>
      </trkpt>
      <trkpt lat="43.36499" lon="5.77992">
        <ele>424.56</ele>
        <time>2019-01-06T13:29:48Z</time>
      </trkpt>
      <trkpt lat="43.36485" lon="5.77974">
        <ele>426</ele>
        <time>2019-01-06T13:30:09Z</time>
      </trkpt>
      <trkpt lat="43.36477" lon="5.77955">
        <ele>428.4</ele>
        <time>2019-01-06T13:30:28Z</time>
      </trkpt>
      <trkpt lat="43.36467" lon="5.77954">
        <ele>429.37</ele>
        <time>2019-01-06T13:30:46Z</time>
      </trkpt>
      <trkpt lat="43.36455" lon="5.77955">
        <ele>430.81</ele>
        <time>2019-01-06T13:31:03Z</time>
      </trkpt>
      <trkpt lat="43.36443" lon="5.77941">
        <ele>434.17</ele>
        <time>2019-01-06T13:31:22Z</time>
      </trkpt>
      <trkpt lat="43.36436" lon="5.77934">
        <ele>434.17</ele>
        <time>2019-01-06T13:31:31Z</time>
      </trkpt>
      <trkpt lat="43.36415" lon="5.77916">
        <ele>435.13</ele>
        <time>2019-01-06T13:31:44Z</time>
      </trkpt>
      <trkpt lat="43.36404" lon="5.77903">
        <ele>436.58</ele>
        <time>2019-01-06T13:31:59Z</time>
      </trkpt>
      <trkpt lat="43.36394" lon="5.77892">
        <ele>437.06</ele>
        <time>2019-01-06T13:32:15Z</time>
      </trkpt>
      <trkpt lat="43.36384" lon="5.77884">
        <ele>438.02</ele>
        <time>2019-01-06T13:32:30Z</time>
      </trkpt>
      <trkpt lat="43.36378" lon="5.77881">
        <ele>438.5</ele>
        <time>2019-01-06T13:32:39Z</time>
      </trkpt>
      <trkpt lat="43.36374" lon="5.77878">
        <ele>438.98</ele>
        <time>2019-01-06T13:32:44Z</time>
      </trkpt>
      <trkpt lat="43.36361" lon="5.77865">
        <ele>439.94</ele>
        <time>2019-01-06T13:33:00Z</time>
      </trkpt>
      <trkpt lat="43.36353" lon="5.77856">
        <ele>439.94</ele>
        <time>2019-01-06T13:33:09Z</time>
      </trkpt>
      <trkpt lat="43.36349" lon="5.77854">
        <ele>439.94</ele>
        <time>2019-01-06T13:33:12Z</time>
      </trkpt>
      <trkpt lat="43.36348" lon="5.77852">
        <ele>439.94</ele>
        <time>2019-01-06T13:33:13Z</time>
      </trkpt>
      <trkpt lat="43.36345" lon="5.77849">
        <ele>439.94</ele>
        <time>2019-01-06T13:33:18Z</time>
      </trkpt>
      <trkpt lat="43.36343" lon="5.77848">
        <ele>439.94</ele>
        <time>2019-01-06T13:33:19Z</time>
      </trkpt>
      <trkpt lat="43.36338" lon="5.77845">
        <ele>439.94</ele>
        <time>2019-01-06T13:33:24Z</time>
      </trkpt>
      <trkpt lat="43.36337" lon="5.77844">
        <ele>439.94</ele>
        <time>2019-01-06T13:33:25Z</time>
      </trkpt>
      <trkpt lat="43.3633" lon="5.77842">
        <ele>439.94</ele>
        <time>2019-01-06T13:33:33Z</time>
      </trkpt>
      <trkpt lat="43.36329" lon="5.77843">
        <ele>439.94</ele>
        <time>2019-01-06T13:33:34Z</time>
      </trkpt>
      <trkpt lat="43.36327" lon="5.77844">
        <ele>439.94</ele>
        <time>2019-01-06T13:33:36Z</time>
      </trkpt>
      <trkpt lat="43.36326" lon="5.77843">
        <ele>439.94</ele>
        <time>2019-01-06T13:33:37Z</time>
      </trkpt>
      <trkpt lat="43.36315" lon="5.7784">
        <ele>440.42</ele>
        <time>2019-01-06T13:33:50Z</time>
      </trkpt>
      <trkpt lat="43.36305" lon="5.77839">
        <ele>440.9</ele>
        <time>2019-01-06T13:34:00Z</time>
      </trkpt>
      <trkpt lat="43.36302" lon="5.77839">
        <ele>440.9</ele>
        <time>2019-01-06T13:34:02Z</time>
      </trkpt>
      <trkpt lat="43.363" lon="5.77839">
        <ele>440.9</ele>
        <time>2019-01-06T13:34:04Z</time>
      </trkpt>
      <trkpt lat="43.36299" lon="5.77839">
        <ele>440.9</ele>
        <time>2019-01-06T13:34:05Z</time>
      </trkpt>
      <trkpt lat="43.36298" lon="5.77838">
        <ele>440.9</ele>
        <time>2019-01-06T13:34:06Z</time>
      </trkpt>
      <trkpt lat="43.36296" lon="5.77838">
        <ele>440.9</ele>
        <time>2019-01-06T13:34:07Z</time>
      </trkpt>
      <trkpt lat="43.36295" lon="5.77838">
        <ele>440.9</ele>
        <time>2019-01-06T13:34:08Z</time>
      </trkpt>
      <trkpt lat="43.36283" lon="5.77839">
        <ele>441.86</ele>
        <time>2019-01-06T13:34:20Z</time>
      </trkpt>
      <trkpt lat="43.36269" lon="5.77841">
        <ele>441.86</ele>
        <time>2019-01-06T13:34:36Z</time>
      </trkpt>
      <trkpt lat="43.36266" lon="5.77842">
        <ele>441.86</ele>
        <time>2019-01-06T13:34:40Z</time>
      </trkpt>
      <trkpt lat="43.36265" lon="5.77843">
        <ele>441.86</ele>
        <time>2019-01-06T13:34:41Z</time>
      </trkpt>
      <trkpt lat="43.36262" lon="5.77843">
        <ele>441.86</ele>
        <time>2019-01-06T13:34:44Z</time>
      </trkpt>
      <trkpt lat="43.36261" lon="5.77844">
        <ele>441.86</ele>
        <time>2019-01-06T13:34:45Z</time>
      </trkpt>
      <trkpt lat="43.36259" lon="5.77844">
        <ele>441.86</ele>
        <time>2019-01-06T13:34:46Z</time>
      </trkpt>
      <trkpt lat="43.36248" lon="5.77847">
        <ele>442.82</ele>
        <time>2019-01-06T13:34:58Z</time>
      </trkpt>
      <trkpt lat="43.36237" lon="5.77847">
        <ele>442.82</ele>
        <time>2019-01-06T13:35:11Z</time>
      </trkpt>
      <trkpt lat="43.36234" lon="5.77846">
        <ele>442.82</ele>
        <time>2019-01-06T13:35:34Z</time>
      </trkpt>
      <trkpt lat="43.36233" lon="5.77849">
        <ele>442.82</ele>
        <time>2019-01-06T13:35:42Z</time>
      </trkpt>
      <trkpt lat="43.36216" lon="5.77857">
        <ele>442.82</ele>
        <time>2019-01-06T13:36:26Z</time>
      </trkpt>
      <trkpt lat="43.36209" lon="5.77867">
        <ele>441.86</ele>
        <time>2019-01-06T13:36:39Z</time>
      </trkpt>
      <trkpt lat="43.36196" lon="5.77869">
        <ele>441.38</ele>
        <time>2019-01-06T13:36:51Z</time>
      </trkpt>
      <trkpt lat="43.36185" lon="5.77869">
        <ele>441.38</ele>
        <time>2019-01-06T13:37:04Z</time>
      </trkpt>
      <trkpt lat="43.36181" lon="5.77871">
        <ele>441.38</ele>
        <time>2019-01-06T13:37:08Z</time>
      </trkpt>
      <trkpt lat="43.36174" lon="5.77874">
        <ele>441.38</ele>
        <time>2019-01-06T13:37:17Z</time>
      </trkpt>
      <trkpt lat="43.36168" lon="5.77876">
        <ele>443.31</ele>
        <time>2019-01-06T13:37:23Z</time>
      </trkpt>
      <trkpt lat="43.36153" lon="5.77878">
        <ele>443.31</ele>
        <time>2019-01-06T13:37:37Z</time>
      </trkpt>
      <trkpt lat="43.36136" lon="5.77887">
        <ele>443.31</ele>
        <time>2019-01-06T13:37:59Z</time>
      </trkpt>
      <trkpt lat="43.36135" lon="5.77887">
        <ele>443.31</ele>
        <time>2019-01-06T13:38:00Z</time>
      </trkpt>
      <trkpt lat="43.36125" lon="5.779">
        <ele>441.86</ele>
        <time>2019-01-06T13:38:20Z</time>
      </trkpt>
      <trkpt lat="43.36112" lon="5.77908">
        <ele>439.46</ele>
        <time>2019-01-06T13:38:43Z</time>
      </trkpt>
      <trkpt lat="43.36097" lon="5.77911">
        <ele>437.54</ele>
        <time>2019-01-06T13:39:01Z</time>
      </trkpt>
      <trkpt lat="43.36074" lon="5.77907">
        <ele>435.13</ele>
        <time>2019-01-06T13:39:22Z</time>
      </trkpt>
      <trkpt lat="43.36066" lon="5.77896">
        <ele>433.69</ele>
        <time>2019-01-06T13:39:41Z</time>
      </trkpt>
      <trkpt lat="43.36047" lon="5.77876">
        <ele>432.25</ele>
        <time>2019-01-06T13:40:07Z</time>
      </trkpt>
      <trkpt lat="43.36035" lon="5.77855">
        <ele>430.33</ele>
        <time>2019-01-06T13:40:29Z</time>
      </trkpt>
      <trkpt lat="43.36018" lon="5.77847">
        <ele>427.92</ele>
        <time>2019-01-06T13:40:51Z</time>
      </trkpt>
      <trkpt lat="43.36008" lon="5.77842">
        <ele>426.48</ele>
        <time>2019-01-06T13:41:10Z</time>
      </trkpt>
      <trkpt lat="43.36003" lon="5.77821">
        <ele>426.48</ele>
        <time>2019-01-06T13:41:29Z</time>
      </trkpt>
      <trkpt lat="43.3599" lon="5.77804">
        <ele>426.48</ele>
        <time>2019-01-06T13:41:50Z</time>
      </trkpt>
      <trkpt lat="43.3598" lon="5.77796">
        <ele>426.48</ele>
        <time>2019-01-06T13:42:10Z</time>
      </trkpt>
      <trkpt lat="43.35971" lon="5.77787">
        <ele>426.48</ele>
        <time>2019-01-06T13:42:29Z</time>
      </trkpt>
      <trkpt lat="43.35952" lon="5.77772">
        <ele>426</ele>
        <time>2019-01-06T13:42:49Z</time>
      </trkpt>
      <trkpt lat="43.35939" lon="5.77762">
        <ele>426</ele>
        <time>2019-01-06T13:43:05Z</time>
      </trkpt>
      <trkpt lat="43.3592" lon="5.77752">
        <ele>426</ele>
        <time>2019-01-06T13:43:21Z</time>
      </trkpt>
      <trkpt lat="43.35905" lon="5.77742">
        <ele>425.04</ele>
        <time>2019-01-06T13:43:40Z</time>
      </trkpt>
      <trkpt lat="43.35888" lon="5.77729">
        <ele>423.6</ele>
        <time>2019-01-06T13:44:00Z</time>
      </trkpt>
      <trkpt lat="43.35871" lon="5.77726">
        <ele>423.6</ele>
        <time>2019-01-06T13:44:19Z</time>
      </trkpt>
      <trkpt lat="43.3586" lon="5.77727">
        <ele>423.6</ele>
        <time>2019-01-06T13:44:38Z</time>
      </trkpt>
      <trkpt lat="43.35857" lon="5.77723">
        <ele>423.6</ele>
        <time>2019-01-06T13:44:55Z</time>
      </trkpt>
      <trkpt lat="43.35848" lon="5.77722">
        <ele>423.6</ele>
        <time>2019-01-06T13:45:09Z</time>
      </trkpt>
      <trkpt lat="43.35845" lon="5.77721">
        <ele>423.6</ele>
        <time>2019-01-06T13:45:12Z</time>
      </trkpt>
      <trkpt lat="43.35826" lon="5.77716">
        <ele>423.6</ele>
        <time>2019-01-06T13:45:30Z</time>
      </trkpt>
      <trkpt lat="43.35816" lon="5.77712">
        <ele>423.12</ele>
        <time>2019-01-06T13:45:48Z</time>
      </trkpt>
      <trkpt lat="43.35801" lon="5.77711">
        <ele>423.6</ele>
        <time>2019-01-06T13:46:05Z</time>
      </trkpt>
      <trkpt lat="43.35791" lon="5.77709">
        <ele>423.6</ele>
        <time>2019-01-06T13:46:22Z</time>
      </trkpt>
      <trkpt lat="43.35788" lon="5.77707">
        <ele>424.08</ele>
        <time>2019-01-06T13:46:34Z</time>
      </trkpt>
      <trkpt lat="43.35774" lon="5.77708">
        <ele>424.56</ele>
        <time>2019-01-06T13:46:54Z</time>
      </trkpt>
      <trkpt lat="43.35762" lon="5.77703">
        <ele>426</ele>
        <time>2019-01-06T13:47:14Z</time>
      </trkpt>
      <trkpt lat="43.35743" lon="5.77698">
        <ele>427.44</ele>
        <time>2019-01-06T13:47:34Z</time>
      </trkpt>
      <trkpt lat="43.35732" lon="5.77696">
        <ele>426</ele>
        <time>2019-01-06T13:47:44Z</time>
      </trkpt>
      <trkpt lat="43.35721" lon="5.77702">
        <ele>424.08</ele>
        <time>2019-01-06T13:48:06Z</time>
      </trkpt>
      <trkpt lat="43.35711" lon="5.77705">
        <ele>422.64</ele>
        <time>2019-01-06T13:48:27Z</time>
      </trkpt>
      <trkpt lat="43.35701" lon="5.77713">
        <ele>421.68</ele>
        <time>2019-01-06T13:48:38Z</time>
      </trkpt>
      <trkpt lat="43.35696" lon="5.77728">
        <ele>420.23</ele>
        <time>2019-01-06T13:48:54Z</time>
      </trkpt>
      <trkpt lat="43.3569" lon="5.77758">
        <ele>419.75</ele>
        <time>2019-01-06T13:49:15Z</time>
      </trkpt>
      <trkpt lat="43.35677" lon="5.77772">
        <ele>419.27</ele>
        <time>2019-01-06T13:49:35Z</time>
      </trkpt>
      <trkpt lat="43.35654" lon="5.7777">
        <ele>419.75</ele>
        <time>2019-01-06T13:49:53Z</time>
      </trkpt>
      <trkpt lat="43.35647" lon="5.77768">
        <ele>420.71</ele>
        <time>2019-01-06T13:49:55Z</time>
      </trkpt>
      <trkpt lat="43.35639" lon="5.77763">
        <ele>420.71</ele>
        <time>2019-01-06T13:50:00Z</time>
      </trkpt>
      <trkpt lat="43.35628" lon="5.77759">
        <ele>419.75</ele>
        <time>2019-01-06T13:50:15Z</time>
      </trkpt>
      <trkpt lat="43.35613" lon="5.77747">
        <ele>419.75</ele>
        <time>2019-01-06T13:50:32Z</time>
      </trkpt>
      <trkpt lat="43.35604" lon="5.77744">
        <ele>419.75</ele>
        <time>2019-01-06T13:50:41Z</time>
      </trkpt>
      <trkpt lat="43.35604" lon="5.77743">
        <ele>419.75</ele>
        <time>2019-01-06T13:50:43Z</time>
      </trkpt>
      <trkpt lat="43.35595" lon="5.77735">
        <ele>418.79</ele>
        <time>2019-01-06T13:50:52Z</time>
      </trkpt>
      <trkpt lat="43.3559" lon="5.77733">
        <ele>417.83</ele>
        <time>2019-01-06T13:51:02Z</time>
      </trkpt>
      <trkpt lat="43.3558" lon="5.77734">
        <ele>416.87</ele>
        <time>2019-01-06T13:51:14Z</time>
      </trkpt>
      <trkpt lat="43.35578" lon="5.77733">
        <ele>416.87</ele>
        <time>2019-01-06T13:51:15Z</time>
      </trkpt>
      <trkpt lat="43.35564" lon="5.77719">
        <ele>416.39</ele>
        <time>2019-01-06T13:51:35Z</time>
      </trkpt>
      <trkpt lat="43.35554" lon="5.77719">
        <ele>415.43</ele>
        <time>2019-01-06T13:51:51Z</time>
      </trkpt>
      <trkpt lat="43.35531" lon="5.77715">
        <ele>417.35</ele>
        <time>2019-01-06T13:52:09Z</time>
      </trkpt>
      <trkpt lat="43.35518" lon="5.77728">
        <ele>417.35</ele>
        <time>2019-01-06T13:52:30Z</time>
      </trkpt>
      <trkpt lat="43.35511" lon="5.77733">
        <ele>416.39</ele>
        <time>2019-01-06T13:52:39Z</time>
      </trkpt>
      <trkpt lat="43.355" lon="5.77739">
        <ele>415.91</ele>
        <time>2019-01-06T13:52:54Z</time>
      </trkpt>
      <trkpt lat="43.35489" lon="5.77736">
        <ele>415.43</ele>
        <time>2019-01-06T13:53:13Z</time>
      </trkpt>
    </trkseg>
  </trk>
  <trk>
    <name><![CDATA[2019-01-06 14:53:14 002]]></name>
    <trkseg>
      <trkpt lat="43.2444" lon="6.00043">
        <ele>152.03</ele>
        <time>2018-12-27T11:59:27Z</time>
      </trkpt>
      <trkpt lat="43.2444" lon="6.00043">
        <ele>152.03</ele>
        <time>2018-12-27T11:59:28Z</time>
      </trkpt>
      <trkpt lat="43.2444" lon="6.00043">
        <ele>152.03</ele>
        <time>2018-12-27T11:59:29Z</time>
      </trkpt>
      <trkpt lat="43.43953" lon="5.8601">
        <ele>331.31</ele>
        <time>2018-12-27T17:00:24Z</time>
      </trkpt>
      <trkpt lat="43.43965" lon="5.8602">
        <ele>262.58</ele>
        <time>2019-01-06T10:28:36Z</time>
      </trkpt>
      <trkpt lat="43.43967" lon="5.86022">
        <ele>263.54</ele>
        <time>2019-01-06T10:28:58Z</time>
      </trkpt>
      <trkpt lat="43.43972" lon="5.86025">
        <ele>263.54</ele>
        <time>2019-01-06T10:29:23Z</time>
      </trkpt>
      <trkpt lat="43.43964" lon="5.86025">
        <ele>266.42</ele>
        <time>2019-01-06T10:29:49Z</time>
      </trkpt>
      <trkpt lat="43.43983" lon="5.86022">
        <ele>266.9</ele>
        <time>2019-01-06T10:30:09Z</time>
      </trkpt>
      <trkpt lat="43.43985" lon="5.86028">
        <ele>268.83</ele>
        <time>2019-01-06T10:30:24Z</time>
      </trkpt>
      <trkpt lat="43.43966" lon="5.86019">
        <ele>269.79</ele>
        <time>2019-01-06T10:30:43Z</time>
      </trkpt>
      <trkpt lat="43.43962" lon="5.86016">
        <ele>269.79</ele>
        <time>2019-01-06T10:31:13Z</time>
      </trkpt>
      <trkpt lat="43.43967" lon="5.86032">
        <ele>269.31</ele>
        <time>2019-01-06T10:31:28Z</time>
      </trkpt>
      <trkpt lat="43.43971" lon="5.86044">
        <ele>269.79</ele>
        <time>2019-01-06T10:31:38Z</time>
      </trkpt>
      <trkpt lat="43.4397" lon="5.86059">
        <ele>269.79</ele>
        <time>2019-01-06T10:31:51Z</time>
      </trkpt>
      <trkpt lat="43.43978" lon="5.8607">
        <ele>270.27</ele>
        <time>2019-01-06T10:32:01Z</time>
      </trkpt>
      <trkpt lat="43.43981" lon="5.86068">
        <ele>268.35</ele>
        <time>2019-01-06T10:32:11Z</time>
      </trkpt>
      <trkpt lat="43.43981" lon="5.8607">
        <ele>272.67</ele>
        <time>2019-01-06T10:32:23Z</time>
      </trkpt>
      <trkpt lat="43.43981" lon="5.86069">
        <ele>269.79</ele>
        <time>2019-01-06T10:32:26Z</time>
      </trkpt>
      <trkpt lat="43.4398" lon="5.86069">
        <ele>271.23</ele>
        <time>2019-01-06T10:32:42Z</time>
      </trkpt>
      <trkpt lat="43.43981" lon="5.86067">
        <ele>271.71</ele>
        <time>2019-01-06T10:32:47Z</time>
      </trkpt>
      <trkpt lat="43.43974" lon="5.8605">
        <ele>273.15</ele>
        <time>2019-01-06T10:32:54Z</time>
      </trkpt>
      <trkpt lat="43.4398" lon="5.86024">
        <ele>274.11</ele>
        <time>2019-01-06T10:33:00Z</time>
      </trkpt>
      <trkpt lat="43.43982" lon="5.86023">
        <ele>274.11</ele>
        <time>2019-01-06T10:33:01Z</time>
      </trkpt>
      <trkpt lat="43.43984" lon="5.86023">
        <ele>274.11</ele>
        <time>2019-01-06T10:33:02Z</time>
      </trkpt>
      <trkpt lat="43.43986" lon="5.86024">
        <ele>274.59</ele>
        <time>2019-01-06T10:33:03Z</time>
      </trkpt>
      <trkpt lat="43.43988" lon="5.86025">
        <ele>274.59</ele>
        <time>2019-01-06T10:33:04Z</time>
      </trkpt>
      <trkpt lat="43.43991" lon="5.86029">
        <ele>273.15</ele>
        <time>2019-01-06T10:33:06Z</time>
      </trkpt>
      <trkpt lat="43.44025" lon="5.86067">
        <ele>270.27</ele>
        <time>2019-01-06T10:33:13Z</time>
      </trkpt>
      <trkpt lat="43.44029" lon="5.86073">
        <ele>270.75</ele>
        <time>2019-01-06T10:33:14Z</time>
      </trkpt>
      <trkpt lat="43.44032" lon="5.86079">
        <ele>270.75</ele>
        <time>2019-01-06T10:33:15Z</time>
      </trkpt>
      <trkpt lat="43.44034" lon="5.86086">
        <ele>270.75</ele>
        <time>2019-01-06T10:33:16Z</time>
      </trkpt>
      <trkpt lat="43.44034" lon="5.86094">
        <ele>270.75</ele>
        <time>2019-01-06T10:33:17Z</time>
      </trkpt>
      <trkpt lat="43.44033" lon="5.86104">
        <ele>270.27</ele>
        <time>2019-01-06T10:33:18Z</time>
      </trkpt>
      <trkpt lat="43.44032" lon="5.86114">
        <ele>270.27</ele>
        <time>2019-01-06T10:33:19Z</time>
      </trkpt>
      <trkpt lat="43.44027" lon="5.86179">
        <ele>269.79</ele>
        <time>2019-01-06T10:33:28Z</time>
      </trkpt>
      <trkpt lat="43.44034" lon="5.86258">
        <ele>266.42</ele>
        <time>2019-01-06T10:33:36Z</time>
      </trkpt>
      <trkpt lat="43.44038" lon="5.86304">
        <ele>263.54</ele>
        <time>2019-01-06T10:33:44Z</time>
      </trkpt>
      <trkpt lat="43.44035" lon="5.86305">
        <ele>263.54</ele>
        <time>2019-01-06T10:33:45Z</time>
      </trkpt>
      <trkpt lat="43.44032" lon="5.86307">
        <ele>263.06</ele>
        <time>2019-01-06T10:33:46Z</time>
      </trkpt>
      <trkpt lat="43.44028" lon="5.86308">
        <ele>263.54</ele>
        <time>2019-01-06T10:33:47Z</time>
      </trkpt>
      <trkpt lat="43.44025" lon="5.86308">
        <ele>263.54</ele>
        <time>2019-01-06T10:33:48Z</time>
      </trkpt>
      <trkpt lat="43.44022" lon="5.86308">
        <ele>263.54</ele>
        <time>2019-01-06T10:33:49Z</time>
      </trkpt>
      <trkpt lat="43.44017" lon="5.86306">
        <ele>263.54</ele>
        <time>2019-01-06T10:33:50Z</time>
      </trkpt>
      <trkpt lat="43.44013" lon="5.86304">
        <ele>263.54</ele>
        <time>2019-01-06T10:33:51Z</time>
      </trkpt>
      <trkpt lat="43.4401" lon="5.86302">
        <ele>263.54</ele>
        <time>2019-01-06T10:33:52Z</time>
      </trkpt>
      <trkpt lat="43.44007" lon="5.86299">
        <ele>264.02</ele>
        <time>2019-01-06T10:33:53Z</time>
      </trkpt>
      <trkpt lat="43.44005" lon="5.86297">
        <ele>265.46</ele>
        <time>2019-01-06T10:33:57Z</time>
      </trkpt>
      <trkpt lat="43.44004" lon="5.86297">
        <ele>266.9</ele>
        <time>2019-01-06T10:34:21Z</time>
      </trkpt>
      <trkpt lat="43.44001" lon="5.86296">
        <ele>267.38</ele>
        <time>2019-01-06T10:34:28Z</time>
      </trkpt>
      <trkpt lat="43.43999" lon="5.86295">
        <ele>267.38</ele>
        <time>2019-01-06T10:34:29Z</time>
      </trkpt>
      <trkpt lat="43.43995" lon="5.86292">
        <ele>267.38</ele>
        <time>2019-01-06T10:34:30Z</time>
      </trkpt>
      <trkpt lat="43.43992" lon="5.86288">
        <ele>267.38</ele>
        <time>2019-01-06T10:34:31Z</time>
      </trkpt>
      <trkpt lat="43.43988" lon="5.86283">
        <ele>267.38</ele>
        <time>2019-01-06T10:34:32Z</time>
      </trkpt>
      <trkpt lat="43.43986" lon="5.86279">
        <ele>267.38</ele>
        <time>2019-01-06T10:34:33Z</time>
      </trkpt>
      <trkpt lat="43.43984" lon="5.86273">
        <ele>267.38</ele>
        <time>2019-01-06T10:34:34Z</time>
      </trkpt>
      <trkpt lat="43.43981" lon="5.86265">
        <ele>267.86</ele>
        <time>2019-01-06T10:34:35Z</time>
      </trkpt>
      <trkpt lat="43.43961" lon="5.86194">
        <ele>271.71</ele>
        <time>2019-01-06T10:34:41Z</time>
      </trkpt>
      <trkpt lat="43.43956" lon="5.8618">
        <ele>271.71</ele>
        <time>2019-01-06T10:34:42Z</time>
      </trkpt>
      <trkpt lat="43.43935" lon="5.86119">
        <ele>274.59</ele>
        <time>2019-01-06T10:34:46Z</time>
      </trkpt>
      <trkpt lat="43.439" lon="5.86037">
        <ele>277.96</ele>
        <time>2019-01-06T10:34:51Z</time>
      </trkpt>
      <trkpt lat="43.4385" lon="5.85934">
        <ele>280.84</ele>
        <time>2019-01-06T10:34:57Z</time>
      </trkpt>
      <trkpt lat="43.43832" lon="5.85899">
        <ele>281.8</ele>
        <time>2019-01-06T10:34:59Z</time>
      </trkpt>
      <trkpt lat="43.43766" lon="5.85766">
        <ele>283.25</ele>
        <time>2019-01-06T10:35:08Z</time>
      </trkpt>
      <trkpt lat="43.43762" lon="5.85754">
        <ele>283.25</ele>
        <time>2019-01-06T10:35:09Z</time>
      </trkpt>
      <trkpt lat="43.4376" lon="5.85743">
        <ele>284.21</ele>
        <time>2019-01-06T10:35:10Z</time>
      </trkpt>
      <trkpt lat="43.4376" lon="5.85733">
        <ele>284.21</ele>
        <time>2019-01-06T10:35:11Z</time>
      </trkpt>
      <trkpt lat="43.4376" lon="5.85723">
        <ele>284.21</ele>
        <time>2019-01-06T10:35:12Z</time>
      </trkpt>
      <trkpt lat="43.4376" lon="5.85682">
        <ele>284.69</ele>
        <time>2019-01-06T10:35:16Z</time>
      </trkpt>
      <trkpt lat="43.43758" lon="5.85674">
        <ele>284.69</ele>
        <time>2019-01-06T10:35:17Z</time>
      </trkpt>
      <trkpt lat="43.43756" lon="5.8567">
        <ele>284.69</ele>
        <time>2019-01-06T10:35:18Z</time>
      </trkpt>
      <trkpt lat="43.43751" lon="5.85664">
        <ele>284.69</ele>
        <time>2019-01-06T10:35:19Z</time>
      </trkpt>
      <trkpt lat="43.43746" lon="5.8566">
        <ele>284.69</ele>
        <time>2019-01-06T10:35:20Z</time>
      </trkpt>
      <trkpt lat="43.43739" lon="5.85656">
        <ele>285.65</ele>
        <time>2019-01-06T10:35:21Z</time>
      </trkpt>
      <trkpt lat="43.43719" lon="5.85641">
        <ele>285.65</ele>
        <time>2019-01-06T10:35:23Z</time>
      </trkpt>
      <trkpt lat="43.43651" lon="5.85579">
        <ele>288.05</ele>
        <time>2019-01-06T10:35:29Z</time>
      </trkpt>
      <trkpt lat="43.43612" lon="5.85535">
        <ele>289.01</ele>
        <time>2019-01-06T10:35:32Z</time>
      </trkpt>
      <trkpt lat="43.43463" lon="5.85334">
        <ele>286.61</ele>
        <time>2019-01-06T10:35:45Z</time>
      </trkpt>
      <trkpt lat="43.43434" lon="5.85283">
        <ele>286.13</ele>
        <time>2019-01-06T10:35:48Z</time>
      </trkpt>
      <trkpt lat="43.4342" lon="5.8527">
        <ele>286.13</ele>
        <time>2019-01-06T10:35:49Z</time>
      </trkpt>
      <trkpt lat="43.43402" lon="5.8526">
        <ele>286.61</ele>
        <time>2019-01-06T10:35:50Z</time>
      </trkpt>
      <trkpt lat="43.4339" lon="5.85256">
        <ele>286.13</ele>
        <time>2019-01-06T10:35:51Z</time>
      </trkpt>
      <trkpt lat="43.43374" lon="5.8525">
        <ele>286.13</ele>
        <time>2019-01-06T10:35:52Z</time>
      </trkpt>
      <trkpt lat="43.43309" lon="5.85217">
        <ele>289.97</ele>
        <time>2019-01-06T10:35:56Z</time>
      </trkpt>
      <trkpt lat="43.43246" lon="5.85171">
        <ele>293.34</ele>
        <time>2019-01-06T10:36:00Z</time>
      </trkpt>
      <trkpt lat="43.43197" lon="5.85122">
        <ele>297.18</ele>
        <time>2019-01-06T10:36:04Z</time>
      </trkpt>
      <trkpt lat="43.43184" lon="5.85107">
        <ele>297.18</ele>
        <time>2019-01-06T10:36:05Z</time>
      </trkpt>
      <trkpt lat="43.43085" lon="5.84976">
        <ele>293.82</ele>
        <time>2019-01-06T10:36:13Z</time>
      </trkpt>
      <trkpt lat="43.4296" lon="5.84846">
        <ele>296.7</ele>
        <time>2019-01-06T10:36:22Z</time>
      </trkpt>
      <trkpt lat="43.42937" lon="5.84822">
        <ele>295.74</ele>
        <time>2019-01-06T10:36:24Z</time>
      </trkpt>
      <trkpt lat="43.42873" lon="5.84756">
        <ele>297.67</ele>
        <time>2019-01-06T10:36:29Z</time>
      </trkpt>
      <trkpt lat="43.42795" lon="5.84675">
        <ele>300.55</ele>
        <time>2019-01-06T10:36:35Z</time>
      </trkpt>
      <trkpt lat="43.42731" lon="5.84609">
        <ele>303.91</ele>
        <time>2019-01-06T10:36:40Z</time>
      </trkpt>
      <trkpt lat="43.42691" lon="5.84569">
        <ele>307.76</ele>
        <time>2019-01-06T10:36:43Z</time>
      </trkpt>
      <trkpt lat="43.42639" lon="5.84515">
        <ele>311.6</ele>
        <time>2019-01-06T10:36:47Z</time>
      </trkpt>
      <trkpt lat="43.42586" lon="5.8446">
        <ele>314.97</ele>
        <time>2019-01-06T10:36:51Z</time>
      </trkpt>
      <trkpt lat="43.42527" lon="5.84388">
        <ele>318.33</ele>
        <time>2019-01-06T10:36:56Z</time>
      </trkpt>
      <trkpt lat="43.42515" lon="5.84372">
        <ele>318.33</ele>
        <time>2019-01-06T10:36:57Z</time>
      </trkpt>
      <trkpt lat="43.42455" lon="5.8429">
        <ele>321.22</ele>
        <time>2019-01-06T10:37:02Z</time>
      </trkpt>
      <trkpt lat="43.4242" lon="5.84241">
        <ele>324.1</ele>
        <time>2019-01-06T10:37:05Z</time>
      </trkpt>
      <trkpt lat="43.42351" lon="5.84143">
        <ele>327.47</ele>
        <time>2019-01-06T10:37:11Z</time>
      </trkpt>
      <trkpt lat="43.42339" lon="5.84127">
        <ele>327.47</ele>
        <time>2019-01-06T10:37:12Z</time>
      </trkpt>
      <trkpt lat="43.42282" lon="5.8405">
        <ele>324.1</ele>
        <time>2019-01-06T10:37:17Z</time>
      </trkpt>
      <trkpt lat="43.42224" lon="5.83954">
        <ele>321.22</ele>
        <time>2019-01-06T10:37:22Z</time>
      </trkpt>
      <trkpt lat="43.42194" lon="5.83898">
        <ele>319.3</ele>
        <time>2019-01-06T10:37:24Z</time>
      </trkpt>
      <trkpt lat="43.42183" lon="5.83876">
        <ele>317.85</ele>
        <time>2019-01-06T10:37:25Z</time>
      </trkpt>
      <trkpt lat="43.4215" lon="5.83806">
        <ele>314.97</ele>
        <time>2019-01-06T10:37:28Z</time>
      </trkpt>
      <trkpt lat="43.41999" lon="5.83457">
        <ele>314.97</ele>
        <time>2019-01-06T10:37:42Z</time>
      </trkpt>
      <trkpt lat="43.419" lon="5.83252">
        <ele>318.33</ele>
        <time>2019-01-06T10:37:51Z</time>
      </trkpt>
      <trkpt lat="43.41786" lon="5.83123">
        <ele>314.49</ele>
        <time>2019-01-06T10:38:00Z</time>
      </trkpt>
      <trkpt lat="43.41774" lon="5.83102">
        <ele>315.93</ele>
        <time>2019-01-06T10:38:01Z</time>
      </trkpt>
      <trkpt lat="43.4173" lon="5.83026">
        <ele>314.49</ele>
        <time>2019-01-06T10:38:05Z</time>
      </trkpt>
      <trkpt lat="43.4159" lon="5.82783">
        <ele>311.12</ele>
        <time>2019-01-06T10:38:18Z</time>
      </trkpt>
      <trkpt lat="43.41579" lon="5.82763">
        <ele>311.12</ele>
        <time>2019-01-06T10:38:19Z</time>
      </trkpt>
      <trkpt lat="43.41525" lon="5.82691">
        <ele>310.64</ele>
        <time>2019-01-06T10:38:23Z</time>
      </trkpt>
      <trkpt lat="43.4151" lon="5.8268">
        <ele>310.64</ele>
        <time>2019-01-06T10:38:24Z</time>
      </trkpt>
      <trkpt lat="43.41421" lon="5.82637">
        <ele>307.76</ele>
        <time>2019-01-06T10:38:29Z</time>
      </trkpt>
      <trkpt lat="43.41383" lon="5.82621">
        <ele>310.64</ele>
        <time>2019-01-06T10:38:31Z</time>
      </trkpt>
      <trkpt lat="43.41215" lon="5.82526">
        <ele>314.01</ele>
        <time>2019-01-06T10:38:41Z</time>
      </trkpt>
      <trkpt lat="43.41169" lon="5.82503">
        <ele>318.33</ele>
        <time>2019-01-06T10:38:44Z</time>
      </trkpt>
      <trkpt lat="43.41154" lon="5.82496">
        <ele>318.81</ele>
        <time>2019-01-06T10:38:45Z</time>
      </trkpt>
      <trkpt lat="43.41072" lon="5.82466">
        <ele>316.89</ele>
        <time>2019-01-06T10:38:50Z</time>
      </trkpt>
      <trkpt lat="43.41056" lon="5.82466">
        <ele>315.45</ele>
        <time>2019-01-06T10:38:51Z</time>
      </trkpt>
      <trkpt lat="43.40974" lon="5.82483">
        <ele>312.57</ele>
        <time>2019-01-06T10:38:56Z</time>
      </trkpt>
      <trkpt lat="43.40892" lon="5.82515">
        <ele>313.05</ele>
        <time>2019-01-06T10:39:02Z</time>
      </trkpt>
      <trkpt lat="43.40881" lon="5.82515">
        <ele>313.05</ele>
        <time>2019-01-06T10:39:03Z</time>
      </trkpt>
      <trkpt lat="43.40872" lon="5.82513">
        <ele>313.05</ele>
        <time>2019-01-06T10:39:04Z</time>
      </trkpt>
      <trkpt lat="43.40865" lon="5.82509">
        <ele>311.6</ele>
        <time>2019-01-06T10:39:05Z</time>
      </trkpt>
      <trkpt lat="43.40861" lon="5.82501">
        <ele>311.12</ele>
        <time>2019-01-06T10:39:06Z</time>
      </trkpt>
      <trkpt lat="43.40848" lon="5.82453">
        <ele>310.64</ele>
        <time>2019-01-06T10:39:09Z</time>
      </trkpt>
      <trkpt lat="43.40846" lon="5.82426">
        <ele>308.24</ele>
        <time>2019-01-06T10:39:10Z</time>
      </trkpt>
      <trkpt lat="43.40826" lon="5.82283">
        <ele>308.72</ele>
        <time>2019-01-06T10:39:16Z</time>
      </trkpt>
      <trkpt lat="43.40818" lon="5.82267">
        <ele>308.24</ele>
        <time>2019-01-06T10:39:17Z</time>
      </trkpt>
      <trkpt lat="43.40806" lon="5.82253">
        <ele>308.24</ele>
        <time>2019-01-06T10:39:18Z</time>
      </trkpt>
      <trkpt lat="43.40793" lon="5.82242">
        <ele>308.72</ele>
        <time>2019-01-06T10:39:19Z</time>
      </trkpt>
      <trkpt lat="43.40779" lon="5.82233">
        <ele>308.72</ele>
        <time>2019-01-06T10:39:20Z</time>
      </trkpt>
      <trkpt lat="43.40724" lon="5.82189">
        <ele>310.16</ele>
        <time>2019-01-06T10:39:24Z</time>
      </trkpt>
      <trkpt lat="43.40712" lon="5.82173">
        <ele>311.12</ele>
        <time>2019-01-06T10:39:25Z</time>
      </trkpt>
      <trkpt lat="43.40701" lon="5.82156">
        <ele>312.09</ele>
        <time>2019-01-06T10:39:26Z</time>
      </trkpt>
      <trkpt lat="43.40692" lon="5.82137">
        <ele>313.05</ele>
        <time>2019-01-06T10:39:27Z</time>
      </trkpt>
      <trkpt lat="43.40683" lon="5.82117">
        <ele>314.01</ele>
        <time>2019-01-06T10:39:28Z</time>
      </trkpt>
      <trkpt lat="43.40673" lon="5.82094">
        <ele>314.01</ele>
        <time>2019-01-06T10:39:29Z</time>
      </trkpt>
      <trkpt lat="43.40597" lon="5.8193">
        <ele>313.05</ele>
        <time>2019-01-06T10:39:36Z</time>
      </trkpt>
      <trkpt lat="43.40551" lon="5.81833">
        <ele>310.64</ele>
        <time>2019-01-06T10:39:40Z</time>
      </trkpt>
      <trkpt lat="43.40506" lon="5.81738">
        <ele>309.68</ele>
        <time>2019-01-06T10:39:44Z</time>
      </trkpt>
      <trkpt lat="43.40417" lon="5.81558">
        <ele>306.8</ele>
        <time>2019-01-06T10:39:52Z</time>
      </trkpt>
      <trkpt lat="43.40325" lon="5.81377">
        <ele>309.68</ele>
        <time>2019-01-06T10:40:00Z</time>
      </trkpt>
      <trkpt lat="43.403" lon="5.81329">
        <ele>311.12</ele>
        <time>2019-01-06T10:40:02Z</time>
      </trkpt>
      <trkpt lat="43.40182" lon="5.81076">
        <ele>307.76</ele>
        <time>2019-01-06T10:40:13Z</time>
      </trkpt>
      <trkpt lat="43.40126" lon="5.8096">
        <ele>305.84</ele>
        <time>2019-01-06T10:40:18Z</time>
      </trkpt>
      <trkpt lat="43.40103" lon="5.80916">
        <ele>307.76</ele>
        <time>2019-01-06T10:40:20Z</time>
      </trkpt>
      <trkpt lat="43.39973" lon="5.80657">
        <ele>304.39</ele>
        <time>2019-01-06T10:40:32Z</time>
      </trkpt>
      <trkpt lat="43.39821" lon="5.80353">
        <ele>305.84</ele>
        <time>2019-01-06T10:40:46Z</time>
      </trkpt>
      <trkpt lat="43.39751" lon="5.80215">
        <ele>309.2</ele>
        <time>2019-01-06T10:40:52Z</time>
      </trkpt>
      <trkpt lat="43.39698" lon="5.80135">
        <ele>312.09</ele>
        <time>2019-01-06T10:40:56Z</time>
      </trkpt>
      <trkpt lat="43.3957" lon="5.79992">
        <ele>311.6</ele>
        <time>2019-01-06T10:41:05Z</time>
      </trkpt>
      <trkpt lat="43.39432" lon="5.79925">
        <ele>309.2</ele>
        <time>2019-01-06T10:41:14Z</time>
      </trkpt>
      <trkpt lat="43.39331" lon="5.79857">
        <ele>311.12</ele>
        <time>2019-01-06T10:41:21Z</time>
      </trkpt>
      <trkpt lat="43.39321" lon="5.79841">
        <ele>312.09</ele>
        <time>2019-01-06T10:41:22Z</time>
      </trkpt>
      <trkpt lat="43.39312" lon="5.79824">
        <ele>312.57</ele>
        <time>2019-01-06T10:41:23Z</time>
      </trkpt>
      <trkpt lat="43.39299" lon="5.79795">
        <ele>314.97</ele>
        <time>2019-01-06T10:41:25Z</time>
      </trkpt>
      <trkpt lat="43.39295" lon="5.79782">
        <ele>314.97</ele>
        <time>2019-01-06T10:41:26Z</time>
      </trkpt>
      <trkpt lat="43.39293" lon="5.79768">
        <ele>315.45</ele>
        <time>2019-01-06T10:41:27Z</time>
      </trkpt>
      <trkpt lat="43.39292" lon="5.79754">
        <ele>315.45</ele>
        <time>2019-01-06T10:41:28Z</time>
      </trkpt>
      <trkpt lat="43.39291" lon="5.79738">
        <ele>315.45</ele>
        <time>2019-01-06T10:41:29Z</time>
      </trkpt>
      <trkpt lat="43.39278" lon="5.79598">
        <ele>315.93</ele>
        <time>2019-01-06T10:41:41Z</time>
      </trkpt>
      <trkpt lat="43.39265" lon="5.79551">
        <ele>318.33</ele>
        <time>2019-01-06T10:41:47Z</time>
      </trkpt>
      <trkpt lat="43.3926" lon="5.79546">
        <ele>319.3</ele>
        <time>2019-01-06T10:41:48Z</time>
      </trkpt>
      <trkpt lat="43.39254" lon="5.79541">
        <ele>320.26</ele>
        <time>2019-01-06T10:41:49Z</time>
      </trkpt>
      <trkpt lat="43.39234" lon="5.79518">
        <ele>323.62</ele>
        <time>2019-01-06T10:41:53Z</time>
      </trkpt>
      <trkpt lat="43.3921" lon="5.79497">
        <ele>326.5</ele>
        <time>2019-01-06T10:41:57Z</time>
      </trkpt>
      <trkpt lat="43.39002" lon="5.79542">
        <ele>327.47</ele>
        <time>2019-01-06T10:42:05Z</time>
      </trkpt>
      <trkpt lat="43.38852" lon="5.79411">
        <ele>331.79</ele>
        <time>2019-01-06T10:42:17Z</time>
      </trkpt>
      <trkpt lat="43.3883" lon="5.79383">
        <ele>332.27</ele>
        <time>2019-01-06T10:42:19Z</time>
      </trkpt>
      <trkpt lat="43.38742" lon="5.79254">
        <ele>335.64</ele>
        <time>2019-01-06T10:42:28Z</time>
      </trkpt>
      <trkpt lat="43.38732" lon="5.79233">
        <ele>336.6</ele>
        <time>2019-01-06T10:42:29Z</time>
      </trkpt>
      <trkpt lat="43.38684" lon="5.79136">
        <ele>339.48</ele>
        <time>2019-01-06T10:42:35Z</time>
      </trkpt>
      <trkpt lat="43.38676" lon="5.79097">
        <ele>340.44</ele>
        <time>2019-01-06T10:42:37Z</time>
      </trkpt>
      <trkpt lat="43.38674" lon="5.79052">
        <ele>340.92</ele>
        <time>2019-01-06T10:42:39Z</time>
      </trkpt>
      <trkpt lat="43.38668" lon="5.79033">
        <ele>341.89</ele>
        <time>2019-01-06T10:42:40Z</time>
      </trkpt>
      <trkpt lat="43.38657" lon="5.7902">
        <ele>341.41</ele>
        <time>2019-01-06T10:42:41Z</time>
      </trkpt>
      <trkpt lat="43.3861" lon="5.78976">
        <ele>342.37</ele>
        <time>2019-01-06T10:42:45Z</time>
      </trkpt>
      <trkpt lat="43.38599" lon="5.78982">
        <ele>342.37</ele>
        <time>2019-01-06T10:42:46Z</time>
      </trkpt>
      <trkpt lat="43.38589" lon="5.79005">
        <ele>342.37</ele>
        <time>2019-01-06T10:42:47Z</time>
      </trkpt>
      <trkpt lat="43.3858" lon="5.79023">
        <ele>342.37</ele>
        <time>2019-01-06T10:42:48Z</time>
      </trkpt>
      <trkpt lat="43.38498" lon="5.79122">
        <ele>342.37</ele>
        <time>2019-01-06T10:42:55Z</time>
      </trkpt>
      <trkpt lat="43.38486" lon="5.79125">
        <ele>342.37</ele>
        <time>2019-01-06T10:42:56Z</time>
      </trkpt>
      <trkpt lat="43.38472" lon="5.79122">
        <ele>342.37</ele>
        <time>2019-01-06T10:42:57Z</time>
      </trkpt>
      <trkpt lat="43.38462" lon="5.79115">
        <ele>342.37</ele>
        <time>2019-01-06T10:42:58Z</time>
      </trkpt>
      <trkpt lat="43.3845" lon="5.79101">
        <ele>342.37</ele>
        <time>2019-01-06T10:42:59Z</time>
      </trkpt>
      <trkpt lat="43.38339" lon="5.78969">
        <ele>339.48</ele>
        <time>2019-01-06T10:43:10Z</time>
      </trkpt>
      <trkpt lat="43.38242" lon="5.78892">
        <ele>338.04</ele>
        <time>2019-01-06T10:43:20Z</time>
      </trkpt>
      <trkpt lat="43.38154" lon="5.78783">
        <ele>339.48</ele>
        <time>2019-01-06T10:43:32Z</time>
      </trkpt>
      <trkpt lat="43.38036" lon="5.78671">
        <ele>341.41</ele>
        <time>2019-01-06T10:43:45Z</time>
      </trkpt>
      <trkpt lat="43.37982" lon="5.78597">
        <ele>343.81</ele>
        <time>2019-01-06T10:43:53Z</time>
      </trkpt>
      <trkpt lat="43.37951" lon="5.78559">
        <ele>346.21</ele>
        <time>2019-01-06T10:43:57Z</time>
      </trkpt>
      <trkpt lat="43.37853" lon="5.78454">
        <ele>345.25</ele>
        <time>2019-01-06T10:44:10Z</time>
      </trkpt>
      <trkpt lat="43.37818" lon="5.78434">
        <ele>344.77</ele>
        <time>2019-01-06T10:44:14Z</time>
      </trkpt>
      <trkpt lat="43.37809" lon="5.78431">
        <ele>344.77</ele>
        <time>2019-01-06T10:44:15Z</time>
      </trkpt>
      <trkpt lat="43.37646" lon="5.78477">
        <ele>340.92</ele>
        <time>2019-01-06T10:44:26Z</time>
      </trkpt>
      <trkpt lat="43.37555" lon="5.78444">
        <ele>337.56</ele>
        <time>2019-01-06T10:44:36Z</time>
      </trkpt>
      <trkpt lat="43.37476" lon="5.78428">
        <ele>338.52</ele>
        <time>2019-01-06T10:44:45Z</time>
      </trkpt>
      <trkpt lat="43.3744" lon="5.78432">
        <ele>340.44</ele>
        <time>2019-01-06T10:44:49Z</time>
      </trkpt>
      <trkpt lat="43.37312" lon="5.78498">
        <ele>340.44</ele>
        <time>2019-01-06T10:45:04Z</time>
      </trkpt>
      <trkpt lat="43.37299" lon="5.78503">
        <ele>339</ele>
        <time>2019-01-06T10:45:06Z</time>
      </trkpt>
      <trkpt lat="43.37177" lon="5.78589">
        <ele>337.56</ele>
        <time>2019-01-06T10:45:22Z</time>
      </trkpt>
      <trkpt lat="43.37148" lon="5.78596">
        <ele>337.56</ele>
        <time>2019-01-06T10:45:26Z</time>
      </trkpt>
      <trkpt lat="43.37139" lon="5.78594">
        <ele>337.56</ele>
        <time>2019-01-06T10:45:27Z</time>
      </trkpt>
      <trkpt lat="43.37134" lon="5.78592">
        <ele>337.56</ele>
        <time>2019-01-06T10:45:28Z</time>
      </trkpt>
      <trkpt lat="43.37127" lon="5.78587">
        <ele>337.56</ele>
        <time>2019-01-06T10:45:29Z</time>
      </trkpt>
      <trkpt lat="43.37121" lon="5.78581">
        <ele>337.56</ele>
        <time>2019-01-06T10:45:30Z</time>
      </trkpt>
      <trkpt lat="43.37115" lon="5.78574">
        <ele>337.56</ele>
        <time>2019-01-06T10:45:31Z</time>
      </trkpt>
      <trkpt lat="43.37109" lon="5.78567">
        <ele>337.56</ele>
        <time>2019-01-06T10:45:32Z</time>
      </trkpt>
      <trkpt lat="43.37062" lon="5.78484">
        <ele>339</ele>
        <time>2019-01-06T10:45:41Z</time>
      </trkpt>
      <trkpt lat="43.37008" lon="5.78385">
        <ele>339.96</ele>
        <time>2019-01-06T10:45:55Z</time>
      </trkpt>
      <trkpt lat="43.37001" lon="5.78381">
        <ele>339.96</ele>
        <time>2019-01-06T10:45:58Z</time>
      </trkpt>
      <trkpt lat="43.36998" lon="5.78381">
        <ele>339.96</ele>
        <time>2019-01-06T10:45:59Z</time>
      </trkpt>
      <trkpt lat="43.36997" lon="5.78382">
        <ele>339.96</ele>
        <time>2019-01-06T10:46:00Z</time>
      </trkpt>
      <trkpt lat="43.36994" lon="5.78385">
        <ele>339.96</ele>
        <time>2019-01-06T10:46:01Z</time>
      </trkpt>
      <trkpt lat="43.36992" lon="5.78388">
        <ele>339.96</ele>
        <time>2019-01-06T10:46:02Z</time>
      </trkpt>
      <trkpt lat="43.36988" lon="5.78393">
        <ele>340.44</ele>
        <time>2019-01-06T10:46:03Z</time>
      </trkpt>
      <trkpt lat="43.36985" lon="5.78397">
        <ele>340.44</ele>
        <time>2019-01-06T10:46:04Z</time>
      </trkpt>
      <trkpt lat="43.36887" lon="5.78489">
        <ele>339.96</ele>
        <time>2019-01-06T10:46:19Z</time>
      </trkpt>
      <trkpt lat="43.36792" lon="5.78535">
        <ele>339.96</ele>
        <time>2019-01-06T10:46:34Z</time>
      </trkpt>
      <trkpt lat="43.36674" lon="5.78599">
        <ele>340.44</ele>
        <time>2019-01-06T10:46:48Z</time>
      </trkpt>
      <trkpt lat="43.36557" lon="5.78688">
        <ele>340.92</ele>
        <time>2019-01-06T10:47:03Z</time>
      </trkpt>
      <trkpt lat="43.36519" lon="5.78699">
        <ele>341.89</ele>
        <time>2019-01-06T10:47:07Z</time>
      </trkpt>
      <trkpt lat="43.36508" lon="5.78698">
        <ele>341.89</ele>
        <time>2019-01-06T10:47:08Z</time>
      </trkpt>
      <trkpt lat="43.36415" lon="5.7866">
        <ele>340.92</ele>
        <time>2019-01-06T10:47:19Z</time>
      </trkpt>
      <trkpt lat="43.36334" lon="5.78601">
        <ele>339.96</ele>
        <time>2019-01-06T10:47:28Z</time>
      </trkpt>
      <trkpt lat="43.36293" lon="5.78559">
        <ele>340.92</ele>
        <time>2019-01-06T10:47:32Z</time>
      </trkpt>
      <trkpt lat="43.36168" lon="5.7843">
        <ele>343.33</ele>
        <time>2019-01-06T10:47:44Z</time>
      </trkpt>
      <trkpt lat="43.36079" lon="5.78357">
        <ele>344.29</ele>
        <time>2019-01-06T10:47:55Z</time>
      </trkpt>
      <trkpt lat="43.36015" lon="5.78304">
        <ele>345.25</ele>
        <time>2019-01-06T10:48:07Z</time>
      </trkpt>
      <trkpt lat="43.3601" lon="5.78302">
        <ele>345.73</ele>
        <time>2019-01-06T10:48:08Z</time>
      </trkpt>
      <trkpt lat="43.35927" lon="5.78252">
        <ele>348.13</ele>
        <time>2019-01-06T10:48:23Z</time>
      </trkpt>
      <trkpt lat="43.35848" lon="5.78203">
        <ele>351.5</ele>
        <time>2019-01-06T10:48:33Z</time>
      </trkpt>
      <trkpt lat="43.3581" lon="5.78179">
        <ele>354.86</ele>
        <time>2019-01-06T10:48:38Z</time>
      </trkpt>
      <trkpt lat="43.35744" lon="5.78131">
        <ele>358.23</ele>
        <time>2019-01-06T10:48:46Z</time>
      </trkpt>
      <trkpt lat="43.35738" lon="5.78124">
        <ele>357.75</ele>
        <time>2019-01-06T10:48:47Z</time>
      </trkpt>
      <trkpt lat="43.35622" lon="5.77974">
        <ele>359.67</ele>
        <time>2019-01-06T10:49:02Z</time>
      </trkpt>
      <trkpt lat="43.35567" lon="5.7788">
        <ele>363.04</ele>
        <time>2019-01-06T10:49:11Z</time>
      </trkpt>
      <trkpt lat="43.35541" lon="5.77849">
        <ele>364.96</ele>
        <time>2019-01-06T10:49:14Z</time>
      </trkpt>
      <trkpt lat="43.35475" lon="5.77764">
        <ele>364.96</ele>
        <time>2019-01-06T10:49:26Z</time>
      </trkpt>
      <trkpt lat="43.35467" lon="5.77744">
        <ele>363.52</ele>
        <time>2019-01-06T10:49:38Z</time>
      </trkpt>
      <trkpt lat="43.3547" lon="5.77747">
        <ele>367.36</ele>
        <time>2019-01-06T10:49:39Z</time>
      </trkpt>
      <trkpt lat="43.3548" lon="5.77756">
        <ele>363.04</ele>
        <time>2019-01-06T10:49:47Z</time>
      </trkpt>
      <trkpt lat="43.35481" lon="5.77757">
        <ele>366.88</ele>
        <time>2019-01-06T10:49:49Z</time>
      </trkpt>
      <trkpt lat="43.35481" lon="5.77758">
        <ele>363.04</ele>
        <time>2019-01-06T10:49:55Z</time>
      </trkpt>
      <trkpt lat="43.35482" lon="5.77758">
        <ele>366.88</ele>
        <time>2019-01-06T10:49:56Z</time>
      </trkpt>
      <trkpt lat="43.35491" lon="5.77762">
        <ele>362.55</ele>
        <time>2019-01-06T10:50:21Z</time>
      </trkpt>
      <trkpt lat="43.3549" lon="5.77763">
        <ele>365.44</ele>
        <time>2019-01-06T10:50:26Z</time>
      </trkpt>
      <trkpt lat="43.35489" lon="5.77755">
        <ele>365.92</ele>
        <time>2019-01-06T10:50:46Z</time>
      </trkpt>
      <trkpt lat="43.35491" lon="5.77744">
        <ele>367.36</ele>
        <time>2019-01-06T10:51:11Z</time>
      </trkpt>
      <trkpt lat="43.35484" lon="5.77731">
        <ele>367.36</ele>
        <time>2019-01-06T10:51:28Z</time>
      </trkpt>
      <trkpt lat="43.35476" lon="5.77719">
        <ele>368.8</ele>
        <time>2019-01-06T10:51:43Z</time>
      </trkpt>
      <trkpt lat="43.35466" lon="5.7771">
        <ele>369.76</ele>
        <time>2019-01-06T10:51:59Z</time>
      </trkpt>
      <trkpt lat="43.35458" lon="5.77696">
        <ele>369.76</ele>
        <time>2019-01-06T10:52:19Z</time>
      </trkpt>
      <trkpt lat="43.35446" lon="5.77686">
        <ele>370.73</ele>
        <time>2019-01-06T10:52:39Z</time>
      </trkpt>
      <trkpt lat="43.35445" lon="5.77693">
        <ele>371.21</ele>
        <time>2019-01-06T10:53:02Z</time>
      </trkpt>
      <trkpt lat="43.35444" lon="5.77694">
        <ele>367.84</ele>
        <time>2019-01-06T10:53:09Z</time>
      </trkpt>
      <trkpt lat="43.35443" lon="5.77695">
        <ele>372.17</ele>
        <time>2019-01-06T10:53:12Z</time>
      </trkpt>
      <trkpt lat="43.35431" lon="5.77691">
        <ele>371.21</ele>
        <time>2019-01-06T10:53:33Z</time>
      </trkpt>
      <trkpt lat="43.35429" lon="5.77691">
        <ele>372.65</ele>
        <time>2019-01-06T10:53:35Z</time>
      </trkpt>
      <trkpt lat="43.35426" lon="5.7769">
        <ele>370.73</ele>
        <time>2019-01-06T10:53:38Z</time>
      </trkpt>
      <trkpt lat="43.35422" lon="5.77689">
        <ele>372.65</ele>
        <time>2019-01-06T10:53:41Z</time>
      </trkpt>
      <trkpt lat="43.35402" lon="5.77684">
        <ele>373.13</ele>
        <time>2019-01-06T10:54:02Z</time>
      </trkpt>
      <trkpt lat="43.35378" lon="5.7768">
        <ele>375.05</ele>
        <time>2019-01-06T10:54:24Z</time>
      </trkpt>
      <trkpt lat="43.35369" lon="5.7768">
        <ele>376.01</ele>
        <time>2019-01-06T10:54:32Z</time>
      </trkpt>
      <trkpt lat="43.35367" lon="5.7768">
        <ele>376.01</ele>
        <time>2019-01-06T10:54:33Z</time>
      </trkpt>
      <trkpt lat="43.35366" lon="5.7768">
        <ele>376.01</ele>
        <time>2019-01-06T10:54:34Z</time>
      </trkpt>
      <trkpt lat="43.35365" lon="5.77679">
        <ele>376.01</ele>
        <time>2019-01-06T10:54:35Z</time>
      </trkpt>
      <trkpt lat="43.35364" lon="5.77678">
        <ele>374.57</ele>
        <time>2019-01-06T10:54:36Z</time>
      </trkpt>
      <trkpt lat="43.3536" lon="5.77674">
        <ele>376.97</ele>
        <time>2019-01-06T10:54:41Z</time>
      </trkpt>
      <trkpt lat="43.35346" lon="5.77669">
        <ele>378.42</ele>
        <time>2019-01-06T10:54:56Z</time>
      </trkpt>
      <trkpt lat="43.3534" lon="5.77666">
        <ele>378.9</ele>
        <time>2019-01-06T10:55:03Z</time>
      </trkpt>
      <trkpt lat="43.35323" lon="5.77651">
        <ele>380.34</ele>
        <time>2019-01-06T10:55:19Z</time>
      </trkpt>
      <trkpt lat="43.3531" lon="5.77642">
        <ele>380.34</ele>
        <time>2019-01-06T10:55:31Z</time>
      </trkpt>
      <trkpt lat="43.35308" lon="5.77639">
        <ele>382.26</ele>
        <time>2019-01-06T10:55:33Z</time>
      </trkpt>
      <trkpt lat="43.35299" lon="5.77632">
        <ele>383.22</ele>
        <time>2019-01-06T10:55:42Z</time>
      </trkpt>
      <trkpt lat="43.35293" lon="5.77628">
        <ele>382.74</ele>
        <time>2019-01-06T10:55:50Z</time>
      </trkpt>
      <trkpt lat="43.35288" lon="5.77625">
        <ele>385.15</ele>
        <time>2019-01-06T10:55:55Z</time>
      </trkpt>
      <trkpt lat="43.35287" lon="5.77624">
        <ele>383.22</ele>
        <time>2019-01-06T10:55:57Z</time>
      </trkpt>
      <trkpt lat="43.35285" lon="5.77621">
        <ele>384.66</ele>
        <time>2019-01-06T10:55:59Z</time>
      </trkpt>
      <trkpt lat="43.35279" lon="5.77615">
        <ele>386.59</ele>
        <time>2019-01-06T10:56:07Z</time>
      </trkpt>
      <trkpt lat="43.35273" lon="5.77611">
        <ele>386.59</ele>
        <time>2019-01-06T10:56:18Z</time>
      </trkpt>
      <trkpt lat="43.35268" lon="5.77609">
        <ele>388.03</ele>
        <time>2019-01-06T10:56:24Z</time>
      </trkpt>
      <trkpt lat="43.3526" lon="5.77602">
        <ele>388.99</ele>
        <time>2019-01-06T10:56:36Z</time>
      </trkpt>
      <trkpt lat="43.35256" lon="5.776">
        <ele>390.43</ele>
        <time>2019-01-06T10:56:42Z</time>
      </trkpt>
      <trkpt lat="43.35252" lon="5.77597">
        <ele>391.87</ele>
        <time>2019-01-06T10:56:48Z</time>
      </trkpt>
      <trkpt lat="43.35241" lon="5.7759">
        <ele>393.32</ele>
        <time>2019-01-06T10:57:00Z</time>
      </trkpt>
      <trkpt lat="43.35233" lon="5.77581">
        <ele>395.72</ele>
        <time>2019-01-06T10:57:10Z</time>
      </trkpt>
      <trkpt lat="43.35229" lon="5.77578">
        <ele>395.72</ele>
        <time>2019-01-06T10:57:14Z</time>
      </trkpt>
      <trkpt lat="43.35223" lon="5.77573">
        <ele>396.2</ele>
        <time>2019-01-06T10:57:22Z</time>
      </trkpt>
      <trkpt lat="43.35219" lon="5.77571">
        <ele>396.68</ele>
        <time>2019-01-06T10:57:26Z</time>
      </trkpt>
      <trkpt lat="43.35212" lon="5.77561">
        <ele>399.08</ele>
        <time>2019-01-06T10:57:40Z</time>
      </trkpt>
      <trkpt lat="43.35212" lon="5.77556">
        <ele>400.05</ele>
        <time>2019-01-06T10:57:44Z</time>
      </trkpt>
      <trkpt lat="43.35211" lon="5.77555">
        <ele>400.05</ele>
        <time>2019-01-06T10:57:45Z</time>
      </trkpt>
      <trkpt lat="43.35207" lon="5.77537">
        <ele>400.53</ele>
        <time>2019-01-06T10:57:58Z</time>
      </trkpt>
      <trkpt lat="43.35204" lon="5.77521">
        <ele>400.53</ele>
        <time>2019-01-06T10:58:11Z</time>
      </trkpt>
      <trkpt lat="43.35201" lon="5.77504">
        <ele>400.53</ele>
        <time>2019-01-06T10:58:23Z</time>
      </trkpt>
      <trkpt lat="43.35201" lon="5.77484">
        <ele>401.49</ele>
        <time>2019-01-06T10:58:35Z</time>
      </trkpt>
      <trkpt lat="43.35201" lon="5.7746">
        <ele>401.01</ele>
        <time>2019-01-06T10:58:49Z</time>
      </trkpt>
      <trkpt lat="43.35203" lon="5.77455">
        <ele>401.49</ele>
        <time>2019-01-06T10:58:53Z</time>
      </trkpt>
      <trkpt lat="43.35204" lon="5.77451">
        <ele>399.57</ele>
        <time>2019-01-06T10:58:56Z</time>
      </trkpt>
      <trkpt lat="43.35205" lon="5.77449">
        <ele>401.97</ele>
        <time>2019-01-06T10:58:58Z</time>
      </trkpt>
      <trkpt lat="43.35208" lon="5.77446">
        <ele>400.53</ele>
        <time>2019-01-06T10:59:01Z</time>
      </trkpt>
      <trkpt lat="43.35209" lon="5.77444">
        <ele>401.97</ele>
        <time>2019-01-06T10:59:03Z</time>
      </trkpt>
      <trkpt lat="43.35209" lon="5.77431">
        <ele>400.53</ele>
        <time>2019-01-06T10:59:13Z</time>
      </trkpt>
      <trkpt lat="43.35209" lon="5.77428">
        <ele>401.97</ele>
        <time>2019-01-06T10:59:15Z</time>
      </trkpt>
      <trkpt lat="43.3521" lon="5.7741">
        <ele>401.49</ele>
        <time>2019-01-06T10:59:25Z</time>
      </trkpt>
      <trkpt lat="43.35211" lon="5.77404">
        <ele>402.93</ele>
        <time>2019-01-06T10:59:28Z</time>
      </trkpt>
      <trkpt lat="43.35212" lon="5.77396">
        <ele>403.41</ele>
        <time>2019-01-06T10:59:32Z</time>
      </trkpt>
      <trkpt lat="43.35212" lon="5.77378">
        <ele>403.89</ele>
        <time>2019-01-06T10:59:45Z</time>
      </trkpt>
      <trkpt lat="43.35214" lon="5.77353">
        <ele>405.81</ele>
        <time>2019-01-06T10:59:59Z</time>
      </trkpt>
      <trkpt lat="43.35214" lon="5.77335">
        <ele>405.33</ele>
        <time>2019-01-06T11:00:12Z</time>
      </trkpt>
      <trkpt lat="43.35215" lon="5.77332">
        <ele>406.77</ele>
        <time>2019-01-06T11:00:14Z</time>
      </trkpt>
      <trkpt lat="43.3522" lon="5.77306">
        <ele>407.26</ele>
        <time>2019-01-06T11:00:33Z</time>
      </trkpt>
      <trkpt lat="43.35219" lon="5.77301">
        <ele>405.33</ele>
        <time>2019-01-06T11:00:36Z</time>
      </trkpt>
      <trkpt lat="43.35218" lon="5.77297">
        <ele>407.74</ele>
        <time>2019-01-06T11:00:38Z</time>
      </trkpt>
      <trkpt lat="43.35218" lon="5.77293">
        <ele>406.29</ele>
        <time>2019-01-06T11:00:41Z</time>
      </trkpt>
      <trkpt lat="43.3522" lon="5.77269">
        <ele>408.22</ele>
        <time>2019-01-06T11:01:04Z</time>
      </trkpt>
      <trkpt lat="43.35221" lon="5.77266">
        <ele>407.26</ele>
        <time>2019-01-06T11:01:08Z</time>
      </trkpt>
      <trkpt lat="43.35222" lon="5.77265">
        <ele>408.7</ele>
        <time>2019-01-06T11:01:10Z</time>
      </trkpt>
      <trkpt lat="43.35214" lon="5.77239">
        <ele>411.1</ele>
        <time>2019-01-06T11:01:30Z</time>
      </trkpt>
      <trkpt lat="43.35209" lon="5.77226">
        <ele>411.58</ele>
        <time>2019-01-06T11:01:36Z</time>
      </trkpt>
      <trkpt lat="43.35208" lon="5.77224">
        <ele>411.1</ele>
        <time>2019-01-06T11:01:37Z</time>
      </trkpt>
      <trkpt lat="43.35203" lon="5.77199">
        <ele>410.62</ele>
        <time>2019-01-06T11:01:55Z</time>
      </trkpt>
      <trkpt lat="43.35201" lon="5.77179">
        <ele>411.1</ele>
        <time>2019-01-06T11:02:10Z</time>
      </trkpt>
      <trkpt lat="43.35201" lon="5.77176">
        <ele>411.1</ele>
        <time>2019-01-06T11:02:12Z</time>
      </trkpt>
      <trkpt lat="43.35201" lon="5.77175">
        <ele>411.1</ele>
        <time>2019-01-06T11:02:13Z</time>
      </trkpt>
      <trkpt lat="43.35203" lon="5.77143">
        <ele>413.02</ele>
        <time>2019-01-06T11:02:34Z</time>
      </trkpt>
      <trkpt lat="43.35203" lon="5.77135">
        <ele>411.1</ele>
        <time>2019-01-06T11:02:38Z</time>
      </trkpt>
      <trkpt lat="43.35204" lon="5.77131">
        <ele>413.02</ele>
        <time>2019-01-06T11:02:40Z</time>
      </trkpt>
      <trkpt lat="43.35204" lon="5.77128">
        <ele>412.06</ele>
        <time>2019-01-06T11:02:43Z</time>
      </trkpt>
      <trkpt lat="43.35204" lon="5.77126">
        <ele>413.02</ele>
        <time>2019-01-06T11:02:45Z</time>
      </trkpt>
      <trkpt lat="43.35204" lon="5.77122">
        <ele>411.1</ele>
        <time>2019-01-06T11:02:49Z</time>
      </trkpt>
      <trkpt lat="43.35204" lon="5.77121">
        <ele>412.54</ele>
        <time>2019-01-06T11:02:51Z</time>
      </trkpt>
      <trkpt lat="43.35205" lon="5.77118">
        <ele>411.58</ele>
        <time>2019-01-06T11:02:54Z</time>
      </trkpt>
      <trkpt lat="43.35209" lon="5.77115">
        <ele>412.54</ele>
        <time>2019-01-06T11:02:59Z</time>
      </trkpt>
      <trkpt lat="43.35216" lon="5.77108">
        <ele>411.1</ele>
        <time>2019-01-06T11:03:06Z</time>
      </trkpt>
      <trkpt lat="43.35219" lon="5.77106">
        <ele>412.06</ele>
        <time>2019-01-06T11:03:10Z</time>
      </trkpt>
      <trkpt lat="43.35224" lon="5.77105">
        <ele>410.62</ele>
        <time>2019-01-06T11:03:14Z</time>
      </trkpt>
      <trkpt lat="43.35226" lon="5.77106">
        <ele>411.58</ele>
        <time>2019-01-06T11:03:16Z</time>
      </trkpt>
      <trkpt lat="43.35238" lon="5.77102">
        <ele>410.14</ele>
        <time>2019-01-06T11:03:25Z</time>
      </trkpt>
      <trkpt lat="43.3524" lon="5.77101">
        <ele>411.58</ele>
        <time>2019-01-06T11:03:27Z</time>
      </trkpt>
      <trkpt lat="43.35255" lon="5.77099">
        <ele>410.62</ele>
        <time>2019-01-06T11:03:39Z</time>
      </trkpt>
      <trkpt lat="43.35257" lon="5.771">
        <ele>412.06</ele>
        <time>2019-01-06T11:03:41Z</time>
      </trkpt>
      <trkpt lat="43.35271" lon="5.77095">
        <ele>412.54</ele>
        <time>2019-01-06T11:04:01Z</time>
      </trkpt>
      <trkpt lat="43.35278" lon="5.77099">
        <ele>413.5</ele>
        <time>2019-01-06T11:04:19Z</time>
      </trkpt>
      <trkpt lat="43.35279" lon="5.77102">
        <ele>412.06</ele>
        <time>2019-01-06T11:04:23Z</time>
      </trkpt>
      <trkpt lat="43.35278" lon="5.77105">
        <ele>413.5</ele>
        <time>2019-01-06T11:04:30Z</time>
      </trkpt>
      <trkpt lat="43.35283" lon="5.77106">
        <ele>413.98</ele>
        <time>2019-01-06T11:04:37Z</time>
      </trkpt>
      <trkpt lat="43.35295" lon="5.771">
        <ele>415.43</ele>
        <time>2019-01-06T11:04:49Z</time>
      </trkpt>
      <trkpt lat="43.35298" lon="5.77091">
        <ele>415.91</ele>
        <time>2019-01-06T11:05:00Z</time>
      </trkpt>
      <trkpt lat="43.35296" lon="5.77074">
        <ele>416.87</ele>
        <time>2019-01-06T11:05:13Z</time>
      </trkpt>
      <trkpt lat="43.35295" lon="5.77056">
        <ele>417.35</ele>
        <time>2019-01-06T11:05:26Z</time>
      </trkpt>
      <trkpt lat="43.35296" lon="5.77054">
        <ele>417.35</ele>
        <time>2019-01-06T11:05:27Z</time>
      </trkpt>
      <trkpt lat="43.35296" lon="5.77052">
        <ele>417.35</ele>
        <time>2019-01-06T11:05:28Z</time>
      </trkpt>
      <trkpt lat="43.35298" lon="5.77049">
        <ele>417.83</ele>
        <time>2019-01-06T11:05:29Z</time>
      </trkpt>
      <trkpt lat="43.35303" lon="5.77037">
        <ele>419.27</ele>
        <time>2019-01-06T11:05:43Z</time>
      </trkpt>
      <trkpt lat="43.35297" lon="5.77023">
        <ele>420.71</ele>
        <time>2019-01-06T11:05:58Z</time>
      </trkpt>
      <trkpt lat="43.35289" lon="5.7701">
        <ele>421.19</ele>
        <time>2019-01-06T11:06:12Z</time>
      </trkpt>
      <trkpt lat="43.35288" lon="5.77009">
        <ele>421.68</ele>
        <time>2019-01-06T11:06:13Z</time>
      </trkpt>
      <trkpt lat="43.35278" lon="5.76997">
        <ele>423.12</ele>
        <time>2019-01-06T11:06:27Z</time>
      </trkpt>
      <trkpt lat="43.3527" lon="5.76984">
        <ele>424.56</ele>
        <time>2019-01-06T11:06:42Z</time>
      </trkpt>
      <trkpt lat="43.35261" lon="5.76968">
        <ele>425.52</ele>
        <time>2019-01-06T11:06:57Z</time>
      </trkpt>
      <trkpt lat="43.35257" lon="5.76954">
        <ele>426.48</ele>
        <time>2019-01-06T11:07:10Z</time>
      </trkpt>
      <trkpt lat="43.35252" lon="5.76943">
        <ele>427.44</ele>
        <time>2019-01-06T11:07:26Z</time>
      </trkpt>
      <trkpt lat="43.3525" lon="5.76938">
        <ele>427.92</ele>
        <time>2019-01-06T11:07:31Z</time>
      </trkpt>
      <trkpt lat="43.3525" lon="5.76927">
        <ele>428.89</ele>
        <time>2019-01-06T11:07:43Z</time>
      </trkpt>
      <trkpt lat="43.35247" lon="5.76911">
        <ele>429.85</ele>
        <time>2019-01-06T11:07:58Z</time>
      </trkpt>
      <trkpt lat="43.35245" lon="5.76892">
        <ele>431.77</ele>
        <time>2019-01-06T11:08:13Z</time>
      </trkpt>
      <trkpt lat="43.35239" lon="5.76875">
        <ele>433.69</ele>
        <time>2019-01-06T11:08:27Z</time>
      </trkpt>
      <trkpt lat="43.35233" lon="5.76868">
        <ele>435.13</ele>
        <time>2019-01-06T11:08:40Z</time>
      </trkpt>
      <trkpt lat="43.35226" lon="5.7687">
        <ele>433.69</ele>
        <time>2019-01-06T11:08:47Z</time>
      </trkpt>
      <trkpt lat="43.35225" lon="5.76869">
        <ele>433.69</ele>
        <time>2019-01-06T11:08:49Z</time>
      </trkpt>
      <trkpt lat="43.35221" lon="5.76862">
        <ele>434.65</ele>
        <time>2019-01-06T11:09:01Z</time>
      </trkpt>
      <trkpt lat="43.3522" lon="5.76851">
        <ele>435.13</ele>
        <time>2019-01-06T11:09:17Z</time>
      </trkpt>
      <trkpt lat="43.35213" lon="5.76836">
        <ele>437.54</ele>
        <time>2019-01-06T11:09:34Z</time>
      </trkpt>
      <trkpt lat="43.35212" lon="5.76832">
        <ele>438.02</ele>
        <time>2019-01-06T11:09:44Z</time>
      </trkpt>
      <trkpt lat="43.35205" lon="5.76816">
        <ele>438.98</ele>
        <time>2019-01-06T11:09:54Z</time>
      </trkpt>
      <trkpt lat="43.35201" lon="5.76812">
        <ele>440.42</ele>
        <time>2019-01-06T11:09:58Z</time>
      </trkpt>
      <trkpt lat="43.35197" lon="5.76797">
        <ele>441.38</ele>
        <time>2019-01-06T11:10:06Z</time>
      </trkpt>
      <trkpt lat="43.35193" lon="5.76786">
        <ele>442.34</ele>
        <time>2019-01-06T11:10:23Z</time>
      </trkpt>
      <trkpt lat="43.35188" lon="5.76778">
        <ele>443.79</ele>
        <time>2019-01-06T11:10:36Z</time>
      </trkpt>
      <trkpt lat="43.35185" lon="5.76773">
        <ele>443.79</ele>
        <time>2019-01-06T11:10:40Z</time>
      </trkpt>
      <trkpt lat="43.35177" lon="5.76765">
        <ele>443.31</ele>
        <time>2019-01-06T11:10:48Z</time>
      </trkpt>
      <trkpt lat="43.35177" lon="5.76775">
        <ele>443.79</ele>
        <time>2019-01-06T11:11:03Z</time>
      </trkpt>
      <trkpt lat="43.35178" lon="5.76777">
        <ele>445.23</ele>
        <time>2019-01-06T11:11:06Z</time>
      </trkpt>
      <trkpt lat="43.35175" lon="5.76769">
        <ele>444.27</ele>
        <time>2019-01-06T11:11:23Z</time>
      </trkpt>
      <trkpt lat="43.35172" lon="5.76765">
        <ele>445.71</ele>
        <time>2019-01-06T11:11:26Z</time>
      </trkpt>
      <trkpt lat="43.35162" lon="5.76756">
        <ele>445.23</ele>
        <time>2019-01-06T11:11:36Z</time>
      </trkpt>
      <trkpt lat="43.35149" lon="5.76741">
        <ele>444.75</ele>
        <time>2019-01-06T11:11:50Z</time>
      </trkpt>
      <trkpt lat="43.3514" lon="5.76732">
        <ele>445.23</ele>
        <time>2019-01-06T11:12:02Z</time>
      </trkpt>
      <trkpt lat="43.35137" lon="5.76727">
        <ele>444.75</ele>
        <time>2019-01-06T11:12:05Z</time>
      </trkpt>
      <trkpt lat="43.3513" lon="5.76718">
        <ele>444.75</ele>
        <time>2019-01-06T11:12:18Z</time>
      </trkpt>
      <trkpt lat="43.35122" lon="5.76704">
        <ele>444.75</ele>
        <time>2019-01-06T11:12:36Z</time>
      </trkpt>
      <trkpt lat="43.35115" lon="5.76696">
        <ele>444.27</ele>
        <time>2019-01-06T11:12:48Z</time>
      </trkpt>
      <trkpt lat="43.35108" lon="5.76684">
        <ele>444.27</ele>
        <time>2019-01-06T11:13:02Z</time>
      </trkpt>
      <trkpt lat="43.35101" lon="5.76666">
        <ele>444.27</ele>
        <time>2019-01-06T11:13:19Z</time>
      </trkpt>
      <trkpt lat="43.35097" lon="5.76652">
        <ele>443.79</ele>
        <time>2019-01-06T11:13:31Z</time>
      </trkpt>
      <trkpt lat="43.35094" lon="5.76638">
        <ele>442.34</ele>
        <time>2019-01-06T11:13:42Z</time>
      </trkpt>
      <trkpt lat="43.35091" lon="5.76628">
        <ele>441.38</ele>
        <time>2019-01-06T11:13:52Z</time>
      </trkpt>
      <trkpt lat="43.35092" lon="5.76622">
        <ele>440.9</ele>
        <time>2019-01-06T11:14:03Z</time>
      </trkpt>
      <trkpt lat="43.35087" lon="5.76604">
        <ele>440.9</ele>
        <time>2019-01-06T11:14:17Z</time>
      </trkpt>
      <trkpt lat="43.35087" lon="5.76594">
        <ele>439.94</ele>
        <time>2019-01-06T11:14:23Z</time>
      </trkpt>
      <trkpt lat="43.35086" lon="5.76593">
        <ele>439.94</ele>
        <time>2019-01-06T11:14:24Z</time>
      </trkpt>
      <trkpt lat="43.35086" lon="5.76591">
        <ele>439.94</ele>
        <time>2019-01-06T11:14:25Z</time>
      </trkpt>
      <trkpt lat="43.35085" lon="5.76588">
        <ele>439.94</ele>
        <time>2019-01-06T11:14:27Z</time>
      </trkpt>
      <trkpt lat="43.35085" lon="5.76586">
        <ele>439.46</ele>
        <time>2019-01-06T11:14:28Z</time>
      </trkpt>
      <trkpt lat="43.35084" lon="5.76585">
        <ele>439.46</ele>
        <time>2019-01-06T11:14:29Z</time>
      </trkpt>
      <trkpt lat="43.3508" lon="5.76574">
        <ele>438.98</ele>
        <time>2019-01-06T11:14:37Z</time>
      </trkpt>
      <trkpt lat="43.35081" lon="5.76572">
        <ele>438.5</ele>
        <time>2019-01-06T11:14:38Z</time>
      </trkpt>
      <trkpt lat="43.3508" lon="5.7657">
        <ele>438.5</ele>
        <time>2019-01-06T11:14:39Z</time>
      </trkpt>
      <trkpt lat="43.3508" lon="5.76555">
        <ele>436.58</ele>
        <time>2019-01-06T11:14:50Z</time>
      </trkpt>
      <trkpt lat="43.3508" lon="5.76547">
        <ele>436.58</ele>
        <time>2019-01-06T11:14:56Z</time>
      </trkpt>
      <trkpt lat="43.3508" lon="5.76546">
        <ele>436.1</ele>
        <time>2019-01-06T11:14:57Z</time>
      </trkpt>
      <trkpt lat="43.35075" lon="5.76525">
        <ele>435.61</ele>
        <time>2019-01-06T11:15:12Z</time>
      </trkpt>
      <trkpt lat="43.35061" lon="5.76507">
        <ele>435.61</ele>
        <time>2019-01-06T11:15:27Z</time>
      </trkpt>
      <trkpt lat="43.35059" lon="5.76492">
        <ele>434.65</ele>
        <time>2019-01-06T11:15:39Z</time>
      </trkpt>
      <trkpt lat="43.35057" lon="5.76485">
        <ele>434.65</ele>
        <time>2019-01-06T11:15:44Z</time>
      </trkpt>
      <trkpt lat="43.35054" lon="5.76479">
        <ele>434.17</ele>
        <time>2019-01-06T11:15:59Z</time>
      </trkpt>
      <trkpt lat="43.35051" lon="5.76477">
        <ele>433.69</ele>
        <time>2019-01-06T11:16:06Z</time>
      </trkpt>
      <trkpt lat="43.35044" lon="5.76471">
        <ele>433.21</ele>
        <time>2019-01-06T11:16:15Z</time>
      </trkpt>
      <trkpt lat="43.35043" lon="5.76471">
        <ele>433.21</ele>
        <time>2019-01-06T11:16:16Z</time>
      </trkpt>
      <trkpt lat="43.35037" lon="5.76469">
        <ele>432.25</ele>
        <time>2019-01-06T11:16:25Z</time>
      </trkpt>
      <trkpt lat="43.35035" lon="5.7647">
        <ele>432.25</ele>
        <time>2019-01-06T11:16:28Z</time>
      </trkpt>
      <trkpt lat="43.35034" lon="5.76471">
        <ele>431.77</ele>
        <time>2019-01-06T11:16:29Z</time>
      </trkpt>
      <trkpt lat="43.35032" lon="5.76472">
        <ele>431.77</ele>
        <time>2019-01-06T11:16:30Z</time>
      </trkpt>
      <trkpt lat="43.35031" lon="5.76473">
        <ele>431.77</ele>
        <time>2019-01-06T11:16:31Z</time>
      </trkpt>
      <trkpt lat="43.35027" lon="5.76474">
        <ele>430.81</ele>
        <time>2019-01-06T11:16:36Z</time>
      </trkpt>
      <trkpt lat="43.35014" lon="5.76477">
        <ele>430.33</ele>
        <time>2019-01-06T11:16:49Z</time>
      </trkpt>
      <trkpt lat="43.35008" lon="5.76476">
        <ele>429.85</ele>
        <time>2019-01-06T11:17:00Z</time>
      </trkpt>
      <trkpt lat="43.35006" lon="5.76475">
        <ele>429.85</ele>
        <time>2019-01-06T11:17:02Z</time>
      </trkpt>
      <trkpt lat="43.35004" lon="5.76474">
        <ele>429.85</ele>
        <time>2019-01-06T11:17:03Z</time>
      </trkpt>
      <trkpt lat="43.35003" lon="5.76473">
        <ele>429.37</ele>
        <time>2019-01-06T11:17:04Z</time>
      </trkpt>
      <trkpt lat="43.35001" lon="5.76472">
        <ele>429.37</ele>
        <time>2019-01-06T11:17:05Z</time>
      </trkpt>
      <trkpt lat="43.34998" lon="5.76471">
        <ele>429.85</ele>
        <time>2019-01-06T11:17:06Z</time>
      </trkpt>
      <trkpt lat="43.34997" lon="5.76471">
        <ele>429.85</ele>
        <time>2019-01-06T11:17:07Z</time>
      </trkpt>
      <trkpt lat="43.34995" lon="5.7647">
        <ele>429.37</ele>
        <time>2019-01-06T11:17:11Z</time>
      </trkpt>
      <trkpt lat="43.34994" lon="5.76469">
        <ele>428.89</ele>
        <time>2019-01-06T11:17:12Z</time>
      </trkpt>
      <trkpt lat="43.34992" lon="5.76468">
        <ele>428.89</ele>
        <time>2019-01-06T11:17:13Z</time>
      </trkpt>
      <trkpt lat="43.3499" lon="5.76467">
        <ele>428.4</ele>
        <time>2019-01-06T11:17:14Z</time>
      </trkpt>
      <trkpt lat="43.34989" lon="5.76465">
        <ele>428.4</ele>
        <time>2019-01-06T11:17:15Z</time>
      </trkpt>
      <trkpt lat="43.34987" lon="5.76464">
        <ele>428.4</ele>
        <time>2019-01-06T11:17:16Z</time>
      </trkpt>
      <trkpt lat="43.34986" lon="5.76464">
        <ele>428.4</ele>
        <time>2019-01-06T11:17:17Z</time>
      </trkpt>
      <trkpt lat="43.34977" lon="5.7646">
        <ele>427.44</ele>
        <time>2019-01-06T11:17:28Z</time>
      </trkpt>
      <trkpt lat="43.34973" lon="5.7646">
        <ele>427.44</ele>
        <time>2019-01-06T11:17:34Z</time>
      </trkpt>
      <trkpt lat="43.34972" lon="5.76459">
        <ele>427.44</ele>
        <time>2019-01-06T11:17:35Z</time>
      </trkpt>
      <trkpt lat="43.34971" lon="5.76458">
        <ele>427.44</ele>
        <time>2019-01-06T11:17:36Z</time>
      </trkpt>
      <trkpt lat="43.34967" lon="5.76461">
        <ele>427.44</ele>
        <time>2019-01-06T11:17:51Z</time>
      </trkpt>
      <trkpt lat="43.34965" lon="5.76463">
        <ele>428.89</ele>
        <time>2019-01-06T11:17:58Z</time>
      </trkpt>
      <trkpt lat="43.34964" lon="5.76463">
        <ele>428.89</ele>
        <time>2019-01-06T11:17:59Z</time>
      </trkpt>
      <trkpt lat="43.34964" lon="5.76455">
        <ele>427.44</ele>
        <time>2019-01-06T11:18:10Z</time>
      </trkpt>
      <trkpt lat="43.34962" lon="5.76449">
        <ele>426</ele>
        <time>2019-01-06T11:18:21Z</time>
      </trkpt>
      <trkpt lat="43.34957" lon="5.76441">
        <ele>423.6</ele>
        <time>2019-01-06T11:18:38Z</time>
      </trkpt>
      <trkpt lat="43.34953" lon="5.76432">
        <ele>421.19</ele>
        <time>2019-01-06T11:18:53Z</time>
      </trkpt>
      <trkpt lat="43.34948" lon="5.76433">
        <ele>419.75</ele>
        <time>2019-01-06T11:19:10Z</time>
      </trkpt>
      <trkpt lat="43.34946" lon="5.76432">
        <ele>421.19</ele>
        <time>2019-01-06T11:19:33Z</time>
      </trkpt>
      <trkpt lat="43.34946" lon="5.76432">
        <ele>421.19</ele>
        <time>2019-01-06T11:19:34Z</time>
      </trkpt>
      <trkpt lat="43.34946" lon="5.76433">
        <ele>419.27</ele>
        <time>2019-01-06T11:19:37Z</time>
      </trkpt>
      <trkpt lat="43.34948" lon="5.76436">
        <ele>418.79</ele>
        <time>2019-01-06T11:19:42Z</time>
      </trkpt>
      <trkpt lat="43.34955" lon="5.76416">
        <ele>421.19</ele>
        <time>2019-01-06T11:20:31Z</time>
      </trkpt>
      <trkpt lat="43.34947" lon="5.76413">
        <ele>413.5</ele>
        <time>2019-01-06T11:20:39Z</time>
      </trkpt>
      <trkpt lat="43.34946" lon="5.76413">
        <ele>416.87</ele>
        <time>2019-01-06T11:20:40Z</time>
      </trkpt>
      <trkpt lat="43.34946" lon="5.76412">
        <ele>419.75</ele>
        <time>2019-01-06T11:20:41Z</time>
      </trkpt>
      <trkpt lat="43.34946" lon="5.76412">
        <ele>419.75</ele>
        <time>2019-01-06T11:20:42Z</time>
      </trkpt>
      <trkpt lat="43.34945" lon="5.76409">
        <ele>424.56</ele>
        <time>2019-01-06T11:20:46Z</time>
      </trkpt>
      <trkpt lat="43.34943" lon="5.76404">
        <ele>420.71</ele>
        <time>2019-01-06T11:20:51Z</time>
      </trkpt>
      <trkpt lat="43.34947" lon="5.76422">
        <ele>420.71</ele>
        <time>2019-01-06T11:21:08Z</time>
      </trkpt>
      <trkpt lat="43.3495" lon="5.76431">
        <ele>421.19</ele>
        <time>2019-01-06T11:21:36Z</time>
      </trkpt>
      <trkpt lat="43.34953" lon="5.76428">
        <ele>420.23</ele>
        <time>2019-01-06T11:21:59Z</time>
      </trkpt>
      <trkpt lat="43.34953" lon="5.76426">
        <ele>420.23</ele>
        <time>2019-01-06T11:22:00Z</time>
      </trkpt>
      <trkpt lat="43.3495" lon="5.76424">
        <ele>421.68</ele>
        <time>2019-01-06T11:22:24Z</time>
      </trkpt>
      <trkpt lat="43.34949" lon="5.76428">
        <ele>422.16</ele>
        <time>2019-01-06T11:22:51Z</time>
      </trkpt>
      <trkpt lat="43.34948" lon="5.76426">
        <ele>420.71</ele>
        <time>2019-01-06T11:23:14Z</time>
      </trkpt>
      <trkpt lat="43.34948" lon="5.7644">
        <ele>421.68</ele>
        <time>2019-01-06T11:23:37Z</time>
      </trkpt>
      <trkpt lat="43.34952" lon="5.76432">
        <ele>423.12</ele>
        <time>2019-01-06T11:24:00Z</time>
      </trkpt>
      <trkpt lat="43.34959" lon="5.76422">
        <ele>423.6</ele>
        <time>2019-01-06T11:24:21Z</time>
      </trkpt>
      <trkpt lat="43.34958" lon="5.7643">
        <ele>426.96</ele>
        <time>2019-01-06T11:24:36Z</time>
      </trkpt>
      <trkpt lat="43.34961" lon="5.76442">
        <ele>429.85</ele>
        <time>2019-01-06T11:24:56Z</time>
      </trkpt>
      <trkpt lat="43.34961" lon="5.76447">
        <ele>433.69</ele>
        <time>2019-01-06T11:25:09Z</time>
      </trkpt>
      <trkpt lat="43.34964" lon="5.76448">
        <ele>433.21</ele>
        <time>2019-01-06T11:25:20Z</time>
      </trkpt>
      <trkpt lat="43.34953" lon="5.76451">
        <ele>435.13</ele>
        <time>2019-01-06T11:25:33Z</time>
      </trkpt>
      <trkpt lat="43.34952" lon="5.7645">
        <ele>433.21</ele>
        <time>2019-01-06T11:25:35Z</time>
      </trkpt>
      <trkpt lat="43.34951" lon="5.76449">
        <ele>435.61</ele>
        <time>2019-01-06T11:25:37Z</time>
      </trkpt>
      <trkpt lat="43.34938" lon="5.76444">
        <ele>435.61</ele>
        <time>2019-01-06T11:25:51Z</time>
      </trkpt>
      <trkpt lat="43.34928" lon="5.76438">
        <ele>434.17</ele>
        <time>2019-01-06T11:26:14Z</time>
      </trkpt>
      <trkpt lat="43.34911" lon="5.76437">
        <ele>433.69</ele>
        <time>2019-01-06T11:26:35Z</time>
      </trkpt>
      <trkpt lat="43.34908" lon="5.76436">
        <ele>433.69</ele>
        <time>2019-01-06T11:26:37Z</time>
      </trkpt>
      <trkpt lat="43.34895" lon="5.7643">
        <ele>433.21</ele>
        <time>2019-01-06T11:26:44Z</time>
      </trkpt>
      <trkpt lat="43.34894" lon="5.76429">
        <ele>433.21</ele>
        <time>2019-01-06T11:26:45Z</time>
      </trkpt>
      <trkpt lat="43.34889" lon="5.76425">
        <ele>433.21</ele>
        <time>2019-01-06T11:26:50Z</time>
      </trkpt>
      <trkpt lat="43.34873" lon="5.76425">
        <ele>433.21</ele>
        <time>2019-01-06T11:27:06Z</time>
      </trkpt>
      <trkpt lat="43.34869" lon="5.76423">
        <ele>434.17</ele>
        <time>2019-01-06T11:27:29Z</time>
      </trkpt>
      <trkpt lat="43.3487" lon="5.76418">
        <ele>433.21</ele>
        <time>2019-01-06T11:27:50Z</time>
      </trkpt>
      <trkpt lat="43.34865" lon="5.76424">
        <ele>435.13</ele>
        <time>2019-01-06T11:28:06Z</time>
      </trkpt>
      <trkpt lat="43.34861" lon="5.76424">
        <ele>435.61</ele>
        <time>2019-01-06T11:28:20Z</time>
      </trkpt>
      <trkpt lat="43.34847" lon="5.76419">
        <ele>440.9</ele>
        <time>2019-01-06T11:28:41Z</time>
      </trkpt>
      <trkpt lat="43.34846" lon="5.7642">
        <ele>440.9</ele>
        <time>2019-01-06T11:28:42Z</time>
      </trkpt>
      <trkpt lat="43.34839" lon="5.76423">
        <ele>439.46</ele>
        <time>2019-01-06T11:28:45Z</time>
      </trkpt>
      <trkpt lat="43.34836" lon="5.76425">
        <ele>440.42</ele>
        <time>2019-01-06T11:28:47Z</time>
      </trkpt>
      <trkpt lat="43.34806" lon="5.76432">
        <ele>442.82</ele>
        <time>2019-01-06T11:29:09Z</time>
      </trkpt>
      <trkpt lat="43.34777" lon="5.76428">
        <ele>442.82</ele>
        <time>2019-01-06T11:29:29Z</time>
      </trkpt>
      <trkpt lat="43.34766" lon="5.76426">
        <ele>442.34</ele>
        <time>2019-01-06T11:29:38Z</time>
      </trkpt>
      <trkpt lat="43.34743" lon="5.76408">
        <ele>443.79</ele>
        <time>2019-01-06T11:30:01Z</time>
      </trkpt>
      <trkpt lat="43.34738" lon="5.76393">
        <ele>445.23</ele>
        <time>2019-01-06T11:30:13Z</time>
      </trkpt>
      <trkpt lat="43.34737" lon="5.76392">
        <ele>443.79</ele>
        <time>2019-01-06T11:30:15Z</time>
      </trkpt>
      <trkpt lat="43.34732" lon="5.76386">
        <ele>445.23</ele>
        <time>2019-01-06T11:30:21Z</time>
      </trkpt>
      <trkpt lat="43.34722" lon="5.7638">
        <ele>446.67</ele>
        <time>2019-01-06T11:30:44Z</time>
      </trkpt>
      <trkpt lat="43.34721" lon="5.76378">
        <ele>443.79</ele>
        <time>2019-01-06T11:30:50Z</time>
      </trkpt>
      <trkpt lat="43.3472" lon="5.76376">
        <ele>448.59</ele>
        <time>2019-01-06T11:30:54Z</time>
      </trkpt>
      <trkpt lat="43.34719" lon="5.76376">
        <ele>448.59</ele>
        <time>2019-01-06T11:30:55Z</time>
      </trkpt>
      <trkpt lat="43.34718" lon="5.76376">
        <ele>444.75</ele>
        <time>2019-01-06T11:30:56Z</time>
      </trkpt>
      <trkpt lat="43.34717" lon="5.76376">
        <ele>448.11</ele>
        <time>2019-01-06T11:30:57Z</time>
      </trkpt>
      <trkpt lat="43.34713" lon="5.76375">
        <ele>446.19</ele>
        <time>2019-01-06T11:31:00Z</time>
      </trkpt>
      <trkpt lat="43.34705" lon="5.76371">
        <ele>446.19</ele>
        <time>2019-01-06T11:31:09Z</time>
      </trkpt>
      <trkpt lat="43.34704" lon="5.76371">
        <ele>448.11</ele>
        <time>2019-01-06T11:31:11Z</time>
      </trkpt>
      <trkpt lat="43.34696" lon="5.76364">
        <ele>448.59</ele>
        <time>2019-01-06T11:31:23Z</time>
      </trkpt>
      <trkpt lat="43.34693" lon="5.76351">
        <ele>448.59</ele>
        <time>2019-01-06T11:31:36Z</time>
      </trkpt>
      <trkpt lat="43.34692" lon="5.7635">
        <ele>450.52</ele>
        <time>2019-01-06T11:31:38Z</time>
      </trkpt>
      <trkpt lat="43.34672" lon="5.76321">
        <ele>451.48</ele>
        <time>2019-01-06T11:31:55Z</time>
      </trkpt>
      <trkpt lat="43.34671" lon="5.76319">
        <ele>451.48</ele>
        <time>2019-01-06T11:31:57Z</time>
      </trkpt>
      <trkpt lat="43.34666" lon="5.76313">
        <ele>451.48</ele>
        <time>2019-01-06T11:32:03Z</time>
      </trkpt>
      <trkpt lat="43.34657" lon="5.76293">
        <ele>452.44</ele>
        <time>2019-01-06T11:32:19Z</time>
      </trkpt>
      <trkpt lat="43.34645" lon="5.76281">
        <ele>451.48</ele>
        <time>2019-01-06T11:32:35Z</time>
      </trkpt>
      <trkpt lat="43.34627" lon="5.76277">
        <ele>454.36</ele>
        <time>2019-01-06T11:32:56Z</time>
      </trkpt>
      <trkpt lat="43.3462" lon="5.76278">
        <ele>454.36</ele>
        <time>2019-01-06T11:33:06Z</time>
      </trkpt>
      <trkpt lat="43.34614" lon="5.76282">
        <ele>450.52</ele>
        <time>2019-01-06T11:33:16Z</time>
      </trkpt>
      <trkpt lat="43.34613" lon="5.76283">
        <ele>450.52</ele>
        <time>2019-01-06T11:33:17Z</time>
      </trkpt>
      <trkpt lat="43.34613" lon="5.76284">
        <ele>456.76</ele>
        <time>2019-01-06T11:33:18Z</time>
      </trkpt>
      <trkpt lat="43.34612" lon="5.76284">
        <ele>455.32</ele>
        <time>2019-01-06T11:33:19Z</time>
      </trkpt>
      <trkpt lat="43.34612" lon="5.76286">
        <ele>453.88</ele>
        <time>2019-01-06T11:33:21Z</time>
      </trkpt>
      <trkpt lat="43.3461" lon="5.76287">
        <ele>450.03</ele>
        <time>2019-01-06T11:33:25Z</time>
      </trkpt>
      <trkpt lat="43.3461" lon="5.76287">
        <ele>453.4</ele>
        <time>2019-01-06T11:33:26Z</time>
      </trkpt>
      <trkpt lat="43.3461" lon="5.76288">
        <ele>453.4</ele>
        <time>2019-01-06T11:33:27Z</time>
      </trkpt>
      <trkpt lat="43.34606" lon="5.76281">
        <ele>463.01</ele>
        <time>2019-01-06T11:33:45Z</time>
      </trkpt>
      <trkpt lat="43.34605" lon="5.7628">
        <ele>463.01</ele>
        <time>2019-01-06T11:33:46Z</time>
      </trkpt>
      <trkpt lat="43.34605" lon="5.7628">
        <ele>454.84</ele>
        <time>2019-01-06T11:33:47Z</time>
      </trkpt>
      <trkpt lat="43.346" lon="5.76275">
        <ele>456.28</ele>
        <time>2019-01-06T11:33:52Z</time>
      </trkpt>
      <trkpt lat="43.34599" lon="5.76279">
        <ele>457.24</ele>
        <time>2019-01-06T11:33:57Z</time>
      </trkpt>
      <trkpt lat="43.34595" lon="5.76291">
        <ele>460.61</ele>
        <time>2019-01-06T11:34:05Z</time>
      </trkpt>
      <trkpt lat="43.34596" lon="5.76294">
        <ele>457.72</ele>
        <time>2019-01-06T11:34:08Z</time>
      </trkpt>
      <trkpt lat="43.34596" lon="5.76297">
        <ele>462.05</ele>
        <time>2019-01-06T11:34:11Z</time>
      </trkpt>
      <trkpt lat="43.3459" lon="5.76295">
        <ele>458.69</ele>
        <time>2019-01-06T11:34:22Z</time>
      </trkpt>
      <trkpt lat="43.34585" lon="5.76296">
        <ele>462.53</ele>
        <time>2019-01-06T11:34:32Z</time>
      </trkpt>
      <trkpt lat="43.34587" lon="5.76296">
        <ele>461.09</ele>
        <time>2019-01-06T11:34:50Z</time>
      </trkpt>
      <trkpt lat="43.34591" lon="5.76297">
        <ele>462.05</ele>
        <time>2019-01-06T11:35:11Z</time>
      </trkpt>
      <trkpt lat="43.34592" lon="5.76299">
        <ele>462.53</ele>
        <time>2019-01-06T11:35:39Z</time>
      </trkpt>
      <trkpt lat="43.34588" lon="5.76297">
        <ele>463.01</ele>
        <time>2019-01-06T11:35:59Z</time>
      </trkpt>
      <trkpt lat="43.3459" lon="5.76299">
        <ele>463.01</ele>
        <time>2019-01-06T11:36:17Z</time>
      </trkpt>
      <trkpt lat="43.34592" lon="5.763">
        <ele>461.57</ele>
        <time>2019-01-06T11:36:36Z</time>
      </trkpt>
      <trkpt lat="43.34592" lon="5.76295">
        <ele>461.09</ele>
        <time>2019-01-06T11:36:50Z</time>
      </trkpt>
      <trkpt lat="43.34592" lon="5.76294">
        <ele>460.61</ele>
        <time>2019-01-06T11:37:07Z</time>
      </trkpt>
      <trkpt lat="43.34592" lon="5.76295">
        <ele>461.09</ele>
        <time>2019-01-06T11:37:26Z</time>
      </trkpt>
      <trkpt lat="43.34593" lon="5.76292">
        <ele>460.61</ele>
        <time>2019-01-06T11:37:42Z</time>
      </trkpt>
      <trkpt lat="43.34596" lon="5.76293">
        <ele>460.61</ele>
        <time>2019-01-06T11:38:04Z</time>
      </trkpt>
      <trkpt lat="43.34595" lon="5.76301">
        <ele>461.09</ele>
        <time>2019-01-06T11:38:22Z</time>
      </trkpt>
      <trkpt lat="43.34595" lon="5.76302">
        <ele>457.24</ele>
        <time>2019-01-06T11:38:23Z</time>
      </trkpt>
      <trkpt lat="43.34595" lon="5.76302">
        <ele>463.49</ele>
        <time>2019-01-06T11:38:24Z</time>
      </trkpt>
      <trkpt lat="43.34595" lon="5.76303">
        <ele>459.65</ele>
        <time>2019-01-06T11:38:25Z</time>
      </trkpt>
      <trkpt lat="43.34602" lon="5.76294">
        <ele>461.09</ele>
        <time>2019-01-06T11:38:44Z</time>
      </trkpt>
      <trkpt lat="43.34603" lon="5.76295">
        <ele>459.65</ele>
        <time>2019-01-06T11:38:46Z</time>
      </trkpt>
      <trkpt lat="43.34604" lon="5.76295">
        <ele>455.32</ele>
        <time>2019-01-06T11:38:48Z</time>
      </trkpt>
      <trkpt lat="43.34604" lon="5.76295">
        <ele>458.69</ele>
        <time>2019-01-06T11:38:49Z</time>
      </trkpt>
      <trkpt lat="43.34604" lon="5.76295">
        <ele>458.69</ele>
        <time>2019-01-06T11:38:50Z</time>
      </trkpt>
      <trkpt lat="43.34607" lon="5.76294">
        <ele>461.09</ele>
        <time>2019-01-06T11:38:55Z</time>
      </trkpt>
      <trkpt lat="43.34609" lon="5.76295">
        <ele>462.05</ele>
        <time>2019-01-06T11:38:58Z</time>
      </trkpt>
      <trkpt lat="43.34609" lon="5.76295">
        <ele>459.17</ele>
        <time>2019-01-06T11:38:59Z</time>
      </trkpt>
      <trkpt lat="43.3461" lon="5.76295">
        <ele>460.61</ele>
        <time>2019-01-06T11:39:00Z</time>
      </trkpt>
      <trkpt lat="43.34612" lon="5.76295">
        <ele>461.57</ele>
        <time>2019-01-06T11:39:02Z</time>
      </trkpt>
      <trkpt lat="43.34613" lon="5.76295">
        <ele>460.13</ele>
        <time>2019-01-06T11:39:03Z</time>
      </trkpt>
      <trkpt lat="43.34615" lon="5.76297">
        <ele>454.36</ele>
        <time>2019-01-06T11:39:06Z</time>
      </trkpt>
      <trkpt lat="43.34615" lon="5.76297">
        <ele>458.21</ele>
        <time>2019-01-06T11:39:07Z</time>
      </trkpt>
      <trkpt lat="43.34619" lon="5.76299">
        <ele>453.4</ele>
        <time>2019-01-06T11:39:16Z</time>
      </trkpt>
      <trkpt lat="43.34619" lon="5.76299">
        <ele>453.4</ele>
        <time>2019-01-06T11:39:17Z</time>
      </trkpt>
      <trkpt lat="43.34619" lon="5.76298">
        <ele>463.01</ele>
        <time>2019-01-06T11:39:18Z</time>
      </trkpt>
      <trkpt lat="43.34619" lon="5.76297">
        <ele>460.61</ele>
        <time>2019-01-06T11:39:19Z</time>
      </trkpt>
      <trkpt lat="43.34618" lon="5.76296">
        <ele>460.13</ele>
        <time>2019-01-06T11:39:21Z</time>
      </trkpt>
      <trkpt lat="43.34616" lon="5.76289">
        <ele>464.45</ele>
        <time>2019-01-06T11:39:28Z</time>
      </trkpt>
      <trkpt lat="43.34614" lon="5.76286">
        <ele>460.61</ele>
        <time>2019-01-06T11:39:31Z</time>
      </trkpt>
      <trkpt lat="43.34596" lon="5.7629">
        <ele>460.13</ele>
        <time>2019-01-06T11:39:50Z</time>
      </trkpt>
      <trkpt lat="43.34596" lon="5.76292">
        <ele>453.88</ele>
        <time>2019-01-06T11:39:53Z</time>
      </trkpt>
      <trkpt lat="43.34597" lon="5.76293">
        <ele>453.88</ele>
        <time>2019-01-06T11:39:54Z</time>
      </trkpt>
      <trkpt lat="43.34597" lon="5.76293">
        <ele>466.38</ele>
        <time>2019-01-06T11:39:55Z</time>
      </trkpt>
      <trkpt lat="43.34597" lon="5.76293">
        <ele>461.09</ele>
        <time>2019-01-06T11:39:56Z</time>
      </trkpt>
      <trkpt lat="43.34599" lon="5.76294">
        <ele>459.65</ele>
        <time>2019-01-06T11:40:05Z</time>
      </trkpt>
      <trkpt lat="43.34601" lon="5.76292">
        <ele>462.53</ele>
        <time>2019-01-06T11:40:13Z</time>
      </trkpt>
      <trkpt lat="43.34601" lon="5.76292">
        <ele>458.21</ele>
        <time>2019-01-06T11:40:14Z</time>
      </trkpt>
      <trkpt lat="43.34602" lon="5.76292">
        <ele>457.72</ele>
        <time>2019-01-06T11:40:16Z</time>
      </trkpt>
      <trkpt lat="43.34602" lon="5.76292">
        <ele>464.45</ele>
        <time>2019-01-06T11:40:17Z</time>
      </trkpt>
      <trkpt lat="43.34603" lon="5.76288">
        <ele>457.72</ele>
        <time>2019-01-06T11:40:22Z</time>
      </trkpt>
      <trkpt lat="43.34602" lon="5.76288">
        <ele>463.01</ele>
        <time>2019-01-06T11:40:23Z</time>
      </trkpt>
      <trkpt lat="43.34602" lon="5.76288">
        <ele>460.61</ele>
        <time>2019-01-06T11:40:24Z</time>
      </trkpt>
      <trkpt lat="43.34599" lon="5.76288">
        <ele>455.32</ele>
        <time>2019-01-06T11:40:34Z</time>
      </trkpt>
      <trkpt lat="43.34598" lon="5.76288">
        <ele>464.93</ele>
        <time>2019-01-06T11:40:35Z</time>
      </trkpt>
      <trkpt lat="43.34598" lon="5.76289">
        <ele>460.61</ele>
        <time>2019-01-06T11:40:36Z</time>
      </trkpt>
      <trkpt lat="43.346" lon="5.76289">
        <ele>460.13</ele>
        <time>2019-01-06T11:40:56Z</time>
      </trkpt>
      <trkpt lat="43.34605" lon="5.76278">
        <ele>457.72</ele>
        <time>2019-01-06T11:41:19Z</time>
      </trkpt>
      <trkpt lat="43.34618" lon="5.76279">
        <ele>456.28</ele>
        <time>2019-01-06T11:41:40Z</time>
      </trkpt>
      <trkpt lat="43.34643" lon="5.76275">
        <ele>455.8</ele>
        <time>2019-01-06T11:42:00Z</time>
      </trkpt>
      <trkpt lat="43.34629" lon="5.76269">
        <ele>457.72</ele>
        <time>2019-01-06T11:42:20Z</time>
      </trkpt>
      <trkpt lat="43.34624" lon="5.7627">
        <ele>459.17</ele>
        <time>2019-01-06T11:42:25Z</time>
      </trkpt>
      <trkpt lat="43.34622" lon="5.76271">
        <ele>457.72</ele>
        <time>2019-01-06T11:42:27Z</time>
      </trkpt>
      <trkpt lat="43.34615" lon="5.76275">
        <ele>459.17</ele>
        <time>2019-01-06T11:42:34Z</time>
      </trkpt>
      <trkpt lat="43.34611" lon="5.76271">
        <ele>457.72</ele>
        <time>2019-01-06T11:42:41Z</time>
      </trkpt>
      <trkpt lat="43.34616" lon="5.76257">
        <ele>457.24</ele>
        <time>2019-01-06T11:43:02Z</time>
      </trkpt>
      <trkpt lat="43.34622" lon="5.76259">
        <ele>456.76</ele>
        <time>2019-01-06T11:43:23Z</time>
      </trkpt>
      <trkpt lat="43.3463" lon="5.76256">
        <ele>457.72</ele>
        <time>2019-01-06T11:43:41Z</time>
      </trkpt>
      <trkpt lat="43.34633" lon="5.76256">
        <ele>456.28</ele>
        <time>2019-01-06T11:43:43Z</time>
      </trkpt>
      <trkpt lat="43.34639" lon="5.76257">
        <ele>457.72</ele>
        <time>2019-01-06T11:43:45Z</time>
      </trkpt>
      <trkpt lat="43.34655" lon="5.76262">
        <ele>456.28</ele>
        <time>2019-01-06T11:44:02Z</time>
      </trkpt>
      <trkpt lat="43.34664" lon="5.76268">
        <ele>455.8</ele>
        <time>2019-01-06T11:44:14Z</time>
      </trkpt>
      <trkpt lat="43.34676" lon="5.76277">
        <ele>454.84</ele>
        <time>2019-01-06T11:44:29Z</time>
      </trkpt>
      <trkpt lat="43.34683" lon="5.76286">
        <ele>453.88</ele>
        <time>2019-01-06T11:44:41Z</time>
      </trkpt>
      <trkpt lat="43.34687" lon="5.76294">
        <ele>452.92</ele>
        <time>2019-01-06T11:44:51Z</time>
      </trkpt>
      <trkpt lat="43.34688" lon="5.76297">
        <ele>452.44</ele>
        <time>2019-01-06T11:45:12Z</time>
      </trkpt>
      <trkpt lat="43.34692" lon="5.76302">
        <ele>453.4</ele>
        <time>2019-01-06T11:45:29Z</time>
      </trkpt>
      <trkpt lat="43.34699" lon="5.76311">
        <ele>453.88</ele>
        <time>2019-01-06T11:45:42Z</time>
      </trkpt>
      <trkpt lat="43.347" lon="5.76313">
        <ele>453.88</ele>
        <time>2019-01-06T11:45:44Z</time>
      </trkpt>
      <trkpt lat="43.34707" lon="5.76322">
        <ele>452.44</ele>
        <time>2019-01-06T11:45:52Z</time>
      </trkpt>
      <trkpt lat="43.3471" lon="5.76333">
        <ele>451.96</ele>
        <time>2019-01-06T11:46:02Z</time>
      </trkpt>
      <trkpt lat="43.34716" lon="5.76342">
        <ele>451.48</ele>
        <time>2019-01-06T11:46:18Z</time>
      </trkpt>
      <trkpt lat="43.34712" lon="5.76341">
        <ele>450.52</ele>
        <time>2019-01-06T11:46:33Z</time>
      </trkpt>
      <trkpt lat="43.34713" lon="5.7634">
        <ele>451.96</ele>
        <time>2019-01-06T11:46:35Z</time>
      </trkpt>
      <trkpt lat="43.34726" lon="5.76347">
        <ele>451</ele>
        <time>2019-01-06T11:46:50Z</time>
      </trkpt>
      <trkpt lat="43.34738" lon="5.7636">
        <ele>449.07</ele>
        <time>2019-01-06T11:47:06Z</time>
      </trkpt>
      <trkpt lat="43.34745" lon="5.76368">
        <ele>448.59</ele>
        <time>2019-01-06T11:47:16Z</time>
      </trkpt>
      <trkpt lat="43.34744" lon="5.76371">
        <ele>444.75</ele>
        <time>2019-01-06T11:47:19Z</time>
      </trkpt>
      <trkpt lat="43.34744" lon="5.76371">
        <ele>438.98</ele>
        <time>2019-01-06T11:47:20Z</time>
      </trkpt>
      <trkpt lat="43.34744" lon="5.76371">
        <ele>450.03</ele>
        <time>2019-01-06T11:47:21Z</time>
      </trkpt>
      <trkpt lat="43.34743" lon="5.76371">
        <ele>449.07</ele>
        <time>2019-01-06T11:47:22Z</time>
      </trkpt>
      <trkpt lat="43.34743" lon="5.76371">
        <ele>448.11</ele>
        <time>2019-01-06T11:47:24Z</time>
      </trkpt>
      <trkpt lat="43.3475" lon="5.76382">
        <ele>447.15</ele>
        <time>2019-01-06T11:47:46Z</time>
      </trkpt>
      <trkpt lat="43.34751" lon="5.76385">
        <ele>453.88</ele>
        <time>2019-01-06T11:47:48Z</time>
      </trkpt>
      <trkpt lat="43.34742" lon="5.76378">
        <ele>449.07</ele>
        <time>2019-01-06T11:47:49Z</time>
      </trkpt>
      <trkpt lat="43.34735" lon="5.76372">
        <ele>448.11</ele>
        <time>2019-01-06T11:47:59Z</time>
      </trkpt>
      <trkpt lat="43.34736" lon="5.76372">
        <ele>450.03</ele>
        <time>2019-01-06T11:48:02Z</time>
      </trkpt>
      <trkpt lat="43.34737" lon="5.76371">
        <ele>449.07</ele>
        <time>2019-01-06T11:48:04Z</time>
      </trkpt>
      <trkpt lat="43.3475" lon="5.76382">
        <ele>447.63</ele>
        <time>2019-01-06T11:48:18Z</time>
      </trkpt>
      <trkpt lat="43.34757" lon="5.76389">
        <ele>448.59</ele>
        <time>2019-01-06T11:48:29Z</time>
      </trkpt>
      <trkpt lat="43.34772" lon="5.76403">
        <ele>445.23</ele>
        <time>2019-01-06T11:48:44Z</time>
      </trkpt>
      <trkpt lat="43.34773" lon="5.76408">
        <ele>441.86</ele>
        <time>2019-01-06T11:48:51Z</time>
      </trkpt>
      <trkpt lat="43.34773" lon="5.76407">
        <ele>446.19</ele>
        <time>2019-01-06T11:48:52Z</time>
      </trkpt>
      <trkpt lat="43.34773" lon="5.76406">
        <ele>444.75</ele>
        <time>2019-01-06T11:48:53Z</time>
      </trkpt>
      <trkpt lat="43.34772" lon="5.76401">
        <ele>451.96</ele>
        <time>2019-01-06T11:49:01Z</time>
      </trkpt>
      <trkpt lat="43.34772" lon="5.76401">
        <ele>446.19</ele>
        <time>2019-01-06T11:49:02Z</time>
      </trkpt>
      <trkpt lat="43.3477" lon="5.76402">
        <ele>445.71</ele>
        <time>2019-01-06T11:49:04Z</time>
      </trkpt>
      <trkpt lat="43.34789" lon="5.764">
        <ele>445.71</ele>
        <time>2019-01-06T11:49:21Z</time>
      </trkpt>
      <trkpt lat="43.34806" lon="5.76406">
        <ele>443.79</ele>
        <time>2019-01-06T11:49:39Z</time>
      </trkpt>
      <trkpt lat="43.34808" lon="5.76406">
        <ele>445.23</ele>
        <time>2019-01-06T11:49:42Z</time>
      </trkpt>
      <trkpt lat="43.34814" lon="5.7641">
        <ele>441.86</ele>
        <time>2019-01-06T11:49:52Z</time>
      </trkpt>
      <trkpt lat="43.34818" lon="5.76424">
        <ele>438.98</ele>
        <time>2019-01-06T11:50:07Z</time>
      </trkpt>
      <trkpt lat="43.34818" lon="5.76425">
        <ele>441.38</ele>
        <time>2019-01-06T11:50:09Z</time>
      </trkpt>
      <trkpt lat="43.34818" lon="5.76427">
        <ele>444.27</ele>
        <time>2019-01-06T11:50:12Z</time>
      </trkpt>
      <trkpt lat="43.34818" lon="5.76426">
        <ele>442.34</ele>
        <time>2019-01-06T11:50:14Z</time>
      </trkpt>
      <trkpt lat="43.34819" lon="5.76424">
        <ele>440.42</ele>
        <time>2019-01-06T11:50:16Z</time>
      </trkpt>
      <trkpt lat="43.34819" lon="5.76424">
        <ele>440.9</ele>
        <time>2019-01-06T11:50:20Z</time>
      </trkpt>
      <trkpt lat="43.34819" lon="5.76424">
        <ele>446.19</ele>
        <time>2019-01-06T11:50:21Z</time>
      </trkpt>
      <trkpt lat="43.34819" lon="5.76425">
        <ele>441.86</ele>
        <time>2019-01-06T11:50:25Z</time>
      </trkpt>
      <trkpt lat="43.3482" lon="5.76419">
        <ele>445.23</ele>
        <time>2019-01-06T11:50:33Z</time>
      </trkpt>
      <trkpt lat="43.34822" lon="5.76403">
        <ele>444.75</ele>
        <time>2019-01-06T11:50:44Z</time>
      </trkpt>
      <trkpt lat="43.34828" lon="5.764">
        <ele>444.27</ele>
        <time>2019-01-06T11:50:51Z</time>
      </trkpt>
      <trkpt lat="43.34836" lon="5.764">
        <ele>444.75</ele>
        <time>2019-01-06T11:51:00Z</time>
      </trkpt>
      <trkpt lat="43.3486" lon="5.76395">
        <ele>445.23</ele>
        <time>2019-01-06T11:51:21Z</time>
      </trkpt>
      <trkpt lat="43.34867" lon="5.76397">
        <ele>444.27</ele>
        <time>2019-01-06T11:51:28Z</time>
      </trkpt>
      <trkpt lat="43.34871" lon="5.76397">
        <ele>445.23</ele>
        <time>2019-01-06T11:51:31Z</time>
      </trkpt>
      <trkpt lat="43.3489" lon="5.76397">
        <ele>446.19</ele>
        <time>2019-01-06T11:51:45Z</time>
      </trkpt>
      <trkpt lat="43.34901" lon="5.76399">
        <ele>446.19</ele>
        <time>2019-01-06T11:51:55Z</time>
      </trkpt>
      <trkpt lat="43.34912" lon="5.76398">
        <ele>446.67</ele>
        <time>2019-01-06T11:52:07Z</time>
      </trkpt>
      <trkpt lat="43.34926" lon="5.76396">
        <ele>448.11</ele>
        <time>2019-01-06T11:52:21Z</time>
      </trkpt>
      <trkpt lat="43.34938" lon="5.76392">
        <ele>449.55</ele>
        <time>2019-01-06T11:52:34Z</time>
      </trkpt>
      <trkpt lat="43.34939" lon="5.76391">
        <ele>449.55</ele>
        <time>2019-01-06T11:52:35Z</time>
      </trkpt>
      <trkpt lat="43.34948" lon="5.76389">
        <ele>448.59</ele>
        <time>2019-01-06T11:52:43Z</time>
      </trkpt>
      <trkpt lat="43.34953" lon="5.76387">
        <ele>448.11</ele>
        <time>2019-01-06T11:52:52Z</time>
      </trkpt>
      <trkpt lat="43.34959" lon="5.76383">
        <ele>447.63</ele>
        <time>2019-01-06T11:53:00Z</time>
      </trkpt>
      <trkpt lat="43.34962" lon="5.76378">
        <ele>447.15</ele>
        <time>2019-01-06T11:53:06Z</time>
      </trkpt>
      <trkpt lat="43.34975" lon="5.76365">
        <ele>448.59</ele>
        <time>2019-01-06T11:53:21Z</time>
      </trkpt>
      <trkpt lat="43.34979" lon="5.7636">
        <ele>448.59</ele>
        <time>2019-01-06T11:53:30Z</time>
      </trkpt>
      <trkpt lat="43.3498" lon="5.76357">
        <ele>447.63</ele>
        <time>2019-01-06T11:53:34Z</time>
      </trkpt>
      <trkpt lat="43.34988" lon="5.7635">
        <ele>445.23</ele>
        <time>2019-01-06T11:53:46Z</time>
      </trkpt>
      <trkpt lat="43.3499" lon="5.7635">
        <ele>445.23</ele>
        <time>2019-01-06T11:53:47Z</time>
      </trkpt>
      <trkpt lat="43.34997" lon="5.76345">
        <ele>444.75</ele>
        <time>2019-01-06T11:53:57Z</time>
      </trkpt>
      <trkpt lat="43.35005" lon="5.76338">
        <ele>442.34</ele>
        <time>2019-01-06T11:54:09Z</time>
      </trkpt>
      <trkpt lat="43.35007" lon="5.76328">
        <ele>440.42</ele>
        <time>2019-01-06T11:54:20Z</time>
      </trkpt>
      <trkpt lat="43.35009" lon="5.7632">
        <ele>439.46</ele>
        <time>2019-01-06T11:54:27Z</time>
      </trkpt>
      <trkpt lat="43.35009" lon="5.76316">
        <ele>438.98</ele>
        <time>2019-01-06T11:54:30Z</time>
      </trkpt>
      <trkpt lat="43.35014" lon="5.76304">
        <ele>436.58</ele>
        <time>2019-01-06T11:54:42Z</time>
      </trkpt>
      <trkpt lat="43.35012" lon="5.76301">
        <ele>436.58</ele>
        <time>2019-01-06T11:54:53Z</time>
      </trkpt>
      <trkpt lat="43.35012" lon="5.76298">
        <ele>436.58</ele>
        <time>2019-01-06T11:54:56Z</time>
      </trkpt>
      <trkpt lat="43.35012" lon="5.76285">
        <ele>435.61</ele>
        <time>2019-01-06T11:55:09Z</time>
      </trkpt>
      <trkpt lat="43.35011" lon="5.76266">
        <ele>434.17</ele>
        <time>2019-01-06T11:55:24Z</time>
      </trkpt>
      <trkpt lat="43.35013" lon="5.76251">
        <ele>431.77</ele>
        <time>2019-01-06T11:55:39Z</time>
      </trkpt>
      <trkpt lat="43.35014" lon="5.76245">
        <ele>431.29</ele>
        <time>2019-01-06T11:55:44Z</time>
      </trkpt>
      <trkpt lat="43.35019" lon="5.76232">
        <ele>429.85</ele>
        <time>2019-01-06T11:55:58Z</time>
      </trkpt>
      <trkpt lat="43.35023" lon="5.76231">
        <ele>428.4</ele>
        <time>2019-01-06T11:56:03Z</time>
      </trkpt>
      <trkpt lat="43.3503" lon="5.76234">
        <ele>426.96</ele>
        <time>2019-01-06T11:56:16Z</time>
      </trkpt>
      <trkpt lat="43.35031" lon="5.76236">
        <ele>426</ele>
        <time>2019-01-06T11:56:36Z</time>
      </trkpt>
      <trkpt lat="43.35031" lon="5.76234">
        <ele>426</ele>
        <time>2019-01-06T11:56:52Z</time>
      </trkpt>
      <trkpt lat="43.35036" lon="5.76235">
        <ele>425.04</ele>
        <time>2019-01-06T11:57:03Z</time>
      </trkpt>
      <trkpt lat="43.35037" lon="5.76234">
        <ele>425.52</ele>
        <time>2019-01-06T11:57:31Z</time>
      </trkpt>
      <trkpt lat="43.35038" lon="5.7623">
        <ele>425.52</ele>
        <time>2019-01-06T11:57:53Z</time>
      </trkpt>
      <trkpt lat="43.3504" lon="5.7623">
        <ele>427.44</ele>
        <time>2019-01-06T11:57:55Z</time>
      </trkpt>
      <trkpt lat="43.35045" lon="5.76226">
        <ele>427.44</ele>
        <time>2019-01-06T11:58:02Z</time>
      </trkpt>
      <trkpt lat="43.35049" lon="5.76211">
        <ele>428.4</ele>
        <time>2019-01-06T11:58:14Z</time>
      </trkpt>
      <trkpt lat="43.35049" lon="5.76211">
        <ele>428.4</ele>
        <time>2019-01-06T11:58:15Z</time>
      </trkpt>
      <trkpt lat="43.35051" lon="5.76203">
        <ele>428.4</ele>
        <time>2019-01-06T11:58:20Z</time>
      </trkpt>
      <trkpt lat="43.35055" lon="5.76188">
        <ele>428.89</ele>
        <time>2019-01-06T11:58:30Z</time>
      </trkpt>
      <trkpt lat="43.35057" lon="5.7618">
        <ele>428.89</ele>
        <time>2019-01-06T11:58:37Z</time>
      </trkpt>
      <trkpt lat="43.3506" lon="5.76168">
        <ele>427.44</ele>
        <time>2019-01-06T11:58:44Z</time>
      </trkpt>
      <trkpt lat="43.35064" lon="5.76153">
        <ele>426</ele>
        <time>2019-01-06T11:58:54Z</time>
      </trkpt>
      <trkpt lat="43.35071" lon="5.7614">
        <ele>424.56</ele>
        <time>2019-01-06T11:59:04Z</time>
      </trkpt>
      <trkpt lat="43.35074" lon="5.7613">
        <ele>422.64</ele>
        <time>2019-01-06T11:59:15Z</time>
      </trkpt>
      <trkpt lat="43.3508" lon="5.76126">
        <ele>416.39</ele>
        <time>2019-01-06T11:59:32Z</time>
      </trkpt>
      <trkpt lat="43.35081" lon="5.76126">
        <ele>419.75</ele>
        <time>2019-01-06T11:59:33Z</time>
      </trkpt>
      <trkpt lat="43.35082" lon="5.76125">
        <ele>423.12</ele>
        <time>2019-01-06T11:59:37Z</time>
      </trkpt>
      <trkpt lat="43.35083" lon="5.76123">
        <ele>419.27</ele>
        <time>2019-01-06T11:59:42Z</time>
      </trkpt>
      <trkpt lat="43.35084" lon="5.76117">
        <ele>421.68</ele>
        <time>2019-01-06T11:59:45Z</time>
      </trkpt>
      <trkpt lat="43.35084" lon="5.76113">
        <ele>421.68</ele>
        <time>2019-01-06T11:59:49Z</time>
      </trkpt>
      <trkpt lat="43.35091" lon="5.76094">
        <ele>420.23</ele>
        <time>2019-01-06T12:00:07Z</time>
      </trkpt>
      <trkpt lat="43.35094" lon="5.76074">
        <ele>420.23</ele>
        <time>2019-01-06T12:00:27Z</time>
      </trkpt>
      <trkpt lat="43.351" lon="5.76052">
        <ele>419.75</ele>
        <time>2019-01-06T12:00:44Z</time>
      </trkpt>
      <trkpt lat="43.35105" lon="5.76048">
        <ele>419.75</ele>
        <time>2019-01-06T12:00:56Z</time>
      </trkpt>
      <trkpt lat="43.35118" lon="5.76044">
        <ele>419.75</ele>
        <time>2019-01-06T12:01:13Z</time>
      </trkpt>
      <trkpt lat="43.35124" lon="5.7604">
        <ele>421.19</ele>
        <time>2019-01-06T12:01:29Z</time>
      </trkpt>
      <trkpt lat="43.3513" lon="5.76046">
        <ele>421.68</ele>
        <time>2019-01-06T12:01:44Z</time>
      </trkpt>
      <trkpt lat="43.3513" lon="5.76046">
        <ele>421.68</ele>
        <time>2019-01-06T12:02:06Z</time>
      </trkpt>
      <trkpt lat="43.35123" lon="5.76045">
        <ele>422.16</ele>
        <time>2019-01-06T12:02:17Z</time>
      </trkpt>
      <trkpt lat="43.35107" lon="5.76044">
        <ele>423.12</ele>
        <time>2019-01-06T12:02:31Z</time>
      </trkpt>
      <trkpt lat="43.35102" lon="5.76045">
        <ele>423.6</ele>
        <time>2019-01-06T12:02:44Z</time>
      </trkpt>
      <trkpt lat="43.35113" lon="5.76046">
        <ele>423.6</ele>
        <time>2019-01-06T12:03:00Z</time>
      </trkpt>
      <trkpt lat="43.35125" lon="5.76043">
        <ele>422.64</ele>
        <time>2019-01-06T12:03:16Z</time>
      </trkpt>
      <trkpt lat="43.35135" lon="5.76042">
        <ele>422.16</ele>
        <time>2019-01-06T12:03:27Z</time>
      </trkpt>
      <trkpt lat="43.35149" lon="5.76037">
        <ele>421.19</ele>
        <time>2019-01-06T12:03:40Z</time>
      </trkpt>
      <trkpt lat="43.3516" lon="5.76027">
        <ele>421.19</ele>
        <time>2019-01-06T12:03:55Z</time>
      </trkpt>
      <trkpt lat="43.35165" lon="5.76018">
        <ele>420.23</ele>
        <time>2019-01-06T12:04:08Z</time>
      </trkpt>
      <trkpt lat="43.35173" lon="5.76009">
        <ele>420.23</ele>
        <time>2019-01-06T12:04:18Z</time>
      </trkpt>
      <trkpt lat="43.35179" lon="5.76004">
        <ele>420.23</ele>
        <time>2019-01-06T12:04:29Z</time>
      </trkpt>
      <trkpt lat="43.35185" lon="5.75991">
        <ele>419.75</ele>
        <time>2019-01-06T12:04:42Z</time>
      </trkpt>
      <trkpt lat="43.35191" lon="5.75987">
        <ele>419.75</ele>
        <time>2019-01-06T12:04:50Z</time>
      </trkpt>
      <trkpt lat="43.352" lon="5.75979">
        <ele>419.27</ele>
        <time>2019-01-06T12:05:05Z</time>
      </trkpt>
      <trkpt lat="43.35204" lon="5.75969">
        <ele>418.79</ele>
        <time>2019-01-06T12:05:15Z</time>
      </trkpt>
      <trkpt lat="43.35213" lon="5.7596">
        <ele>419.27</ele>
        <time>2019-01-06T12:05:25Z</time>
      </trkpt>
      <trkpt lat="43.35217" lon="5.75956">
        <ele>419.27</ele>
        <time>2019-01-06T12:05:31Z</time>
      </trkpt>
      <trkpt lat="43.3522" lon="5.75954">
        <ele>418.79</ele>
        <time>2019-01-06T12:05:35Z</time>
      </trkpt>
      <trkpt lat="43.35227" lon="5.7595">
        <ele>418.31</ele>
        <time>2019-01-06T12:05:41Z</time>
      </trkpt>
      <trkpt lat="43.35237" lon="5.75945">
        <ele>418.31</ele>
        <time>2019-01-06T12:05:53Z</time>
      </trkpt>
      <trkpt lat="43.35242" lon="5.75941">
        <ele>418.31</ele>
        <time>2019-01-06T12:06:07Z</time>
      </trkpt>
      <trkpt lat="43.35251" lon="5.75937">
        <ele>418.31</ele>
        <time>2019-01-06T12:06:20Z</time>
      </trkpt>
      <trkpt lat="43.35257" lon="5.75933">
        <ele>418.31</ele>
        <time>2019-01-06T12:06:26Z</time>
      </trkpt>
      <trkpt lat="43.3526" lon="5.75931">
        <ele>419.75</ele>
        <time>2019-01-06T12:06:29Z</time>
      </trkpt>
      <trkpt lat="43.35267" lon="5.7593">
        <ele>419.75</ele>
        <time>2019-01-06T12:06:35Z</time>
      </trkpt>
      <trkpt lat="43.35277" lon="5.75927">
        <ele>420.71</ele>
        <time>2019-01-06T12:06:46Z</time>
      </trkpt>
      <trkpt lat="43.35278" lon="5.7592">
        <ele>421.19</ele>
        <time>2019-01-06T12:06:50Z</time>
      </trkpt>
      <trkpt lat="43.35279" lon="5.75918">
        <ele>422.64</ele>
        <time>2019-01-06T12:06:58Z</time>
      </trkpt>
      <trkpt lat="43.35277" lon="5.75921">
        <ele>422.64</ele>
        <time>2019-01-06T12:07:00Z</time>
      </trkpt>
      <trkpt lat="43.35278" lon="5.75923">
        <ele>421.19</ele>
        <time>2019-01-06T12:07:02Z</time>
      </trkpt>
      <trkpt lat="43.35279" lon="5.75923">
        <ele>421.19</ele>
        <time>2019-01-06T12:07:03Z</time>
      </trkpt>
      <trkpt lat="43.35282" lon="5.75925">
        <ele>420.71</ele>
        <time>2019-01-06T12:07:06Z</time>
      </trkpt>
      <trkpt lat="43.35284" lon="5.75925">
        <ele>420.71</ele>
        <time>2019-01-06T12:07:07Z</time>
      </trkpt>
      <trkpt lat="43.35286" lon="5.75924">
        <ele>420.71</ele>
        <time>2019-01-06T12:07:08Z</time>
      </trkpt>
      <trkpt lat="43.35289" lon="5.75925">
        <ele>420.23</ele>
        <time>2019-01-06T12:07:13Z</time>
      </trkpt>
      <trkpt lat="43.35291" lon="5.75925">
        <ele>420.23</ele>
        <time>2019-01-06T12:07:14Z</time>
      </trkpt>
      <trkpt lat="43.35296" lon="5.75925">
        <ele>419.27</ele>
        <time>2019-01-06T12:07:22Z</time>
      </trkpt>
      <trkpt lat="43.3531" lon="5.75926">
        <ele>418.31</ele>
        <time>2019-01-06T12:07:38Z</time>
      </trkpt>
      <trkpt lat="43.35318" lon="5.75928">
        <ele>416.39</ele>
        <time>2019-01-06T12:07:50Z</time>
      </trkpt>
      <trkpt lat="43.35319" lon="5.75929">
        <ele>416.39</ele>
        <time>2019-01-06T12:08:03Z</time>
      </trkpt>
      <trkpt lat="43.35318" lon="5.75931">
        <ele>416.39</ele>
        <time>2019-01-06T12:08:04Z</time>
      </trkpt>
      <trkpt lat="43.35315" lon="5.75942">
        <ele>416.39</ele>
        <time>2019-01-06T12:08:17Z</time>
      </trkpt>
      <trkpt lat="43.35315" lon="5.75944">
        <ele>416.39</ele>
        <time>2019-01-06T12:08:26Z</time>
      </trkpt>
      <trkpt lat="43.35316" lon="5.75949">
        <ele>416.39</ele>
        <time>2019-01-06T12:08:38Z</time>
      </trkpt>
      <trkpt lat="43.35316" lon="5.7595">
        <ele>416.39</ele>
        <time>2019-01-06T12:08:57Z</time>
      </trkpt>
      <trkpt lat="43.35319" lon="5.75951">
        <ele>416.39</ele>
        <time>2019-01-06T12:09:04Z</time>
      </trkpt>
      <trkpt lat="43.35325" lon="5.75951">
        <ele>416.39</ele>
        <time>2019-01-06T12:09:17Z</time>
      </trkpt>
      <trkpt lat="43.35328" lon="5.7595">
        <ele>416.39</ele>
        <time>2019-01-06T12:09:26Z</time>
      </trkpt>
      <trkpt lat="43.35338" lon="5.75947">
        <ele>417.35</ele>
        <time>2019-01-06T12:09:38Z</time>
      </trkpt>
      <trkpt lat="43.35341" lon="5.75947">
        <ele>417.35</ele>
        <time>2019-01-06T12:09:41Z</time>
      </trkpt>
      <trkpt lat="43.35345" lon="5.75946">
        <ele>417.35</ele>
        <time>2019-01-06T12:09:46Z</time>
      </trkpt>
      <trkpt lat="43.35347" lon="5.75945">
        <ele>417.35</ele>
        <time>2019-01-06T12:09:47Z</time>
      </trkpt>
      <trkpt lat="43.35348" lon="5.75945">
        <ele>417.35</ele>
        <time>2019-01-06T12:09:48Z</time>
      </trkpt>
      <trkpt lat="43.3535" lon="5.75945">
        <ele>417.35</ele>
        <time>2019-01-06T12:09:51Z</time>
      </trkpt>
      <trkpt lat="43.35352" lon="5.75946">
        <ele>417.35</ele>
        <time>2019-01-06T12:09:52Z</time>
      </trkpt>
      <trkpt lat="43.35359" lon="5.75947">
        <ele>417.35</ele>
        <time>2019-01-06T12:10:01Z</time>
      </trkpt>
      <trkpt lat="43.3536" lon="5.75947">
        <ele>417.35</ele>
        <time>2019-01-06T12:10:02Z</time>
      </trkpt>
      <trkpt lat="43.35363" lon="5.75943">
        <ele>417.35</ele>
        <time>2019-01-06T12:10:07Z</time>
      </trkpt>
      <trkpt lat="43.35364" lon="5.75942">
        <ele>417.35</ele>
        <time>2019-01-06T12:10:08Z</time>
      </trkpt>
      <trkpt lat="43.35366" lon="5.7594">
        <ele>417.35</ele>
        <time>2019-01-06T12:10:09Z</time>
      </trkpt>
      <trkpt lat="43.35367" lon="5.75937">
        <ele>417.35</ele>
        <time>2019-01-06T12:10:10Z</time>
      </trkpt>
      <trkpt lat="43.35367" lon="5.75935">
        <ele>417.35</ele>
        <time>2019-01-06T12:10:11Z</time>
      </trkpt>
      <trkpt lat="43.35376" lon="5.75933">
        <ele>415.91</ele>
        <time>2019-01-06T12:10:18Z</time>
      </trkpt>
      <trkpt lat="43.35378" lon="5.75932">
        <ele>415.43</ele>
        <time>2019-01-06T12:10:19Z</time>
      </trkpt>
      <trkpt lat="43.35379" lon="5.75931">
        <ele>415.43</ele>
        <time>2019-01-06T12:10:20Z</time>
      </trkpt>
      <trkpt lat="43.3538" lon="5.7593">
        <ele>415.43</ele>
        <time>2019-01-06T12:10:21Z</time>
      </trkpt>
      <trkpt lat="43.35383" lon="5.75927">
        <ele>415.43</ele>
        <time>2019-01-06T12:10:26Z</time>
      </trkpt>
      <trkpt lat="43.35385" lon="5.75926">
        <ele>415.43</ele>
        <time>2019-01-06T12:10:27Z</time>
      </trkpt>
      <trkpt lat="43.35387" lon="5.75925">
        <ele>414.95</ele>
        <time>2019-01-06T12:10:29Z</time>
      </trkpt>
      <trkpt lat="43.35392" lon="5.75922">
        <ele>414.95</ele>
        <time>2019-01-06T12:10:34Z</time>
      </trkpt>
      <trkpt lat="43.35393" lon="5.75921">
        <ele>414.95</ele>
        <time>2019-01-06T12:10:35Z</time>
      </trkpt>
      <trkpt lat="43.35399" lon="5.75911">
        <ele>413.5</ele>
        <time>2019-01-06T12:10:42Z</time>
      </trkpt>
      <trkpt lat="43.35401" lon="5.7591">
        <ele>413.98</ele>
        <time>2019-01-06T12:10:43Z</time>
      </trkpt>
      <trkpt lat="43.35402" lon="5.75908">
        <ele>413.98</ele>
        <time>2019-01-06T12:10:44Z</time>
      </trkpt>
      <trkpt lat="43.35404" lon="5.75906">
        <ele>413.5</ele>
        <time>2019-01-06T12:10:47Z</time>
      </trkpt>
      <trkpt lat="43.35405" lon="5.75905">
        <ele>413.5</ele>
        <time>2019-01-06T12:10:48Z</time>
      </trkpt>
      <trkpt lat="43.35406" lon="5.75904">
        <ele>413.02</ele>
        <time>2019-01-06T12:10:49Z</time>
      </trkpt>
      <trkpt lat="43.35408" lon="5.75902">
        <ele>413.02</ele>
        <time>2019-01-06T12:10:53Z</time>
      </trkpt>
      <trkpt lat="43.35409" lon="5.759">
        <ele>413.02</ele>
        <time>2019-01-06T12:10:54Z</time>
      </trkpt>
      <trkpt lat="43.3541" lon="5.75899">
        <ele>413.02</ele>
        <time>2019-01-06T12:10:55Z</time>
      </trkpt>
      <trkpt lat="43.3541" lon="5.75898">
        <ele>413.02</ele>
        <time>2019-01-06T12:10:56Z</time>
      </trkpt>
      <trkpt lat="43.35411" lon="5.75895">
        <ele>412.06</ele>
        <time>2019-01-06T12:11:00Z</time>
      </trkpt>
      <trkpt lat="43.35412" lon="5.75893">
        <ele>412.06</ele>
        <time>2019-01-06T12:11:01Z</time>
      </trkpt>
      <trkpt lat="43.35412" lon="5.75891">
        <ele>412.06</ele>
        <time>2019-01-06T12:11:02Z</time>
      </trkpt>
      <trkpt lat="43.35414" lon="5.75887">
        <ele>413.98</ele>
        <time>2019-01-06T12:11:15Z</time>
      </trkpt>
      <trkpt lat="43.35418" lon="5.7588">
        <ele>412.54</ele>
        <time>2019-01-06T12:11:20Z</time>
      </trkpt>
      <trkpt lat="43.35429" lon="5.75863">
        <ele>412.54</ele>
        <time>2019-01-06T12:11:36Z</time>
      </trkpt>
      <trkpt lat="43.35434" lon="5.75856">
        <ele>412.54</ele>
        <time>2019-01-06T12:11:41Z</time>
      </trkpt>
      <trkpt lat="43.35438" lon="5.75853">
        <ele>412.06</ele>
        <time>2019-01-06T12:11:46Z</time>
      </trkpt>
      <trkpt lat="43.35441" lon="5.75851">
        <ele>411.58</ele>
        <time>2019-01-06T12:11:48Z</time>
      </trkpt>
      <trkpt lat="43.35441" lon="5.7585">
        <ele>411.58</ele>
        <time>2019-01-06T12:11:49Z</time>
      </trkpt>
      <trkpt lat="43.3545" lon="5.75838">
        <ele>411.1</ele>
        <time>2019-01-06T12:12:01Z</time>
      </trkpt>
      <trkpt lat="43.35459" lon="5.75826">
        <ele>411.1</ele>
        <time>2019-01-06T12:12:16Z</time>
      </trkpt>
      <trkpt lat="43.35463" lon="5.75824">
        <ele>411.1</ele>
        <time>2019-01-06T12:12:28Z</time>
      </trkpt>
      <trkpt lat="43.35469" lon="5.75818">
        <ele>412.54</ele>
        <time>2019-01-06T12:12:44Z</time>
      </trkpt>
      <trkpt lat="43.3548" lon="5.75811">
        <ele>412.06</ele>
        <time>2019-01-06T12:12:56Z</time>
      </trkpt>
      <trkpt lat="43.35483" lon="5.75809">
        <ele>412.06</ele>
        <time>2019-01-06T12:13:00Z</time>
      </trkpt>
      <trkpt lat="43.35485" lon="5.75808">
        <ele>412.06</ele>
        <time>2019-01-06T12:13:01Z</time>
      </trkpt>
      <trkpt lat="43.3549" lon="5.75804">
        <ele>412.54</ele>
        <time>2019-01-06T12:13:06Z</time>
      </trkpt>
      <trkpt lat="43.35498" lon="5.75796">
        <ele>412.06</ele>
        <time>2019-01-06T12:13:16Z</time>
      </trkpt>
      <trkpt lat="43.35512" lon="5.75788">
        <ele>412.06</ele>
        <time>2019-01-06T12:13:30Z</time>
      </trkpt>
      <trkpt lat="43.35521" lon="5.75784">
        <ele>412.06</ele>
        <time>2019-01-06T12:13:40Z</time>
      </trkpt>
      <trkpt lat="43.3553" lon="5.75777">
        <ele>412.06</ele>
        <time>2019-01-06T12:13:50Z</time>
      </trkpt>
      <trkpt lat="43.35539" lon="5.75771">
        <ele>412.06</ele>
        <time>2019-01-06T12:14:01Z</time>
      </trkpt>
      <trkpt lat="43.35541" lon="5.7577">
        <ele>412.06</ele>
        <time>2019-01-06T12:14:02Z</time>
      </trkpt>
      <trkpt lat="43.35542" lon="5.75768">
        <ele>412.06</ele>
        <time>2019-01-06T12:14:03Z</time>
      </trkpt>
      <trkpt lat="43.35548" lon="5.75763">
        <ele>412.06</ele>
        <time>2019-01-06T12:14:08Z</time>
      </trkpt>
      <trkpt lat="43.35549" lon="5.75763">
        <ele>412.06</ele>
        <time>2019-01-06T12:14:09Z</time>
      </trkpt>
      <trkpt lat="43.35551" lon="5.75762">
        <ele>412.06</ele>
        <time>2019-01-06T12:14:13Z</time>
      </trkpt>
      <trkpt lat="43.35552" lon="5.75761">
        <ele>412.06</ele>
        <time>2019-01-06T12:14:14Z</time>
      </trkpt>
      <trkpt lat="43.35554" lon="5.75756">
        <ele>412.06</ele>
        <time>2019-01-06T12:14:18Z</time>
      </trkpt>
      <trkpt lat="43.35555" lon="5.75754">
        <ele>412.06</ele>
        <time>2019-01-06T12:14:19Z</time>
      </trkpt>
      <trkpt lat="43.3556" lon="5.75748">
        <ele>411.1</ele>
        <time>2019-01-06T12:14:28Z</time>
      </trkpt>
      <trkpt lat="43.35562" lon="5.75747">
        <ele>411.1</ele>
        <time>2019-01-06T12:14:30Z</time>
      </trkpt>
      <trkpt lat="43.35563" lon="5.75746">
        <ele>411.1</ele>
        <time>2019-01-06T12:14:31Z</time>
      </trkpt>
      <trkpt lat="43.35566" lon="5.75744">
        <ele>410.62</ele>
        <time>2019-01-06T12:14:36Z</time>
      </trkpt>
      <trkpt lat="43.35575" lon="5.75742">
        <ele>410.62</ele>
        <time>2019-01-06T12:14:46Z</time>
      </trkpt>
      <trkpt lat="43.35579" lon="5.75741">
        <ele>410.62</ele>
        <time>2019-01-06T12:14:49Z</time>
      </trkpt>
      <trkpt lat="43.3558" lon="5.7574">
        <ele>410.62</ele>
        <time>2019-01-06T12:14:50Z</time>
      </trkpt>
      <trkpt lat="43.35586" lon="5.75738">
        <ele>410.62</ele>
        <time>2019-01-06T12:14:55Z</time>
      </trkpt>
      <trkpt lat="43.35587" lon="5.75738">
        <ele>410.62</ele>
        <time>2019-01-06T12:14:56Z</time>
      </trkpt>
      <trkpt lat="43.35596" lon="5.75729">
        <ele>410.62</ele>
        <time>2019-01-06T12:15:07Z</time>
      </trkpt>
      <trkpt lat="43.35604" lon="5.75717">
        <ele>409.66</ele>
        <time>2019-01-06T12:15:21Z</time>
      </trkpt>
      <trkpt lat="43.35618" lon="5.75704">
        <ele>408.7</ele>
        <time>2019-01-06T12:15:36Z</time>
      </trkpt>
      <trkpt lat="43.35625" lon="5.75696">
        <ele>408.22</ele>
        <time>2019-01-06T12:15:46Z</time>
      </trkpt>
      <trkpt lat="43.3563" lon="5.75688">
        <ele>408.22</ele>
        <time>2019-01-06T12:15:56Z</time>
      </trkpt>
      <trkpt lat="43.35632" lon="5.75685">
        <ele>408.22</ele>
        <time>2019-01-06T12:15:58Z</time>
      </trkpt>
      <trkpt lat="43.35636" lon="5.75682">
        <ele>407.74</ele>
        <time>2019-01-06T12:16:04Z</time>
      </trkpt>
      <trkpt lat="43.35638" lon="5.75681">
        <ele>406.77</ele>
        <time>2019-01-06T12:16:05Z</time>
      </trkpt>
      <trkpt lat="43.3564" lon="5.75679">
        <ele>406.77</ele>
        <time>2019-01-06T12:16:06Z</time>
      </trkpt>
      <trkpt lat="43.3564" lon="5.75676">
        <ele>406.77</ele>
        <time>2019-01-06T12:16:13Z</time>
      </trkpt>
      <trkpt lat="43.35641" lon="5.75674">
        <ele>406.77</ele>
        <time>2019-01-06T12:16:14Z</time>
      </trkpt>
      <trkpt lat="43.35643" lon="5.75672">
        <ele>406.77</ele>
        <time>2019-01-06T12:16:15Z</time>
      </trkpt>
      <trkpt lat="43.35644" lon="5.75671">
        <ele>406.77</ele>
        <time>2019-01-06T12:16:16Z</time>
      </trkpt>
      <trkpt lat="43.35644" lon="5.7567">
        <ele>406.77</ele>
        <time>2019-01-06T12:16:17Z</time>
      </trkpt>
      <trkpt lat="43.35647" lon="5.75668">
        <ele>406.77</ele>
        <time>2019-01-06T12:16:21Z</time>
      </trkpt>
      <trkpt lat="43.35648" lon="5.75667">
        <ele>406.77</ele>
        <time>2019-01-06T12:16:22Z</time>
      </trkpt>
      <trkpt lat="43.3565" lon="5.75666">
        <ele>406.77</ele>
        <time>2019-01-06T12:16:23Z</time>
      </trkpt>
      <trkpt lat="43.35652" lon="5.75665">
        <ele>406.77</ele>
        <time>2019-01-06T12:16:24Z</time>
      </trkpt>
      <trkpt lat="43.35655" lon="5.75661">
        <ele>406.77</ele>
        <time>2019-01-06T12:16:29Z</time>
      </trkpt>
      <trkpt lat="43.35656" lon="5.75661">
        <ele>406.77</ele>
        <time>2019-01-06T12:16:30Z</time>
      </trkpt>
      <trkpt lat="43.35658" lon="5.7566">
        <ele>406.77</ele>
        <time>2019-01-06T12:16:31Z</time>
      </trkpt>
      <trkpt lat="43.35659" lon="5.75659">
        <ele>406.77</ele>
        <time>2019-01-06T12:16:32Z</time>
      </trkpt>
      <trkpt lat="43.35668" lon="5.75656">
        <ele>406.77</ele>
        <time>2019-01-06T12:16:42Z</time>
      </trkpt>
      <trkpt lat="43.35669" lon="5.75655">
        <ele>406.77</ele>
        <time>2019-01-06T12:16:43Z</time>
      </trkpt>
      <trkpt lat="43.35671" lon="5.75654">
        <ele>406.77</ele>
        <time>2019-01-06T12:16:44Z</time>
      </trkpt>
      <trkpt lat="43.35677" lon="5.75649">
        <ele>406.29</ele>
        <time>2019-01-06T12:16:50Z</time>
      </trkpt>
      <trkpt lat="43.3568" lon="5.75646">
        <ele>406.29</ele>
        <time>2019-01-06T12:16:55Z</time>
      </trkpt>
      <trkpt lat="43.35682" lon="5.75645">
        <ele>406.29</ele>
        <time>2019-01-06T12:16:56Z</time>
      </trkpt>
      <trkpt lat="43.35684" lon="5.75644">
        <ele>405.81</ele>
        <time>2019-01-06T12:16:57Z</time>
      </trkpt>
      <trkpt lat="43.35687" lon="5.75642">
        <ele>406.29</ele>
        <time>2019-01-06T12:17:01Z</time>
      </trkpt>
      <trkpt lat="43.35693" lon="5.75641">
        <ele>405.81</ele>
        <time>2019-01-06T12:17:08Z</time>
      </trkpt>
      <trkpt lat="43.35695" lon="5.7564">
        <ele>405.81</ele>
        <time>2019-01-06T12:17:09Z</time>
      </trkpt>
      <trkpt lat="43.35699" lon="5.75639">
        <ele>405.81</ele>
        <time>2019-01-06T12:17:17Z</time>
      </trkpt>
      <trkpt lat="43.35704" lon="5.75636">
        <ele>405.81</ele>
        <time>2019-01-06T12:17:27Z</time>
      </trkpt>
      <trkpt lat="43.35706" lon="5.75633">
        <ele>405.33</ele>
        <time>2019-01-06T12:17:31Z</time>
      </trkpt>
      <trkpt lat="43.35707" lon="5.75634">
        <ele>405.33</ele>
        <time>2019-01-06T12:17:44Z</time>
      </trkpt>
      <trkpt lat="43.35709" lon="5.75635">
        <ele>405.33</ele>
        <time>2019-01-06T12:18:04Z</time>
      </trkpt>
      <trkpt lat="43.35717" lon="5.75631">
        <ele>406.77</ele>
        <time>2019-01-06T12:18:21Z</time>
      </trkpt>
      <trkpt lat="43.35725" lon="5.75626">
        <ele>406.77</ele>
        <time>2019-01-06T12:18:32Z</time>
      </trkpt>
      <trkpt lat="43.35731" lon="5.75616">
        <ele>406.77</ele>
        <time>2019-01-06T12:18:42Z</time>
      </trkpt>
      <trkpt lat="43.35733" lon="5.75613">
        <ele>406.77</ele>
        <time>2019-01-06T12:18:49Z</time>
      </trkpt>
      <trkpt lat="43.35739" lon="5.75598">
        <ele>406.77</ele>
        <time>2019-01-06T12:18:59Z</time>
      </trkpt>
      <trkpt lat="43.35744" lon="5.75588">
        <ele>407.26</ele>
        <time>2019-01-06T12:19:09Z</time>
      </trkpt>
      <trkpt lat="43.35745" lon="5.75587">
        <ele>407.26</ele>
        <time>2019-01-06T12:19:10Z</time>
      </trkpt>
      <trkpt lat="43.35746" lon="5.75585">
        <ele>407.26</ele>
        <time>2019-01-06T12:19:11Z</time>
      </trkpt>
      <trkpt lat="43.35747" lon="5.75584">
        <ele>407.26</ele>
        <time>2019-01-06T12:19:12Z</time>
      </trkpt>
      <trkpt lat="43.35748" lon="5.75582">
        <ele>407.26</ele>
        <time>2019-01-06T12:19:13Z</time>
      </trkpt>
      <trkpt lat="43.35757" lon="5.75564">
        <ele>407.26</ele>
        <time>2019-01-06T12:19:29Z</time>
      </trkpt>
      <trkpt lat="43.35763" lon="5.75551">
        <ele>407.26</ele>
        <time>2019-01-06T12:19:40Z</time>
      </trkpt>
      <trkpt lat="43.35764" lon="5.75551">
        <ele>407.26</ele>
        <time>2019-01-06T12:19:41Z</time>
      </trkpt>
      <trkpt lat="43.35767" lon="5.75547">
        <ele>407.26</ele>
        <time>2019-01-06T12:19:45Z</time>
      </trkpt>
      <trkpt lat="43.35768" lon="5.75546">
        <ele>407.26</ele>
        <time>2019-01-06T12:19:46Z</time>
      </trkpt>
      <trkpt lat="43.35773" lon="5.75539">
        <ele>407.26</ele>
        <time>2019-01-06T12:19:58Z</time>
      </trkpt>
      <trkpt lat="43.35778" lon="5.75523">
        <ele>405.33</ele>
        <time>2019-01-06T12:20:11Z</time>
      </trkpt>
      <trkpt lat="43.35779" lon="5.75521">
        <ele>406.77</ele>
        <time>2019-01-06T12:20:13Z</time>
      </trkpt>
      <trkpt lat="43.35792" lon="5.755">
        <ele>405.81</ele>
        <time>2019-01-06T12:20:35Z</time>
      </trkpt>
      <trkpt lat="43.35796" lon="5.75494">
        <ele>406.29</ele>
        <time>2019-01-06T12:20:41Z</time>
      </trkpt>
      <trkpt lat="43.35802" lon="5.75484">
        <ele>405.33</ele>
        <time>2019-01-06T12:20:49Z</time>
      </trkpt>
      <trkpt lat="43.35807" lon="5.75469">
        <ele>405.33</ele>
        <time>2019-01-06T12:21:09Z</time>
      </trkpt>
      <trkpt lat="43.35815" lon="5.75456">
        <ele>406.29</ele>
        <time>2019-01-06T12:21:22Z</time>
      </trkpt>
      <trkpt lat="43.35817" lon="5.7545">
        <ele>404.85</ele>
        <time>2019-01-06T12:21:26Z</time>
      </trkpt>
      <trkpt lat="43.35821" lon="5.75444">
        <ele>404.37</ele>
        <time>2019-01-06T12:21:43Z</time>
      </trkpt>
      <trkpt lat="43.35822" lon="5.7544">
        <ele>405.81</ele>
        <time>2019-01-06T12:21:52Z</time>
      </trkpt>
      <trkpt lat="43.35821" lon="5.75437">
        <ele>404.37</ele>
        <time>2019-01-06T12:21:55Z</time>
      </trkpt>
      <trkpt lat="43.35828" lon="5.7543">
        <ele>405.81</ele>
        <time>2019-01-06T12:22:15Z</time>
      </trkpt>
      <trkpt lat="43.35831" lon="5.75426">
        <ele>405.33</ele>
        <time>2019-01-06T12:22:20Z</time>
      </trkpt>
      <trkpt lat="43.35834" lon="5.75423">
        <ele>405.33</ele>
        <time>2019-01-06T12:22:25Z</time>
      </trkpt>
      <trkpt lat="43.35835" lon="5.75422">
        <ele>405.81</ele>
        <time>2019-01-06T12:22:26Z</time>
      </trkpt>
      <trkpt lat="43.35837" lon="5.7542">
        <ele>405.81</ele>
        <time>2019-01-06T12:22:27Z</time>
      </trkpt>
      <trkpt lat="43.3584" lon="5.75416">
        <ele>405.33</ele>
        <time>2019-01-06T12:22:32Z</time>
      </trkpt>
      <trkpt lat="43.35847" lon="5.75405">
        <ele>405.33</ele>
        <time>2019-01-06T12:22:41Z</time>
      </trkpt>
      <trkpt lat="43.35847" lon="5.75401">
        <ele>404.37</ele>
        <time>2019-01-06T12:22:46Z</time>
      </trkpt>
      <trkpt lat="43.35849" lon="5.75399">
        <ele>404.37</ele>
        <time>2019-01-06T12:22:47Z</time>
      </trkpt>
      <trkpt lat="43.3585" lon="5.75396">
        <ele>404.37</ele>
        <time>2019-01-06T12:22:48Z</time>
      </trkpt>
      <trkpt lat="43.35851" lon="5.75394">
        <ele>404.37</ele>
        <time>2019-01-06T12:22:49Z</time>
      </trkpt>
      <trkpt lat="43.35858" lon="5.75383">
        <ele>404.37</ele>
        <time>2019-01-06T12:22:57Z</time>
      </trkpt>
      <trkpt lat="43.35859" lon="5.75383">
        <ele>404.37</ele>
        <time>2019-01-06T12:22:58Z</time>
      </trkpt>
      <trkpt lat="43.35861" lon="5.75382">
        <ele>404.37</ele>
        <time>2019-01-06T12:22:59Z</time>
      </trkpt>
      <trkpt lat="43.35863" lon="5.75381">
        <ele>404.37</ele>
        <time>2019-01-06T12:23:00Z</time>
      </trkpt>
      <trkpt lat="43.35864" lon="5.7538">
        <ele>404.37</ele>
        <time>2019-01-06T12:23:01Z</time>
      </trkpt>
      <trkpt lat="43.35866" lon="5.75377">
        <ele>404.37</ele>
        <time>2019-01-06T12:23:04Z</time>
      </trkpt>
      <trkpt lat="43.35868" lon="5.75375">
        <ele>403.89</ele>
        <time>2019-01-06T12:23:05Z</time>
      </trkpt>
      <trkpt lat="43.35871" lon="5.75374">
        <ele>403.89</ele>
        <time>2019-01-06T12:23:09Z</time>
      </trkpt>
      <trkpt lat="43.35872" lon="5.75375">
        <ele>403.89</ele>
        <time>2019-01-06T12:23:10Z</time>
      </trkpt>
      <trkpt lat="43.35874" lon="5.75375">
        <ele>403.89</ele>
        <time>2019-01-06T12:23:11Z</time>
      </trkpt>
      <trkpt lat="43.35877" lon="5.75375">
        <ele>404.37</ele>
        <time>2019-01-06T12:23:13Z</time>
      </trkpt>
      <trkpt lat="43.35877" lon="5.75371">
        <ele>403.89</ele>
        <time>2019-01-06T12:23:17Z</time>
      </trkpt>
      <trkpt lat="43.35878" lon="5.75367">
        <ele>405.33</ele>
        <time>2019-01-06T12:23:20Z</time>
      </trkpt>
      <trkpt lat="43.35879" lon="5.75366">
        <ele>405.33</ele>
        <time>2019-01-06T12:23:21Z</time>
      </trkpt>
      <trkpt lat="43.35887" lon="5.75353">
        <ele>405.81</ele>
        <time>2019-01-06T12:23:38Z</time>
      </trkpt>
      <trkpt lat="43.35888" lon="5.7535">
        <ele>405.81</ele>
        <time>2019-01-06T12:23:40Z</time>
      </trkpt>
      <trkpt lat="43.35895" lon="5.75341">
        <ele>405.81</ele>
        <time>2019-01-06T12:23:49Z</time>
      </trkpt>
      <trkpt lat="43.359" lon="5.75336">
        <ele>405.81</ele>
        <time>2019-01-06T12:23:54Z</time>
      </trkpt>
      <trkpt lat="43.35902" lon="5.75336">
        <ele>405.81</ele>
        <time>2019-01-06T12:23:55Z</time>
      </trkpt>
      <trkpt lat="43.35905" lon="5.75334">
        <ele>405.81</ele>
        <time>2019-01-06T12:23:58Z</time>
      </trkpt>
      <trkpt lat="43.35912" lon="5.75325">
        <ele>406.29</ele>
        <time>2019-01-06T12:24:06Z</time>
      </trkpt>
      <trkpt lat="43.35915" lon="5.75322">
        <ele>406.77</ele>
        <time>2019-01-06T12:24:10Z</time>
      </trkpt>
      <trkpt lat="43.35913" lon="5.75317">
        <ele>406.77</ele>
        <time>2019-01-06T12:24:16Z</time>
      </trkpt>
      <trkpt lat="43.35912" lon="5.75314">
        <ele>406.77</ele>
        <time>2019-01-06T12:24:17Z</time>
      </trkpt>
      <trkpt lat="43.35912" lon="5.75312">
        <ele>406.77</ele>
        <time>2019-01-06T12:24:18Z</time>
      </trkpt>
      <trkpt lat="43.35915" lon="5.75309">
        <ele>406.77</ele>
        <time>2019-01-06T12:24:21Z</time>
      </trkpt>
      <trkpt lat="43.35922" lon="5.75299">
        <ele>406.77</ele>
        <time>2019-01-06T12:24:39Z</time>
      </trkpt>
      <trkpt lat="43.35927" lon="5.75291">
        <ele>406.29</ele>
        <time>2019-01-06T12:25:02Z</time>
      </trkpt>
      <trkpt lat="43.35929" lon="5.75288">
        <ele>406.29</ele>
        <time>2019-01-06T12:25:18Z</time>
      </trkpt>
      <trkpt lat="43.35935" lon="5.75295">
        <ele>406.29</ele>
        <time>2019-01-06T12:25:31Z</time>
      </trkpt>
      <trkpt lat="43.35934" lon="5.75307">
        <ele>407.26</ele>
        <time>2019-01-06T12:25:42Z</time>
      </trkpt>
      <trkpt lat="43.35932" lon="5.75317">
        <ele>408.22</ele>
        <time>2019-01-06T12:25:47Z</time>
      </trkpt>
      <trkpt lat="43.35934" lon="5.75332">
        <ele>408.7</ele>
        <time>2019-01-06T12:26:03Z</time>
      </trkpt>
      <trkpt lat="43.35938" lon="5.75348">
        <ele>410.14</ele>
        <time>2019-01-06T12:26:14Z</time>
      </trkpt>
      <trkpt lat="43.35942" lon="5.75361">
        <ele>411.1</ele>
        <time>2019-01-06T12:26:23Z</time>
      </trkpt>
      <trkpt lat="43.3595" lon="5.75374">
        <ele>413.98</ele>
        <time>2019-01-06T12:26:37Z</time>
      </trkpt>
      <trkpt lat="43.35954" lon="5.7539">
        <ele>415.91</ele>
        <time>2019-01-06T12:26:51Z</time>
      </trkpt>
      <trkpt lat="43.35956" lon="5.75403">
        <ele>416.87</ele>
        <time>2019-01-06T12:27:06Z</time>
      </trkpt>
      <trkpt lat="43.35956" lon="5.75405">
        <ele>416.87</ele>
        <time>2019-01-06T12:27:07Z</time>
      </trkpt>
      <trkpt lat="43.35956" lon="5.75407">
        <ele>416.87</ele>
        <time>2019-01-06T12:27:08Z</time>
      </trkpt>
      <trkpt lat="43.35959" lon="5.75423">
        <ele>418.31</ele>
        <time>2019-01-06T12:27:23Z</time>
      </trkpt>
      <trkpt lat="43.35958" lon="5.75425">
        <ele>418.31</ele>
        <time>2019-01-06T12:27:25Z</time>
      </trkpt>
      <trkpt lat="43.35958" lon="5.75427">
        <ele>418.31</ele>
        <time>2019-01-06T12:27:26Z</time>
      </trkpt>
      <trkpt lat="43.35957" lon="5.75429">
        <ele>418.31</ele>
        <time>2019-01-06T12:27:27Z</time>
      </trkpt>
      <trkpt lat="43.35955" lon="5.75433">
        <ele>418.31</ele>
        <time>2019-01-06T12:27:35Z</time>
      </trkpt>
      <trkpt lat="43.35954" lon="5.75433">
        <ele>418.31</ele>
        <time>2019-01-06T12:27:42Z</time>
      </trkpt>
      <trkpt lat="43.35952" lon="5.75435">
        <ele>418.31</ele>
        <time>2019-01-06T12:27:43Z</time>
      </trkpt>
      <trkpt lat="43.35951" lon="5.75437">
        <ele>418.31</ele>
        <time>2019-01-06T12:27:44Z</time>
      </trkpt>
      <trkpt lat="43.3595" lon="5.75439">
        <ele>418.31</ele>
        <time>2019-01-06T12:27:45Z</time>
      </trkpt>
      <trkpt lat="43.3595" lon="5.75439">
        <ele>418.31</ele>
        <time>2019-01-06T12:27:46Z</time>
      </trkpt>
      <trkpt lat="43.35947" lon="5.75447">
        <ele>418.31</ele>
        <time>2019-01-06T12:27:53Z</time>
      </trkpt>
      <trkpt lat="43.35946" lon="5.75451">
        <ele>418.79</ele>
        <time>2019-01-06T12:28:07Z</time>
      </trkpt>
      <trkpt lat="43.35945" lon="5.75453">
        <ele>418.79</ele>
        <time>2019-01-06T12:28:11Z</time>
      </trkpt>
      <trkpt lat="43.35943" lon="5.75459">
        <ele>419.27</ele>
        <time>2019-01-06T12:28:22Z</time>
      </trkpt>
      <trkpt lat="43.35943" lon="5.7546">
        <ele>419.27</ele>
        <time>2019-01-06T12:28:27Z</time>
      </trkpt>
      <trkpt lat="43.35941" lon="5.75464">
        <ele>419.27</ele>
        <time>2019-01-06T12:28:32Z</time>
      </trkpt>
      <trkpt lat="43.3594" lon="5.75465">
        <ele>419.27</ele>
        <time>2019-01-06T12:28:33Z</time>
      </trkpt>
      <trkpt lat="43.35937" lon="5.75469">
        <ele>420.23</ele>
        <time>2019-01-06T12:28:43Z</time>
      </trkpt>
      <trkpt lat="43.35935" lon="5.75473">
        <ele>420.23</ele>
        <time>2019-01-06T12:28:47Z</time>
      </trkpt>
      <trkpt lat="43.35928" lon="5.75487">
        <ele>422.16</ele>
        <time>2019-01-06T12:28:58Z</time>
      </trkpt>
      <trkpt lat="43.35928" lon="5.75489">
        <ele>422.16</ele>
        <time>2019-01-06T12:29:00Z</time>
      </trkpt>
      <trkpt lat="43.35927" lon="5.75491">
        <ele>422.16</ele>
        <time>2019-01-06T12:29:02Z</time>
      </trkpt>
      <trkpt lat="43.35926" lon="5.75494">
        <ele>422.64</ele>
        <time>2019-01-06T12:29:03Z</time>
      </trkpt>
      <trkpt lat="43.35924" lon="5.75496">
        <ele>422.64</ele>
        <time>2019-01-06T12:29:06Z</time>
      </trkpt>
      <trkpt lat="43.35925" lon="5.75498">
        <ele>422.64</ele>
        <time>2019-01-06T12:29:07Z</time>
      </trkpt>
      <trkpt lat="43.35924" lon="5.75501">
        <ele>423.12</ele>
        <time>2019-01-06T12:29:10Z</time>
      </trkpt>
      <trkpt lat="43.35923" lon="5.75503">
        <ele>423.12</ele>
        <time>2019-01-06T12:29:11Z</time>
      </trkpt>
      <trkpt lat="43.35922" lon="5.75509">
        <ele>423.6</ele>
        <time>2019-01-06T12:29:17Z</time>
      </trkpt>
      <trkpt lat="43.35922" lon="5.75511">
        <ele>424.08</ele>
        <time>2019-01-06T12:29:18Z</time>
      </trkpt>
      <trkpt lat="43.35924" lon="5.75521">
        <ele>425.04</ele>
        <time>2019-01-06T12:29:29Z</time>
      </trkpt>
      <trkpt lat="43.35921" lon="5.75522">
        <ele>424.56</ele>
        <time>2019-01-06T12:29:46Z</time>
      </trkpt>
      <trkpt lat="43.35921" lon="5.75522">
        <ele>424.56</ele>
        <time>2019-01-06T12:29:47Z</time>
      </trkpt>
      <trkpt lat="43.35921" lon="5.75523">
        <ele>426.48</ele>
        <time>2019-01-06T12:29:49Z</time>
      </trkpt>
      <trkpt lat="43.35922" lon="5.7553">
        <ele>424.56</ele>
        <time>2019-01-06T12:29:57Z</time>
      </trkpt>
      <trkpt lat="43.35923" lon="5.75531">
        <ele>428.89</ele>
        <time>2019-01-06T12:29:58Z</time>
      </trkpt>
      <trkpt lat="43.35922" lon="5.75538">
        <ele>425.52</ele>
        <time>2019-01-06T12:30:08Z</time>
      </trkpt>
      <trkpt lat="43.35922" lon="5.7554">
        <ele>425.52</ele>
        <time>2019-01-06T12:30:14Z</time>
      </trkpt>
      <trkpt lat="43.35922" lon="5.7554">
        <ele>424.08</ele>
        <time>2019-01-06T12:30:16Z</time>
      </trkpt>
      <trkpt lat="43.35922" lon="5.75541">
        <ele>428.89</ele>
        <time>2019-01-06T12:30:18Z</time>
      </trkpt>
      <trkpt lat="43.35921" lon="5.75541">
        <ele>426.96</ele>
        <time>2019-01-06T12:30:19Z</time>
      </trkpt>
      <trkpt lat="43.35922" lon="5.75539">
        <ele>426.48</ele>
        <time>2019-01-06T12:30:41Z</time>
      </trkpt>
      <trkpt lat="43.35925" lon="5.75535">
        <ele>426</ele>
        <time>2019-01-06T12:30:43Z</time>
      </trkpt>
      <trkpt lat="43.35929" lon="5.75526">
        <ele>425.52</ele>
        <time>2019-01-06T12:31:10Z</time>
      </trkpt>
      <trkpt lat="43.3592" lon="5.75522">
        <ele>426</ele>
        <time>2019-01-06T12:31:26Z</time>
      </trkpt>
      <trkpt lat="43.35921" lon="5.75522">
        <ele>425.52</ele>
        <time>2019-01-06T12:31:41Z</time>
      </trkpt>
      <trkpt lat="43.35922" lon="5.75524">
        <ele>426.48</ele>
        <time>2019-01-06T12:32:00Z</time>
      </trkpt>
      <trkpt lat="43.3592" lon="5.75522">
        <ele>425.04</ele>
        <time>2019-01-06T12:32:13Z</time>
      </trkpt>
      <trkpt lat="43.3592" lon="5.75523">
        <ele>426.48</ele>
        <time>2019-01-06T12:32:15Z</time>
      </trkpt>
      <trkpt lat="43.35923" lon="5.75532">
        <ele>427.92</ele>
        <time>2019-01-06T12:32:25Z</time>
      </trkpt>
      <trkpt lat="43.35926" lon="5.75545">
        <ele>426.96</ele>
        <time>2019-01-06T12:32:41Z</time>
      </trkpt>
      <trkpt lat="43.35926" lon="5.75546">
        <ele>426.96</ele>
        <time>2019-01-06T12:32:42Z</time>
      </trkpt>
      <trkpt lat="43.35926" lon="5.75547">
        <ele>429.37</ele>
        <time>2019-01-06T12:32:43Z</time>
      </trkpt>
      <trkpt lat="43.35927" lon="5.75549">
        <ele>429.37</ele>
        <time>2019-01-06T12:32:44Z</time>
      </trkpt>
      <trkpt lat="43.35929" lon="5.75554">
        <ele>428.89</ele>
        <time>2019-01-06T12:32:59Z</time>
      </trkpt>
      <trkpt lat="43.35929" lon="5.75556">
        <ele>431.77</ele>
        <time>2019-01-06T12:33:02Z</time>
      </trkpt>
      <trkpt lat="43.3593" lon="5.75569">
        <ele>433.69</ele>
        <time>2019-01-06T12:33:11Z</time>
      </trkpt>
      <trkpt lat="43.35937" lon="5.7558">
        <ele>432.73</ele>
        <time>2019-01-06T12:33:23Z</time>
      </trkpt>
      <trkpt lat="43.35942" lon="5.75589">
        <ele>433.21</ele>
        <time>2019-01-06T12:33:31Z</time>
      </trkpt>
      <trkpt lat="43.35944" lon="5.75596">
        <ele>434.17</ele>
        <time>2019-01-06T12:33:40Z</time>
      </trkpt>
      <trkpt lat="43.35946" lon="5.756">
        <ele>435.61</ele>
        <time>2019-01-06T12:33:44Z</time>
      </trkpt>
      <trkpt lat="43.35947" lon="5.75604">
        <ele>436.1</ele>
        <time>2019-01-06T12:33:51Z</time>
      </trkpt>
      <trkpt lat="43.35948" lon="5.75609">
        <ele>437.06</ele>
        <time>2019-01-06T12:34:00Z</time>
      </trkpt>
      <trkpt lat="43.35948" lon="5.75612">
        <ele>436.1</ele>
        <time>2019-01-06T12:34:09Z</time>
      </trkpt>
      <trkpt lat="43.35949" lon="5.75619">
        <ele>437.54</ele>
        <time>2019-01-06T12:34:25Z</time>
      </trkpt>
      <trkpt lat="43.35959" lon="5.75628">
        <ele>438.5</ele>
        <time>2019-01-06T12:34:45Z</time>
      </trkpt>
      <trkpt lat="43.35968" lon="5.7563">
        <ele>438.98</ele>
        <time>2019-01-06T12:35:05Z</time>
      </trkpt>
      <trkpt lat="43.3596" lon="5.75635">
        <ele>439.94</ele>
        <time>2019-01-06T12:35:23Z</time>
      </trkpt>
      <trkpt lat="43.35959" lon="5.75645">
        <ele>442.34</ele>
        <time>2019-01-06T12:35:42Z</time>
      </trkpt>
      <trkpt lat="43.3596" lon="5.75652">
        <ele>442.82</ele>
        <time>2019-01-06T12:35:59Z</time>
      </trkpt>
      <trkpt lat="43.35962" lon="5.75655">
        <ele>444.27</ele>
        <time>2019-01-06T12:36:11Z</time>
      </trkpt>
      <trkpt lat="43.35964" lon="5.75662">
        <ele>442.82</ele>
        <time>2019-01-06T12:36:16Z</time>
      </trkpt>
      <trkpt lat="43.35965" lon="5.75664">
        <ele>444.75</ele>
        <time>2019-01-06T12:36:18Z</time>
      </trkpt>
      <trkpt lat="43.35971" lon="5.75682">
        <ele>446.67</ele>
        <time>2019-01-06T12:36:34Z</time>
      </trkpt>
      <trkpt lat="43.35974" lon="5.75693">
        <ele>447.15</ele>
        <time>2019-01-06T12:36:47Z</time>
      </trkpt>
      <trkpt lat="43.35975" lon="5.75706">
        <ele>448.59</ele>
        <time>2019-01-06T12:36:58Z</time>
      </trkpt>
      <trkpt lat="43.35974" lon="5.75716">
        <ele>451</ele>
        <time>2019-01-06T12:37:06Z</time>
      </trkpt>
      <trkpt lat="43.35974" lon="5.75718">
        <ele>451</ele>
        <time>2019-01-06T12:37:07Z</time>
      </trkpt>
      <trkpt lat="43.35975" lon="5.75723">
        <ele>451.48</ele>
        <time>2019-01-06T12:37:11Z</time>
      </trkpt>
      <trkpt lat="43.35979" lon="5.75727">
        <ele>451.96</ele>
        <time>2019-01-06T12:37:25Z</time>
      </trkpt>
      <trkpt lat="43.3598" lon="5.75728">
        <ele>451.96</ele>
        <time>2019-01-06T12:37:28Z</time>
      </trkpt>
      <trkpt lat="43.35981" lon="5.75729">
        <ele>451.96</ele>
        <time>2019-01-06T12:37:29Z</time>
      </trkpt>
      <trkpt lat="43.35984" lon="5.75738">
        <ele>453.88</ele>
        <time>2019-01-06T12:37:41Z</time>
      </trkpt>
      <trkpt lat="43.35987" lon="5.75745">
        <ele>454.36</ele>
        <time>2019-01-06T12:37:52Z</time>
      </trkpt>
      <trkpt lat="43.35987" lon="5.75747">
        <ele>453.88</ele>
        <time>2019-01-06T12:37:53Z</time>
      </trkpt>
      <trkpt lat="43.35987" lon="5.75749">
        <ele>454.36</ele>
        <time>2019-01-06T12:37:54Z</time>
      </trkpt>
      <trkpt lat="43.3599" lon="5.75762">
        <ele>456.28</ele>
        <time>2019-01-06T12:38:04Z</time>
      </trkpt>
      <trkpt lat="43.35991" lon="5.75766">
        <ele>456.76</ele>
        <time>2019-01-06T12:38:08Z</time>
      </trkpt>
      <trkpt lat="43.35993" lon="5.75771">
        <ele>458.21</ele>
        <time>2019-01-06T12:38:20Z</time>
      </trkpt>
      <trkpt lat="43.35993" lon="5.75779">
        <ele>459.17</ele>
        <time>2019-01-06T12:38:32Z</time>
      </trkpt>
      <trkpt lat="43.35993" lon="5.75783">
        <ele>459.17</ele>
        <time>2019-01-06T12:38:36Z</time>
      </trkpt>
      <trkpt lat="43.35995" lon="5.75786">
        <ele>459.17</ele>
        <time>2019-01-06T12:38:39Z</time>
      </trkpt>
      <trkpt lat="43.35996" lon="5.75788">
        <ele>459.17</ele>
        <time>2019-01-06T12:38:40Z</time>
      </trkpt>
      <trkpt lat="43.36003" lon="5.75799">
        <ele>460.61</ele>
        <time>2019-01-06T12:38:50Z</time>
      </trkpt>
      <trkpt lat="43.36011" lon="5.75808">
        <ele>463.01</ele>
        <time>2019-01-06T12:39:01Z</time>
      </trkpt>
      <trkpt lat="43.36012" lon="5.75809">
        <ele>463.49</ele>
        <time>2019-01-06T12:39:15Z</time>
      </trkpt>
      <trkpt lat="43.36015" lon="5.75821">
        <ele>464.93</ele>
        <time>2019-01-06T12:39:30Z</time>
      </trkpt>
      <trkpt lat="43.36015" lon="5.75831">
        <ele>466.86</ele>
        <time>2019-01-06T12:39:43Z</time>
      </trkpt>
      <trkpt lat="43.36015" lon="5.75837">
        <ele>466.86</ele>
        <time>2019-01-06T12:39:48Z</time>
      </trkpt>
      <trkpt lat="43.36017" lon="5.75854">
        <ele>470.22</ele>
        <time>2019-01-06T12:40:02Z</time>
      </trkpt>
      <trkpt lat="43.3602" lon="5.75874">
        <ele>473.59</ele>
        <time>2019-01-06T12:40:21Z</time>
      </trkpt>
      <trkpt lat="43.36019" lon="5.75878">
        <ele>473.59</ele>
        <time>2019-01-06T12:40:25Z</time>
      </trkpt>
      <trkpt lat="43.36021" lon="5.75891">
        <ele>475.51</ele>
        <time>2019-01-06T12:40:41Z</time>
      </trkpt>
      <trkpt lat="43.36022" lon="5.75894">
        <ele>476.47</ele>
        <time>2019-01-06T12:40:52Z</time>
      </trkpt>
      <trkpt lat="43.36024" lon="5.75907">
        <ele>477.91</ele>
        <time>2019-01-06T12:41:00Z</time>
      </trkpt>
      <trkpt lat="43.36029" lon="5.75918">
        <ele>479.84</ele>
        <time>2019-01-06T12:41:12Z</time>
      </trkpt>
      <trkpt lat="43.36032" lon="5.75924">
        <ele>480.8</ele>
        <time>2019-01-06T12:41:17Z</time>
      </trkpt>
      <trkpt lat="43.36034" lon="5.75927">
        <ele>480.32</ele>
        <time>2019-01-06T12:41:20Z</time>
      </trkpt>
      <trkpt lat="43.36039" lon="5.75935">
        <ele>481.76</ele>
        <time>2019-01-06T12:41:28Z</time>
      </trkpt>
      <trkpt lat="43.36041" lon="5.75949">
        <ele>483.2</ele>
        <time>2019-01-06T12:41:41Z</time>
      </trkpt>
      <trkpt lat="43.36043" lon="5.75958">
        <ele>484.16</ele>
        <time>2019-01-06T12:41:54Z</time>
      </trkpt>
      <trkpt lat="43.36044" lon="5.75959">
        <ele>484.16</ele>
        <time>2019-01-06T12:41:55Z</time>
      </trkpt>
      <trkpt lat="43.36045" lon="5.75962">
        <ele>484.64</ele>
        <time>2019-01-06T12:41:58Z</time>
      </trkpt>
      <trkpt lat="43.36046" lon="5.75965">
        <ele>485.12</ele>
        <time>2019-01-06T12:42:02Z</time>
      </trkpt>
      <trkpt lat="43.36052" lon="5.75967">
        <ele>485.6</ele>
        <time>2019-01-06T12:42:10Z</time>
      </trkpt>
      <trkpt lat="43.36058" lon="5.75968">
        <ele>486.08</ele>
        <time>2019-01-06T12:42:19Z</time>
      </trkpt>
      <trkpt lat="43.36062" lon="5.75969">
        <ele>487.05</ele>
        <time>2019-01-06T12:42:35Z</time>
      </trkpt>
      <trkpt lat="43.36056" lon="5.7597">
        <ele>487.05</ele>
        <time>2019-01-06T12:42:52Z</time>
      </trkpt>
      <trkpt lat="43.36054" lon="5.75968">
        <ele>486.56</ele>
        <time>2019-01-06T12:43:17Z</time>
      </trkpt>
      <trkpt lat="43.36056" lon="5.75971">
        <ele>487.05</ele>
        <time>2019-01-06T12:43:24Z</time>
      </trkpt>
      <trkpt lat="43.36058" lon="5.75982">
        <ele>488.97</ele>
        <time>2019-01-06T12:43:45Z</time>
      </trkpt>
      <trkpt lat="43.36059" lon="5.76003">
        <ele>490.41</ele>
        <time>2019-01-06T12:43:59Z</time>
      </trkpt>
      <trkpt lat="43.36061" lon="5.76005">
        <ele>490.41</ele>
        <time>2019-01-06T12:44:03Z</time>
      </trkpt>
      <trkpt lat="43.36064" lon="5.76006">
        <ele>490.89</ele>
        <time>2019-01-06T12:44:07Z</time>
      </trkpt>
      <trkpt lat="43.36069" lon="5.76011">
        <ele>491.85</ele>
        <time>2019-01-06T12:44:12Z</time>
      </trkpt>
      <trkpt lat="43.36078" lon="5.76014">
        <ele>492.81</ele>
        <time>2019-01-06T12:44:24Z</time>
      </trkpt>
      <trkpt lat="43.36082" lon="5.76015">
        <ele>492.81</ele>
        <time>2019-01-06T12:44:28Z</time>
      </trkpt>
      <trkpt lat="43.36088" lon="5.76015">
        <ele>494.26</ele>
        <time>2019-01-06T12:44:33Z</time>
      </trkpt>
      <trkpt lat="43.361" lon="5.76016">
        <ele>494.74</ele>
        <time>2019-01-06T12:44:45Z</time>
      </trkpt>
      <trkpt lat="43.36108" lon="5.76016">
        <ele>495.22</ele>
        <time>2019-01-06T12:44:56Z</time>
      </trkpt>
      <trkpt lat="43.36113" lon="5.76013">
        <ele>495.7</ele>
        <time>2019-01-06T12:45:02Z</time>
      </trkpt>
      <trkpt lat="43.36118" lon="5.76015">
        <ele>495.7</ele>
        <time>2019-01-06T12:45:06Z</time>
      </trkpt>
      <trkpt lat="43.36122" lon="5.76015">
        <ele>496.18</ele>
        <time>2019-01-06T12:45:11Z</time>
      </trkpt>
      <trkpt lat="43.36129" lon="5.76013">
        <ele>497.14</ele>
        <time>2019-01-06T12:45:20Z</time>
      </trkpt>
      <trkpt lat="43.36127" lon="5.75995">
        <ele>497.14</ele>
        <time>2019-01-06T12:45:39Z</time>
      </trkpt>
      <trkpt lat="43.36126" lon="5.75983">
        <ele>495.7</ele>
        <time>2019-01-06T12:46:01Z</time>
      </trkpt>
      <trkpt lat="43.36126" lon="5.75982">
        <ele>495.7</ele>
        <time>2019-01-06T12:46:20Z</time>
      </trkpt>
      <trkpt lat="43.36127" lon="5.75989">
        <ele>495.7</ele>
        <time>2019-01-06T12:46:41Z</time>
      </trkpt>
      <trkpt lat="43.36129" lon="5.75993">
        <ele>497.14</ele>
        <time>2019-01-06T12:46:45Z</time>
      </trkpt>
      <trkpt lat="43.36128" lon="5.76007">
        <ele>497.14</ele>
        <time>2019-01-06T12:47:13Z</time>
      </trkpt>
      <trkpt lat="43.36129" lon="5.76011">
        <ele>498.1</ele>
        <time>2019-01-06T12:47:39Z</time>
      </trkpt>
      <trkpt lat="43.36132" lon="5.76019">
        <ele>498.1</ele>
        <time>2019-01-06T12:47:58Z</time>
      </trkpt>
      <trkpt lat="43.36133" lon="5.76019">
        <ele>500.02</ele>
        <time>2019-01-06T12:48:01Z</time>
      </trkpt>
      <trkpt lat="43.36137" lon="5.76022">
        <ele>498.58</ele>
        <time>2019-01-06T12:48:04Z</time>
      </trkpt>
      <trkpt lat="43.36139" lon="5.76023">
        <ele>498.58</ele>
        <time>2019-01-06T12:48:05Z</time>
      </trkpt>
      <trkpt lat="43.36147" lon="5.76028">
        <ele>499.54</ele>
        <time>2019-01-06T12:48:13Z</time>
      </trkpt>
      <trkpt lat="43.36149" lon="5.76031">
        <ele>500.98</ele>
        <time>2019-01-06T12:48:18Z</time>
      </trkpt>
      <trkpt lat="43.3615" lon="5.76038">
        <ele>501.46</ele>
        <time>2019-01-06T12:48:24Z</time>
      </trkpt>
      <trkpt lat="43.36155" lon="5.76057">
        <ele>501.95</ele>
        <time>2019-01-06T12:48:37Z</time>
      </trkpt>
      <trkpt lat="43.36157" lon="5.76069">
        <ele>502.43</ele>
        <time>2019-01-06T12:48:48Z</time>
      </trkpt>
      <trkpt lat="43.36158" lon="5.76072">
        <ele>502.43</ele>
        <time>2019-01-06T12:48:50Z</time>
      </trkpt>
      <trkpt lat="43.36159" lon="5.76074">
        <ele>502.43</ele>
        <time>2019-01-06T12:48:51Z</time>
      </trkpt>
      <trkpt lat="43.36161" lon="5.7608">
        <ele>502.43</ele>
        <time>2019-01-06T12:48:56Z</time>
      </trkpt>
      <trkpt lat="43.36162" lon="5.76082">
        <ele>502.91</ele>
        <time>2019-01-06T12:48:57Z</time>
      </trkpt>
      <trkpt lat="43.36166" lon="5.76092">
        <ele>504.35</ele>
        <time>2019-01-06T12:49:03Z</time>
      </trkpt>
      <trkpt lat="43.36178" lon="5.76106">
        <ele>504.83</ele>
        <time>2019-01-06T12:49:23Z</time>
      </trkpt>
      <trkpt lat="43.36191" lon="5.76118">
        <ele>506.27</ele>
        <time>2019-01-06T12:49:45Z</time>
      </trkpt>
      <trkpt lat="43.36205" lon="5.76147">
        <ele>508.67</ele>
        <time>2019-01-06T12:50:04Z</time>
      </trkpt>
      <trkpt lat="43.36207" lon="5.76152">
        <ele>508.67</ele>
        <time>2019-01-06T12:50:05Z</time>
      </trkpt>
      <trkpt lat="43.3621" lon="5.76163">
        <ele>508.67</ele>
        <time>2019-01-06T12:50:11Z</time>
      </trkpt>
      <trkpt lat="43.36218" lon="5.76177">
        <ele>509.64</ele>
        <time>2019-01-06T12:50:25Z</time>
      </trkpt>
      <trkpt lat="43.3622" lon="5.76179">
        <ele>509.64</ele>
        <time>2019-01-06T12:50:36Z</time>
      </trkpt>
      <trkpt lat="43.36219" lon="5.76185">
        <ele>510.12</ele>
        <time>2019-01-06T12:50:52Z</time>
      </trkpt>
      <trkpt lat="43.3622" lon="5.76183">
        <ele>510.12</ele>
        <time>2019-01-06T12:51:05Z</time>
      </trkpt>
      <trkpt lat="43.36219" lon="5.7618">
        <ele>509.16</ele>
        <time>2019-01-06T12:51:13Z</time>
      </trkpt>
      <trkpt lat="43.36218" lon="5.76178">
        <ele>509.16</ele>
        <time>2019-01-06T12:51:14Z</time>
      </trkpt>
      <trkpt lat="43.36215" lon="5.76175">
        <ele>509.16</ele>
        <time>2019-01-06T12:51:23Z</time>
      </trkpt>
      <trkpt lat="43.36217" lon="5.76172">
        <ele>508.67</ele>
        <time>2019-01-06T12:51:35Z</time>
      </trkpt>
      <trkpt lat="43.3622" lon="5.76176">
        <ele>508.67</ele>
        <time>2019-01-06T12:51:39Z</time>
      </trkpt>
      <trkpt lat="43.36221" lon="5.76177">
        <ele>508.67</ele>
        <time>2019-01-06T12:51:40Z</time>
      </trkpt>
      <trkpt lat="43.36222" lon="5.76179">
        <ele>508.67</ele>
        <time>2019-01-06T12:51:41Z</time>
      </trkpt>
      <trkpt lat="43.36227" lon="5.76184">
        <ele>508.19</ele>
        <time>2019-01-06T12:51:49Z</time>
      </trkpt>
      <trkpt lat="43.36225" lon="5.76184">
        <ele>508.19</ele>
        <time>2019-01-06T12:52:01Z</time>
      </trkpt>
      <trkpt lat="43.36223" lon="5.76185">
        <ele>508.19</ele>
        <time>2019-01-06T12:52:02Z</time>
      </trkpt>
      <trkpt lat="43.3622" lon="5.7619">
        <ele>509.64</ele>
        <time>2019-01-06T12:52:09Z</time>
      </trkpt>
      <trkpt lat="43.3622" lon="5.7619">
        <ele>509.64</ele>
        <time>2019-01-06T12:52:10Z</time>
      </trkpt>
      <trkpt lat="43.36225" lon="5.76201">
        <ele>510.6</ele>
        <time>2019-01-06T12:52:24Z</time>
      </trkpt>
      <trkpt lat="43.36225" lon="5.76201">
        <ele>510.6</ele>
        <time>2019-01-06T12:52:40Z</time>
      </trkpt>
      <trkpt lat="43.36226" lon="5.76208">
        <ele>511.08</ele>
        <time>2019-01-06T12:52:55Z</time>
      </trkpt>
      <trkpt lat="43.36233" lon="5.76218">
        <ele>511.08</ele>
        <time>2019-01-06T12:53:15Z</time>
      </trkpt>
      <trkpt lat="43.3624" lon="5.76229">
        <ele>511.08</ele>
        <time>2019-01-06T12:53:27Z</time>
      </trkpt>
      <trkpt lat="43.36242" lon="5.76231">
        <ele>509.64</ele>
        <time>2019-01-06T12:53:29Z</time>
      </trkpt>
      <trkpt lat="43.36246" lon="5.76242">
        <ele>509.64</ele>
        <time>2019-01-06T12:53:40Z</time>
      </trkpt>
      <trkpt lat="43.36248" lon="5.76244">
        <ele>509.64</ele>
        <time>2019-01-06T12:53:43Z</time>
      </trkpt>
      <trkpt lat="43.36248" lon="5.76245">
        <ele>509.16</ele>
        <time>2019-01-06T12:53:44Z</time>
      </trkpt>
      <trkpt lat="43.3625" lon="5.76251">
        <ele>509.16</ele>
        <time>2019-01-06T12:53:50Z</time>
      </trkpt>
      <trkpt lat="43.36251" lon="5.76256">
        <ele>509.16</ele>
        <time>2019-01-06T12:54:02Z</time>
      </trkpt>
      <trkpt lat="43.36256" lon="5.76274">
        <ele>509.16</ele>
        <time>2019-01-06T12:54:19Z</time>
      </trkpt>
      <trkpt lat="43.36258" lon="5.76281">
        <ele>509.16</ele>
        <time>2019-01-06T12:54:25Z</time>
      </trkpt>
      <trkpt lat="43.3626" lon="5.76285">
        <ele>509.16</ele>
        <time>2019-01-06T12:54:28Z</time>
      </trkpt>
      <trkpt lat="43.3626" lon="5.76287">
        <ele>509.16</ele>
        <time>2019-01-06T12:54:29Z</time>
      </trkpt>
      <trkpt lat="43.36263" lon="5.76303">
        <ele>509.16</ele>
        <time>2019-01-06T12:54:41Z</time>
      </trkpt>
      <trkpt lat="43.36268" lon="5.76316">
        <ele>509.16</ele>
        <time>2019-01-06T12:54:51Z</time>
      </trkpt>
      <trkpt lat="43.36273" lon="5.76331">
        <ele>509.16</ele>
        <time>2019-01-06T12:55:00Z</time>
      </trkpt>
      <trkpt lat="43.3628" lon="5.76345">
        <ele>510.6</ele>
        <time>2019-01-06T12:55:10Z</time>
      </trkpt>
      <trkpt lat="43.36285" lon="5.76353">
        <ele>510.12</ele>
        <time>2019-01-06T12:55:19Z</time>
      </trkpt>
      <trkpt lat="43.36287" lon="5.76356">
        <ele>510.12</ele>
        <time>2019-01-06T12:55:22Z</time>
      </trkpt>
      <trkpt lat="43.36288" lon="5.76357">
        <ele>510.12</ele>
        <time>2019-01-06T12:55:23Z</time>
      </trkpt>
      <trkpt lat="43.36294" lon="5.7637">
        <ele>510.12</ele>
        <time>2019-01-06T12:55:34Z</time>
      </trkpt>
      <trkpt lat="43.36297" lon="5.76374">
        <ele>510.12</ele>
        <time>2019-01-06T12:55:38Z</time>
      </trkpt>
      <trkpt lat="43.36297" lon="5.76376">
        <ele>510.12</ele>
        <time>2019-01-06T12:55:39Z</time>
      </trkpt>
      <trkpt lat="43.36298" lon="5.76378">
        <ele>510.12</ele>
        <time>2019-01-06T12:55:40Z</time>
      </trkpt>
      <trkpt lat="43.36299" lon="5.7638">
        <ele>510.12</ele>
        <time>2019-01-06T12:55:41Z</time>
      </trkpt>
      <trkpt lat="43.36305" lon="5.76393">
        <ele>510.12</ele>
        <time>2019-01-06T12:55:50Z</time>
      </trkpt>
      <trkpt lat="43.36304" lon="5.76395">
        <ele>510.12</ele>
        <time>2019-01-06T12:55:53Z</time>
      </trkpt>
      <trkpt lat="43.36305" lon="5.76396">
        <ele>510.6</ele>
        <time>2019-01-06T12:55:54Z</time>
      </trkpt>
      <trkpt lat="43.36308" lon="5.76404">
        <ele>510.6</ele>
        <time>2019-01-06T12:55:59Z</time>
      </trkpt>
      <trkpt lat="43.36309" lon="5.76405">
        <ele>510.6</ele>
        <time>2019-01-06T12:56:00Z</time>
      </trkpt>
      <trkpt lat="43.36311" lon="5.76411">
        <ele>510.6</ele>
        <time>2019-01-06T12:56:05Z</time>
      </trkpt>
      <trkpt lat="43.36313" lon="5.76417">
        <ele>510.6</ele>
        <time>2019-01-06T12:56:10Z</time>
      </trkpt>
      <trkpt lat="43.36314" lon="5.76418">
        <ele>510.6</ele>
        <time>2019-01-06T12:56:11Z</time>
      </trkpt>
      <trkpt lat="43.36318" lon="5.76428">
        <ele>509.64</ele>
        <time>2019-01-06T12:56:18Z</time>
      </trkpt>
      <trkpt lat="43.36317" lon="5.76429">
        <ele>509.64</ele>
        <time>2019-01-06T12:56:21Z</time>
      </trkpt>
      <trkpt lat="43.36319" lon="5.76439">
        <ele>508.67</ele>
        <time>2019-01-06T12:56:31Z</time>
      </trkpt>
      <trkpt lat="43.36319" lon="5.76442">
        <ele>508.19</ele>
        <time>2019-01-06T12:56:32Z</time>
      </trkpt>
      <trkpt lat="43.36319" lon="5.76444">
        <ele>508.19</ele>
        <time>2019-01-06T12:56:33Z</time>
      </trkpt>
      <trkpt lat="43.36322" lon="5.76452">
        <ele>508.19</ele>
        <time>2019-01-06T12:56:40Z</time>
      </trkpt>
      <trkpt lat="43.36327" lon="5.76459">
        <ele>507.23</ele>
        <time>2019-01-06T12:56:48Z</time>
      </trkpt>
      <trkpt lat="43.36329" lon="5.7646">
        <ele>507.23</ele>
        <time>2019-01-06T12:56:49Z</time>
      </trkpt>
      <trkpt lat="43.36331" lon="5.76461">
        <ele>507.23</ele>
        <time>2019-01-06T12:56:50Z</time>
      </trkpt>
      <trkpt lat="43.36332" lon="5.76462">
        <ele>507.23</ele>
        <time>2019-01-06T12:56:51Z</time>
      </trkpt>
      <trkpt lat="43.36334" lon="5.76462">
        <ele>507.23</ele>
        <time>2019-01-06T12:56:52Z</time>
      </trkpt>
      <trkpt lat="43.36337" lon="5.76465">
        <ele>507.23</ele>
        <time>2019-01-06T12:56:57Z</time>
      </trkpt>
      <trkpt lat="43.36339" lon="5.76468">
        <ele>507.23</ele>
        <time>2019-01-06T12:56:59Z</time>
      </trkpt>
      <trkpt lat="43.36343" lon="5.7647">
        <ele>507.23</ele>
        <time>2019-01-06T12:57:04Z</time>
      </trkpt>
      <trkpt lat="43.36344" lon="5.76471">
        <ele>507.23</ele>
        <time>2019-01-06T12:57:05Z</time>
      </trkpt>
      <trkpt lat="43.36357" lon="5.76475">
        <ele>509.64</ele>
        <time>2019-01-06T12:57:16Z</time>
      </trkpt>
      <trkpt lat="43.3636" lon="5.76475">
        <ele>510.12</ele>
        <time>2019-01-06T12:57:20Z</time>
      </trkpt>
      <trkpt lat="43.36361" lon="5.76475">
        <ele>510.12</ele>
        <time>2019-01-06T12:57:21Z</time>
      </trkpt>
      <trkpt lat="43.36365" lon="5.76473">
        <ele>510.6</ele>
        <time>2019-01-06T12:57:25Z</time>
      </trkpt>
      <trkpt lat="43.36366" lon="5.76472">
        <ele>511.08</ele>
        <time>2019-01-06T12:57:26Z</time>
      </trkpt>
      <trkpt lat="43.36369" lon="5.76472">
        <ele>511.56</ele>
        <time>2019-01-06T12:57:29Z</time>
      </trkpt>
      <trkpt lat="43.36374" lon="5.76474">
        <ele>511.56</ele>
        <time>2019-01-06T12:57:34Z</time>
      </trkpt>
      <trkpt lat="43.36376" lon="5.76474">
        <ele>512.52</ele>
        <time>2019-01-06T12:57:36Z</time>
      </trkpt>
      <trkpt lat="43.36378" lon="5.76475">
        <ele>512.52</ele>
        <time>2019-01-06T12:57:38Z</time>
      </trkpt>
      <trkpt lat="43.36379" lon="5.76476">
        <ele>512.52</ele>
        <time>2019-01-06T12:57:39Z</time>
      </trkpt>
      <trkpt lat="43.36381" lon="5.76477">
        <ele>512.52</ele>
        <time>2019-01-06T12:57:40Z</time>
      </trkpt>
      <trkpt lat="43.36383" lon="5.76479">
        <ele>512.52</ele>
        <time>2019-01-06T12:57:43Z</time>
      </trkpt>
      <trkpt lat="43.36387" lon="5.76483">
        <ele>513</ele>
        <time>2019-01-06T12:57:53Z</time>
      </trkpt>
      <trkpt lat="43.36389" lon="5.76485">
        <ele>513</ele>
        <time>2019-01-06T12:58:00Z</time>
      </trkpt>
      <trkpt lat="43.36391" lon="5.76489">
        <ele>513</ele>
        <time>2019-01-06T12:58:04Z</time>
      </trkpt>
      <trkpt lat="43.36398" lon="5.76497">
        <ele>511.56</ele>
        <time>2019-01-06T12:58:15Z</time>
      </trkpt>
      <trkpt lat="43.36399" lon="5.76498">
        <ele>513</ele>
        <time>2019-01-06T12:58:17Z</time>
      </trkpt>
      <trkpt lat="43.36405" lon="5.76507">
        <ele>512.52</ele>
        <time>2019-01-06T12:58:30Z</time>
      </trkpt>
      <trkpt lat="43.36413" lon="5.76513">
        <ele>513.48</ele>
        <time>2019-01-06T12:58:37Z</time>
      </trkpt>
      <trkpt lat="43.36418" lon="5.76521">
        <ele>513.48</ele>
        <time>2019-01-06T12:58:43Z</time>
      </trkpt>
      <trkpt lat="43.36431" lon="5.7654">
        <ele>513.48</ele>
        <time>2019-01-06T12:58:57Z</time>
      </trkpt>
      <trkpt lat="43.36433" lon="5.76543">
        <ele>512.52</ele>
        <time>2019-01-06T12:59:02Z</time>
      </trkpt>
      <trkpt lat="43.36435" lon="5.76544">
        <ele>512.04</ele>
        <time>2019-01-06T12:59:03Z</time>
      </trkpt>
      <trkpt lat="43.36437" lon="5.76546">
        <ele>511.56</ele>
        <time>2019-01-06T12:59:07Z</time>
      </trkpt>
      <trkpt lat="43.3644" lon="5.76546">
        <ele>511.56</ele>
        <time>2019-01-06T12:59:08Z</time>
      </trkpt>
      <trkpt lat="43.36443" lon="5.76547">
        <ele>511.08</ele>
        <time>2019-01-06T12:59:12Z</time>
      </trkpt>
      <trkpt lat="43.36445" lon="5.76548">
        <ele>511.08</ele>
        <time>2019-01-06T12:59:13Z</time>
      </trkpt>
      <trkpt lat="43.36446" lon="5.76549">
        <ele>511.08</ele>
        <time>2019-01-06T12:59:14Z</time>
      </trkpt>
      <trkpt lat="43.36448" lon="5.76551">
        <ele>510.6</ele>
        <time>2019-01-06T12:59:18Z</time>
      </trkpt>
      <trkpt lat="43.36449" lon="5.76553">
        <ele>510.6</ele>
        <time>2019-01-06T12:59:19Z</time>
      </trkpt>
      <trkpt lat="43.36452" lon="5.76556">
        <ele>510.6</ele>
        <time>2019-01-06T12:59:22Z</time>
      </trkpt>
      <trkpt lat="43.36452" lon="5.76557">
        <ele>510.6</ele>
        <time>2019-01-06T12:59:23Z</time>
      </trkpt>
      <trkpt lat="43.36454" lon="5.76559">
        <ele>510.6</ele>
        <time>2019-01-06T12:59:25Z</time>
      </trkpt>
      <trkpt lat="43.3646" lon="5.76567">
        <ele>510.6</ele>
        <time>2019-01-06T12:59:33Z</time>
      </trkpt>
      <trkpt lat="43.36467" lon="5.76578">
        <ele>510.6</ele>
        <time>2019-01-06T12:59:45Z</time>
      </trkpt>
      <trkpt lat="43.36477" lon="5.76591">
        <ele>510.6</ele>
        <time>2019-01-06T13:00:03Z</time>
      </trkpt>
      <trkpt lat="43.36483" lon="5.76599">
        <ele>510.6</ele>
        <time>2019-01-06T13:00:11Z</time>
      </trkpt>
      <trkpt lat="43.36483" lon="5.766">
        <ele>510.6</ele>
        <time>2019-01-06T13:00:12Z</time>
      </trkpt>
      <trkpt lat="43.36493" lon="5.76612">
        <ele>511.56</ele>
        <time>2019-01-06T13:00:25Z</time>
      </trkpt>
      <trkpt lat="43.36495" lon="5.76615">
        <ele>511.56</ele>
        <time>2019-01-06T13:00:28Z</time>
      </trkpt>
      <trkpt lat="43.36496" lon="5.76616">
        <ele>511.56</ele>
        <time>2019-01-06T13:00:29Z</time>
      </trkpt>
      <trkpt lat="43.36497" lon="5.76618">
        <ele>511.56</ele>
        <time>2019-01-06T13:00:30Z</time>
      </trkpt>
      <trkpt lat="43.365" lon="5.76621">
        <ele>511.56</ele>
        <time>2019-01-06T13:00:35Z</time>
      </trkpt>
      <trkpt lat="43.36503" lon="5.76625">
        <ele>511.56</ele>
        <time>2019-01-06T13:00:40Z</time>
      </trkpt>
      <trkpt lat="43.36506" lon="5.76631">
        <ele>510.12</ele>
        <time>2019-01-06T13:00:45Z</time>
      </trkpt>
      <trkpt lat="43.36507" lon="5.76633">
        <ele>510.12</ele>
        <time>2019-01-06T13:00:46Z</time>
      </trkpt>
      <trkpt lat="43.36509" lon="5.76636">
        <ele>510.12</ele>
        <time>2019-01-06T13:00:50Z</time>
      </trkpt>
      <trkpt lat="43.36509" lon="5.76638">
        <ele>510.12</ele>
        <time>2019-01-06T13:00:51Z</time>
      </trkpt>
      <trkpt lat="43.36513" lon="5.76654">
        <ele>510.12</ele>
        <time>2019-01-06T13:01:04Z</time>
      </trkpt>
      <trkpt lat="43.36515" lon="5.76669">
        <ele>510.12</ele>
        <time>2019-01-06T13:01:18Z</time>
      </trkpt>
      <trkpt lat="43.36521" lon="5.76687">
        <ele>508.67</ele>
        <time>2019-01-06T13:01:33Z</time>
      </trkpt>
      <trkpt lat="43.36526" lon="5.76701">
        <ele>508.19</ele>
        <time>2019-01-06T13:01:44Z</time>
      </trkpt>
      <trkpt lat="43.3653" lon="5.76714">
        <ele>507.23</ele>
        <time>2019-01-06T13:01:57Z</time>
      </trkpt>
      <trkpt lat="43.36531" lon="5.76735">
        <ele>506.27</ele>
        <time>2019-01-06T13:02:12Z</time>
      </trkpt>
      <trkpt lat="43.36531" lon="5.76754">
        <ele>505.79</ele>
        <time>2019-01-06T13:02:26Z</time>
      </trkpt>
      <trkpt lat="43.36528" lon="5.76769">
        <ele>505.79</ele>
        <time>2019-01-06T13:02:39Z</time>
      </trkpt>
      <trkpt lat="43.36531" lon="5.76797">
        <ele>503.87</ele>
        <time>2019-01-06T13:03:01Z</time>
      </trkpt>
      <trkpt lat="43.36539" lon="5.7682">
        <ele>502.43</ele>
        <time>2019-01-06T13:03:19Z</time>
      </trkpt>
      <trkpt lat="43.36544" lon="5.76843">
        <ele>502.43</ele>
        <time>2019-01-06T13:03:37Z</time>
      </trkpt>
      <trkpt lat="43.36544" lon="5.76851">
        <ele>502.43</ele>
        <time>2019-01-06T13:03:40Z</time>
      </trkpt>
      <trkpt lat="43.36544" lon="5.76855">
        <ele>502.43</ele>
        <time>2019-01-06T13:03:41Z</time>
      </trkpt>
      <trkpt lat="43.36551" lon="5.76878">
        <ele>504.83</ele>
        <time>2019-01-06T13:03:57Z</time>
      </trkpt>
      <trkpt lat="43.36554" lon="5.76894">
        <ele>504.83</ele>
        <time>2019-01-06T13:04:08Z</time>
      </trkpt>
      <trkpt lat="43.36555" lon="5.76914">
        <ele>504.83</ele>
        <time>2019-01-06T13:04:24Z</time>
      </trkpt>
      <trkpt lat="43.36557" lon="5.76936">
        <ele>505.31</ele>
        <time>2019-01-06T13:04:38Z</time>
      </trkpt>
      <trkpt lat="43.36558" lon="5.7695">
        <ele>505.79</ele>
        <time>2019-01-06T13:04:50Z</time>
      </trkpt>
      <trkpt lat="43.36558" lon="5.76952">
        <ele>505.79</ele>
        <time>2019-01-06T13:04:51Z</time>
      </trkpt>
      <trkpt lat="43.36558" lon="5.76954">
        <ele>505.79</ele>
        <time>2019-01-06T13:04:52Z</time>
      </trkpt>
      <trkpt lat="43.36562" lon="5.76963">
        <ele>504.83</ele>
        <time>2019-01-06T13:04:58Z</time>
      </trkpt>
      <trkpt lat="43.36566" lon="5.76981">
        <ele>504.35</ele>
        <time>2019-01-06T13:05:11Z</time>
      </trkpt>
      <trkpt lat="43.36576" lon="5.77">
        <ele>504.35</ele>
        <time>2019-01-06T13:05:25Z</time>
      </trkpt>
      <trkpt lat="43.36577" lon="5.77001">
        <ele>504.35</ele>
        <time>2019-01-06T13:05:26Z</time>
      </trkpt>
      <trkpt lat="43.36577" lon="5.77003">
        <ele>504.35</ele>
        <time>2019-01-06T13:05:27Z</time>
      </trkpt>
      <trkpt lat="43.36585" lon="5.77019">
        <ele>503.39</ele>
        <time>2019-01-06T13:05:42Z</time>
      </trkpt>
      <trkpt lat="43.36586" lon="5.77021">
        <ele>502.91</ele>
        <time>2019-01-06T13:05:43Z</time>
      </trkpt>
      <trkpt lat="43.3659" lon="5.77028">
        <ele>503.39</ele>
        <time>2019-01-06T13:05:49Z</time>
      </trkpt>
      <trkpt lat="43.36591" lon="5.7703">
        <ele>502.91</ele>
        <time>2019-01-06T13:05:50Z</time>
      </trkpt>
      <trkpt lat="43.36593" lon="5.77032">
        <ele>502.91</ele>
        <time>2019-01-06T13:05:51Z</time>
      </trkpt>
      <trkpt lat="43.36595" lon="5.77034">
        <ele>502.91</ele>
        <time>2019-01-06T13:05:52Z</time>
      </trkpt>
      <trkpt lat="43.36596" lon="5.77036">
        <ele>502.91</ele>
        <time>2019-01-06T13:05:53Z</time>
      </trkpt>
      <trkpt lat="43.36604" lon="5.77044">
        <ele>502.91</ele>
        <time>2019-01-06T13:06:02Z</time>
      </trkpt>
      <trkpt lat="43.36605" lon="5.77053">
        <ele>502.43</ele>
        <time>2019-01-06T13:06:11Z</time>
      </trkpt>
      <trkpt lat="43.36605" lon="5.77063">
        <ele>500.5</ele>
        <time>2019-01-06T13:06:20Z</time>
      </trkpt>
      <trkpt lat="43.36608" lon="5.77075">
        <ele>499.54</ele>
        <time>2019-01-06T13:06:29Z</time>
      </trkpt>
      <trkpt lat="43.36608" lon="5.77077">
        <ele>499.06</ele>
        <time>2019-01-06T13:06:30Z</time>
      </trkpt>
      <trkpt lat="43.3661" lon="5.77086">
        <ele>498.58</ele>
        <time>2019-01-06T13:06:34Z</time>
      </trkpt>
      <trkpt lat="43.3661" lon="5.77092">
        <ele>498.58</ele>
        <time>2019-01-06T13:06:45Z</time>
      </trkpt>
      <trkpt lat="43.36614" lon="5.77097">
        <ele>497.62</ele>
        <time>2019-01-06T13:06:55Z</time>
      </trkpt>
      <trkpt lat="43.36615" lon="5.77099">
        <ele>497.62</ele>
        <time>2019-01-06T13:06:56Z</time>
      </trkpt>
      <trkpt lat="43.36616" lon="5.77101">
        <ele>497.14</ele>
        <time>2019-01-06T13:06:57Z</time>
      </trkpt>
      <trkpt lat="43.36618" lon="5.77103">
        <ele>497.14</ele>
        <time>2019-01-06T13:06:58Z</time>
      </trkpt>
      <trkpt lat="43.36619" lon="5.77105">
        <ele>497.14</ele>
        <time>2019-01-06T13:06:59Z</time>
      </trkpt>
      <trkpt lat="43.36627" lon="5.77117">
        <ele>495.7</ele>
        <time>2019-01-06T13:07:10Z</time>
      </trkpt>
      <trkpt lat="43.36633" lon="5.77131">
        <ele>494.74</ele>
        <time>2019-01-06T13:07:23Z</time>
      </trkpt>
      <trkpt lat="43.36631" lon="5.77133">
        <ele>493.77</ele>
        <time>2019-01-06T13:07:26Z</time>
      </trkpt>
      <trkpt lat="43.36625" lon="5.77146">
        <ele>490.41</ele>
        <time>2019-01-06T13:07:39Z</time>
      </trkpt>
      <trkpt lat="43.36631" lon="5.77159">
        <ele>488.97</ele>
        <time>2019-01-06T13:07:53Z</time>
      </trkpt>
      <trkpt lat="43.36632" lon="5.77165">
        <ele>488.49</ele>
        <time>2019-01-06T13:07:57Z</time>
      </trkpt>
      <trkpt lat="43.3663" lon="5.77183">
        <ele>487.05</ele>
        <time>2019-01-06T13:08:14Z</time>
      </trkpt>
      <trkpt lat="43.36626" lon="5.77186">
        <ele>486.56</ele>
        <time>2019-01-06T13:08:19Z</time>
      </trkpt>
      <trkpt lat="43.3662" lon="5.7719">
        <ele>486.08</ele>
        <time>2019-01-06T13:08:26Z</time>
      </trkpt>
      <trkpt lat="43.36612" lon="5.772">
        <ele>486.08</ele>
        <time>2019-01-06T13:08:39Z</time>
      </trkpt>
      <trkpt lat="43.36613" lon="5.77201">
        <ele>486.08</ele>
        <time>2019-01-06T13:08:46Z</time>
      </trkpt>
      <trkpt lat="43.36613" lon="5.77203">
        <ele>486.08</ele>
        <time>2019-01-06T13:08:47Z</time>
      </trkpt>
      <trkpt lat="43.36614" lon="5.77206">
        <ele>485.6</ele>
        <time>2019-01-06T13:08:52Z</time>
      </trkpt>
      <trkpt lat="43.36614" lon="5.77213">
        <ele>485.12</ele>
        <time>2019-01-06T13:08:57Z</time>
      </trkpt>
      <trkpt lat="43.36615" lon="5.77224">
        <ele>484.64</ele>
        <time>2019-01-06T13:09:06Z</time>
      </trkpt>
      <trkpt lat="43.36615" lon="5.77229">
        <ele>484.64</ele>
        <time>2019-01-06T13:09:09Z</time>
      </trkpt>
      <trkpt lat="43.36617" lon="5.77243">
        <ele>483.68</ele>
        <time>2019-01-06T13:09:21Z</time>
      </trkpt>
      <trkpt lat="43.3662" lon="5.77261">
        <ele>482.72</ele>
        <time>2019-01-06T13:09:40Z</time>
      </trkpt>
      <trkpt lat="43.36621" lon="5.7728">
        <ele>480.8</ele>
        <time>2019-01-06T13:09:57Z</time>
      </trkpt>
      <trkpt lat="43.3662" lon="5.77302">
        <ele>479.35</ele>
        <time>2019-01-06T13:10:14Z</time>
      </trkpt>
      <trkpt lat="43.36621" lon="5.77304">
        <ele>479.35</ele>
        <time>2019-01-06T13:10:15Z</time>
      </trkpt>
      <trkpt lat="43.3662" lon="5.77321">
        <ele>476.95</ele>
        <time>2019-01-06T13:10:31Z</time>
      </trkpt>
      <trkpt lat="43.36621" lon="5.77335">
        <ele>476.47</ele>
        <time>2019-01-06T13:10:39Z</time>
      </trkpt>
      <trkpt lat="43.36628" lon="5.7735">
        <ele>475.51</ele>
        <time>2019-01-06T13:10:51Z</time>
      </trkpt>
      <trkpt lat="43.36629" lon="5.77356">
        <ele>475.03</ele>
        <time>2019-01-06T13:10:54Z</time>
      </trkpt>
      <trkpt lat="43.3663" lon="5.77358">
        <ele>475.03</ele>
        <time>2019-01-06T13:10:55Z</time>
      </trkpt>
      <trkpt lat="43.3663" lon="5.7736">
        <ele>475.03</ele>
        <time>2019-01-06T13:10:56Z</time>
      </trkpt>
      <trkpt lat="43.36632" lon="5.77383">
        <ele>474.07</ele>
        <time>2019-01-06T13:11:12Z</time>
      </trkpt>
      <trkpt lat="43.36632" lon="5.77399">
        <ele>473.11</ele>
        <time>2019-01-06T13:11:27Z</time>
      </trkpt>
      <trkpt lat="43.36637" lon="5.77417">
        <ele>472.14</ele>
        <time>2019-01-06T13:11:42Z</time>
      </trkpt>
      <trkpt lat="43.36642" lon="5.77433">
        <ele>471.18</ele>
        <time>2019-01-06T13:11:58Z</time>
      </trkpt>
      <trkpt lat="43.36649" lon="5.77448">
        <ele>470.22</ele>
        <time>2019-01-06T13:12:17Z</time>
      </trkpt>
      <trkpt lat="43.36656" lon="5.77453">
        <ele>468.3</ele>
        <time>2019-01-06T13:12:30Z</time>
      </trkpt>
      <trkpt lat="43.36659" lon="5.77465">
        <ele>468.3</ele>
        <time>2019-01-06T13:12:47Z</time>
      </trkpt>
      <trkpt lat="43.36664" lon="5.77488">
        <ele>466.86</ele>
        <time>2019-01-06T13:13:02Z</time>
      </trkpt>
      <trkpt lat="43.36674" lon="5.77502">
        <ele>464.93</ele>
        <time>2019-01-06T13:13:16Z</time>
      </trkpt>
      <trkpt lat="43.36684" lon="5.77514">
        <ele>463.01</ele>
        <time>2019-01-06T13:13:32Z</time>
      </trkpt>
      <trkpt lat="43.36689" lon="5.77518">
        <ele>462.53</ele>
        <time>2019-01-06T13:13:49Z</time>
      </trkpt>
      <trkpt lat="43.36688" lon="5.77518">
        <ele>462.05</ele>
        <time>2019-01-06T13:13:56Z</time>
      </trkpt>
      <trkpt lat="43.36684" lon="5.7752">
        <ele>462.53</ele>
        <time>2019-01-06T13:14:06Z</time>
      </trkpt>
      <trkpt lat="43.36681" lon="5.77536">
        <ele>462.53</ele>
        <time>2019-01-06T13:14:22Z</time>
      </trkpt>
      <trkpt lat="43.36677" lon="5.77552">
        <ele>462.53</ele>
        <time>2019-01-06T13:14:33Z</time>
      </trkpt>
      <trkpt lat="43.36668" lon="5.77562">
        <ele>462.53</ele>
        <time>2019-01-06T13:14:45Z</time>
      </trkpt>
      <trkpt lat="43.36656" lon="5.77576">
        <ele>461.09</ele>
        <time>2019-01-06T13:14:58Z</time>
      </trkpt>
      <trkpt lat="43.36654" lon="5.7758">
        <ele>461.09</ele>
        <time>2019-01-06T13:15:01Z</time>
      </trkpt>
      <trkpt lat="43.36654" lon="5.77586">
        <ele>461.57</ele>
        <time>2019-01-06T13:15:06Z</time>
      </trkpt>
      <trkpt lat="43.36653" lon="5.77599">
        <ele>461.09</ele>
        <time>2019-01-06T13:15:16Z</time>
      </trkpt>
      <trkpt lat="43.36656" lon="5.77622">
        <ele>461.09</ele>
        <time>2019-01-06T13:15:30Z</time>
      </trkpt>
      <trkpt lat="43.36658" lon="5.77627">
        <ele>459.17</ele>
        <time>2019-01-06T13:15:36Z</time>
      </trkpt>
      <trkpt lat="43.36659" lon="5.77629">
        <ele>459.17</ele>
        <time>2019-01-06T13:15:37Z</time>
      </trkpt>
      <trkpt lat="43.36661" lon="5.7763">
        <ele>459.17</ele>
        <time>2019-01-06T13:15:38Z</time>
      </trkpt>
      <trkpt lat="43.36663" lon="5.77631">
        <ele>459.17</ele>
        <time>2019-01-06T13:15:39Z</time>
      </trkpt>
      <trkpt lat="43.36664" lon="5.77631">
        <ele>458.69</ele>
        <time>2019-01-06T13:15:40Z</time>
      </trkpt>
      <trkpt lat="43.36666" lon="5.77632">
        <ele>458.69</ele>
        <time>2019-01-06T13:15:41Z</time>
      </trkpt>
      <trkpt lat="43.36671" lon="5.77635">
        <ele>457.72</ele>
        <time>2019-01-06T13:15:45Z</time>
      </trkpt>
      <trkpt lat="43.36672" lon="5.77636">
        <ele>457.24</ele>
        <time>2019-01-06T13:15:46Z</time>
      </trkpt>
      <trkpt lat="43.3668" lon="5.77652">
        <ele>456.28</ele>
        <time>2019-01-06T13:15:58Z</time>
      </trkpt>
      <trkpt lat="43.3669" lon="5.77674">
        <ele>454.84</ele>
        <time>2019-01-06T13:16:14Z</time>
      </trkpt>
      <trkpt lat="43.36693" lon="5.77681">
        <ele>453.4</ele>
        <time>2019-01-06T13:16:24Z</time>
      </trkpt>
      <trkpt lat="43.367" lon="5.77693">
        <ele>451</ele>
        <time>2019-01-06T13:16:38Z</time>
      </trkpt>
      <trkpt lat="43.36715" lon="5.77703">
        <ele>447.63</ele>
        <time>2019-01-06T13:16:52Z</time>
      </trkpt>
      <trkpt lat="43.3672" lon="5.77705">
        <ele>447.15</ele>
        <time>2019-01-06T13:16:57Z</time>
      </trkpt>
      <trkpt lat="43.36728" lon="5.77708">
        <ele>445.23</ele>
        <time>2019-01-06T13:17:06Z</time>
      </trkpt>
      <trkpt lat="43.36732" lon="5.77709">
        <ele>444.27</ele>
        <time>2019-01-06T13:17:18Z</time>
      </trkpt>
      <trkpt lat="43.36734" lon="5.77714">
        <ele>443.31</ele>
        <time>2019-01-06T13:17:32Z</time>
      </trkpt>
      <trkpt lat="43.36736" lon="5.77728">
        <ele>441.86</ele>
        <time>2019-01-06T13:17:41Z</time>
      </trkpt>
      <trkpt lat="43.36738" lon="5.77738">
        <ele>441.86</ele>
        <time>2019-01-06T13:17:47Z</time>
      </trkpt>
      <trkpt lat="43.3674" lon="5.7774">
        <ele>440.42</ele>
        <time>2019-01-06T13:17:50Z</time>
      </trkpt>
      <trkpt lat="43.36744" lon="5.7774">
        <ele>439.94</ele>
        <time>2019-01-06T13:18:03Z</time>
      </trkpt>
      <trkpt lat="43.36741" lon="5.77749">
        <ele>440.9</ele>
        <time>2019-01-06T13:18:12Z</time>
      </trkpt>
      <trkpt lat="43.36741" lon="5.77752">
        <ele>440.9</ele>
        <time>2019-01-06T13:18:14Z</time>
      </trkpt>
      <trkpt lat="43.36741" lon="5.77766">
        <ele>439.46</ele>
        <time>2019-01-06T13:18:27Z</time>
      </trkpt>
      <trkpt lat="43.36743" lon="5.77781">
        <ele>438.98</ele>
        <time>2019-01-06T13:18:40Z</time>
      </trkpt>
      <trkpt lat="43.36744" lon="5.77798">
        <ele>437.54</ele>
        <time>2019-01-06T13:18:51Z</time>
      </trkpt>
      <trkpt lat="43.36744" lon="5.77801">
        <ele>438.02</ele>
        <time>2019-01-06T13:18:55Z</time>
      </trkpt>
      <trkpt lat="43.36748" lon="5.77811">
        <ele>437.06</ele>
        <time>2019-01-06T13:19:02Z</time>
      </trkpt>
      <trkpt lat="43.36756" lon="5.77825">
        <ele>435.13</ele>
        <time>2019-01-06T13:19:14Z</time>
      </trkpt>
      <trkpt lat="43.36759" lon="5.77829">
        <ele>434.65</ele>
        <time>2019-01-06T13:19:18Z</time>
      </trkpt>
      <trkpt lat="43.36764" lon="5.77839">
        <ele>434.17</ele>
        <time>2019-01-06T13:19:26Z</time>
      </trkpt>
      <trkpt lat="43.36769" lon="5.77853">
        <ele>433.69</ele>
        <time>2019-01-06T13:19:38Z</time>
      </trkpt>
      <trkpt lat="43.36772" lon="5.77866">
        <ele>432.25</ele>
        <time>2019-01-06T13:19:48Z</time>
      </trkpt>
      <trkpt lat="43.36773" lon="5.77873">
        <ele>431.77</ele>
        <time>2019-01-06T13:19:53Z</time>
      </trkpt>
      <trkpt lat="43.36782" lon="5.77887">
        <ele>429.37</ele>
        <time>2019-01-06T13:20:08Z</time>
      </trkpt>
      <trkpt lat="43.36791" lon="5.77902">
        <ele>426</ele>
        <time>2019-01-06T13:20:28Z</time>
      </trkpt>
      <trkpt lat="43.36797" lon="5.77927">
        <ele>423.6</ele>
        <time>2019-01-06T13:20:48Z</time>
      </trkpt>
      <trkpt lat="43.36796" lon="5.77939">
        <ele>420.71</ele>
        <time>2019-01-06T13:21:05Z</time>
      </trkpt>
      <trkpt lat="43.36801" lon="5.77951">
        <ele>417.83</ele>
        <time>2019-01-06T13:21:20Z</time>
      </trkpt>
      <trkpt lat="43.36818" lon="5.77961">
        <ele>414.95</ele>
        <time>2019-01-06T13:21:38Z</time>
      </trkpt>
      <trkpt lat="43.36826" lon="5.77979">
        <ele>413.5</ele>
        <time>2019-01-06T13:21:54Z</time>
      </trkpt>
      <trkpt lat="43.36837" lon="5.78">
        <ele>411.1</ele>
        <time>2019-01-06T13:22:13Z</time>
      </trkpt>
      <trkpt lat="43.36846" lon="5.78016">
        <ele>410.14</ele>
        <time>2019-01-06T13:22:28Z</time>
      </trkpt>
      <trkpt lat="43.36852" lon="5.78027">
        <ele>408.7</ele>
        <time>2019-01-06T13:22:44Z</time>
      </trkpt>
      <trkpt lat="43.36853" lon="5.78032">
        <ele>408.22</ele>
        <time>2019-01-06T13:22:47Z</time>
      </trkpt>
      <trkpt lat="43.36862" lon="5.7805">
        <ele>405.81</ele>
        <time>2019-01-06T13:23:07Z</time>
      </trkpt>
      <trkpt lat="43.36862" lon="5.78066">
        <ele>404.85</ele>
        <time>2019-01-06T13:23:20Z</time>
      </trkpt>
      <trkpt lat="43.36854" lon="5.78078">
        <ele>404.37</ele>
        <time>2019-01-06T13:23:29Z</time>
      </trkpt>
      <trkpt lat="43.36837" lon="5.78097">
        <ele>404.37</ele>
        <time>2019-01-06T13:23:49Z</time>
      </trkpt>
      <trkpt lat="43.36824" lon="5.78108">
        <ele>405.81</ele>
        <time>2019-01-06T13:24:05Z</time>
      </trkpt>
      <trkpt lat="43.36805" lon="5.7811">
        <ele>406.77</ele>
        <time>2019-01-06T13:24:24Z</time>
      </trkpt>
      <trkpt lat="43.36798" lon="5.7811">
        <ele>406.77</ele>
        <time>2019-01-06T13:24:32Z</time>
      </trkpt>
      <trkpt lat="43.36772" lon="5.78105">
        <ele>407.26</ele>
        <time>2019-01-06T13:24:55Z</time>
      </trkpt>
      <trkpt lat="43.36746" lon="5.78102">
        <ele>407.74</ele>
        <time>2019-01-06T13:25:16Z</time>
      </trkpt>
      <trkpt lat="43.36719" lon="5.78099">
        <ele>408.22</ele>
        <time>2019-01-06T13:25:36Z</time>
      </trkpt>
      <trkpt lat="43.36702" lon="5.78093">
        <ele>408.7</ele>
        <time>2019-01-06T13:25:54Z</time>
      </trkpt>
      <trkpt lat="43.36679" lon="5.78079">
        <ele>410.62</ele>
        <time>2019-01-06T13:26:15Z</time>
      </trkpt>
      <trkpt lat="43.36662" lon="5.78071">
        <ele>411.58</ele>
        <time>2019-01-06T13:26:36Z</time>
      </trkpt>
      <trkpt lat="43.36646" lon="5.78075">
        <ele>413.5</ele>
        <time>2019-01-06T13:26:56Z</time>
      </trkpt>
      <trkpt lat="43.36623" lon="5.78073">
        <ele>413.98</ele>
        <time>2019-01-06T13:27:16Z</time>
      </trkpt>
      <trkpt lat="43.36601" lon="5.78072">
        <ele>414.47</ele>
        <time>2019-01-06T13:27:35Z</time>
      </trkpt>
      <trkpt lat="43.36595" lon="5.78072">
        <ele>414.95</ele>
        <time>2019-01-06T13:27:48Z</time>
      </trkpt>
      <trkpt lat="43.36589" lon="5.78073">
        <ele>414.95</ele>
        <time>2019-01-06T13:27:53Z</time>
      </trkpt>
      <trkpt lat="43.36579" lon="5.78065">
        <ele>414.95</ele>
        <time>2019-01-06T13:28:03Z</time>
      </trkpt>
      <trkpt lat="43.36574" lon="5.78053">
        <ele>415.43</ele>
        <time>2019-01-06T13:28:05Z</time>
      </trkpt>
      <trkpt lat="43.36553" lon="5.78038">
        <ele>415.91</ele>
        <time>2019-01-06T13:28:24Z</time>
      </trkpt>
      <trkpt lat="43.3655" lon="5.78036">
        <ele>416.39</ele>
        <time>2019-01-06T13:28:27Z</time>
      </trkpt>
      <trkpt lat="43.36542" lon="5.7803">
        <ele>416.39</ele>
        <time>2019-01-06T13:28:37Z</time>
      </trkpt>
      <trkpt lat="43.36537" lon="5.78026">
        <ele>417.35</ele>
        <time>2019-01-06T13:28:44Z</time>
      </trkpt>
      <trkpt lat="43.36532" lon="5.7802">
        <ele>417.83</ele>
        <time>2019-01-06T13:28:51Z</time>
      </trkpt>
      <trkpt lat="43.3653" lon="5.78017">
        <ele>417.83</ele>
        <time>2019-01-06T13:28:54Z</time>
      </trkpt>
      <trkpt lat="43.36528" lon="5.78015">
        <ele>417.83</ele>
        <time>2019-01-06T13:28:57Z</time>
      </trkpt>
      <trkpt lat="43.36522" lon="5.78009">
        <ele>418.79</ele>
        <time>2019-01-06T13:29:05Z</time>
      </trkpt>
      <trkpt lat="43.3652" lon="5.78007">
        <ele>419.27</ele>
        <time>2019-01-06T13:29:08Z</time>
      </trkpt>
      <trkpt lat="43.3651" lon="5.77996">
        <ele>421.19</ele>
        <time>2019-01-06T13:29:30Z</time>
      </trkpt>
      <trkpt lat="43.36501" lon="5.77993">
        <ele>424.56</ele>
        <time>2019-01-06T13:29:46Z</time>
      </trkpt>
      <trkpt lat="43.36499" lon="5.77992">
        <ele>424.56</ele>
        <time>2019-01-06T13:29:48Z</time>
      </trkpt>
      <trkpt lat="43.36485" lon="5.77974">
        <ele>426</ele>
        <time>2019-01-06T13:30:09Z</time>
      </trkpt>
      <trkpt lat="43.36477" lon="5.77955">
        <ele>428.4</ele>
        <time>2019-01-06T13:30:28Z</time>
      </trkpt>
      <trkpt lat="43.36467" lon="5.77954">
        <ele>429.37</ele>
        <time>2019-01-06T13:30:46Z</time>
      </trkpt>
      <trkpt lat="43.36455" lon="5.77955">
        <ele>430.81</ele>
        <time>2019-01-06T13:31:03Z</time>
      </trkpt>
      <trkpt lat="43.36443" lon="5.77941">
        <ele>434.17</ele>
        <time>2019-01-06T13:31:22Z</time>
      </trkpt>
      <trkpt lat="43.36436" lon="5.77934">
        <ele>434.17</ele>
        <time>2019-01-06T13:31:31Z</time>
      </trkpt>
      <trkpt lat="43.36415" lon="5.77916">
        <ele>435.13</ele>
        <time>2019-01-06T13:31:44Z</time>
      </trkpt>
      <trkpt lat="43.36404" lon="5.77903">
        <ele>436.58</ele>
        <time>2019-01-06T13:31:59Z</time>
      </trkpt>
      <trkpt lat="43.36394" lon="5.77892">
        <ele>437.06</ele>
        <time>2019-01-06T13:32:15Z</time>
      </trkpt>
      <trkpt lat="43.36384" lon="5.77884">
        <ele>438.02</ele>
        <time>2019-01-06T13:32:30Z</time>
      </trkpt>
      <trkpt lat="43.36378" lon="5.77881">
        <ele>438.5</ele>
        <time>2019-01-06T13:32:39Z</time>
      </trkpt>
      <trkpt lat="43.36374" lon="5.77878">
        <ele>438.98</ele>
        <time>2019-01-06T13:32:44Z</time>
      </trkpt>
      <trkpt lat="43.36361" lon="5.77865">
        <ele>439.94</ele>
        <time>2019-01-06T13:33:00Z</time>
      </trkpt>
      <trkpt lat="43.36353" lon="5.77856">
        <ele>439.94</ele>
        <time>2019-01-06T13:33:09Z</time>
      </trkpt>
      <trkpt lat="43.36349" lon="5.77854">
        <ele>439.94</ele>
        <time>2019-01-06T13:33:12Z</time>
      </trkpt>
      <trkpt lat="43.36348" lon="5.77852">
        <ele>439.94</ele>
        <time>2019-01-06T13:33:13Z</time>
      </trkpt>
      <trkpt lat="43.36345" lon="5.77849">
        <ele>439.94</ele>
        <time>2019-01-06T13:33:18Z</time>
      </trkpt>
      <trkpt lat="43.36343" lon="5.77848">
        <ele>439.94</ele>
        <time>2019-01-06T13:33:19Z</time>
      </trkpt>
      <trkpt lat="43.36338" lon="5.77845">
        <ele>439.94</ele>
        <time>2019-01-06T13:33:24Z</time>
      </trkpt>
      <trkpt lat="43.36337" lon="5.77844">
        <ele>439.94</ele>
        <time>2019-01-06T13:33:25Z</time>
      </trkpt>
      <trkpt lat="43.3633" lon="5.77842">
        <ele>439.94</ele>
        <time>2019-01-06T13:33:33Z</time>
      </trkpt>
      <trkpt lat="43.36329" lon="5.77843">
        <ele>439.94</ele>
        <time>2019-01-06T13:33:34Z</time>
      </trkpt>
      <trkpt lat="43.36327" lon="5.77844">
        <ele>439.94</ele>
        <time>2019-01-06T13:33:36Z</time>
      </trkpt>
      <trkpt lat="43.36326" lon="5.77843">
        <ele>439.94</ele>
        <time>2019-01-06T13:33:37Z</time>
      </trkpt>
      <trkpt lat="43.36315" lon="5.7784">
        <ele>440.42</ele>
        <time>2019-01-06T13:33:50Z</time>
      </trkpt>
      <trkpt lat="43.36305" lon="5.77839">
        <ele>440.9</ele>
        <time>2019-01-06T13:34:00Z</time>
      </trkpt>
      <trkpt lat="43.36302" lon="5.77839">
        <ele>440.9</ele>
        <time>2019-01-06T13:34:02Z</time>
      </trkpt>
      <trkpt lat="43.363" lon="5.77839">
        <ele>440.9</ele>
        <time>2019-01-06T13:34:04Z</time>
      </trkpt>
      <trkpt lat="43.36299" lon="5.77839">
        <ele>440.9</ele>
        <time>2019-01-06T13:34:05Z</time>
      </trkpt>
      <trkpt lat="43.36298" lon="5.77838">
        <ele>440.9</ele>
        <time>2019-01-06T13:34:06Z</time>
      </trkpt>
      <trkpt lat="43.36296" lon="5.77838">
        <ele>440.9</ele>
        <time>2019-01-06T13:34:07Z</time>
      </trkpt>
      <trkpt lat="43.36295" lon="5.77838">
        <ele>440.9</ele>
        <time>2019-01-06T13:34:08Z</time>
      </trkpt>
      <trkpt lat="43.36283" lon="5.77839">
        <ele>441.86</ele>
        <time>2019-01-06T13:34:20Z</time>
      </trkpt>
      <trkpt lat="43.36269" lon="5.77841">
        <ele>441.86</ele>
        <time>2019-01-06T13:34:36Z</time>
      </trkpt>
      <trkpt lat="43.36266" lon="5.77842">
        <ele>441.86</ele>
        <time>2019-01-06T13:34:40Z</time>
      </trkpt>
      <trkpt lat="43.36265" lon="5.77843">
        <ele>441.86</ele>
        <time>2019-01-06T13:34:41Z</time>
      </trkpt>
      <trkpt lat="43.36262" lon="5.77843">
        <ele>441.86</ele>
        <time>2019-01-06T13:34:44Z</time>
      </trkpt>
      <trkpt lat="43.36261" lon="5.77844">
        <ele>441.86</ele>
        <time>2019-01-06T13:34:45Z</time>
      </trkpt>
      <trkpt lat="43.36259" lon="5.77844">
        <ele>441.86</ele>
        <time>2019-01-06T13:34:46Z</time>
      </trkpt>
      <trkpt lat="43.36248" lon="5.77847">
        <ele>442.82</ele>
        <time>2019-01-06T13:34:58Z</time>
      </trkpt>
      <trkpt lat="43.36237" lon="5.77847">
        <ele>442.82</ele>
        <time>2019-01-06T13:35:11Z</time>
      </trkpt>
      <trkpt lat="43.36234" lon="5.77846">
        <ele>442.82</ele>
        <time>2019-01-06T13:35:34Z</time>
      </trkpt>
      <trkpt lat="43.36233" lon="5.77849">
        <ele>442.82</ele>
        <time>2019-01-06T13:35:42Z</time>
      </trkpt>
      <trkpt lat="43.36216" lon="5.77857">
        <ele>442.82</ele>
        <time>2019-01-06T13:36:26Z</time>
      </trkpt>
      <trkpt lat="43.36209" lon="5.77867">
        <ele>441.86</ele>
        <time>2019-01-06T13:36:39Z</time>
      </trkpt>
      <trkpt lat="43.36196" lon="5.77869">
        <ele>441.38</ele>
        <time>2019-01-06T13:36:51Z</time>
      </trkpt>
      <trkpt lat="43.36185" lon="5.77869">
        <ele>441.38</ele>
        <time>2019-01-06T13:37:04Z</time>
      </trkpt>
      <trkpt lat="43.36181" lon="5.77871">
        <ele>441.38</ele>
        <time>2019-01-06T13:37:08Z</time>
      </trkpt>
      <trkpt lat="43.36174" lon="5.77874">
        <ele>441.38</ele>
        <time>2019-01-06T13:37:17Z</time>
      </trkpt>
      <trkpt lat="43.36168" lon="5.77876">
        <ele>443.31</ele>
        <time>2019-01-06T13:37:23Z</time>
      </trkpt>
      <trkpt lat="43.36153" lon="5.77878">
        <ele>443.31</ele>
        <time>2019-01-06T13:37:37Z</time>
      </trkpt>
      <trkpt lat="43.36136" lon="5.77887">
        <ele>443.31</ele>
        <time>2019-01-06T13:37:59Z</time>
      </trkpt>
      <trkpt lat="43.36135" lon="5.77887">
        <ele>443.31</ele>
        <time>2019-01-06T13:38:00Z</time>
      </trkpt>
      <trkpt lat="43.36125" lon="5.779">
        <ele>441.86</ele>
        <time>2019-01-06T13:38:20Z</time>
      </trkpt>
      <trkpt lat="43.36112" lon="5.77908">
        <ele>439.46</ele>
        <time>2019-01-06T13:38:43Z</time>
      </trkpt>
      <trkpt lat="43.36097" lon="5.77911">
        <ele>437.54</ele>
        <time>2019-01-06T13:39:01Z</time>
      </trkpt>
      <trkpt lat="43.36074" lon="5.77907">
        <ele>435.13</ele>
        <time>2019-01-06T13:39:22Z</time>
      </trkpt>
      <trkpt lat="43.36066" lon="5.77896">
        <ele>433.69</ele>
        <time>2019-01-06T13:39:41Z</time>
      </trkpt>
      <trkpt lat="43.36047" lon="5.77876">
        <ele>432.25</ele>
        <time>2019-01-06T13:40:07Z</time>
      </trkpt>
      <trkpt lat="43.36035" lon="5.77855">
        <ele>430.33</ele>
        <time>2019-01-06T13:40:29Z</time>
      </trkpt>
      <trkpt lat="43.36018" lon="5.77847">
        <ele>427.92</ele>
        <time>2019-01-06T13:40:51Z</time>
      </trkpt>
      <trkpt lat="43.36008" lon="5.77842">
        <ele>426.48</ele>
        <time>2019-01-06T13:41:10Z</time>
      </trkpt>
      <trkpt lat="43.36003" lon="5.77821">
        <ele>426.48</ele>
        <time>2019-01-06T13:41:29Z</time>
      </trkpt>
      <trkpt lat="43.3599" lon="5.77804">
        <ele>426.48</ele>
        <time>2019-01-06T13:41:50Z</time>
      </trkpt>
      <trkpt lat="43.3598" lon="5.77796">
        <ele>426.48</ele>
        <time>2019-01-06T13:42:10Z</time>
      </trkpt>
      <trkpt lat="43.35971" lon="5.77787">
        <ele>426.48</ele>
        <time>2019-01-06T13:42:29Z</time>
      </trkpt>
      <trkpt lat="43.35952" lon="5.77772">
        <ele>426</ele>
        <time>2019-01-06T13:42:49Z</time>
      </trkpt>
      <trkpt lat="43.35939" lon="5.77762">
        <ele>426</ele>
        <time>2019-01-06T13:43:05Z</time>
      </trkpt>
      <trkpt lat="43.3592" lon="5.77752">
        <ele>426</ele>
        <time>2019-01-06T13:43:21Z</time>
      </trkpt>
      <trkpt lat="43.35905" lon="5.77742">
        <ele>425.04</ele>
        <time>2019-01-06T13:43:40Z</time>
      </trkpt>
      <trkpt lat="43.35888" lon="5.77729">
        <ele>423.6</ele>
        <time>2019-01-06T13:44:00Z</time>
      </trkpt>
      <trkpt lat="43.35871" lon="5.77726">
        <ele>423.6</ele>
        <time>2019-01-06T13:44:19Z</time>
      </trkpt>
      <trkpt lat="43.3586" lon="5.77727">
        <ele>423.6</ele>
        <time>2019-01-06T13:44:38Z</time>
      </trkpt>
      <trkpt lat="43.35857" lon="5.77723">
        <ele>423.6</ele>
        <time>2019-01-06T13:44:55Z</time>
      </trkpt>
      <trkpt lat="43.35848" lon="5.77722">
        <ele>423.6</ele>
        <time>2019-01-06T13:45:09Z</time>
      </trkpt>
      <trkpt lat="43.35845" lon="5.77721">
        <ele>423.6</ele>
        <time>2019-01-06T13:45:12Z</time>
      </trkpt>
      <trkpt lat="43.35826" lon="5.77716">
        <ele>423.6</ele>
        <time>2019-01-06T13:45:30Z</time>
      </trkpt>
      <trkpt lat="43.35816" lon="5.77712">
        <ele>423.12</ele>
        <time>2019-01-06T13:45:48Z</time>
      </trkpt>
      <trkpt lat="43.35801" lon="5.77711">
        <ele>423.6</ele>
        <time>2019-01-06T13:46:05Z</time>
      </trkpt>
      <trkpt lat="43.35791" lon="5.77709">
        <ele>423.6</ele>
        <time>2019-01-06T13:46:22Z</time>
      </trkpt>
      <trkpt lat="43.35788" lon="5.77707">
        <ele>424.08</ele>
        <time>2019-01-06T13:46:34Z</time>
      </trkpt>
      <trkpt lat="43.35774" lon="5.77708">
        <ele>424.56</ele>
        <time>2019-01-06T13:46:54Z</time>
      </trkpt>
      <trkpt lat="43.35762" lon="5.77703">
        <ele>426</ele>
        <time>2019-01-06T13:47:14Z</time>
      </trkpt>
      <trkpt lat="43.35743" lon="5.77698">
        <ele>427.44</ele>
        <time>2019-01-06T13:47:34Z</time>
      </trkpt>
      <trkpt lat="43.35732" lon="5.77696">
        <ele>426</ele>
        <time>2019-01-06T13:47:44Z</time>
      </trkpt>
      <trkpt lat="43.35721" lon="5.77702">
        <ele>424.08</ele>
        <time>2019-01-06T13:48:06Z</time>
      </trkpt>
      <trkpt lat="43.35711" lon="5.77705">
        <ele>422.64</ele>
        <time>2019-01-06T13:48:27Z</time>
      </trkpt>
      <trkpt lat="43.35701" lon="5.77713">
        <ele>421.68</ele>
        <time>2019-01-06T13:48:38Z</time>
      </trkpt>
      <trkpt lat="43.35696" lon="5.77728">
        <ele>420.23</ele>
        <time>2019-01-06T13:48:54Z</time>
      </trkpt>
      <trkpt lat="43.3569" lon="5.77758">
        <ele>419.75</ele>
        <time>2019-01-06T13:49:15Z</time>
      </trkpt>
      <trkpt lat="43.35677" lon="5.77772">
        <ele>419.27</ele>
        <time>2019-01-06T13:49:35Z</time>
      </trkpt>
      <trkpt lat="43.35654" lon="5.7777">
        <ele>419.75</ele>
        <time>2019-01-06T13:49:53Z</time>
      </trkpt>
      <trkpt lat="43.35647" lon="5.77768">
        <ele>420.71</ele>
        <time>2019-01-06T13:49:55Z</time>
      </trkpt>
      <trkpt lat="43.35639" lon="5.77763">
        <ele>420.71</ele>
        <time>2019-01-06T13:50:00Z</time>
      </trkpt>
      <trkpt lat="43.35628" lon="5.77759">
        <ele>419.75</ele>
        <time>2019-01-06T13:50:15Z</time>
      </trkpt>
      <trkpt lat="43.35613" lon="5.77747">
        <ele>419.75</ele>
        <time>2019-01-06T13:50:32Z</time>
      </trkpt>
      <trkpt lat="43.35604" lon="5.77744">
        <ele>419.75</ele>
        <time>2019-01-06T13:50:41Z</time>
      </trkpt>
      <trkpt lat="43.35604" lon="5.77743">
        <ele>419.75</ele>
        <time>2019-01-06T13:50:43Z</time>
      </trkpt>
      <trkpt lat="43.35595" lon="5.77735">
        <ele>418.79</ele>
        <time>2019-01-06T13:50:52Z</time>
      </trkpt>
      <trkpt lat="43.3559" lon="5.77733">
        <ele>417.83</ele>
        <time>2019-01-06T13:51:02Z</time>
      </trkpt>
      <trkpt lat="43.3558" lon="5.77734">
        <ele>416.87</ele>
        <time>2019-01-06T13:51:14Z</time>
      </trkpt>
      <trkpt lat="43.35578" lon="5.77733">
        <ele>416.87</ele>
        <time>2019-01-06T13:51:15Z</time>
      </trkpt>
      <trkpt lat="43.35564" lon="5.77719">
        <ele>416.39</ele>
        <time>2019-01-06T13:51:35Z</time>
      </trkpt>
      <trkpt lat="43.35554" lon="5.77719">
        <ele>415.43</ele>
        <time>2019-01-06T13:51:51Z</time>
      </trkpt>
      <trkpt lat="43.35531" lon="5.77715">
        <ele>417.35</ele>
        <time>2019-01-06T13:52:09Z</time>
      </trkpt>
      <trkpt lat="43.35518" lon="5.77728">
        <ele>417.35</ele>
        <time>2019-01-06T13:52:30Z</time>
      </trkpt>
      <trkpt lat="43.35511" lon="5.77733">
        <ele>416.39</ele>
        <time>2019-01-06T13:52:39Z</time>
      </trkpt>
      <trkpt lat="43.355" lon="5.77739">
        <ele>415.91</ele>
        <time>2019-01-06T13:52:54Z</time>
      </trkpt>
      <trkpt lat="43.35489" lon="5.77736">
        <ele>415.43</ele>
        <time>2019-01-06T13:53:13Z</time>
      </trkpt>
    </trkseg>
  </trk>
  <trk>
    <name><![CDATA[2019-01-27 13:10:09 001]]></name>
    <trkseg>
      <trkpt lat="43.43961" lon="5.86023">
        <ele>403.89</ele>
        <time>2019-01-27T09:05:12Z</time>
      </trkpt>
      <trkpt lat="43.43971" lon="5.86029">
        <ele>400.05</ele>
        <time>2019-01-27T09:05:24Z</time>
      </trkpt>
      <trkpt lat="43.4397" lon="5.8603">
        <ele>396.68</ele>
        <time>2019-01-27T09:05:26Z</time>
      </trkpt>
      <trkpt lat="43.4397" lon="5.8603">
        <ele>391.87</ele>
        <time>2019-01-27T09:05:28Z</time>
      </trkpt>
      <trkpt lat="43.4397" lon="5.8603">
        <ele>390.43</ele>
        <time>2019-01-27T09:05:30Z</time>
      </trkpt>
      <trkpt lat="43.4397" lon="5.8603">
        <ele>386.11</ele>
        <time>2019-01-27T09:05:33Z</time>
      </trkpt>
      <trkpt lat="43.4397" lon="5.86031">
        <ele>381.78</ele>
        <time>2019-01-27T09:05:36Z</time>
      </trkpt>
      <trkpt lat="43.43971" lon="5.86031">
        <ele>378.42</ele>
        <time>2019-01-27T09:05:39Z</time>
      </trkpt>
      <trkpt lat="43.43971" lon="5.86031">
        <ele>375.05</ele>
        <time>2019-01-27T09:05:42Z</time>
      </trkpt>
      <trkpt lat="43.43971" lon="5.8603">
        <ele>371.69</ele>
        <time>2019-01-27T09:05:46Z</time>
      </trkpt>
      <trkpt lat="43.43971" lon="5.8603">
        <ele>368.32</ele>
        <time>2019-01-27T09:05:50Z</time>
      </trkpt>
      <trkpt lat="43.43972" lon="5.86029">
        <ele>365.44</ele>
        <time>2019-01-27T09:05:54Z</time>
      </trkpt>
      <trkpt lat="43.43972" lon="5.86029">
        <ele>362.07</ele>
        <time>2019-01-27T09:06:00Z</time>
      </trkpt>
      <trkpt lat="43.43971" lon="5.86029">
        <ele>358.71</ele>
        <time>2019-01-27T09:06:08Z</time>
      </trkpt>
      <trkpt lat="43.4397" lon="5.86026">
        <ele>355.83</ele>
        <time>2019-01-27T09:06:20Z</time>
      </trkpt>
      <trkpt lat="43.43969" lon="5.86027">
        <ele>352.46</ele>
        <time>2019-01-27T09:06:43Z</time>
      </trkpt>
      <trkpt lat="43.43969" lon="5.86028">
        <ele>350.54</ele>
        <time>2019-01-27T09:07:23Z</time>
      </trkpt>
      <trkpt lat="43.43968" lon="5.86028">
        <ele>350.54</ele>
        <time>2019-01-27T09:08:03Z</time>
      </trkpt>
      <trkpt lat="43.43969" lon="5.86027">
        <ele>350.54</ele>
        <time>2019-01-27T09:08:50Z</time>
      </trkpt>
      <trkpt lat="43.43969" lon="5.86026">
        <ele>350.06</ele>
        <time>2019-01-27T09:09:34Z</time>
      </trkpt>
      <trkpt lat="43.43969" lon="5.86027">
        <ele>350.06</ele>
        <time>2019-01-27T09:10:23Z</time>
      </trkpt>
      <trkpt lat="43.4397" lon="5.86028">
        <ele>349.58</ele>
        <time>2019-01-27T09:11:15Z</time>
      </trkpt>
      <trkpt lat="43.4397" lon="5.86028">
        <ele>349.1</ele>
        <time>2019-01-27T09:11:53Z</time>
      </trkpt>
      <trkpt lat="43.43969" lon="5.86031">
        <ele>349.1</ele>
        <time>2019-01-27T09:12:26Z</time>
      </trkpt>
      <trkpt lat="43.4397" lon="5.86026">
        <ele>349.1</ele>
        <time>2019-01-27T09:12:52Z</time>
      </trkpt>
      <trkpt lat="43.43974" lon="5.86026">
        <ele>348.62</ele>
        <time>2019-01-27T09:12:58Z</time>
      </trkpt>
      <trkpt lat="43.43978" lon="5.8602">
        <ele>348.62</ele>
        <time>2019-01-27T09:13:10Z</time>
      </trkpt>
      <trkpt lat="43.43983" lon="5.86018">
        <ele>348.62</ele>
        <time>2019-01-27T09:13:13Z</time>
      </trkpt>
      <trkpt lat="43.43985" lon="5.86019">
        <ele>348.62</ele>
        <time>2019-01-27T09:13:14Z</time>
      </trkpt>
      <trkpt lat="43.43987" lon="5.86022">
        <ele>348.62</ele>
        <time>2019-01-27T09:13:15Z</time>
      </trkpt>
      <trkpt lat="43.4399" lon="5.86026">
        <ele>348.62</ele>
        <time>2019-01-27T09:13:16Z</time>
      </trkpt>
      <trkpt lat="43.43993" lon="5.8603">
        <ele>348.13</ele>
        <time>2019-01-27T09:13:17Z</time>
      </trkpt>
      <trkpt lat="43.44016" lon="5.86058">
        <ele>345.73</ele>
        <time>2019-01-27T09:13:23Z</time>
      </trkpt>
      <trkpt lat="43.4402" lon="5.86063">
        <ele>345.73</ele>
        <time>2019-01-27T09:13:24Z</time>
      </trkpt>
      <trkpt lat="43.44023" lon="5.86069">
        <ele>345.25</ele>
        <time>2019-01-27T09:13:25Z</time>
      </trkpt>
      <trkpt lat="43.44027" lon="5.86075">
        <ele>345.25</ele>
        <time>2019-01-27T09:13:26Z</time>
      </trkpt>
      <trkpt lat="43.4403" lon="5.86081">
        <ele>345.25</ele>
        <time>2019-01-27T09:13:27Z</time>
      </trkpt>
      <trkpt lat="43.44031" lon="5.86088">
        <ele>345.25</ele>
        <time>2019-01-27T09:13:28Z</time>
      </trkpt>
      <trkpt lat="43.44031" lon="5.86095">
        <ele>345.25</ele>
        <time>2019-01-27T09:13:29Z</time>
      </trkpt>
      <trkpt lat="43.44031" lon="5.86102">
        <ele>345.25</ele>
        <time>2019-01-27T09:13:30Z</time>
      </trkpt>
      <trkpt lat="43.4403" lon="5.8611">
        <ele>344.77</ele>
        <time>2019-01-27T09:13:31Z</time>
      </trkpt>
      <trkpt lat="43.44027" lon="5.86169">
        <ele>344.29</ele>
        <time>2019-01-27T09:13:40Z</time>
      </trkpt>
      <trkpt lat="43.44028" lon="5.8619">
        <ele>343.33</ele>
        <time>2019-01-27T09:13:43Z</time>
      </trkpt>
      <trkpt lat="43.44034" lon="5.86234">
        <ele>341.89</ele>
        <time>2019-01-27T09:13:48Z</time>
      </trkpt>
      <trkpt lat="43.44038" lon="5.86265">
        <ele>338.52</ele>
        <time>2019-01-27T09:13:52Z</time>
      </trkpt>
      <trkpt lat="43.4404" lon="5.86278">
        <ele>337.08</ele>
        <time>2019-01-27T09:13:55Z</time>
      </trkpt>
      <trkpt lat="43.44039" lon="5.86289">
        <ele>336.12</ele>
        <time>2019-01-27T09:13:58Z</time>
      </trkpt>
      <trkpt lat="43.44037" lon="5.86291">
        <ele>335.64</ele>
        <time>2019-01-27T09:13:59Z</time>
      </trkpt>
      <trkpt lat="43.44035" lon="5.86292">
        <ele>336.12</ele>
        <time>2019-01-27T09:14:00Z</time>
      </trkpt>
      <trkpt lat="43.43997" lon="5.8628">
        <ele>337.56</ele>
        <time>2019-01-27T09:14:12Z</time>
      </trkpt>
      <trkpt lat="43.43973" lon="5.86212">
        <ele>339.96</ele>
        <time>2019-01-27T09:14:27Z</time>
      </trkpt>
      <trkpt lat="43.43944" lon="5.86135">
        <ele>342.85</ele>
        <time>2019-01-27T09:14:44Z</time>
      </trkpt>
      <trkpt lat="43.43906" lon="5.86047">
        <ele>345.73</ele>
        <time>2019-01-27T09:15:04Z</time>
      </trkpt>
      <trkpt lat="43.4387" lon="5.85971">
        <ele>347.65</ele>
        <time>2019-01-27T09:15:21Z</time>
      </trkpt>
      <trkpt lat="43.43826" lon="5.8589">
        <ele>350.06</ele>
        <time>2019-01-27T09:15:40Z</time>
      </trkpt>
      <trkpt lat="43.43807" lon="5.85857">
        <ele>350.54</ele>
        <time>2019-01-27T09:15:48Z</time>
      </trkpt>
      <trkpt lat="43.43804" lon="5.85853">
        <ele>351.02</ele>
        <time>2019-01-27T09:15:49Z</time>
      </trkpt>
      <trkpt lat="43.43767" lon="5.85787">
        <ele>351.98</ele>
        <time>2019-01-27T09:16:04Z</time>
      </trkpt>
      <trkpt lat="43.4373" lon="5.85714">
        <ele>353.42</ele>
        <time>2019-01-27T09:16:21Z</time>
      </trkpt>
      <trkpt lat="43.43684" lon="5.8565">
        <ele>353.9</ele>
        <time>2019-01-27T09:16:37Z</time>
      </trkpt>
      <trkpt lat="43.4362" lon="5.85572">
        <ele>355.34</ele>
        <time>2019-01-27T09:16:58Z</time>
      </trkpt>
      <trkpt lat="43.43601" lon="5.8555">
        <ele>355.83</ele>
        <time>2019-01-27T09:17:04Z</time>
      </trkpt>
      <trkpt lat="43.43596" lon="5.85547">
        <ele>355.83</ele>
        <time>2019-01-27T09:17:05Z</time>
      </trkpt>
      <trkpt lat="43.43592" lon="5.85546">
        <ele>356.31</ele>
        <time>2019-01-27T09:17:06Z</time>
      </trkpt>
      <trkpt lat="43.43588" lon="5.85547">
        <ele>356.31</ele>
        <time>2019-01-27T09:17:07Z</time>
      </trkpt>
      <trkpt lat="43.43583" lon="5.8555">
        <ele>356.31</ele>
        <time>2019-01-27T09:17:08Z</time>
      </trkpt>
      <trkpt lat="43.43564" lon="5.85557">
        <ele>356.31</ele>
        <time>2019-01-27T09:17:14Z</time>
      </trkpt>
      <trkpt lat="43.43559" lon="5.85557">
        <ele>356.31</ele>
        <time>2019-01-27T09:17:15Z</time>
      </trkpt>
      <trkpt lat="43.43554" lon="5.85556">
        <ele>356.31</ele>
        <time>2019-01-27T09:17:16Z</time>
      </trkpt>
      <trkpt lat="43.43525" lon="5.85551">
        <ele>355.83</ele>
        <time>2019-01-27T09:17:22Z</time>
      </trkpt>
      <trkpt lat="43.43512" lon="5.85547">
        <ele>354.86</ele>
        <time>2019-01-27T09:17:25Z</time>
      </trkpt>
      <trkpt lat="43.43471" lon="5.85529">
        <ele>351.5</ele>
        <time>2019-01-27T09:17:35Z</time>
      </trkpt>
      <trkpt lat="43.43401" lon="5.85498">
        <ele>348.62</ele>
        <time>2019-01-27T09:17:49Z</time>
      </trkpt>
      <trkpt lat="43.43301" lon="5.85455">
        <ele>345.25</ele>
        <time>2019-01-27T09:18:04Z</time>
      </trkpt>
      <trkpt lat="43.43223" lon="5.85421">
        <ele>341.89</ele>
        <time>2019-01-27T09:18:14Z</time>
      </trkpt>
      <trkpt lat="43.43147" lon="5.85379">
        <ele>341.41</ele>
        <time>2019-01-27T09:18:26Z</time>
      </trkpt>
      <trkpt lat="43.43104" lon="5.85334">
        <ele>344.77</ele>
        <time>2019-01-27T09:18:37Z</time>
      </trkpt>
      <trkpt lat="43.4304" lon="5.8525">
        <ele>347.65</ele>
        <time>2019-01-27T09:18:58Z</time>
      </trkpt>
      <trkpt lat="43.43017" lon="5.85225">
        <ele>348.13</ele>
        <time>2019-01-27T09:19:05Z</time>
      </trkpt>
      <trkpt lat="43.42941" lon="5.85178">
        <ele>349.1</ele>
        <time>2019-01-27T09:19:23Z</time>
      </trkpt>
      <trkpt lat="43.42839" lon="5.85119">
        <ele>349.58</ele>
        <time>2019-01-27T09:19:46Z</time>
      </trkpt>
      <trkpt lat="43.42758" lon="5.85111">
        <ele>351.5</ele>
        <time>2019-01-27T09:20:05Z</time>
      </trkpt>
      <trkpt lat="43.42682" lon="5.85109">
        <ele>352.94</ele>
        <time>2019-01-27T09:20:22Z</time>
      </trkpt>
      <trkpt lat="43.42623" lon="5.85121">
        <ele>352.94</ele>
        <time>2019-01-27T09:20:34Z</time>
      </trkpt>
      <trkpt lat="43.4257" lon="5.85158">
        <ele>353.9</ele>
        <time>2019-01-27T09:20:49Z</time>
      </trkpt>
      <trkpt lat="43.42509" lon="5.85212">
        <ele>353.42</ele>
        <time>2019-01-27T09:21:03Z</time>
      </trkpt>
      <trkpt lat="43.42473" lon="5.85229">
        <ele>352.46</ele>
        <time>2019-01-27T09:21:10Z</time>
      </trkpt>
      <trkpt lat="43.42375" lon="5.85257">
        <ele>350.06</ele>
        <time>2019-01-27T09:21:26Z</time>
      </trkpt>
      <trkpt lat="43.42256" lon="5.85283">
        <ele>347.17</ele>
        <time>2019-01-27T09:21:44Z</time>
      </trkpt>
      <trkpt lat="43.42216" lon="5.85291">
        <ele>343.81</ele>
        <time>2019-01-27T09:21:49Z</time>
      </trkpt>
      <trkpt lat="43.42157" lon="5.85303">
        <ele>340.44</ele>
        <time>2019-01-27T09:21:56Z</time>
      </trkpt>
      <trkpt lat="43.42148" lon="5.85304">
        <ele>340.44</ele>
        <time>2019-01-27T09:21:57Z</time>
      </trkpt>
      <trkpt lat="43.42045" lon="5.85308">
        <ele>337.56</ele>
        <time>2019-01-27T09:22:11Z</time>
      </trkpt>
      <trkpt lat="43.42002" lon="5.85295">
        <ele>336.12</ele>
        <time>2019-01-27T09:22:17Z</time>
      </trkpt>
      <trkpt lat="43.41995" lon="5.8529">
        <ele>336.12</ele>
        <time>2019-01-27T09:22:18Z</time>
      </trkpt>
      <trkpt lat="43.41989" lon="5.85285">
        <ele>336.12</ele>
        <time>2019-01-27T09:22:19Z</time>
      </trkpt>
      <trkpt lat="43.41969" lon="5.85268">
        <ele>334.68</ele>
        <time>2019-01-27T09:22:22Z</time>
      </trkpt>
      <trkpt lat="43.41848" lon="5.85169">
        <ele>332.27</ele>
        <time>2019-01-27T09:22:42Z</time>
      </trkpt>
      <trkpt lat="43.41792" lon="5.85119">
        <ele>333.23</ele>
        <time>2019-01-27T09:22:55Z</time>
      </trkpt>
      <trkpt lat="43.4177" lon="5.85082">
        <ele>336.6</ele>
        <time>2019-01-27T09:23:05Z</time>
      </trkpt>
      <trkpt lat="43.41735" lon="5.85025">
        <ele>339.48</ele>
        <time>2019-01-27T09:23:22Z</time>
      </trkpt>
      <trkpt lat="43.41703" lon="5.84999">
        <ele>342.37</ele>
        <time>2019-01-27T09:23:33Z</time>
      </trkpt>
      <trkpt lat="43.41652" lon="5.8498">
        <ele>345.73</ele>
        <time>2019-01-27T09:23:50Z</time>
      </trkpt>
      <trkpt lat="43.41593" lon="5.84986">
        <ele>346.69</ele>
        <time>2019-01-27T09:24:08Z</time>
      </trkpt>
      <trkpt lat="43.41533" lon="5.84976">
        <ele>346.69</ele>
        <time>2019-01-27T09:24:23Z</time>
      </trkpt>
      <trkpt lat="43.41464" lon="5.84959">
        <ele>344.77</ele>
        <time>2019-01-27T09:24:37Z</time>
      </trkpt>
      <trkpt lat="43.41459" lon="5.84956">
        <ele>344.77</ele>
        <time>2019-01-27T09:24:38Z</time>
      </trkpt>
      <trkpt lat="43.41455" lon="5.84954">
        <ele>344.77</ele>
        <time>2019-01-27T09:24:39Z</time>
      </trkpt>
      <trkpt lat="43.4145" lon="5.8495">
        <ele>344.77</ele>
        <time>2019-01-27T09:24:40Z</time>
      </trkpt>
      <trkpt lat="43.41446" lon="5.84947">
        <ele>344.77</ele>
        <time>2019-01-27T09:24:41Z</time>
      </trkpt>
      <trkpt lat="43.41421" lon="5.84916">
        <ele>345.73</ele>
        <time>2019-01-27T09:24:49Z</time>
      </trkpt>
      <trkpt lat="43.41369" lon="5.84853">
        <ele>344.29</ele>
        <time>2019-01-27T09:25:05Z</time>
      </trkpt>
      <trkpt lat="43.41306" lon="5.8475">
        <ele>340.92</ele>
        <time>2019-01-27T09:25:23Z</time>
      </trkpt>
      <trkpt lat="43.41302" lon="5.84743">
        <ele>340.92</ele>
        <time>2019-01-27T09:25:24Z</time>
      </trkpt>
      <trkpt lat="43.4124" lon="5.8462">
        <ele>338.04</ele>
        <time>2019-01-27T09:25:42Z</time>
      </trkpt>
      <trkpt lat="43.41205" lon="5.84555">
        <ele>334.68</ele>
        <time>2019-01-27T09:25:52Z</time>
      </trkpt>
      <trkpt lat="43.41136" lon="5.84482">
        <ele>332.27</ele>
        <time>2019-01-27T09:26:07Z</time>
      </trkpt>
      <trkpt lat="43.4106" lon="5.8444">
        <ele>330.83</ele>
        <time>2019-01-27T09:26:21Z</time>
      </trkpt>
      <trkpt lat="43.41003" lon="5.84397">
        <ele>332.75</ele>
        <time>2019-01-27T09:26:35Z</time>
      </trkpt>
      <trkpt lat="43.40961" lon="5.84357">
        <ele>336.12</ele>
        <time>2019-01-27T09:26:48Z</time>
      </trkpt>
      <trkpt lat="43.40906" lon="5.84327">
        <ele>337.56</ele>
        <time>2019-01-27T09:27:04Z</time>
      </trkpt>
      <trkpt lat="43.40843" lon="5.8431">
        <ele>339</ele>
        <time>2019-01-27T09:27:22Z</time>
      </trkpt>
      <trkpt lat="43.40799" lon="5.84326">
        <ele>339</ele>
        <time>2019-01-27T09:27:33Z</time>
      </trkpt>
      <trkpt lat="43.40739" lon="5.84391">
        <ele>335.64</ele>
        <time>2019-01-27T09:27:46Z</time>
      </trkpt>
      <trkpt lat="43.40713" lon="5.84413">
        <ele>334.2</ele>
        <time>2019-01-27T09:27:50Z</time>
      </trkpt>
      <trkpt lat="43.40694" lon="5.84434">
        <ele>333.71</ele>
        <time>2019-01-27T09:27:53Z</time>
      </trkpt>
      <trkpt lat="43.4069" lon="5.84442">
        <ele>332.75</ele>
        <time>2019-01-27T09:27:54Z</time>
      </trkpt>
      <trkpt lat="43.40685" lon="5.84452">
        <ele>331.79</ele>
        <time>2019-01-27T09:27:55Z</time>
      </trkpt>
      <trkpt lat="43.40681" lon="5.84462">
        <ele>331.31</ele>
        <time>2019-01-27T09:27:56Z</time>
      </trkpt>
      <trkpt lat="43.40678" lon="5.84473">
        <ele>330.83</ele>
        <time>2019-01-27T09:27:57Z</time>
      </trkpt>
      <trkpt lat="43.40675" lon="5.84484">
        <ele>330.83</ele>
        <time>2019-01-27T09:27:58Z</time>
      </trkpt>
      <trkpt lat="43.40668" lon="5.84506">
        <ele>329.39</ele>
        <time>2019-01-27T09:28:00Z</time>
      </trkpt>
      <trkpt lat="43.40664" lon="5.84516">
        <ele>328.91</ele>
        <time>2019-01-27T09:28:01Z</time>
      </trkpt>
      <trkpt lat="43.40659" lon="5.84526">
        <ele>328.43</ele>
        <time>2019-01-27T09:28:02Z</time>
      </trkpt>
      <trkpt lat="43.40653" lon="5.84534">
        <ele>328.43</ele>
        <time>2019-01-27T09:28:03Z</time>
      </trkpt>
      <trkpt lat="43.40647" lon="5.84543">
        <ele>328.43</ele>
        <time>2019-01-27T09:28:04Z</time>
      </trkpt>
      <trkpt lat="43.40641" lon="5.8455">
        <ele>328.43</ele>
        <time>2019-01-27T09:28:05Z</time>
      </trkpt>
      <trkpt lat="43.40614" lon="5.84588">
        <ele>327.95</ele>
        <time>2019-01-27T09:28:10Z</time>
      </trkpt>
      <trkpt lat="43.4061" lon="5.84596">
        <ele>327.95</ele>
        <time>2019-01-27T09:28:11Z</time>
      </trkpt>
      <trkpt lat="43.4056" lon="5.84688">
        <ele>325.06</ele>
        <time>2019-01-27T09:28:23Z</time>
      </trkpt>
      <trkpt lat="43.40556" lon="5.84696">
        <ele>325.06</ele>
        <time>2019-01-27T09:28:24Z</time>
      </trkpt>
      <trkpt lat="43.40552" lon="5.84705">
        <ele>325.06</ele>
        <time>2019-01-27T09:28:25Z</time>
      </trkpt>
      <trkpt lat="43.40533" lon="5.84753">
        <ele>322.66</ele>
        <time>2019-01-27T09:28:30Z</time>
      </trkpt>
      <trkpt lat="43.40527" lon="5.84761">
        <ele>321.7</ele>
        <time>2019-01-27T09:28:31Z</time>
      </trkpt>
      <trkpt lat="43.4052" lon="5.84767">
        <ele>321.7</ele>
        <time>2019-01-27T09:28:32Z</time>
      </trkpt>
      <trkpt lat="43.40513" lon="5.84771">
        <ele>321.7</ele>
        <time>2019-01-27T09:28:33Z</time>
      </trkpt>
      <trkpt lat="43.40506" lon="5.84773">
        <ele>321.7</ele>
        <time>2019-01-27T09:28:34Z</time>
      </trkpt>
      <trkpt lat="43.40498" lon="5.84771">
        <ele>321.7</ele>
        <time>2019-01-27T09:28:35Z</time>
      </trkpt>
      <trkpt lat="43.40491" lon="5.84767">
        <ele>321.7</ele>
        <time>2019-01-27T09:28:36Z</time>
      </trkpt>
      <trkpt lat="43.40485" lon="5.84763">
        <ele>321.7</ele>
        <time>2019-01-27T09:28:37Z</time>
      </trkpt>
      <trkpt lat="43.40473" lon="5.84756">
        <ele>322.18</ele>
        <time>2019-01-27T09:28:39Z</time>
      </trkpt>
      <trkpt lat="43.40467" lon="5.84754">
        <ele>322.18</ele>
        <time>2019-01-27T09:28:40Z</time>
      </trkpt>
      <trkpt lat="43.40461" lon="5.84752">
        <ele>322.18</ele>
        <time>2019-01-27T09:28:41Z</time>
      </trkpt>
      <trkpt lat="43.4038" lon="5.84753">
        <ele>322.18</ele>
        <time>2019-01-27T09:28:57Z</time>
      </trkpt>
      <trkpt lat="43.40295" lon="5.84759">
        <ele>324.58</ele>
        <time>2019-01-27T09:29:17Z</time>
      </trkpt>
      <trkpt lat="43.40237" lon="5.84755">
        <ele>327.95</ele>
        <time>2019-01-27T09:29:33Z</time>
      </trkpt>
      <trkpt lat="43.40181" lon="5.8475">
        <ele>331.31</ele>
        <time>2019-01-27T09:29:51Z</time>
      </trkpt>
      <trkpt lat="43.40137" lon="5.84745">
        <ele>333.71</ele>
        <time>2019-01-27T09:30:07Z</time>
      </trkpt>
      <trkpt lat="43.40097" lon="5.84742">
        <ele>337.08</ele>
        <time>2019-01-27T09:30:21Z</time>
      </trkpt>
      <trkpt lat="43.4005" lon="5.84737">
        <ele>340.44</ele>
        <time>2019-01-27T09:30:37Z</time>
      </trkpt>
      <trkpt lat="43.40009" lon="5.8473">
        <ele>343.81</ele>
        <time>2019-01-27T09:30:51Z</time>
      </trkpt>
      <trkpt lat="43.39976" lon="5.84746">
        <ele>345.73</ele>
        <time>2019-01-27T09:31:04Z</time>
      </trkpt>
      <trkpt lat="43.39944" lon="5.84798">
        <ele>347.65</ele>
        <time>2019-01-27T09:31:19Z</time>
      </trkpt>
      <trkpt lat="43.399" lon="5.84865">
        <ele>349.58</ele>
        <time>2019-01-27T09:31:36Z</time>
      </trkpt>
      <trkpt lat="43.39854" lon="5.84926">
        <ele>350.54</ele>
        <time>2019-01-27T09:31:53Z</time>
      </trkpt>
      <trkpt lat="43.39809" lon="5.84962">
        <ele>352.46</ele>
        <time>2019-01-27T09:32:08Z</time>
      </trkpt>
      <trkpt lat="43.39756" lon="5.84988">
        <ele>354.86</ele>
        <time>2019-01-27T09:32:25Z</time>
      </trkpt>
      <trkpt lat="43.39693" lon="5.85">
        <ele>356.79</ele>
        <time>2019-01-27T09:32:42Z</time>
      </trkpt>
      <trkpt lat="43.39652" lon="5.85035">
        <ele>356.79</ele>
        <time>2019-01-27T09:32:55Z</time>
      </trkpt>
      <trkpt lat="43.39609" lon="5.85079">
        <ele>355.34</ele>
        <time>2019-01-27T09:33:07Z</time>
      </trkpt>
      <trkpt lat="43.39599" lon="5.85088">
        <ele>355.83</ele>
        <time>2019-01-27T09:33:10Z</time>
      </trkpt>
      <trkpt lat="43.39587" lon="5.85097">
        <ele>355.34</ele>
        <time>2019-01-27T09:33:13Z</time>
      </trkpt>
      <trkpt lat="43.39511" lon="5.85114">
        <ele>354.38</ele>
        <time>2019-01-27T09:33:26Z</time>
      </trkpt>
      <trkpt lat="43.39457" lon="5.85108">
        <ele>357.27</ele>
        <time>2019-01-27T09:33:38Z</time>
      </trkpt>
      <trkpt lat="43.39428" lon="5.85107">
        <ele>357.75</ele>
        <time>2019-01-27T09:33:48Z</time>
      </trkpt>
      <trkpt lat="43.39392" lon="5.85102">
        <ele>357.75</ele>
        <time>2019-01-27T09:34:01Z</time>
      </trkpt>
      <trkpt lat="43.39376" lon="5.851">
        <ele>357.75</ele>
        <time>2019-01-27T09:34:11Z</time>
      </trkpt>
      <trkpt lat="43.39373" lon="5.851">
        <ele>357.75</ele>
        <time>2019-01-27T09:34:25Z</time>
      </trkpt>
      <trkpt lat="43.39371" lon="5.85102">
        <ele>357.75</ele>
        <time>2019-01-27T09:34:45Z</time>
      </trkpt>
      <trkpt lat="43.3937" lon="5.85103">
        <ele>357.75</ele>
        <time>2019-01-27T09:34:46Z</time>
      </trkpt>
      <trkpt lat="43.3937" lon="5.85104">
        <ele>357.75</ele>
        <time>2019-01-27T09:34:47Z</time>
      </trkpt>
      <trkpt lat="43.39369" lon="5.85106">
        <ele>357.75</ele>
        <time>2019-01-27T09:34:48Z</time>
      </trkpt>
      <trkpt lat="43.39369" lon="5.85108">
        <ele>357.75</ele>
        <time>2019-01-27T09:34:49Z</time>
      </trkpt>
      <trkpt lat="43.3937" lon="5.85109">
        <ele>357.75</ele>
        <time>2019-01-27T09:34:50Z</time>
      </trkpt>
      <trkpt lat="43.39371" lon="5.85109">
        <ele>357.75</ele>
        <time>2019-01-27T09:34:52Z</time>
      </trkpt>
      <trkpt lat="43.39372" lon="5.85107">
        <ele>357.75</ele>
        <time>2019-01-27T09:34:53Z</time>
      </trkpt>
      <trkpt lat="43.39372" lon="5.85103">
        <ele>357.75</ele>
        <time>2019-01-27T09:34:56Z</time>
      </trkpt>
      <trkpt lat="43.39376" lon="5.85103">
        <ele>357.75</ele>
        <time>2019-01-27T09:35:04Z</time>
      </trkpt>
      <trkpt lat="43.39375" lon="5.85104">
        <ele>357.75</ele>
        <time>2019-01-27T09:35:05Z</time>
      </trkpt>
      <trkpt lat="43.39374" lon="5.85104">
        <ele>357.75</ele>
        <time>2019-01-27T09:35:06Z</time>
      </trkpt>
      <trkpt lat="43.39373" lon="5.85103">
        <ele>357.75</ele>
        <time>2019-01-27T09:35:07Z</time>
      </trkpt>
      <trkpt lat="43.39373" lon="5.85102">
        <ele>357.75</ele>
        <time>2019-01-27T09:35:08Z</time>
      </trkpt>
      <trkpt lat="43.39371" lon="5.851">
        <ele>357.75</ele>
        <time>2019-01-27T09:35:19Z</time>
      </trkpt>
      <trkpt lat="43.3937" lon="5.85102">
        <ele>357.75</ele>
        <time>2019-01-27T09:35:22Z</time>
      </trkpt>
      <trkpt lat="43.39368" lon="5.85104">
        <ele>357.75</ele>
        <time>2019-01-27T09:35:23Z</time>
      </trkpt>
      <trkpt lat="43.39366" lon="5.85104">
        <ele>357.75</ele>
        <time>2019-01-27T09:35:24Z</time>
      </trkpt>
      <trkpt lat="43.39364" lon="5.85105">
        <ele>357.75</ele>
        <time>2019-01-27T09:35:25Z</time>
      </trkpt>
      <trkpt lat="43.39363" lon="5.85104">
        <ele>357.75</ele>
        <time>2019-01-27T09:35:26Z</time>
      </trkpt>
      <trkpt lat="43.39361" lon="5.85104">
        <ele>357.75</ele>
        <time>2019-01-27T09:35:27Z</time>
      </trkpt>
      <trkpt lat="43.39327" lon="5.85097">
        <ele>358.23</ele>
        <time>2019-01-27T09:35:43Z</time>
      </trkpt>
      <trkpt lat="43.39294" lon="5.85095">
        <ele>359.19</ele>
        <time>2019-01-27T09:35:57Z</time>
      </trkpt>
      <trkpt lat="43.39276" lon="5.85109">
        <ele>361.11</ele>
        <time>2019-01-27T09:36:12Z</time>
      </trkpt>
      <trkpt lat="43.39273" lon="5.85112">
        <ele>361.11</ele>
        <time>2019-01-27T09:36:14Z</time>
      </trkpt>
      <trkpt lat="43.39268" lon="5.85113">
        <ele>361.11</ele>
        <time>2019-01-27T09:36:20Z</time>
      </trkpt>
      <trkpt lat="43.39265" lon="5.85113">
        <ele>361.11</ele>
        <time>2019-01-27T09:36:21Z</time>
      </trkpt>
      <trkpt lat="43.39217" lon="5.85117">
        <ele>364</ele>
        <time>2019-01-27T09:36:41Z</time>
      </trkpt>
      <trkpt lat="43.39193" lon="5.85121">
        <ele>365.44</ele>
        <time>2019-01-27T09:36:53Z</time>
      </trkpt>
      <trkpt lat="43.39191" lon="5.85119">
        <ele>365.44</ele>
        <time>2019-01-27T09:36:54Z</time>
      </trkpt>
      <trkpt lat="43.39189" lon="5.85118">
        <ele>365.44</ele>
        <time>2019-01-27T09:36:55Z</time>
      </trkpt>
      <trkpt lat="43.39182" lon="5.85118">
        <ele>366.4</ele>
        <time>2019-01-27T09:37:00Z</time>
      </trkpt>
      <trkpt lat="43.39145" lon="5.85119">
        <ele>368.32</ele>
        <time>2019-01-27T09:37:15Z</time>
      </trkpt>
      <trkpt lat="43.39106" lon="5.85127">
        <ele>371.21</ele>
        <time>2019-01-27T09:37:35Z</time>
      </trkpt>
      <trkpt lat="43.39072" lon="5.85133">
        <ele>373.61</ele>
        <time>2019-01-27T09:37:51Z</time>
      </trkpt>
      <trkpt lat="43.39037" lon="5.85134">
        <ele>376.49</ele>
        <time>2019-01-27T09:38:08Z</time>
      </trkpt>
      <trkpt lat="43.39009" lon="5.85134">
        <ele>379.38</ele>
        <time>2019-01-27T09:38:22Z</time>
      </trkpt>
      <trkpt lat="43.38973" lon="5.8513">
        <ele>382.26</ele>
        <time>2019-01-27T09:38:40Z</time>
      </trkpt>
      <trkpt lat="43.38944" lon="5.85121">
        <ele>385.15</ele>
        <time>2019-01-27T09:38:57Z</time>
      </trkpt>
      <trkpt lat="43.38918" lon="5.8512">
        <ele>387.55</ele>
        <time>2019-01-27T09:39:13Z</time>
      </trkpt>
      <trkpt lat="43.38891" lon="5.85125">
        <ele>390.91</ele>
        <time>2019-01-27T09:39:29Z</time>
      </trkpt>
      <trkpt lat="43.38875" lon="5.85129">
        <ele>393.8</ele>
        <time>2019-01-27T09:39:38Z</time>
      </trkpt>
      <trkpt lat="43.38851" lon="5.85141">
        <ele>395.72</ele>
        <time>2019-01-27T09:39:53Z</time>
      </trkpt>
      <trkpt lat="43.38848" lon="5.85142">
        <ele>395.72</ele>
        <time>2019-01-27T09:40:16Z</time>
      </trkpt>
      <trkpt lat="43.38848" lon="5.85146">
        <ele>395.72</ele>
        <time>2019-01-27T09:40:29Z</time>
      </trkpt>
      <trkpt lat="43.3885" lon="5.8516">
        <ele>396.2</ele>
        <time>2019-01-27T09:40:43Z</time>
      </trkpt>
      <trkpt lat="43.3885" lon="5.85161">
        <ele>396.2</ele>
        <time>2019-01-27T09:40:44Z</time>
      </trkpt>
      <trkpt lat="43.3885" lon="5.85187">
        <ele>397.64</ele>
        <time>2019-01-27T09:41:04Z</time>
      </trkpt>
      <trkpt lat="43.38846" lon="5.85215">
        <ele>400.53</ele>
        <time>2019-01-27T09:41:24Z</time>
      </trkpt>
      <trkpt lat="43.38843" lon="5.85243">
        <ele>402.45</ele>
        <time>2019-01-27T09:41:43Z</time>
      </trkpt>
      <trkpt lat="43.38842" lon="5.85272">
        <ele>403.41</ele>
        <time>2019-01-27T09:42:01Z</time>
      </trkpt>
      <trkpt lat="43.3884" lon="5.85303">
        <ele>405.33</ele>
        <time>2019-01-27T09:42:22Z</time>
      </trkpt>
      <trkpt lat="43.38838" lon="5.85312">
        <ele>405.81</ele>
        <time>2019-01-27T09:42:29Z</time>
      </trkpt>
      <trkpt lat="43.38837" lon="5.85315">
        <ele>406.29</ele>
        <time>2019-01-27T09:42:32Z</time>
      </trkpt>
      <trkpt lat="43.38837" lon="5.85317">
        <ele>406.29</ele>
        <time>2019-01-27T09:42:33Z</time>
      </trkpt>
      <trkpt lat="43.38837" lon="5.85319">
        <ele>406.29</ele>
        <time>2019-01-27T09:42:34Z</time>
      </trkpt>
      <trkpt lat="43.38836" lon="5.8532">
        <ele>406.29</ele>
        <time>2019-01-27T09:42:35Z</time>
      </trkpt>
      <trkpt lat="43.38833" lon="5.85345">
        <ele>408.22</ele>
        <time>2019-01-27T09:42:54Z</time>
      </trkpt>
      <trkpt lat="43.38833" lon="5.85347">
        <ele>408.22</ele>
        <time>2019-01-27T09:42:55Z</time>
      </trkpt>
      <trkpt lat="43.38826" lon="5.85368">
        <ele>409.18</ele>
        <time>2019-01-27T09:43:11Z</time>
      </trkpt>
      <trkpt lat="43.38819" lon="5.85387">
        <ele>410.62</ele>
        <time>2019-01-27T09:43:28Z</time>
      </trkpt>
      <trkpt lat="43.38809" lon="5.85405">
        <ele>411.58</ele>
        <time>2019-01-27T09:43:45Z</time>
      </trkpt>
      <trkpt lat="43.38802" lon="5.85415">
        <ele>412.06</ele>
        <time>2019-01-27T09:43:54Z</time>
      </trkpt>
      <trkpt lat="43.38802" lon="5.85416">
        <ele>413.02</ele>
        <time>2019-01-27T09:43:55Z</time>
      </trkpt>
      <trkpt lat="43.38797" lon="5.8542">
        <ele>413.5</ele>
        <time>2019-01-27T09:44:12Z</time>
      </trkpt>
      <trkpt lat="43.38786" lon="5.85431">
        <ele>413.98</ele>
        <time>2019-01-27T09:44:30Z</time>
      </trkpt>
      <trkpt lat="43.38771" lon="5.85444">
        <ele>415.91</ele>
        <time>2019-01-27T09:44:49Z</time>
      </trkpt>
      <trkpt lat="43.38762" lon="5.85454">
        <ele>416.87</ele>
        <time>2019-01-27T09:45:06Z</time>
      </trkpt>
      <trkpt lat="43.38737" lon="5.8547">
        <ele>418.79</ele>
        <time>2019-01-27T09:45:22Z</time>
      </trkpt>
      <trkpt lat="43.38703" lon="5.85483">
        <ele>421.68</ele>
        <time>2019-01-27T09:45:40Z</time>
      </trkpt>
      <trkpt lat="43.38682" lon="5.8549">
        <ele>425.04</ele>
        <time>2019-01-27T09:45:51Z</time>
      </trkpt>
      <trkpt lat="43.38655" lon="5.85503">
        <ele>426.96</ele>
        <time>2019-01-27T09:46:08Z</time>
      </trkpt>
      <trkpt lat="43.3863" lon="5.85518">
        <ele>428.4</ele>
        <time>2019-01-27T09:46:23Z</time>
      </trkpt>
      <trkpt lat="43.38601" lon="5.85547">
        <ele>431.29</ele>
        <time>2019-01-27T09:46:41Z</time>
      </trkpt>
      <trkpt lat="43.38576" lon="5.85572">
        <ele>435.13</ele>
        <time>2019-01-27T09:46:56Z</time>
      </trkpt>
      <trkpt lat="43.38543" lon="5.85598">
        <ele>437.06</ele>
        <time>2019-01-27T09:47:13Z</time>
      </trkpt>
      <trkpt lat="43.38507" lon="5.85623">
        <ele>438.5</ele>
        <time>2019-01-27T09:47:33Z</time>
      </trkpt>
      <trkpt lat="43.38474" lon="5.85642">
        <ele>439.46</ele>
        <time>2019-01-27T09:47:50Z</time>
      </trkpt>
      <trkpt lat="43.38444" lon="5.85629">
        <ele>441.86</ele>
        <time>2019-01-27T09:48:06Z</time>
      </trkpt>
      <trkpt lat="43.38409" lon="5.85619">
        <ele>443.31</ele>
        <time>2019-01-27T09:48:23Z</time>
      </trkpt>
      <trkpt lat="43.38376" lon="5.85608">
        <ele>446.67</ele>
        <time>2019-01-27T09:48:38Z</time>
      </trkpt>
      <trkpt lat="43.38347" lon="5.85612">
        <ele>449.55</ele>
        <time>2019-01-27T09:48:53Z</time>
      </trkpt>
      <trkpt lat="43.38317" lon="5.85625">
        <ele>451</ele>
        <time>2019-01-27T09:49:10Z</time>
      </trkpt>
      <trkpt lat="43.38286" lon="5.8564">
        <ele>453.88</ele>
        <time>2019-01-27T09:49:27Z</time>
      </trkpt>
      <trkpt lat="43.38272" lon="5.85658">
        <ele>456.28</ele>
        <time>2019-01-27T09:49:39Z</time>
      </trkpt>
      <trkpt lat="43.38262" lon="5.8569">
        <ele>458.69</ele>
        <time>2019-01-27T09:49:54Z</time>
      </trkpt>
      <trkpt lat="43.38248" lon="5.85724">
        <ele>461.09</ele>
        <time>2019-01-27T09:50:09Z</time>
      </trkpt>
      <trkpt lat="43.38234" lon="5.85756">
        <ele>463.49</ele>
        <time>2019-01-27T09:50:25Z</time>
      </trkpt>
      <trkpt lat="43.38221" lon="5.85789">
        <ele>465.9</ele>
        <time>2019-01-27T09:50:42Z</time>
      </trkpt>
      <trkpt lat="43.38206" lon="5.85829">
        <ele>468.78</ele>
        <time>2019-01-27T09:51:00Z</time>
      </trkpt>
      <trkpt lat="43.38187" lon="5.8587">
        <ele>471.66</ele>
        <time>2019-01-27T09:51:17Z</time>
      </trkpt>
      <trkpt lat="43.38167" lon="5.85905">
        <ele>474.07</ele>
        <time>2019-01-27T09:51:35Z</time>
      </trkpt>
      <trkpt lat="43.38141" lon="5.85935">
        <ele>476.95</ele>
        <time>2019-01-27T09:51:52Z</time>
      </trkpt>
      <trkpt lat="43.38124" lon="5.85972">
        <ele>479.84</ele>
        <time>2019-01-27T09:52:08Z</time>
      </trkpt>
      <trkpt lat="43.381" lon="5.8598">
        <ele>479.84</ele>
        <time>2019-01-27T09:52:21Z</time>
      </trkpt>
      <trkpt lat="43.38082" lon="5.85987">
        <ele>481.28</ele>
        <time>2019-01-27T09:52:37Z</time>
      </trkpt>
      <trkpt lat="43.38067" lon="5.85996">
        <ele>482.72</ele>
        <time>2019-01-27T09:52:53Z</time>
      </trkpt>
      <trkpt lat="43.38048" lon="5.86001">
        <ele>485.12</ele>
        <time>2019-01-27T09:53:11Z</time>
      </trkpt>
      <trkpt lat="43.38028" lon="5.86001">
        <ele>486.08</ele>
        <time>2019-01-27T09:53:30Z</time>
      </trkpt>
      <trkpt lat="43.38013" lon="5.86002">
        <ele>488.01</ele>
        <time>2019-01-27T09:53:45Z</time>
      </trkpt>
      <trkpt lat="43.37995" lon="5.86004">
        <ele>488.97</ele>
        <time>2019-01-27T09:54:02Z</time>
      </trkpt>
      <trkpt lat="43.37975" lon="5.86006">
        <ele>489.93</ele>
        <time>2019-01-27T09:54:21Z</time>
      </trkpt>
      <trkpt lat="43.37955" lon="5.86012">
        <ele>491.85</ele>
        <time>2019-01-27T09:54:40Z</time>
      </trkpt>
      <trkpt lat="43.37936" lon="5.86009">
        <ele>494.26</ele>
        <time>2019-01-27T09:54:58Z</time>
      </trkpt>
      <trkpt lat="43.37917" lon="5.85995">
        <ele>494.74</ele>
        <time>2019-01-27T09:55:18Z</time>
      </trkpt>
      <trkpt lat="43.37902" lon="5.85978">
        <ele>495.7</ele>
        <time>2019-01-27T09:55:37Z</time>
      </trkpt>
      <trkpt lat="43.37887" lon="5.85958">
        <ele>497.62</ele>
        <time>2019-01-27T09:55:56Z</time>
      </trkpt>
      <trkpt lat="43.37875" lon="5.85947">
        <ele>498.1</ele>
        <time>2019-01-27T09:56:11Z</time>
      </trkpt>
      <trkpt lat="43.37863" lon="5.85924">
        <ele>500.02</ele>
        <time>2019-01-27T09:56:24Z</time>
      </trkpt>
      <trkpt lat="43.37848" lon="5.8589">
        <ele>501.95</ele>
        <time>2019-01-27T09:56:42Z</time>
      </trkpt>
      <trkpt lat="43.37832" lon="5.8586">
        <ele>503.39</ele>
        <time>2019-01-27T09:56:59Z</time>
      </trkpt>
      <trkpt lat="43.37817" lon="5.85827">
        <ele>506.27</ele>
        <time>2019-01-27T09:57:16Z</time>
      </trkpt>
      <trkpt lat="43.37804" lon="5.85797">
        <ele>507.71</ele>
        <time>2019-01-27T09:57:30Z</time>
      </trkpt>
      <trkpt lat="43.37789" lon="5.85755">
        <ele>510.6</ele>
        <time>2019-01-27T09:57:47Z</time>
      </trkpt>
      <trkpt lat="43.37779" lon="5.85709">
        <ele>512.04</ele>
        <time>2019-01-27T09:58:05Z</time>
      </trkpt>
      <trkpt lat="43.37764" lon="5.85671">
        <ele>513.48</ele>
        <time>2019-01-27T09:58:21Z</time>
      </trkpt>
      <trkpt lat="43.37736" lon="5.85644">
        <ele>516.37</ele>
        <time>2019-01-27T09:58:37Z</time>
      </trkpt>
      <trkpt lat="43.37732" lon="5.85639">
        <ele>516.37</ele>
        <time>2019-01-27T09:58:40Z</time>
      </trkpt>
      <trkpt lat="43.37731" lon="5.85637">
        <ele>516.37</ele>
        <time>2019-01-27T09:58:41Z</time>
      </trkpt>
      <trkpt lat="43.3773" lon="5.85635">
        <ele>516.85</ele>
        <time>2019-01-27T09:58:42Z</time>
      </trkpt>
      <trkpt lat="43.3773" lon="5.85632">
        <ele>516.85</ele>
        <time>2019-01-27T09:58:43Z</time>
      </trkpt>
      <trkpt lat="43.37729" lon="5.8563">
        <ele>516.85</ele>
        <time>2019-01-27T09:58:44Z</time>
      </trkpt>
      <trkpt lat="43.37728" lon="5.85603">
        <ele>518.29</ele>
        <time>2019-01-27T09:59:00Z</time>
      </trkpt>
      <trkpt lat="43.37726" lon="5.85597">
        <ele>518.29</ele>
        <time>2019-01-27T09:59:13Z</time>
      </trkpt>
      <trkpt lat="43.37725" lon="5.85593">
        <ele>518.29</ele>
        <time>2019-01-27T09:59:16Z</time>
      </trkpt>
      <trkpt lat="43.37723" lon="5.85588">
        <ele>519.73</ele>
        <time>2019-01-27T09:59:21Z</time>
      </trkpt>
      <trkpt lat="43.37723" lon="5.85571">
        <ele>520.69</ele>
        <time>2019-01-27T09:59:37Z</time>
      </trkpt>
      <trkpt lat="43.37732" lon="5.85545">
        <ele>523.58</ele>
        <time>2019-01-27T09:59:53Z</time>
      </trkpt>
      <trkpt lat="43.37742" lon="5.8552">
        <ele>525.98</ele>
        <time>2019-01-27T10:00:08Z</time>
      </trkpt>
      <trkpt lat="43.3775" lon="5.85484">
        <ele>529.34</ele>
        <time>2019-01-27T10:00:25Z</time>
      </trkpt>
      <trkpt lat="43.37753" lon="5.85459">
        <ele>532.23</ele>
        <time>2019-01-27T10:00:38Z</time>
      </trkpt>
      <trkpt lat="43.37753" lon="5.85437">
        <ele>532.23</ele>
        <time>2019-01-27T10:00:46Z</time>
      </trkpt>
      <trkpt lat="43.37749" lon="5.85416">
        <ele>534.15</ele>
        <time>2019-01-27T10:01:03Z</time>
      </trkpt>
      <trkpt lat="43.37742" lon="5.85395">
        <ele>536.07</ele>
        <time>2019-01-27T10:01:20Z</time>
      </trkpt>
      <trkpt lat="43.37737" lon="5.85376">
        <ele>538.48</ele>
        <time>2019-01-27T10:01:37Z</time>
      </trkpt>
      <trkpt lat="43.37742" lon="5.85359">
        <ele>540.4</ele>
        <time>2019-01-27T10:01:53Z</time>
      </trkpt>
      <trkpt lat="43.37747" lon="5.85339">
        <ele>542.8</ele>
        <time>2019-01-27T10:02:10Z</time>
      </trkpt>
      <trkpt lat="43.3775" lon="5.85318">
        <ele>546.17</ele>
        <time>2019-01-27T10:02:29Z</time>
      </trkpt>
      <trkpt lat="43.37753" lon="5.85304">
        <ele>547.61</ele>
        <time>2019-01-27T10:02:41Z</time>
      </trkpt>
      <trkpt lat="43.37754" lon="5.85298">
        <ele>549.05</ele>
        <time>2019-01-27T10:02:46Z</time>
      </trkpt>
      <trkpt lat="43.3775" lon="5.85288">
        <ele>550.01</ele>
        <time>2019-01-27T10:02:55Z</time>
      </trkpt>
      <trkpt lat="43.37749" lon="5.85287">
        <ele>550.01</ele>
        <time>2019-01-27T10:02:56Z</time>
      </trkpt>
      <trkpt lat="43.3774" lon="5.85288">
        <ele>551.93</ele>
        <time>2019-01-27T10:03:09Z</time>
      </trkpt>
      <trkpt lat="43.37725" lon="5.85292">
        <ele>553.38</ele>
        <time>2019-01-27T10:03:24Z</time>
      </trkpt>
      <trkpt lat="43.37708" lon="5.85278">
        <ele>555.3</ele>
        <time>2019-01-27T10:03:42Z</time>
      </trkpt>
      <trkpt lat="43.377" lon="5.85261">
        <ele>556.26</ele>
        <time>2019-01-27T10:03:57Z</time>
      </trkpt>
      <trkpt lat="43.37694" lon="5.85243">
        <ele>557.7</ele>
        <time>2019-01-27T10:04:13Z</time>
      </trkpt>
      <trkpt lat="43.37699" lon="5.85225">
        <ele>560.11</ele>
        <time>2019-01-27T10:04:32Z</time>
      </trkpt>
      <trkpt lat="43.37704" lon="5.85204">
        <ele>562.03</ele>
        <time>2019-01-27T10:04:50Z</time>
      </trkpt>
      <trkpt lat="43.37714" lon="5.85186">
        <ele>563.95</ele>
        <time>2019-01-27T10:05:07Z</time>
      </trkpt>
      <trkpt lat="43.3772" lon="5.85179">
        <ele>564.91</ele>
        <time>2019-01-27T10:05:15Z</time>
      </trkpt>
      <trkpt lat="43.37731" lon="5.85169">
        <ele>566.35</ele>
        <time>2019-01-27T10:05:30Z</time>
      </trkpt>
      <trkpt lat="43.37733" lon="5.85168">
        <ele>566.35</ele>
        <time>2019-01-27T10:05:32Z</time>
      </trkpt>
      <trkpt lat="43.3775" lon="5.85161">
        <ele>568.76</ele>
        <time>2019-01-27T10:05:50Z</time>
      </trkpt>
      <trkpt lat="43.37768" lon="5.85159">
        <ele>571.16</ele>
        <time>2019-01-27T10:06:09Z</time>
      </trkpt>
      <trkpt lat="43.37778" lon="5.85157">
        <ele>572.12</ele>
        <time>2019-01-27T10:06:23Z</time>
      </trkpt>
      <trkpt lat="43.37799" lon="5.85152">
        <ele>574.53</ele>
        <time>2019-01-27T10:06:46Z</time>
      </trkpt>
      <trkpt lat="43.37811" lon="5.85146">
        <ele>577.41</ele>
        <time>2019-01-27T10:07:03Z</time>
      </trkpt>
      <trkpt lat="43.37823" lon="5.85141">
        <ele>579.81</ele>
        <time>2019-01-27T10:07:22Z</time>
      </trkpt>
      <trkpt lat="43.3784" lon="5.85136">
        <ele>582.22</ele>
        <time>2019-01-27T10:07:40Z</time>
      </trkpt>
      <trkpt lat="43.37859" lon="5.85128">
        <ele>585.58</ele>
        <time>2019-01-27T10:08:02Z</time>
      </trkpt>
      <trkpt lat="43.37872" lon="5.85118">
        <ele>587.5</ele>
        <time>2019-01-27T10:08:18Z</time>
      </trkpt>
      <trkpt lat="43.37886" lon="5.85112">
        <ele>588.95</ele>
        <time>2019-01-27T10:08:35Z</time>
      </trkpt>
      <trkpt lat="43.37886" lon="5.85112">
        <ele>588.95</ele>
        <time>2019-01-27T10:08:36Z</time>
      </trkpt>
      <trkpt lat="43.37888" lon="5.85112">
        <ele>588.95</ele>
        <time>2019-01-27T10:08:37Z</time>
      </trkpt>
      <trkpt lat="43.37889" lon="5.85112">
        <ele>588.95</ele>
        <time>2019-01-27T10:08:38Z</time>
      </trkpt>
      <trkpt lat="43.37891" lon="5.85112">
        <ele>589.43</ele>
        <time>2019-01-27T10:08:39Z</time>
      </trkpt>
      <trkpt lat="43.37892" lon="5.85112">
        <ele>589.43</ele>
        <time>2019-01-27T10:08:40Z</time>
      </trkpt>
      <trkpt lat="43.37915" lon="5.85118">
        <ele>591.83</ele>
        <time>2019-01-27T10:08:53Z</time>
      </trkpt>
      <trkpt lat="43.3794" lon="5.85109">
        <ele>594.71</ele>
        <time>2019-01-27T10:09:09Z</time>
      </trkpt>
      <trkpt lat="43.37968" lon="5.85097">
        <ele>597.12</ele>
        <time>2019-01-27T10:09:25Z</time>
      </trkpt>
      <trkpt lat="43.37995" lon="5.85085">
        <ele>599.04</ele>
        <time>2019-01-27T10:09:39Z</time>
      </trkpt>
      <trkpt lat="43.37997" lon="5.85085">
        <ele>599.04</ele>
        <time>2019-01-27T10:09:40Z</time>
      </trkpt>
      <trkpt lat="43.37999" lon="5.85086">
        <ele>599.04</ele>
        <time>2019-01-27T10:09:41Z</time>
      </trkpt>
      <trkpt lat="43.38" lon="5.85086">
        <ele>599.04</ele>
        <time>2019-01-27T10:09:42Z</time>
      </trkpt>
      <trkpt lat="43.38002" lon="5.85087">
        <ele>599.04</ele>
        <time>2019-01-27T10:09:43Z</time>
      </trkpt>
      <trkpt lat="43.38004" lon="5.85087">
        <ele>599.04</ele>
        <time>2019-01-27T10:09:44Z</time>
      </trkpt>
      <trkpt lat="43.38006" lon="5.85087">
        <ele>599.04</ele>
        <time>2019-01-27T10:09:45Z</time>
      </trkpt>
      <trkpt lat="43.38008" lon="5.85088">
        <ele>599.04</ele>
        <time>2019-01-27T10:09:46Z</time>
      </trkpt>
      <trkpt lat="43.3801" lon="5.85089">
        <ele>599.52</ele>
        <time>2019-01-27T10:09:47Z</time>
      </trkpt>
      <trkpt lat="43.38041" lon="5.85077">
        <ele>601.44</ele>
        <time>2019-01-27T10:10:01Z</time>
      </trkpt>
      <trkpt lat="43.38073" lon="5.85042">
        <ele>602.88</ele>
        <time>2019-01-27T10:10:18Z</time>
      </trkpt>
      <trkpt lat="43.38107" lon="5.85029">
        <ele>604.33</ele>
        <time>2019-01-27T10:10:36Z</time>
      </trkpt>
      <trkpt lat="43.38114" lon="5.85029">
        <ele>604.33</ele>
        <time>2019-01-27T10:10:42Z</time>
      </trkpt>
      <trkpt lat="43.38115" lon="5.85028">
        <ele>604.33</ele>
        <time>2019-01-27T10:10:43Z</time>
      </trkpt>
      <trkpt lat="43.38116" lon="5.85027">
        <ele>604.33</ele>
        <time>2019-01-27T10:10:44Z</time>
      </trkpt>
      <trkpt lat="43.38118" lon="5.85025">
        <ele>604.33</ele>
        <time>2019-01-27T10:10:45Z</time>
      </trkpt>
      <trkpt lat="43.3812" lon="5.85024">
        <ele>604.33</ele>
        <time>2019-01-27T10:10:46Z</time>
      </trkpt>
      <trkpt lat="43.38122" lon="5.85023">
        <ele>604.33</ele>
        <time>2019-01-27T10:10:47Z</time>
      </trkpt>
      <trkpt lat="43.38148" lon="5.85011">
        <ele>604.33</ele>
        <time>2019-01-27T10:11:04Z</time>
      </trkpt>
      <trkpt lat="43.38156" lon="5.85016">
        <ele>602.4</ele>
        <time>2019-01-27T10:11:16Z</time>
      </trkpt>
      <trkpt lat="43.38155" lon="5.85019">
        <ele>602.4</ele>
        <time>2019-01-27T10:11:18Z</time>
      </trkpt>
      <trkpt lat="43.38157" lon="5.85026">
        <ele>601.92</ele>
        <time>2019-01-27T10:11:21Z</time>
      </trkpt>
      <trkpt lat="43.38153" lon="5.85048">
        <ele>601.44</ele>
        <time>2019-01-27T10:11:28Z</time>
      </trkpt>
      <trkpt lat="43.38141" lon="5.85063">
        <ele>600.96</ele>
        <time>2019-01-27T10:11:37Z</time>
      </trkpt>
      <trkpt lat="43.38139" lon="5.85071">
        <ele>600.48</ele>
        <time>2019-01-27T10:11:40Z</time>
      </trkpt>
      <trkpt lat="43.38159" lon="5.85116">
        <ele>599.04</ele>
        <time>2019-01-27T10:11:52Z</time>
      </trkpt>
      <trkpt lat="43.38169" lon="5.85149">
        <ele>600.48</ele>
        <time>2019-01-27T10:11:59Z</time>
      </trkpt>
      <trkpt lat="43.38181" lon="5.85188">
        <ele>603.36</ele>
        <time>2019-01-27T10:12:08Z</time>
      </trkpt>
      <trkpt lat="43.38182" lon="5.8522">
        <ele>605.29</ele>
        <time>2019-01-27T10:12:18Z</time>
      </trkpt>
      <trkpt lat="43.38184" lon="5.85223">
        <ele>605.29</ele>
        <time>2019-01-27T10:12:19Z</time>
      </trkpt>
      <trkpt lat="43.38186" lon="5.85223">
        <ele>605.29</ele>
        <time>2019-01-27T10:12:20Z</time>
      </trkpt>
      <trkpt lat="43.38189" lon="5.85224">
        <ele>605.77</ele>
        <time>2019-01-27T10:12:21Z</time>
      </trkpt>
      <trkpt lat="43.38191" lon="5.85225">
        <ele>605.77</ele>
        <time>2019-01-27T10:12:22Z</time>
      </trkpt>
      <trkpt lat="43.38194" lon="5.85225">
        <ele>606.73</ele>
        <time>2019-01-27T10:12:23Z</time>
      </trkpt>
      <trkpt lat="43.38196" lon="5.85226">
        <ele>606.73</ele>
        <time>2019-01-27T10:12:24Z</time>
      </trkpt>
      <trkpt lat="43.38198" lon="5.85227">
        <ele>606.73</ele>
        <time>2019-01-27T10:12:25Z</time>
      </trkpt>
      <trkpt lat="43.382" lon="5.85228">
        <ele>607.21</ele>
        <time>2019-01-27T10:12:26Z</time>
      </trkpt>
      <trkpt lat="43.38215" lon="5.85236">
        <ele>609.13</ele>
        <time>2019-01-27T10:12:39Z</time>
      </trkpt>
      <trkpt lat="43.38218" lon="5.8524">
        <ele>609.13</ele>
        <time>2019-01-27T10:12:45Z</time>
      </trkpt>
      <trkpt lat="43.38216" lon="5.8525">
        <ele>609.61</ele>
        <time>2019-01-27T10:12:59Z</time>
      </trkpt>
      <trkpt lat="43.38218" lon="5.85252">
        <ele>609.61</ele>
        <time>2019-01-27T10:13:32Z</time>
      </trkpt>
      <trkpt lat="43.38217" lon="5.85252">
        <ele>609.61</ele>
        <time>2019-01-27T10:14:04Z</time>
      </trkpt>
      <trkpt lat="43.38216" lon="5.85251">
        <ele>609.61</ele>
        <time>2019-01-27T10:14:31Z</time>
      </trkpt>
      <trkpt lat="43.38215" lon="5.85249">
        <ele>609.13</ele>
        <time>2019-01-27T10:15:10Z</time>
      </trkpt>
      <trkpt lat="43.38215" lon="5.85249">
        <ele>607.69</ele>
        <time>2019-01-27T10:15:46Z</time>
      </trkpt>
      <trkpt lat="43.38215" lon="5.85248">
        <ele>607.69</ele>
        <time>2019-01-27T10:16:23Z</time>
      </trkpt>
      <trkpt lat="43.38216" lon="5.85249">
        <ele>607.69</ele>
        <time>2019-01-27T10:16:48Z</time>
      </trkpt>
      <trkpt lat="43.38216" lon="5.8525">
        <ele>607.21</ele>
        <time>2019-01-27T10:17:25Z</time>
      </trkpt>
      <trkpt lat="43.38217" lon="5.85251">
        <ele>607.21</ele>
        <time>2019-01-27T10:18:01Z</time>
      </trkpt>
      <trkpt lat="43.38219" lon="5.85251">
        <ele>607.21</ele>
        <time>2019-01-27T10:18:31Z</time>
      </trkpt>
      <trkpt lat="43.38218" lon="5.8525">
        <ele>607.21</ele>
        <time>2019-01-27T10:18:58Z</time>
      </trkpt>
      <trkpt lat="43.38218" lon="5.85251">
        <ele>606.25</ele>
        <time>2019-01-27T10:19:36Z</time>
      </trkpt>
      <trkpt lat="43.38218" lon="5.85251">
        <ele>607.21</ele>
        <time>2019-01-27T10:20:10Z</time>
      </trkpt>
      <trkpt lat="43.38218" lon="5.8525">
        <ele>607.69</ele>
        <time>2019-01-27T10:20:39Z</time>
      </trkpt>
      <trkpt lat="43.38218" lon="5.85251">
        <ele>606.25</ele>
        <time>2019-01-27T10:21:18Z</time>
      </trkpt>
      <trkpt lat="43.38218" lon="5.85249">
        <ele>606.25</ele>
        <time>2019-01-27T10:21:51Z</time>
      </trkpt>
      <trkpt lat="43.38218" lon="5.8525">
        <ele>605.77</ele>
        <time>2019-01-27T10:22:27Z</time>
      </trkpt>
      <trkpt lat="43.38219" lon="5.8525">
        <ele>605.77</ele>
        <time>2019-01-27T10:23:03Z</time>
      </trkpt>
      <trkpt lat="43.38219" lon="5.85252">
        <ele>605.77</ele>
        <time>2019-01-27T10:23:34Z</time>
      </trkpt>
      <trkpt lat="43.38219" lon="5.85252">
        <ele>605.77</ele>
        <time>2019-01-27T10:23:59Z</time>
      </trkpt>
      <trkpt lat="43.38218" lon="5.85253">
        <ele>606.73</ele>
        <time>2019-01-27T10:24:19Z</time>
      </trkpt>
      <trkpt lat="43.38219" lon="5.85254">
        <ele>607.21</ele>
        <time>2019-01-27T10:24:49Z</time>
      </trkpt>
      <trkpt lat="43.38219" lon="5.85253">
        <ele>607.21</ele>
        <time>2019-01-27T10:25:17Z</time>
      </trkpt>
      <trkpt lat="43.38218" lon="5.85252">
        <ele>606.73</ele>
        <time>2019-01-27T10:25:49Z</time>
      </trkpt>
      <trkpt lat="43.38218" lon="5.85251">
        <ele>606.73</ele>
        <time>2019-01-27T10:26:17Z</time>
      </trkpt>
      <trkpt lat="43.38218" lon="5.8525">
        <ele>606.73</ele>
        <time>2019-01-27T10:26:36Z</time>
      </trkpt>
      <trkpt lat="43.38218" lon="5.85251">
        <ele>605.77</ele>
        <time>2019-01-27T10:27:08Z</time>
      </trkpt>
      <trkpt lat="43.38219" lon="5.85251">
        <ele>606.73</ele>
        <time>2019-01-27T10:27:42Z</time>
      </trkpt>
      <trkpt lat="43.3822" lon="5.85251">
        <ele>606.73</ele>
        <time>2019-01-27T10:28:05Z</time>
      </trkpt>
      <trkpt lat="43.3822" lon="5.85252">
        <ele>606.73</ele>
        <time>2019-01-27T10:28:24Z</time>
      </trkpt>
      <trkpt lat="43.38221" lon="5.85249">
        <ele>606.73</ele>
        <time>2019-01-27T10:28:33Z</time>
      </trkpt>
      <trkpt lat="43.38218" lon="5.85242">
        <ele>606.73</ele>
        <time>2019-01-27T10:28:49Z</time>
      </trkpt>
      <trkpt lat="43.38214" lon="5.85238">
        <ele>605.29</ele>
        <time>2019-01-27T10:28:55Z</time>
      </trkpt>
      <trkpt lat="43.38213" lon="5.85237">
        <ele>604.33</ele>
        <time>2019-01-27T10:28:56Z</time>
      </trkpt>
      <trkpt lat="43.38209" lon="5.85232">
        <ele>603.85</ele>
        <time>2019-01-27T10:28:59Z</time>
      </trkpt>
      <trkpt lat="43.38206" lon="5.85227">
        <ele>603.85</ele>
        <time>2019-01-27T10:29:01Z</time>
      </trkpt>
      <trkpt lat="43.38203" lon="5.85221">
        <ele>602.88</ele>
        <time>2019-01-27T10:29:03Z</time>
      </trkpt>
      <trkpt lat="43.38203" lon="5.85218">
        <ele>602.88</ele>
        <time>2019-01-27T10:29:04Z</time>
      </trkpt>
      <trkpt lat="43.38196" lon="5.852">
        <ele>600</ele>
        <time>2019-01-27T10:29:10Z</time>
      </trkpt>
      <trkpt lat="43.38167" lon="5.85156">
        <ele>596.64</ele>
        <time>2019-01-27T10:29:22Z</time>
      </trkpt>
      <trkpt lat="43.38158" lon="5.85124">
        <ele>597.12</ele>
        <time>2019-01-27T10:29:28Z</time>
      </trkpt>
      <trkpt lat="43.38142" lon="5.85089">
        <ele>598.56</ele>
        <time>2019-01-27T10:29:38Z</time>
      </trkpt>
      <trkpt lat="43.38137" lon="5.85072">
        <ele>598.56</ele>
        <time>2019-01-27T10:29:50Z</time>
      </trkpt>
      <trkpt lat="43.38139" lon="5.8507">
        <ele>598.56</ele>
        <time>2019-01-27T10:30:03Z</time>
      </trkpt>
      <trkpt lat="43.38142" lon="5.85068">
        <ele>598.56</ele>
        <time>2019-01-27T10:30:06Z</time>
      </trkpt>
      <trkpt lat="43.3816" lon="5.85048">
        <ele>599.52</ele>
        <time>2019-01-27T10:30:19Z</time>
      </trkpt>
      <trkpt lat="43.38159" lon="5.85039">
        <ele>600</ele>
        <time>2019-01-27T10:30:24Z</time>
      </trkpt>
      <trkpt lat="43.38161" lon="5.85018">
        <ele>600.48</ele>
        <time>2019-01-27T10:30:33Z</time>
      </trkpt>
      <trkpt lat="43.38166" lon="5.85002">
        <ele>600.48</ele>
        <time>2019-01-27T10:30:41Z</time>
      </trkpt>
      <trkpt lat="43.3817" lon="5.84992">
        <ele>600.48</ele>
        <time>2019-01-27T10:30:46Z</time>
      </trkpt>
      <trkpt lat="43.38171" lon="5.84984">
        <ele>600.48</ele>
        <time>2019-01-27T10:30:50Z</time>
      </trkpt>
      <trkpt lat="43.38181" lon="5.84961">
        <ele>598.56</ele>
        <time>2019-01-27T10:31:01Z</time>
      </trkpt>
      <trkpt lat="43.38188" lon="5.84951">
        <ele>597.12</ele>
        <time>2019-01-27T10:31:05Z</time>
      </trkpt>
      <trkpt lat="43.38196" lon="5.84931">
        <ele>596.15</ele>
        <time>2019-01-27T10:31:15Z</time>
      </trkpt>
      <trkpt lat="43.38194" lon="5.8492">
        <ele>596.15</ele>
        <time>2019-01-27T10:31:27Z</time>
      </trkpt>
      <trkpt lat="43.38197" lon="5.84915">
        <ele>595.19</ele>
        <time>2019-01-27T10:31:32Z</time>
      </trkpt>
      <trkpt lat="43.38203" lon="5.84911">
        <ele>594.23</ele>
        <time>2019-01-27T10:31:44Z</time>
      </trkpt>
      <trkpt lat="43.38204" lon="5.84911">
        <ele>594.23</ele>
        <time>2019-01-27T10:31:52Z</time>
      </trkpt>
      <trkpt lat="43.38213" lon="5.84912">
        <ele>592.31</ele>
        <time>2019-01-27T10:32:07Z</time>
      </trkpt>
      <trkpt lat="43.38214" lon="5.84908">
        <ele>591.83</ele>
        <time>2019-01-27T10:32:13Z</time>
      </trkpt>
      <trkpt lat="43.38219" lon="5.84892">
        <ele>590.87</ele>
        <time>2019-01-27T10:32:27Z</time>
      </trkpt>
      <trkpt lat="43.38221" lon="5.84886">
        <ele>589.91</ele>
        <time>2019-01-27T10:32:35Z</time>
      </trkpt>
      <trkpt lat="43.38222" lon="5.84881">
        <ele>588.95</ele>
        <time>2019-01-27T10:32:38Z</time>
      </trkpt>
      <trkpt lat="43.38229" lon="5.84868">
        <ele>587.98</ele>
        <time>2019-01-27T10:32:51Z</time>
      </trkpt>
      <trkpt lat="43.38231" lon="5.84867">
        <ele>587.98</ele>
        <time>2019-01-27T10:32:53Z</time>
      </trkpt>
      <trkpt lat="43.38233" lon="5.84862">
        <ele>587.5</ele>
        <time>2019-01-27T10:33:00Z</time>
      </trkpt>
      <trkpt lat="43.38234" lon="5.84856">
        <ele>587.02</ele>
        <time>2019-01-27T10:33:04Z</time>
      </trkpt>
      <trkpt lat="43.38232" lon="5.8483">
        <ele>583.18</ele>
        <time>2019-01-27T10:33:17Z</time>
      </trkpt>
      <trkpt lat="43.38233" lon="5.84826">
        <ele>582.7</ele>
        <time>2019-01-27T10:33:19Z</time>
      </trkpt>
      <trkpt lat="43.38228" lon="5.84804">
        <ele>578.85</ele>
        <time>2019-01-27T10:33:30Z</time>
      </trkpt>
      <trkpt lat="43.38228" lon="5.84794">
        <ele>577.41</ele>
        <time>2019-01-27T10:33:34Z</time>
      </trkpt>
      <trkpt lat="43.38229" lon="5.84789">
        <ele>575.97</ele>
        <time>2019-01-27T10:33:36Z</time>
      </trkpt>
      <trkpt lat="43.38223" lon="5.84781">
        <ele>575.97</ele>
        <time>2019-01-27T10:33:40Z</time>
      </trkpt>
      <trkpt lat="43.38217" lon="5.84743">
        <ele>574.04</ele>
        <time>2019-01-27T10:33:52Z</time>
      </trkpt>
      <trkpt lat="43.38216" lon="5.84736">
        <ele>571.64</ele>
        <time>2019-01-27T10:34:06Z</time>
      </trkpt>
      <trkpt lat="43.38219" lon="5.84726">
        <ele>569.24</ele>
        <time>2019-01-27T10:34:20Z</time>
      </trkpt>
      <trkpt lat="43.38221" lon="5.84725">
        <ele>569.24</ele>
        <time>2019-01-27T10:34:58Z</time>
      </trkpt>
      <trkpt lat="43.38221" lon="5.84726">
        <ele>570.2</ele>
        <time>2019-01-27T10:35:36Z</time>
      </trkpt>
      <trkpt lat="43.38223" lon="5.8472">
        <ele>568.76</ele>
        <time>2019-01-27T10:35:46Z</time>
      </trkpt>
      <trkpt lat="43.38216" lon="5.8469">
        <ele>566.35</ele>
        <time>2019-01-27T10:35:58Z</time>
      </trkpt>
      <trkpt lat="43.3821" lon="5.84678">
        <ele>566.35</ele>
        <time>2019-01-27T10:36:04Z</time>
      </trkpt>
      <trkpt lat="43.38209" lon="5.84668">
        <ele>565.87</ele>
        <time>2019-01-27T10:36:12Z</time>
      </trkpt>
      <trkpt lat="43.3821" lon="5.84666">
        <ele>564.91</ele>
        <time>2019-01-27T10:36:14Z</time>
      </trkpt>
      <trkpt lat="43.3821" lon="5.84663">
        <ele>564.43</ele>
        <time>2019-01-27T10:36:16Z</time>
      </trkpt>
      <trkpt lat="43.38208" lon="5.84639">
        <ele>562.99</ele>
        <time>2019-01-27T10:36:29Z</time>
      </trkpt>
      <trkpt lat="43.38209" lon="5.84629">
        <ele>559.62</ele>
        <time>2019-01-27T10:36:32Z</time>
      </trkpt>
      <trkpt lat="43.38209" lon="5.84626">
        <ele>559.62</ele>
        <time>2019-01-27T10:36:33Z</time>
      </trkpt>
      <trkpt lat="43.3821" lon="5.84614">
        <ele>557.22</ele>
        <time>2019-01-27T10:36:38Z</time>
      </trkpt>
      <trkpt lat="43.38208" lon="5.84592">
        <ele>554.82</ele>
        <time>2019-01-27T10:36:48Z</time>
      </trkpt>
      <trkpt lat="43.38211" lon="5.84569">
        <ele>551.93</ele>
        <time>2019-01-27T10:37:03Z</time>
      </trkpt>
      <trkpt lat="43.38212" lon="5.84569">
        <ele>551.93</ele>
        <time>2019-01-27T10:37:05Z</time>
      </trkpt>
      <trkpt lat="43.38216" lon="5.84567">
        <ele>550.01</ele>
        <time>2019-01-27T10:37:14Z</time>
      </trkpt>
      <trkpt lat="43.38214" lon="5.84539">
        <ele>546.65</ele>
        <time>2019-01-27T10:37:24Z</time>
      </trkpt>
      <trkpt lat="43.38206" lon="5.84515">
        <ele>545.69</ele>
        <time>2019-01-27T10:37:34Z</time>
      </trkpt>
      <trkpt lat="43.38194" lon="5.84475">
        <ele>543.28</ele>
        <time>2019-01-27T10:37:49Z</time>
      </trkpt>
      <trkpt lat="43.38188" lon="5.84462">
        <ele>542.8</ele>
        <time>2019-01-27T10:38:00Z</time>
      </trkpt>
      <trkpt lat="43.38183" lon="5.84452">
        <ele>542.32</ele>
        <time>2019-01-27T10:38:09Z</time>
      </trkpt>
      <trkpt lat="43.38173" lon="5.84436">
        <ele>541.84</ele>
        <time>2019-01-27T10:38:21Z</time>
      </trkpt>
      <trkpt lat="43.38162" lon="5.84427">
        <ele>541.36</ele>
        <time>2019-01-27T10:38:37Z</time>
      </trkpt>
      <trkpt lat="43.38162" lon="5.84426">
        <ele>540.88</ele>
        <time>2019-01-27T10:38:52Z</time>
      </trkpt>
      <trkpt lat="43.38163" lon="5.84427">
        <ele>540.88</ele>
        <time>2019-01-27T10:39:10Z</time>
      </trkpt>
      <trkpt lat="43.38162" lon="5.84428">
        <ele>540.88</ele>
        <time>2019-01-27T10:39:30Z</time>
      </trkpt>
      <trkpt lat="43.38164" lon="5.84425">
        <ele>540.88</ele>
        <time>2019-01-27T10:39:59Z</time>
      </trkpt>
      <trkpt lat="43.3816" lon="5.8442">
        <ele>540.88</ele>
        <time>2019-01-27T10:40:18Z</time>
      </trkpt>
      <trkpt lat="43.38153" lon="5.84415">
        <ele>540.88</ele>
        <time>2019-01-27T10:40:35Z</time>
      </trkpt>
      <trkpt lat="43.38148" lon="5.84407">
        <ele>539.92</ele>
        <time>2019-01-27T10:40:40Z</time>
      </trkpt>
      <trkpt lat="43.38145" lon="5.84405">
        <ele>539.44</ele>
        <time>2019-01-27T10:40:42Z</time>
      </trkpt>
      <trkpt lat="43.38139" lon="5.84405">
        <ele>540.88</ele>
        <time>2019-01-27T10:40:48Z</time>
      </trkpt>
      <trkpt lat="43.38132" lon="5.84401">
        <ele>542.32</ele>
        <time>2019-01-27T10:40:56Z</time>
      </trkpt>
      <trkpt lat="43.38119" lon="5.84394">
        <ele>539.44</ele>
        <time>2019-01-27T10:41:08Z</time>
      </trkpt>
      <trkpt lat="43.38117" lon="5.84394">
        <ele>539.44</ele>
        <time>2019-01-27T10:41:10Z</time>
      </trkpt>
      <trkpt lat="43.38113" lon="5.84393">
        <ele>538.48</ele>
        <time>2019-01-27T10:41:22Z</time>
      </trkpt>
      <trkpt lat="43.38113" lon="5.84394">
        <ele>539.92</ele>
        <time>2019-01-27T10:41:29Z</time>
      </trkpt>
      <trkpt lat="43.3811" lon="5.8439">
        <ele>540.88</ele>
        <time>2019-01-27T10:41:56Z</time>
      </trkpt>
      <trkpt lat="43.38105" lon="5.84382">
        <ele>539.92</ele>
        <time>2019-01-27T10:42:01Z</time>
      </trkpt>
      <trkpt lat="43.38104" lon="5.84381">
        <ele>539.44</ele>
        <time>2019-01-27T10:42:02Z</time>
      </trkpt>
      <trkpt lat="43.38093" lon="5.84368">
        <ele>538.48</ele>
        <time>2019-01-27T10:42:16Z</time>
      </trkpt>
      <trkpt lat="43.3809" lon="5.84365">
        <ele>537.51</ele>
        <time>2019-01-27T10:42:21Z</time>
      </trkpt>
      <trkpt lat="43.38088" lon="5.84362">
        <ele>536.55</ele>
        <time>2019-01-27T10:42:23Z</time>
      </trkpt>
      <trkpt lat="43.38087" lon="5.8436">
        <ele>536.55</ele>
        <time>2019-01-27T10:42:25Z</time>
      </trkpt>
      <trkpt lat="43.38086" lon="5.84354">
        <ele>536.07</ele>
        <time>2019-01-27T10:42:32Z</time>
      </trkpt>
      <trkpt lat="43.38078" lon="5.84341">
        <ele>535.11</ele>
        <time>2019-01-27T10:42:40Z</time>
      </trkpt>
      <trkpt lat="43.38067" lon="5.84331">
        <ele>533.67</ele>
        <time>2019-01-27T10:42:47Z</time>
      </trkpt>
      <trkpt lat="43.38057" lon="5.84328">
        <ele>533.19</ele>
        <time>2019-01-27T10:42:53Z</time>
      </trkpt>
      <trkpt lat="43.38047" lon="5.84318">
        <ele>532.23</ele>
        <time>2019-01-27T10:43:07Z</time>
      </trkpt>
      <trkpt lat="43.38047" lon="5.84317">
        <ele>532.23</ele>
        <time>2019-01-27T10:43:08Z</time>
      </trkpt>
      <trkpt lat="43.38045" lon="5.84315">
        <ele>531.27</ele>
        <time>2019-01-27T10:43:14Z</time>
      </trkpt>
      <trkpt lat="43.38035" lon="5.8431">
        <ele>531.27</ele>
        <time>2019-01-27T10:43:21Z</time>
      </trkpt>
      <trkpt lat="43.38014" lon="5.8431">
        <ele>528.86</ele>
        <time>2019-01-27T10:43:32Z</time>
      </trkpt>
      <trkpt lat="43.38006" lon="5.84312">
        <ele>530.3</ele>
        <time>2019-01-27T10:43:38Z</time>
      </trkpt>
      <trkpt lat="43.38003" lon="5.84311">
        <ele>530.79</ele>
        <time>2019-01-27T10:43:45Z</time>
      </trkpt>
      <trkpt lat="43.38001" lon="5.84309">
        <ele>530.79</ele>
        <time>2019-01-27T10:43:47Z</time>
      </trkpt>
      <trkpt lat="43.3798" lon="5.84293">
        <ele>529.82</ele>
        <time>2019-01-27T10:43:59Z</time>
      </trkpt>
      <trkpt lat="43.37979" lon="5.84292">
        <ele>529.82</ele>
        <time>2019-01-27T10:44:00Z</time>
      </trkpt>
      <trkpt lat="43.37961" lon="5.84278">
        <ele>528.86</ele>
        <time>2019-01-27T10:44:12Z</time>
      </trkpt>
      <trkpt lat="43.37951" lon="5.84273">
        <ele>528.86</ele>
        <time>2019-01-27T10:44:17Z</time>
      </trkpt>
      <trkpt lat="43.37926" lon="5.84263">
        <ele>529.34</ele>
        <time>2019-01-27T10:44:29Z</time>
      </trkpt>
      <trkpt lat="43.3792" lon="5.84262">
        <ele>529.34</ele>
        <time>2019-01-27T10:44:32Z</time>
      </trkpt>
      <trkpt lat="43.3791" lon="5.84261">
        <ele>529.34</ele>
        <time>2019-01-27T10:44:38Z</time>
      </trkpt>
      <trkpt lat="43.37902" lon="5.8426">
        <ele>528.38</ele>
        <time>2019-01-27T10:44:43Z</time>
      </trkpt>
      <trkpt lat="43.37889" lon="5.84254">
        <ele>525.98</ele>
        <time>2019-01-27T10:44:55Z</time>
      </trkpt>
      <trkpt lat="43.3789" lon="5.8425">
        <ele>525.02</ele>
        <time>2019-01-27T10:45:02Z</time>
      </trkpt>
      <trkpt lat="43.37903" lon="5.84247">
        <ele>522.61</ele>
        <time>2019-01-27T10:45:09Z</time>
      </trkpt>
      <trkpt lat="43.37917" lon="5.84234">
        <ele>521.17</ele>
        <time>2019-01-27T10:45:22Z</time>
      </trkpt>
      <trkpt lat="43.37925" lon="5.84228">
        <ele>519.25</ele>
        <time>2019-01-27T10:45:35Z</time>
      </trkpt>
      <trkpt lat="43.37934" lon="5.84223">
        <ele>517.33</ele>
        <time>2019-01-27T10:45:46Z</time>
      </trkpt>
      <trkpt lat="43.37943" lon="5.84217">
        <ele>515.88</ele>
        <time>2019-01-27T10:45:56Z</time>
      </trkpt>
      <trkpt lat="43.37944" lon="5.84217">
        <ele>515.88</ele>
        <time>2019-01-27T10:45:57Z</time>
      </trkpt>
      <trkpt lat="43.37945" lon="5.84217">
        <ele>514.92</ele>
        <time>2019-01-27T10:45:58Z</time>
      </trkpt>
      <trkpt lat="43.37955" lon="5.84217">
        <ele>513</ele>
        <time>2019-01-27T10:46:10Z</time>
      </trkpt>
      <trkpt lat="43.37964" lon="5.84222">
        <ele>511.08</ele>
        <time>2019-01-27T10:46:23Z</time>
      </trkpt>
      <trkpt lat="43.37967" lon="5.84224">
        <ele>510.12</ele>
        <time>2019-01-27T10:46:27Z</time>
      </trkpt>
      <trkpt lat="43.37968" lon="5.84225">
        <ele>509.64</ele>
        <time>2019-01-27T10:46:28Z</time>
      </trkpt>
      <trkpt lat="43.37972" lon="5.84227">
        <ele>508.67</ele>
        <time>2019-01-27T10:46:41Z</time>
      </trkpt>
      <trkpt lat="43.37968" lon="5.84224">
        <ele>508.67</ele>
        <time>2019-01-27T10:47:12Z</time>
      </trkpt>
      <trkpt lat="43.3797" lon="5.84225">
        <ele>508.67</ele>
        <time>2019-01-27T10:47:29Z</time>
      </trkpt>
      <trkpt lat="43.37973" lon="5.84226">
        <ele>508.67</ele>
        <time>2019-01-27T10:47:38Z</time>
      </trkpt>
      <trkpt lat="43.37976" lon="5.84227">
        <ele>508.19</ele>
        <time>2019-01-27T10:47:57Z</time>
      </trkpt>
      <trkpt lat="43.37974" lon="5.84227">
        <ele>508.19</ele>
        <time>2019-01-27T10:48:23Z</time>
      </trkpt>
      <trkpt lat="43.37975" lon="5.84228">
        <ele>507.71</ele>
        <time>2019-01-27T10:48:44Z</time>
      </trkpt>
      <trkpt lat="43.3798" lon="5.84226">
        <ele>506.75</ele>
        <time>2019-01-27T10:48:56Z</time>
      </trkpt>
      <trkpt lat="43.37988" lon="5.84228">
        <ele>505.79</ele>
        <time>2019-01-27T10:49:04Z</time>
      </trkpt>
      <trkpt lat="43.37996" lon="5.84231">
        <ele>504.83</ele>
        <time>2019-01-27T10:49:15Z</time>
      </trkpt>
      <trkpt lat="43.37997" lon="5.84231">
        <ele>504.83</ele>
        <time>2019-01-27T10:49:16Z</time>
      </trkpt>
      <trkpt lat="43.37999" lon="5.84231">
        <ele>504.83</ele>
        <time>2019-01-27T10:49:17Z</time>
      </trkpt>
      <trkpt lat="43.38" lon="5.84231">
        <ele>503.87</ele>
        <time>2019-01-27T10:49:18Z</time>
      </trkpt>
      <trkpt lat="43.38008" lon="5.84234">
        <ele>502.43</ele>
        <time>2019-01-27T10:49:28Z</time>
      </trkpt>
      <trkpt lat="43.38012" lon="5.84232">
        <ele>501.46</ele>
        <time>2019-01-27T10:49:40Z</time>
      </trkpt>
      <trkpt lat="43.38016" lon="5.84233">
        <ele>500.98</ele>
        <time>2019-01-27T10:49:44Z</time>
      </trkpt>
      <trkpt lat="43.38019" lon="5.84232">
        <ele>500.5</ele>
        <time>2019-01-27T10:49:47Z</time>
      </trkpt>
      <trkpt lat="43.38025" lon="5.8423">
        <ele>498.58</ele>
        <time>2019-01-27T10:49:56Z</time>
      </trkpt>
      <trkpt lat="43.38032" lon="5.84227">
        <ele>495.7</ele>
        <time>2019-01-27T10:50:09Z</time>
      </trkpt>
      <trkpt lat="43.38038" lon="5.84226">
        <ele>494.26</ele>
        <time>2019-01-27T10:50:18Z</time>
      </trkpt>
      <trkpt lat="43.38047" lon="5.84227">
        <ele>492.33</ele>
        <time>2019-01-27T10:50:31Z</time>
      </trkpt>
      <trkpt lat="43.38054" lon="5.84225">
        <ele>490.41</ele>
        <time>2019-01-27T10:50:45Z</time>
      </trkpt>
      <trkpt lat="43.38056" lon="5.84221">
        <ele>490.41</ele>
        <time>2019-01-27T10:51:03Z</time>
      </trkpt>
      <trkpt lat="43.38054" lon="5.84221">
        <ele>490.41</ele>
        <time>2019-01-27T10:51:35Z</time>
      </trkpt>
      <trkpt lat="43.38061" lon="5.84224">
        <ele>489.45</ele>
        <time>2019-01-27T10:51:48Z</time>
      </trkpt>
      <trkpt lat="43.38062" lon="5.84224">
        <ele>489.45</ele>
        <time>2019-01-27T10:51:49Z</time>
      </trkpt>
      <trkpt lat="43.38075" lon="5.84225">
        <ele>487.05</ele>
        <time>2019-01-27T10:52:02Z</time>
      </trkpt>
      <trkpt lat="43.38081" lon="5.84219">
        <ele>484.64</ele>
        <time>2019-01-27T10:52:14Z</time>
      </trkpt>
      <trkpt lat="43.38086" lon="5.84214">
        <ele>482.24</ele>
        <time>2019-01-27T10:52:22Z</time>
      </trkpt>
      <trkpt lat="43.38089" lon="5.84213">
        <ele>482.24</ele>
        <time>2019-01-27T10:52:27Z</time>
      </trkpt>
      <trkpt lat="43.38092" lon="5.84213">
        <ele>481.76</ele>
        <time>2019-01-27T10:52:30Z</time>
      </trkpt>
      <trkpt lat="43.38093" lon="5.84213">
        <ele>481.28</ele>
        <time>2019-01-27T10:52:31Z</time>
      </trkpt>
      <trkpt lat="43.38101" lon="5.84218">
        <ele>479.35</ele>
        <time>2019-01-27T10:52:44Z</time>
      </trkpt>
      <trkpt lat="43.38105" lon="5.84222">
        <ele>478.39</ele>
        <time>2019-01-27T10:52:50Z</time>
      </trkpt>
      <trkpt lat="43.38109" lon="5.84226">
        <ele>477.43</ele>
        <time>2019-01-27T10:52:56Z</time>
      </trkpt>
      <trkpt lat="43.38114" lon="5.8423">
        <ele>476.47</ele>
        <time>2019-01-27T10:53:03Z</time>
      </trkpt>
      <trkpt lat="43.38123" lon="5.84237">
        <ele>475.03</ele>
        <time>2019-01-27T10:53:15Z</time>
      </trkpt>
      <trkpt lat="43.38126" lon="5.84241">
        <ele>474.55</ele>
        <time>2019-01-27T10:53:28Z</time>
      </trkpt>
      <trkpt lat="43.38124" lon="5.84241">
        <ele>474.07</ele>
        <time>2019-01-27T10:53:52Z</time>
      </trkpt>
      <trkpt lat="43.38127" lon="5.84238">
        <ele>474.07</ele>
        <time>2019-01-27T10:54:19Z</time>
      </trkpt>
      <trkpt lat="43.38125" lon="5.84238">
        <ele>474.07</ele>
        <time>2019-01-27T10:54:50Z</time>
      </trkpt>
      <trkpt lat="43.38125" lon="5.84239">
        <ele>474.07</ele>
        <time>2019-01-27T10:55:19Z</time>
      </trkpt>
      <trkpt lat="43.38127" lon="5.8424">
        <ele>474.07</ele>
        <time>2019-01-27T10:55:30Z</time>
      </trkpt>
      <trkpt lat="43.38129" lon="5.84243">
        <ele>474.07</ele>
        <time>2019-01-27T10:55:33Z</time>
      </trkpt>
      <trkpt lat="43.38131" lon="5.84244">
        <ele>474.07</ele>
        <time>2019-01-27T10:55:34Z</time>
      </trkpt>
      <trkpt lat="43.38132" lon="5.84246">
        <ele>474.07</ele>
        <time>2019-01-27T10:55:35Z</time>
      </trkpt>
      <trkpt lat="43.3816" lon="5.84268">
        <ele>471.66</ele>
        <time>2019-01-27T10:55:47Z</time>
      </trkpt>
      <trkpt lat="43.38188" lon="5.84274">
        <ele>470.22</ele>
        <time>2019-01-27T10:55:58Z</time>
      </trkpt>
      <trkpt lat="43.38201" lon="5.84276">
        <ele>466.86</ele>
        <time>2019-01-27T10:56:10Z</time>
      </trkpt>
      <trkpt lat="43.38233" lon="5.84296">
        <ele>465.9</ele>
        <time>2019-01-27T10:56:20Z</time>
      </trkpt>
      <trkpt lat="43.38253" lon="5.8431">
        <ele>465.42</ele>
        <time>2019-01-27T10:56:30Z</time>
      </trkpt>
      <trkpt lat="43.38261" lon="5.84316">
        <ele>465.9</ele>
        <time>2019-01-27T10:56:41Z</time>
      </trkpt>
      <trkpt lat="43.38265" lon="5.84318">
        <ele>465.9</ele>
        <time>2019-01-27T10:56:45Z</time>
      </trkpt>
      <trkpt lat="43.38267" lon="5.84319">
        <ele>465.9</ele>
        <time>2019-01-27T10:56:47Z</time>
      </trkpt>
      <trkpt lat="43.38268" lon="5.84319">
        <ele>464.93</ele>
        <time>2019-01-27T10:56:48Z</time>
      </trkpt>
      <trkpt lat="43.38272" lon="5.8432">
        <ele>463.97</ele>
        <time>2019-01-27T10:56:50Z</time>
      </trkpt>
      <trkpt lat="43.38286" lon="5.84324">
        <ele>461.57</ele>
        <time>2019-01-27T10:57:01Z</time>
      </trkpt>
      <trkpt lat="43.38299" lon="5.84329">
        <ele>459.65</ele>
        <time>2019-01-27T10:57:06Z</time>
      </trkpt>
      <trkpt lat="43.38304" lon="5.84332">
        <ele>459.65</ele>
        <time>2019-01-27T10:57:08Z</time>
      </trkpt>
      <trkpt lat="43.38318" lon="5.84361">
        <ele>455.8</ele>
        <time>2019-01-27T10:57:20Z</time>
      </trkpt>
      <trkpt lat="43.38327" lon="5.84369">
        <ele>455.32</ele>
        <time>2019-01-27T10:57:26Z</time>
      </trkpt>
      <trkpt lat="43.38342" lon="5.84381">
        <ele>452.44</ele>
        <time>2019-01-27T10:57:31Z</time>
      </trkpt>
      <trkpt lat="43.38365" lon="5.8443">
        <ele>451.48</ele>
        <time>2019-01-27T10:57:43Z</time>
      </trkpt>
      <trkpt lat="43.38375" lon="5.84452">
        <ele>448.11</ele>
        <time>2019-01-27T10:57:53Z</time>
      </trkpt>
      <trkpt lat="43.3838" lon="5.84459">
        <ele>446.67</ele>
        <time>2019-01-27T10:57:57Z</time>
      </trkpt>
      <trkpt lat="43.38382" lon="5.84462">
        <ele>446.67</ele>
        <time>2019-01-27T10:57:59Z</time>
      </trkpt>
      <trkpt lat="43.38383" lon="5.84464">
        <ele>446.67</ele>
        <time>2019-01-27T10:58:00Z</time>
      </trkpt>
      <trkpt lat="43.38383" lon="5.84466">
        <ele>445.23</ele>
        <time>2019-01-27T10:58:01Z</time>
      </trkpt>
      <trkpt lat="43.38384" lon="5.84468">
        <ele>444.27</ele>
        <time>2019-01-27T10:58:02Z</time>
      </trkpt>
      <trkpt lat="43.38386" lon="5.8447">
        <ele>444.27</ele>
        <time>2019-01-27T10:58:03Z</time>
      </trkpt>
      <trkpt lat="43.38387" lon="5.84472">
        <ele>444.27</ele>
        <time>2019-01-27T10:58:04Z</time>
      </trkpt>
      <trkpt lat="43.3839" lon="5.84475">
        <ele>444.27</ele>
        <time>2019-01-27T10:58:05Z</time>
      </trkpt>
      <trkpt lat="43.38432" lon="5.84518">
        <ele>443.31</ele>
        <time>2019-01-27T10:58:18Z</time>
      </trkpt>
      <trkpt lat="43.38488" lon="5.84545">
        <ele>445.23</ele>
        <time>2019-01-27T10:58:31Z</time>
      </trkpt>
      <trkpt lat="43.38528" lon="5.84558">
        <ele>446.19</ele>
        <time>2019-01-27T10:58:45Z</time>
      </trkpt>
      <trkpt lat="43.38553" lon="5.84575">
        <ele>446.19</ele>
        <time>2019-01-27T10:58:59Z</time>
      </trkpt>
      <trkpt lat="43.38566" lon="5.846">
        <ele>448.11</ele>
        <time>2019-01-27T10:59:15Z</time>
      </trkpt>
      <trkpt lat="43.38575" lon="5.84611">
        <ele>448.59</ele>
        <time>2019-01-27T10:59:28Z</time>
      </trkpt>
      <trkpt lat="43.38587" lon="5.84623">
        <ele>449.55</ele>
        <time>2019-01-27T10:59:41Z</time>
      </trkpt>
      <trkpt lat="43.38613" lon="5.84653">
        <ele>450.03</ele>
        <time>2019-01-27T10:59:58Z</time>
      </trkpt>
      <trkpt lat="43.38637" lon="5.84684">
        <ele>451</ele>
        <time>2019-01-27T11:00:13Z</time>
      </trkpt>
      <trkpt lat="43.38663" lon="5.84724">
        <ele>449.55</ele>
        <time>2019-01-27T11:00:29Z</time>
      </trkpt>
      <trkpt lat="43.38702" lon="5.84771">
        <ele>446.19</ele>
        <time>2019-01-27T11:00:44Z</time>
      </trkpt>
      <trkpt lat="43.3872" lon="5.84793">
        <ele>442.82</ele>
        <time>2019-01-27T11:00:54Z</time>
      </trkpt>
      <trkpt lat="43.38731" lon="5.84806">
        <ele>439.46</ele>
        <time>2019-01-27T11:01:01Z</time>
      </trkpt>
      <trkpt lat="43.38741" lon="5.84822">
        <ele>436.58</ele>
        <time>2019-01-27T11:01:08Z</time>
      </trkpt>
      <trkpt lat="43.38745" lon="5.84829">
        <ele>436.1</ele>
        <time>2019-01-27T11:01:12Z</time>
      </trkpt>
      <trkpt lat="43.38749" lon="5.8483">
        <ele>434.65</ele>
        <time>2019-01-27T11:01:15Z</time>
      </trkpt>
      <trkpt lat="43.38755" lon="5.84837">
        <ele>434.65</ele>
        <time>2019-01-27T11:01:19Z</time>
      </trkpt>
      <trkpt lat="43.38757" lon="5.84837">
        <ele>434.65</ele>
        <time>2019-01-27T11:01:20Z</time>
      </trkpt>
      <trkpt lat="43.38759" lon="5.84837">
        <ele>433.69</ele>
        <time>2019-01-27T11:01:21Z</time>
      </trkpt>
      <trkpt lat="43.3876" lon="5.84837">
        <ele>433.21</ele>
        <time>2019-01-27T11:01:22Z</time>
      </trkpt>
      <trkpt lat="43.38762" lon="5.84838">
        <ele>432.73</ele>
        <time>2019-01-27T11:01:23Z</time>
      </trkpt>
      <trkpt lat="43.38764" lon="5.84839">
        <ele>432.25</ele>
        <time>2019-01-27T11:01:24Z</time>
      </trkpt>
      <trkpt lat="43.38765" lon="5.8484">
        <ele>432.25</ele>
        <time>2019-01-27T11:01:25Z</time>
      </trkpt>
      <trkpt lat="43.38778" lon="5.84858">
        <ele>428.4</ele>
        <time>2019-01-27T11:01:33Z</time>
      </trkpt>
      <trkpt lat="43.38786" lon="5.84879">
        <ele>425.52</ele>
        <time>2019-01-27T11:01:38Z</time>
      </trkpt>
      <trkpt lat="43.38791" lon="5.84902">
        <ele>422.64</ele>
        <time>2019-01-27T11:01:42Z</time>
      </trkpt>
      <trkpt lat="43.38796" lon="5.84925">
        <ele>419.27</ele>
        <time>2019-01-27T11:01:46Z</time>
      </trkpt>
      <trkpt lat="43.38801" lon="5.84947">
        <ele>415.91</ele>
        <time>2019-01-27T11:01:49Z</time>
      </trkpt>
      <trkpt lat="43.38803" lon="5.84955">
        <ele>415.91</ele>
        <time>2019-01-27T11:01:50Z</time>
      </trkpt>
      <trkpt lat="43.38808" lon="5.84988">
        <ele>412.54</ele>
        <time>2019-01-27T11:01:54Z</time>
      </trkpt>
      <trkpt lat="43.38815" lon="5.8503">
        <ele>410.14</ele>
        <time>2019-01-27T11:01:59Z</time>
      </trkpt>
      <trkpt lat="43.38818" lon="5.85037">
        <ele>409.18</ele>
        <time>2019-01-27T11:02:00Z</time>
      </trkpt>
      <trkpt lat="43.38821" lon="5.85045">
        <ele>408.22</ele>
        <time>2019-01-27T11:02:01Z</time>
      </trkpt>
      <trkpt lat="43.38824" lon="5.85054">
        <ele>408.22</ele>
        <time>2019-01-27T11:02:02Z</time>
      </trkpt>
      <trkpt lat="43.38828" lon="5.8508">
        <ele>405.81</ele>
        <time>2019-01-27T11:02:05Z</time>
      </trkpt>
      <trkpt lat="43.38828" lon="5.85094">
        <ele>404.37</ele>
        <time>2019-01-27T11:02:07Z</time>
      </trkpt>
      <trkpt lat="43.3883" lon="5.851">
        <ele>402.93</ele>
        <time>2019-01-27T11:02:09Z</time>
      </trkpt>
      <trkpt lat="43.38832" lon="5.85101">
        <ele>402.45</ele>
        <time>2019-01-27T11:02:10Z</time>
      </trkpt>
      <trkpt lat="43.38833" lon="5.85103">
        <ele>401.97</ele>
        <time>2019-01-27T11:02:11Z</time>
      </trkpt>
      <trkpt lat="43.3884" lon="5.85111">
        <ele>401.49</ele>
        <time>2019-01-27T11:02:13Z</time>
      </trkpt>
      <trkpt lat="43.3885" lon="5.85119">
        <ele>400.53</ele>
        <time>2019-01-27T11:02:15Z</time>
      </trkpt>
      <trkpt lat="43.38856" lon="5.8512">
        <ele>399.57</ele>
        <time>2019-01-27T11:02:16Z</time>
      </trkpt>
      <trkpt lat="43.38865" lon="5.85118">
        <ele>398.6</ele>
        <time>2019-01-27T11:02:18Z</time>
      </trkpt>
      <trkpt lat="43.38871" lon="5.85118">
        <ele>398.12</ele>
        <time>2019-01-27T11:02:19Z</time>
      </trkpt>
      <trkpt lat="43.38916" lon="5.85115">
        <ele>394.76</ele>
        <time>2019-01-27T11:02:26Z</time>
      </trkpt>
      <trkpt lat="43.38938" lon="5.8512">
        <ele>390.91</ele>
        <time>2019-01-27T11:02:31Z</time>
      </trkpt>
      <trkpt lat="43.38961" lon="5.85127">
        <ele>388.99</ele>
        <time>2019-01-27T11:02:41Z</time>
      </trkpt>
      <trkpt lat="43.38993" lon="5.85132">
        <ele>386.59</ele>
        <time>2019-01-27T11:02:46Z</time>
      </trkpt>
      <trkpt lat="43.39025" lon="5.85133">
        <ele>383.22</ele>
        <time>2019-01-27T11:02:51Z</time>
      </trkpt>
      <trkpt lat="43.39042" lon="5.85133">
        <ele>381.78</ele>
        <time>2019-01-27T11:02:54Z</time>
      </trkpt>
      <trkpt lat="43.39062" lon="5.85133">
        <ele>380.34</ele>
        <time>2019-01-27T11:02:57Z</time>
      </trkpt>
      <trkpt lat="43.39115" lon="5.85128">
        <ele>377.94</ele>
        <time>2019-01-27T11:03:04Z</time>
      </trkpt>
      <trkpt lat="43.39149" lon="5.85124">
        <ele>375.05</ele>
        <time>2019-01-27T11:03:10Z</time>
      </trkpt>
      <trkpt lat="43.3916" lon="5.85123">
        <ele>373.61</ele>
        <time>2019-01-27T11:03:12Z</time>
      </trkpt>
      <trkpt lat="43.39165" lon="5.85124">
        <ele>373.61</ele>
        <time>2019-01-27T11:03:13Z</time>
      </trkpt>
      <trkpt lat="43.39204" lon="5.85121">
        <ele>370.73</ele>
        <time>2019-01-27T11:03:20Z</time>
      </trkpt>
      <trkpt lat="43.39208" lon="5.8512">
        <ele>370.73</ele>
        <time>2019-01-27T11:03:21Z</time>
      </trkpt>
      <trkpt lat="43.39261" lon="5.85118">
        <ele>367.36</ele>
        <time>2019-01-27T11:03:36Z</time>
      </trkpt>
      <trkpt lat="43.39272" lon="5.85108">
        <ele>366.88</ele>
        <time>2019-01-27T11:03:41Z</time>
      </trkpt>
      <trkpt lat="43.39303" lon="5.85099">
        <ele>364.48</ele>
        <time>2019-01-27T11:03:48Z</time>
      </trkpt>
      <trkpt lat="43.39308" lon="5.85099">
        <ele>364.48</ele>
        <time>2019-01-27T11:03:49Z</time>
      </trkpt>
      <trkpt lat="43.39321" lon="5.85102">
        <ele>364.48</ele>
        <time>2019-01-27T11:03:51Z</time>
      </trkpt>
      <trkpt lat="43.39327" lon="5.85102">
        <ele>364.48</ele>
        <time>2019-01-27T11:03:52Z</time>
      </trkpt>
      <trkpt lat="43.3934" lon="5.85102">
        <ele>364.48</ele>
        <time>2019-01-27T11:03:54Z</time>
      </trkpt>
      <trkpt lat="43.39378" lon="5.85107">
        <ele>364.48</ele>
        <time>2019-01-27T11:04:04Z</time>
      </trkpt>
      <trkpt lat="43.39386" lon="5.8511">
        <ele>364.48</ele>
        <time>2019-01-27T11:04:07Z</time>
      </trkpt>
      <trkpt lat="43.39387" lon="5.85113">
        <ele>364</ele>
        <time>2019-01-27T11:04:08Z</time>
      </trkpt>
      <trkpt lat="43.39388" lon="5.85117">
        <ele>364</ele>
        <time>2019-01-27T11:04:09Z</time>
      </trkpt>
      <trkpt lat="43.39388" lon="5.85121">
        <ele>364</ele>
        <time>2019-01-27T11:04:10Z</time>
      </trkpt>
      <trkpt lat="43.39389" lon="5.85126">
        <ele>364</ele>
        <time>2019-01-27T11:04:11Z</time>
      </trkpt>
      <trkpt lat="43.39388" lon="5.85131">
        <ele>364</ele>
        <time>2019-01-27T11:04:12Z</time>
      </trkpt>
      <trkpt lat="43.39386" lon="5.85232">
        <ele>364.96</ele>
        <time>2019-01-27T11:04:29Z</time>
      </trkpt>
      <trkpt lat="43.39386" lon="5.85245">
        <ele>364.96</ele>
        <time>2019-01-27T11:04:31Z</time>
      </trkpt>
      <trkpt lat="43.39383" lon="5.85314">
        <ele>365.92</ele>
        <time>2019-01-27T11:04:43Z</time>
      </trkpt>
      <trkpt lat="43.39379" lon="5.85386">
        <ele>366.4</ele>
        <time>2019-01-27T11:04:53Z</time>
      </trkpt>
      <trkpt lat="43.39384" lon="5.85492">
        <ele>365.92</ele>
        <time>2019-01-27T11:05:08Z</time>
      </trkpt>
      <trkpt lat="43.3939" lon="5.85624">
        <ele>365.92</ele>
        <time>2019-01-27T11:05:24Z</time>
      </trkpt>
      <trkpt lat="43.39392" lon="5.8566">
        <ele>364.48</ele>
        <time>2019-01-27T11:05:28Z</time>
      </trkpt>
      <trkpt lat="43.39393" lon="5.85854">
        <ele>364</ele>
        <time>2019-01-27T11:05:47Z</time>
      </trkpt>
      <trkpt lat="43.39404" lon="5.85995">
        <ele>360.63</ele>
        <time>2019-01-27T11:05:59Z</time>
      </trkpt>
      <trkpt lat="43.39439" lon="5.86175">
        <ele>357.75</ele>
        <time>2019-01-27T11:06:14Z</time>
      </trkpt>
      <trkpt lat="43.39499" lon="5.86316">
        <ele>356.31</ele>
        <time>2019-01-27T11:06:27Z</time>
      </trkpt>
      <trkpt lat="43.39518" lon="5.86417">
        <ele>353.42</ele>
        <time>2019-01-27T11:06:36Z</time>
      </trkpt>
      <trkpt lat="43.39517" lon="5.86427">
        <ele>353.42</ele>
        <time>2019-01-27T11:06:37Z</time>
      </trkpt>
      <trkpt lat="43.39515" lon="5.86439">
        <ele>353.9</ele>
        <time>2019-01-27T11:06:38Z</time>
      </trkpt>
      <trkpt lat="43.39469" lon="5.86611">
        <ele>351.02</ele>
        <time>2019-01-27T11:06:54Z</time>
      </trkpt>
      <trkpt lat="43.39459" lon="5.86747">
        <ele>350.06</ele>
        <time>2019-01-27T11:07:07Z</time>
      </trkpt>
      <trkpt lat="43.39492" lon="5.86907">
        <ele>349.1</ele>
        <time>2019-01-27T11:07:24Z</time>
      </trkpt>
      <trkpt lat="43.39524" lon="5.87079">
        <ele>347.65</ele>
        <time>2019-01-27T11:07:42Z</time>
      </trkpt>
      <trkpt lat="43.39577" lon="5.87262">
        <ele>346.69</ele>
        <time>2019-01-27T11:08:01Z</time>
      </trkpt>
      <trkpt lat="43.3963" lon="5.87463">
        <ele>345.73</ele>
        <time>2019-01-27T11:08:22Z</time>
      </trkpt>
      <trkpt lat="43.39673" lon="5.87625">
        <ele>345.25</ele>
        <time>2019-01-27T11:08:39Z</time>
      </trkpt>
      <trkpt lat="43.39721" lon="5.87802">
        <ele>345.25</ele>
        <time>2019-01-27T11:08:58Z</time>
      </trkpt>
      <trkpt lat="43.39751" lon="5.87917">
        <ele>346.21</ele>
        <time>2019-01-27T11:09:11Z</time>
      </trkpt>
      <trkpt lat="43.39779" lon="5.88027">
        <ele>349.1</ele>
        <time>2019-01-27T11:09:26Z</time>
      </trkpt>
      <trkpt lat="43.39814" lon="5.88158">
        <ele>351.02</ele>
        <time>2019-01-27T11:09:43Z</time>
      </trkpt>
      <trkpt lat="43.39841" lon="5.88301">
        <ele>351.5</ele>
        <time>2019-01-27T11:10:01Z</time>
      </trkpt>
      <trkpt lat="43.39852" lon="5.88385">
        <ele>348.13</ele>
        <time>2019-01-27T11:10:11Z</time>
      </trkpt>
      <trkpt lat="43.39854" lon="5.88393">
        <ele>348.13</ele>
        <time>2019-01-27T11:10:12Z</time>
      </trkpt>
      <trkpt lat="43.39857" lon="5.88401">
        <ele>348.13</ele>
        <time>2019-01-27T11:10:13Z</time>
      </trkpt>
      <trkpt lat="43.39862" lon="5.88408">
        <ele>348.13</ele>
        <time>2019-01-27T11:10:14Z</time>
      </trkpt>
      <trkpt lat="43.39868" lon="5.88412">
        <ele>348.13</ele>
        <time>2019-01-27T11:10:15Z</time>
      </trkpt>
      <trkpt lat="43.39874" lon="5.88414">
        <ele>348.13</ele>
        <time>2019-01-27T11:10:16Z</time>
      </trkpt>
      <trkpt lat="43.39879" lon="5.88414">
        <ele>348.13</ele>
        <time>2019-01-27T11:10:17Z</time>
      </trkpt>
      <trkpt lat="43.39884" lon="5.88413">
        <ele>348.13</ele>
        <time>2019-01-27T11:10:18Z</time>
      </trkpt>
      <trkpt lat="43.3989" lon="5.88412">
        <ele>348.13</ele>
        <time>2019-01-27T11:10:19Z</time>
      </trkpt>
      <trkpt lat="43.39895" lon="5.88411">
        <ele>349.58</ele>
        <time>2019-01-27T11:10:20Z</time>
      </trkpt>
      <trkpt lat="43.39899" lon="5.8841">
        <ele>349.58</ele>
        <time>2019-01-27T11:10:21Z</time>
      </trkpt>
      <trkpt lat="43.39908" lon="5.88407">
        <ele>349.58</ele>
        <time>2019-01-27T11:10:23Z</time>
      </trkpt>
      <trkpt lat="43.39913" lon="5.88405">
        <ele>349.58</ele>
        <time>2019-01-27T11:10:24Z</time>
      </trkpt>
      <trkpt lat="43.39917" lon="5.88403">
        <ele>349.58</ele>
        <time>2019-01-27T11:10:25Z</time>
      </trkpt>
      <trkpt lat="43.39921" lon="5.88399">
        <ele>349.58</ele>
        <time>2019-01-27T11:10:26Z</time>
      </trkpt>
      <trkpt lat="43.39924" lon="5.88395">
        <ele>349.58</ele>
        <time>2019-01-27T11:10:27Z</time>
      </trkpt>
      <trkpt lat="43.39928" lon="5.8839">
        <ele>349.58</ele>
        <time>2019-01-27T11:10:28Z</time>
      </trkpt>
      <trkpt lat="43.39959" lon="5.88332">
        <ele>347.65</ele>
        <time>2019-01-27T11:10:38Z</time>
      </trkpt>
      <trkpt lat="43.40022" lon="5.88247">
        <ele>346.69</ele>
        <time>2019-01-27T11:10:52Z</time>
      </trkpt>
      <trkpt lat="43.40102" lon="5.88165">
        <ele>345.25</ele>
        <time>2019-01-27T11:11:09Z</time>
      </trkpt>
      <trkpt lat="43.40174" lon="5.88095">
        <ele>344.29</ele>
        <time>2019-01-27T11:11:24Z</time>
      </trkpt>
      <trkpt lat="43.4023" lon="5.88021">
        <ele>343.33</ele>
        <time>2019-01-27T11:11:37Z</time>
      </trkpt>
      <trkpt lat="43.40286" lon="5.87944">
        <ele>341.89</ele>
        <time>2019-01-27T11:11:50Z</time>
      </trkpt>
      <trkpt lat="43.40298" lon="5.87918">
        <ele>341.89</ele>
        <time>2019-01-27T11:11:54Z</time>
      </trkpt>
      <trkpt lat="43.40303" lon="5.87906">
        <ele>341.41</ele>
        <time>2019-01-27T11:11:56Z</time>
      </trkpt>
      <trkpt lat="43.40323" lon="5.8783">
        <ele>342.85</ele>
        <time>2019-01-27T11:12:11Z</time>
      </trkpt>
      <trkpt lat="43.40335" lon="5.87776">
        <ele>345.25</ele>
        <time>2019-01-27T11:12:22Z</time>
      </trkpt>
      <trkpt lat="43.40334" lon="5.87703">
        <ele>344.29</ele>
        <time>2019-01-27T11:12:37Z</time>
      </trkpt>
      <trkpt lat="43.40326" lon="5.8764">
        <ele>343.81</ele>
        <time>2019-01-27T11:12:50Z</time>
      </trkpt>
      <trkpt lat="43.40316" lon="5.87559">
        <ele>345.73</ele>
        <time>2019-01-27T11:13:08Z</time>
      </trkpt>
      <trkpt lat="43.40306" lon="5.87481">
        <ele>345.25</ele>
        <time>2019-01-27T11:13:24Z</time>
      </trkpt>
      <trkpt lat="43.40301" lon="5.87447">
        <ele>344.29</ele>
        <time>2019-01-27T11:13:31Z</time>
      </trkpt>
      <trkpt lat="43.40293" lon="5.87357">
        <ele>345.73</ele>
        <time>2019-01-27T11:13:49Z</time>
      </trkpt>
      <trkpt lat="43.4029" lon="5.8728">
        <ele>345.25</ele>
        <time>2019-01-27T11:14:04Z</time>
      </trkpt>
      <trkpt lat="43.40289" lon="5.87248">
        <ele>346.21</ele>
        <time>2019-01-27T11:14:10Z</time>
      </trkpt>
      <trkpt lat="43.40286" lon="5.87148">
        <ele>344.29</ele>
        <time>2019-01-27T11:14:28Z</time>
      </trkpt>
      <trkpt lat="43.40283" lon="5.87042">
        <ele>345.25</ele>
        <time>2019-01-27T11:14:47Z</time>
      </trkpt>
      <trkpt lat="43.40282" lon="5.87008">
        <ele>343.81</ele>
        <time>2019-01-27T11:14:53Z</time>
      </trkpt>
      <trkpt lat="43.4028" lon="5.86935">
        <ele>345.73</ele>
        <time>2019-01-27T11:15:08Z</time>
      </trkpt>
      <trkpt lat="43.40297" lon="5.8684">
        <ele>345.25</ele>
        <time>2019-01-27T11:15:25Z</time>
      </trkpt>
      <trkpt lat="43.40322" lon="5.86755">
        <ele>345.73</ele>
        <time>2019-01-27T11:15:41Z</time>
      </trkpt>
      <trkpt lat="43.40354" lon="5.86686">
        <ele>344.77</ele>
        <time>2019-01-27T11:15:56Z</time>
      </trkpt>
      <trkpt lat="43.40396" lon="5.86621">
        <ele>343.33</ele>
        <time>2019-01-27T11:16:11Z</time>
      </trkpt>
      <trkpt lat="43.4043" lon="5.86577">
        <ele>343.33</ele>
        <time>2019-01-27T11:16:21Z</time>
      </trkpt>
      <trkpt lat="43.40441" lon="5.86558">
        <ele>343.33</ele>
        <time>2019-01-27T11:16:25Z</time>
      </trkpt>
      <trkpt lat="43.40442" lon="5.86539">
        <ele>343.33</ele>
        <time>2019-01-27T11:16:33Z</time>
      </trkpt>
      <trkpt lat="43.40443" lon="5.86537">
        <ele>342.85</ele>
        <time>2019-01-27T11:16:46Z</time>
      </trkpt>
      <trkpt lat="43.40446" lon="5.86537">
        <ele>342.85</ele>
        <time>2019-01-27T11:16:50Z</time>
      </trkpt>
      <trkpt lat="43.40462" lon="5.86521">
        <ele>344.29</ele>
        <time>2019-01-27T11:17:02Z</time>
      </trkpt>
      <trkpt lat="43.40464" lon="5.86519">
        <ele>344.29</ele>
        <time>2019-01-27T11:17:03Z</time>
      </trkpt>
      <trkpt lat="43.40482" lon="5.86504">
        <ele>344.77</ele>
        <time>2019-01-27T11:17:16Z</time>
      </trkpt>
      <trkpt lat="43.40482" lon="5.86502">
        <ele>345.25</ele>
        <time>2019-01-27T11:17:26Z</time>
      </trkpt>
      <trkpt lat="43.40481" lon="5.86503">
        <ele>345.25</ele>
        <time>2019-01-27T11:17:41Z</time>
      </trkpt>
      <trkpt lat="43.40494" lon="5.86486">
        <ele>344.29</ele>
        <time>2019-01-27T11:17:56Z</time>
      </trkpt>
      <trkpt lat="43.40511" lon="5.86464">
        <ele>343.81</ele>
        <time>2019-01-27T11:18:14Z</time>
      </trkpt>
      <trkpt lat="43.40525" lon="5.86446">
        <ele>343.81</ele>
        <time>2019-01-27T11:18:30Z</time>
      </trkpt>
      <trkpt lat="43.40539" lon="5.86428">
        <ele>343.81</ele>
        <time>2019-01-27T11:18:47Z</time>
      </trkpt>
      <trkpt lat="43.40544" lon="5.86422">
        <ele>343.33</ele>
        <time>2019-01-27T11:18:53Z</time>
      </trkpt>
      <trkpt lat="43.40557" lon="5.86406">
        <ele>343.33</ele>
        <time>2019-01-27T11:19:10Z</time>
      </trkpt>
      <trkpt lat="43.4057" lon="5.86392">
        <ele>343.33</ele>
        <time>2019-01-27T11:19:24Z</time>
      </trkpt>
      <trkpt lat="43.40577" lon="5.86384">
        <ele>343.33</ele>
        <time>2019-01-27T11:19:35Z</time>
      </trkpt>
      <trkpt lat="43.40588" lon="5.86369">
        <ele>344.77</ele>
        <time>2019-01-27T11:19:50Z</time>
      </trkpt>
      <trkpt lat="43.40595" lon="5.8636">
        <ele>344.77</ele>
        <time>2019-01-27T11:20:02Z</time>
      </trkpt>
      <trkpt lat="43.40605" lon="5.86344">
        <ele>344.77</ele>
        <time>2019-01-27T11:20:16Z</time>
      </trkpt>
      <trkpt lat="43.40613" lon="5.86329">
        <ele>344.77</ele>
        <time>2019-01-27T11:20:31Z</time>
      </trkpt>
      <trkpt lat="43.40622" lon="5.86319">
        <ele>344.77</ele>
        <time>2019-01-27T11:20:44Z</time>
      </trkpt>
      <trkpt lat="43.40624" lon="5.86317">
        <ele>344.77</ele>
        <time>2019-01-27T11:20:48Z</time>
      </trkpt>
      <trkpt lat="43.40638" lon="5.86295">
        <ele>344.29</ele>
        <time>2019-01-27T11:21:03Z</time>
      </trkpt>
      <trkpt lat="43.40645" lon="5.86285">
        <ele>344.29</ele>
        <time>2019-01-27T11:21:09Z</time>
      </trkpt>
      <trkpt lat="43.4065" lon="5.86277">
        <ele>344.29</ele>
        <time>2019-01-27T11:21:13Z</time>
      </trkpt>
      <trkpt lat="43.40675" lon="5.86234">
        <ele>344.29</ele>
        <time>2019-01-27T11:21:29Z</time>
      </trkpt>
      <trkpt lat="43.40699" lon="5.86188">
        <ele>344.29</ele>
        <time>2019-01-27T11:21:42Z</time>
      </trkpt>
      <trkpt lat="43.4073" lon="5.86129">
        <ele>344.29</ele>
        <time>2019-01-27T11:21:56Z</time>
      </trkpt>
      <trkpt lat="43.40771" lon="5.86061">
        <ele>344.29</ele>
        <time>2019-01-27T11:22:13Z</time>
      </trkpt>
      <trkpt lat="43.40802" lon="5.86014">
        <ele>344.29</ele>
        <time>2019-01-27T11:22:28Z</time>
      </trkpt>
      <trkpt lat="43.40804" lon="5.86006">
        <ele>343.81</ele>
        <time>2019-01-27T11:22:38Z</time>
      </trkpt>
      <trkpt lat="43.40811" lon="5.86002">
        <ele>344.77</ele>
        <time>2019-01-27T11:22:49Z</time>
      </trkpt>
      <trkpt lat="43.40812" lon="5.86">
        <ele>344.77</ele>
        <time>2019-01-27T11:22:56Z</time>
      </trkpt>
      <trkpt lat="43.40816" lon="5.85999">
        <ele>343.33</ele>
        <time>2019-01-27T11:22:58Z</time>
      </trkpt>
      <trkpt lat="43.40818" lon="5.85998">
        <ele>343.33</ele>
        <time>2019-01-27T11:22:59Z</time>
      </trkpt>
      <trkpt lat="43.4082" lon="5.85996">
        <ele>343.33</ele>
        <time>2019-01-27T11:23:00Z</time>
      </trkpt>
      <trkpt lat="43.40822" lon="5.85994">
        <ele>343.33</ele>
        <time>2019-01-27T11:23:01Z</time>
      </trkpt>
      <trkpt lat="43.40825" lon="5.85992">
        <ele>343.33</ele>
        <time>2019-01-27T11:23:02Z</time>
      </trkpt>
      <trkpt lat="43.40872" lon="5.8594">
        <ele>343.33</ele>
        <time>2019-01-27T11:23:20Z</time>
      </trkpt>
      <trkpt lat="43.40939" lon="5.85894">
        <ele>343.33</ele>
        <time>2019-01-27T11:23:38Z</time>
      </trkpt>
      <trkpt lat="43.4101" lon="5.85887">
        <ele>343.33</ele>
        <time>2019-01-27T11:23:54Z</time>
      </trkpt>
      <trkpt lat="43.41087" lon="5.85912">
        <ele>343.33</ele>
        <time>2019-01-27T11:24:10Z</time>
      </trkpt>
      <trkpt lat="43.41171" lon="5.85937">
        <ele>343.33</ele>
        <time>2019-01-27T11:24:28Z</time>
      </trkpt>
      <trkpt lat="43.41252" lon="5.85962">
        <ele>343.33</ele>
        <time>2019-01-27T11:24:46Z</time>
      </trkpt>
      <trkpt lat="43.4133" lon="5.85988">
        <ele>344.77</ele>
        <time>2019-01-27T11:25:03Z</time>
      </trkpt>
      <trkpt lat="43.41384" lon="5.86006">
        <ele>344.77</ele>
        <time>2019-01-27T11:25:15Z</time>
      </trkpt>
      <trkpt lat="43.41439" lon="5.86">
        <ele>344.77</ele>
        <time>2019-01-27T11:25:28Z</time>
      </trkpt>
      <trkpt lat="43.4144" lon="5.85997">
        <ele>344.77</ele>
        <time>2019-01-27T11:25:29Z</time>
      </trkpt>
      <trkpt lat="43.41439" lon="5.85994">
        <ele>344.77</ele>
        <time>2019-01-27T11:25:30Z</time>
      </trkpt>
      <trkpt lat="43.41438" lon="5.85992">
        <ele>344.77</ele>
        <time>2019-01-27T11:25:31Z</time>
      </trkpt>
      <trkpt lat="43.41437" lon="5.85991">
        <ele>344.77</ele>
        <time>2019-01-27T11:25:32Z</time>
      </trkpt>
      <trkpt lat="43.41436" lon="5.8599">
        <ele>344.77</ele>
        <time>2019-01-27T11:25:33Z</time>
      </trkpt>
      <trkpt lat="43.41435" lon="5.85989">
        <ele>344.77</ele>
        <time>2019-01-27T11:25:34Z</time>
      </trkpt>
      <trkpt lat="43.41434" lon="5.85985">
        <ele>343.33</ele>
        <time>2019-01-27T11:25:36Z</time>
      </trkpt>
      <trkpt lat="43.41434" lon="5.85977">
        <ele>343.33</ele>
        <time>2019-01-27T11:25:39Z</time>
      </trkpt>
      <trkpt lat="43.41433" lon="5.85975">
        <ele>343.33</ele>
        <time>2019-01-27T11:25:40Z</time>
      </trkpt>
      <trkpt lat="43.4143" lon="5.8597">
        <ele>342.37</ele>
        <time>2019-01-27T11:25:47Z</time>
      </trkpt>
      <trkpt lat="43.4143" lon="5.85969">
        <ele>342.37</ele>
        <time>2019-01-27T11:25:48Z</time>
      </trkpt>
      <trkpt lat="43.41428" lon="5.85967">
        <ele>342.37</ele>
        <time>2019-01-27T11:25:49Z</time>
      </trkpt>
      <trkpt lat="43.41427" lon="5.85965">
        <ele>342.37</ele>
        <time>2019-01-27T11:25:50Z</time>
      </trkpt>
      <trkpt lat="43.41426" lon="5.85963">
        <ele>342.37</ele>
        <time>2019-01-27T11:25:51Z</time>
      </trkpt>
      <trkpt lat="43.41425" lon="5.8596">
        <ele>341.89</ele>
        <time>2019-01-27T11:25:52Z</time>
      </trkpt>
      <trkpt lat="43.41424" lon="5.85956">
        <ele>341.89</ele>
        <time>2019-01-27T11:25:53Z</time>
      </trkpt>
      <trkpt lat="43.41424" lon="5.85951">
        <ele>340.92</ele>
        <time>2019-01-27T11:25:54Z</time>
      </trkpt>
      <trkpt lat="43.41424" lon="5.85946">
        <ele>340.44</ele>
        <time>2019-01-27T11:25:55Z</time>
      </trkpt>
      <trkpt lat="43.41426" lon="5.85942">
        <ele>339.96</ele>
        <time>2019-01-27T11:25:56Z</time>
      </trkpt>
      <trkpt lat="43.41428" lon="5.85938">
        <ele>339</ele>
        <time>2019-01-27T11:25:57Z</time>
      </trkpt>
      <trkpt lat="43.41431" lon="5.85935">
        <ele>337.56</ele>
        <time>2019-01-27T11:25:58Z</time>
      </trkpt>
      <trkpt lat="43.41435" lon="5.85934">
        <ele>337.56</ele>
        <time>2019-01-27T11:25:59Z</time>
      </trkpt>
      <trkpt lat="43.41439" lon="5.85935">
        <ele>336.6</ele>
        <time>2019-01-27T11:26:00Z</time>
      </trkpt>
      <trkpt lat="43.41446" lon="5.85936">
        <ele>336.12</ele>
        <time>2019-01-27T11:26:01Z</time>
      </trkpt>
      <trkpt lat="43.41479" lon="5.85945">
        <ele>333.71</ele>
        <time>2019-01-27T11:26:05Z</time>
      </trkpt>
      <trkpt lat="43.41515" lon="5.85959">
        <ele>330.83</ele>
        <time>2019-01-27T11:26:10Z</time>
      </trkpt>
      <trkpt lat="43.41547" lon="5.85973">
        <ele>327.47</ele>
        <time>2019-01-27T11:26:16Z</time>
      </trkpt>
      <trkpt lat="43.41552" lon="5.85976">
        <ele>327.47</ele>
        <time>2019-01-27T11:26:17Z</time>
      </trkpt>
      <trkpt lat="43.41562" lon="5.8598">
        <ele>326.5</ele>
        <time>2019-01-27T11:26:19Z</time>
      </trkpt>
      <trkpt lat="43.41567" lon="5.85982">
        <ele>325.06</ele>
        <time>2019-01-27T11:26:20Z</time>
      </trkpt>
      <trkpt lat="43.41572" lon="5.85982">
        <ele>325.54</ele>
        <time>2019-01-27T11:26:21Z</time>
      </trkpt>
      <trkpt lat="43.41577" lon="5.85981">
        <ele>324.1</ele>
        <time>2019-01-27T11:26:22Z</time>
      </trkpt>
      <trkpt lat="43.41582" lon="5.85978">
        <ele>324.1</ele>
        <time>2019-01-27T11:26:23Z</time>
      </trkpt>
      <trkpt lat="43.41586" lon="5.85973">
        <ele>324.1</ele>
        <time>2019-01-27T11:26:24Z</time>
      </trkpt>
      <trkpt lat="43.41589" lon="5.85968">
        <ele>323.62</ele>
        <time>2019-01-27T11:26:25Z</time>
      </trkpt>
      <trkpt lat="43.4159" lon="5.85961">
        <ele>323.62</ele>
        <time>2019-01-27T11:26:26Z</time>
      </trkpt>
      <trkpt lat="43.41589" lon="5.85955">
        <ele>323.62</ele>
        <time>2019-01-27T11:26:27Z</time>
      </trkpt>
      <trkpt lat="43.41589" lon="5.85948">
        <ele>321.22</ele>
        <time>2019-01-27T11:26:28Z</time>
      </trkpt>
      <trkpt lat="43.4159" lon="5.85941">
        <ele>319.78</ele>
        <time>2019-01-27T11:26:29Z</time>
      </trkpt>
      <trkpt lat="43.41591" lon="5.85935">
        <ele>319.3</ele>
        <time>2019-01-27T11:26:30Z</time>
      </trkpt>
      <trkpt lat="43.41593" lon="5.85929">
        <ele>318.33</ele>
        <time>2019-01-27T11:26:31Z</time>
      </trkpt>
      <trkpt lat="43.41596" lon="5.85924">
        <ele>317.85</ele>
        <time>2019-01-27T11:26:32Z</time>
      </trkpt>
      <trkpt lat="43.41599" lon="5.8592">
        <ele>317.37</ele>
        <time>2019-01-27T11:26:33Z</time>
      </trkpt>
      <trkpt lat="43.41615" lon="5.85905">
        <ele>316.89</ele>
        <time>2019-01-27T11:26:44Z</time>
      </trkpt>
      <trkpt lat="43.41622" lon="5.85899">
        <ele>316.89</ele>
        <time>2019-01-27T11:26:56Z</time>
      </trkpt>
      <trkpt lat="43.41624" lon="5.85897">
        <ele>317.85</ele>
        <time>2019-01-27T11:27:03Z</time>
      </trkpt>
      <trkpt lat="43.41626" lon="5.85897">
        <ele>317.85</ele>
        <time>2019-01-27T11:27:04Z</time>
      </trkpt>
      <trkpt lat="43.41627" lon="5.85896">
        <ele>317.85</ele>
        <time>2019-01-27T11:27:05Z</time>
      </trkpt>
      <trkpt lat="43.41629" lon="5.85896">
        <ele>317.85</ele>
        <time>2019-01-27T11:27:06Z</time>
      </trkpt>
      <trkpt lat="43.41631" lon="5.85896">
        <ele>318.33</ele>
        <time>2019-01-27T11:27:07Z</time>
      </trkpt>
      <trkpt lat="43.41632" lon="5.85895">
        <ele>318.33</ele>
        <time>2019-01-27T11:27:08Z</time>
      </trkpt>
      <trkpt lat="43.41644" lon="5.85889">
        <ele>320.26</ele>
        <time>2019-01-27T11:27:16Z</time>
      </trkpt>
      <trkpt lat="43.41664" lon="5.859">
        <ele>322.18</ele>
        <time>2019-01-27T11:27:28Z</time>
      </trkpt>
      <trkpt lat="43.41707" lon="5.85913">
        <ele>324.58</ele>
        <time>2019-01-27T11:27:45Z</time>
      </trkpt>
      <trkpt lat="43.41722" lon="5.85907">
        <ele>326.02</ele>
        <time>2019-01-27T11:27:54Z</time>
      </trkpt>
      <trkpt lat="43.41741" lon="5.85903">
        <ele>327.95</ele>
        <time>2019-01-27T11:28:09Z</time>
      </trkpt>
      <trkpt lat="43.41749" lon="5.85905">
        <ele>328.43</ele>
        <time>2019-01-27T11:28:20Z</time>
      </trkpt>
      <trkpt lat="43.4175" lon="5.85905">
        <ele>328.43</ele>
        <time>2019-01-27T11:28:21Z</time>
      </trkpt>
      <trkpt lat="43.41752" lon="5.85904">
        <ele>328.91</ele>
        <time>2019-01-27T11:28:22Z</time>
      </trkpt>
      <trkpt lat="43.41753" lon="5.85904">
        <ele>328.91</ele>
        <time>2019-01-27T11:28:23Z</time>
      </trkpt>
      <trkpt lat="43.41755" lon="5.85904">
        <ele>328.91</ele>
        <time>2019-01-27T11:28:24Z</time>
      </trkpt>
      <trkpt lat="43.41756" lon="5.85904">
        <ele>329.39</ele>
        <time>2019-01-27T11:28:25Z</time>
      </trkpt>
      <trkpt lat="43.41758" lon="5.85904">
        <ele>329.39</ele>
        <time>2019-01-27T11:28:26Z</time>
      </trkpt>
      <trkpt lat="43.41783" lon="5.8591">
        <ele>331.31</ele>
        <time>2019-01-27T11:28:41Z</time>
      </trkpt>
      <trkpt lat="43.41808" lon="5.85919">
        <ele>333.23</ele>
        <time>2019-01-27T11:28:55Z</time>
      </trkpt>
      <trkpt lat="43.4184" lon="5.85919">
        <ele>336.12</ele>
        <time>2019-01-27T11:29:12Z</time>
      </trkpt>
      <trkpt lat="43.41856" lon="5.85918">
        <ele>338.04</ele>
        <time>2019-01-27T11:29:18Z</time>
      </trkpt>
      <trkpt lat="43.41857" lon="5.85916">
        <ele>338.04</ele>
        <time>2019-01-27T11:29:19Z</time>
      </trkpt>
      <trkpt lat="43.41858" lon="5.85914">
        <ele>338.52</ele>
        <time>2019-01-27T11:29:20Z</time>
      </trkpt>
      <trkpt lat="43.41858" lon="5.85913">
        <ele>338.52</ele>
        <time>2019-01-27T11:29:21Z</time>
      </trkpt>
      <trkpt lat="43.41858" lon="5.85911">
        <ele>339</ele>
        <time>2019-01-27T11:29:22Z</time>
      </trkpt>
      <trkpt lat="43.41858" lon="5.85909">
        <ele>339</ele>
        <time>2019-01-27T11:29:23Z</time>
      </trkpt>
      <trkpt lat="43.41857" lon="5.85907">
        <ele>339.48</ele>
        <time>2019-01-27T11:29:24Z</time>
      </trkpt>
      <trkpt lat="43.41856" lon="5.85906">
        <ele>339.96</ele>
        <time>2019-01-27T11:29:25Z</time>
      </trkpt>
      <trkpt lat="43.41855" lon="5.85905">
        <ele>339.96</ele>
        <time>2019-01-27T11:29:26Z</time>
      </trkpt>
      <trkpt lat="43.41854" lon="5.85904">
        <ele>339.96</ele>
        <time>2019-01-27T11:29:27Z</time>
      </trkpt>
      <trkpt lat="43.41854" lon="5.85903">
        <ele>340.44</ele>
        <time>2019-01-27T11:29:28Z</time>
      </trkpt>
      <trkpt lat="43.41852" lon="5.85901">
        <ele>340.44</ele>
        <time>2019-01-27T11:29:29Z</time>
      </trkpt>
      <trkpt lat="43.41851" lon="5.859">
        <ele>340.92</ele>
        <time>2019-01-27T11:29:30Z</time>
      </trkpt>
      <trkpt lat="43.4185" lon="5.85878">
        <ele>342.37</ele>
        <time>2019-01-27T11:29:43Z</time>
      </trkpt>
      <trkpt lat="43.41857" lon="5.8587">
        <ele>342.37</ele>
        <time>2019-01-27T11:29:48Z</time>
      </trkpt>
      <trkpt lat="43.41861" lon="5.85836">
        <ele>342.85</ele>
        <time>2019-01-27T11:30:00Z</time>
      </trkpt>
      <trkpt lat="43.41862" lon="5.85828">
        <ele>342.85</ele>
        <time>2019-01-27T11:30:27Z</time>
      </trkpt>
      <trkpt lat="43.41863" lon="5.85828">
        <ele>342.85</ele>
        <time>2019-01-27T11:30:30Z</time>
      </trkpt>
      <trkpt lat="43.41886" lon="5.85828">
        <ele>343.33</ele>
        <time>2019-01-27T11:30:42Z</time>
      </trkpt>
      <trkpt lat="43.41888" lon="5.85828">
        <ele>343.33</ele>
        <time>2019-01-27T11:30:43Z</time>
      </trkpt>
      <trkpt lat="43.4189" lon="5.85828">
        <ele>343.33</ele>
        <time>2019-01-27T11:30:44Z</time>
      </trkpt>
      <trkpt lat="43.41932" lon="5.85839">
        <ele>346.69</ele>
        <time>2019-01-27T11:31:00Z</time>
      </trkpt>
      <trkpt lat="43.41958" lon="5.8585">
        <ele>347.65</ele>
        <time>2019-01-27T11:31:14Z</time>
      </trkpt>
      <trkpt lat="43.41989" lon="5.85862">
        <ele>347.65</ele>
        <time>2019-01-27T11:31:25Z</time>
      </trkpt>
      <trkpt lat="43.41993" lon="5.85862">
        <ele>346.69</ele>
        <time>2019-01-27T11:31:26Z</time>
      </trkpt>
      <trkpt lat="43.41998" lon="5.85862">
        <ele>346.69</ele>
        <time>2019-01-27T11:31:27Z</time>
      </trkpt>
      <trkpt lat="43.42007" lon="5.85864">
        <ele>346.69</ele>
        <time>2019-01-27T11:31:29Z</time>
      </trkpt>
      <trkpt lat="43.42056" lon="5.85881">
        <ele>347.17</ele>
        <time>2019-01-27T11:31:43Z</time>
      </trkpt>
      <trkpt lat="43.42078" lon="5.85891">
        <ele>348.13</ele>
        <time>2019-01-27T11:31:50Z</time>
      </trkpt>
      <trkpt lat="43.42081" lon="5.85893">
        <ele>348.13</ele>
        <time>2019-01-27T11:31:51Z</time>
      </trkpt>
      <trkpt lat="43.421" lon="5.85901">
        <ele>346.21</ele>
        <time>2019-01-27T11:31:55Z</time>
      </trkpt>
      <trkpt lat="43.4214" lon="5.85914">
        <ele>346.21</ele>
        <time>2019-01-27T11:32:06Z</time>
      </trkpt>
      <trkpt lat="43.42147" lon="5.85914">
        <ele>347.17</ele>
        <time>2019-01-27T11:32:08Z</time>
      </trkpt>
      <trkpt lat="43.42198" lon="5.85919">
        <ele>347.65</ele>
        <time>2019-01-27T11:32:22Z</time>
      </trkpt>
      <trkpt lat="43.42268" lon="5.85907">
        <ele>348.13</ele>
        <time>2019-01-27T11:32:36Z</time>
      </trkpt>
      <trkpt lat="43.42298" lon="5.85899">
        <ele>348.13</ele>
        <time>2019-01-27T11:32:46Z</time>
      </trkpt>
      <trkpt lat="43.42301" lon="5.85892">
        <ele>348.13</ele>
        <time>2019-01-27T11:32:52Z</time>
      </trkpt>
      <trkpt lat="43.42302" lon="5.85893">
        <ele>348.13</ele>
        <time>2019-01-27T11:32:54Z</time>
      </trkpt>
      <trkpt lat="43.42303" lon="5.85893">
        <ele>348.13</ele>
        <time>2019-01-27T11:32:55Z</time>
      </trkpt>
      <trkpt lat="43.42305" lon="5.85892">
        <ele>348.13</ele>
        <time>2019-01-27T11:32:59Z</time>
      </trkpt>
      <trkpt lat="43.42307" lon="5.85892">
        <ele>349.58</ele>
        <time>2019-01-27T11:33:00Z</time>
      </trkpt>
      <trkpt lat="43.42309" lon="5.85891">
        <ele>349.58</ele>
        <time>2019-01-27T11:33:01Z</time>
      </trkpt>
      <trkpt lat="43.42312" lon="5.8589">
        <ele>350.06</ele>
        <time>2019-01-27T11:33:02Z</time>
      </trkpt>
      <trkpt lat="43.42315" lon="5.85889">
        <ele>350.06</ele>
        <time>2019-01-27T11:33:03Z</time>
      </trkpt>
      <trkpt lat="43.42318" lon="5.85888">
        <ele>350.06</ele>
        <time>2019-01-27T11:33:04Z</time>
      </trkpt>
      <trkpt lat="43.42321" lon="5.85887">
        <ele>350.06</ele>
        <time>2019-01-27T11:33:05Z</time>
      </trkpt>
      <trkpt lat="43.42368" lon="5.85863">
        <ele>352.46</ele>
        <time>2019-01-27T11:33:21Z</time>
      </trkpt>
      <trkpt lat="43.42393" lon="5.85845">
        <ele>351.02</ele>
        <time>2019-01-27T11:33:31Z</time>
      </trkpt>
      <trkpt lat="43.42448" lon="5.85813">
        <ele>348.13</ele>
        <time>2019-01-27T11:33:43Z</time>
      </trkpt>
      <trkpt lat="43.42517" lon="5.85777">
        <ele>349.58</ele>
        <time>2019-01-27T11:33:56Z</time>
      </trkpt>
      <trkpt lat="43.42579" lon="5.85738">
        <ele>351.02</ele>
        <time>2019-01-27T11:34:11Z</time>
      </trkpt>
      <trkpt lat="43.42614" lon="5.85724">
        <ele>349.1</ele>
        <time>2019-01-27T11:34:17Z</time>
      </trkpt>
      <trkpt lat="43.42635" lon="5.85718">
        <ele>345.25</ele>
        <time>2019-01-27T11:34:20Z</time>
      </trkpt>
      <trkpt lat="43.42641" lon="5.85716">
        <ele>345.25</ele>
        <time>2019-01-27T11:34:21Z</time>
      </trkpt>
      <trkpt lat="43.42666" lon="5.85713">
        <ele>347.17</ele>
        <time>2019-01-27T11:34:25Z</time>
      </trkpt>
      <trkpt lat="43.42702" lon="5.85711">
        <ele>349.58</ele>
        <time>2019-01-27T11:34:32Z</time>
      </trkpt>
      <trkpt lat="43.42786" lon="5.85718">
        <ele>349.58</ele>
        <time>2019-01-27T11:34:48Z</time>
      </trkpt>
      <trkpt lat="43.42847" lon="5.85731">
        <ele>351.02</ele>
        <time>2019-01-27T11:35:01Z</time>
      </trkpt>
      <trkpt lat="43.42851" lon="5.85729">
        <ele>351.5</ele>
        <time>2019-01-27T11:35:02Z</time>
      </trkpt>
      <trkpt lat="43.42856" lon="5.85729">
        <ele>351.5</ele>
        <time>2019-01-27T11:35:03Z</time>
      </trkpt>
      <trkpt lat="43.42859" lon="5.85725">
        <ele>352.46</ele>
        <time>2019-01-27T11:35:04Z</time>
      </trkpt>
      <trkpt lat="43.42861" lon="5.85721">
        <ele>352.46</ele>
        <time>2019-01-27T11:35:05Z</time>
      </trkpt>
      <trkpt lat="43.42866" lon="5.85711">
        <ele>353.42</ele>
        <time>2019-01-27T11:35:07Z</time>
      </trkpt>
      <trkpt lat="43.42871" lon="5.85701">
        <ele>351.5</ele>
        <time>2019-01-27T11:35:09Z</time>
      </trkpt>
      <trkpt lat="43.42878" lon="5.85688">
        <ele>351.5</ele>
        <time>2019-01-27T11:35:12Z</time>
      </trkpt>
      <trkpt lat="43.42892" lon="5.85662">
        <ele>352.94</ele>
        <time>2019-01-27T11:35:18Z</time>
      </trkpt>
      <trkpt lat="43.42903" lon="5.85647">
        <ele>354.38</ele>
        <time>2019-01-27T11:35:22Z</time>
      </trkpt>
      <trkpt lat="43.42947" lon="5.8561">
        <ele>357.27</ele>
        <time>2019-01-27T11:35:36Z</time>
      </trkpt>
      <trkpt lat="43.42994" lon="5.85571">
        <ele>356.79</ele>
        <time>2019-01-27T11:35:50Z</time>
      </trkpt>
      <trkpt lat="43.43011" lon="5.85552">
        <ele>355.83</ele>
        <time>2019-01-27T11:35:55Z</time>
      </trkpt>
      <trkpt lat="43.43057" lon="5.85476">
        <ele>353.9</ele>
        <time>2019-01-27T11:36:08Z</time>
      </trkpt>
      <trkpt lat="43.4306" lon="5.85471">
        <ele>353.9</ele>
        <time>2019-01-27T11:36:09Z</time>
      </trkpt>
      <trkpt lat="43.43076" lon="5.85446">
        <ele>354.38</ele>
        <time>2019-01-27T11:36:14Z</time>
      </trkpt>
      <trkpt lat="43.43079" lon="5.85441">
        <ele>354.38</ele>
        <time>2019-01-27T11:36:15Z</time>
      </trkpt>
      <trkpt lat="43.43097" lon="5.85409">
        <ele>353.9</ele>
        <time>2019-01-27T11:36:22Z</time>
      </trkpt>
      <trkpt lat="43.43133" lon="5.85389">
        <ele>353.9</ele>
        <time>2019-01-27T11:36:32Z</time>
      </trkpt>
      <trkpt lat="43.43197" lon="5.85414">
        <ele>352.94</ele>
        <time>2019-01-27T11:36:45Z</time>
      </trkpt>
      <trkpt lat="43.43283" lon="5.85449">
        <ele>354.86</ele>
        <time>2019-01-27T11:37:03Z</time>
      </trkpt>
      <trkpt lat="43.43347" lon="5.85475">
        <ele>357.27</ele>
        <time>2019-01-27T11:37:19Z</time>
      </trkpt>
      <trkpt lat="43.43408" lon="5.85502">
        <ele>360.63</ele>
        <time>2019-01-27T11:37:36Z</time>
      </trkpt>
      <trkpt lat="43.43454" lon="5.85521">
        <ele>362.55</ele>
        <time>2019-01-27T11:37:50Z</time>
      </trkpt>
      <trkpt lat="43.4351" lon="5.85545">
        <ele>365.92</ele>
        <time>2019-01-27T11:38:08Z</time>
      </trkpt>
      <trkpt lat="43.43551" lon="5.85558">
        <ele>368.8</ele>
        <time>2019-01-27T11:38:22Z</time>
      </trkpt>
      <trkpt lat="43.43594" lon="5.85552">
        <ele>368.8</ele>
        <time>2019-01-27T11:38:34Z</time>
      </trkpt>
      <trkpt lat="43.43599" lon="5.85552">
        <ele>368.8</ele>
        <time>2019-01-27T11:38:35Z</time>
      </trkpt>
      <trkpt lat="43.43604" lon="5.85553">
        <ele>368.8</ele>
        <time>2019-01-27T11:38:36Z</time>
      </trkpt>
      <trkpt lat="43.43608" lon="5.85555">
        <ele>368.8</ele>
        <time>2019-01-27T11:38:37Z</time>
      </trkpt>
      <trkpt lat="43.43612" lon="5.85558">
        <ele>368.8</ele>
        <time>2019-01-27T11:38:38Z</time>
      </trkpt>
      <trkpt lat="43.43685" lon="5.85644">
        <ele>366.4</ele>
        <time>2019-01-27T11:38:55Z</time>
      </trkpt>
      <trkpt lat="43.43737" lon="5.85716">
        <ele>365.92</ele>
        <time>2019-01-27T11:39:07Z</time>
      </trkpt>
      <trkpt lat="43.43741" lon="5.85723">
        <ele>365.92</ele>
        <time>2019-01-27T11:39:08Z</time>
      </trkpt>
      <trkpt lat="43.43787" lon="5.85815">
        <ele>364</ele>
        <time>2019-01-27T11:39:21Z</time>
      </trkpt>
      <trkpt lat="43.43801" lon="5.85837">
        <ele>363.52</ele>
        <time>2019-01-27T11:39:24Z</time>
      </trkpt>
      <trkpt lat="43.43806" lon="5.85845">
        <ele>363.52</ele>
        <time>2019-01-27T11:39:25Z</time>
      </trkpt>
      <trkpt lat="43.43866" lon="5.85957">
        <ele>362.07</ele>
        <time>2019-01-27T11:39:39Z</time>
      </trkpt>
      <trkpt lat="43.43914" lon="5.86059">
        <ele>358.71</ele>
        <time>2019-01-27T11:39:52Z</time>
      </trkpt>
      <trkpt lat="43.43956" lon="5.86165">
        <ele>354.86</ele>
        <time>2019-01-27T11:40:03Z</time>
      </trkpt>
      <trkpt lat="43.43963" lon="5.86186">
        <ele>354.38</ele>
        <time>2019-01-27T11:40:05Z</time>
      </trkpt>
      <trkpt lat="43.43973" lon="5.8622">
        <ele>352.94</ele>
        <time>2019-01-27T11:40:08Z</time>
      </trkpt>
      <trkpt lat="43.43995" lon="5.86282">
        <ele>350.54</ele>
        <time>2019-01-27T11:40:14Z</time>
      </trkpt>
      <trkpt lat="43.43998" lon="5.86289">
        <ele>350.06</ele>
        <time>2019-01-27T11:40:15Z</time>
      </trkpt>
      <trkpt lat="43.44004" lon="5.86294">
        <ele>350.06</ele>
        <time>2019-01-27T11:40:16Z</time>
      </trkpt>
      <trkpt lat="43.44011" lon="5.86299">
        <ele>350.06</ele>
        <time>2019-01-27T11:40:17Z</time>
      </trkpt>
      <trkpt lat="43.44015" lon="5.863">
        <ele>349.58</ele>
        <time>2019-01-27T11:40:18Z</time>
      </trkpt>
      <trkpt lat="43.44021" lon="5.86302">
        <ele>349.58</ele>
        <time>2019-01-27T11:40:19Z</time>
      </trkpt>
      <trkpt lat="43.44027" lon="5.86303">
        <ele>349.1</ele>
        <time>2019-01-27T11:40:20Z</time>
      </trkpt>
      <trkpt lat="43.44033" lon="5.86303">
        <ele>349.1</ele>
        <time>2019-01-27T11:40:21Z</time>
      </trkpt>
      <trkpt lat="43.44039" lon="5.86302">
        <ele>348.13</ele>
        <time>2019-01-27T11:40:22Z</time>
      </trkpt>
      <trkpt lat="43.44043" lon="5.863">
        <ele>348.13</ele>
        <time>2019-01-27T11:40:23Z</time>
      </trkpt>
      <trkpt lat="43.44046" lon="5.86297">
        <ele>347.65</ele>
        <time>2019-01-27T11:40:24Z</time>
      </trkpt>
      <trkpt lat="43.44047" lon="5.86291">
        <ele>347.65</ele>
        <time>2019-01-27T11:40:25Z</time>
      </trkpt>
      <trkpt lat="43.44047" lon="5.86287">
        <ele>347.65</ele>
        <time>2019-01-27T11:40:26Z</time>
      </trkpt>
      <trkpt lat="43.44046" lon="5.86285">
        <ele>347.65</ele>
        <time>2019-01-27T11:40:27Z</time>
      </trkpt>
      <trkpt lat="43.44045" lon="5.86281">
        <ele>349.1</ele>
        <time>2019-01-27T11:40:28Z</time>
      </trkpt>
      <trkpt lat="43.44037" lon="5.86242">
        <ele>352.94</ele>
        <time>2019-01-27T11:40:38Z</time>
      </trkpt>
      <trkpt lat="43.44031" lon="5.86183">
        <ele>355.34</ele>
        <time>2019-01-27T11:40:52Z</time>
      </trkpt>
      <trkpt lat="43.44027" lon="5.86168">
        <ele>355.34</ele>
        <time>2019-01-27T11:40:56Z</time>
      </trkpt>
      <trkpt lat="43.44026" lon="5.86166">
        <ele>355.34</ele>
        <time>2019-01-27T11:40:57Z</time>
      </trkpt>
      <trkpt lat="43.44" lon="5.86158">
        <ele>356.79</ele>
        <time>2019-01-27T11:41:08Z</time>
      </trkpt>
      <trkpt lat="43.43985" lon="5.86126">
        <ele>359.19</ele>
        <time>2019-01-27T11:41:21Z</time>
      </trkpt>
      <trkpt lat="43.43974" lon="5.86092">
        <ele>359.67</ele>
        <time>2019-01-27T11:41:33Z</time>
      </trkpt>
      <trkpt lat="43.43978" lon="5.86086">
        <ele>359.67</ele>
        <time>2019-01-27T11:41:36Z</time>
      </trkpt>
      <trkpt lat="43.43981" lon="5.86078">
        <ele>360.15</ele>
        <time>2019-01-27T11:41:40Z</time>
      </trkpt>
      <trkpt lat="43.43977" lon="5.86032">
        <ele>360.15</ele>
        <time>2019-01-27T11:41:55Z</time>
      </trkpt>
      <trkpt lat="43.43974" lon="5.86026">
        <ele>360.63</ele>
        <time>2019-01-27T11:42:06Z</time>
      </trkpt>
      <trkpt lat="43.43975" lon="5.86024">
        <ele>360.63</ele>
        <time>2019-01-27T11:42:34Z</time>
      </trkpt>
      <trkpt lat="43.43974" lon="5.86025">
        <ele>360.63</ele>
        <time>2019-01-27T11:42:50Z</time>
      </trkpt>
      <trkpt lat="43.43973" lon="5.86028">
        <ele>360.15</ele>
        <time>2019-01-27T11:43:14Z</time>
      </trkpt>
      <trkpt lat="43.43973" lon="5.86026">
        <ele>360.15</ele>
        <time>2019-01-27T11:43:50Z</time>
      </trkpt>
      <trkpt lat="43.43972" lon="5.86029">
        <ele>361.11</ele>
        <time>2019-01-27T11:44:33Z</time>
      </trkpt>
      <trkpt lat="43.43972" lon="5.86028">
        <ele>361.11</ele>
        <time>2019-01-27T11:45:11Z</time>
      </trkpt>
      <trkpt lat="43.43967" lon="5.86029">
        <ele>360.63</ele>
        <time>2019-01-27T11:45:54Z</time>
      </trkpt>
      <trkpt lat="43.43971" lon="5.8603">
        <ele>360.63</ele>
        <time>2019-01-27T11:46:34Z</time>
      </trkpt>
      <trkpt lat="43.4397" lon="5.86031">
        <ele>360.15</ele>
        <time>2019-01-27T11:47:10Z</time>
      </trkpt>
      <trkpt lat="43.43972" lon="5.86032">
        <ele>359.67</ele>
        <time>2019-01-27T11:47:57Z</time>
      </trkpt>
      <trkpt lat="43.43972" lon="5.86033">
        <ele>359.67</ele>
        <time>2019-01-27T11:48:39Z</time>
      </trkpt>
      <trkpt lat="43.43973" lon="5.86032">
        <ele>359.67</ele>
        <time>2019-01-27T11:49:18Z</time>
      </trkpt>
      <trkpt lat="43.43972" lon="5.86028">
        <ele>359.67</ele>
        <time>2019-01-27T11:49:52Z</time>
      </trkpt>
      <trkpt lat="43.43971" lon="5.86027">
        <ele>359.19</ele>
        <time>2019-01-27T11:50:28Z</time>
      </trkpt>
      <trkpt lat="43.4397" lon="5.86026">
        <ele>359.19</ele>
        <time>2019-01-27T11:50:57Z</time>
      </trkpt>
      <trkpt lat="43.43971" lon="5.86034">
        <ele>359.19</ele>
        <time>2019-01-27T11:51:32Z</time>
      </trkpt>
      <trkpt lat="43.43973" lon="5.8604">
        <ele>359.19</ele>
        <time>2019-01-27T11:52:11Z</time>
      </trkpt>
      <trkpt lat="43.43974" lon="5.8604">
        <ele>358.71</ele>
        <time>2019-01-27T11:52:50Z</time>
      </trkpt>
      <trkpt lat="43.43969" lon="5.86033">
        <ele>358.71</ele>
        <time>2019-01-27T11:53:22Z</time>
      </trkpt>
      <trkpt lat="43.4397" lon="5.86027">
        <ele>358.71</ele>
        <time>2019-01-27T11:53:52Z</time>
      </trkpt>
      <trkpt lat="43.43968" lon="5.86029">
        <ele>358.23</ele>
        <time>2019-01-27T11:54:23Z</time>
      </trkpt>
      <trkpt lat="43.43966" lon="5.86031">
        <ele>358.23</ele>
        <time>2019-01-27T11:54:58Z</time>
      </trkpt>
      <trkpt lat="43.43964" lon="5.86029">
        <ele>356.79</ele>
        <time>2019-01-27T11:55:23Z</time>
      </trkpt>
      <trkpt lat="43.43963" lon="5.86028">
        <ele>356.31</ele>
        <time>2019-01-27T11:56:01Z</time>
      </trkpt>
      <trkpt lat="43.43966" lon="5.86026">
        <ele>356.31</ele>
        <time>2019-01-27T11:56:39Z</time>
      </trkpt>
      <trkpt lat="43.43968" lon="5.86027">
        <ele>356.31</ele>
        <time>2019-01-27T11:57:18Z</time>
      </trkpt>
      <trkpt lat="43.43969" lon="5.86029">
        <ele>356.31</ele>
        <time>2019-01-27T11:58:01Z</time>
      </trkpt>
      <trkpt lat="43.43971" lon="5.8603">
        <ele>355.83</ele>
        <time>2019-01-27T11:58:44Z</time>
      </trkpt>
      <trkpt lat="43.43972" lon="5.8603">
        <ele>355.83</ele>
        <time>2019-01-27T11:59:22Z</time>
      </trkpt>
      <trkpt lat="43.43969" lon="5.86032">
        <ele>355.34</ele>
        <time>2019-01-27T11:59:54Z</time>
      </trkpt>
      <trkpt lat="43.43969" lon="5.86033">
        <ele>355.34</ele>
        <time>2019-01-27T12:00:29Z</time>
      </trkpt>
      <trkpt lat="43.43972" lon="5.86032">
        <ele>355.83</ele>
        <time>2019-01-27T12:01:11Z</time>
      </trkpt>
      <trkpt lat="43.43968" lon="5.86027">
        <ele>355.83</ele>
        <time>2019-01-27T12:01:51Z</time>
      </trkpt>
      <trkpt lat="43.43965" lon="5.86026">
        <ele>357.27</ele>
        <time>2019-01-27T12:02:26Z</time>
      </trkpt>
      <trkpt lat="43.43967" lon="5.86024">
        <ele>357.27</ele>
        <time>2019-01-27T12:02:54Z</time>
      </trkpt>
      <trkpt lat="43.4397" lon="5.86024">
        <ele>356.31</ele>
        <time>2019-01-27T12:03:28Z</time>
      </trkpt>
      <trkpt lat="43.43971" lon="5.86021">
        <ele>356.31</ele>
        <time>2019-01-27T12:04:03Z</time>
      </trkpt>
      <trkpt lat="43.43972" lon="5.86023">
        <ele>356.31</ele>
        <time>2019-01-27T12:04:36Z</time>
      </trkpt>
      <trkpt lat="43.43972" lon="5.86025">
        <ele>357.27</ele>
        <time>2019-01-27T12:05:05Z</time>
      </trkpt>
      <trkpt lat="43.43968" lon="5.86029">
        <ele>357.27</ele>
        <time>2019-01-27T12:05:38Z</time>
      </trkpt>
      <trkpt lat="43.43966" lon="5.8603">
        <ele>357.75</ele>
        <time>2019-01-27T12:06:09Z</time>
      </trkpt>
      <trkpt lat="43.43967" lon="5.86029">
        <ele>357.75</ele>
        <time>2019-01-27T12:06:36Z</time>
      </trkpt>
      <trkpt lat="43.43966" lon="5.8603">
        <ele>356.31</ele>
        <time>2019-01-27T12:07:06Z</time>
      </trkpt>
      <trkpt lat="43.43967" lon="5.86028">
        <ele>357.75</ele>
        <time>2019-01-27T12:07:36Z</time>
      </trkpt>
      <trkpt lat="43.4397" lon="5.86028">
        <ele>358.71</ele>
        <time>2019-01-27T12:08:12Z</time>
      </trkpt>
      <trkpt lat="43.43968" lon="5.86029">
        <ele>357.27</ele>
        <time>2019-01-27T12:08:42Z</time>
      </trkpt>
      <trkpt lat="43.43968" lon="5.86031">
        <ele>358.23</ele>
        <time>2019-01-27T12:09:13Z</time>
      </trkpt>
      <trkpt lat="43.43969" lon="5.86032">
        <ele>357.75</ele>
        <time>2019-01-27T12:09:29Z</time>
      </trkpt>
      <trkpt lat="43.43971" lon="5.86034">
        <ele>358.71</ele>
        <time>2019-01-27T12:09:38Z</time>
      </trkpt>
      <trkpt lat="43.43971" lon="5.86035">
        <ele>358.71</ele>
        <time>2019-01-27T12:09:39Z</time>
      </trkpt>
      <trkpt lat="43.43964" lon="5.86026">
        <ele>359.19</ele>
        <time>2019-01-27T12:09:57Z</time>
      </trkpt>
    </trkseg>
  </trk>
  <trk>
    <name><![CDATA[2019-02-10 11:43:46]]></name>
    <trkseg>
      <trkpt lat="43.43962" lon="5.8602">
        <ele>301.99</ele>
        <time>2019-02-10T08:35:36Z</time>
      </trkpt>
      <trkpt lat="43.43965" lon="5.86016">
        <ele>307.28</ele>
        <time>2019-02-10T08:35:53Z</time>
      </trkpt>
      <trkpt lat="43.43965" lon="5.86017">
        <ele>307.28</ele>
        <time>2019-02-10T08:35:54Z</time>
      </trkpt>
      <trkpt lat="43.43965" lon="5.86017">
        <ele>311.6</ele>
        <time>2019-02-10T08:35:57Z</time>
      </trkpt>
      <trkpt lat="43.43965" lon="5.86017">
        <ele>314.01</ele>
        <time>2019-02-10T08:35:59Z</time>
      </trkpt>
      <trkpt lat="43.43966" lon="5.86018">
        <ele>317.85</ele>
        <time>2019-02-10T08:36:04Z</time>
      </trkpt>
      <trkpt lat="43.43966" lon="5.86018">
        <ele>321.22</ele>
        <time>2019-02-10T08:36:07Z</time>
      </trkpt>
      <trkpt lat="43.43966" lon="5.86017">
        <ele>324.1</ele>
        <time>2019-02-10T08:36:10Z</time>
      </trkpt>
      <trkpt lat="43.43966" lon="5.86016">
        <ele>328.43</ele>
        <time>2019-02-10T08:36:13Z</time>
      </trkpt>
      <trkpt lat="43.43965" lon="5.86016">
        <ele>328.43</ele>
        <time>2019-02-10T08:36:14Z</time>
      </trkpt>
      <trkpt lat="43.43965" lon="5.86015">
        <ele>332.27</ele>
        <time>2019-02-10T08:36:18Z</time>
      </trkpt>
      <trkpt lat="43.43966" lon="5.86013">
        <ele>336.12</ele>
        <time>2019-02-10T08:36:22Z</time>
      </trkpt>
      <trkpt lat="43.43965" lon="5.86012">
        <ele>339.48</ele>
        <time>2019-02-10T08:36:26Z</time>
      </trkpt>
      <trkpt lat="43.43965" lon="5.86012">
        <ele>342.85</ele>
        <time>2019-02-10T08:36:30Z</time>
      </trkpt>
      <trkpt lat="43.43963" lon="5.86017">
        <ele>346.21</ele>
        <time>2019-02-10T08:36:34Z</time>
      </trkpt>
      <trkpt lat="43.43962" lon="5.86022">
        <ele>349.58</ele>
        <time>2019-02-10T08:36:39Z</time>
      </trkpt>
      <trkpt lat="43.4396" lon="5.86024">
        <ele>352.94</ele>
        <time>2019-02-10T08:36:48Z</time>
      </trkpt>
      <trkpt lat="43.4396" lon="5.86023">
        <ele>355.83</ele>
        <time>2019-02-10T08:36:59Z</time>
      </trkpt>
      <trkpt lat="43.43961" lon="5.86021">
        <ele>358.71</ele>
        <time>2019-02-10T08:37:23Z</time>
      </trkpt>
      <trkpt lat="43.4396" lon="5.86024">
        <ele>359.67</ele>
        <time>2019-02-10T08:37:46Z</time>
      </trkpt>
      <trkpt lat="43.4396" lon="5.86027">
        <ele>359.67</ele>
        <time>2019-02-10T08:38:08Z</time>
      </trkpt>
      <trkpt lat="43.43959" lon="5.86025">
        <ele>359.67</ele>
        <time>2019-02-10T08:38:41Z</time>
      </trkpt>
      <trkpt lat="43.4396" lon="5.86023">
        <ele>359.67</ele>
        <time>2019-02-10T08:39:22Z</time>
      </trkpt>
      <trkpt lat="43.4396" lon="5.86022">
        <ele>359.67</ele>
        <time>2019-02-10T08:39:57Z</time>
      </trkpt>
      <trkpt lat="43.43957" lon="5.86028">
        <ele>359.67</ele>
        <time>2019-02-10T08:40:27Z</time>
      </trkpt>
      <trkpt lat="43.43958" lon="5.86028">
        <ele>359.67</ele>
        <time>2019-02-10T08:40:59Z</time>
      </trkpt>
      <trkpt lat="43.43961" lon="5.86025">
        <ele>360.15</ele>
        <time>2019-02-10T08:41:34Z</time>
      </trkpt>
      <trkpt lat="43.43959" lon="5.86027">
        <ele>359.67</ele>
        <time>2019-02-10T08:41:57Z</time>
      </trkpt>
      <trkpt lat="43.43961" lon="5.86027">
        <ele>359.67</ele>
        <time>2019-02-10T08:42:33Z</time>
      </trkpt>
      <trkpt lat="43.43959" lon="5.8603">
        <ele>360.15</ele>
        <time>2019-02-10T08:43:14Z</time>
      </trkpt>
      <trkpt lat="43.43957" lon="5.86032">
        <ele>359.67</ele>
        <time>2019-02-10T08:43:55Z</time>
      </trkpt>
      <trkpt lat="43.43959" lon="5.86028">
        <ele>360.15</ele>
        <time>2019-02-10T08:44:24Z</time>
      </trkpt>
      <trkpt lat="43.43958" lon="5.86025">
        <ele>359.67</ele>
        <time>2019-02-10T08:45:02Z</time>
      </trkpt>
      <trkpt lat="43.43957" lon="5.86027">
        <ele>359.67</ele>
        <time>2019-02-10T08:45:35Z</time>
      </trkpt>
      <trkpt lat="43.43954" lon="5.8603">
        <ele>359.67</ele>
        <time>2019-02-10T08:46:11Z</time>
      </trkpt>
      <trkpt lat="43.43951" lon="5.86031">
        <ele>359.19</ele>
        <time>2019-02-10T08:46:48Z</time>
      </trkpt>
      <trkpt lat="43.43948" lon="5.86035">
        <ele>359.19</ele>
        <time>2019-02-10T08:47:21Z</time>
      </trkpt>
      <trkpt lat="43.43948" lon="5.86037">
        <ele>359.19</ele>
        <time>2019-02-10T08:48:03Z</time>
      </trkpt>
      <trkpt lat="43.43955" lon="5.86024">
        <ele>359.19</ele>
        <time>2019-02-10T08:48:37Z</time>
      </trkpt>
      <trkpt lat="43.43956" lon="5.86026">
        <ele>359.19</ele>
        <time>2019-02-10T08:49:07Z</time>
      </trkpt>
      <trkpt lat="43.4395" lon="5.86038">
        <ele>359.19</ele>
        <time>2019-02-10T08:49:44Z</time>
      </trkpt>
      <trkpt lat="43.4395" lon="5.86037">
        <ele>359.19</ele>
        <time>2019-02-10T08:50:14Z</time>
      </trkpt>
      <trkpt lat="43.4395" lon="5.86033">
        <ele>359.19</ele>
        <time>2019-02-10T08:50:50Z</time>
      </trkpt>
      <trkpt lat="43.43954" lon="5.86033">
        <ele>359.19</ele>
        <time>2019-02-10T08:51:27Z</time>
      </trkpt>
      <trkpt lat="43.43955" lon="5.86034">
        <ele>359.19</ele>
        <time>2019-02-10T08:52:06Z</time>
      </trkpt>
      <trkpt lat="43.43956" lon="5.86034">
        <ele>359.19</ele>
        <time>2019-02-10T08:52:38Z</time>
      </trkpt>
      <trkpt lat="43.4396" lon="5.86033">
        <ele>357.27</ele>
        <time>2019-02-10T08:53:00Z</time>
      </trkpt>
      <trkpt lat="43.43962" lon="5.86037">
        <ele>358.23</ele>
        <time>2019-02-10T08:53:17Z</time>
      </trkpt>
      <trkpt lat="43.43967" lon="5.86034">
        <ele>358.23</ele>
        <time>2019-02-10T08:53:40Z</time>
      </trkpt>
      <trkpt lat="43.43964" lon="5.86036">
        <ele>357.75</ele>
        <time>2019-02-10T08:54:17Z</time>
      </trkpt>
      <trkpt lat="43.43969" lon="5.86034">
        <ele>357.75</ele>
        <time>2019-02-10T08:54:50Z</time>
      </trkpt>
      <trkpt lat="43.43978" lon="5.8603">
        <ele>358.23</ele>
        <time>2019-02-10T08:55:17Z</time>
      </trkpt>
      <trkpt lat="43.43982" lon="5.86035">
        <ele>357.27</ele>
        <time>2019-02-10T08:55:54Z</time>
      </trkpt>
      <trkpt lat="43.43979" lon="5.86034">
        <ele>357.27</ele>
        <time>2019-02-10T08:56:31Z</time>
      </trkpt>
      <trkpt lat="43.43979" lon="5.86035">
        <ele>357.27</ele>
        <time>2019-02-10T08:57:07Z</time>
      </trkpt>
      <trkpt lat="43.43982" lon="5.86037">
        <ele>357.27</ele>
        <time>2019-02-10T08:57:44Z</time>
      </trkpt>
      <trkpt lat="43.43983" lon="5.86042">
        <ele>357.27</ele>
        <time>2019-02-10T08:58:18Z</time>
      </trkpt>
      <trkpt lat="43.43984" lon="5.86041">
        <ele>357.27</ele>
        <time>2019-02-10T08:58:55Z</time>
      </trkpt>
      <trkpt lat="43.43984" lon="5.86046">
        <ele>357.27</ele>
        <time>2019-02-10T08:59:32Z</time>
      </trkpt>
      <trkpt lat="43.43981" lon="5.86042">
        <ele>357.75</ele>
        <time>2019-02-10T09:00:08Z</time>
      </trkpt>
      <trkpt lat="43.43975" lon="5.86039">
        <ele>357.75</ele>
        <time>2019-02-10T09:00:34Z</time>
      </trkpt>
      <trkpt lat="43.43978" lon="5.86038">
        <ele>357.75</ele>
        <time>2019-02-10T09:00:36Z</time>
      </trkpt>
      <trkpt lat="43.4398" lon="5.86036">
        <ele>357.75</ele>
        <time>2019-02-10T09:00:37Z</time>
      </trkpt>
      <trkpt lat="43.43981" lon="5.86034">
        <ele>357.75</ele>
        <time>2019-02-10T09:00:38Z</time>
      </trkpt>
      <trkpt lat="43.43982" lon="5.86032">
        <ele>357.75</ele>
        <time>2019-02-10T09:00:39Z</time>
      </trkpt>
      <trkpt lat="43.43984" lon="5.8603">
        <ele>357.75</ele>
        <time>2019-02-10T09:00:40Z</time>
      </trkpt>
      <trkpt lat="43.43989" lon="5.86033">
        <ele>357.27</ele>
        <time>2019-02-10T09:00:43Z</time>
      </trkpt>
      <trkpt lat="43.4401" lon="5.86054">
        <ele>355.83</ele>
        <time>2019-02-10T09:00:49Z</time>
      </trkpt>
      <trkpt lat="43.44014" lon="5.86059">
        <ele>355.34</ele>
        <time>2019-02-10T09:00:50Z</time>
      </trkpt>
      <trkpt lat="43.44023" lon="5.8607">
        <ele>354.86</ele>
        <time>2019-02-10T09:00:52Z</time>
      </trkpt>
      <trkpt lat="43.44025" lon="5.86076">
        <ele>354.86</ele>
        <time>2019-02-10T09:00:53Z</time>
      </trkpt>
      <trkpt lat="43.44027" lon="5.86084">
        <ele>354.86</ele>
        <time>2019-02-10T09:00:54Z</time>
      </trkpt>
      <trkpt lat="43.44027" lon="5.86091">
        <ele>354.86</ele>
        <time>2019-02-10T09:00:55Z</time>
      </trkpt>
      <trkpt lat="43.44026" lon="5.86099">
        <ele>354.86</ele>
        <time>2019-02-10T09:00:56Z</time>
      </trkpt>
      <trkpt lat="43.44025" lon="5.86132">
        <ele>353.42</ele>
        <time>2019-02-10T09:01:04Z</time>
      </trkpt>
      <trkpt lat="43.44027" lon="5.86136">
        <ele>352.94</ele>
        <time>2019-02-10T09:01:22Z</time>
      </trkpt>
      <trkpt lat="43.44027" lon="5.86145">
        <ele>352.94</ele>
        <time>2019-02-10T09:01:53Z</time>
      </trkpt>
      <trkpt lat="43.44029" lon="5.862">
        <ele>352.46</ele>
        <time>2019-02-10T09:02:05Z</time>
      </trkpt>
      <trkpt lat="43.44033" lon="5.86243">
        <ele>349.58</ele>
        <time>2019-02-10T09:02:11Z</time>
      </trkpt>
      <trkpt lat="43.44037" lon="5.86268">
        <ele>347.17</ele>
        <time>2019-02-10T09:02:15Z</time>
      </trkpt>
      <trkpt lat="43.44034" lon="5.86289">
        <ele>345.25</ele>
        <time>2019-02-10T09:02:20Z</time>
      </trkpt>
      <trkpt lat="43.44031" lon="5.86292">
        <ele>345.73</ele>
        <time>2019-02-10T09:02:21Z</time>
      </trkpt>
      <trkpt lat="43.43991" lon="5.86295">
        <ele>346.69</ele>
        <time>2019-02-10T09:02:34Z</time>
      </trkpt>
      <trkpt lat="43.43923" lon="5.86301">
        <ele>347.17</ele>
        <time>2019-02-10T09:02:49Z</time>
      </trkpt>
      <trkpt lat="43.43873" lon="5.86312">
        <ele>347.17</ele>
        <time>2019-02-10T09:03:01Z</time>
      </trkpt>
      <trkpt lat="43.43797" lon="5.86328">
        <ele>347.17</ele>
        <time>2019-02-10T09:03:18Z</time>
      </trkpt>
      <trkpt lat="43.43733" lon="5.86328">
        <ele>343.81</ele>
        <time>2019-02-10T09:03:29Z</time>
      </trkpt>
      <trkpt lat="43.43655" lon="5.86324">
        <ele>343.33</ele>
        <time>2019-02-10T09:03:43Z</time>
      </trkpt>
      <trkpt lat="43.43588" lon="5.86336">
        <ele>343.33</ele>
        <time>2019-02-10T09:03:58Z</time>
      </trkpt>
      <trkpt lat="43.4357" lon="5.8634">
        <ele>346.69</ele>
        <time>2019-02-10T09:04:03Z</time>
      </trkpt>
      <trkpt lat="43.43532" lon="5.86351">
        <ele>350.54</ele>
        <time>2019-02-10T09:04:17Z</time>
      </trkpt>
      <trkpt lat="43.43489" lon="5.86375">
        <ele>351.5</ele>
        <time>2019-02-10T09:04:31Z</time>
      </trkpt>
      <trkpt lat="43.43421" lon="5.86419">
        <ele>351.98</ele>
        <time>2019-02-10T09:04:49Z</time>
      </trkpt>
      <trkpt lat="43.43353" lon="5.86443">
        <ele>351.02</ele>
        <time>2019-02-10T09:05:03Z</time>
      </trkpt>
      <trkpt lat="43.43288" lon="5.86457">
        <ele>352.46</ele>
        <time>2019-02-10T09:05:17Z</time>
      </trkpt>
      <trkpt lat="43.43275" lon="5.86465">
        <ele>352.46</ele>
        <time>2019-02-10T09:05:20Z</time>
      </trkpt>
      <trkpt lat="43.4321" lon="5.86508">
        <ele>352.46</ele>
        <time>2019-02-10T09:05:34Z</time>
      </trkpt>
      <trkpt lat="43.43145" lon="5.86544">
        <ele>351.5</ele>
        <time>2019-02-10T09:05:48Z</time>
      </trkpt>
      <trkpt lat="43.43066" lon="5.86552">
        <ele>351.02</ele>
        <time>2019-02-10T09:06:04Z</time>
      </trkpt>
      <trkpt lat="43.43062" lon="5.8655">
        <ele>351.02</ele>
        <time>2019-02-10T09:06:05Z</time>
      </trkpt>
      <trkpt lat="43.43003" lon="5.86554">
        <ele>347.65</ele>
        <time>2019-02-10T09:06:15Z</time>
      </trkpt>
      <trkpt lat="43.42987" lon="5.86555">
        <ele>346.69</ele>
        <time>2019-02-10T09:06:17Z</time>
      </trkpt>
      <trkpt lat="43.42979" lon="5.86554">
        <ele>346.69</ele>
        <time>2019-02-10T09:06:18Z</time>
      </trkpt>
      <trkpt lat="43.42971" lon="5.86552">
        <ele>345.73</ele>
        <time>2019-02-10T09:06:19Z</time>
      </trkpt>
      <trkpt lat="43.42883" lon="5.86512">
        <ele>343.33</ele>
        <time>2019-02-10T09:06:32Z</time>
      </trkpt>
      <trkpt lat="43.42853" lon="5.86493">
        <ele>342.85</ele>
        <time>2019-02-10T09:06:37Z</time>
      </trkpt>
      <trkpt lat="43.42847" lon="5.86492">
        <ele>342.85</ele>
        <time>2019-02-10T09:06:38Z</time>
      </trkpt>
      <trkpt lat="43.4284" lon="5.86491">
        <ele>342.37</ele>
        <time>2019-02-10T09:06:39Z</time>
      </trkpt>
      <trkpt lat="43.42834" lon="5.86491">
        <ele>342.37</ele>
        <time>2019-02-10T09:06:40Z</time>
      </trkpt>
      <trkpt lat="43.42828" lon="5.86493">
        <ele>342.37</ele>
        <time>2019-02-10T09:06:41Z</time>
      </trkpt>
      <trkpt lat="43.42821" lon="5.86494">
        <ele>342.37</ele>
        <time>2019-02-10T09:06:42Z</time>
      </trkpt>
      <trkpt lat="43.42775" lon="5.86511">
        <ele>342.37</ele>
        <time>2019-02-10T09:06:50Z</time>
      </trkpt>
      <trkpt lat="43.42706" lon="5.86528">
        <ele>342.85</ele>
        <time>2019-02-10T09:07:05Z</time>
      </trkpt>
      <trkpt lat="43.42619" lon="5.86541">
        <ele>339.96</ele>
        <time>2019-02-10T09:07:19Z</time>
      </trkpt>
      <trkpt lat="43.42612" lon="5.86542">
        <ele>339.96</ele>
        <time>2019-02-10T09:07:20Z</time>
      </trkpt>
      <trkpt lat="43.42557" lon="5.86555">
        <ele>336.6</ele>
        <time>2019-02-10T09:07:27Z</time>
      </trkpt>
      <trkpt lat="43.42501" lon="5.86567">
        <ele>333.71</ele>
        <time>2019-02-10T09:07:34Z</time>
      </trkpt>
      <trkpt lat="43.42478" lon="5.86573">
        <ele>332.75</ele>
        <time>2019-02-10T09:07:37Z</time>
      </trkpt>
      <trkpt lat="43.4247" lon="5.86579">
        <ele>332.27</ele>
        <time>2019-02-10T09:07:38Z</time>
      </trkpt>
      <trkpt lat="43.42465" lon="5.86585">
        <ele>331.79</ele>
        <time>2019-02-10T09:07:39Z</time>
      </trkpt>
      <trkpt lat="43.4246" lon="5.86594">
        <ele>331.79</ele>
        <time>2019-02-10T09:07:40Z</time>
      </trkpt>
      <trkpt lat="43.42455" lon="5.86603">
        <ele>331.31</ele>
        <time>2019-02-10T09:07:41Z</time>
      </trkpt>
      <trkpt lat="43.42411" lon="5.86696">
        <ele>328.43</ele>
        <time>2019-02-10T09:07:52Z</time>
      </trkpt>
      <trkpt lat="43.42378" lon="5.86759">
        <ele>325.06</ele>
        <time>2019-02-10T09:08:00Z</time>
      </trkpt>
      <trkpt lat="43.42365" lon="5.86772">
        <ele>324.58</ele>
        <time>2019-02-10T09:08:02Z</time>
      </trkpt>
      <trkpt lat="43.42322" lon="5.86811">
        <ele>320.74</ele>
        <time>2019-02-10T09:08:08Z</time>
      </trkpt>
      <trkpt lat="43.42302" lon="5.86827">
        <ele>317.37</ele>
        <time>2019-02-10T09:08:12Z</time>
      </trkpt>
      <trkpt lat="43.423" lon="5.86828">
        <ele>317.37</ele>
        <time>2019-02-10T09:08:13Z</time>
      </trkpt>
      <trkpt lat="43.42299" lon="5.86829">
        <ele>317.37</ele>
        <time>2019-02-10T09:08:14Z</time>
      </trkpt>
      <trkpt lat="43.42298" lon="5.86828">
        <ele>316.89</ele>
        <time>2019-02-10T09:08:15Z</time>
      </trkpt>
      <trkpt lat="43.42279" lon="5.86827">
        <ele>316.89</ele>
        <time>2019-02-10T09:08:28Z</time>
      </trkpt>
      <trkpt lat="43.42255" lon="5.86841">
        <ele>316.41</ele>
        <time>2019-02-10T09:08:41Z</time>
      </trkpt>
      <trkpt lat="43.42238" lon="5.86841">
        <ele>316.41</ele>
        <time>2019-02-10T09:08:48Z</time>
      </trkpt>
      <trkpt lat="43.42229" lon="5.86834">
        <ele>317.37</ele>
        <time>2019-02-10T09:08:53Z</time>
      </trkpt>
      <trkpt lat="43.42225" lon="5.8683">
        <ele>317.85</ele>
        <time>2019-02-10T09:08:55Z</time>
      </trkpt>
      <trkpt lat="43.42204" lon="5.86811">
        <ele>320.26</ele>
        <time>2019-02-10T09:09:07Z</time>
      </trkpt>
      <trkpt lat="43.42173" lon="5.86814">
        <ele>322.18</ele>
        <time>2019-02-10T09:09:24Z</time>
      </trkpt>
      <trkpt lat="43.42142" lon="5.86816">
        <ele>323.62</ele>
        <time>2019-02-10T09:09:40Z</time>
      </trkpt>
      <trkpt lat="43.4213" lon="5.86816">
        <ele>322.18</ele>
        <time>2019-02-10T09:09:47Z</time>
      </trkpt>
      <trkpt lat="43.4212" lon="5.86812">
        <ele>321.7</ele>
        <time>2019-02-10T09:10:01Z</time>
      </trkpt>
      <trkpt lat="43.42118" lon="5.86815">
        <ele>321.7</ele>
        <time>2019-02-10T09:10:10Z</time>
      </trkpt>
      <trkpt lat="43.42111" lon="5.8681">
        <ele>317.85</ele>
        <time>2019-02-10T09:10:21Z</time>
      </trkpt>
      <trkpt lat="43.42098" lon="5.86818">
        <ele>314.97</ele>
        <time>2019-02-10T09:10:31Z</time>
      </trkpt>
      <trkpt lat="43.42095" lon="5.86818">
        <ele>314.97</ele>
        <time>2019-02-10T09:10:34Z</time>
      </trkpt>
      <trkpt lat="43.42085" lon="5.86811">
        <ele>315.45</ele>
        <time>2019-02-10T09:10:48Z</time>
      </trkpt>
      <trkpt lat="43.42084" lon="5.86811">
        <ele>315.45</ele>
        <time>2019-02-10T09:10:50Z</time>
      </trkpt>
      <trkpt lat="43.42079" lon="5.86815">
        <ele>314.97</ele>
        <time>2019-02-10T09:10:55Z</time>
      </trkpt>
      <trkpt lat="43.42078" lon="5.86817">
        <ele>314.49</ele>
        <time>2019-02-10T09:10:57Z</time>
      </trkpt>
      <trkpt lat="43.42078" lon="5.86819">
        <ele>314.49</ele>
        <time>2019-02-10T09:11:00Z</time>
      </trkpt>
      <trkpt lat="43.4207" lon="5.86825">
        <ele>312.57</ele>
        <time>2019-02-10T09:11:06Z</time>
      </trkpt>
      <trkpt lat="43.42069" lon="5.86824">
        <ele>312.57</ele>
        <time>2019-02-10T09:11:07Z</time>
      </trkpt>
      <trkpt lat="43.42068" lon="5.86822">
        <ele>312.57</ele>
        <time>2019-02-10T09:11:08Z</time>
      </trkpt>
      <trkpt lat="43.42067" lon="5.8682">
        <ele>312.57</ele>
        <time>2019-02-10T09:11:09Z</time>
      </trkpt>
      <trkpt lat="43.42057" lon="5.86799">
        <ele>312.57</ele>
        <time>2019-02-10T09:11:20Z</time>
      </trkpt>
      <trkpt lat="43.42052" lon="5.86789">
        <ele>312.57</ele>
        <time>2019-02-10T09:11:25Z</time>
      </trkpt>
      <trkpt lat="43.42051" lon="5.86787">
        <ele>312.57</ele>
        <time>2019-02-10T09:11:26Z</time>
      </trkpt>
      <trkpt lat="43.42044" lon="5.86777">
        <ele>312.57</ele>
        <time>2019-02-10T09:11:37Z</time>
      </trkpt>
      <trkpt lat="43.42007" lon="5.8675">
        <ele>313.05</ele>
        <time>2019-02-10T09:11:50Z</time>
      </trkpt>
      <trkpt lat="43.41983" lon="5.86714">
        <ele>313.05</ele>
        <time>2019-02-10T09:12:03Z</time>
      </trkpt>
      <trkpt lat="43.41971" lon="5.86696">
        <ele>314.49</ele>
        <time>2019-02-10T09:12:09Z</time>
      </trkpt>
      <trkpt lat="43.41952" lon="5.86658">
        <ele>315.93</ele>
        <time>2019-02-10T09:12:22Z</time>
      </trkpt>
      <trkpt lat="43.41947" lon="5.86648">
        <ele>315.93</ele>
        <time>2019-02-10T09:12:25Z</time>
      </trkpt>
      <trkpt lat="43.41947" lon="5.86645">
        <ele>315.93</ele>
        <time>2019-02-10T09:12:26Z</time>
      </trkpt>
      <trkpt lat="43.41947" lon="5.86642">
        <ele>315.93</ele>
        <time>2019-02-10T09:12:27Z</time>
      </trkpt>
      <trkpt lat="43.41947" lon="5.86639">
        <ele>315.93</ele>
        <time>2019-02-10T09:12:28Z</time>
      </trkpt>
      <trkpt lat="43.41948" lon="5.86636">
        <ele>316.41</ele>
        <time>2019-02-10T09:12:29Z</time>
      </trkpt>
      <trkpt lat="43.41948" lon="5.86633">
        <ele>316.41</ele>
        <time>2019-02-10T09:12:30Z</time>
      </trkpt>
      <trkpt lat="43.41944" lon="5.86592">
        <ele>316.89</ele>
        <time>2019-02-10T09:12:44Z</time>
      </trkpt>
      <trkpt lat="43.41952" lon="5.86556">
        <ele>316.89</ele>
        <time>2019-02-10T09:12:56Z</time>
      </trkpt>
      <trkpt lat="43.41981" lon="5.86518">
        <ele>317.37</ele>
        <time>2019-02-10T09:13:11Z</time>
      </trkpt>
      <trkpt lat="43.42005" lon="5.8649">
        <ele>317.85</ele>
        <time>2019-02-10T09:13:24Z</time>
      </trkpt>
      <trkpt lat="43.42023" lon="5.86469">
        <ele>317.85</ele>
        <time>2019-02-10T09:13:36Z</time>
      </trkpt>
      <trkpt lat="43.42034" lon="5.86456">
        <ele>318.33</ele>
        <time>2019-02-10T09:13:48Z</time>
      </trkpt>
      <trkpt lat="43.4204" lon="5.86447">
        <ele>318.33</ele>
        <time>2019-02-10T09:14:02Z</time>
      </trkpt>
      <trkpt lat="43.42044" lon="5.86436">
        <ele>318.33</ele>
        <time>2019-02-10T09:14:17Z</time>
      </trkpt>
      <trkpt lat="43.42047" lon="5.86427">
        <ele>318.33</ele>
        <time>2019-02-10T09:14:29Z</time>
      </trkpt>
      <trkpt lat="43.42052" lon="5.86417">
        <ele>318.81</ele>
        <time>2019-02-10T09:14:44Z</time>
      </trkpt>
      <trkpt lat="43.42056" lon="5.86411">
        <ele>319.3</ele>
        <time>2019-02-10T09:14:59Z</time>
      </trkpt>
      <trkpt lat="43.42058" lon="5.86405">
        <ele>319.78</ele>
        <time>2019-02-10T09:15:14Z</time>
      </trkpt>
      <trkpt lat="43.42064" lon="5.86396">
        <ele>320.26</ele>
        <time>2019-02-10T09:15:29Z</time>
      </trkpt>
      <trkpt lat="43.4207" lon="5.86387">
        <ele>320.26</ele>
        <time>2019-02-10T09:15:42Z</time>
      </trkpt>
      <trkpt lat="43.42073" lon="5.86386">
        <ele>320.26</ele>
        <time>2019-02-10T09:15:59Z</time>
      </trkpt>
      <trkpt lat="43.42077" lon="5.86383">
        <ele>321.22</ele>
        <time>2019-02-10T09:16:11Z</time>
      </trkpt>
      <trkpt lat="43.42075" lon="5.86385">
        <ele>321.22</ele>
        <time>2019-02-10T09:16:23Z</time>
      </trkpt>
      <trkpt lat="43.42071" lon="5.86391">
        <ele>320.74</ele>
        <time>2019-02-10T09:16:34Z</time>
      </trkpt>
      <trkpt lat="43.42067" lon="5.86399">
        <ele>319.78</ele>
        <time>2019-02-10T09:16:44Z</time>
      </trkpt>
      <trkpt lat="43.42058" lon="5.86408">
        <ele>319.3</ele>
        <time>2019-02-10T09:16:56Z</time>
      </trkpt>
      <trkpt lat="43.42054" lon="5.86417">
        <ele>319.3</ele>
        <time>2019-02-10T09:17:07Z</time>
      </trkpt>
      <trkpt lat="43.4205" lon="5.86425">
        <ele>318.81</ele>
        <time>2019-02-10T09:17:20Z</time>
      </trkpt>
      <trkpt lat="43.42044" lon="5.86433">
        <ele>318.81</ele>
        <time>2019-02-10T09:17:26Z</time>
      </trkpt>
      <trkpt lat="43.42042" lon="5.86438">
        <ele>318.81</ele>
        <time>2019-02-10T09:17:29Z</time>
      </trkpt>
      <trkpt lat="43.42024" lon="5.86461">
        <ele>318.81</ele>
        <time>2019-02-10T09:17:40Z</time>
      </trkpt>
      <trkpt lat="43.42018" lon="5.86468">
        <ele>318.33</ele>
        <time>2019-02-10T09:17:44Z</time>
      </trkpt>
      <trkpt lat="43.41999" lon="5.86489">
        <ele>318.33</ele>
        <time>2019-02-10T09:17:55Z</time>
      </trkpt>
      <trkpt lat="43.41985" lon="5.86501">
        <ele>318.33</ele>
        <time>2019-02-10T09:18:09Z</time>
      </trkpt>
      <trkpt lat="43.41985" lon="5.86502">
        <ele>317.85</ele>
        <time>2019-02-10T09:18:17Z</time>
      </trkpt>
      <trkpt lat="43.41984" lon="5.86501">
        <ele>317.85</ele>
        <time>2019-02-10T09:18:18Z</time>
      </trkpt>
      <trkpt lat="43.41984" lon="5.86499">
        <ele>317.85</ele>
        <time>2019-02-10T09:18:34Z</time>
      </trkpt>
      <trkpt lat="43.41985" lon="5.86504">
        <ele>317.85</ele>
        <time>2019-02-10T09:18:46Z</time>
      </trkpt>
      <trkpt lat="43.41983" lon="5.86507">
        <ele>317.37</ele>
        <time>2019-02-10T09:19:09Z</time>
      </trkpt>
      <trkpt lat="43.41983" lon="5.86501">
        <ele>317.37</ele>
        <time>2019-02-10T09:19:38Z</time>
      </trkpt>
      <trkpt lat="43.41982" lon="5.86504">
        <ele>317.37</ele>
        <time>2019-02-10T09:19:41Z</time>
      </trkpt>
      <trkpt lat="43.41981" lon="5.86506">
        <ele>317.37</ele>
        <time>2019-02-10T09:19:42Z</time>
      </trkpt>
      <trkpt lat="43.41981" lon="5.86507">
        <ele>317.37</ele>
        <time>2019-02-10T09:19:43Z</time>
      </trkpt>
      <trkpt lat="43.4198" lon="5.86509">
        <ele>317.37</ele>
        <time>2019-02-10T09:19:44Z</time>
      </trkpt>
      <trkpt lat="43.41978" lon="5.86511">
        <ele>317.37</ele>
        <time>2019-02-10T09:19:45Z</time>
      </trkpt>
      <trkpt lat="43.41977" lon="5.86513">
        <ele>317.37</ele>
        <time>2019-02-10T09:19:46Z</time>
      </trkpt>
      <trkpt lat="43.41976" lon="5.86515">
        <ele>317.37</ele>
        <time>2019-02-10T09:19:47Z</time>
      </trkpt>
      <trkpt lat="43.41974" lon="5.86517">
        <ele>317.37</ele>
        <time>2019-02-10T09:19:48Z</time>
      </trkpt>
      <trkpt lat="43.41972" lon="5.86519">
        <ele>317.37</ele>
        <time>2019-02-10T09:19:49Z</time>
      </trkpt>
      <trkpt lat="43.4197" lon="5.86521">
        <ele>316.89</ele>
        <time>2019-02-10T09:19:50Z</time>
      </trkpt>
      <trkpt lat="43.41969" lon="5.86523">
        <ele>316.89</ele>
        <time>2019-02-10T09:19:51Z</time>
      </trkpt>
      <trkpt lat="43.41951" lon="5.86557">
        <ele>316.89</ele>
        <time>2019-02-10T09:20:02Z</time>
      </trkpt>
      <trkpt lat="43.41948" lon="5.86565">
        <ele>316.89</ele>
        <time>2019-02-10T09:20:04Z</time>
      </trkpt>
      <trkpt lat="43.41949" lon="5.86568">
        <ele>316.89</ele>
        <time>2019-02-10T09:20:05Z</time>
      </trkpt>
      <trkpt lat="43.41949" lon="5.86572">
        <ele>316.89</ele>
        <time>2019-02-10T09:20:06Z</time>
      </trkpt>
      <trkpt lat="43.41949" lon="5.86576">
        <ele>316.89</ele>
        <time>2019-02-10T09:20:07Z</time>
      </trkpt>
      <trkpt lat="43.41949" lon="5.8658">
        <ele>316.89</ele>
        <time>2019-02-10T09:20:08Z</time>
      </trkpt>
      <trkpt lat="43.4195" lon="5.86583">
        <ele>316.89</ele>
        <time>2019-02-10T09:20:09Z</time>
      </trkpt>
      <trkpt lat="43.41951" lon="5.86587">
        <ele>316.89</ele>
        <time>2019-02-10T09:20:10Z</time>
      </trkpt>
      <trkpt lat="43.41951" lon="5.86591">
        <ele>316.89</ele>
        <time>2019-02-10T09:20:11Z</time>
      </trkpt>
      <trkpt lat="43.41951" lon="5.86594">
        <ele>316.89</ele>
        <time>2019-02-10T09:20:12Z</time>
      </trkpt>
      <trkpt lat="43.4195" lon="5.86598">
        <ele>316.89</ele>
        <time>2019-02-10T09:20:13Z</time>
      </trkpt>
      <trkpt lat="43.41949" lon="5.86602">
        <ele>316.89</ele>
        <time>2019-02-10T09:20:14Z</time>
      </trkpt>
      <trkpt lat="43.41949" lon="5.86606">
        <ele>316.89</ele>
        <time>2019-02-10T09:20:15Z</time>
      </trkpt>
      <trkpt lat="43.41949" lon="5.86609">
        <ele>316.89</ele>
        <time>2019-02-10T09:20:16Z</time>
      </trkpt>
      <trkpt lat="43.41958" lon="5.86659">
        <ele>316.41</ele>
        <time>2019-02-10T09:20:30Z</time>
      </trkpt>
      <trkpt lat="43.41975" lon="5.86705">
        <ele>315.45</ele>
        <time>2019-02-10T09:20:42Z</time>
      </trkpt>
      <trkpt lat="43.41981" lon="5.86719">
        <ele>315.45</ele>
        <time>2019-02-10T09:20:47Z</time>
      </trkpt>
      <trkpt lat="43.41979" lon="5.86722">
        <ele>315.45</ele>
        <time>2019-02-10T09:20:49Z</time>
      </trkpt>
      <trkpt lat="43.41976" lon="5.86727">
        <ele>315.45</ele>
        <time>2019-02-10T09:20:52Z</time>
      </trkpt>
      <trkpt lat="43.41958" lon="5.8676">
        <ele>314.49</ele>
        <time>2019-02-10T09:21:05Z</time>
      </trkpt>
      <trkpt lat="43.4196" lon="5.86779">
        <ele>314.49</ele>
        <time>2019-02-10T09:21:14Z</time>
      </trkpt>
      <trkpt lat="43.41957" lon="5.86784">
        <ele>314.01</ele>
        <time>2019-02-10T09:21:54Z</time>
      </trkpt>
      <trkpt lat="43.41959" lon="5.86781">
        <ele>314.01</ele>
        <time>2019-02-10T09:22:07Z</time>
      </trkpt>
      <trkpt lat="43.41978" lon="5.86757">
        <ele>314.01</ele>
        <time>2019-02-10T09:22:19Z</time>
      </trkpt>
      <trkpt lat="43.41982" lon="5.86744">
        <ele>314.97</ele>
        <time>2019-02-10T09:22:23Z</time>
      </trkpt>
      <trkpt lat="43.41986" lon="5.86741">
        <ele>314.97</ele>
        <time>2019-02-10T09:22:25Z</time>
      </trkpt>
      <trkpt lat="43.41989" lon="5.86741">
        <ele>314.97</ele>
        <time>2019-02-10T09:22:26Z</time>
      </trkpt>
      <trkpt lat="43.4199" lon="5.86742">
        <ele>314.97</ele>
        <time>2019-02-10T09:22:27Z</time>
      </trkpt>
      <trkpt lat="43.41992" lon="5.86744">
        <ele>314.97</ele>
        <time>2019-02-10T09:22:28Z</time>
      </trkpt>
      <trkpt lat="43.42012" lon="5.86753">
        <ele>315.45</ele>
        <time>2019-02-10T09:22:36Z</time>
      </trkpt>
      <trkpt lat="43.42014" lon="5.86755">
        <ele>315.45</ele>
        <time>2019-02-10T09:22:37Z</time>
      </trkpt>
      <trkpt lat="43.42017" lon="5.86757">
        <ele>315.45</ele>
        <time>2019-02-10T09:22:38Z</time>
      </trkpt>
      <trkpt lat="43.4204" lon="5.86782">
        <ele>315.45</ele>
        <time>2019-02-10T09:22:48Z</time>
      </trkpt>
      <trkpt lat="43.42051" lon="5.86803">
        <ele>315.45</ele>
        <time>2019-02-10T09:22:53Z</time>
      </trkpt>
      <trkpt lat="43.42071" lon="5.86849">
        <ele>315.45</ele>
        <time>2019-02-10T09:23:04Z</time>
      </trkpt>
      <trkpt lat="43.42091" lon="5.86882">
        <ele>314.01</ele>
        <time>2019-02-10T09:23:13Z</time>
      </trkpt>
      <trkpt lat="43.42112" lon="5.86899">
        <ele>314.01</ele>
        <time>2019-02-10T09:23:20Z</time>
      </trkpt>
      <trkpt lat="43.42115" lon="5.86901">
        <ele>314.01</ele>
        <time>2019-02-10T09:23:21Z</time>
      </trkpt>
      <trkpt lat="43.42154" lon="5.86902">
        <ele>316.41</ele>
        <time>2019-02-10T09:23:34Z</time>
      </trkpt>
      <trkpt lat="43.42196" lon="5.86902">
        <ele>315.93</ele>
        <time>2019-02-10T09:23:47Z</time>
      </trkpt>
      <trkpt lat="43.42213" lon="5.86907">
        <ele>315.93</ele>
        <time>2019-02-10T09:23:56Z</time>
      </trkpt>
      <trkpt lat="43.42213" lon="5.86909">
        <ele>315.93</ele>
        <time>2019-02-10T09:23:57Z</time>
      </trkpt>
      <trkpt lat="43.42213" lon="5.8691">
        <ele>315.93</ele>
        <time>2019-02-10T09:23:58Z</time>
      </trkpt>
      <trkpt lat="43.42195" lon="5.86934">
        <ele>316.41</ele>
        <time>2019-02-10T09:24:11Z</time>
      </trkpt>
      <trkpt lat="43.42183" lon="5.8695">
        <ele>314.97</ele>
        <time>2019-02-10T09:24:15Z</time>
      </trkpt>
      <trkpt lat="43.42139" lon="5.86998">
        <ele>314.49</ele>
        <time>2019-02-10T09:24:27Z</time>
      </trkpt>
      <trkpt lat="43.42135" lon="5.87002">
        <ele>314.49</ele>
        <time>2019-02-10T09:24:28Z</time>
      </trkpt>
      <trkpt lat="43.42099" lon="5.87021">
        <ele>314.49</ele>
        <time>2019-02-10T09:24:36Z</time>
      </trkpt>
      <trkpt lat="43.42094" lon="5.8702">
        <ele>314.49</ele>
        <time>2019-02-10T09:24:37Z</time>
      </trkpt>
      <trkpt lat="43.42089" lon="5.87018">
        <ele>314.49</ele>
        <time>2019-02-10T09:24:38Z</time>
      </trkpt>
      <trkpt lat="43.42085" lon="5.87014">
        <ele>314.49</ele>
        <time>2019-02-10T09:24:39Z</time>
      </trkpt>
      <trkpt lat="43.42082" lon="5.8701">
        <ele>314.49</ele>
        <time>2019-02-10T09:24:40Z</time>
      </trkpt>
      <trkpt lat="43.42079" lon="5.87005">
        <ele>314.49</ele>
        <time>2019-02-10T09:24:41Z</time>
      </trkpt>
      <trkpt lat="43.42041" lon="5.86936">
        <ele>314.49</ele>
        <time>2019-02-10T09:24:57Z</time>
      </trkpt>
      <trkpt lat="43.42024" lon="5.86903">
        <ele>315.45</ele>
        <time>2019-02-10T09:25:05Z</time>
      </trkpt>
      <trkpt lat="43.4198" lon="5.86862">
        <ele>315.93</ele>
        <time>2019-02-10T09:25:19Z</time>
      </trkpt>
      <trkpt lat="43.41979" lon="5.86859">
        <ele>315.93</ele>
        <time>2019-02-10T09:25:20Z</time>
      </trkpt>
      <trkpt lat="43.41976" lon="5.86856">
        <ele>315.93</ele>
        <time>2019-02-10T09:25:21Z</time>
      </trkpt>
      <trkpt lat="43.41971" lon="5.86842">
        <ele>315.93</ele>
        <time>2019-02-10T09:25:25Z</time>
      </trkpt>
      <trkpt lat="43.41968" lon="5.86839">
        <ele>315.93</ele>
        <time>2019-02-10T09:25:26Z</time>
      </trkpt>
      <trkpt lat="43.41944" lon="5.86798">
        <ele>315.93</ele>
        <time>2019-02-10T09:25:38Z</time>
      </trkpt>
      <trkpt lat="43.4193" lon="5.86757">
        <ele>316.89</ele>
        <time>2019-02-10T09:25:50Z</time>
      </trkpt>
      <trkpt lat="43.41928" lon="5.86739">
        <ele>317.37</ele>
        <time>2019-02-10T09:25:56Z</time>
      </trkpt>
      <trkpt lat="43.41928" lon="5.86736">
        <ele>317.37</ele>
        <time>2019-02-10T09:25:57Z</time>
      </trkpt>
      <trkpt lat="43.41928" lon="5.86733">
        <ele>317.37</ele>
        <time>2019-02-10T09:25:58Z</time>
      </trkpt>
      <trkpt lat="43.41928" lon="5.8673">
        <ele>317.37</ele>
        <time>2019-02-10T09:25:59Z</time>
      </trkpt>
      <trkpt lat="43.41928" lon="5.86727">
        <ele>317.37</ele>
        <time>2019-02-10T09:26:00Z</time>
      </trkpt>
      <trkpt lat="43.41925" lon="5.86711">
        <ele>317.37</ele>
        <time>2019-02-10T09:26:04Z</time>
      </trkpt>
      <trkpt lat="43.41926" lon="5.86709">
        <ele>317.37</ele>
        <time>2019-02-10T09:26:05Z</time>
      </trkpt>
      <trkpt lat="43.41926" lon="5.86705">
        <ele>317.37</ele>
        <time>2019-02-10T09:26:06Z</time>
      </trkpt>
      <trkpt lat="43.41921" lon="5.86658">
        <ele>317.37</ele>
        <time>2019-02-10T09:26:18Z</time>
      </trkpt>
      <trkpt lat="43.41918" lon="5.86627">
        <ele>317.37</ele>
        <time>2019-02-10T09:26:25Z</time>
      </trkpt>
      <trkpt lat="43.41917" lon="5.86623">
        <ele>317.37</ele>
        <time>2019-02-10T09:26:26Z</time>
      </trkpt>
      <trkpt lat="43.41916" lon="5.86601">
        <ele>317.37</ele>
        <time>2019-02-10T09:26:32Z</time>
      </trkpt>
      <trkpt lat="43.41916" lon="5.86599">
        <ele>317.37</ele>
        <time>2019-02-10T09:26:33Z</time>
      </trkpt>
      <trkpt lat="43.41908" lon="5.86565">
        <ele>319.3</ele>
        <time>2019-02-10T09:26:44Z</time>
      </trkpt>
      <trkpt lat="43.41896" lon="5.86548">
        <ele>321.7</ele>
        <time>2019-02-10T09:26:51Z</time>
      </trkpt>
      <trkpt lat="43.41894" lon="5.86546">
        <ele>322.18</ele>
        <time>2019-02-10T09:26:52Z</time>
      </trkpt>
      <trkpt lat="43.41884" lon="5.86533">
        <ele>324.1</ele>
        <time>2019-02-10T09:27:00Z</time>
      </trkpt>
      <trkpt lat="43.41879" lon="5.86527">
        <ele>325.06</ele>
        <time>2019-02-10T09:27:03Z</time>
      </trkpt>
      <trkpt lat="43.41871" lon="5.86517">
        <ele>325.54</ele>
        <time>2019-02-10T09:27:08Z</time>
      </trkpt>
      <trkpt lat="43.41863" lon="5.86505">
        <ele>326.5</ele>
        <time>2019-02-10T09:27:14Z</time>
      </trkpt>
      <trkpt lat="43.41844" lon="5.86474">
        <ele>326.5</ele>
        <time>2019-02-10T09:27:25Z</time>
      </trkpt>
      <trkpt lat="43.41835" lon="5.86467">
        <ele>326.5</ele>
        <time>2019-02-10T09:27:31Z</time>
      </trkpt>
      <trkpt lat="43.41823" lon="5.86461">
        <ele>326.99</ele>
        <time>2019-02-10T09:27:38Z</time>
      </trkpt>
      <trkpt lat="43.41794" lon="5.86465">
        <ele>326.99</ele>
        <time>2019-02-10T09:27:52Z</time>
      </trkpt>
      <trkpt lat="43.4179" lon="5.86466">
        <ele>324.58</ele>
        <time>2019-02-10T09:27:54Z</time>
      </trkpt>
      <trkpt lat="43.41749" lon="5.86483">
        <ele>322.66</ele>
        <time>2019-02-10T09:28:08Z</time>
      </trkpt>
      <trkpt lat="43.4173" lon="5.8649">
        <ele>324.1</ele>
        <time>2019-02-10T09:28:13Z</time>
      </trkpt>
      <trkpt lat="43.41705" lon="5.86494">
        <ele>326.5</ele>
        <time>2019-02-10T09:28:21Z</time>
      </trkpt>
      <trkpt lat="43.41697" lon="5.86497">
        <ele>327.95</ele>
        <time>2019-02-10T09:28:25Z</time>
      </trkpt>
      <trkpt lat="43.41696" lon="5.86498">
        <ele>327.95</ele>
        <time>2019-02-10T09:28:26Z</time>
      </trkpt>
      <trkpt lat="43.41683" lon="5.86498">
        <ele>328.43</ele>
        <time>2019-02-10T09:28:44Z</time>
      </trkpt>
      <trkpt lat="43.41659" lon="5.86492">
        <ele>328.91</ele>
        <time>2019-02-10T09:28:57Z</time>
      </trkpt>
      <trkpt lat="43.41659" lon="5.86491">
        <ele>329.39</ele>
        <time>2019-02-10T09:28:58Z</time>
      </trkpt>
      <trkpt lat="43.41655" lon="5.86481">
        <ele>330.35</ele>
        <time>2019-02-10T09:29:04Z</time>
      </trkpt>
      <trkpt lat="43.41638" lon="5.86464">
        <ele>332.27</ele>
        <time>2019-02-10T09:29:17Z</time>
      </trkpt>
      <trkpt lat="43.41622" lon="5.86461">
        <ele>331.79</ele>
        <time>2019-02-10T09:29:26Z</time>
      </trkpt>
      <trkpt lat="43.41603" lon="5.86456">
        <ele>330.83</ele>
        <time>2019-02-10T09:29:36Z</time>
      </trkpt>
      <trkpt lat="43.41594" lon="5.8646">
        <ele>329.39</ele>
        <time>2019-02-10T09:29:39Z</time>
      </trkpt>
      <trkpt lat="43.41583" lon="5.86457">
        <ele>327.95</ele>
        <time>2019-02-10T09:29:42Z</time>
      </trkpt>
      <trkpt lat="43.41548" lon="5.86431">
        <ele>327.95</ele>
        <time>2019-02-10T09:29:56Z</time>
      </trkpt>
      <trkpt lat="43.41544" lon="5.8643">
        <ele>327.95</ele>
        <time>2019-02-10T09:29:58Z</time>
      </trkpt>
      <trkpt lat="43.41536" lon="5.86433">
        <ele>327.95</ele>
        <time>2019-02-10T09:30:02Z</time>
      </trkpt>
      <trkpt lat="43.4151" lon="5.86454">
        <ele>330.35</ele>
        <time>2019-02-10T09:30:19Z</time>
      </trkpt>
      <trkpt lat="43.41505" lon="5.86458">
        <ele>330.35</ele>
        <time>2019-02-10T09:30:24Z</time>
      </trkpt>
      <trkpt lat="43.41505" lon="5.86477">
        <ele>330.83</ele>
        <time>2019-02-10T09:30:37Z</time>
      </trkpt>
      <trkpt lat="43.41508" lon="5.86489">
        <ele>333.23</ele>
        <time>2019-02-10T09:30:51Z</time>
      </trkpt>
      <trkpt lat="43.41504" lon="5.86493">
        <ele>334.68</ele>
        <time>2019-02-10T09:31:07Z</time>
      </trkpt>
      <trkpt lat="43.41503" lon="5.86491">
        <ele>334.2</ele>
        <time>2019-02-10T09:31:20Z</time>
      </trkpt>
      <trkpt lat="43.415" lon="5.86482">
        <ele>334.2</ele>
        <time>2019-02-10T09:31:24Z</time>
      </trkpt>
      <trkpt lat="43.41496" lon="5.86472">
        <ele>333.23</ele>
        <time>2019-02-10T09:31:30Z</time>
      </trkpt>
      <trkpt lat="43.41494" lon="5.86468">
        <ele>332.75</ele>
        <time>2019-02-10T09:31:34Z</time>
      </trkpt>
      <trkpt lat="43.41487" lon="5.86459">
        <ele>333.71</ele>
        <time>2019-02-10T09:31:42Z</time>
      </trkpt>
      <trkpt lat="43.41481" lon="5.8645">
        <ele>334.2</ele>
        <time>2019-02-10T09:31:51Z</time>
      </trkpt>
      <trkpt lat="43.41477" lon="5.86446">
        <ele>334.68</ele>
        <time>2019-02-10T09:32:01Z</time>
      </trkpt>
      <trkpt lat="43.41476" lon="5.86441">
        <ele>334.68</ele>
        <time>2019-02-10T09:32:08Z</time>
      </trkpt>
      <trkpt lat="43.41475" lon="5.86436">
        <ele>334.68</ele>
        <time>2019-02-10T09:32:12Z</time>
      </trkpt>
      <trkpt lat="43.41474" lon="5.86428">
        <ele>334.68</ele>
        <time>2019-02-10T09:32:18Z</time>
      </trkpt>
      <trkpt lat="43.41469" lon="5.86424">
        <ele>336.6</ele>
        <time>2019-02-10T09:32:26Z</time>
      </trkpt>
      <trkpt lat="43.41462" lon="5.86415">
        <ele>339.48</ele>
        <time>2019-02-10T09:32:41Z</time>
      </trkpt>
      <trkpt lat="43.41456" lon="5.86413">
        <ele>341.89</ele>
        <time>2019-02-10T09:32:53Z</time>
      </trkpt>
      <trkpt lat="43.41449" lon="5.8641">
        <ele>344.29</ele>
        <time>2019-02-10T09:33:05Z</time>
      </trkpt>
      <trkpt lat="43.41437" lon="5.86402">
        <ele>346.21</ele>
        <time>2019-02-10T09:33:21Z</time>
      </trkpt>
      <trkpt lat="43.41436" lon="5.86402">
        <ele>346.21</ele>
        <time>2019-02-10T09:33:22Z</time>
      </trkpt>
      <trkpt lat="43.41423" lon="5.86404">
        <ele>349.1</ele>
        <time>2019-02-10T09:33:38Z</time>
      </trkpt>
      <trkpt lat="43.41419" lon="5.86405">
        <ele>348.62</ele>
        <time>2019-02-10T09:34:05Z</time>
      </trkpt>
      <trkpt lat="43.41422" lon="5.86404">
        <ele>348.62</ele>
        <time>2019-02-10T09:34:47Z</time>
      </trkpt>
      <trkpt lat="43.41421" lon="5.86404">
        <ele>348.62</ele>
        <time>2019-02-10T09:35:09Z</time>
      </trkpt>
      <trkpt lat="43.41422" lon="5.86403">
        <ele>348.62</ele>
        <time>2019-02-10T09:35:30Z</time>
      </trkpt>
      <trkpt lat="43.41425" lon="5.86402">
        <ele>348.13</ele>
        <time>2019-02-10T09:36:06Z</time>
      </trkpt>
      <trkpt lat="43.41423" lon="5.86405">
        <ele>348.13</ele>
        <time>2019-02-10T09:36:27Z</time>
      </trkpt>
      <trkpt lat="43.41418" lon="5.86408">
        <ele>348.13</ele>
        <time>2019-02-10T09:36:56Z</time>
      </trkpt>
      <trkpt lat="43.4142" lon="5.86392">
        <ele>348.13</ele>
        <time>2019-02-10T09:37:11Z</time>
      </trkpt>
      <trkpt lat="43.41421" lon="5.86375">
        <ele>348.62</ele>
        <time>2019-02-10T09:37:27Z</time>
      </trkpt>
      <trkpt lat="43.41421" lon="5.8637">
        <ele>348.62</ele>
        <time>2019-02-10T09:37:36Z</time>
      </trkpt>
      <trkpt lat="43.41421" lon="5.86367">
        <ele>348.62</ele>
        <time>2019-02-10T09:37:38Z</time>
      </trkpt>
      <trkpt lat="43.41425" lon="5.86335">
        <ele>347.65</ele>
        <time>2019-02-10T09:37:54Z</time>
      </trkpt>
      <trkpt lat="43.41434" lon="5.86292">
        <ele>345.73</ele>
        <time>2019-02-10T09:38:07Z</time>
      </trkpt>
      <trkpt lat="43.41433" lon="5.86289">
        <ele>345.73</ele>
        <time>2019-02-10T09:38:08Z</time>
      </trkpt>
      <trkpt lat="43.41432" lon="5.86285">
        <ele>345.73</ele>
        <time>2019-02-10T09:38:10Z</time>
      </trkpt>
      <trkpt lat="43.41426" lon="5.86272">
        <ele>348.13</ele>
        <time>2019-02-10T09:38:22Z</time>
      </trkpt>
      <trkpt lat="43.41427" lon="5.86265">
        <ele>348.62</ele>
        <time>2019-02-10T09:38:36Z</time>
      </trkpt>
      <trkpt lat="43.41429" lon="5.86257">
        <ele>348.62</ele>
        <time>2019-02-10T09:38:56Z</time>
      </trkpt>
      <trkpt lat="43.4143" lon="5.86256">
        <ele>348.62</ele>
        <time>2019-02-10T09:38:59Z</time>
      </trkpt>
      <trkpt lat="43.41435" lon="5.86256">
        <ele>347.65</ele>
        <time>2019-02-10T09:39:03Z</time>
      </trkpt>
      <trkpt lat="43.41448" lon="5.86259">
        <ele>345.73</ele>
        <time>2019-02-10T09:39:11Z</time>
      </trkpt>
      <trkpt lat="43.41467" lon="5.86256">
        <ele>344.29</ele>
        <time>2019-02-10T09:39:20Z</time>
      </trkpt>
      <trkpt lat="43.41492" lon="5.86239">
        <ele>344.29</ele>
        <time>2019-02-10T09:39:34Z</time>
      </trkpt>
      <trkpt lat="43.41518" lon="5.86185">
        <ele>341.41</ele>
        <time>2019-02-10T09:39:48Z</time>
      </trkpt>
      <trkpt lat="43.41524" lon="5.86169">
        <ele>340.44</ele>
        <time>2019-02-10T09:39:51Z</time>
      </trkpt>
      <trkpt lat="43.41532" lon="5.86148">
        <ele>338.52</ele>
        <time>2019-02-10T09:39:55Z</time>
      </trkpt>
      <trkpt lat="43.41538" lon="5.86131">
        <ele>337.56</ele>
        <time>2019-02-10T09:39:58Z</time>
      </trkpt>
      <trkpt lat="43.41547" lon="5.86109">
        <ele>335.64</ele>
        <time>2019-02-10T09:40:02Z</time>
      </trkpt>
      <trkpt lat="43.41555" lon="5.86084">
        <ele>333.23</ele>
        <time>2019-02-10T09:40:08Z</time>
      </trkpt>
      <trkpt lat="43.41563" lon="5.86031">
        <ele>329.39</ele>
        <time>2019-02-10T09:40:19Z</time>
      </trkpt>
      <trkpt lat="43.41564" lon="5.86029">
        <ele>328.91</ele>
        <time>2019-02-10T09:40:20Z</time>
      </trkpt>
      <trkpt lat="43.41574" lon="5.86007">
        <ele>326.02</ele>
        <time>2019-02-10T09:40:30Z</time>
      </trkpt>
      <trkpt lat="43.41577" lon="5.85993">
        <ele>325.06</ele>
        <time>2019-02-10T09:40:33Z</time>
      </trkpt>
      <trkpt lat="43.41576" lon="5.85986">
        <ele>325.06</ele>
        <time>2019-02-10T09:40:34Z</time>
      </trkpt>
      <trkpt lat="43.41575" lon="5.85971">
        <ele>323.62</ele>
        <time>2019-02-10T09:40:36Z</time>
      </trkpt>
      <trkpt lat="43.41574" lon="5.85963">
        <ele>323.62</ele>
        <time>2019-02-10T09:40:37Z</time>
      </trkpt>
      <trkpt lat="43.41575" lon="5.85956">
        <ele>322.66</ele>
        <time>2019-02-10T09:40:38Z</time>
      </trkpt>
      <trkpt lat="43.41575" lon="5.8595">
        <ele>321.7</ele>
        <time>2019-02-10T09:40:39Z</time>
      </trkpt>
      <trkpt lat="43.41577" lon="5.85945">
        <ele>321.7</ele>
        <time>2019-02-10T09:40:40Z</time>
      </trkpt>
      <trkpt lat="43.41579" lon="5.8594">
        <ele>321.7</ele>
        <time>2019-02-10T09:40:41Z</time>
      </trkpt>
      <trkpt lat="43.41581" lon="5.85936">
        <ele>321.22</ele>
        <time>2019-02-10T09:40:42Z</time>
      </trkpt>
      <trkpt lat="43.41584" lon="5.85933">
        <ele>321.22</ele>
        <time>2019-02-10T09:40:43Z</time>
      </trkpt>
      <trkpt lat="43.41586" lon="5.85931">
        <ele>320.74</ele>
        <time>2019-02-10T09:40:44Z</time>
      </trkpt>
      <trkpt lat="43.41589" lon="5.85928">
        <ele>320.74</ele>
        <time>2019-02-10T09:40:45Z</time>
      </trkpt>
      <trkpt lat="43.41608" lon="5.85908">
        <ele>319.78</ele>
        <time>2019-02-10T09:40:56Z</time>
      </trkpt>
      <trkpt lat="43.41616" lon="5.85904">
        <ele>319.78</ele>
        <time>2019-02-10T09:41:06Z</time>
      </trkpt>
      <trkpt lat="43.41619" lon="5.859">
        <ele>319.78</ele>
        <time>2019-02-10T09:41:20Z</time>
      </trkpt>
      <trkpt lat="43.4162" lon="5.859">
        <ele>319.78</ele>
        <time>2019-02-10T09:41:26Z</time>
      </trkpt>
      <trkpt lat="43.41621" lon="5.85899">
        <ele>321.22</ele>
        <time>2019-02-10T09:41:27Z</time>
      </trkpt>
      <trkpt lat="43.41622" lon="5.85898">
        <ele>321.22</ele>
        <time>2019-02-10T09:41:28Z</time>
      </trkpt>
      <trkpt lat="43.41624" lon="5.85897">
        <ele>321.22</ele>
        <time>2019-02-10T09:41:29Z</time>
      </trkpt>
      <trkpt lat="43.41626" lon="5.85896">
        <ele>321.7</ele>
        <time>2019-02-10T09:41:30Z</time>
      </trkpt>
      <trkpt lat="43.41628" lon="5.85895">
        <ele>321.7</ele>
        <time>2019-02-10T09:41:31Z</time>
      </trkpt>
      <trkpt lat="43.41648" lon="5.85881">
        <ele>323.14</ele>
        <time>2019-02-10T09:41:43Z</time>
      </trkpt>
      <trkpt lat="43.4165" lon="5.85882">
        <ele>324.1</ele>
        <time>2019-02-10T09:41:44Z</time>
      </trkpt>
      <trkpt lat="43.41678" lon="5.85901">
        <ele>326.02</ele>
        <time>2019-02-10T09:42:00Z</time>
      </trkpt>
      <trkpt lat="43.41708" lon="5.85901">
        <ele>327.95</ele>
        <time>2019-02-10T09:42:15Z</time>
      </trkpt>
      <trkpt lat="43.41731" lon="5.85897">
        <ele>330.83</ele>
        <time>2019-02-10T09:42:29Z</time>
      </trkpt>
      <trkpt lat="43.4176" lon="5.859">
        <ele>332.75</ele>
        <time>2019-02-10T09:42:47Z</time>
      </trkpt>
      <trkpt lat="43.41783" lon="5.85902">
        <ele>335.16</ele>
        <time>2019-02-10T09:43:02Z</time>
      </trkpt>
      <trkpt lat="43.41807" lon="5.85907">
        <ele>338.04</ele>
        <time>2019-02-10T09:43:19Z</time>
      </trkpt>
      <trkpt lat="43.41826" lon="5.85906">
        <ele>339.48</ele>
        <time>2019-02-10T09:43:30Z</time>
      </trkpt>
      <trkpt lat="43.41828" lon="5.85905">
        <ele>339.48</ele>
        <time>2019-02-10T09:43:31Z</time>
      </trkpt>
      <trkpt lat="43.41841" lon="5.859">
        <ele>343.33</ele>
        <time>2019-02-10T09:43:43Z</time>
      </trkpt>
      <trkpt lat="43.41836" lon="5.85877">
        <ele>344.77</ele>
        <time>2019-02-10T09:43:56Z</time>
      </trkpt>
      <trkpt lat="43.41843" lon="5.85853">
        <ele>345.73</ele>
        <time>2019-02-10T09:44:06Z</time>
      </trkpt>
      <trkpt lat="43.41845" lon="5.85851">
        <ele>345.73</ele>
        <time>2019-02-10T09:44:07Z</time>
      </trkpt>
      <trkpt lat="43.41847" lon="5.8585">
        <ele>345.73</ele>
        <time>2019-02-10T09:44:08Z</time>
      </trkpt>
      <trkpt lat="43.41849" lon="5.85849">
        <ele>345.73</ele>
        <time>2019-02-10T09:44:09Z</time>
      </trkpt>
      <trkpt lat="43.41851" lon="5.85849">
        <ele>345.73</ele>
        <time>2019-02-10T09:44:10Z</time>
      </trkpt>
      <trkpt lat="43.41853" lon="5.85849">
        <ele>345.73</ele>
        <time>2019-02-10T09:44:11Z</time>
      </trkpt>
      <trkpt lat="43.41856" lon="5.85848">
        <ele>345.73</ele>
        <time>2019-02-10T09:44:12Z</time>
      </trkpt>
      <trkpt lat="43.41858" lon="5.85848">
        <ele>345.73</ele>
        <time>2019-02-10T09:44:13Z</time>
      </trkpt>
      <trkpt lat="43.41889" lon="5.85835">
        <ele>347.17</ele>
        <time>2019-02-10T09:44:28Z</time>
      </trkpt>
      <trkpt lat="43.41923" lon="5.8584">
        <ele>349.1</ele>
        <time>2019-02-10T09:44:46Z</time>
      </trkpt>
      <trkpt lat="43.41951" lon="5.8585">
        <ele>350.06</ele>
        <time>2019-02-10T09:45:01Z</time>
      </trkpt>
      <trkpt lat="43.41952" lon="5.85852">
        <ele>350.06</ele>
        <time>2019-02-10T09:45:02Z</time>
      </trkpt>
      <trkpt lat="43.41952" lon="5.85854">
        <ele>350.06</ele>
        <time>2019-02-10T09:45:03Z</time>
      </trkpt>
      <trkpt lat="43.41953" lon="5.85885">
        <ele>350.54</ele>
        <time>2019-02-10T09:45:18Z</time>
      </trkpt>
      <trkpt lat="43.41953" lon="5.85887">
        <ele>350.54</ele>
        <time>2019-02-10T09:45:19Z</time>
      </trkpt>
      <trkpt lat="43.41952" lon="5.85888">
        <ele>350.54</ele>
        <time>2019-02-10T09:45:20Z</time>
      </trkpt>
      <trkpt lat="43.41951" lon="5.8589">
        <ele>350.54</ele>
        <time>2019-02-10T09:45:21Z</time>
      </trkpt>
      <trkpt lat="43.4195" lon="5.85892">
        <ele>350.54</ele>
        <time>2019-02-10T09:45:22Z</time>
      </trkpt>
      <trkpt lat="43.4195" lon="5.85894">
        <ele>350.54</ele>
        <time>2019-02-10T09:45:23Z</time>
      </trkpt>
      <trkpt lat="43.4194" lon="5.85929">
        <ele>350.54</ele>
        <time>2019-02-10T09:45:37Z</time>
      </trkpt>
      <trkpt lat="43.41941" lon="5.85967">
        <ele>349.1</ele>
        <time>2019-02-10T09:45:50Z</time>
      </trkpt>
      <trkpt lat="43.41935" lon="5.86012">
        <ele>348.62</ele>
        <time>2019-02-10T09:46:03Z</time>
      </trkpt>
      <trkpt lat="43.41925" lon="5.86062">
        <ele>347.17</ele>
        <time>2019-02-10T09:46:16Z</time>
      </trkpt>
      <trkpt lat="43.41922" lon="5.86117">
        <ele>346.69</ele>
        <time>2019-02-10T09:46:28Z</time>
      </trkpt>
      <trkpt lat="43.41922" lon="5.86165">
        <ele>346.21</ele>
        <time>2019-02-10T09:46:37Z</time>
      </trkpt>
      <trkpt lat="43.41918" lon="5.86199">
        <ele>344.29</ele>
        <time>2019-02-10T09:46:44Z</time>
      </trkpt>
      <trkpt lat="43.41919" lon="5.86207">
        <ele>344.29</ele>
        <time>2019-02-10T09:46:46Z</time>
      </trkpt>
      <trkpt lat="43.4192" lon="5.86211">
        <ele>343.81</ele>
        <time>2019-02-10T09:46:47Z</time>
      </trkpt>
      <trkpt lat="43.41947" lon="5.8625">
        <ele>342.85</ele>
        <time>2019-02-10T09:46:58Z</time>
      </trkpt>
      <trkpt lat="43.41969" lon="5.86291">
        <ele>340.92</ele>
        <time>2019-02-10T09:47:08Z</time>
      </trkpt>
      <trkpt lat="43.42003" lon="5.86324">
        <ele>339</ele>
        <time>2019-02-10T09:47:20Z</time>
      </trkpt>
      <trkpt lat="43.4201" lon="5.86333">
        <ele>335.16</ele>
        <time>2019-02-10T09:47:24Z</time>
      </trkpt>
      <trkpt lat="43.42011" lon="5.86335">
        <ele>336.12</ele>
        <time>2019-02-10T09:47:25Z</time>
      </trkpt>
      <trkpt lat="43.42015" lon="5.86342">
        <ele>335.16</ele>
        <time>2019-02-10T09:47:28Z</time>
      </trkpt>
      <trkpt lat="43.42016" lon="5.86349">
        <ele>331.79</ele>
        <time>2019-02-10T09:47:31Z</time>
      </trkpt>
      <trkpt lat="43.42016" lon="5.86351">
        <ele>333.23</ele>
        <time>2019-02-10T09:47:32Z</time>
      </trkpt>
      <trkpt lat="43.42018" lon="5.86364">
        <ele>331.79</ele>
        <time>2019-02-10T09:47:36Z</time>
      </trkpt>
      <trkpt lat="43.42018" lon="5.86381">
        <ele>328.43</ele>
        <time>2019-02-10T09:47:44Z</time>
      </trkpt>
      <trkpt lat="43.42019" lon="5.86386">
        <ele>327.95</ele>
        <time>2019-02-10T09:47:46Z</time>
      </trkpt>
      <trkpt lat="43.42018" lon="5.86395">
        <ele>325.54</ele>
        <time>2019-02-10T09:47:50Z</time>
      </trkpt>
      <trkpt lat="43.42018" lon="5.86398">
        <ele>325.54</ele>
        <time>2019-02-10T09:47:51Z</time>
      </trkpt>
      <trkpt lat="43.42018" lon="5.86406">
        <ele>324.1</ele>
        <time>2019-02-10T09:47:53Z</time>
      </trkpt>
      <trkpt lat="43.42019" lon="5.86416">
        <ele>322.18</ele>
        <time>2019-02-10T09:47:56Z</time>
      </trkpt>
      <trkpt lat="43.42002" lon="5.86473">
        <ele>320.26</ele>
        <time>2019-02-10T09:48:08Z</time>
      </trkpt>
      <trkpt lat="43.41985" lon="5.86488">
        <ele>320.26</ele>
        <time>2019-02-10T09:48:26Z</time>
      </trkpt>
      <trkpt lat="43.41981" lon="5.86489">
        <ele>320.26</ele>
        <time>2019-02-10T09:48:48Z</time>
      </trkpt>
      <trkpt lat="43.4198" lon="5.86495">
        <ele>320.26</ele>
        <time>2019-02-10T09:49:14Z</time>
      </trkpt>
      <trkpt lat="43.41965" lon="5.86507">
        <ele>320.26</ele>
        <time>2019-02-10T09:49:27Z</time>
      </trkpt>
      <trkpt lat="43.41962" lon="5.86508">
        <ele>320.26</ele>
        <time>2019-02-10T09:49:31Z</time>
      </trkpt>
      <trkpt lat="43.41963" lon="5.86506">
        <ele>320.26</ele>
        <time>2019-02-10T09:49:32Z</time>
      </trkpt>
      <trkpt lat="43.41964" lon="5.86505">
        <ele>320.26</ele>
        <time>2019-02-10T09:49:33Z</time>
      </trkpt>
      <trkpt lat="43.41966" lon="5.86503">
        <ele>320.26</ele>
        <time>2019-02-10T09:49:34Z</time>
      </trkpt>
      <trkpt lat="43.41967" lon="5.86502">
        <ele>320.26</ele>
        <time>2019-02-10T09:49:35Z</time>
      </trkpt>
      <trkpt lat="43.41969" lon="5.86501">
        <ele>320.26</ele>
        <time>2019-02-10T09:49:36Z</time>
      </trkpt>
      <trkpt lat="43.4197" lon="5.865">
        <ele>320.26</ele>
        <time>2019-02-10T09:49:37Z</time>
      </trkpt>
      <trkpt lat="43.41971" lon="5.865">
        <ele>320.26</ele>
        <time>2019-02-10T09:49:38Z</time>
      </trkpt>
      <trkpt lat="43.41978" lon="5.86496">
        <ele>320.26</ele>
        <time>2019-02-10T09:49:48Z</time>
      </trkpt>
      <trkpt lat="43.4198" lon="5.86498">
        <ele>320.26</ele>
        <time>2019-02-10T09:49:52Z</time>
      </trkpt>
      <trkpt lat="43.41983" lon="5.86502">
        <ele>319.78</ele>
        <time>2019-02-10T09:50:02Z</time>
      </trkpt>
      <trkpt lat="43.41984" lon="5.86507">
        <ele>319.78</ele>
        <time>2019-02-10T09:50:17Z</time>
      </trkpt>
      <trkpt lat="43.41979" lon="5.86511">
        <ele>319.78</ele>
        <time>2019-02-10T09:50:22Z</time>
      </trkpt>
      <trkpt lat="43.41978" lon="5.86512">
        <ele>319.78</ele>
        <time>2019-02-10T09:50:23Z</time>
      </trkpt>
      <trkpt lat="43.41977" lon="5.86512">
        <ele>319.78</ele>
        <time>2019-02-10T09:50:24Z</time>
      </trkpt>
      <trkpt lat="43.41976" lon="5.86514">
        <ele>319.78</ele>
        <time>2019-02-10T09:50:25Z</time>
      </trkpt>
      <trkpt lat="43.41974" lon="5.86516">
        <ele>319.78</ele>
        <time>2019-02-10T09:50:26Z</time>
      </trkpt>
      <trkpt lat="43.41973" lon="5.86518">
        <ele>319.78</ele>
        <time>2019-02-10T09:50:27Z</time>
      </trkpt>
      <trkpt lat="43.41971" lon="5.86519">
        <ele>319.78</ele>
        <time>2019-02-10T09:50:28Z</time>
      </trkpt>
      <trkpt lat="43.4197" lon="5.86521">
        <ele>319.78</ele>
        <time>2019-02-10T09:50:29Z</time>
      </trkpt>
      <trkpt lat="43.41951" lon="5.86556">
        <ele>319.78</ele>
        <time>2019-02-10T09:50:42Z</time>
      </trkpt>
      <trkpt lat="43.4195" lon="5.86591">
        <ele>319.78</ele>
        <time>2019-02-10T09:50:51Z</time>
      </trkpt>
      <trkpt lat="43.41954" lon="5.86635">
        <ele>318.81</ele>
        <time>2019-02-10T09:51:03Z</time>
      </trkpt>
      <trkpt lat="43.4197" lon="5.8669">
        <ele>317.37</ele>
        <time>2019-02-10T09:51:15Z</time>
      </trkpt>
      <trkpt lat="43.41972" lon="5.86695">
        <ele>317.37</ele>
        <time>2019-02-10T09:51:16Z</time>
      </trkpt>
      <trkpt lat="43.42009" lon="5.86746">
        <ele>316.89</ele>
        <time>2019-02-10T09:51:30Z</time>
      </trkpt>
      <trkpt lat="43.42035" lon="5.86765">
        <ele>316.89</ele>
        <time>2019-02-10T09:51:39Z</time>
      </trkpt>
      <trkpt lat="43.42058" lon="5.8681">
        <ele>316.41</ele>
        <time>2019-02-10T09:51:50Z</time>
      </trkpt>
      <trkpt lat="43.42077" lon="5.86857">
        <ele>316.89</ele>
        <time>2019-02-10T09:52:03Z</time>
      </trkpt>
      <trkpt lat="43.42106" lon="5.86897">
        <ele>316.89</ele>
        <time>2019-02-10T09:52:16Z</time>
      </trkpt>
      <trkpt lat="43.42132" lon="5.86896">
        <ele>317.37</ele>
        <time>2019-02-10T09:52:27Z</time>
      </trkpt>
      <trkpt lat="43.42172" lon="5.86903">
        <ele>317.85</ele>
        <time>2019-02-10T09:52:41Z</time>
      </trkpt>
      <trkpt lat="43.42208" lon="5.86906">
        <ele>317.85</ele>
        <time>2019-02-10T09:52:54Z</time>
      </trkpt>
      <trkpt lat="43.4221" lon="5.8691">
        <ele>317.85</ele>
        <time>2019-02-10T09:53:00Z</time>
      </trkpt>
      <trkpt lat="43.42209" lon="5.86911">
        <ele>317.85</ele>
        <time>2019-02-10T09:53:01Z</time>
      </trkpt>
      <trkpt lat="43.42188" lon="5.86942">
        <ele>317.37</ele>
        <time>2019-02-10T09:53:16Z</time>
      </trkpt>
      <trkpt lat="43.42157" lon="5.86979">
        <ele>316.41</ele>
        <time>2019-02-10T09:53:25Z</time>
      </trkpt>
      <trkpt lat="43.42114" lon="5.87014">
        <ele>315.93</ele>
        <time>2019-02-10T09:53:37Z</time>
      </trkpt>
      <trkpt lat="43.4211" lon="5.87016">
        <ele>315.93</ele>
        <time>2019-02-10T09:53:38Z</time>
      </trkpt>
      <trkpt lat="43.42078" lon="5.87003">
        <ele>315.93</ele>
        <time>2019-02-10T09:53:47Z</time>
      </trkpt>
      <trkpt lat="43.4207" lon="5.8699">
        <ele>315.93</ele>
        <time>2019-02-10T09:53:50Z</time>
      </trkpt>
      <trkpt lat="43.42031" lon="5.86925">
        <ele>316.89</ele>
        <time>2019-02-10T09:54:06Z</time>
      </trkpt>
      <trkpt lat="43.4199" lon="5.86866">
        <ele>317.85</ele>
        <time>2019-02-10T09:54:22Z</time>
      </trkpt>
      <trkpt lat="43.4195" lon="5.86857">
        <ele>318.81</ele>
        <time>2019-02-10T09:54:34Z</time>
      </trkpt>
      <trkpt lat="43.41892" lon="5.86859">
        <ele>319.3</ele>
        <time>2019-02-10T09:54:49Z</time>
      </trkpt>
      <trkpt lat="43.4185" lon="5.86879">
        <ele>320.26</ele>
        <time>2019-02-10T09:55:02Z</time>
      </trkpt>
      <trkpt lat="43.4181" lon="5.86914">
        <ele>320.74</ele>
        <time>2019-02-10T09:55:18Z</time>
      </trkpt>
      <trkpt lat="43.41779" lon="5.86968">
        <ele>321.7</ele>
        <time>2019-02-10T09:55:31Z</time>
      </trkpt>
      <trkpt lat="43.41757" lon="5.87002">
        <ele>322.66</ele>
        <time>2019-02-10T09:55:42Z</time>
      </trkpt>
      <trkpt lat="43.41717" lon="5.87003">
        <ele>323.14</ele>
        <time>2019-02-10T09:55:54Z</time>
      </trkpt>
      <trkpt lat="43.41627" lon="5.87005">
        <ele>324.1</ele>
        <time>2019-02-10T09:56:10Z</time>
      </trkpt>
      <trkpt lat="43.41569" lon="5.87001">
        <ele>324.1</ele>
        <time>2019-02-10T09:56:21Z</time>
      </trkpt>
      <trkpt lat="43.41527" lon="5.86976">
        <ele>324.58</ele>
        <time>2019-02-10T09:56:32Z</time>
      </trkpt>
      <trkpt lat="43.41469" lon="5.86934">
        <ele>326.02</ele>
        <time>2019-02-10T09:56:46Z</time>
      </trkpt>
      <trkpt lat="43.41432" lon="5.86931">
        <ele>326.02</ele>
        <time>2019-02-10T09:56:56Z</time>
      </trkpt>
      <trkpt lat="43.41383" lon="5.86941">
        <ele>326.5</ele>
        <time>2019-02-10T09:57:09Z</time>
      </trkpt>
      <trkpt lat="43.41327" lon="5.8693">
        <ele>326.99</ele>
        <time>2019-02-10T09:57:23Z</time>
      </trkpt>
      <trkpt lat="43.41285" lon="5.86886">
        <ele>327.95</ele>
        <time>2019-02-10T09:57:34Z</time>
      </trkpt>
      <trkpt lat="43.41249" lon="5.86818">
        <ele>328.43</ele>
        <time>2019-02-10T09:57:47Z</time>
      </trkpt>
      <trkpt lat="43.41226" lon="5.86764">
        <ele>329.87</ele>
        <time>2019-02-10T09:58:00Z</time>
      </trkpt>
      <trkpt lat="43.41207" lon="5.8669">
        <ele>331.79</ele>
        <time>2019-02-10T09:58:14Z</time>
      </trkpt>
      <trkpt lat="43.4117" lon="5.86669">
        <ele>332.27</ele>
        <time>2019-02-10T09:58:25Z</time>
      </trkpt>
      <trkpt lat="43.41121" lon="5.86686">
        <ele>332.75</ele>
        <time>2019-02-10T09:58:40Z</time>
      </trkpt>
      <trkpt lat="43.41097" lon="5.86737">
        <ele>333.23</ele>
        <time>2019-02-10T09:58:51Z</time>
      </trkpt>
      <trkpt lat="43.41088" lon="5.86768">
        <ele>333.23</ele>
        <time>2019-02-10T09:58:58Z</time>
      </trkpt>
      <trkpt lat="43.41085" lon="5.8677">
        <ele>333.23</ele>
        <time>2019-02-10T09:58:59Z</time>
      </trkpt>
      <trkpt lat="43.41037" lon="5.86762">
        <ele>333.71</ele>
        <time>2019-02-10T09:59:14Z</time>
      </trkpt>
      <trkpt lat="43.41011" lon="5.86761">
        <ele>333.71</ele>
        <time>2019-02-10T09:59:25Z</time>
      </trkpt>
      <trkpt lat="43.41009" lon="5.8676">
        <ele>333.71</ele>
        <time>2019-02-10T09:59:26Z</time>
      </trkpt>
      <trkpt lat="43.41008" lon="5.86759">
        <ele>333.71</ele>
        <time>2019-02-10T09:59:27Z</time>
      </trkpt>
      <trkpt lat="43.41003" lon="5.86754">
        <ele>333.71</ele>
        <time>2019-02-10T09:59:34Z</time>
      </trkpt>
      <trkpt lat="43.40998" lon="5.86752">
        <ele>334.2</ele>
        <time>2019-02-10T09:59:43Z</time>
      </trkpt>
      <trkpt lat="43.40997" lon="5.86751">
        <ele>334.2</ele>
        <time>2019-02-10T09:59:44Z</time>
      </trkpt>
      <trkpt lat="43.40995" lon="5.8675">
        <ele>334.2</ele>
        <time>2019-02-10T09:59:45Z</time>
      </trkpt>
      <trkpt lat="43.40994" lon="5.86748">
        <ele>334.2</ele>
        <time>2019-02-10T09:59:46Z</time>
      </trkpt>
      <trkpt lat="43.40992" lon="5.86747">
        <ele>334.2</ele>
        <time>2019-02-10T09:59:47Z</time>
      </trkpt>
      <trkpt lat="43.40991" lon="5.86744">
        <ele>334.2</ele>
        <time>2019-02-10T09:59:48Z</time>
      </trkpt>
      <trkpt lat="43.4099" lon="5.86742">
        <ele>334.68</ele>
        <time>2019-02-10T09:59:49Z</time>
      </trkpt>
      <trkpt lat="43.40968" lon="5.86693">
        <ele>334.68</ele>
        <time>2019-02-10T10:00:05Z</time>
      </trkpt>
      <trkpt lat="43.40947" lon="5.86662">
        <ele>332.75</ele>
        <time>2019-02-10T10:00:14Z</time>
      </trkpt>
      <trkpt lat="43.40914" lon="5.86641">
        <ele>332.75</ele>
        <time>2019-02-10T10:00:26Z</time>
      </trkpt>
      <trkpt lat="43.40872" lon="5.86657">
        <ele>333.71</ele>
        <time>2019-02-10T10:00:41Z</time>
      </trkpt>
      <trkpt lat="43.40831" lon="5.86671">
        <ele>334.2</ele>
        <time>2019-02-10T10:00:54Z</time>
      </trkpt>
      <trkpt lat="43.4081" lon="5.86675">
        <ele>334.2</ele>
        <time>2019-02-10T10:01:05Z</time>
      </trkpt>
      <trkpt lat="43.40802" lon="5.86675">
        <ele>334.68</ele>
        <time>2019-02-10T10:01:11Z</time>
      </trkpt>
      <trkpt lat="43.40793" lon="5.86679">
        <ele>334.68</ele>
        <time>2019-02-10T10:01:23Z</time>
      </trkpt>
      <trkpt lat="43.40784" lon="5.86685">
        <ele>335.16</ele>
        <time>2019-02-10T10:01:31Z</time>
      </trkpt>
      <trkpt lat="43.40777" lon="5.86688">
        <ele>335.16</ele>
        <time>2019-02-10T10:01:35Z</time>
      </trkpt>
      <trkpt lat="43.40775" lon="5.86689">
        <ele>335.16</ele>
        <time>2019-02-10T10:01:36Z</time>
      </trkpt>
      <trkpt lat="43.40773" lon="5.86691">
        <ele>335.64</ele>
        <time>2019-02-10T10:01:37Z</time>
      </trkpt>
      <trkpt lat="43.40771" lon="5.86693">
        <ele>335.64</ele>
        <time>2019-02-10T10:01:38Z</time>
      </trkpt>
      <trkpt lat="43.40769" lon="5.86695">
        <ele>335.64</ele>
        <time>2019-02-10T10:01:39Z</time>
      </trkpt>
      <trkpt lat="43.40767" lon="5.86697">
        <ele>335.64</ele>
        <time>2019-02-10T10:01:40Z</time>
      </trkpt>
      <trkpt lat="43.4075" lon="5.86721">
        <ele>336.12</ele>
        <time>2019-02-10T10:01:52Z</time>
      </trkpt>
      <trkpt lat="43.40741" lon="5.86729">
        <ele>336.6</ele>
        <time>2019-02-10T10:01:57Z</time>
      </trkpt>
      <trkpt lat="43.40738" lon="5.8673">
        <ele>336.6</ele>
        <time>2019-02-10T10:01:58Z</time>
      </trkpt>
      <trkpt lat="43.40735" lon="5.8673">
        <ele>336.6</ele>
        <time>2019-02-10T10:01:59Z</time>
      </trkpt>
      <trkpt lat="43.40693" lon="5.8672">
        <ele>336.6</ele>
        <time>2019-02-10T10:02:10Z</time>
      </trkpt>
      <trkpt lat="43.4065" lon="5.86711">
        <ele>337.08</ele>
        <time>2019-02-10T10:02:22Z</time>
      </trkpt>
      <trkpt lat="43.40606" lon="5.86688">
        <ele>337.56</ele>
        <time>2019-02-10T10:02:38Z</time>
      </trkpt>
      <trkpt lat="43.40584" lon="5.86676">
        <ele>338.04</ele>
        <time>2019-02-10T10:02:48Z</time>
      </trkpt>
      <trkpt lat="43.40582" lon="5.86675">
        <ele>339</ele>
        <time>2019-02-10T10:02:49Z</time>
      </trkpt>
      <trkpt lat="43.4058" lon="5.86673">
        <ele>339</ele>
        <time>2019-02-10T10:02:50Z</time>
      </trkpt>
      <trkpt lat="43.40563" lon="5.86653">
        <ele>340.92</ele>
        <time>2019-02-10T10:03:03Z</time>
      </trkpt>
      <trkpt lat="43.40561" lon="5.8665">
        <ele>341.41</ele>
        <time>2019-02-10T10:03:05Z</time>
      </trkpt>
      <trkpt lat="43.40558" lon="5.86647">
        <ele>342.85</ele>
        <time>2019-02-10T10:03:07Z</time>
      </trkpt>
      <trkpt lat="43.40557" lon="5.86644">
        <ele>342.85</ele>
        <time>2019-02-10T10:03:08Z</time>
      </trkpt>
      <trkpt lat="43.40544" lon="5.86618">
        <ele>346.21</ele>
        <time>2019-02-10T10:03:18Z</time>
      </trkpt>
      <trkpt lat="43.4054" lon="5.86611">
        <ele>347.17</ele>
        <time>2019-02-10T10:03:21Z</time>
      </trkpt>
      <trkpt lat="43.40519" lon="5.86595">
        <ele>350.54</ele>
        <time>2019-02-10T10:03:32Z</time>
      </trkpt>
      <trkpt lat="43.40517" lon="5.86592">
        <ele>350.54</ele>
        <time>2019-02-10T10:03:34Z</time>
      </trkpt>
      <trkpt lat="43.4051" lon="5.86585">
        <ele>351.5</ele>
        <time>2019-02-10T10:03:40Z</time>
      </trkpt>
      <trkpt lat="43.40508" lon="5.86584">
        <ele>351.5</ele>
        <time>2019-02-10T10:03:41Z</time>
      </trkpt>
      <trkpt lat="43.40506" lon="5.86582">
        <ele>351.98</ele>
        <time>2019-02-10T10:03:42Z</time>
      </trkpt>
      <trkpt lat="43.40505" lon="5.86581">
        <ele>351.98</ele>
        <time>2019-02-10T10:03:43Z</time>
      </trkpt>
      <trkpt lat="43.40503" lon="5.86579">
        <ele>351.98</ele>
        <time>2019-02-10T10:03:44Z</time>
      </trkpt>
      <trkpt lat="43.40472" lon="5.86564">
        <ele>353.42</ele>
        <time>2019-02-10T10:03:58Z</time>
      </trkpt>
      <trkpt lat="43.4047" lon="5.8656">
        <ele>352.94</ele>
        <time>2019-02-10T10:04:16Z</time>
      </trkpt>
      <trkpt lat="43.40472" lon="5.86558">
        <ele>352.94</ele>
        <time>2019-02-10T10:04:23Z</time>
      </trkpt>
      <trkpt lat="43.40491" lon="5.86529">
        <ele>352.94</ele>
        <time>2019-02-10T10:04:34Z</time>
      </trkpt>
      <trkpt lat="43.40532" lon="5.86476">
        <ele>352.94</ele>
        <time>2019-02-10T10:04:52Z</time>
      </trkpt>
      <trkpt lat="43.40573" lon="5.86422">
        <ele>352.46</ele>
        <time>2019-02-10T10:05:10Z</time>
      </trkpt>
      <trkpt lat="43.40617" lon="5.86364">
        <ele>352.46</ele>
        <time>2019-02-10T10:05:30Z</time>
      </trkpt>
      <trkpt lat="43.40651" lon="5.86308">
        <ele>351.98</ele>
        <time>2019-02-10T10:05:47Z</time>
      </trkpt>
      <trkpt lat="43.40688" lon="5.86242">
        <ele>351.98</ele>
        <time>2019-02-10T10:06:06Z</time>
      </trkpt>
      <trkpt lat="43.40728" lon="5.86171">
        <ele>351.98</ele>
        <time>2019-02-10T10:06:25Z</time>
      </trkpt>
      <trkpt lat="43.40765" lon="5.86101">
        <ele>351.5</ele>
        <time>2019-02-10T10:06:44Z</time>
      </trkpt>
      <trkpt lat="43.40804" lon="5.86047">
        <ele>351.5</ele>
        <time>2019-02-10T10:07:02Z</time>
      </trkpt>
      <trkpt lat="43.40819" lon="5.86034">
        <ele>351.5</ele>
        <time>2019-02-10T10:07:12Z</time>
      </trkpt>
      <trkpt lat="43.40825" lon="5.86035">
        <ele>352.46</ele>
        <time>2019-02-10T10:07:23Z</time>
      </trkpt>
      <trkpt lat="43.40826" lon="5.86034">
        <ele>352.46</ele>
        <time>2019-02-10T10:07:24Z</time>
      </trkpt>
      <trkpt lat="43.40831" lon="5.86029">
        <ele>352.46</ele>
        <time>2019-02-10T10:07:27Z</time>
      </trkpt>
      <trkpt lat="43.40856" lon="5.85998">
        <ele>352.46</ele>
        <time>2019-02-10T10:07:37Z</time>
      </trkpt>
      <trkpt lat="43.40861" lon="5.85992">
        <ele>354.86</ele>
        <time>2019-02-10T10:07:39Z</time>
      </trkpt>
      <trkpt lat="43.40864" lon="5.85991">
        <ele>354.86</ele>
        <time>2019-02-10T10:07:40Z</time>
      </trkpt>
      <trkpt lat="43.40875" lon="5.85985">
        <ele>355.34</ele>
        <time>2019-02-10T10:07:45Z</time>
      </trkpt>
      <trkpt lat="43.40896" lon="5.85964">
        <ele>358.23</ele>
        <time>2019-02-10T10:08:01Z</time>
      </trkpt>
      <trkpt lat="43.40927" lon="5.85943">
        <ele>356.79</ele>
        <time>2019-02-10T10:08:18Z</time>
      </trkpt>
      <trkpt lat="43.40961" lon="5.8594">
        <ele>353.42</ele>
        <time>2019-02-10T10:08:30Z</time>
      </trkpt>
      <trkpt lat="43.40995" lon="5.85928">
        <ele>352.94</ele>
        <time>2019-02-10T10:08:42Z</time>
      </trkpt>
      <trkpt lat="43.41028" lon="5.85942">
        <ele>352.46</ele>
        <time>2019-02-10T10:08:55Z</time>
      </trkpt>
      <trkpt lat="43.41065" lon="5.85959">
        <ele>352.46</ele>
        <time>2019-02-10T10:09:10Z</time>
      </trkpt>
      <trkpt lat="43.41104" lon="5.85993">
        <ele>353.9</ele>
        <time>2019-02-10T10:09:25Z</time>
      </trkpt>
      <trkpt lat="43.41116" lon="5.86004">
        <ele>352.46</ele>
        <time>2019-02-10T10:09:31Z</time>
      </trkpt>
      <trkpt lat="43.41118" lon="5.86004">
        <ele>352.46</ele>
        <time>2019-02-10T10:09:32Z</time>
      </trkpt>
      <trkpt lat="43.41148" lon="5.86017">
        <ele>351.98</ele>
        <time>2019-02-10T10:09:44Z</time>
      </trkpt>
      <trkpt lat="43.41164" lon="5.86028">
        <ele>353.42</ele>
        <time>2019-02-10T10:09:50Z</time>
      </trkpt>
      <trkpt lat="43.412" lon="5.86051">
        <ele>355.83</ele>
        <time>2019-02-10T10:10:05Z</time>
      </trkpt>
      <trkpt lat="43.41209" lon="5.86072">
        <ele>356.31</ele>
        <time>2019-02-10T10:10:14Z</time>
      </trkpt>
      <trkpt lat="43.41211" lon="5.86075">
        <ele>356.31</ele>
        <time>2019-02-10T10:10:15Z</time>
      </trkpt>
      <trkpt lat="43.41213" lon="5.86078">
        <ele>356.31</ele>
        <time>2019-02-10T10:10:16Z</time>
      </trkpt>
      <trkpt lat="43.41214" lon="5.86081">
        <ele>356.31</ele>
        <time>2019-02-10T10:10:17Z</time>
      </trkpt>
      <trkpt lat="43.41216" lon="5.86085">
        <ele>356.31</ele>
        <time>2019-02-10T10:10:18Z</time>
      </trkpt>
      <trkpt lat="43.41217" lon="5.86088">
        <ele>356.31</ele>
        <time>2019-02-10T10:10:19Z</time>
      </trkpt>
      <trkpt lat="43.41218" lon="5.86091">
        <ele>356.79</ele>
        <time>2019-02-10T10:10:20Z</time>
      </trkpt>
      <trkpt lat="43.41219" lon="5.86094">
        <ele>356.79</ele>
        <time>2019-02-10T10:10:21Z</time>
      </trkpt>
      <trkpt lat="43.41245" lon="5.8614">
        <ele>356.79</ele>
        <time>2019-02-10T10:10:35Z</time>
      </trkpt>
      <trkpt lat="43.41275" lon="5.86174">
        <ele>356.79</ele>
        <time>2019-02-10T10:10:46Z</time>
      </trkpt>
      <trkpt lat="43.41322" lon="5.86203">
        <ele>358.23</ele>
        <time>2019-02-10T10:11:01Z</time>
      </trkpt>
      <trkpt lat="43.41353" lon="5.86214">
        <ele>356.79</ele>
        <time>2019-02-10T10:11:12Z</time>
      </trkpt>
      <trkpt lat="43.41388" lon="5.86234">
        <ele>353.9</ele>
        <time>2019-02-10T10:11:25Z</time>
      </trkpt>
      <trkpt lat="43.4141" lon="5.86247">
        <ele>351.02</ele>
        <time>2019-02-10T10:11:34Z</time>
      </trkpt>
      <trkpt lat="43.41442" lon="5.86261">
        <ele>348.62</ele>
        <time>2019-02-10T10:11:45Z</time>
      </trkpt>
      <trkpt lat="43.41479" lon="5.86249">
        <ele>347.65</ele>
        <time>2019-02-10T10:11:57Z</time>
      </trkpt>
      <trkpt lat="43.41522" lon="5.8619">
        <ele>344.29</ele>
        <time>2019-02-10T10:12:10Z</time>
      </trkpt>
      <trkpt lat="43.4154" lon="5.86142">
        <ele>341.41</ele>
        <time>2019-02-10T10:12:18Z</time>
      </trkpt>
      <trkpt lat="43.41548" lon="5.86123">
        <ele>339.48</ele>
        <time>2019-02-10T10:12:21Z</time>
      </trkpt>
      <trkpt lat="43.41559" lon="5.86092">
        <ele>336.12</ele>
        <time>2019-02-10T10:12:27Z</time>
      </trkpt>
      <trkpt lat="43.4156" lon="5.86086">
        <ele>336.12</ele>
        <time>2019-02-10T10:12:28Z</time>
      </trkpt>
      <trkpt lat="43.41563" lon="5.86065">
        <ele>334.68</ele>
        <time>2019-02-10T10:12:32Z</time>
      </trkpt>
      <trkpt lat="43.41571" lon="5.8602">
        <ele>331.31</ele>
        <time>2019-02-10T10:12:42Z</time>
      </trkpt>
      <trkpt lat="43.41572" lon="5.86018">
        <ele>330.83</ele>
        <time>2019-02-10T10:12:43Z</time>
      </trkpt>
      <trkpt lat="43.41581" lon="5.85996">
        <ele>329.39</ele>
        <time>2019-02-10T10:12:55Z</time>
      </trkpt>
      <trkpt lat="43.41585" lon="5.85953">
        <ele>326.02</ele>
        <time>2019-02-10T10:13:09Z</time>
      </trkpt>
      <trkpt lat="43.41587" lon="5.85932">
        <ele>323.62</ele>
        <time>2019-02-10T10:13:13Z</time>
      </trkpt>
      <trkpt lat="43.4159" lon="5.85927">
        <ele>323.62</ele>
        <time>2019-02-10T10:13:14Z</time>
      </trkpt>
      <trkpt lat="43.41608" lon="5.85907">
        <ele>322.18</ele>
        <time>2019-02-10T10:13:24Z</time>
      </trkpt>
      <trkpt lat="43.41614" lon="5.85903">
        <ele>321.7</ele>
        <time>2019-02-10T10:13:37Z</time>
      </trkpt>
      <trkpt lat="43.41623" lon="5.85896">
        <ele>321.7</ele>
        <time>2019-02-10T10:13:50Z</time>
      </trkpt>
      <trkpt lat="43.41639" lon="5.85884">
        <ele>323.14</ele>
        <time>2019-02-10T10:14:09Z</time>
      </trkpt>
      <trkpt lat="43.4165" lon="5.85878">
        <ele>324.58</ele>
        <time>2019-02-10T10:14:22Z</time>
      </trkpt>
      <trkpt lat="43.41662" lon="5.85886">
        <ele>325.54</ele>
        <time>2019-02-10T10:14:34Z</time>
      </trkpt>
      <trkpt lat="43.41675" lon="5.85901">
        <ele>326.5</ele>
        <time>2019-02-10T10:14:50Z</time>
      </trkpt>
      <trkpt lat="43.41691" lon="5.85907">
        <ele>326.5</ele>
        <time>2019-02-10T10:15:07Z</time>
      </trkpt>
      <trkpt lat="43.41709" lon="5.85907">
        <ele>327.47</ele>
        <time>2019-02-10T10:15:26Z</time>
      </trkpt>
      <trkpt lat="43.41725" lon="5.85906">
        <ele>329.39</ele>
        <time>2019-02-10T10:15:46Z</time>
      </trkpt>
      <trkpt lat="43.41742" lon="5.85904">
        <ele>330.35</ele>
        <time>2019-02-10T10:16:04Z</time>
      </trkpt>
      <trkpt lat="43.41757" lon="5.85903">
        <ele>332.27</ele>
        <time>2019-02-10T10:16:22Z</time>
      </trkpt>
      <trkpt lat="43.41773" lon="5.85901">
        <ele>333.71</ele>
        <time>2019-02-10T10:16:39Z</time>
      </trkpt>
      <trkpt lat="43.4179" lon="5.85902">
        <ele>334.68</ele>
        <time>2019-02-10T10:16:55Z</time>
      </trkpt>
      <trkpt lat="43.41806" lon="5.85906">
        <ele>336.6</ele>
        <time>2019-02-10T10:17:13Z</time>
      </trkpt>
      <trkpt lat="43.41825" lon="5.8591">
        <ele>338.04</ele>
        <time>2019-02-10T10:17:32Z</time>
      </trkpt>
      <trkpt lat="43.41843" lon="5.8591">
        <ele>339.48</ele>
        <time>2019-02-10T10:17:50Z</time>
      </trkpt>
      <trkpt lat="43.41856" lon="5.85902">
        <ele>341.41</ele>
        <time>2019-02-10T10:18:05Z</time>
      </trkpt>
      <trkpt lat="43.41856" lon="5.85886">
        <ele>343.33</ele>
        <time>2019-02-10T10:18:20Z</time>
      </trkpt>
      <trkpt lat="43.41851" lon="5.85876">
        <ele>344.29</ele>
        <time>2019-02-10T10:18:30Z</time>
      </trkpt>
      <trkpt lat="43.41844" lon="5.85865">
        <ele>345.73</ele>
        <time>2019-02-10T10:18:41Z</time>
      </trkpt>
      <trkpt lat="43.41844" lon="5.85863">
        <ele>345.73</ele>
        <time>2019-02-10T10:18:42Z</time>
      </trkpt>
      <trkpt lat="43.41844" lon="5.85851">
        <ele>346.21</ele>
        <time>2019-02-10T10:18:51Z</time>
      </trkpt>
      <trkpt lat="43.41852" lon="5.85833">
        <ele>346.21</ele>
        <time>2019-02-10T10:19:07Z</time>
      </trkpt>
      <trkpt lat="43.41876" lon="5.8583">
        <ele>346.69</ele>
        <time>2019-02-10T10:19:21Z</time>
      </trkpt>
      <trkpt lat="43.41915" lon="5.85832">
        <ele>348.62</ele>
        <time>2019-02-10T10:19:38Z</time>
      </trkpt>
      <trkpt lat="43.41953" lon="5.85851">
        <ele>350.06</ele>
        <time>2019-02-10T10:19:54Z</time>
      </trkpt>
      <trkpt lat="43.41988" lon="5.85867">
        <ele>350.54</ele>
        <time>2019-02-10T10:20:08Z</time>
      </trkpt>
      <trkpt lat="43.4201" lon="5.85874">
        <ele>349.1</ele>
        <time>2019-02-10T10:20:14Z</time>
      </trkpt>
      <trkpt lat="43.42055" lon="5.85894">
        <ele>348.62</ele>
        <time>2019-02-10T10:20:28Z</time>
      </trkpt>
      <trkpt lat="43.42087" lon="5.85907">
        <ele>348.62</ele>
        <time>2019-02-10T10:20:38Z</time>
      </trkpt>
      <trkpt lat="43.42112" lon="5.85919">
        <ele>348.13</ele>
        <time>2019-02-10T10:20:44Z</time>
      </trkpt>
      <trkpt lat="43.42116" lon="5.8592">
        <ele>348.13</ele>
        <time>2019-02-10T10:20:45Z</time>
      </trkpt>
      <trkpt lat="43.4212" lon="5.85921">
        <ele>348.13</ele>
        <time>2019-02-10T10:20:46Z</time>
      </trkpt>
      <trkpt lat="43.42124" lon="5.85922">
        <ele>348.13</ele>
        <time>2019-02-10T10:20:47Z</time>
      </trkpt>
      <trkpt lat="43.42128" lon="5.85922">
        <ele>348.13</ele>
        <time>2019-02-10T10:20:48Z</time>
      </trkpt>
      <trkpt lat="43.42132" lon="5.85923">
        <ele>348.13</ele>
        <time>2019-02-10T10:20:49Z</time>
      </trkpt>
      <trkpt lat="43.42178" lon="5.85928">
        <ele>349.58</ele>
        <time>2019-02-10T10:21:02Z</time>
      </trkpt>
      <trkpt lat="43.42237" lon="5.85921">
        <ele>347.65</ele>
        <time>2019-02-10T10:21:17Z</time>
      </trkpt>
      <trkpt lat="43.42277" lon="5.85904">
        <ele>347.65</ele>
        <time>2019-02-10T10:21:28Z</time>
      </trkpt>
      <trkpt lat="43.42296" lon="5.85895">
        <ele>349.1</ele>
        <time>2019-02-10T10:21:34Z</time>
      </trkpt>
      <trkpt lat="43.4234" lon="5.85871">
        <ele>351.02</ele>
        <time>2019-02-10T10:21:50Z</time>
      </trkpt>
      <trkpt lat="43.42385" lon="5.85846">
        <ele>351.02</ele>
        <time>2019-02-10T10:22:08Z</time>
      </trkpt>
      <trkpt lat="43.42391" lon="5.85842">
        <ele>349.58</ele>
        <time>2019-02-10T10:22:10Z</time>
      </trkpt>
      <trkpt lat="43.42435" lon="5.8581">
        <ele>348.13</ele>
        <time>2019-02-10T10:22:22Z</time>
      </trkpt>
      <trkpt lat="43.42452" lon="5.85801">
        <ele>347.65</ele>
        <time>2019-02-10T10:22:25Z</time>
      </trkpt>
      <trkpt lat="43.42508" lon="5.85775">
        <ele>347.65</ele>
        <time>2019-02-10T10:22:38Z</time>
      </trkpt>
      <trkpt lat="43.42519" lon="5.85768">
        <ele>349.1</ele>
        <time>2019-02-10T10:22:41Z</time>
      </trkpt>
      <trkpt lat="43.4256" lon="5.8574">
        <ele>350.06</ele>
        <time>2019-02-10T10:22:53Z</time>
      </trkpt>
      <trkpt lat="43.42565" lon="5.85737">
        <ele>350.06</ele>
        <time>2019-02-10T10:22:54Z</time>
      </trkpt>
      <trkpt lat="43.42575" lon="5.85731">
        <ele>350.06</ele>
        <time>2019-02-10T10:22:56Z</time>
      </trkpt>
      <trkpt lat="43.42581" lon="5.85729">
        <ele>348.62</ele>
        <time>2019-02-10T10:22:57Z</time>
      </trkpt>
      <trkpt lat="43.42588" lon="5.85726">
        <ele>348.62</ele>
        <time>2019-02-10T10:22:58Z</time>
      </trkpt>
      <trkpt lat="43.42669" lon="5.85713">
        <ele>345.73</ele>
        <time>2019-02-10T10:23:10Z</time>
      </trkpt>
      <trkpt lat="43.42687" lon="5.85712">
        <ele>347.17</ele>
        <time>2019-02-10T10:23:14Z</time>
      </trkpt>
      <trkpt lat="43.42706" lon="5.8571">
        <ele>347.65</ele>
        <time>2019-02-10T10:23:19Z</time>
      </trkpt>
      <trkpt lat="43.4275" lon="5.85714">
        <ele>348.13</ele>
        <time>2019-02-10T10:23:29Z</time>
      </trkpt>
      <trkpt lat="43.42817" lon="5.85725">
        <ele>348.62</ele>
        <time>2019-02-10T10:23:46Z</time>
      </trkpt>
      <trkpt lat="43.42843" lon="5.85729">
        <ele>349.1</ele>
        <time>2019-02-10T10:23:54Z</time>
      </trkpt>
      <trkpt lat="43.42846" lon="5.85725">
        <ele>349.1</ele>
        <time>2019-02-10T10:23:55Z</time>
      </trkpt>
      <trkpt lat="43.42848" lon="5.85723">
        <ele>349.1</ele>
        <time>2019-02-10T10:23:56Z</time>
      </trkpt>
      <trkpt lat="43.42883" lon="5.85661">
        <ele>350.54</ele>
        <time>2019-02-10T10:24:13Z</time>
      </trkpt>
      <trkpt lat="43.42912" lon="5.85622">
        <ele>353.42</ele>
        <time>2019-02-10T10:24:26Z</time>
      </trkpt>
      <trkpt lat="43.42953" lon="5.85587">
        <ele>354.86</ele>
        <time>2019-02-10T10:24:42Z</time>
      </trkpt>
      <trkpt lat="43.42987" lon="5.8555">
        <ele>354.86</ele>
        <time>2019-02-10T10:24:54Z</time>
      </trkpt>
      <trkpt lat="43.42994" lon="5.85541">
        <ele>353.42</ele>
        <time>2019-02-10T10:24:56Z</time>
      </trkpt>
      <trkpt lat="43.42997" lon="5.85536">
        <ele>353.42</ele>
        <time>2019-02-10T10:24:57Z</time>
      </trkpt>
      <trkpt lat="43.43038" lon="5.85471">
        <ele>351.5</ele>
        <time>2019-02-10T10:25:09Z</time>
      </trkpt>
      <trkpt lat="43.43092" lon="5.85386">
        <ele>351.02</ele>
        <time>2019-02-10T10:25:27Z</time>
      </trkpt>
      <trkpt lat="43.43125" lon="5.85368">
        <ele>351.02</ele>
        <time>2019-02-10T10:25:38Z</time>
      </trkpt>
      <trkpt lat="43.43188" lon="5.8541">
        <ele>350.06</ele>
        <time>2019-02-10T10:25:52Z</time>
      </trkpt>
      <trkpt lat="43.43241" lon="5.85433">
        <ele>349.58</ele>
        <time>2019-02-10T10:26:05Z</time>
      </trkpt>
      <trkpt lat="43.43278" lon="5.85448">
        <ele>351.02</ele>
        <time>2019-02-10T10:26:15Z</time>
      </trkpt>
      <trkpt lat="43.43325" lon="5.85468">
        <ele>353.9</ele>
        <time>2019-02-10T10:26:31Z</time>
      </trkpt>
      <trkpt lat="43.43369" lon="5.85485">
        <ele>355.34</ele>
        <time>2019-02-10T10:26:47Z</time>
      </trkpt>
      <trkpt lat="43.43419" lon="5.85507">
        <ele>357.27</ele>
        <time>2019-02-10T10:27:05Z</time>
      </trkpt>
      <trkpt lat="43.43468" lon="5.85531">
        <ele>360.63</ele>
        <time>2019-02-10T10:27:23Z</time>
      </trkpt>
      <trkpt lat="43.4352" lon="5.85553">
        <ele>363.52</ele>
        <time>2019-02-10T10:27:42Z</time>
      </trkpt>
      <trkpt lat="43.43553" lon="5.8556">
        <ele>364.96</ele>
        <time>2019-02-10T10:27:55Z</time>
      </trkpt>
      <trkpt lat="43.43596" lon="5.8555">
        <ele>364.96</ele>
        <time>2019-02-10T10:28:08Z</time>
      </trkpt>
      <trkpt lat="43.43645" lon="5.85606">
        <ele>364</ele>
        <time>2019-02-10T10:28:23Z</time>
      </trkpt>
      <trkpt lat="43.43714" lon="5.85697">
        <ele>362.55</ele>
        <time>2019-02-10T10:28:42Z</time>
      </trkpt>
      <trkpt lat="43.43726" lon="5.85714">
        <ele>362.07</ele>
        <time>2019-02-10T10:28:45Z</time>
      </trkpt>
      <trkpt lat="43.43734" lon="5.85724">
        <ele>362.07</ele>
        <time>2019-02-10T10:28:47Z</time>
      </trkpt>
      <trkpt lat="43.43737" lon="5.85729">
        <ele>362.07</ele>
        <time>2019-02-10T10:28:48Z</time>
      </trkpt>
      <trkpt lat="43.43789" lon="5.85827">
        <ele>360.63</ele>
        <time>2019-02-10T10:29:05Z</time>
      </trkpt>
      <trkpt lat="43.43843" lon="5.8591">
        <ele>358.23</ele>
        <time>2019-02-10T10:29:21Z</time>
      </trkpt>
      <trkpt lat="43.43894" lon="5.86021">
        <ele>355.83</ele>
        <time>2019-02-10T10:29:38Z</time>
      </trkpt>
      <trkpt lat="43.43939" lon="5.86125">
        <ele>352.94</ele>
        <time>2019-02-10T10:29:54Z</time>
      </trkpt>
      <trkpt lat="43.43954" lon="5.86164">
        <ele>351.98</ele>
        <time>2019-02-10T10:30:00Z</time>
      </trkpt>
      <trkpt lat="43.43974" lon="5.86228">
        <ele>348.62</ele>
        <time>2019-02-10T10:30:09Z</time>
      </trkpt>
      <trkpt lat="43.43993" lon="5.86287">
        <ele>345.73</ele>
        <time>2019-02-10T10:30:20Z</time>
      </trkpt>
      <trkpt lat="43.44003" lon="5.86296">
        <ele>344.77</ele>
        <time>2019-02-10T10:30:23Z</time>
      </trkpt>
      <trkpt lat="43.44006" lon="5.86298">
        <ele>344.77</ele>
        <time>2019-02-10T10:30:24Z</time>
      </trkpt>
      <trkpt lat="43.44011" lon="5.86299">
        <ele>344.77</ele>
        <time>2019-02-10T10:30:25Z</time>
      </trkpt>
      <trkpt lat="43.44015" lon="5.863">
        <ele>344.77</ele>
        <time>2019-02-10T10:30:26Z</time>
      </trkpt>
      <trkpt lat="43.4402" lon="5.863">
        <ele>344.29</ele>
        <time>2019-02-10T10:30:27Z</time>
      </trkpt>
      <trkpt lat="43.44025" lon="5.863">
        <ele>344.29</ele>
        <time>2019-02-10T10:30:28Z</time>
      </trkpt>
      <trkpt lat="43.4403" lon="5.863">
        <ele>343.81</ele>
        <time>2019-02-10T10:30:29Z</time>
      </trkpt>
      <trkpt lat="43.44037" lon="5.86296">
        <ele>343.81</ele>
        <time>2019-02-10T10:30:31Z</time>
      </trkpt>
      <trkpt lat="43.44038" lon="5.86291">
        <ele>343.81</ele>
        <time>2019-02-10T10:30:32Z</time>
      </trkpt>
      <trkpt lat="43.44038" lon="5.86285">
        <ele>343.33</ele>
        <time>2019-02-10T10:30:33Z</time>
      </trkpt>
      <trkpt lat="43.44037" lon="5.8627">
        <ele>345.25</ele>
        <time>2019-02-10T10:30:36Z</time>
      </trkpt>
      <trkpt lat="43.44032" lon="5.86227">
        <ele>348.62</ele>
        <time>2019-02-10T10:30:45Z</time>
      </trkpt>
      <trkpt lat="43.44025" lon="5.8617">
        <ele>351.02</ele>
        <time>2019-02-10T10:30:59Z</time>
      </trkpt>
      <trkpt lat="43.44024" lon="5.86167">
        <ele>351.02</ele>
        <time>2019-02-10T10:31:00Z</time>
      </trkpt>
      <trkpt lat="43.44021" lon="5.86165">
        <ele>351.5</ele>
        <time>2019-02-10T10:31:01Z</time>
      </trkpt>
      <trkpt lat="43.43995" lon="5.86151">
        <ele>351.98</ele>
        <time>2019-02-10T10:31:11Z</time>
      </trkpt>
      <trkpt lat="43.43978" lon="5.86111">
        <ele>353.42</ele>
        <time>2019-02-10T10:31:24Z</time>
      </trkpt>
      <trkpt lat="43.43967" lon="5.86081">
        <ele>355.34</ele>
        <time>2019-02-10T10:31:33Z</time>
      </trkpt>
      <trkpt lat="43.43966" lon="5.86078">
        <ele>355.34</ele>
        <time>2019-02-10T10:31:34Z</time>
      </trkpt>
      <trkpt lat="43.43974" lon="5.86049">
        <ele>354.86</ele>
        <time>2019-02-10T10:31:42Z</time>
      </trkpt>
      <trkpt lat="43.43974" lon="5.86046">
        <ele>354.86</ele>
        <time>2019-02-10T10:31:43Z</time>
      </trkpt>
      <trkpt lat="43.43973" lon="5.86044">
        <ele>355.34</ele>
        <time>2019-02-10T10:31:44Z</time>
      </trkpt>
      <trkpt lat="43.43972" lon="5.86033">
        <ele>355.83</ele>
        <time>2019-02-10T10:31:55Z</time>
      </trkpt>
      <trkpt lat="43.43974" lon="5.86033">
        <ele>355.34</ele>
        <time>2019-02-10T10:32:38Z</time>
      </trkpt>
      <trkpt lat="43.43973" lon="5.8603">
        <ele>355.34</ele>
        <time>2019-02-10T10:33:21Z</time>
      </trkpt>
      <trkpt lat="43.43976" lon="5.8603">
        <ele>354.86</ele>
        <time>2019-02-10T10:34:10Z</time>
      </trkpt>
      <trkpt lat="43.43974" lon="5.86029">
        <ele>354.86</ele>
        <time>2019-02-10T10:34:45Z</time>
      </trkpt>
      <trkpt lat="43.43973" lon="5.86027">
        <ele>355.83</ele>
        <time>2019-02-10T10:35:03Z</time>
      </trkpt>
      <trkpt lat="43.4397" lon="5.86027">
        <ele>355.83</ele>
        <time>2019-02-10T10:35:49Z</time>
      </trkpt>
      <trkpt lat="43.43969" lon="5.86025">
        <ele>355.34</ele>
        <time>2019-02-10T10:36:35Z</time>
      </trkpt>
      <trkpt lat="43.43969" lon="5.86026">
        <ele>355.34</ele>
        <time>2019-02-10T10:37:10Z</time>
      </trkpt>
      <trkpt lat="43.43969" lon="5.86025">
        <ele>354.86</ele>
        <time>2019-02-10T10:37:46Z</time>
      </trkpt>
      <trkpt lat="43.4397" lon="5.86026">
        <ele>353.9</ele>
        <time>2019-02-10T10:38:08Z</time>
      </trkpt>
      <trkpt lat="43.43972" lon="5.86027">
        <ele>352.94</ele>
        <time>2019-02-10T10:38:40Z</time>
      </trkpt>
      <trkpt lat="43.43973" lon="5.86029">
        <ele>352.46</ele>
        <time>2019-02-10T10:39:04Z</time>
      </trkpt>
      <trkpt lat="43.43973" lon="5.8603">
        <ele>352.46</ele>
        <time>2019-02-10T10:39:19Z</time>
      </trkpt>
      <trkpt lat="43.43975" lon="5.8603">
        <ele>351.5</ele>
        <time>2019-02-10T10:39:50Z</time>
      </trkpt>
      <trkpt lat="43.43976" lon="5.86031">
        <ele>351.5</ele>
        <time>2019-02-10T10:40:28Z</time>
      </trkpt>
      <trkpt lat="43.43973" lon="5.86031">
        <ele>351.02</ele>
        <time>2019-02-10T10:41:00Z</time>
      </trkpt>
      <trkpt lat="43.43975" lon="5.86032">
        <ele>351.02</ele>
        <time>2019-02-10T10:41:31Z</time>
      </trkpt>
      <trkpt lat="43.43977" lon="5.86031">
        <ele>351.02</ele>
        <time>2019-02-10T10:41:51Z</time>
      </trkpt>
      <trkpt lat="43.43978" lon="5.86031">
        <ele>351.02</ele>
        <time>2019-02-10T10:42:12Z</time>
      </trkpt>
      <trkpt lat="43.43976" lon="5.86032">
        <ele>350.54</ele>
        <time>2019-02-10T10:42:30Z</time>
      </trkpt>
      <trkpt lat="43.43974" lon="5.86025">
        <ele>351.98</ele>
        <time>2019-02-10T10:42:54Z</time>
      </trkpt>
      <trkpt lat="43.4396" lon="5.86024">
        <ele>351.5</ele>
        <time>2019-02-10T10:43:14Z</time>
      </trkpt>
      <trkpt lat="43.43957" lon="5.86025">
        <ele>351.5</ele>
        <time>2019-02-10T10:43:34Z</time>
      </trkpt>
    </trkseg>
  </trk>
  <trk>
    <name><![CDATA[2019-02-24 12:00:22 001]]></name>
    <trkseg>
      <trkpt lat="43.43959" lon="5.86019">
        <ele>166.93</ele>
        <time>2019-02-24T08:26:41Z</time>
      </trkpt>
      <trkpt lat="43.43957" lon="5.86023">
        <ele>166.93</ele>
        <time>2019-02-24T08:27:03Z</time>
      </trkpt>
      <trkpt lat="43.43953" lon="5.86032">
        <ele>168.37</ele>
        <time>2019-02-24T08:27:22Z</time>
      </trkpt>
      <trkpt lat="43.43977" lon="5.86044">
        <ele>168.37</ele>
        <time>2019-02-24T08:49:43Z</time>
      </trkpt>
      <trkpt lat="43.43968" lon="5.8604">
        <ele>168.37</ele>
        <time>2019-02-24T08:50:01Z</time>
      </trkpt>
      <trkpt lat="43.43973" lon="5.86018">
        <ele>174.14</ele>
        <time>2019-02-24T08:50:12Z</time>
      </trkpt>
      <trkpt lat="43.43973" lon="5.86018">
        <ele>185.19</ele>
        <time>2019-02-24T08:50:13Z</time>
      </trkpt>
      <trkpt lat="43.43973" lon="5.86018">
        <ele>190</ele>
        <time>2019-02-24T08:50:14Z</time>
      </trkpt>
      <trkpt lat="43.43973" lon="5.86019">
        <ele>190</ele>
        <time>2019-02-24T08:50:15Z</time>
      </trkpt>
      <trkpt lat="43.43973" lon="5.86019">
        <ele>194.8</ele>
        <time>2019-02-24T08:50:16Z</time>
      </trkpt>
      <trkpt lat="43.43973" lon="5.86019">
        <ele>199.61</ele>
        <time>2019-02-24T08:50:17Z</time>
      </trkpt>
      <trkpt lat="43.43973" lon="5.86019">
        <ele>204.42</ele>
        <time>2019-02-24T08:50:18Z</time>
      </trkpt>
      <trkpt lat="43.43972" lon="5.86019">
        <ele>208.74</ele>
        <time>2019-02-24T08:50:19Z</time>
      </trkpt>
      <trkpt lat="43.43972" lon="5.8602">
        <ele>213.07</ele>
        <time>2019-02-24T08:50:20Z</time>
      </trkpt>
      <trkpt lat="43.43972" lon="5.8602">
        <ele>217.4</ele>
        <time>2019-02-24T08:50:21Z</time>
      </trkpt>
      <trkpt lat="43.43972" lon="5.8602">
        <ele>221.24</ele>
        <time>2019-02-24T08:50:22Z</time>
      </trkpt>
      <trkpt lat="43.43972" lon="5.8602">
        <ele>225.09</ele>
        <time>2019-02-24T08:50:23Z</time>
      </trkpt>
      <trkpt lat="43.43972" lon="5.8602">
        <ele>228.93</ele>
        <time>2019-02-24T08:50:24Z</time>
      </trkpt>
      <trkpt lat="43.43971" lon="5.8602">
        <ele>232.3</ele>
        <time>2019-02-24T08:50:25Z</time>
      </trkpt>
      <trkpt lat="43.43971" lon="5.8602">
        <ele>236.14</ele>
        <time>2019-02-24T08:50:26Z</time>
      </trkpt>
      <trkpt lat="43.43971" lon="5.8602">
        <ele>239.51</ele>
        <time>2019-02-24T08:50:27Z</time>
      </trkpt>
      <trkpt lat="43.43971" lon="5.8602">
        <ele>242.39</ele>
        <time>2019-02-24T08:50:28Z</time>
      </trkpt>
      <trkpt lat="43.4397" lon="5.8602">
        <ele>245.75</ele>
        <time>2019-02-24T08:50:29Z</time>
      </trkpt>
      <trkpt lat="43.4397" lon="5.8602">
        <ele>248.64</ele>
        <time>2019-02-24T08:50:30Z</time>
      </trkpt>
      <trkpt lat="43.4397" lon="5.8602">
        <ele>254.89</ele>
        <time>2019-02-24T08:50:32Z</time>
      </trkpt>
      <trkpt lat="43.4397" lon="5.8602">
        <ele>260.17</ele>
        <time>2019-02-24T08:50:34Z</time>
      </trkpt>
      <trkpt lat="43.43969" lon="5.86019">
        <ele>265.46</ele>
        <time>2019-02-24T08:50:36Z</time>
      </trkpt>
      <trkpt lat="43.43969" lon="5.86019">
        <ele>270.27</ele>
        <time>2019-02-24T08:50:38Z</time>
      </trkpt>
      <trkpt lat="43.43969" lon="5.86018">
        <ele>276.52</ele>
        <time>2019-02-24T08:50:40Z</time>
      </trkpt>
      <trkpt lat="43.43969" lon="5.86018">
        <ele>276.52</ele>
        <time>2019-02-24T08:50:41Z</time>
      </trkpt>
      <trkpt lat="43.4397" lon="5.86018">
        <ele>280.84</ele>
        <time>2019-02-24T08:50:43Z</time>
      </trkpt>
      <trkpt lat="43.4397" lon="5.86018">
        <ele>284.21</ele>
        <time>2019-02-24T08:50:45Z</time>
      </trkpt>
      <trkpt lat="43.43971" lon="5.86018">
        <ele>287.57</ele>
        <time>2019-02-24T08:50:47Z</time>
      </trkpt>
      <trkpt lat="43.43971" lon="5.86019">
        <ele>290.94</ele>
        <time>2019-02-24T08:50:49Z</time>
      </trkpt>
      <trkpt lat="43.43973" lon="5.86019">
        <ele>295.26</ele>
        <time>2019-02-24T08:50:52Z</time>
      </trkpt>
      <trkpt lat="43.43973" lon="5.8602">
        <ele>295.74</ele>
        <time>2019-02-24T08:50:53Z</time>
      </trkpt>
      <trkpt lat="43.43974" lon="5.8602">
        <ele>299.59</ele>
        <time>2019-02-24T08:50:56Z</time>
      </trkpt>
      <trkpt lat="43.43974" lon="5.8602">
        <ele>302.95</ele>
        <time>2019-02-24T08:50:59Z</time>
      </trkpt>
      <trkpt lat="43.43973" lon="5.8602">
        <ele>306.32</ele>
        <time>2019-02-24T08:51:02Z</time>
      </trkpt>
      <trkpt lat="43.43973" lon="5.8602">
        <ele>310.16</ele>
        <time>2019-02-24T08:51:05Z</time>
      </trkpt>
      <trkpt lat="43.43972" lon="5.8602">
        <ele>310.16</ele>
        <time>2019-02-24T08:51:06Z</time>
      </trkpt>
      <trkpt lat="43.43971" lon="5.86019">
        <ele>313.05</ele>
        <time>2019-02-24T08:51:10Z</time>
      </trkpt>
      <trkpt lat="43.4397" lon="5.86018">
        <ele>316.89</ele>
        <time>2019-02-24T08:51:15Z</time>
      </trkpt>
      <trkpt lat="43.4397" lon="5.86018">
        <ele>320.26</ele>
        <time>2019-02-24T08:51:21Z</time>
      </trkpt>
      <trkpt lat="43.4397" lon="5.86019">
        <ele>323.14</ele>
        <time>2019-02-24T08:51:28Z</time>
      </trkpt>
      <trkpt lat="43.4397" lon="5.8602">
        <ele>326.5</ele>
        <time>2019-02-24T08:51:37Z</time>
      </trkpt>
      <trkpt lat="43.43972" lon="5.86022">
        <ele>329.39</ele>
        <time>2019-02-24T08:51:50Z</time>
      </trkpt>
      <trkpt lat="43.43973" lon="5.86023">
        <ele>332.75</ele>
        <time>2019-02-24T08:52:07Z</time>
      </trkpt>
      <trkpt lat="43.43973" lon="5.86024">
        <ele>333.71</ele>
        <time>2019-02-24T08:52:45Z</time>
      </trkpt>
      <trkpt lat="43.43969" lon="5.86025">
        <ele>333.71</ele>
        <time>2019-02-24T08:53:16Z</time>
      </trkpt>
      <trkpt lat="43.4397" lon="5.86023">
        <ele>333.71</ele>
        <time>2019-02-24T08:53:40Z</time>
      </trkpt>
      <trkpt lat="43.43972" lon="5.86024">
        <ele>333.71</ele>
        <time>2019-02-24T08:54:14Z</time>
      </trkpt>
      <trkpt lat="43.43973" lon="5.86022">
        <ele>334.2</ele>
        <time>2019-02-24T08:54:54Z</time>
      </trkpt>
      <trkpt lat="43.43973" lon="5.8602">
        <ele>334.2</ele>
        <time>2019-02-24T08:55:27Z</time>
      </trkpt>
      <trkpt lat="43.43973" lon="5.86021">
        <ele>334.2</ele>
        <time>2019-02-24T08:56:01Z</time>
      </trkpt>
      <trkpt lat="43.43976" lon="5.86022">
        <ele>334.2</ele>
        <time>2019-02-24T08:56:35Z</time>
      </trkpt>
      <trkpt lat="43.43976" lon="5.8602">
        <ele>334.2</ele>
        <time>2019-02-24T08:57:10Z</time>
      </trkpt>
      <trkpt lat="43.43978" lon="5.86022">
        <ele>334.2</ele>
        <time>2019-02-24T08:57:44Z</time>
      </trkpt>
      <trkpt lat="43.43977" lon="5.86026">
        <ele>334.2</ele>
        <time>2019-02-24T08:58:05Z</time>
      </trkpt>
      <trkpt lat="43.43972" lon="5.86027">
        <ele>334.2</ele>
        <time>2019-02-24T08:58:23Z</time>
      </trkpt>
      <trkpt lat="43.43974" lon="5.86023">
        <ele>334.2</ele>
        <time>2019-02-24T08:58:25Z</time>
      </trkpt>
      <trkpt lat="43.43975" lon="5.86021">
        <ele>334.2</ele>
        <time>2019-02-24T08:58:26Z</time>
      </trkpt>
      <trkpt lat="43.43978" lon="5.8602">
        <ele>334.2</ele>
        <time>2019-02-24T08:58:27Z</time>
      </trkpt>
      <trkpt lat="43.43985" lon="5.86024">
        <ele>334.2</ele>
        <time>2019-02-24T08:58:30Z</time>
      </trkpt>
      <trkpt lat="43.43988" lon="5.86028">
        <ele>334.2</ele>
        <time>2019-02-24T08:58:31Z</time>
      </trkpt>
      <trkpt lat="43.43995" lon="5.86036">
        <ele>332.75</ele>
        <time>2019-02-24T08:58:33Z</time>
      </trkpt>
      <trkpt lat="43.44021" lon="5.86067">
        <ele>330.83</ele>
        <time>2019-02-24T08:58:39Z</time>
      </trkpt>
      <trkpt lat="43.44024" lon="5.86073">
        <ele>330.83</ele>
        <time>2019-02-24T08:58:40Z</time>
      </trkpt>
      <trkpt lat="43.44027" lon="5.8608">
        <ele>330.83</ele>
        <time>2019-02-24T08:58:41Z</time>
      </trkpt>
      <trkpt lat="43.44028" lon="5.86088">
        <ele>329.87</ele>
        <time>2019-02-24T08:58:42Z</time>
      </trkpt>
      <trkpt lat="43.44028" lon="5.86095">
        <ele>329.87</ele>
        <time>2019-02-24T08:58:43Z</time>
      </trkpt>
      <trkpt lat="43.44029" lon="5.86102">
        <ele>329.87</ele>
        <time>2019-02-24T08:58:44Z</time>
      </trkpt>
      <trkpt lat="43.44029" lon="5.8611">
        <ele>329.87</ele>
        <time>2019-02-24T08:58:45Z</time>
      </trkpt>
      <trkpt lat="43.44029" lon="5.86196">
        <ele>328.91</ele>
        <time>2019-02-24T08:58:56Z</time>
      </trkpt>
      <trkpt lat="43.44039" lon="5.86255">
        <ele>326.02</ele>
        <time>2019-02-24T08:59:02Z</time>
      </trkpt>
      <trkpt lat="43.44041" lon="5.86271">
        <ele>324.58</ele>
        <time>2019-02-24T08:59:04Z</time>
      </trkpt>
      <trkpt lat="43.44046" lon="5.86295">
        <ele>321.7</ele>
        <time>2019-02-24T08:59:11Z</time>
      </trkpt>
      <trkpt lat="43.44049" lon="5.86296">
        <ele>322.18</ele>
        <time>2019-02-24T08:59:12Z</time>
      </trkpt>
      <trkpt lat="43.44052" lon="5.86296">
        <ele>322.18</ele>
        <time>2019-02-24T08:59:13Z</time>
      </trkpt>
      <trkpt lat="43.44055" lon="5.86295">
        <ele>321.7</ele>
        <time>2019-02-24T08:59:14Z</time>
      </trkpt>
      <trkpt lat="43.44059" lon="5.86293">
        <ele>322.18</ele>
        <time>2019-02-24T08:59:15Z</time>
      </trkpt>
      <trkpt lat="43.44147" lon="5.86255">
        <ele>321.7</ele>
        <time>2019-02-24T08:59:31Z</time>
      </trkpt>
      <trkpt lat="43.44232" lon="5.86223">
        <ele>320.26</ele>
        <time>2019-02-24T08:59:46Z</time>
      </trkpt>
      <trkpt lat="43.44311" lon="5.8619">
        <ele>320.26</ele>
        <time>2019-02-24T09:00:01Z</time>
      </trkpt>
      <trkpt lat="43.4437" lon="5.86128">
        <ele>318.81</ele>
        <time>2019-02-24T09:00:13Z</time>
      </trkpt>
      <trkpt lat="43.44394" lon="5.86057">
        <ele>315.45</ele>
        <time>2019-02-24T09:00:21Z</time>
      </trkpt>
      <trkpt lat="43.44419" lon="5.85965">
        <ele>313.05</ele>
        <time>2019-02-24T09:00:32Z</time>
      </trkpt>
      <trkpt lat="43.44422" lon="5.8596">
        <ele>313.05</ele>
        <time>2019-02-24T09:00:33Z</time>
      </trkpt>
      <trkpt lat="43.44425" lon="5.85955">
        <ele>313.05</ele>
        <time>2019-02-24T09:00:34Z</time>
      </trkpt>
      <trkpt lat="43.44429" lon="5.85952">
        <ele>313.53</ele>
        <time>2019-02-24T09:00:35Z</time>
      </trkpt>
      <trkpt lat="43.44434" lon="5.8595">
        <ele>313.53</ele>
        <time>2019-02-24T09:00:36Z</time>
      </trkpt>
      <trkpt lat="43.44439" lon="5.85952">
        <ele>313.05</ele>
        <time>2019-02-24T09:00:37Z</time>
      </trkpt>
      <trkpt lat="43.44444" lon="5.85954">
        <ele>313.05</ele>
        <time>2019-02-24T09:00:38Z</time>
      </trkpt>
      <trkpt lat="43.4445" lon="5.85958">
        <ele>313.05</ele>
        <time>2019-02-24T09:00:39Z</time>
      </trkpt>
      <trkpt lat="43.44535" lon="5.85992">
        <ele>310.16</ele>
        <time>2019-02-24T09:00:51Z</time>
      </trkpt>
      <trkpt lat="43.44632" lon="5.86021">
        <ele>306.32</ele>
        <time>2019-02-24T09:01:05Z</time>
      </trkpt>
      <trkpt lat="43.44637" lon="5.86021">
        <ele>305.84</ele>
        <time>2019-02-24T09:01:07Z</time>
      </trkpt>
      <trkpt lat="43.44638" lon="5.86016">
        <ele>305.36</ele>
        <time>2019-02-24T09:01:17Z</time>
      </trkpt>
      <trkpt lat="43.44635" lon="5.86016">
        <ele>305.84</ele>
        <time>2019-02-24T09:01:36Z</time>
      </trkpt>
      <trkpt lat="43.44636" lon="5.86015">
        <ele>305.84</ele>
        <time>2019-02-24T09:02:07Z</time>
      </trkpt>
      <trkpt lat="43.44635" lon="5.86018">
        <ele>305.36</ele>
        <time>2019-02-24T09:02:28Z</time>
      </trkpt>
      <trkpt lat="43.44635" lon="5.8602">
        <ele>305.36</ele>
        <time>2019-02-24T09:02:29Z</time>
      </trkpt>
      <trkpt lat="43.44636" lon="5.86022">
        <ele>305.36</ele>
        <time>2019-02-24T09:02:30Z</time>
      </trkpt>
      <trkpt lat="43.44638" lon="5.86025">
        <ele>305.36</ele>
        <time>2019-02-24T09:02:31Z</time>
      </trkpt>
      <trkpt lat="43.44641" lon="5.86027">
        <ele>305.36</ele>
        <time>2019-02-24T09:02:32Z</time>
      </trkpt>
      <trkpt lat="43.44644" lon="5.86028">
        <ele>305.36</ele>
        <time>2019-02-24T09:02:33Z</time>
      </trkpt>
      <trkpt lat="43.44649" lon="5.86029">
        <ele>305.36</ele>
        <time>2019-02-24T09:02:34Z</time>
      </trkpt>
      <trkpt lat="43.44658" lon="5.86032">
        <ele>305.36</ele>
        <time>2019-02-24T09:02:36Z</time>
      </trkpt>
      <trkpt lat="43.44684" lon="5.86043">
        <ele>303.91</ele>
        <time>2019-02-24T09:02:41Z</time>
      </trkpt>
      <trkpt lat="43.4478" lon="5.86078">
        <ele>302.47</ele>
        <time>2019-02-24T09:02:57Z</time>
      </trkpt>
      <trkpt lat="43.44808" lon="5.86078">
        <ele>301.51</ele>
        <time>2019-02-24T09:03:02Z</time>
      </trkpt>
      <trkpt lat="43.44814" lon="5.86081">
        <ele>301.03</ele>
        <time>2019-02-24T09:03:03Z</time>
      </trkpt>
      <trkpt lat="43.44818" lon="5.86085">
        <ele>301.03</ele>
        <time>2019-02-24T09:03:04Z</time>
      </trkpt>
      <trkpt lat="43.44821" lon="5.86091">
        <ele>301.03</ele>
        <time>2019-02-24T09:03:05Z</time>
      </trkpt>
      <trkpt lat="43.44822" lon="5.86099">
        <ele>301.03</ele>
        <time>2019-02-24T09:03:06Z</time>
      </trkpt>
      <trkpt lat="43.44823" lon="5.86106">
        <ele>301.03</ele>
        <time>2019-02-24T09:03:07Z</time>
      </trkpt>
      <trkpt lat="43.44825" lon="5.86113">
        <ele>301.03</ele>
        <time>2019-02-24T09:03:08Z</time>
      </trkpt>
      <trkpt lat="43.44828" lon="5.86118">
        <ele>301.03</ele>
        <time>2019-02-24T09:03:09Z</time>
      </trkpt>
      <trkpt lat="43.44832" lon="5.86123">
        <ele>301.03</ele>
        <time>2019-02-24T09:03:10Z</time>
      </trkpt>
      <trkpt lat="43.44835" lon="5.86129">
        <ele>301.03</ele>
        <time>2019-02-24T09:03:11Z</time>
      </trkpt>
      <trkpt lat="43.44837" lon="5.86136">
        <ele>301.03</ele>
        <time>2019-02-24T09:03:12Z</time>
      </trkpt>
      <trkpt lat="43.44837" lon="5.86143">
        <ele>300.07</ele>
        <time>2019-02-24T09:03:13Z</time>
      </trkpt>
      <trkpt lat="43.44835" lon="5.86149">
        <ele>300.07</ele>
        <time>2019-02-24T09:03:14Z</time>
      </trkpt>
      <trkpt lat="43.44832" lon="5.86156">
        <ele>300.07</ele>
        <time>2019-02-24T09:03:15Z</time>
      </trkpt>
      <trkpt lat="43.44829" lon="5.86162">
        <ele>300.07</ele>
        <time>2019-02-24T09:03:16Z</time>
      </trkpt>
      <trkpt lat="43.44822" lon="5.86174">
        <ele>300.07</ele>
        <time>2019-02-24T09:03:18Z</time>
      </trkpt>
      <trkpt lat="43.44818" lon="5.8618">
        <ele>300.07</ele>
        <time>2019-02-24T09:03:19Z</time>
      </trkpt>
      <trkpt lat="43.4481" lon="5.8619">
        <ele>300.07</ele>
        <time>2019-02-24T09:03:21Z</time>
      </trkpt>
      <trkpt lat="43.44807" lon="5.86196">
        <ele>300.07</ele>
        <time>2019-02-24T09:03:22Z</time>
      </trkpt>
      <trkpt lat="43.44805" lon="5.86201">
        <ele>300.07</ele>
        <time>2019-02-24T09:03:23Z</time>
      </trkpt>
      <trkpt lat="43.44805" lon="5.86206">
        <ele>300.55</ele>
        <time>2019-02-24T09:03:24Z</time>
      </trkpt>
      <trkpt lat="43.44807" lon="5.86212">
        <ele>300.55</ele>
        <time>2019-02-24T09:03:25Z</time>
      </trkpt>
      <trkpt lat="43.44811" lon="5.86216">
        <ele>300.55</ele>
        <time>2019-02-24T09:03:26Z</time>
      </trkpt>
      <trkpt lat="43.44815" lon="5.8622">
        <ele>300.55</ele>
        <time>2019-02-24T09:03:27Z</time>
      </trkpt>
      <trkpt lat="43.44845" lon="5.86263">
        <ele>298.63</ele>
        <time>2019-02-24T09:03:35Z</time>
      </trkpt>
      <trkpt lat="43.44848" lon="5.8627">
        <ele>298.15</ele>
        <time>2019-02-24T09:03:36Z</time>
      </trkpt>
      <trkpt lat="43.44849" lon="5.86276">
        <ele>298.15</ele>
        <time>2019-02-24T09:03:37Z</time>
      </trkpt>
      <trkpt lat="43.4485" lon="5.86282">
        <ele>297.67</ele>
        <time>2019-02-24T09:03:38Z</time>
      </trkpt>
      <trkpt lat="43.44852" lon="5.86288">
        <ele>297.67</ele>
        <time>2019-02-24T09:03:39Z</time>
      </trkpt>
      <trkpt lat="43.44856" lon="5.86295">
        <ele>297.67</ele>
        <time>2019-02-24T09:03:40Z</time>
      </trkpt>
      <trkpt lat="43.44859" lon="5.86297">
        <ele>297.67</ele>
        <time>2019-02-24T09:03:41Z</time>
      </trkpt>
      <trkpt lat="43.44864" lon="5.86303">
        <ele>297.67</ele>
        <time>2019-02-24T09:03:42Z</time>
      </trkpt>
      <trkpt lat="43.44876" lon="5.86318">
        <ele>296.7</ele>
        <time>2019-02-24T09:03:45Z</time>
      </trkpt>
      <trkpt lat="43.44882" lon="5.86322">
        <ele>296.7</ele>
        <time>2019-02-24T09:03:46Z</time>
      </trkpt>
      <trkpt lat="43.44955" lon="5.8637">
        <ele>296.22</ele>
        <time>2019-02-24T09:04:00Z</time>
      </trkpt>
      <trkpt lat="43.44982" lon="5.86392">
        <ele>294.78</ele>
        <time>2019-02-24T09:04:06Z</time>
      </trkpt>
      <trkpt lat="43.44986" lon="5.86398">
        <ele>294.78</ele>
        <time>2019-02-24T09:04:07Z</time>
      </trkpt>
      <trkpt lat="43.44989" lon="5.86405">
        <ele>294.78</ele>
        <time>2019-02-24T09:04:08Z</time>
      </trkpt>
      <trkpt lat="43.44996" lon="5.86425">
        <ele>294.78</ele>
        <time>2019-02-24T09:04:11Z</time>
      </trkpt>
      <trkpt lat="43.45" lon="5.86432">
        <ele>294.78</ele>
        <time>2019-02-24T09:04:12Z</time>
      </trkpt>
      <trkpt lat="43.45062" lon="5.86519">
        <ele>292.86</ele>
        <time>2019-02-24T09:04:28Z</time>
      </trkpt>
      <trkpt lat="43.45066" lon="5.86524">
        <ele>292.86</ele>
        <time>2019-02-24T09:04:29Z</time>
      </trkpt>
      <trkpt lat="43.45113" lon="5.86563">
        <ele>290.94</ele>
        <time>2019-02-24T09:04:38Z</time>
      </trkpt>
      <trkpt lat="43.45118" lon="5.86569">
        <ele>290.94</ele>
        <time>2019-02-24T09:04:39Z</time>
      </trkpt>
      <trkpt lat="43.45122" lon="5.86577">
        <ele>290.94</ele>
        <time>2019-02-24T09:04:40Z</time>
      </trkpt>
      <trkpt lat="43.45124" lon="5.86585">
        <ele>290.46</ele>
        <time>2019-02-24T09:04:41Z</time>
      </trkpt>
      <trkpt lat="43.45126" lon="5.86593">
        <ele>289.97</ele>
        <time>2019-02-24T09:04:42Z</time>
      </trkpt>
      <trkpt lat="43.45128" lon="5.86602">
        <ele>290.46</ele>
        <time>2019-02-24T09:04:43Z</time>
      </trkpt>
      <trkpt lat="43.45131" lon="5.86611">
        <ele>290.46</ele>
        <time>2019-02-24T09:04:44Z</time>
      </trkpt>
      <trkpt lat="43.45131" lon="5.86621">
        <ele>289.97</ele>
        <time>2019-02-24T09:04:45Z</time>
      </trkpt>
      <trkpt lat="43.45131" lon="5.86628">
        <ele>289.97</ele>
        <time>2019-02-24T09:04:46Z</time>
      </trkpt>
      <trkpt lat="43.45129" lon="5.86638">
        <ele>289.97</ele>
        <time>2019-02-24T09:04:47Z</time>
      </trkpt>
      <trkpt lat="43.45126" lon="5.86645">
        <ele>289.97</ele>
        <time>2019-02-24T09:04:48Z</time>
      </trkpt>
      <trkpt lat="43.45123" lon="5.86652">
        <ele>289.97</ele>
        <time>2019-02-24T09:04:49Z</time>
      </trkpt>
      <trkpt lat="43.45119" lon="5.86658">
        <ele>289.97</ele>
        <time>2019-02-24T09:04:50Z</time>
      </trkpt>
      <trkpt lat="43.45059" lon="5.8675">
        <ele>289.49</ele>
        <time>2019-02-24T09:05:07Z</time>
      </trkpt>
      <trkpt lat="43.4501" lon="5.8681">
        <ele>290.94</ele>
        <time>2019-02-24T09:05:22Z</time>
      </trkpt>
      <trkpt lat="43.4498" lon="5.86871">
        <ele>292.86</ele>
        <time>2019-02-24T09:05:36Z</time>
      </trkpt>
      <trkpt lat="43.44972" lon="5.86914">
        <ele>291.9</ele>
        <time>2019-02-24T09:05:42Z</time>
      </trkpt>
      <trkpt lat="43.44968" lon="5.86941">
        <ele>291.42</ele>
        <time>2019-02-24T09:05:46Z</time>
      </trkpt>
      <trkpt lat="43.44968" lon="5.86948">
        <ele>291.42</ele>
        <time>2019-02-24T09:05:47Z</time>
      </trkpt>
      <trkpt lat="43.44973" lon="5.86978">
        <ele>290.94</ele>
        <time>2019-02-24T09:05:52Z</time>
      </trkpt>
      <trkpt lat="43.44974" lon="5.86985">
        <ele>289.97</ele>
        <time>2019-02-24T09:05:53Z</time>
      </trkpt>
      <trkpt lat="43.44981" lon="5.8702">
        <ele>289.01</ele>
        <time>2019-02-24T09:05:58Z</time>
      </trkpt>
      <trkpt lat="43.44981" lon="5.87028">
        <ele>289.01</ele>
        <time>2019-02-24T09:05:59Z</time>
      </trkpt>
      <trkpt lat="43.4498" lon="5.87035">
        <ele>289.01</ele>
        <time>2019-02-24T09:06:00Z</time>
      </trkpt>
      <trkpt lat="43.44976" lon="5.87041">
        <ele>288.05</ele>
        <time>2019-02-24T09:06:01Z</time>
      </trkpt>
      <trkpt lat="43.44971" lon="5.87047">
        <ele>288.05</ele>
        <time>2019-02-24T09:06:02Z</time>
      </trkpt>
      <trkpt lat="43.44966" lon="5.87051">
        <ele>287.57</ele>
        <time>2019-02-24T09:06:03Z</time>
      </trkpt>
      <trkpt lat="43.44917" lon="5.87088">
        <ele>287.09</ele>
        <time>2019-02-24T09:06:12Z</time>
      </trkpt>
      <trkpt lat="43.44913" lon="5.87094">
        <ele>287.09</ele>
        <time>2019-02-24T09:06:13Z</time>
      </trkpt>
      <trkpt lat="43.4491" lon="5.871">
        <ele>287.09</ele>
        <time>2019-02-24T09:06:14Z</time>
      </trkpt>
      <trkpt lat="43.44908" lon="5.87106">
        <ele>287.09</ele>
        <time>2019-02-24T09:06:15Z</time>
      </trkpt>
      <trkpt lat="43.44907" lon="5.87113">
        <ele>287.09</ele>
        <time>2019-02-24T09:06:16Z</time>
      </trkpt>
      <trkpt lat="43.44906" lon="5.87119">
        <ele>287.09</ele>
        <time>2019-02-24T09:06:17Z</time>
      </trkpt>
      <trkpt lat="43.44906" lon="5.87127">
        <ele>287.09</ele>
        <time>2019-02-24T09:06:18Z</time>
      </trkpt>
      <trkpt lat="43.44903" lon="5.87206">
        <ele>286.13</ele>
        <time>2019-02-24T09:06:28Z</time>
      </trkpt>
      <trkpt lat="43.44888" lon="5.87271">
        <ele>286.13</ele>
        <time>2019-02-24T09:06:39Z</time>
      </trkpt>
      <trkpt lat="43.44886" lon="5.87276">
        <ele>286.13</ele>
        <time>2019-02-24T09:06:40Z</time>
      </trkpt>
      <trkpt lat="43.44857" lon="5.87319">
        <ele>285.17</ele>
        <time>2019-02-24T09:06:48Z</time>
      </trkpt>
      <trkpt lat="43.44852" lon="5.87324">
        <ele>285.17</ele>
        <time>2019-02-24T09:06:49Z</time>
      </trkpt>
      <trkpt lat="43.44846" lon="5.87328">
        <ele>284.69</ele>
        <time>2019-02-24T09:06:50Z</time>
      </trkpt>
      <trkpt lat="43.44839" lon="5.8733">
        <ele>283.73</ele>
        <time>2019-02-24T09:06:51Z</time>
      </trkpt>
      <trkpt lat="43.44833" lon="5.87331">
        <ele>283.25</ele>
        <time>2019-02-24T09:06:52Z</time>
      </trkpt>
      <trkpt lat="43.44827" lon="5.87333">
        <ele>283.25</ele>
        <time>2019-02-24T09:06:53Z</time>
      </trkpt>
      <trkpt lat="43.44821" lon="5.87336">
        <ele>282.77</ele>
        <time>2019-02-24T09:06:54Z</time>
      </trkpt>
      <trkpt lat="43.44815" lon="5.87341">
        <ele>282.77</ele>
        <time>2019-02-24T09:06:55Z</time>
      </trkpt>
      <trkpt lat="43.44811" lon="5.87348">
        <ele>282.77</ele>
        <time>2019-02-24T09:06:56Z</time>
      </trkpt>
      <trkpt lat="43.44807" lon="5.87356">
        <ele>282.28</ele>
        <time>2019-02-24T09:06:57Z</time>
      </trkpt>
      <trkpt lat="43.44803" lon="5.87363">
        <ele>282.28</ele>
        <time>2019-02-24T09:06:58Z</time>
      </trkpt>
      <trkpt lat="43.44763" lon="5.87455">
        <ele>280.36</ele>
        <time>2019-02-24T09:07:11Z</time>
      </trkpt>
      <trkpt lat="43.44761" lon="5.87461">
        <ele>279.88</ele>
        <time>2019-02-24T09:07:12Z</time>
      </trkpt>
      <trkpt lat="43.4476" lon="5.87467">
        <ele>279.88</ele>
        <time>2019-02-24T09:07:13Z</time>
      </trkpt>
      <trkpt lat="43.44761" lon="5.87474">
        <ele>279.88</ele>
        <time>2019-02-24T09:07:14Z</time>
      </trkpt>
      <trkpt lat="43.44764" lon="5.87481">
        <ele>279.88</ele>
        <time>2019-02-24T09:07:15Z</time>
      </trkpt>
      <trkpt lat="43.44766" lon="5.87484">
        <ele>279.88</ele>
        <time>2019-02-24T09:07:16Z</time>
      </trkpt>
      <trkpt lat="43.44769" lon="5.87489">
        <ele>279.88</ele>
        <time>2019-02-24T09:07:17Z</time>
      </trkpt>
      <trkpt lat="43.44794" lon="5.87528">
        <ele>280.36</ele>
        <time>2019-02-24T09:07:24Z</time>
      </trkpt>
      <trkpt lat="43.44796" lon="5.87535">
        <ele>279.88</ele>
        <time>2019-02-24T09:07:25Z</time>
      </trkpt>
      <trkpt lat="43.44797" lon="5.87542">
        <ele>279.88</ele>
        <time>2019-02-24T09:07:26Z</time>
      </trkpt>
      <trkpt lat="43.44812" lon="5.87616">
        <ele>279.88</ele>
        <time>2019-02-24T09:07:37Z</time>
      </trkpt>
      <trkpt lat="43.44815" lon="5.87621">
        <ele>279.88</ele>
        <time>2019-02-24T09:07:38Z</time>
      </trkpt>
      <trkpt lat="43.44819" lon="5.87626">
        <ele>279.88</ele>
        <time>2019-02-24T09:07:39Z</time>
      </trkpt>
      <trkpt lat="43.44823" lon="5.87629">
        <ele>279.88</ele>
        <time>2019-02-24T09:07:40Z</time>
      </trkpt>
      <trkpt lat="43.44828" lon="5.87631">
        <ele>279.88</ele>
        <time>2019-02-24T09:07:41Z</time>
      </trkpt>
      <trkpt lat="43.44833" lon="5.87632">
        <ele>279.88</ele>
        <time>2019-02-24T09:07:42Z</time>
      </trkpt>
      <trkpt lat="43.44838" lon="5.87633">
        <ele>279.88</ele>
        <time>2019-02-24T09:07:43Z</time>
      </trkpt>
      <trkpt lat="43.44865" lon="5.87643">
        <ele>279.4</ele>
        <time>2019-02-24T09:07:50Z</time>
      </trkpt>
      <trkpt lat="43.44866" lon="5.87649">
        <ele>279.4</ele>
        <time>2019-02-24T09:07:51Z</time>
      </trkpt>
      <trkpt lat="43.44865" lon="5.87654">
        <ele>279.4</ele>
        <time>2019-02-24T09:07:52Z</time>
      </trkpt>
      <trkpt lat="43.44864" lon="5.87659">
        <ele>279.4</ele>
        <time>2019-02-24T09:07:53Z</time>
      </trkpt>
      <trkpt lat="43.44862" lon="5.87664">
        <ele>279.4</ele>
        <time>2019-02-24T09:07:54Z</time>
      </trkpt>
      <trkpt lat="43.44839" lon="5.8775">
        <ele>281.32</ele>
        <time>2019-02-24T09:08:10Z</time>
      </trkpt>
      <trkpt lat="43.44838" lon="5.87756">
        <ele>281.32</ele>
        <time>2019-02-24T09:08:11Z</time>
      </trkpt>
      <trkpt lat="43.44838" lon="5.87762">
        <ele>281.32</ele>
        <time>2019-02-24T09:08:12Z</time>
      </trkpt>
      <trkpt lat="43.44839" lon="5.87769">
        <ele>281.32</ele>
        <time>2019-02-24T09:08:13Z</time>
      </trkpt>
      <trkpt lat="43.44839" lon="5.87775">
        <ele>281.32</ele>
        <time>2019-02-24T09:08:14Z</time>
      </trkpt>
      <trkpt lat="43.44844" lon="5.87822">
        <ele>279.88</ele>
        <time>2019-02-24T09:08:21Z</time>
      </trkpt>
      <trkpt lat="43.44828" lon="5.87923">
        <ele>279.88</ele>
        <time>2019-02-24T09:08:37Z</time>
      </trkpt>
      <trkpt lat="43.44813" lon="5.88031">
        <ele>279.88</ele>
        <time>2019-02-24T09:08:55Z</time>
      </trkpt>
      <trkpt lat="43.44812" lon="5.88042">
        <ele>281.32</ele>
        <time>2019-02-24T09:08:57Z</time>
      </trkpt>
      <trkpt lat="43.44803" lon="5.88151">
        <ele>282.28</ele>
        <time>2019-02-24T09:09:18Z</time>
      </trkpt>
      <trkpt lat="43.44801" lon="5.88162">
        <ele>282.28</ele>
        <time>2019-02-24T09:09:20Z</time>
      </trkpt>
      <trkpt lat="43.44799" lon="5.88168">
        <ele>282.28</ele>
        <time>2019-02-24T09:09:21Z</time>
      </trkpt>
      <trkpt lat="43.44797" lon="5.88173">
        <ele>282.28</ele>
        <time>2019-02-24T09:09:22Z</time>
      </trkpt>
      <trkpt lat="43.44791" lon="5.88189">
        <ele>282.28</ele>
        <time>2019-02-24T09:09:25Z</time>
      </trkpt>
      <trkpt lat="43.4478" lon="5.88208">
        <ele>282.77</ele>
        <time>2019-02-24T09:09:29Z</time>
      </trkpt>
      <trkpt lat="43.44744" lon="5.88273">
        <ele>283.25</ele>
        <time>2019-02-24T09:09:46Z</time>
      </trkpt>
      <trkpt lat="43.4474" lon="5.88282">
        <ele>283.73</ele>
        <time>2019-02-24T09:09:48Z</time>
      </trkpt>
      <trkpt lat="43.44738" lon="5.88288">
        <ele>283.73</ele>
        <time>2019-02-24T09:09:49Z</time>
      </trkpt>
      <trkpt lat="43.44737" lon="5.88294">
        <ele>283.73</ele>
        <time>2019-02-24T09:09:50Z</time>
      </trkpt>
      <trkpt lat="43.44737" lon="5.883">
        <ele>283.73</ele>
        <time>2019-02-24T09:09:51Z</time>
      </trkpt>
      <trkpt lat="43.44738" lon="5.88306">
        <ele>283.73</ele>
        <time>2019-02-24T09:09:52Z</time>
      </trkpt>
      <trkpt lat="43.4474" lon="5.88312">
        <ele>283.73</ele>
        <time>2019-02-24T09:09:53Z</time>
      </trkpt>
      <trkpt lat="43.44743" lon="5.88317">
        <ele>283.73</ele>
        <time>2019-02-24T09:09:54Z</time>
      </trkpt>
      <trkpt lat="43.44746" lon="5.8832">
        <ele>283.73</ele>
        <time>2019-02-24T09:09:55Z</time>
      </trkpt>
      <trkpt lat="43.44749" lon="5.88323">
        <ele>283.73</ele>
        <time>2019-02-24T09:09:56Z</time>
      </trkpt>
      <trkpt lat="43.44753" lon="5.88326">
        <ele>284.21</ele>
        <time>2019-02-24T09:09:57Z</time>
      </trkpt>
      <trkpt lat="43.44768" lon="5.8835">
        <ele>287.09</ele>
        <time>2019-02-24T09:10:04Z</time>
      </trkpt>
      <trkpt lat="43.44768" lon="5.88355">
        <ele>287.57</ele>
        <time>2019-02-24T09:10:05Z</time>
      </trkpt>
      <trkpt lat="43.44767" lon="5.88359">
        <ele>287.57</ele>
        <time>2019-02-24T09:10:06Z</time>
      </trkpt>
      <trkpt lat="43.44766" lon="5.88363">
        <ele>288.05</ele>
        <time>2019-02-24T09:10:07Z</time>
      </trkpt>
      <trkpt lat="43.44764" lon="5.88368">
        <ele>288.53</ele>
        <time>2019-02-24T09:10:08Z</time>
      </trkpt>
      <trkpt lat="43.44762" lon="5.88372">
        <ele>288.53</ele>
        <time>2019-02-24T09:10:09Z</time>
      </trkpt>
      <trkpt lat="43.4476" lon="5.88375">
        <ele>289.49</ele>
        <time>2019-02-24T09:10:10Z</time>
      </trkpt>
      <trkpt lat="43.44755" lon="5.8839">
        <ele>289.97</ele>
        <time>2019-02-24T09:10:14Z</time>
      </trkpt>
      <trkpt lat="43.44755" lon="5.88393">
        <ele>290.46</ele>
        <time>2019-02-24T09:10:15Z</time>
      </trkpt>
      <trkpt lat="43.44756" lon="5.88396">
        <ele>290.46</ele>
        <time>2019-02-24T09:10:16Z</time>
      </trkpt>
      <trkpt lat="43.44757" lon="5.88398">
        <ele>290.94</ele>
        <time>2019-02-24T09:10:17Z</time>
      </trkpt>
      <trkpt lat="43.44759" lon="5.88401">
        <ele>290.94</ele>
        <time>2019-02-24T09:10:18Z</time>
      </trkpt>
      <trkpt lat="43.4476" lon="5.88404">
        <ele>291.42</ele>
        <time>2019-02-24T09:10:19Z</time>
      </trkpt>
      <trkpt lat="43.44761" lon="5.88408">
        <ele>291.42</ele>
        <time>2019-02-24T09:10:20Z</time>
      </trkpt>
      <trkpt lat="43.44761" lon="5.88412">
        <ele>291.42</ele>
        <time>2019-02-24T09:10:21Z</time>
      </trkpt>
      <trkpt lat="43.44763" lon="5.88478">
        <ele>291.9</ele>
        <time>2019-02-24T09:10:35Z</time>
      </trkpt>
      <trkpt lat="43.44763" lon="5.8854">
        <ele>291.9</ele>
        <time>2019-02-24T09:10:47Z</time>
      </trkpt>
      <trkpt lat="43.44736" lon="5.88628">
        <ele>292.38</ele>
        <time>2019-02-24T09:11:04Z</time>
      </trkpt>
      <trkpt lat="43.4472" lon="5.88674">
        <ele>292.38</ele>
        <time>2019-02-24T09:11:17Z</time>
      </trkpt>
      <trkpt lat="43.44711" lon="5.88698">
        <ele>293.82</ele>
        <time>2019-02-24T09:11:23Z</time>
      </trkpt>
      <trkpt lat="43.44709" lon="5.887">
        <ele>294.78</ele>
        <time>2019-02-24T09:11:33Z</time>
      </trkpt>
      <trkpt lat="43.4471" lon="5.88697">
        <ele>294.78</ele>
        <time>2019-02-24T09:11:40Z</time>
      </trkpt>
      <trkpt lat="43.44711" lon="5.88694">
        <ele>294.78</ele>
        <time>2019-02-24T09:11:41Z</time>
      </trkpt>
      <trkpt lat="43.4472" lon="5.88672">
        <ele>293.34</ele>
        <time>2019-02-24T09:11:45Z</time>
      </trkpt>
      <trkpt lat="43.44731" lon="5.88638">
        <ele>291.9</ele>
        <time>2019-02-24T09:11:51Z</time>
      </trkpt>
      <trkpt lat="43.44727" lon="5.88634">
        <ele>291.9</ele>
        <time>2019-02-24T09:11:52Z</time>
      </trkpt>
      <trkpt lat="43.44724" lon="5.88634">
        <ele>291.42</ele>
        <time>2019-02-24T09:11:53Z</time>
      </trkpt>
      <trkpt lat="43.44687" lon="5.88632">
        <ele>290.46</ele>
        <time>2019-02-24T09:12:05Z</time>
      </trkpt>
      <trkpt lat="43.44675" lon="5.88629">
        <ele>289.97</ele>
        <time>2019-02-24T09:12:08Z</time>
      </trkpt>
      <trkpt lat="43.44671" lon="5.88626">
        <ele>289.49</ele>
        <time>2019-02-24T09:12:09Z</time>
      </trkpt>
      <trkpt lat="43.44605" lon="5.88573">
        <ele>288.05</ele>
        <time>2019-02-24T09:12:25Z</time>
      </trkpt>
      <trkpt lat="43.44568" lon="5.88549">
        <ele>287.57</ele>
        <time>2019-02-24T09:12:37Z</time>
      </trkpt>
      <trkpt lat="43.44567" lon="5.88551">
        <ele>287.57</ele>
        <time>2019-02-24T09:12:38Z</time>
      </trkpt>
      <trkpt lat="43.44566" lon="5.88553">
        <ele>287.57</ele>
        <time>2019-02-24T09:12:39Z</time>
      </trkpt>
      <trkpt lat="43.44562" lon="5.88568">
        <ele>289.01</ele>
        <time>2019-02-24T09:12:43Z</time>
      </trkpt>
      <trkpt lat="43.44566" lon="5.88598">
        <ele>292.38</ele>
        <time>2019-02-24T09:12:52Z</time>
      </trkpt>
      <trkpt lat="43.44585" lon="5.88628">
        <ele>295.74</ele>
        <time>2019-02-24T09:13:05Z</time>
      </trkpt>
      <trkpt lat="43.44593" lon="5.88637">
        <ele>296.22</ele>
        <time>2019-02-24T09:13:09Z</time>
      </trkpt>
      <trkpt lat="43.44594" lon="5.88641">
        <ele>297.18</ele>
        <time>2019-02-24T09:13:10Z</time>
      </trkpt>
      <trkpt lat="43.44594" lon="5.88645">
        <ele>297.18</ele>
        <time>2019-02-24T09:13:11Z</time>
      </trkpt>
      <trkpt lat="43.44594" lon="5.88649">
        <ele>297.67</ele>
        <time>2019-02-24T09:13:12Z</time>
      </trkpt>
      <trkpt lat="43.44594" lon="5.88653">
        <ele>298.15</ele>
        <time>2019-02-24T09:13:13Z</time>
      </trkpt>
      <trkpt lat="43.44592" lon="5.88655">
        <ele>298.15</ele>
        <time>2019-02-24T09:13:14Z</time>
      </trkpt>
      <trkpt lat="43.44592" lon="5.88659">
        <ele>298.63</ele>
        <time>2019-02-24T09:13:15Z</time>
      </trkpt>
      <trkpt lat="43.44591" lon="5.88661">
        <ele>298.63</ele>
        <time>2019-02-24T09:13:16Z</time>
      </trkpt>
      <trkpt lat="43.44589" lon="5.88663">
        <ele>299.11</ele>
        <time>2019-02-24T09:13:17Z</time>
      </trkpt>
      <trkpt lat="43.44587" lon="5.88664">
        <ele>299.11</ele>
        <time>2019-02-24T09:13:18Z</time>
      </trkpt>
      <trkpt lat="43.44585" lon="5.88665">
        <ele>299.11</ele>
        <time>2019-02-24T09:13:19Z</time>
      </trkpt>
      <trkpt lat="43.44582" lon="5.88665">
        <ele>299.11</ele>
        <time>2019-02-24T09:13:20Z</time>
      </trkpt>
      <trkpt lat="43.44549" lon="5.88674">
        <ele>300.07</ele>
        <time>2019-02-24T09:13:34Z</time>
      </trkpt>
      <trkpt lat="43.44514" lon="5.88711">
        <ele>297.18</ele>
        <time>2019-02-24T09:13:46Z</time>
      </trkpt>
      <trkpt lat="43.4451" lon="5.88714">
        <ele>295.74</ele>
        <time>2019-02-24T09:13:47Z</time>
      </trkpt>
      <trkpt lat="43.44505" lon="5.88716">
        <ele>295.26</ele>
        <time>2019-02-24T09:13:48Z</time>
      </trkpt>
      <trkpt lat="43.44439" lon="5.88744">
        <ele>292.38</ele>
        <time>2019-02-24T09:13:58Z</time>
      </trkpt>
      <trkpt lat="43.44425" lon="5.88752">
        <ele>291.9</ele>
        <time>2019-02-24T09:14:00Z</time>
      </trkpt>
      <trkpt lat="43.44419" lon="5.88757">
        <ele>291.9</ele>
        <time>2019-02-24T09:14:01Z</time>
      </trkpt>
      <trkpt lat="43.44414" lon="5.88763">
        <ele>291.9</ele>
        <time>2019-02-24T09:14:02Z</time>
      </trkpt>
      <trkpt lat="43.44408" lon="5.88769">
        <ele>291.42</ele>
        <time>2019-02-24T09:14:03Z</time>
      </trkpt>
      <trkpt lat="43.44403" lon="5.88777">
        <ele>291.42</ele>
        <time>2019-02-24T09:14:04Z</time>
      </trkpt>
      <trkpt lat="43.44387" lon="5.88807">
        <ele>290.46</ele>
        <time>2019-02-24T09:14:08Z</time>
      </trkpt>
      <trkpt lat="43.44385" lon="5.88814">
        <ele>290.46</ele>
        <time>2019-02-24T09:14:09Z</time>
      </trkpt>
      <trkpt lat="43.44382" lon="5.88823">
        <ele>289.97</ele>
        <time>2019-02-24T09:14:10Z</time>
      </trkpt>
      <trkpt lat="43.44377" lon="5.88848">
        <ele>289.49</ele>
        <time>2019-02-24T09:14:13Z</time>
      </trkpt>
      <trkpt lat="43.44363" lon="5.88985">
        <ele>288.05</ele>
        <time>2019-02-24T09:14:30Z</time>
      </trkpt>
      <trkpt lat="43.44338" lon="5.89102">
        <ele>287.09</ele>
        <time>2019-02-24T09:14:47Z</time>
      </trkpt>
      <trkpt lat="43.44312" lon="5.89209">
        <ele>286.61</ele>
        <time>2019-02-24T09:15:03Z</time>
      </trkpt>
      <trkpt lat="43.44304" lon="5.89262">
        <ele>286.13</ele>
        <time>2019-02-24T09:15:11Z</time>
      </trkpt>
      <trkpt lat="43.44302" lon="5.89267">
        <ele>286.13</ele>
        <time>2019-02-24T09:15:12Z</time>
      </trkpt>
      <trkpt lat="43.44299" lon="5.89273">
        <ele>285.65</ele>
        <time>2019-02-24T09:15:13Z</time>
      </trkpt>
      <trkpt lat="43.44296" lon="5.89279">
        <ele>285.65</ele>
        <time>2019-02-24T09:15:14Z</time>
      </trkpt>
      <trkpt lat="43.44293" lon="5.89285">
        <ele>285.65</ele>
        <time>2019-02-24T09:15:15Z</time>
      </trkpt>
      <trkpt lat="43.44286" lon="5.89297">
        <ele>285.17</ele>
        <time>2019-02-24T09:15:17Z</time>
      </trkpt>
      <trkpt lat="43.44253" lon="5.89378">
        <ele>284.21</ele>
        <time>2019-02-24T09:15:29Z</time>
      </trkpt>
      <trkpt lat="43.44237" lon="5.89404">
        <ele>284.21</ele>
        <time>2019-02-24T09:15:34Z</time>
      </trkpt>
      <trkpt lat="43.44234" lon="5.89408">
        <ele>284.21</ele>
        <time>2019-02-24T09:15:35Z</time>
      </trkpt>
      <trkpt lat="43.4423" lon="5.89412">
        <ele>283.25</ele>
        <time>2019-02-24T09:15:36Z</time>
      </trkpt>
      <trkpt lat="43.44226" lon="5.89415">
        <ele>283.25</ele>
        <time>2019-02-24T09:15:37Z</time>
      </trkpt>
      <trkpt lat="43.44221" lon="5.89416">
        <ele>283.25</ele>
        <time>2019-02-24T09:15:38Z</time>
      </trkpt>
      <trkpt lat="43.44216" lon="5.89417">
        <ele>282.77</ele>
        <time>2019-02-24T09:15:39Z</time>
      </trkpt>
      <trkpt lat="43.4421" lon="5.89418">
        <ele>282.77</ele>
        <time>2019-02-24T09:15:40Z</time>
      </trkpt>
      <trkpt lat="43.44205" lon="5.89418">
        <ele>282.77</ele>
        <time>2019-02-24T09:15:41Z</time>
      </trkpt>
      <trkpt lat="43.44187" lon="5.89416">
        <ele>281.8</ele>
        <time>2019-02-24T09:15:44Z</time>
      </trkpt>
      <trkpt lat="43.44151" lon="5.89413">
        <ele>279.88</ele>
        <time>2019-02-24T09:15:50Z</time>
      </trkpt>
      <trkpt lat="43.44145" lon="5.89415">
        <ele>279.4</ele>
        <time>2019-02-24T09:15:51Z</time>
      </trkpt>
      <trkpt lat="43.44139" lon="5.89418">
        <ele>278.92</ele>
        <time>2019-02-24T09:15:52Z</time>
      </trkpt>
      <trkpt lat="43.44133" lon="5.89424">
        <ele>278.92</ele>
        <time>2019-02-24T09:15:53Z</time>
      </trkpt>
      <trkpt lat="43.44128" lon="5.8943">
        <ele>278.92</ele>
        <time>2019-02-24T09:15:54Z</time>
      </trkpt>
      <trkpt lat="43.44123" lon="5.89437">
        <ele>278.92</ele>
        <time>2019-02-24T09:15:55Z</time>
      </trkpt>
      <trkpt lat="43.44111" lon="5.89455">
        <ele>278.44</ele>
        <time>2019-02-24T09:15:58Z</time>
      </trkpt>
      <trkpt lat="43.44107" lon="5.89459">
        <ele>277.48</ele>
        <time>2019-02-24T09:15:59Z</time>
      </trkpt>
      <trkpt lat="43.44099" lon="5.89467">
        <ele>277</ele>
        <time>2019-02-24T09:16:01Z</time>
      </trkpt>
      <trkpt lat="43.44095" lon="5.89472">
        <ele>277</ele>
        <time>2019-02-24T09:16:02Z</time>
      </trkpt>
      <trkpt lat="43.44091" lon="5.89479">
        <ele>276.52</ele>
        <time>2019-02-24T09:16:03Z</time>
      </trkpt>
      <trkpt lat="43.44089" lon="5.89485">
        <ele>276.52</ele>
        <time>2019-02-24T09:16:04Z</time>
      </trkpt>
      <trkpt lat="43.44087" lon="5.89492">
        <ele>276.52</ele>
        <time>2019-02-24T09:16:05Z</time>
      </trkpt>
      <trkpt lat="43.44086" lon="5.89499">
        <ele>276.52</ele>
        <time>2019-02-24T09:16:06Z</time>
      </trkpt>
      <trkpt lat="43.44086" lon="5.89506">
        <ele>276.52</ele>
        <time>2019-02-24T09:16:07Z</time>
      </trkpt>
      <trkpt lat="43.44087" lon="5.89535">
        <ele>276.52</ele>
        <time>2019-02-24T09:16:11Z</time>
      </trkpt>
      <trkpt lat="43.44088" lon="5.89541">
        <ele>276.52</ele>
        <time>2019-02-24T09:16:12Z</time>
      </trkpt>
      <trkpt lat="43.44089" lon="5.89548">
        <ele>276.52</ele>
        <time>2019-02-24T09:16:13Z</time>
      </trkpt>
      <trkpt lat="43.44092" lon="5.89554">
        <ele>276.52</ele>
        <time>2019-02-24T09:16:14Z</time>
      </trkpt>
      <trkpt lat="43.44094" lon="5.89561">
        <ele>276.04</ele>
        <time>2019-02-24T09:16:15Z</time>
      </trkpt>
      <trkpt lat="43.44096" lon="5.89568">
        <ele>276.04</ele>
        <time>2019-02-24T09:16:16Z</time>
      </trkpt>
      <trkpt lat="43.44097" lon="5.89574">
        <ele>276.04</ele>
        <time>2019-02-24T09:16:17Z</time>
      </trkpt>
      <trkpt lat="43.44103" lon="5.89687">
        <ele>275.07</ele>
        <time>2019-02-24T09:16:31Z</time>
      </trkpt>
      <trkpt lat="43.44102" lon="5.89695">
        <ele>275.07</ele>
        <time>2019-02-24T09:16:32Z</time>
      </trkpt>
      <trkpt lat="43.44101" lon="5.89702">
        <ele>275.07</ele>
        <time>2019-02-24T09:16:33Z</time>
      </trkpt>
      <trkpt lat="43.44099" lon="5.89709">
        <ele>275.07</ele>
        <time>2019-02-24T09:16:34Z</time>
      </trkpt>
      <trkpt lat="43.44096" lon="5.89716">
        <ele>274.59</ele>
        <time>2019-02-24T09:16:35Z</time>
      </trkpt>
      <trkpt lat="43.44093" lon="5.89721">
        <ele>274.59</ele>
        <time>2019-02-24T09:16:36Z</time>
      </trkpt>
      <trkpt lat="43.44089" lon="5.89725">
        <ele>274.59</ele>
        <time>2019-02-24T09:16:37Z</time>
      </trkpt>
      <trkpt lat="43.44085" lon="5.8973">
        <ele>274.59</ele>
        <time>2019-02-24T09:16:38Z</time>
      </trkpt>
      <trkpt lat="43.44081" lon="5.89734">
        <ele>274.59</ele>
        <time>2019-02-24T09:16:39Z</time>
      </trkpt>
      <trkpt lat="43.44015" lon="5.898">
        <ele>272.67</ele>
        <time>2019-02-24T09:16:52Z</time>
      </trkpt>
      <trkpt lat="43.44003" lon="5.89812">
        <ele>272.19</ele>
        <time>2019-02-24T09:16:55Z</time>
      </trkpt>
      <trkpt lat="43.43999" lon="5.89815">
        <ele>272.19</ele>
        <time>2019-02-24T09:16:56Z</time>
      </trkpt>
      <trkpt lat="43.43995" lon="5.89816">
        <ele>271.71</ele>
        <time>2019-02-24T09:16:57Z</time>
      </trkpt>
      <trkpt lat="43.43992" lon="5.89816">
        <ele>271.71</ele>
        <time>2019-02-24T09:16:58Z</time>
      </trkpt>
      <trkpt lat="43.43989" lon="5.89817">
        <ele>271.71</ele>
        <time>2019-02-24T09:16:59Z</time>
      </trkpt>
      <trkpt lat="43.43986" lon="5.89817">
        <ele>271.71</ele>
        <time>2019-02-24T09:17:00Z</time>
      </trkpt>
      <trkpt lat="43.43982" lon="5.89816">
        <ele>271.71</ele>
        <time>2019-02-24T09:17:01Z</time>
      </trkpt>
      <trkpt lat="43.43979" lon="5.89814">
        <ele>271.71</ele>
        <time>2019-02-24T09:17:02Z</time>
      </trkpt>
      <trkpt lat="43.43976" lon="5.89812">
        <ele>271.71</ele>
        <time>2019-02-24T09:17:03Z</time>
      </trkpt>
      <trkpt lat="43.43972" lon="5.89809">
        <ele>271.71</ele>
        <time>2019-02-24T09:17:04Z</time>
      </trkpt>
      <trkpt lat="43.43969" lon="5.89806">
        <ele>271.71</ele>
        <time>2019-02-24T09:17:05Z</time>
      </trkpt>
      <trkpt lat="43.43967" lon="5.89804">
        <ele>271.71</ele>
        <time>2019-02-24T09:17:06Z</time>
      </trkpt>
      <trkpt lat="43.43912" lon="5.89783">
        <ele>271.71</ele>
        <time>2019-02-24T09:17:21Z</time>
      </trkpt>
      <trkpt lat="43.43865" lon="5.89767">
        <ele>271.71</ele>
        <time>2019-02-24T09:17:35Z</time>
      </trkpt>
      <trkpt lat="43.4385" lon="5.8976">
        <ele>271.71</ele>
        <time>2019-02-24T09:17:47Z</time>
      </trkpt>
      <trkpt lat="43.43853" lon="5.8976">
        <ele>271.71</ele>
        <time>2019-02-24T09:17:54Z</time>
      </trkpt>
      <trkpt lat="43.43855" lon="5.8976">
        <ele>271.71</ele>
        <time>2019-02-24T09:17:55Z</time>
      </trkpt>
      <trkpt lat="43.43859" lon="5.89761">
        <ele>271.71</ele>
        <time>2019-02-24T09:17:58Z</time>
      </trkpt>
      <trkpt lat="43.4386" lon="5.89762">
        <ele>271.71</ele>
        <time>2019-02-24T09:17:59Z</time>
      </trkpt>
      <trkpt lat="43.4386" lon="5.89766">
        <ele>272.19</ele>
        <time>2019-02-24T09:18:02Z</time>
      </trkpt>
      <trkpt lat="43.43859" lon="5.89768">
        <ele>272.19</ele>
        <time>2019-02-24T09:18:04Z</time>
      </trkpt>
      <trkpt lat="43.43857" lon="5.89768">
        <ele>272.19</ele>
        <time>2019-02-24T09:18:05Z</time>
      </trkpt>
      <trkpt lat="43.43845" lon="5.89778">
        <ele>273.63</ele>
        <time>2019-02-24T09:18:15Z</time>
      </trkpt>
      <trkpt lat="43.43836" lon="5.89788">
        <ele>274.11</ele>
        <time>2019-02-24T09:18:20Z</time>
      </trkpt>
      <trkpt lat="43.43833" lon="5.8979">
        <ele>274.11</ele>
        <time>2019-02-24T09:18:21Z</time>
      </trkpt>
      <trkpt lat="43.43832" lon="5.89792">
        <ele>274.11</ele>
        <time>2019-02-24T09:18:22Z</time>
      </trkpt>
      <trkpt lat="43.43811" lon="5.89838">
        <ele>275.56</ele>
        <time>2019-02-24T09:18:38Z</time>
      </trkpt>
      <trkpt lat="43.43788" lon="5.89887">
        <ele>276.52</ele>
        <time>2019-02-24T09:18:53Z</time>
      </trkpt>
      <trkpt lat="43.43755" lon="5.89962">
        <ele>277</ele>
        <time>2019-02-24T09:19:10Z</time>
      </trkpt>
      <trkpt lat="43.43728" lon="5.89998">
        <ele>277.48</ele>
        <time>2019-02-24T09:19:22Z</time>
      </trkpt>
      <trkpt lat="43.43691" lon="5.90048">
        <ele>278.92</ele>
        <time>2019-02-24T09:19:39Z</time>
      </trkpt>
      <trkpt lat="43.43691" lon="5.90109">
        <ele>280.84</ele>
        <time>2019-02-24T09:19:53Z</time>
      </trkpt>
      <trkpt lat="43.43721" lon="5.90173">
        <ele>282.77</ele>
        <time>2019-02-24T09:20:10Z</time>
      </trkpt>
      <trkpt lat="43.43761" lon="5.90234">
        <ele>282.77</ele>
        <time>2019-02-24T09:20:27Z</time>
      </trkpt>
      <trkpt lat="43.43803" lon="5.90298">
        <ele>283.73</ele>
        <time>2019-02-24T09:20:46Z</time>
      </trkpt>
      <trkpt lat="43.43834" lon="5.90348">
        <ele>285.17</ele>
        <time>2019-02-24T09:21:01Z</time>
      </trkpt>
      <trkpt lat="43.43864" lon="5.90387">
        <ele>284.21</ele>
        <time>2019-02-24T09:21:14Z</time>
      </trkpt>
      <trkpt lat="43.43915" lon="5.90436">
        <ele>282.77</ele>
        <time>2019-02-24T09:21:29Z</time>
      </trkpt>
      <trkpt lat="43.43946" lon="5.90461">
        <ele>280.36</ele>
        <time>2019-02-24T09:21:38Z</time>
      </trkpt>
      <trkpt lat="43.43981" lon="5.90505">
        <ele>277.96</ele>
        <time>2019-02-24T09:21:51Z</time>
      </trkpt>
      <trkpt lat="43.43969" lon="5.90561">
        <ele>276.52</ele>
        <time>2019-02-24T09:22:05Z</time>
      </trkpt>
      <trkpt lat="43.43945" lon="5.9059">
        <ele>276.04</ele>
        <time>2019-02-24T09:22:16Z</time>
      </trkpt>
      <trkpt lat="43.43911" lon="5.90639">
        <ele>276.04</ele>
        <time>2019-02-24T09:22:32Z</time>
      </trkpt>
      <trkpt lat="43.43895" lon="5.9065">
        <ele>277.96</ele>
        <time>2019-02-24T09:22:39Z</time>
      </trkpt>
      <trkpt lat="43.43848" lon="5.90648">
        <ele>279.4</ele>
        <time>2019-02-24T09:22:57Z</time>
      </trkpt>
      <trkpt lat="43.43809" lon="5.90641">
        <ele>282.77</ele>
        <time>2019-02-24T09:23:13Z</time>
      </trkpt>
      <trkpt lat="43.43804" lon="5.90643">
        <ele>283.25</ele>
        <time>2019-02-24T09:23:15Z</time>
      </trkpt>
      <trkpt lat="43.43773" lon="5.90663">
        <ele>286.13</ele>
        <time>2019-02-24T09:23:30Z</time>
      </trkpt>
      <trkpt lat="43.43742" lon="5.90655">
        <ele>289.49</ele>
        <time>2019-02-24T09:23:43Z</time>
      </trkpt>
      <trkpt lat="43.43715" lon="5.90638">
        <ele>291.42</ele>
        <time>2019-02-24T09:23:56Z</time>
      </trkpt>
      <trkpt lat="43.43669" lon="5.90615">
        <ele>292.86</ele>
        <time>2019-02-24T09:24:14Z</time>
      </trkpt>
      <trkpt lat="43.43654" lon="5.90602">
        <ele>293.82</ele>
        <time>2019-02-24T09:24:27Z</time>
      </trkpt>
      <trkpt lat="43.43649" lon="5.90599">
        <ele>293.82</ele>
        <time>2019-02-24T09:25:01Z</time>
      </trkpt>
      <trkpt lat="43.43648" lon="5.90599">
        <ele>294.3</ele>
        <time>2019-02-24T09:25:37Z</time>
      </trkpt>
      <trkpt lat="43.43645" lon="5.90601">
        <ele>294.3</ele>
        <time>2019-02-24T09:26:05Z</time>
      </trkpt>
      <trkpt lat="43.43648" lon="5.90605">
        <ele>294.3</ele>
        <time>2019-02-24T09:26:25Z</time>
      </trkpt>
      <trkpt lat="43.43652" lon="5.90601">
        <ele>294.3</ele>
        <time>2019-02-24T09:26:44Z</time>
      </trkpt>
      <trkpt lat="43.43651" lon="5.90603">
        <ele>294.3</ele>
        <time>2019-02-24T09:27:06Z</time>
      </trkpt>
      <trkpt lat="43.43651" lon="5.90605">
        <ele>294.3</ele>
        <time>2019-02-24T09:27:21Z</time>
      </trkpt>
      <trkpt lat="43.4363" lon="5.90616">
        <ele>292.86</ele>
        <time>2019-02-24T09:27:32Z</time>
      </trkpt>
      <trkpt lat="43.43597" lon="5.90605">
        <ele>290.94</ele>
        <time>2019-02-24T09:27:43Z</time>
      </trkpt>
      <trkpt lat="43.43586" lon="5.90616">
        <ele>290.94</ele>
        <time>2019-02-24T09:27:49Z</time>
      </trkpt>
      <trkpt lat="43.43587" lon="5.90627">
        <ele>290.94</ele>
        <time>2019-02-24T09:27:53Z</time>
      </trkpt>
      <trkpt lat="43.43589" lon="5.90628">
        <ele>290.94</ele>
        <time>2019-02-24T09:27:54Z</time>
      </trkpt>
      <trkpt lat="43.4359" lon="5.9063">
        <ele>290.94</ele>
        <time>2019-02-24T09:27:55Z</time>
      </trkpt>
      <trkpt lat="43.43592" lon="5.90631">
        <ele>290.94</ele>
        <time>2019-02-24T09:27:56Z</time>
      </trkpt>
      <trkpt lat="43.43593" lon="5.90633">
        <ele>290.94</ele>
        <time>2019-02-24T09:27:57Z</time>
      </trkpt>
      <trkpt lat="43.43594" lon="5.90638">
        <ele>290.94</ele>
        <time>2019-02-24T09:27:59Z</time>
      </trkpt>
      <trkpt lat="43.43586" lon="5.90661">
        <ele>292.86</ele>
        <time>2019-02-24T09:28:08Z</time>
      </trkpt>
      <trkpt lat="43.43582" lon="5.90659">
        <ele>293.82</ele>
        <time>2019-02-24T09:28:11Z</time>
      </trkpt>
      <trkpt lat="43.43582" lon="5.90652">
        <ele>293.82</ele>
        <time>2019-02-24T09:28:15Z</time>
      </trkpt>
      <trkpt lat="43.43575" lon="5.90644">
        <ele>293.82</ele>
        <time>2019-02-24T09:28:20Z</time>
      </trkpt>
      <trkpt lat="43.4355" lon="5.90639">
        <ele>293.82</ele>
        <time>2019-02-24T09:28:32Z</time>
      </trkpt>
      <trkpt lat="43.43513" lon="5.90638">
        <ele>292.38</ele>
        <time>2019-02-24T09:28:46Z</time>
      </trkpt>
      <trkpt lat="43.43489" lon="5.90641">
        <ele>289.01</ele>
        <time>2019-02-24T09:28:55Z</time>
      </trkpt>
      <trkpt lat="43.43476" lon="5.90651">
        <ele>288.53</ele>
        <time>2019-02-24T09:28:59Z</time>
      </trkpt>
      <trkpt lat="43.43473" lon="5.90655">
        <ele>288.05</ele>
        <time>2019-02-24T09:29:00Z</time>
      </trkpt>
      <trkpt lat="43.43469" lon="5.9066">
        <ele>287.57</ele>
        <time>2019-02-24T09:29:01Z</time>
      </trkpt>
      <trkpt lat="43.43449" lon="5.90695">
        <ele>287.57</ele>
        <time>2019-02-24T09:29:08Z</time>
      </trkpt>
      <trkpt lat="43.43447" lon="5.907">
        <ele>287.57</ele>
        <time>2019-02-24T09:29:09Z</time>
      </trkpt>
      <trkpt lat="43.43444" lon="5.90705">
        <ele>287.57</ele>
        <time>2019-02-24T09:29:10Z</time>
      </trkpt>
      <trkpt lat="43.43443" lon="5.9071">
        <ele>287.57</ele>
        <time>2019-02-24T09:29:11Z</time>
      </trkpt>
      <trkpt lat="43.43441" lon="5.90714">
        <ele>287.57</ele>
        <time>2019-02-24T09:29:12Z</time>
      </trkpt>
      <trkpt lat="43.43439" lon="5.90719">
        <ele>287.57</ele>
        <time>2019-02-24T09:29:13Z</time>
      </trkpt>
      <trkpt lat="43.43437" lon="5.90723">
        <ele>287.57</ele>
        <time>2019-02-24T09:29:14Z</time>
      </trkpt>
      <trkpt lat="43.43423" lon="5.90761">
        <ele>287.57</ele>
        <time>2019-02-24T09:29:25Z</time>
      </trkpt>
      <trkpt lat="43.4341" lon="5.90806">
        <ele>289.49</ele>
        <time>2019-02-24T09:29:40Z</time>
      </trkpt>
      <trkpt lat="43.43407" lon="5.90818">
        <ele>289.49</ele>
        <time>2019-02-24T09:29:43Z</time>
      </trkpt>
      <trkpt lat="43.434" lon="5.90842">
        <ele>289.49</ele>
        <time>2019-02-24T09:29:54Z</time>
      </trkpt>
      <trkpt lat="43.43398" lon="5.90842">
        <ele>289.49</ele>
        <time>2019-02-24T09:30:02Z</time>
      </trkpt>
      <trkpt lat="43.43391" lon="5.90837">
        <ele>288.05</ele>
        <time>2019-02-24T09:30:06Z</time>
      </trkpt>
      <trkpt lat="43.43388" lon="5.90837">
        <ele>287.57</ele>
        <time>2019-02-24T09:30:07Z</time>
      </trkpt>
      <trkpt lat="43.43386" lon="5.90837">
        <ele>287.57</ele>
        <time>2019-02-24T09:30:08Z</time>
      </trkpt>
      <trkpt lat="43.43353" lon="5.90829">
        <ele>286.61</ele>
        <time>2019-02-24T09:30:19Z</time>
      </trkpt>
      <trkpt lat="43.43316" lon="5.90812">
        <ele>286.13</ele>
        <time>2019-02-24T09:30:32Z</time>
      </trkpt>
      <trkpt lat="43.43315" lon="5.9081">
        <ele>287.57</ele>
        <time>2019-02-24T09:30:33Z</time>
      </trkpt>
      <trkpt lat="43.43314" lon="5.90808">
        <ele>288.05</ele>
        <time>2019-02-24T09:30:34Z</time>
      </trkpt>
      <trkpt lat="43.43314" lon="5.90806">
        <ele>288.05</ele>
        <time>2019-02-24T09:30:35Z</time>
      </trkpt>
      <trkpt lat="43.433" lon="5.90766">
        <ele>288.53</ele>
        <time>2019-02-24T09:30:49Z</time>
      </trkpt>
      <trkpt lat="43.43272" lon="5.90741">
        <ele>289.01</ele>
        <time>2019-02-24T09:31:05Z</time>
      </trkpt>
      <trkpt lat="43.43241" lon="5.90736">
        <ele>289.97</ele>
        <time>2019-02-24T09:31:19Z</time>
      </trkpt>
      <trkpt lat="43.43239" lon="5.90737">
        <ele>289.97</ele>
        <time>2019-02-24T09:31:20Z</time>
      </trkpt>
      <trkpt lat="43.43217" lon="5.90763">
        <ele>291.42</ele>
        <time>2019-02-24T09:31:37Z</time>
      </trkpt>
      <trkpt lat="43.43198" lon="5.90788">
        <ele>292.86</ele>
        <time>2019-02-24T09:31:51Z</time>
      </trkpt>
      <trkpt lat="43.43198" lon="5.90788">
        <ele>293.34</ele>
        <time>2019-02-24T09:31:56Z</time>
      </trkpt>
      <trkpt lat="43.43209" lon="5.90762">
        <ele>291.9</ele>
        <time>2019-02-24T09:32:05Z</time>
      </trkpt>
      <trkpt lat="43.43243" lon="5.90731">
        <ele>290.46</ele>
        <time>2019-02-24T09:32:19Z</time>
      </trkpt>
      <trkpt lat="43.43282" lon="5.90742">
        <ele>289.01</ele>
        <time>2019-02-24T09:32:33Z</time>
      </trkpt>
      <trkpt lat="43.43309" lon="5.90785">
        <ele>288.53</ele>
        <time>2019-02-24T09:32:48Z</time>
      </trkpt>
      <trkpt lat="43.43332" lon="5.90803">
        <ele>286.61</ele>
        <time>2019-02-24T09:32:59Z</time>
      </trkpt>
      <trkpt lat="43.43337" lon="5.90807">
        <ele>286.61</ele>
        <time>2019-02-24T09:33:03Z</time>
      </trkpt>
      <trkpt lat="43.4334" lon="5.90808">
        <ele>286.61</ele>
        <time>2019-02-24T09:33:07Z</time>
      </trkpt>
      <trkpt lat="43.43343" lon="5.9081">
        <ele>286.61</ele>
        <time>2019-02-24T09:33:12Z</time>
      </trkpt>
      <trkpt lat="43.43344" lon="5.90812">
        <ele>286.61</ele>
        <time>2019-02-24T09:33:13Z</time>
      </trkpt>
      <trkpt lat="43.43345" lon="5.90813">
        <ele>286.61</ele>
        <time>2019-02-24T09:33:14Z</time>
      </trkpt>
      <trkpt lat="43.43347" lon="5.90814">
        <ele>286.61</ele>
        <time>2019-02-24T09:33:15Z</time>
      </trkpt>
      <trkpt lat="43.4335" lon="5.90816">
        <ele>286.61</ele>
        <time>2019-02-24T09:33:16Z</time>
      </trkpt>
      <trkpt lat="43.43386" lon="5.90833">
        <ele>288.05</ele>
        <time>2019-02-24T09:33:32Z</time>
      </trkpt>
      <trkpt lat="43.43389" lon="5.90836">
        <ele>288.53</ele>
        <time>2019-02-24T09:33:34Z</time>
      </trkpt>
      <trkpt lat="43.43389" lon="5.90845">
        <ele>289.01</ele>
        <time>2019-02-24T09:33:38Z</time>
      </trkpt>
      <trkpt lat="43.43388" lon="5.90848">
        <ele>289.01</ele>
        <time>2019-02-24T09:33:39Z</time>
      </trkpt>
      <trkpt lat="43.43371" lon="5.9091">
        <ele>290.46</ele>
        <time>2019-02-24T09:33:58Z</time>
      </trkpt>
      <trkpt lat="43.43355" lon="5.90954">
        <ele>292.86</ele>
        <time>2019-02-24T09:34:13Z</time>
      </trkpt>
      <trkpt lat="43.43341" lon="5.90982">
        <ele>291.9</ele>
        <time>2019-02-24T09:34:22Z</time>
      </trkpt>
      <trkpt lat="43.43336" lon="5.90986">
        <ele>291.42</ele>
        <time>2019-02-24T09:34:23Z</time>
      </trkpt>
      <trkpt lat="43.43331" lon="5.9099">
        <ele>290.94</ele>
        <time>2019-02-24T09:34:24Z</time>
      </trkpt>
      <trkpt lat="43.43326" lon="5.90996">
        <ele>290.46</ele>
        <time>2019-02-24T09:34:25Z</time>
      </trkpt>
      <trkpt lat="43.43322" lon="5.91002">
        <ele>290.46</ele>
        <time>2019-02-24T09:34:26Z</time>
      </trkpt>
      <trkpt lat="43.43293" lon="5.91039">
        <ele>290.46</ele>
        <time>2019-02-24T09:34:33Z</time>
      </trkpt>
      <trkpt lat="43.43245" lon="5.91101">
        <ele>290.94</ele>
        <time>2019-02-24T09:34:48Z</time>
      </trkpt>
      <trkpt lat="43.4321" lon="5.91132">
        <ele>292.38</ele>
        <time>2019-02-24T09:35:00Z</time>
      </trkpt>
      <trkpt lat="43.43177" lon="5.91189">
        <ele>292.86</ele>
        <time>2019-02-24T09:35:15Z</time>
      </trkpt>
      <trkpt lat="43.43139" lon="5.9123">
        <ele>293.82</ele>
        <time>2019-02-24T09:35:29Z</time>
      </trkpt>
      <trkpt lat="43.43091" lon="5.91269">
        <ele>294.78</ele>
        <time>2019-02-24T09:35:46Z</time>
      </trkpt>
      <trkpt lat="43.43067" lon="5.91284">
        <ele>298.15</ele>
        <time>2019-02-24T09:35:58Z</time>
      </trkpt>
      <trkpt lat="43.43049" lon="5.91293">
        <ele>301.03</ele>
        <time>2019-02-24T09:36:08Z</time>
      </trkpt>
      <trkpt lat="43.43027" lon="5.91308">
        <ele>302.47</ele>
        <time>2019-02-24T09:36:19Z</time>
      </trkpt>
      <trkpt lat="43.43001" lon="5.91321">
        <ele>304.88</ele>
        <time>2019-02-24T09:36:33Z</time>
      </trkpt>
      <trkpt lat="43.42967" lon="5.91336">
        <ele>308.72</ele>
        <time>2019-02-24T09:36:47Z</time>
      </trkpt>
      <trkpt lat="43.42952" lon="5.91366">
        <ele>308.24</ele>
        <time>2019-02-24T09:37:00Z</time>
      </trkpt>
      <trkpt lat="43.4295" lon="5.91372">
        <ele>308.24</ele>
        <time>2019-02-24T09:37:01Z</time>
      </trkpt>
      <trkpt lat="43.42947" lon="5.91378">
        <ele>308.72</ele>
        <time>2019-02-24T09:37:02Z</time>
      </trkpt>
      <trkpt lat="43.42943" lon="5.91383">
        <ele>308.72</ele>
        <time>2019-02-24T09:37:03Z</time>
      </trkpt>
      <trkpt lat="43.42936" lon="5.91393">
        <ele>307.28</ele>
        <time>2019-02-24T09:37:05Z</time>
      </trkpt>
      <trkpt lat="43.42904" lon="5.91434">
        <ele>305.36</ele>
        <time>2019-02-24T09:37:15Z</time>
      </trkpt>
      <trkpt lat="43.429" lon="5.91436">
        <ele>305.84</ele>
        <time>2019-02-24T09:37:23Z</time>
      </trkpt>
      <trkpt lat="43.42901" lon="5.91436">
        <ele>305.84</ele>
        <time>2019-02-24T09:37:24Z</time>
      </trkpt>
      <trkpt lat="43.42902" lon="5.91435">
        <ele>305.84</ele>
        <time>2019-02-24T09:37:25Z</time>
      </trkpt>
      <trkpt lat="43.42922" lon="5.91415">
        <ele>305.36</ele>
        <time>2019-02-24T09:37:38Z</time>
      </trkpt>
      <trkpt lat="43.42923" lon="5.91411">
        <ele>304.88</ele>
        <time>2019-02-24T09:37:39Z</time>
      </trkpt>
      <trkpt lat="43.42923" lon="5.91406">
        <ele>304.88</ele>
        <time>2019-02-24T09:37:40Z</time>
      </trkpt>
      <trkpt lat="43.42923" lon="5.91402">
        <ele>304.88</ele>
        <time>2019-02-24T09:37:41Z</time>
      </trkpt>
      <trkpt lat="43.4292" lon="5.91398">
        <ele>303.91</ele>
        <time>2019-02-24T09:37:42Z</time>
      </trkpt>
      <trkpt lat="43.42918" lon="5.91395">
        <ele>303.43</ele>
        <time>2019-02-24T09:37:43Z</time>
      </trkpt>
      <trkpt lat="43.42914" lon="5.91391">
        <ele>303.43</ele>
        <time>2019-02-24T09:37:44Z</time>
      </trkpt>
      <trkpt lat="43.42911" lon="5.91386">
        <ele>303.43</ele>
        <time>2019-02-24T09:37:45Z</time>
      </trkpt>
      <trkpt lat="43.42904" lon="5.91377">
        <ele>301.99</ele>
        <time>2019-02-24T09:37:47Z</time>
      </trkpt>
      <trkpt lat="43.42902" lon="5.91372">
        <ele>301.99</ele>
        <time>2019-02-24T09:37:48Z</time>
      </trkpt>
      <trkpt lat="43.429" lon="5.91366">
        <ele>301.99</ele>
        <time>2019-02-24T09:37:49Z</time>
      </trkpt>
      <trkpt lat="43.42898" lon="5.91359">
        <ele>301.51</ele>
        <time>2019-02-24T09:37:50Z</time>
      </trkpt>
      <trkpt lat="43.42897" lon="5.91352">
        <ele>301.03</ele>
        <time>2019-02-24T09:37:51Z</time>
      </trkpt>
      <trkpt lat="43.42895" lon="5.91345">
        <ele>300.55</ele>
        <time>2019-02-24T09:37:52Z</time>
      </trkpt>
      <trkpt lat="43.42893" lon="5.91339">
        <ele>300.55</ele>
        <time>2019-02-24T09:37:53Z</time>
      </trkpt>
      <trkpt lat="43.4289" lon="5.91335">
        <ele>299.59</ele>
        <time>2019-02-24T09:37:54Z</time>
      </trkpt>
      <trkpt lat="43.42887" lon="5.91331">
        <ele>299.59</ele>
        <time>2019-02-24T09:37:55Z</time>
      </trkpt>
      <trkpt lat="43.42882" lon="5.91322">
        <ele>299.11</ele>
        <time>2019-02-24T09:37:57Z</time>
      </trkpt>
      <trkpt lat="43.42878" lon="5.91321">
        <ele>299.11</ele>
        <time>2019-02-24T09:37:58Z</time>
      </trkpt>
      <trkpt lat="43.42828" lon="5.91307">
        <ele>298.63</ele>
        <time>2019-02-24T09:38:13Z</time>
      </trkpt>
      <trkpt lat="43.42786" lon="5.913">
        <ele>300.07</ele>
        <time>2019-02-24T09:38:24Z</time>
      </trkpt>
      <trkpt lat="43.42754" lon="5.91278">
        <ele>300.55</ele>
        <time>2019-02-24T09:38:35Z</time>
      </trkpt>
      <trkpt lat="43.42732" lon="5.9127">
        <ele>301.99</ele>
        <time>2019-02-24T09:38:43Z</time>
      </trkpt>
      <trkpt lat="43.4273" lon="5.91268">
        <ele>301.99</ele>
        <time>2019-02-24T09:38:44Z</time>
      </trkpt>
      <trkpt lat="43.42729" lon="5.91265">
        <ele>301.99</ele>
        <time>2019-02-24T09:38:45Z</time>
      </trkpt>
      <trkpt lat="43.42722" lon="5.91215">
        <ele>301.99</ele>
        <time>2019-02-24T09:38:56Z</time>
      </trkpt>
      <trkpt lat="43.42711" lon="5.91174">
        <ele>301.99</ele>
        <time>2019-02-24T09:39:08Z</time>
      </trkpt>
      <trkpt lat="43.42679" lon="5.91133">
        <ele>304.39</ele>
        <time>2019-02-24T09:39:24Z</time>
      </trkpt>
      <trkpt lat="43.42676" lon="5.91078">
        <ele>307.28</ele>
        <time>2019-02-24T09:39:39Z</time>
      </trkpt>
      <trkpt lat="43.42665" lon="5.9103">
        <ele>308.72</ele>
        <time>2019-02-24T09:39:54Z</time>
      </trkpt>
      <trkpt lat="43.4265" lon="5.90971">
        <ele>309.68</ele>
        <time>2019-02-24T09:40:11Z</time>
      </trkpt>
      <trkpt lat="43.42632" lon="5.90943">
        <ele>309.68</ele>
        <time>2019-02-24T09:40:23Z</time>
      </trkpt>
      <trkpt lat="43.426" lon="5.90912">
        <ele>311.6</ele>
        <time>2019-02-24T09:40:37Z</time>
      </trkpt>
      <trkpt lat="43.42578" lon="5.9089">
        <ele>313.05</ele>
        <time>2019-02-24T09:40:49Z</time>
      </trkpt>
      <trkpt lat="43.42545" lon="5.90878">
        <ele>314.97</ele>
        <time>2019-02-24T09:41:03Z</time>
      </trkpt>
      <trkpt lat="43.42523" lon="5.90865">
        <ele>318.33</ele>
        <time>2019-02-24T09:41:14Z</time>
      </trkpt>
      <trkpt lat="43.4249" lon="5.90853">
        <ele>320.26</ele>
        <time>2019-02-24T09:41:29Z</time>
      </trkpt>
      <trkpt lat="43.42455" lon="5.90843">
        <ele>321.7</ele>
        <time>2019-02-24T09:41:43Z</time>
      </trkpt>
      <trkpt lat="43.42424" lon="5.9081">
        <ele>321.7</ele>
        <time>2019-02-24T09:41:54Z</time>
      </trkpt>
      <trkpt lat="43.42412" lon="5.90755">
        <ele>319.78</ele>
        <time>2019-02-24T09:42:06Z</time>
      </trkpt>
      <trkpt lat="43.42388" lon="5.90694">
        <ele>318.33</ele>
        <time>2019-02-24T09:42:19Z</time>
      </trkpt>
      <trkpt lat="43.42375" lon="5.90671">
        <ele>314.97</ele>
        <time>2019-02-24T09:42:26Z</time>
      </trkpt>
      <trkpt lat="43.42368" lon="5.90656">
        <ele>313.05</ele>
        <time>2019-02-24T09:42:31Z</time>
      </trkpt>
      <trkpt lat="43.42368" lon="5.90654">
        <ele>313.05</ele>
        <time>2019-02-24T09:42:32Z</time>
      </trkpt>
      <trkpt lat="43.42368" lon="5.90651">
        <ele>313.05</ele>
        <time>2019-02-24T09:42:33Z</time>
      </trkpt>
      <trkpt lat="43.42369" lon="5.90647">
        <ele>313.05</ele>
        <time>2019-02-24T09:42:34Z</time>
      </trkpt>
      <trkpt lat="43.4237" lon="5.90645">
        <ele>313.05</ele>
        <time>2019-02-24T09:42:35Z</time>
      </trkpt>
      <trkpt lat="43.42372" lon="5.90643">
        <ele>313.05</ele>
        <time>2019-02-24T09:42:36Z</time>
      </trkpt>
      <trkpt lat="43.42374" lon="5.9064">
        <ele>313.05</ele>
        <time>2019-02-24T09:42:37Z</time>
      </trkpt>
      <trkpt lat="43.42376" lon="5.90637">
        <ele>313.05</ele>
        <time>2019-02-24T09:42:38Z</time>
      </trkpt>
      <trkpt lat="43.42385" lon="5.90618">
        <ele>314.49</ele>
        <time>2019-02-24T09:42:43Z</time>
      </trkpt>
      <trkpt lat="43.4241" lon="5.90549">
        <ele>316.41</ele>
        <time>2019-02-24T09:42:59Z</time>
      </trkpt>
      <trkpt lat="43.42433" lon="5.90492">
        <ele>318.81</ele>
        <time>2019-02-24T09:43:14Z</time>
      </trkpt>
      <trkpt lat="43.42451" lon="5.90438">
        <ele>318.81</ele>
        <time>2019-02-24T09:43:27Z</time>
      </trkpt>
      <trkpt lat="43.42455" lon="5.90427">
        <ele>317.37</ele>
        <time>2019-02-24T09:43:29Z</time>
      </trkpt>
      <trkpt lat="43.42463" lon="5.90406">
        <ele>316.89</ele>
        <time>2019-02-24T09:43:33Z</time>
      </trkpt>
      <trkpt lat="43.42465" lon="5.90401">
        <ele>316.89</ele>
        <time>2019-02-24T09:43:34Z</time>
      </trkpt>
      <trkpt lat="43.42468" lon="5.90396">
        <ele>315.93</ele>
        <time>2019-02-24T09:43:35Z</time>
      </trkpt>
      <trkpt lat="43.42472" lon="5.90392">
        <ele>315.93</ele>
        <time>2019-02-24T09:43:36Z</time>
      </trkpt>
      <trkpt lat="43.42476" lon="5.90388">
        <ele>315.45</ele>
        <time>2019-02-24T09:43:37Z</time>
      </trkpt>
      <trkpt lat="43.42483" lon="5.9038">
        <ele>314.49</ele>
        <time>2019-02-24T09:43:39Z</time>
      </trkpt>
      <trkpt lat="43.42503" lon="5.90363">
        <ele>314.01</ele>
        <time>2019-02-24T09:43:44Z</time>
      </trkpt>
      <trkpt lat="43.42508" lon="5.90361">
        <ele>313.53</ele>
        <time>2019-02-24T09:43:45Z</time>
      </trkpt>
      <trkpt lat="43.42513" lon="5.9036">
        <ele>313.53</ele>
        <time>2019-02-24T09:43:46Z</time>
      </trkpt>
      <trkpt lat="43.42517" lon="5.90361">
        <ele>312.57</ele>
        <time>2019-02-24T09:43:47Z</time>
      </trkpt>
      <trkpt lat="43.42521" lon="5.90362">
        <ele>312.57</ele>
        <time>2019-02-24T09:43:48Z</time>
      </trkpt>
      <trkpt lat="43.42525" lon="5.90365">
        <ele>311.12</ele>
        <time>2019-02-24T09:43:49Z</time>
      </trkpt>
      <trkpt lat="43.42529" lon="5.90368">
        <ele>312.57</ele>
        <time>2019-02-24T09:43:50Z</time>
      </trkpt>
      <trkpt lat="43.42534" lon="5.90371">
        <ele>312.57</ele>
        <time>2019-02-24T09:43:51Z</time>
      </trkpt>
      <trkpt lat="43.42556" lon="5.90389">
        <ele>309.68</ele>
        <time>2019-02-24T09:43:58Z</time>
      </trkpt>
      <trkpt lat="43.42564" lon="5.90398">
        <ele>308.72</ele>
        <time>2019-02-24T09:44:01Z</time>
      </trkpt>
      <trkpt lat="43.42569" lon="5.90401">
        <ele>308.72</ele>
        <time>2019-02-24T09:44:02Z</time>
      </trkpt>
      <trkpt lat="43.42573" lon="5.90403">
        <ele>308.24</ele>
        <time>2019-02-24T09:44:03Z</time>
      </trkpt>
      <trkpt lat="43.42603" lon="5.90411">
        <ele>305.84</ele>
        <time>2019-02-24T09:44:10Z</time>
      </trkpt>
      <trkpt lat="43.42632" lon="5.90423">
        <ele>303.91</ele>
        <time>2019-02-24T09:44:17Z</time>
      </trkpt>
      <trkpt lat="43.42637" lon="5.90424">
        <ele>303.43</ele>
        <time>2019-02-24T09:44:18Z</time>
      </trkpt>
      <trkpt lat="43.42659" lon="5.90435">
        <ele>301.51</ele>
        <time>2019-02-24T09:44:22Z</time>
      </trkpt>
      <trkpt lat="43.42664" lon="5.90438">
        <ele>301.03</ele>
        <time>2019-02-24T09:44:23Z</time>
      </trkpt>
      <trkpt lat="43.42669" lon="5.90443">
        <ele>301.03</ele>
        <time>2019-02-24T09:44:24Z</time>
      </trkpt>
      <trkpt lat="43.42674" lon="5.90448">
        <ele>301.03</ele>
        <time>2019-02-24T09:44:25Z</time>
      </trkpt>
      <trkpt lat="43.42679" lon="5.90453">
        <ele>301.03</ele>
        <time>2019-02-24T09:44:26Z</time>
      </trkpt>
      <trkpt lat="43.42684" lon="5.90458">
        <ele>299.11</ele>
        <time>2019-02-24T09:44:27Z</time>
      </trkpt>
      <trkpt lat="43.42698" lon="5.9047">
        <ele>299.59</ele>
        <time>2019-02-24T09:44:30Z</time>
      </trkpt>
      <trkpt lat="43.42703" lon="5.90473">
        <ele>299.59</ele>
        <time>2019-02-24T09:44:31Z</time>
      </trkpt>
      <trkpt lat="43.42708" lon="5.90476">
        <ele>299.11</ele>
        <time>2019-02-24T09:44:32Z</time>
      </trkpt>
      <trkpt lat="43.42713" lon="5.90478">
        <ele>299.59</ele>
        <time>2019-02-24T09:44:33Z</time>
      </trkpt>
      <trkpt lat="43.42717" lon="5.90479">
        <ele>299.11</ele>
        <time>2019-02-24T09:44:34Z</time>
      </trkpt>
      <trkpt lat="43.42748" lon="5.90471">
        <ele>301.51</ele>
        <time>2019-02-24T09:44:44Z</time>
      </trkpt>
      <trkpt lat="43.42771" lon="5.90461">
        <ele>301.99</ele>
        <time>2019-02-24T09:44:54Z</time>
      </trkpt>
      <trkpt lat="43.4279" lon="5.90457">
        <ele>302.95</ele>
        <time>2019-02-24T09:45:01Z</time>
      </trkpt>
      <trkpt lat="43.42796" lon="5.90454">
        <ele>302.95</ele>
        <time>2019-02-24T09:45:03Z</time>
      </trkpt>
      <trkpt lat="43.428" lon="5.90454">
        <ele>302.95</ele>
        <time>2019-02-24T09:45:04Z</time>
      </trkpt>
      <trkpt lat="43.42803" lon="5.90453">
        <ele>302.95</ele>
        <time>2019-02-24T09:45:05Z</time>
      </trkpt>
      <trkpt lat="43.42806" lon="5.90453">
        <ele>301.51</ele>
        <time>2019-02-24T09:45:06Z</time>
      </trkpt>
      <trkpt lat="43.42809" lon="5.90453">
        <ele>301.51</ele>
        <time>2019-02-24T09:45:07Z</time>
      </trkpt>
      <trkpt lat="43.42813" lon="5.90452">
        <ele>301.03</ele>
        <time>2019-02-24T09:45:08Z</time>
      </trkpt>
      <trkpt lat="43.42827" lon="5.9045">
        <ele>299.59</ele>
        <time>2019-02-24T09:45:12Z</time>
      </trkpt>
      <trkpt lat="43.42894" lon="5.90446">
        <ele>300.07</ele>
        <time>2019-02-24T09:45:26Z</time>
      </trkpt>
      <trkpt lat="43.4295" lon="5.90435">
        <ele>301.51</ele>
        <time>2019-02-24T09:45:42Z</time>
      </trkpt>
      <trkpt lat="43.42953" lon="5.90435">
        <ele>301.51</ele>
        <time>2019-02-24T09:45:43Z</time>
      </trkpt>
      <trkpt lat="43.42999" lon="5.90425">
        <ele>302.95</ele>
        <time>2019-02-24T09:45:59Z</time>
      </trkpt>
      <trkpt lat="43.43012" lon="5.90407">
        <ele>304.88</ele>
        <time>2019-02-24T09:46:07Z</time>
      </trkpt>
      <trkpt lat="43.43014" lon="5.90406">
        <ele>304.88</ele>
        <time>2019-02-24T09:46:08Z</time>
      </trkpt>
      <trkpt lat="43.43018" lon="5.90406">
        <ele>305.84</ele>
        <time>2019-02-24T09:46:10Z</time>
      </trkpt>
      <trkpt lat="43.43019" lon="5.90408">
        <ele>306.32</ele>
        <time>2019-02-24T09:46:11Z</time>
      </trkpt>
      <trkpt lat="43.43021" lon="5.90412">
        <ele>306.8</ele>
        <time>2019-02-24T09:46:13Z</time>
      </trkpt>
      <trkpt lat="43.43023" lon="5.90413">
        <ele>306.8</ele>
        <time>2019-02-24T09:46:14Z</time>
      </trkpt>
      <trkpt lat="43.43024" lon="5.90414">
        <ele>306.8</ele>
        <time>2019-02-24T09:46:15Z</time>
      </trkpt>
      <trkpt lat="43.43025" lon="5.90415">
        <ele>307.28</ele>
        <time>2019-02-24T09:46:16Z</time>
      </trkpt>
      <trkpt lat="43.43027" lon="5.90416">
        <ele>307.28</ele>
        <time>2019-02-24T09:46:17Z</time>
      </trkpt>
      <trkpt lat="43.43029" lon="5.90418">
        <ele>307.76</ele>
        <time>2019-02-24T09:46:18Z</time>
      </trkpt>
      <trkpt lat="43.43069" lon="5.90425">
        <ele>307.76</ele>
        <time>2019-02-24T09:46:31Z</time>
      </trkpt>
      <trkpt lat="43.43071" lon="5.90424">
        <ele>307.76</ele>
        <time>2019-02-24T09:46:32Z</time>
      </trkpt>
      <trkpt lat="43.43074" lon="5.90423">
        <ele>307.76</ele>
        <time>2019-02-24T09:46:33Z</time>
      </trkpt>
      <trkpt lat="43.43083" lon="5.90418">
        <ele>307.76</ele>
        <time>2019-02-24T09:46:36Z</time>
      </trkpt>
      <trkpt lat="43.43085" lon="5.90414">
        <ele>306.32</ele>
        <time>2019-02-24T09:46:37Z</time>
      </trkpt>
      <trkpt lat="43.43088" lon="5.90412">
        <ele>306.32</ele>
        <time>2019-02-24T09:46:38Z</time>
      </trkpt>
      <trkpt lat="43.43115" lon="5.90389">
        <ele>306.32</ele>
        <time>2019-02-24T09:46:48Z</time>
      </trkpt>
      <trkpt lat="43.43153" lon="5.90373">
        <ele>306.8</ele>
        <time>2019-02-24T09:47:00Z</time>
      </trkpt>
      <trkpt lat="43.43172" lon="5.90355">
        <ele>303.91</ele>
        <time>2019-02-24T09:47:10Z</time>
      </trkpt>
      <trkpt lat="43.43174" lon="5.90355">
        <ele>302.95</ele>
        <time>2019-02-24T09:47:11Z</time>
      </trkpt>
      <trkpt lat="43.43177" lon="5.90356">
        <ele>302.95</ele>
        <time>2019-02-24T09:47:12Z</time>
      </trkpt>
      <trkpt lat="43.4318" lon="5.90357">
        <ele>302.47</ele>
        <time>2019-02-24T09:47:13Z</time>
      </trkpt>
      <trkpt lat="43.43184" lon="5.90358">
        <ele>302.47</ele>
        <time>2019-02-24T09:47:14Z</time>
      </trkpt>
      <trkpt lat="43.43187" lon="5.9036">
        <ele>301.99</ele>
        <time>2019-02-24T09:47:15Z</time>
      </trkpt>
      <trkpt lat="43.43191" lon="5.90361">
        <ele>301.51</ele>
        <time>2019-02-24T09:47:16Z</time>
      </trkpt>
      <trkpt lat="43.4322" lon="5.90363">
        <ele>300.55</ele>
        <time>2019-02-24T09:47:25Z</time>
      </trkpt>
      <trkpt lat="43.43223" lon="5.90362">
        <ele>300.55</ele>
        <time>2019-02-24T09:47:26Z</time>
      </trkpt>
      <trkpt lat="43.43242" lon="5.90345">
        <ele>299.11</ele>
        <time>2019-02-24T09:47:34Z</time>
      </trkpt>
      <trkpt lat="43.43243" lon="5.90342">
        <ele>299.11</ele>
        <time>2019-02-24T09:47:35Z</time>
      </trkpt>
      <trkpt lat="43.43244" lon="5.9034">
        <ele>298.63</ele>
        <time>2019-02-24T09:47:36Z</time>
      </trkpt>
      <trkpt lat="43.43246" lon="5.90338">
        <ele>298.63</ele>
        <time>2019-02-24T09:47:37Z</time>
      </trkpt>
      <trkpt lat="43.43247" lon="5.90337">
        <ele>297.67</ele>
        <time>2019-02-24T09:47:38Z</time>
      </trkpt>
      <trkpt lat="43.43249" lon="5.90336">
        <ele>297.67</ele>
        <time>2019-02-24T09:47:39Z</time>
      </trkpt>
      <trkpt lat="43.43251" lon="5.90335">
        <ele>297.18</ele>
        <time>2019-02-24T09:47:40Z</time>
      </trkpt>
      <trkpt lat="43.43255" lon="5.90334">
        <ele>296.22</ele>
        <time>2019-02-24T09:47:41Z</time>
      </trkpt>
      <trkpt lat="43.43257" lon="5.90334">
        <ele>296.7</ele>
        <time>2019-02-24T09:47:42Z</time>
      </trkpt>
      <trkpt lat="43.43276" lon="5.90322">
        <ele>294.3</ele>
        <time>2019-02-24T09:47:48Z</time>
      </trkpt>
      <trkpt lat="43.43293" lon="5.90317">
        <ele>291.9</ele>
        <time>2019-02-24T09:47:52Z</time>
      </trkpt>
      <trkpt lat="43.43298" lon="5.90315">
        <ele>291.42</ele>
        <time>2019-02-24T09:47:53Z</time>
      </trkpt>
      <trkpt lat="43.43302" lon="5.90312">
        <ele>291.42</ele>
        <time>2019-02-24T09:47:54Z</time>
      </trkpt>
      <trkpt lat="43.43306" lon="5.90309">
        <ele>291.42</ele>
        <time>2019-02-24T09:47:55Z</time>
      </trkpt>
      <trkpt lat="43.43317" lon="5.90298">
        <ele>290.94</ele>
        <time>2019-02-24T09:47:58Z</time>
      </trkpt>
      <trkpt lat="43.43325" lon="5.90292">
        <ele>290.94</ele>
        <time>2019-02-24T09:48:00Z</time>
      </trkpt>
      <trkpt lat="43.43329" lon="5.90289">
        <ele>290.94</ele>
        <time>2019-02-24T09:48:01Z</time>
      </trkpt>
      <trkpt lat="43.43334" lon="5.90288">
        <ele>290.46</ele>
        <time>2019-02-24T09:48:02Z</time>
      </trkpt>
      <trkpt lat="43.43338" lon="5.90287">
        <ele>290.46</ele>
        <time>2019-02-24T09:48:03Z</time>
      </trkpt>
      <trkpt lat="43.43342" lon="5.90286">
        <ele>290.46</ele>
        <time>2019-02-24T09:48:04Z</time>
      </trkpt>
      <trkpt lat="43.43369" lon="5.90269">
        <ele>289.97</ele>
        <time>2019-02-24T09:48:13Z</time>
      </trkpt>
      <trkpt lat="43.43389" lon="5.90238">
        <ele>289.49</ele>
        <time>2019-02-24T09:48:23Z</time>
      </trkpt>
      <trkpt lat="43.43416" lon="5.90209">
        <ele>289.49</ele>
        <time>2019-02-24T09:48:34Z</time>
      </trkpt>
      <trkpt lat="43.43457" lon="5.90213">
        <ele>289.49</ele>
        <time>2019-02-24T09:48:49Z</time>
      </trkpt>
      <trkpt lat="43.43487" lon="5.90233">
        <ele>289.49</ele>
        <time>2019-02-24T09:49:04Z</time>
      </trkpt>
      <trkpt lat="43.43511" lon="5.90216">
        <ele>289.49</ele>
        <time>2019-02-24T09:49:16Z</time>
      </trkpt>
      <trkpt lat="43.43532" lon="5.90193">
        <ele>289.49</ele>
        <time>2019-02-24T09:49:28Z</time>
      </trkpt>
      <trkpt lat="43.43548" lon="5.90165">
        <ele>289.49</ele>
        <time>2019-02-24T09:49:38Z</time>
      </trkpt>
      <trkpt lat="43.43572" lon="5.90151">
        <ele>288.05</ele>
        <time>2019-02-24T09:49:52Z</time>
      </trkpt>
      <trkpt lat="43.43572" lon="5.90149">
        <ele>288.05</ele>
        <time>2019-02-24T09:50:16Z</time>
      </trkpt>
      <trkpt lat="43.43595" lon="5.90166">
        <ele>288.05</ele>
        <time>2019-02-24T09:50:30Z</time>
      </trkpt>
      <trkpt lat="43.43626" lon="5.90175">
        <ele>289.49</ele>
        <time>2019-02-24T09:50:45Z</time>
      </trkpt>
      <trkpt lat="43.43652" lon="5.90184">
        <ele>290.94</ele>
        <time>2019-02-24T09:50:59Z</time>
      </trkpt>
      <trkpt lat="43.43661" lon="5.90197">
        <ele>291.42</ele>
        <time>2019-02-24T09:51:07Z</time>
      </trkpt>
      <trkpt lat="43.43671" lon="5.90212">
        <ele>293.82</ele>
        <time>2019-02-24T09:51:22Z</time>
      </trkpt>
      <trkpt lat="43.43674" lon="5.90214">
        <ele>294.3</ele>
        <time>2019-02-24T09:51:31Z</time>
      </trkpt>
      <trkpt lat="43.43683" lon="5.90208">
        <ele>294.3</ele>
        <time>2019-02-24T09:51:35Z</time>
      </trkpt>
      <trkpt lat="43.43692" lon="5.90197">
        <ele>291.42</ele>
        <time>2019-02-24T09:51:38Z</time>
      </trkpt>
      <trkpt lat="43.43714" lon="5.90168">
        <ele>293.34</ele>
        <time>2019-02-24T09:51:51Z</time>
      </trkpt>
      <trkpt lat="43.43737" lon="5.90171">
        <ele>294.3</ele>
        <time>2019-02-24T09:52:03Z</time>
      </trkpt>
      <trkpt lat="43.43763" lon="5.90165">
        <ele>296.22</ele>
        <time>2019-02-24T09:52:16Z</time>
      </trkpt>
      <trkpt lat="43.43787" lon="5.90148">
        <ele>299.59</ele>
        <time>2019-02-24T09:52:27Z</time>
      </trkpt>
      <trkpt lat="43.43795" lon="5.90145">
        <ele>300.07</ele>
        <time>2019-02-24T09:52:32Z</time>
      </trkpt>
      <trkpt lat="43.43828" lon="5.9017">
        <ele>299.59</ele>
        <time>2019-02-24T09:52:46Z</time>
      </trkpt>
      <trkpt lat="43.43862" lon="5.90193">
        <ele>300.07</ele>
        <time>2019-02-24T09:52:59Z</time>
      </trkpt>
      <trkpt lat="43.4387" lon="5.90198">
        <ele>300.07</ele>
        <time>2019-02-24T09:53:13Z</time>
      </trkpt>
      <trkpt lat="43.43871" lon="5.90198">
        <ele>300.07</ele>
        <time>2019-02-24T09:53:14Z</time>
      </trkpt>
      <trkpt lat="43.43872" lon="5.90198">
        <ele>300.07</ele>
        <time>2019-02-24T09:53:15Z</time>
      </trkpt>
      <trkpt lat="43.43879" lon="5.90197">
        <ele>301.03</ele>
        <time>2019-02-24T09:53:21Z</time>
      </trkpt>
      <trkpt lat="43.43882" lon="5.90196">
        <ele>301.51</ele>
        <time>2019-02-24T09:53:25Z</time>
      </trkpt>
      <trkpt lat="43.43901" lon="5.90185">
        <ele>303.43</ele>
        <time>2019-02-24T09:53:41Z</time>
      </trkpt>
      <trkpt lat="43.43924" lon="5.90178">
        <ele>304.88</ele>
        <time>2019-02-24T09:53:56Z</time>
      </trkpt>
      <trkpt lat="43.43956" lon="5.90179">
        <ele>307.28</ele>
        <time>2019-02-24T09:54:13Z</time>
      </trkpt>
      <trkpt lat="43.43975" lon="5.90169">
        <ele>310.16</ele>
        <time>2019-02-24T09:54:22Z</time>
      </trkpt>
      <trkpt lat="43.43977" lon="5.90169">
        <ele>310.16</ele>
        <time>2019-02-24T09:54:23Z</time>
      </trkpt>
      <trkpt lat="43.43978" lon="5.90169">
        <ele>310.16</ele>
        <time>2019-02-24T09:54:24Z</time>
      </trkpt>
      <trkpt lat="43.43979" lon="5.9017">
        <ele>310.16</ele>
        <time>2019-02-24T09:54:25Z</time>
      </trkpt>
      <trkpt lat="43.43984" lon="5.90175">
        <ele>310.64</ele>
        <time>2019-02-24T09:54:30Z</time>
      </trkpt>
      <trkpt lat="43.43987" lon="5.90201">
        <ele>309.2</ele>
        <time>2019-02-24T09:54:37Z</time>
      </trkpt>
      <trkpt lat="43.43993" lon="5.90241">
        <ele>308.24</ele>
        <time>2019-02-24T09:54:47Z</time>
      </trkpt>
      <trkpt lat="43.43995" lon="5.90242">
        <ele>308.24</ele>
        <time>2019-02-24T09:54:48Z</time>
      </trkpt>
      <trkpt lat="43.44018" lon="5.90241">
        <ele>309.68</ele>
        <time>2019-02-24T09:55:00Z</time>
      </trkpt>
      <trkpt lat="43.44025" lon="5.90247">
        <ele>310.64</ele>
        <time>2019-02-24T09:55:04Z</time>
      </trkpt>
      <trkpt lat="43.44026" lon="5.90249">
        <ele>310.64</ele>
        <time>2019-02-24T09:55:05Z</time>
      </trkpt>
      <trkpt lat="43.44026" lon="5.90252">
        <ele>310.64</ele>
        <time>2019-02-24T09:55:06Z</time>
      </trkpt>
      <trkpt lat="43.44025" lon="5.90254">
        <ele>310.64</ele>
        <time>2019-02-24T09:55:07Z</time>
      </trkpt>
      <trkpt lat="43.44024" lon="5.90257">
        <ele>310.64</ele>
        <time>2019-02-24T09:55:08Z</time>
      </trkpt>
      <trkpt lat="43.44017" lon="5.90288">
        <ele>311.6</ele>
        <time>2019-02-24T09:55:21Z</time>
      </trkpt>
      <trkpt lat="43.43996" lon="5.90297">
        <ele>312.57</ele>
        <time>2019-02-24T09:55:33Z</time>
      </trkpt>
      <trkpt lat="43.4397" lon="5.90313">
        <ele>313.53</ele>
        <time>2019-02-24T09:55:47Z</time>
      </trkpt>
      <trkpt lat="43.43964" lon="5.90312">
        <ele>313.05</ele>
        <time>2019-02-24T09:55:51Z</time>
      </trkpt>
      <trkpt lat="43.4395" lon="5.90309">
        <ele>313.05</ele>
        <time>2019-02-24T09:56:03Z</time>
      </trkpt>
      <trkpt lat="43.4395" lon="5.9031">
        <ele>313.05</ele>
        <time>2019-02-24T09:56:04Z</time>
      </trkpt>
      <trkpt lat="43.43949" lon="5.90312">
        <ele>313.05</ele>
        <time>2019-02-24T09:56:05Z</time>
      </trkpt>
      <trkpt lat="43.4395" lon="5.90313">
        <ele>313.05</ele>
        <time>2019-02-24T09:56:07Z</time>
      </trkpt>
      <trkpt lat="43.43951" lon="5.90313">
        <ele>313.05</ele>
        <time>2019-02-24T09:56:08Z</time>
      </trkpt>
      <trkpt lat="43.43953" lon="5.90313">
        <ele>313.05</ele>
        <time>2019-02-24T09:56:11Z</time>
      </trkpt>
      <trkpt lat="43.43954" lon="5.90312">
        <ele>313.05</ele>
        <time>2019-02-24T09:56:12Z</time>
      </trkpt>
      <trkpt lat="43.43955" lon="5.90312">
        <ele>313.05</ele>
        <time>2019-02-24T09:56:13Z</time>
      </trkpt>
      <trkpt lat="43.43957" lon="5.90312">
        <ele>313.05</ele>
        <time>2019-02-24T09:56:14Z</time>
      </trkpt>
      <trkpt lat="43.43958" lon="5.90312">
        <ele>313.05</ele>
        <time>2019-02-24T09:56:15Z</time>
      </trkpt>
      <trkpt lat="43.43968" lon="5.90312">
        <ele>313.05</ele>
        <time>2019-02-24T09:56:22Z</time>
      </trkpt>
      <trkpt lat="43.43987" lon="5.90302">
        <ele>313.05</ele>
        <time>2019-02-24T09:56:33Z</time>
      </trkpt>
      <trkpt lat="43.44" lon="5.90299">
        <ele>312.09</ele>
        <time>2019-02-24T09:56:39Z</time>
      </trkpt>
      <trkpt lat="43.44012" lon="5.90294">
        <ele>311.6</ele>
        <time>2019-02-24T09:56:44Z</time>
      </trkpt>
      <trkpt lat="43.44013" lon="5.90291">
        <ele>311.6</ele>
        <time>2019-02-24T09:56:45Z</time>
      </trkpt>
      <trkpt lat="43.44014" lon="5.90289">
        <ele>311.6</ele>
        <time>2019-02-24T09:56:46Z</time>
      </trkpt>
      <trkpt lat="43.44015" lon="5.90286">
        <ele>311.6</ele>
        <time>2019-02-24T09:56:47Z</time>
      </trkpt>
      <trkpt lat="43.44016" lon="5.90284">
        <ele>311.6</ele>
        <time>2019-02-24T09:56:48Z</time>
      </trkpt>
      <trkpt lat="43.44017" lon="5.90281">
        <ele>311.6</ele>
        <time>2019-02-24T09:56:49Z</time>
      </trkpt>
      <trkpt lat="43.44018" lon="5.90279">
        <ele>311.6</ele>
        <time>2019-02-24T09:56:50Z</time>
      </trkpt>
      <trkpt lat="43.44019" lon="5.90277">
        <ele>311.6</ele>
        <time>2019-02-24T09:56:51Z</time>
      </trkpt>
      <trkpt lat="43.44025" lon="5.90265">
        <ele>311.12</ele>
        <time>2019-02-24T09:56:59Z</time>
      </trkpt>
      <trkpt lat="43.44025" lon="5.90263">
        <ele>311.12</ele>
        <time>2019-02-24T09:57:00Z</time>
      </trkpt>
      <trkpt lat="43.44022" lon="5.90256">
        <ele>311.12</ele>
        <time>2019-02-24T09:57:02Z</time>
      </trkpt>
      <trkpt lat="43.44022" lon="5.90253">
        <ele>310.64</ele>
        <time>2019-02-24T09:57:03Z</time>
      </trkpt>
      <trkpt lat="43.43998" lon="5.90241">
        <ele>308.72</ele>
        <time>2019-02-24T09:57:13Z</time>
      </trkpt>
      <trkpt lat="43.43997" lon="5.90237">
        <ele>308.72</ele>
        <time>2019-02-24T09:57:14Z</time>
      </trkpt>
      <trkpt lat="43.43997" lon="5.90234">
        <ele>308.72</ele>
        <time>2019-02-24T09:57:15Z</time>
      </trkpt>
      <trkpt lat="43.43997" lon="5.90231">
        <ele>308.72</ele>
        <time>2019-02-24T09:57:16Z</time>
      </trkpt>
      <trkpt lat="43.43997" lon="5.90227">
        <ele>308.72</ele>
        <time>2019-02-24T09:57:17Z</time>
      </trkpt>
      <trkpt lat="43.43993" lon="5.90178">
        <ele>311.12</ele>
        <time>2019-02-24T09:57:33Z</time>
      </trkpt>
      <trkpt lat="43.43979" lon="5.90175">
        <ele>311.12</ele>
        <time>2019-02-24T09:57:42Z</time>
      </trkpt>
      <trkpt lat="43.43978" lon="5.90177">
        <ele>309.68</ele>
        <time>2019-02-24T09:57:43Z</time>
      </trkpt>
      <trkpt lat="43.43978" lon="5.90178">
        <ele>309.68</ele>
        <time>2019-02-24T09:57:44Z</time>
      </trkpt>
      <trkpt lat="43.43978" lon="5.90179">
        <ele>309.68</ele>
        <time>2019-02-24T09:57:45Z</time>
      </trkpt>
      <trkpt lat="43.43979" lon="5.90181">
        <ele>308.72</ele>
        <time>2019-02-24T09:57:46Z</time>
      </trkpt>
      <trkpt lat="43.4398" lon="5.90182">
        <ele>308.72</ele>
        <time>2019-02-24T09:57:47Z</time>
      </trkpt>
      <trkpt lat="43.43982" lon="5.90183">
        <ele>308.24</ele>
        <time>2019-02-24T09:57:48Z</time>
      </trkpt>
      <trkpt lat="43.43983" lon="5.90184">
        <ele>308.24</ele>
        <time>2019-02-24T09:57:49Z</time>
      </trkpt>
      <trkpt lat="43.43986" lon="5.90187">
        <ele>308.24</ele>
        <time>2019-02-24T09:57:51Z</time>
      </trkpt>
      <trkpt lat="43.43988" lon="5.9019">
        <ele>308.24</ele>
        <time>2019-02-24T09:57:52Z</time>
      </trkpt>
      <trkpt lat="43.43988" lon="5.90193">
        <ele>308.24</ele>
        <time>2019-02-24T09:57:53Z</time>
      </trkpt>
      <trkpt lat="43.43988" lon="5.90197">
        <ele>308.24</ele>
        <time>2019-02-24T09:57:54Z</time>
      </trkpt>
      <trkpt lat="43.43988" lon="5.90202">
        <ele>308.24</ele>
        <time>2019-02-24T09:57:55Z</time>
      </trkpt>
      <trkpt lat="43.43988" lon="5.90205">
        <ele>308.24</ele>
        <time>2019-02-24T09:57:56Z</time>
      </trkpt>
      <trkpt lat="43.43985" lon="5.90248">
        <ele>307.28</ele>
        <time>2019-02-24T09:58:08Z</time>
      </trkpt>
      <trkpt lat="43.43957" lon="5.90257">
        <ele>306.32</ele>
        <time>2019-02-24T09:58:19Z</time>
      </trkpt>
      <trkpt lat="43.43936" lon="5.90251">
        <ele>303.91</ele>
        <time>2019-02-24T09:58:25Z</time>
      </trkpt>
      <trkpt lat="43.43915" lon="5.90248">
        <ele>302.47</ele>
        <time>2019-02-24T09:58:31Z</time>
      </trkpt>
      <trkpt lat="43.43906" lon="5.9025">
        <ele>301.51</ele>
        <time>2019-02-24T09:58:33Z</time>
      </trkpt>
      <trkpt lat="43.43887" lon="5.90256">
        <ele>300.07</ele>
        <time>2019-02-24T09:58:37Z</time>
      </trkpt>
      <trkpt lat="43.43884" lon="5.90257">
        <ele>300.07</ele>
        <time>2019-02-24T09:58:38Z</time>
      </trkpt>
      <trkpt lat="43.43877" lon="5.90248">
        <ele>300.07</ele>
        <time>2019-02-24T09:58:42Z</time>
      </trkpt>
      <trkpt lat="43.43879" lon="5.90207">
        <ele>300.55</ele>
        <time>2019-02-24T09:58:53Z</time>
      </trkpt>
      <trkpt lat="43.43877" lon="5.90203">
        <ele>300.55</ele>
        <time>2019-02-24T09:58:55Z</time>
      </trkpt>
      <trkpt lat="43.43874" lon="5.90202">
        <ele>300.55</ele>
        <time>2019-02-24T09:58:56Z</time>
      </trkpt>
      <trkpt lat="43.43873" lon="5.90202">
        <ele>300.55</ele>
        <time>2019-02-24T09:58:57Z</time>
      </trkpt>
      <trkpt lat="43.43872" lon="5.90203">
        <ele>300.55</ele>
        <time>2019-02-24T09:58:58Z</time>
      </trkpt>
      <trkpt lat="43.43871" lon="5.90205">
        <ele>300.55</ele>
        <time>2019-02-24T09:58:59Z</time>
      </trkpt>
      <trkpt lat="43.4387" lon="5.90237">
        <ele>298.63</ele>
        <time>2019-02-24T09:59:05Z</time>
      </trkpt>
      <trkpt lat="43.43869" lon="5.90257">
        <ele>298.15</ele>
        <time>2019-02-24T09:59:08Z</time>
      </trkpt>
      <trkpt lat="43.4386" lon="5.90282">
        <ele>298.15</ele>
        <time>2019-02-24T09:59:13Z</time>
      </trkpt>
      <trkpt lat="43.43847" lon="5.903">
        <ele>297.67</ele>
        <time>2019-02-24T09:59:17Z</time>
      </trkpt>
      <trkpt lat="43.43833" lon="5.90346">
        <ele>296.22</ele>
        <time>2019-02-24T09:59:28Z</time>
      </trkpt>
      <trkpt lat="43.43839" lon="5.90354">
        <ele>296.22</ele>
        <time>2019-02-24T09:59:40Z</time>
      </trkpt>
      <trkpt lat="43.43838" lon="5.90353">
        <ele>296.22</ele>
        <time>2019-02-24T09:59:53Z</time>
      </trkpt>
      <trkpt lat="43.43836" lon="5.90353">
        <ele>296.22</ele>
        <time>2019-02-24T09:59:54Z</time>
      </trkpt>
      <trkpt lat="43.43819" lon="5.90326">
        <ele>295.74</ele>
        <time>2019-02-24T10:00:08Z</time>
      </trkpt>
      <trkpt lat="43.43787" lon="5.90276">
        <ele>294.78</ele>
        <time>2019-02-24T10:00:27Z</time>
      </trkpt>
      <trkpt lat="43.4376" lon="5.90235">
        <ele>294.3</ele>
        <time>2019-02-24T10:00:41Z</time>
      </trkpt>
      <trkpt lat="43.4373" lon="5.90186">
        <ele>293.82</ele>
        <time>2019-02-24T10:00:56Z</time>
      </trkpt>
      <trkpt lat="43.43696" lon="5.90132">
        <ele>292.86</ele>
        <time>2019-02-24T10:01:12Z</time>
      </trkpt>
      <trkpt lat="43.4369" lon="5.9008">
        <ele>291.42</ele>
        <time>2019-02-24T10:01:21Z</time>
      </trkpt>
      <trkpt lat="43.43692" lon="5.9006">
        <ele>291.42</ele>
        <time>2019-02-24T10:01:24Z</time>
      </trkpt>
      <trkpt lat="43.43694" lon="5.90054">
        <ele>290.94</ele>
        <time>2019-02-24T10:01:25Z</time>
      </trkpt>
      <trkpt lat="43.43695" lon="5.90048">
        <ele>290.94</ele>
        <time>2019-02-24T10:01:26Z</time>
      </trkpt>
      <trkpt lat="43.43698" lon="5.90043">
        <ele>290.94</ele>
        <time>2019-02-24T10:01:27Z</time>
      </trkpt>
      <trkpt lat="43.437" lon="5.90039">
        <ele>290.94</ele>
        <time>2019-02-24T10:01:28Z</time>
      </trkpt>
      <trkpt lat="43.43739" lon="5.89993">
        <ele>289.49</ele>
        <time>2019-02-24T10:01:41Z</time>
      </trkpt>
      <trkpt lat="43.43742" lon="5.89989">
        <ele>289.49</ele>
        <time>2019-02-24T10:01:42Z</time>
      </trkpt>
      <trkpt lat="43.43745" lon="5.89985">
        <ele>289.49</ele>
        <time>2019-02-24T10:01:43Z</time>
      </trkpt>
      <trkpt lat="43.43747" lon="5.89979">
        <ele>289.49</ele>
        <time>2019-02-24T10:01:44Z</time>
      </trkpt>
      <trkpt lat="43.43749" lon="5.89974">
        <ele>289.49</ele>
        <time>2019-02-24T10:01:45Z</time>
      </trkpt>
      <trkpt lat="43.43751" lon="5.89968">
        <ele>289.49</ele>
        <time>2019-02-24T10:01:46Z</time>
      </trkpt>
      <trkpt lat="43.43752" lon="5.89964">
        <ele>289.01</ele>
        <time>2019-02-24T10:01:47Z</time>
      </trkpt>
      <trkpt lat="43.43753" lon="5.89959">
        <ele>289.01</ele>
        <time>2019-02-24T10:01:48Z</time>
      </trkpt>
      <trkpt lat="43.43753" lon="5.89954">
        <ele>288.53</ele>
        <time>2019-02-24T10:01:49Z</time>
      </trkpt>
      <trkpt lat="43.43753" lon="5.8995">
        <ele>288.53</ele>
        <time>2019-02-24T10:01:50Z</time>
      </trkpt>
      <trkpt lat="43.43751" lon="5.89946">
        <ele>288.53</ele>
        <time>2019-02-24T10:01:51Z</time>
      </trkpt>
      <trkpt lat="43.43749" lon="5.89943">
        <ele>288.05</ele>
        <time>2019-02-24T10:01:52Z</time>
      </trkpt>
      <trkpt lat="43.43747" lon="5.8994">
        <ele>288.05</ele>
        <time>2019-02-24T10:01:53Z</time>
      </trkpt>
      <trkpt lat="43.43745" lon="5.89935">
        <ele>288.05</ele>
        <time>2019-02-24T10:01:54Z</time>
      </trkpt>
      <trkpt lat="43.43745" lon="5.8993">
        <ele>287.57</ele>
        <time>2019-02-24T10:01:55Z</time>
      </trkpt>
      <trkpt lat="43.43744" lon="5.89925">
        <ele>287.57</ele>
        <time>2019-02-24T10:01:56Z</time>
      </trkpt>
      <trkpt lat="43.43744" lon="5.8992">
        <ele>287.57</ele>
        <time>2019-02-24T10:01:57Z</time>
      </trkpt>
      <trkpt lat="43.43745" lon="5.89907">
        <ele>287.57</ele>
        <time>2019-02-24T10:02:00Z</time>
      </trkpt>
      <trkpt lat="43.43746" lon="5.89903">
        <ele>287.57</ele>
        <time>2019-02-24T10:02:01Z</time>
      </trkpt>
      <trkpt lat="43.43748" lon="5.89899">
        <ele>287.57</ele>
        <time>2019-02-24T10:02:02Z</time>
      </trkpt>
      <trkpt lat="43.43751" lon="5.89896">
        <ele>288.05</ele>
        <time>2019-02-24T10:02:03Z</time>
      </trkpt>
      <trkpt lat="43.43753" lon="5.89892">
        <ele>288.05</ele>
        <time>2019-02-24T10:02:04Z</time>
      </trkpt>
      <trkpt lat="43.43757" lon="5.89879">
        <ele>288.05</ele>
        <time>2019-02-24T10:02:07Z</time>
      </trkpt>
      <trkpt lat="43.43756" lon="5.89876">
        <ele>288.05</ele>
        <time>2019-02-24T10:02:08Z</time>
      </trkpt>
      <trkpt lat="43.43751" lon="5.89872">
        <ele>288.05</ele>
        <time>2019-02-24T10:02:10Z</time>
      </trkpt>
      <trkpt lat="43.4375" lon="5.89872">
        <ele>288.05</ele>
        <time>2019-02-24T10:02:11Z</time>
      </trkpt>
      <trkpt lat="43.43747" lon="5.89873">
        <ele>288.05</ele>
        <time>2019-02-24T10:02:12Z</time>
      </trkpt>
      <trkpt lat="43.43743" lon="5.89873">
        <ele>288.05</ele>
        <time>2019-02-24T10:02:13Z</time>
      </trkpt>
      <trkpt lat="43.43698" lon="5.89873">
        <ele>290.46</ele>
        <time>2019-02-24T10:02:30Z</time>
      </trkpt>
      <trkpt lat="43.43662" lon="5.89859">
        <ele>290.94</ele>
        <time>2019-02-24T10:02:44Z</time>
      </trkpt>
      <trkpt lat="43.43622" lon="5.89859">
        <ele>290.94</ele>
        <time>2019-02-24T10:02:58Z</time>
      </trkpt>
      <trkpt lat="43.43615" lon="5.89868">
        <ele>289.97</ele>
        <time>2019-02-24T10:03:02Z</time>
      </trkpt>
      <trkpt lat="43.43615" lon="5.89867">
        <ele>289.97</ele>
        <time>2019-02-24T10:03:04Z</time>
      </trkpt>
      <trkpt lat="43.43616" lon="5.89867">
        <ele>289.97</ele>
        <time>2019-02-24T10:03:05Z</time>
      </trkpt>
      <trkpt lat="43.43614" lon="5.89866">
        <ele>289.97</ele>
        <time>2019-02-24T10:03:11Z</time>
      </trkpt>
      <trkpt lat="43.43607" lon="5.89854">
        <ele>289.97</ele>
        <time>2019-02-24T10:03:20Z</time>
      </trkpt>
      <trkpt lat="43.43605" lon="5.89853">
        <ele>289.97</ele>
        <time>2019-02-24T10:03:21Z</time>
      </trkpt>
      <trkpt lat="43.43603" lon="5.89852">
        <ele>289.97</ele>
        <time>2019-02-24T10:03:22Z</time>
      </trkpt>
      <trkpt lat="43.43578" lon="5.8984">
        <ele>291.42</ele>
        <time>2019-02-24T10:03:35Z</time>
      </trkpt>
      <trkpt lat="43.43574" lon="5.89831">
        <ele>291.9</ele>
        <time>2019-02-24T10:03:43Z</time>
      </trkpt>
      <trkpt lat="43.43573" lon="5.89827">
        <ele>291.9</ele>
        <time>2019-02-24T10:03:45Z</time>
      </trkpt>
      <trkpt lat="43.43575" lon="5.89811">
        <ele>294.3</ele>
        <time>2019-02-24T10:03:59Z</time>
      </trkpt>
      <trkpt lat="43.43573" lon="5.89798">
        <ele>296.22</ele>
        <time>2019-02-24T10:04:13Z</time>
      </trkpt>
      <trkpt lat="43.43571" lon="5.89782">
        <ele>297.67</ele>
        <time>2019-02-24T10:04:25Z</time>
      </trkpt>
      <trkpt lat="43.43566" lon="5.89774">
        <ele>297.67</ele>
        <time>2019-02-24T10:04:42Z</time>
      </trkpt>
      <trkpt lat="43.4356" lon="5.89771">
        <ele>297.67</ele>
        <time>2019-02-24T10:05:00Z</time>
      </trkpt>
      <trkpt lat="43.43556" lon="5.89767">
        <ele>298.15</ele>
        <time>2019-02-24T10:05:08Z</time>
      </trkpt>
      <trkpt lat="43.43531" lon="5.89754">
        <ele>298.63</ele>
        <time>2019-02-24T10:05:18Z</time>
      </trkpt>
      <trkpt lat="43.43499" lon="5.89738">
        <ele>298.63</ele>
        <time>2019-02-24T10:05:34Z</time>
      </trkpt>
      <trkpt lat="43.43473" lon="5.89724">
        <ele>297.67</ele>
        <time>2019-02-24T10:05:46Z</time>
      </trkpt>
      <trkpt lat="43.43462" lon="5.89717">
        <ele>296.7</ele>
        <time>2019-02-24T10:05:59Z</time>
      </trkpt>
      <trkpt lat="43.43464" lon="5.89717">
        <ele>296.7</ele>
        <time>2019-02-24T10:06:14Z</time>
      </trkpt>
      <trkpt lat="43.43481" lon="5.89726">
        <ele>298.15</ele>
        <time>2019-02-24T10:06:30Z</time>
      </trkpt>
      <trkpt lat="43.43511" lon="5.89739">
        <ele>298.63</ele>
        <time>2019-02-24T10:06:44Z</time>
      </trkpt>
      <trkpt lat="43.43543" lon="5.89761">
        <ele>299.11</ele>
        <time>2019-02-24T10:06:58Z</time>
      </trkpt>
      <trkpt lat="43.4356" lon="5.89774">
        <ele>297.67</ele>
        <time>2019-02-24T10:07:04Z</time>
      </trkpt>
      <trkpt lat="43.43569" lon="5.89791">
        <ele>296.7</ele>
        <time>2019-02-24T10:07:11Z</time>
      </trkpt>
      <trkpt lat="43.43571" lon="5.89797">
        <ele>295.26</ele>
        <time>2019-02-24T10:07:14Z</time>
      </trkpt>
      <trkpt lat="43.43571" lon="5.89806">
        <ele>293.82</ele>
        <time>2019-02-24T10:07:18Z</time>
      </trkpt>
      <trkpt lat="43.4357" lon="5.89813">
        <ele>292.38</ele>
        <time>2019-02-24T10:07:21Z</time>
      </trkpt>
      <trkpt lat="43.43596" lon="5.89834">
        <ele>290.94</ele>
        <time>2019-02-24T10:07:33Z</time>
      </trkpt>
      <trkpt lat="43.43607" lon="5.89848">
        <ele>290.94</ele>
        <time>2019-02-24T10:07:38Z</time>
      </trkpt>
      <trkpt lat="43.43607" lon="5.89905">
        <ele>289.01</ele>
        <time>2019-02-24T10:07:52Z</time>
      </trkpt>
      <trkpt lat="43.43631" lon="5.89928">
        <ele>288.53</ele>
        <time>2019-02-24T10:08:02Z</time>
      </trkpt>
      <trkpt lat="43.43679" lon="5.89957">
        <ele>288.53</ele>
        <time>2019-02-24T10:08:17Z</time>
      </trkpt>
      <trkpt lat="43.43698" lon="5.89965">
        <ele>288.05</ele>
        <time>2019-02-24T10:08:26Z</time>
      </trkpt>
      <trkpt lat="43.43705" lon="5.8996">
        <ele>288.05</ele>
        <time>2019-02-24T10:08:31Z</time>
      </trkpt>
      <trkpt lat="43.43737" lon="5.89937">
        <ele>288.05</ele>
        <time>2019-02-24T10:08:46Z</time>
      </trkpt>
      <trkpt lat="43.43741" lon="5.89935">
        <ele>288.05</ele>
        <time>2019-02-24T10:08:48Z</time>
      </trkpt>
      <trkpt lat="43.43747" lon="5.89937">
        <ele>288.05</ele>
        <time>2019-02-24T10:08:52Z</time>
      </trkpt>
      <trkpt lat="43.43753" lon="5.89937">
        <ele>288.05</ele>
        <time>2019-02-24T10:08:55Z</time>
      </trkpt>
      <trkpt lat="43.43755" lon="5.89937">
        <ele>288.05</ele>
        <time>2019-02-24T10:08:56Z</time>
      </trkpt>
      <trkpt lat="43.43757" lon="5.89936">
        <ele>288.05</ele>
        <time>2019-02-24T10:08:57Z</time>
      </trkpt>
      <trkpt lat="43.43759" lon="5.89934">
        <ele>288.05</ele>
        <time>2019-02-24T10:08:58Z</time>
      </trkpt>
      <trkpt lat="43.4376" lon="5.89932">
        <ele>288.05</ele>
        <time>2019-02-24T10:08:59Z</time>
      </trkpt>
      <trkpt lat="43.43762" lon="5.89929">
        <ele>288.05</ele>
        <time>2019-02-24T10:09:00Z</time>
      </trkpt>
      <trkpt lat="43.43763" lon="5.89927">
        <ele>288.05</ele>
        <time>2019-02-24T10:09:01Z</time>
      </trkpt>
      <trkpt lat="43.43765" lon="5.89926">
        <ele>288.05</ele>
        <time>2019-02-24T10:09:02Z</time>
      </trkpt>
      <trkpt lat="43.43799" lon="5.89889">
        <ele>288.05</ele>
        <time>2019-02-24T10:09:17Z</time>
      </trkpt>
      <trkpt lat="43.43805" lon="5.89871">
        <ele>288.05</ele>
        <time>2019-02-24T10:09:22Z</time>
      </trkpt>
      <trkpt lat="43.43816" lon="5.89816">
        <ele>288.05</ele>
        <time>2019-02-24T10:09:36Z</time>
      </trkpt>
      <trkpt lat="43.43845" lon="5.89781">
        <ele>287.09</ele>
        <time>2019-02-24T10:09:47Z</time>
      </trkpt>
      <trkpt lat="43.43904" lon="5.89785">
        <ele>286.13</ele>
        <time>2019-02-24T10:10:01Z</time>
      </trkpt>
      <trkpt lat="43.43952" lon="5.89787">
        <ele>286.13</ele>
        <time>2019-02-24T10:10:14Z</time>
      </trkpt>
      <trkpt lat="43.4398" lon="5.898">
        <ele>286.13</ele>
        <time>2019-02-24T10:10:22Z</time>
      </trkpt>
      <trkpt lat="43.43984" lon="5.89801">
        <ele>286.13</ele>
        <time>2019-02-24T10:10:23Z</time>
      </trkpt>
      <trkpt lat="43.44001" lon="5.89803">
        <ele>286.13</ele>
        <time>2019-02-24T10:10:27Z</time>
      </trkpt>
      <trkpt lat="43.44033" lon="5.89773">
        <ele>286.13</ele>
        <time>2019-02-24T10:10:40Z</time>
      </trkpt>
      <trkpt lat="43.44067" lon="5.89742">
        <ele>288.05</ele>
        <time>2019-02-24T10:10:52Z</time>
      </trkpt>
      <trkpt lat="43.44101" lon="5.89702">
        <ele>289.01</ele>
        <time>2019-02-24T10:11:07Z</time>
      </trkpt>
      <trkpt lat="43.44104" lon="5.8963">
        <ele>289.01</ele>
        <time>2019-02-24T10:11:22Z</time>
      </trkpt>
      <trkpt lat="43.44094" lon="5.89564">
        <ele>291.42</ele>
        <time>2019-02-24T10:11:40Z</time>
      </trkpt>
      <trkpt lat="43.44085" lon="5.89502">
        <ele>291.42</ele>
        <time>2019-02-24T10:11:57Z</time>
      </trkpt>
      <trkpt lat="43.441" lon="5.89465">
        <ele>291.9</ele>
        <time>2019-02-24T10:12:09Z</time>
      </trkpt>
      <trkpt lat="43.44125" lon="5.89424">
        <ele>292.86</ele>
        <time>2019-02-24T10:12:24Z</time>
      </trkpt>
      <trkpt lat="43.44157" lon="5.89412">
        <ele>294.3</ele>
        <time>2019-02-24T10:12:37Z</time>
      </trkpt>
      <trkpt lat="43.44201" lon="5.89412">
        <ele>297.18</ele>
        <time>2019-02-24T10:12:52Z</time>
      </trkpt>
      <trkpt lat="43.44235" lon="5.89402">
        <ele>298.63</ele>
        <time>2019-02-24T10:13:05Z</time>
      </trkpt>
      <trkpt lat="43.44257" lon="5.8937">
        <ele>299.11</ele>
        <time>2019-02-24T10:13:16Z</time>
      </trkpt>
      <trkpt lat="43.44281" lon="5.89308">
        <ele>300.07</ele>
        <time>2019-02-24T10:13:32Z</time>
      </trkpt>
      <trkpt lat="43.44305" lon="5.89255">
        <ele>301.51</ele>
        <time>2019-02-24T10:13:46Z</time>
      </trkpt>
      <trkpt lat="43.44318" lon="5.89197">
        <ele>301.99</ele>
        <time>2019-02-24T10:13:59Z</time>
      </trkpt>
      <trkpt lat="43.44334" lon="5.89123">
        <ele>301.99</ele>
        <time>2019-02-24T10:14:15Z</time>
      </trkpt>
      <trkpt lat="43.44353" lon="5.89037">
        <ele>302.47</ele>
        <time>2019-02-24T10:14:32Z</time>
      </trkpt>
      <trkpt lat="43.44367" lon="5.88957">
        <ele>302.95</ele>
        <time>2019-02-24T10:14:49Z</time>
      </trkpt>
      <trkpt lat="43.44372" lon="5.88897">
        <ele>303.43</ele>
        <time>2019-02-24T10:15:02Z</time>
      </trkpt>
      <trkpt lat="43.4438" lon="5.88826">
        <ele>303.91</ele>
        <time>2019-02-24T10:15:18Z</time>
      </trkpt>
      <trkpt lat="43.44406" lon="5.88765">
        <ele>305.84</ele>
        <time>2019-02-24T10:15:35Z</time>
      </trkpt>
      <trkpt lat="43.44443" lon="5.88734">
        <ele>306.8</ele>
        <time>2019-02-24T10:15:50Z</time>
      </trkpt>
      <trkpt lat="43.44476" lon="5.88725">
        <ele>308.24</ele>
        <time>2019-02-24T10:16:04Z</time>
      </trkpt>
      <trkpt lat="43.44501" lon="5.88714">
        <ele>312.09</ele>
        <time>2019-02-24T10:16:16Z</time>
      </trkpt>
      <trkpt lat="43.44531" lon="5.88685">
        <ele>314.97</ele>
        <time>2019-02-24T10:16:30Z</time>
      </trkpt>
      <trkpt lat="43.44547" lon="5.88669">
        <ele>314.97</ele>
        <time>2019-02-24T10:16:40Z</time>
      </trkpt>
      <trkpt lat="43.44547" lon="5.88669">
        <ele>314.97</ele>
        <time>2019-02-24T10:16:41Z</time>
      </trkpt>
      <trkpt lat="43.44546" lon="5.88669">
        <ele>314.97</ele>
        <time>2019-02-24T10:16:42Z</time>
      </trkpt>
      <trkpt lat="43.44522" lon="5.88655">
        <ele>316.41</ele>
        <time>2019-02-24T10:16:57Z</time>
      </trkpt>
      <trkpt lat="43.44492" lon="5.88638">
        <ele>317.85</ele>
        <time>2019-02-24T10:17:13Z</time>
      </trkpt>
      <trkpt lat="43.44449" lon="5.88624">
        <ele>319.78</ele>
        <time>2019-02-24T10:17:29Z</time>
      </trkpt>
      <trkpt lat="43.44416" lon="5.88615">
        <ele>320.74</ele>
        <time>2019-02-24T10:17:42Z</time>
      </trkpt>
      <trkpt lat="43.44376" lon="5.88615">
        <ele>322.18</ele>
        <time>2019-02-24T10:17:57Z</time>
      </trkpt>
      <trkpt lat="43.44339" lon="5.88623">
        <ele>323.62</ele>
        <time>2019-02-24T10:18:14Z</time>
      </trkpt>
      <trkpt lat="43.44338" lon="5.88627">
        <ele>324.1</ele>
        <time>2019-02-24T10:18:16Z</time>
      </trkpt>
      <trkpt lat="43.44337" lon="5.88629">
        <ele>324.1</ele>
        <time>2019-02-24T10:18:17Z</time>
      </trkpt>
      <trkpt lat="43.44337" lon="5.88631">
        <ele>324.1</ele>
        <time>2019-02-24T10:18:18Z</time>
      </trkpt>
      <trkpt lat="43.44335" lon="5.88633">
        <ele>324.1</ele>
        <time>2019-02-24T10:18:19Z</time>
      </trkpt>
      <trkpt lat="43.44323" lon="5.8865">
        <ele>323.14</ele>
        <time>2019-02-24T10:18:32Z</time>
      </trkpt>
      <trkpt lat="43.44325" lon="5.88649">
        <ele>323.14</ele>
        <time>2019-02-24T10:18:40Z</time>
      </trkpt>
      <trkpt lat="43.44325" lon="5.88645">
        <ele>323.14</ele>
        <time>2019-02-24T10:18:41Z</time>
      </trkpt>
      <trkpt lat="43.44325" lon="5.88643">
        <ele>323.14</ele>
        <time>2019-02-24T10:18:42Z</time>
      </trkpt>
      <trkpt lat="43.44326" lon="5.8864">
        <ele>323.14</ele>
        <time>2019-02-24T10:18:43Z</time>
      </trkpt>
      <trkpt lat="43.44326" lon="5.88637">
        <ele>323.14</ele>
        <time>2019-02-24T10:18:44Z</time>
      </trkpt>
      <trkpt lat="43.4433" lon="5.88626">
        <ele>323.14</ele>
        <time>2019-02-24T10:18:52Z</time>
      </trkpt>
      <trkpt lat="43.44331" lon="5.88625">
        <ele>323.14</ele>
        <time>2019-02-24T10:18:53Z</time>
      </trkpt>
      <trkpt lat="43.44367" lon="5.88607">
        <ele>323.14</ele>
        <time>2019-02-24T10:19:06Z</time>
      </trkpt>
      <trkpt lat="43.44408" lon="5.886">
        <ele>321.7</ele>
        <time>2019-02-24T10:19:18Z</time>
      </trkpt>
      <trkpt lat="43.44457" lon="5.88601">
        <ele>319.78</ele>
        <time>2019-02-24T10:19:31Z</time>
      </trkpt>
      <trkpt lat="43.44492" lon="5.88607">
        <ele>318.33</ele>
        <time>2019-02-24T10:19:38Z</time>
      </trkpt>
      <trkpt lat="43.44528" lon="5.88614">
        <ele>317.37</ele>
        <time>2019-02-24T10:19:45Z</time>
      </trkpt>
      <trkpt lat="43.44532" lon="5.88617">
        <ele>316.89</ele>
        <time>2019-02-24T10:19:46Z</time>
      </trkpt>
      <trkpt lat="43.44572" lon="5.88646">
        <ele>315.93</ele>
        <time>2019-02-24T10:19:56Z</time>
      </trkpt>
      <trkpt lat="43.44582" lon="5.88646">
        <ele>315.93</ele>
        <time>2019-02-24T10:19:58Z</time>
      </trkpt>
      <trkpt lat="43.44587" lon="5.88645">
        <ele>315.45</ele>
        <time>2019-02-24T10:19:59Z</time>
      </trkpt>
      <trkpt lat="43.44591" lon="5.88645">
        <ele>314.97</ele>
        <time>2019-02-24T10:20:00Z</time>
      </trkpt>
      <trkpt lat="43.44592" lon="5.88643">
        <ele>314.01</ele>
        <time>2019-02-24T10:20:01Z</time>
      </trkpt>
      <trkpt lat="43.44594" lon="5.88643">
        <ele>314.01</ele>
        <time>2019-02-24T10:20:02Z</time>
      </trkpt>
      <trkpt lat="43.44593" lon="5.88642">
        <ele>313.05</ele>
        <time>2019-02-24T10:20:04Z</time>
      </trkpt>
      <trkpt lat="43.44589" lon="5.8864">
        <ele>312.57</ele>
        <time>2019-02-24T10:20:06Z</time>
      </trkpt>
      <trkpt lat="43.44583" lon="5.88635">
        <ele>312.57</ele>
        <time>2019-02-24T10:20:07Z</time>
      </trkpt>
      <trkpt lat="43.4458" lon="5.88631">
        <ele>312.09</ele>
        <time>2019-02-24T10:20:08Z</time>
      </trkpt>
      <trkpt lat="43.44576" lon="5.88626">
        <ele>311.6</ele>
        <time>2019-02-24T10:20:09Z</time>
      </trkpt>
      <trkpt lat="43.44573" lon="5.88621">
        <ele>310.64</ele>
        <time>2019-02-24T10:20:10Z</time>
      </trkpt>
      <trkpt lat="43.4457" lon="5.88615">
        <ele>310.16</ele>
        <time>2019-02-24T10:20:11Z</time>
      </trkpt>
      <trkpt lat="43.44564" lon="5.88604">
        <ele>308.72</ele>
        <time>2019-02-24T10:20:13Z</time>
      </trkpt>
      <trkpt lat="43.44563" lon="5.88597">
        <ele>308.24</ele>
        <time>2019-02-24T10:20:14Z</time>
      </trkpt>
      <trkpt lat="43.44562" lon="5.88589">
        <ele>307.28</ele>
        <time>2019-02-24T10:20:15Z</time>
      </trkpt>
      <trkpt lat="43.44562" lon="5.88582">
        <ele>306.8</ele>
        <time>2019-02-24T10:20:16Z</time>
      </trkpt>
      <trkpt lat="43.44563" lon="5.88573">
        <ele>305.84</ele>
        <time>2019-02-24T10:20:17Z</time>
      </trkpt>
      <trkpt lat="43.44568" lon="5.88537">
        <ele>305.36</ele>
        <time>2019-02-24T10:20:21Z</time>
      </trkpt>
      <trkpt lat="43.44578" lon="5.88462">
        <ele>303.91</ele>
        <time>2019-02-24T10:20:29Z</time>
      </trkpt>
      <trkpt lat="43.44578" lon="5.88453">
        <ele>303.91</ele>
        <time>2019-02-24T10:20:30Z</time>
      </trkpt>
      <trkpt lat="43.44575" lon="5.88362">
        <ele>302.95</ele>
        <time>2019-02-24T10:20:43Z</time>
      </trkpt>
      <trkpt lat="43.44575" lon="5.88355">
        <ele>302.95</ele>
        <time>2019-02-24T10:20:44Z</time>
      </trkpt>
      <trkpt lat="43.44568" lon="5.88299">
        <ele>301.99</ele>
        <time>2019-02-24T10:20:57Z</time>
      </trkpt>
      <trkpt lat="43.44568" lon="5.8824">
        <ele>302.47</ele>
        <time>2019-02-24T10:21:10Z</time>
      </trkpt>
      <trkpt lat="43.44581" lon="5.88168">
        <ele>302.47</ele>
        <time>2019-02-24T10:21:25Z</time>
      </trkpt>
      <trkpt lat="43.44587" lon="5.88115">
        <ele>301.99</ele>
        <time>2019-02-24T10:21:36Z</time>
      </trkpt>
      <trkpt lat="43.44588" lon="5.8811">
        <ele>302.47</ele>
        <time>2019-02-24T10:21:37Z</time>
      </trkpt>
      <trkpt lat="43.44606" lon="5.88023">
        <ele>303.43</ele>
        <time>2019-02-24T10:21:53Z</time>
      </trkpt>
      <trkpt lat="43.44621" lon="5.87957">
        <ele>303.91</ele>
        <time>2019-02-24T10:22:07Z</time>
      </trkpt>
      <trkpt lat="43.44638" lon="5.87884">
        <ele>301.99</ele>
        <time>2019-02-24T10:22:18Z</time>
      </trkpt>
      <trkpt lat="43.4465" lon="5.87847">
        <ele>301.99</ele>
        <time>2019-02-24T10:22:23Z</time>
      </trkpt>
      <trkpt lat="43.44686" lon="5.87734">
        <ele>299.59</ele>
        <time>2019-02-24T10:22:39Z</time>
      </trkpt>
      <trkpt lat="43.44713" lon="5.87647">
        <ele>299.11</ele>
        <time>2019-02-24T10:22:53Z</time>
      </trkpt>
      <trkpt lat="43.44732" lon="5.87558">
        <ele>298.15</ele>
        <time>2019-02-24T10:23:11Z</time>
      </trkpt>
      <trkpt lat="43.44732" lon="5.87557">
        <ele>298.15</ele>
        <time>2019-02-24T10:23:28Z</time>
      </trkpt>
      <trkpt lat="43.44733" lon="5.87556">
        <ele>298.15</ele>
        <time>2019-02-24T10:23:53Z</time>
      </trkpt>
      <trkpt lat="43.44733" lon="5.87554">
        <ele>298.15</ele>
        <time>2019-02-24T10:24:11Z</time>
      </trkpt>
      <trkpt lat="43.44734" lon="5.87552">
        <ele>298.15</ele>
        <time>2019-02-24T10:24:13Z</time>
      </trkpt>
      <trkpt lat="43.44735" lon="5.8755">
        <ele>298.15</ele>
        <time>2019-02-24T10:24:14Z</time>
      </trkpt>
      <trkpt lat="43.44745" lon="5.87501">
        <ele>298.15</ele>
        <time>2019-02-24T10:24:30Z</time>
      </trkpt>
      <trkpt lat="43.44772" lon="5.87436">
        <ele>298.15</ele>
        <time>2019-02-24T10:24:47Z</time>
      </trkpt>
      <trkpt lat="43.44783" lon="5.87408">
        <ele>299.59</ele>
        <time>2019-02-24T10:24:54Z</time>
      </trkpt>
      <trkpt lat="43.44813" lon="5.87342">
        <ele>300.55</ele>
        <time>2019-02-24T10:25:12Z</time>
      </trkpt>
      <trkpt lat="43.44837" lon="5.87332">
        <ele>301.99</ele>
        <time>2019-02-24T10:25:23Z</time>
      </trkpt>
      <trkpt lat="43.4487" lon="5.87297">
        <ele>304.88</ele>
        <time>2019-02-24T10:25:39Z</time>
      </trkpt>
      <trkpt lat="43.44894" lon="5.87247">
        <ele>305.36</ele>
        <time>2019-02-24T10:25:56Z</time>
      </trkpt>
      <trkpt lat="43.44902" lon="5.87188">
        <ele>305.36</ele>
        <time>2019-02-24T10:26:09Z</time>
      </trkpt>
      <trkpt lat="43.44908" lon="5.87109">
        <ele>305.84</ele>
        <time>2019-02-24T10:26:27Z</time>
      </trkpt>
      <trkpt lat="43.44935" lon="5.8708">
        <ele>305.84</ele>
        <time>2019-02-24T10:26:36Z</time>
      </trkpt>
      <trkpt lat="43.44981" lon="5.87036">
        <ele>307.28</ele>
        <time>2019-02-24T10:26:52Z</time>
      </trkpt>
      <trkpt lat="43.44974" lon="5.86986">
        <ele>309.2</ele>
        <time>2019-02-24T10:27:05Z</time>
      </trkpt>
      <trkpt lat="43.44972" lon="5.86923">
        <ele>310.16</ele>
        <time>2019-02-24T10:27:19Z</time>
      </trkpt>
      <trkpt lat="43.44987" lon="5.86851">
        <ele>311.6</ele>
        <time>2019-02-24T10:27:37Z</time>
      </trkpt>
      <trkpt lat="43.4501" lon="5.86815">
        <ele>311.6</ele>
        <time>2019-02-24T10:27:46Z</time>
      </trkpt>
      <trkpt lat="43.45014" lon="5.86811">
        <ele>310.16</ele>
        <time>2019-02-24T10:27:47Z</time>
      </trkpt>
      <trkpt lat="43.45018" lon="5.86806">
        <ele>310.16</ele>
        <time>2019-02-24T10:27:48Z</time>
      </trkpt>
      <trkpt lat="43.45039" lon="5.86785">
        <ele>309.68</ele>
        <time>2019-02-24T10:27:53Z</time>
      </trkpt>
      <trkpt lat="43.45094" lon="5.86707">
        <ele>309.2</ele>
        <time>2019-02-24T10:28:08Z</time>
      </trkpt>
      <trkpt lat="43.451" lon="5.86697">
        <ele>309.2</ele>
        <time>2019-02-24T10:28:10Z</time>
      </trkpt>
      <trkpt lat="43.45128" lon="5.86646">
        <ele>308.24</ele>
        <time>2019-02-24T10:28:23Z</time>
      </trkpt>
      <trkpt lat="43.45139" lon="5.86594">
        <ele>308.72</ele>
        <time>2019-02-24T10:28:36Z</time>
      </trkpt>
      <trkpt lat="43.45108" lon="5.86561">
        <ele>309.68</ele>
        <time>2019-02-24T10:28:48Z</time>
      </trkpt>
      <trkpt lat="43.45055" lon="5.86514">
        <ele>311.6</ele>
        <time>2019-02-24T10:29:07Z</time>
      </trkpt>
      <trkpt lat="43.45008" lon="5.86452">
        <ele>313.05</ele>
        <time>2019-02-24T10:29:25Z</time>
      </trkpt>
      <trkpt lat="43.4498" lon="5.86394">
        <ele>314.49</ele>
        <time>2019-02-24T10:29:39Z</time>
      </trkpt>
      <trkpt lat="43.4494" lon="5.86363">
        <ele>314.97</ele>
        <time>2019-02-24T10:29:53Z</time>
      </trkpt>
      <trkpt lat="43.44888" lon="5.86331">
        <ele>315.93</ele>
        <time>2019-02-24T10:30:09Z</time>
      </trkpt>
      <trkpt lat="43.4486" lon="5.86288">
        <ele>316.89</ele>
        <time>2019-02-24T10:30:21Z</time>
      </trkpt>
      <trkpt lat="43.44831" lon="5.86245">
        <ele>318.33</ele>
        <time>2019-02-24T10:30:34Z</time>
      </trkpt>
      <trkpt lat="43.44813" lon="5.862">
        <ele>319.78</ele>
        <time>2019-02-24T10:30:48Z</time>
      </trkpt>
      <trkpt lat="43.44847" lon="5.86142">
        <ele>320.26</ele>
        <time>2019-02-24T10:31:04Z</time>
      </trkpt>
      <trkpt lat="43.4485" lon="5.86137">
        <ele>320.26</ele>
        <time>2019-02-24T10:31:05Z</time>
      </trkpt>
      <trkpt lat="43.44853" lon="5.86132">
        <ele>320.26</ele>
        <time>2019-02-24T10:31:06Z</time>
      </trkpt>
      <trkpt lat="43.44856" lon="5.86125">
        <ele>320.26</ele>
        <time>2019-02-24T10:31:07Z</time>
      </trkpt>
      <trkpt lat="43.44857" lon="5.86118">
        <ele>320.26</ele>
        <time>2019-02-24T10:31:08Z</time>
      </trkpt>
      <trkpt lat="43.44857" lon="5.8611">
        <ele>320.26</ele>
        <time>2019-02-24T10:31:09Z</time>
      </trkpt>
      <trkpt lat="43.44856" lon="5.86102">
        <ele>320.26</ele>
        <time>2019-02-24T10:31:10Z</time>
      </trkpt>
      <trkpt lat="43.44853" lon="5.86097">
        <ele>320.26</ele>
        <time>2019-02-24T10:31:11Z</time>
      </trkpt>
      <trkpt lat="43.4485" lon="5.86092">
        <ele>320.26</ele>
        <time>2019-02-24T10:31:12Z</time>
      </trkpt>
      <trkpt lat="43.44846" lon="5.86089">
        <ele>320.26</ele>
        <time>2019-02-24T10:31:13Z</time>
      </trkpt>
      <trkpt lat="43.44842" lon="5.86088">
        <ele>320.26</ele>
        <time>2019-02-24T10:31:14Z</time>
      </trkpt>
      <trkpt lat="43.44837" lon="5.86086">
        <ele>320.26</ele>
        <time>2019-02-24T10:31:15Z</time>
      </trkpt>
      <trkpt lat="43.44834" lon="5.86085">
        <ele>320.26</ele>
        <time>2019-02-24T10:31:16Z</time>
      </trkpt>
      <trkpt lat="43.44829" lon="5.86083">
        <ele>320.26</ele>
        <time>2019-02-24T10:31:17Z</time>
      </trkpt>
      <trkpt lat="43.4482" lon="5.8608">
        <ele>320.26</ele>
        <time>2019-02-24T10:31:19Z</time>
      </trkpt>
      <trkpt lat="43.44816" lon="5.86079">
        <ele>320.26</ele>
        <time>2019-02-24T10:31:20Z</time>
      </trkpt>
      <trkpt lat="43.44811" lon="5.86078">
        <ele>320.26</ele>
        <time>2019-02-24T10:31:21Z</time>
      </trkpt>
      <trkpt lat="43.44806" lon="5.86078">
        <ele>320.26</ele>
        <time>2019-02-24T10:31:22Z</time>
      </trkpt>
      <trkpt lat="43.44801" lon="5.86078">
        <ele>320.26</ele>
        <time>2019-02-24T10:31:23Z</time>
      </trkpt>
      <trkpt lat="43.44742" lon="5.86067">
        <ele>321.7</ele>
        <time>2019-02-24T10:31:37Z</time>
      </trkpt>
      <trkpt lat="43.44697" lon="5.8605">
        <ele>322.66</ele>
        <time>2019-02-24T10:31:54Z</time>
      </trkpt>
      <trkpt lat="43.44663" lon="5.86038">
        <ele>324.1</ele>
        <time>2019-02-24T10:32:10Z</time>
      </trkpt>
      <trkpt lat="43.44612" lon="5.86016">
        <ele>326.02</ele>
        <time>2019-02-24T10:32:24Z</time>
      </trkpt>
      <trkpt lat="43.44563" lon="5.85998">
        <ele>327.47</ele>
        <time>2019-02-24T10:32:39Z</time>
      </trkpt>
      <trkpt lat="43.44514" lon="5.85978">
        <ele>328.91</ele>
        <time>2019-02-24T10:32:55Z</time>
      </trkpt>
      <trkpt lat="43.44457" lon="5.85954">
        <ele>331.79</ele>
        <time>2019-02-24T10:33:13Z</time>
      </trkpt>
      <trkpt lat="43.44435" lon="5.85942">
        <ele>332.27</ele>
        <time>2019-02-24T10:33:22Z</time>
      </trkpt>
      <trkpt lat="43.44432" lon="5.85941">
        <ele>332.27</ele>
        <time>2019-02-24T10:33:23Z</time>
      </trkpt>
      <trkpt lat="43.4443" lon="5.8594">
        <ele>332.27</ele>
        <time>2019-02-24T10:33:24Z</time>
      </trkpt>
      <trkpt lat="43.44424" lon="5.8594">
        <ele>332.27</ele>
        <time>2019-02-24T10:33:33Z</time>
      </trkpt>
      <trkpt lat="43.44423" lon="5.85943">
        <ele>332.27</ele>
        <time>2019-02-24T10:33:34Z</time>
      </trkpt>
      <trkpt lat="43.44423" lon="5.85947">
        <ele>332.75</ele>
        <time>2019-02-24T10:33:35Z</time>
      </trkpt>
      <trkpt lat="43.44422" lon="5.85951">
        <ele>332.75</ele>
        <time>2019-02-24T10:33:36Z</time>
      </trkpt>
      <trkpt lat="43.44421" lon="5.85956">
        <ele>332.75</ele>
        <time>2019-02-24T10:33:37Z</time>
      </trkpt>
      <trkpt lat="43.4442" lon="5.85961">
        <ele>332.75</ele>
        <time>2019-02-24T10:33:38Z</time>
      </trkpt>
      <trkpt lat="43.44418" lon="5.85966">
        <ele>332.75</ele>
        <time>2019-02-24T10:33:39Z</time>
      </trkpt>
      <trkpt lat="43.44417" lon="5.85971">
        <ele>332.75</ele>
        <time>2019-02-24T10:33:40Z</time>
      </trkpt>
      <trkpt lat="43.44394" lon="5.86063">
        <ele>333.23</ele>
        <time>2019-02-24T10:33:56Z</time>
      </trkpt>
      <trkpt lat="43.44361" lon="5.86145">
        <ele>336.12</ele>
        <time>2019-02-24T10:34:12Z</time>
      </trkpt>
      <trkpt lat="43.44311" lon="5.86197">
        <ele>338.52</ele>
        <time>2019-02-24T10:34:29Z</time>
      </trkpt>
      <trkpt lat="43.44241" lon="5.86224">
        <ele>339.48</ele>
        <time>2019-02-24T10:34:47Z</time>
      </trkpt>
      <trkpt lat="43.44155" lon="5.86256">
        <ele>339.96</ele>
        <time>2019-02-24T10:35:06Z</time>
      </trkpt>
      <trkpt lat="43.44092" lon="5.86279">
        <ele>341.41</ele>
        <time>2019-02-24T10:35:22Z</time>
      </trkpt>
      <trkpt lat="43.44053" lon="5.86294">
        <ele>341.41</ele>
        <time>2019-02-24T10:35:32Z</time>
      </trkpt>
      <trkpt lat="43.44049" lon="5.86293">
        <ele>341.41</ele>
        <time>2019-02-24T10:35:33Z</time>
      </trkpt>
      <trkpt lat="43.44046" lon="5.8629">
        <ele>341.89</ele>
        <time>2019-02-24T10:35:34Z</time>
      </trkpt>
      <trkpt lat="43.44044" lon="5.86286">
        <ele>341.89</ele>
        <time>2019-02-24T10:35:35Z</time>
      </trkpt>
      <trkpt lat="43.44043" lon="5.86284">
        <ele>342.85</ele>
        <time>2019-02-24T10:35:36Z</time>
      </trkpt>
      <trkpt lat="43.44033" lon="5.86244">
        <ele>345.73</ele>
        <time>2019-02-24T10:35:46Z</time>
      </trkpt>
      <trkpt lat="43.44024" lon="5.86191">
        <ele>348.62</ele>
        <time>2019-02-24T10:36:00Z</time>
      </trkpt>
      <trkpt lat="43.44023" lon="5.86187">
        <ele>348.62</ele>
        <time>2019-02-24T10:36:01Z</time>
      </trkpt>
      <trkpt lat="43.44023" lon="5.86183">
        <ele>349.1</ele>
        <time>2019-02-24T10:36:02Z</time>
      </trkpt>
      <trkpt lat="43.44023" lon="5.86179">
        <ele>349.1</ele>
        <time>2019-02-24T10:36:03Z</time>
      </trkpt>
      <trkpt lat="43.44021" lon="5.86166">
        <ele>349.1</ele>
        <time>2019-02-24T10:36:07Z</time>
      </trkpt>
      <trkpt lat="43.4402" lon="5.86166">
        <ele>349.1</ele>
        <time>2019-02-24T10:36:08Z</time>
      </trkpt>
      <trkpt lat="43.43989" lon="5.86149">
        <ele>350.54</ele>
        <time>2019-02-24T10:36:21Z</time>
      </trkpt>
      <trkpt lat="43.43971" lon="5.86091">
        <ele>352.46</ele>
        <time>2019-02-24T10:36:36Z</time>
      </trkpt>
      <trkpt lat="43.43963" lon="5.86071">
        <ele>352.94</ele>
        <time>2019-02-24T10:36:42Z</time>
      </trkpt>
      <trkpt lat="43.43964" lon="5.86068">
        <ele>352.94</ele>
        <time>2019-02-24T10:36:43Z</time>
      </trkpt>
      <trkpt lat="43.43971" lon="5.86042">
        <ele>353.42</ele>
        <time>2019-02-24T10:36:54Z</time>
      </trkpt>
      <trkpt lat="43.43971" lon="5.86033">
        <ele>353.42</ele>
        <time>2019-02-24T10:37:21Z</time>
      </trkpt>
      <trkpt lat="43.43969" lon="5.86033">
        <ele>353.42</ele>
        <time>2019-02-24T10:37:56Z</time>
      </trkpt>
      <trkpt lat="43.43969" lon="5.86031">
        <ele>353.42</ele>
        <time>2019-02-24T10:38:21Z</time>
      </trkpt>
      <trkpt lat="43.43965" lon="5.86029">
        <ele>353.9</ele>
        <time>2019-02-24T10:38:44Z</time>
      </trkpt>
      <trkpt lat="43.43968" lon="5.86033">
        <ele>353.9</ele>
        <time>2019-02-24T10:39:11Z</time>
      </trkpt>
      <trkpt lat="43.43966" lon="5.86033">
        <ele>353.9</ele>
        <time>2019-02-24T10:39:39Z</time>
      </trkpt>
      <trkpt lat="43.43966" lon="5.8603">
        <ele>353.9</ele>
        <time>2019-02-24T10:40:01Z</time>
      </trkpt>
      <trkpt lat="43.43969" lon="5.86032">
        <ele>353.9</ele>
        <time>2019-02-24T10:40:30Z</time>
      </trkpt>
      <trkpt lat="43.4397" lon="5.86033">
        <ele>353.9</ele>
        <time>2019-02-24T10:41:01Z</time>
      </trkpt>
      <trkpt lat="43.4397" lon="5.86032">
        <ele>354.38</ele>
        <time>2019-02-24T10:41:35Z</time>
      </trkpt>
      <trkpt lat="43.43971" lon="5.86032">
        <ele>354.86</ele>
        <time>2019-02-24T10:42:08Z</time>
      </trkpt>
      <trkpt lat="43.43972" lon="5.86032">
        <ele>354.86</ele>
        <time>2019-02-24T10:42:38Z</time>
      </trkpt>
      <trkpt lat="43.43972" lon="5.86032">
        <ele>354.86</ele>
        <time>2019-02-24T10:43:06Z</time>
      </trkpt>
      <trkpt lat="43.43974" lon="5.8603">
        <ele>354.86</ele>
        <time>2019-02-24T10:43:40Z</time>
      </trkpt>
      <trkpt lat="43.43976" lon="5.86031">
        <ele>354.86</ele>
        <time>2019-02-24T10:44:14Z</time>
      </trkpt>
      <trkpt lat="43.43975" lon="5.86032">
        <ele>354.86</ele>
        <time>2019-02-24T10:44:42Z</time>
      </trkpt>
      <trkpt lat="43.43972" lon="5.86031">
        <ele>355.34</ele>
        <time>2019-02-24T10:45:19Z</time>
      </trkpt>
      <trkpt lat="43.43964" lon="5.86027">
        <ele>355.34</ele>
        <time>2019-02-24T10:45:59Z</time>
      </trkpt>
      <trkpt lat="43.43966" lon="5.86028">
        <ele>355.34</ele>
        <time>2019-02-24T10:46:39Z</time>
      </trkpt>
      <trkpt lat="43.43962" lon="5.8603">
        <ele>355.34</ele>
        <time>2019-02-24T10:47:13Z</time>
      </trkpt>
      <trkpt lat="43.4396" lon="5.86029">
        <ele>355.34</ele>
        <time>2019-02-24T10:47:44Z</time>
      </trkpt>
      <trkpt lat="43.43967" lon="5.86032">
        <ele>355.83</ele>
        <time>2019-02-24T10:48:21Z</time>
      </trkpt>
      <trkpt lat="43.43968" lon="5.86032">
        <ele>355.83</ele>
        <time>2019-02-24T10:49:04Z</time>
      </trkpt>
      <trkpt lat="43.43966" lon="5.86032">
        <ele>355.34</ele>
        <time>2019-02-24T10:49:39Z</time>
      </trkpt>
      <trkpt lat="43.43963" lon="5.86033">
        <ele>355.34</ele>
        <time>2019-02-24T10:50:06Z</time>
      </trkpt>
      <trkpt lat="43.43967" lon="5.86033">
        <ele>355.34</ele>
        <time>2019-02-24T10:50:36Z</time>
      </trkpt>
      <trkpt lat="43.43972" lon="5.86033">
        <ele>355.34</ele>
        <time>2019-02-24T10:51:11Z</time>
      </trkpt>
      <trkpt lat="43.4397" lon="5.86033">
        <ele>355.34</ele>
        <time>2019-02-24T10:51:38Z</time>
      </trkpt>
      <trkpt lat="43.4397" lon="5.86033">
        <ele>355.34</ele>
        <time>2019-02-24T10:52:04Z</time>
      </trkpt>
      <trkpt lat="43.43969" lon="5.86031">
        <ele>355.34</ele>
        <time>2019-02-24T10:52:38Z</time>
      </trkpt>
      <trkpt lat="43.43969" lon="5.86031">
        <ele>355.34</ele>
        <time>2019-02-24T10:53:06Z</time>
      </trkpt>
      <trkpt lat="43.43968" lon="5.86032">
        <ele>355.34</ele>
        <time>2019-02-24T10:53:36Z</time>
      </trkpt>
      <trkpt lat="43.43969" lon="5.86035">
        <ele>355.34</ele>
        <time>2019-02-24T10:54:10Z</time>
      </trkpt>
      <trkpt lat="43.43971" lon="5.86034">
        <ele>355.83</ele>
        <time>2019-02-24T10:54:49Z</time>
      </trkpt>
      <trkpt lat="43.4397" lon="5.86034">
        <ele>355.83</ele>
        <time>2019-02-24T10:55:28Z</time>
      </trkpt>
      <trkpt lat="43.43972" lon="5.86033">
        <ele>356.31</ele>
        <time>2019-02-24T10:56:04Z</time>
      </trkpt>
      <trkpt lat="43.43972" lon="5.86033">
        <ele>356.31</ele>
        <time>2019-02-24T10:56:35Z</time>
      </trkpt>
      <trkpt lat="43.43971" lon="5.86034">
        <ele>356.31</ele>
        <time>2019-02-24T10:57:14Z</time>
      </trkpt>
      <trkpt lat="43.43969" lon="5.86036">
        <ele>356.31</ele>
        <time>2019-02-24T10:57:54Z</time>
      </trkpt>
      <trkpt lat="43.43969" lon="5.86037">
        <ele>356.31</ele>
        <time>2019-02-24T10:58:30Z</time>
      </trkpt>
      <trkpt lat="43.43973" lon="5.86035">
        <ele>356.79</ele>
        <time>2019-02-24T10:59:08Z</time>
      </trkpt>
      <trkpt lat="43.43973" lon="5.86031">
        <ele>356.79</ele>
        <time>2019-02-24T10:59:42Z</time>
      </trkpt>
      <trkpt lat="43.43972" lon="5.86031">
        <ele>358.23</ele>
        <time>2019-02-24T11:00:09Z</time>
      </trkpt>
    </trkseg>
  </trk>
  <trk>
    <name><![CDATA[2019-03-10 12:01:48]]></name>
    <trkseg>
      <trkpt lat="43.44623" lon="5.86017">
        <ele>323.14</ele>
        <time>2019-03-10T08:59:30Z</time>
      </trkpt>
      <trkpt lat="43.44577" lon="5.86002">
        <ele>325.06</ele>
        <time>2019-03-10T08:59:49Z</time>
      </trkpt>
      <trkpt lat="43.44519" lon="5.8598">
        <ele>326.5</ele>
        <time>2019-03-10T09:00:10Z</time>
      </trkpt>
      <trkpt lat="43.44476" lon="5.85962">
        <ele>327.95</ele>
        <time>2019-03-10T09:00:27Z</time>
      </trkpt>
      <trkpt lat="43.44439" lon="5.85945">
        <ele>329.87</ele>
        <time>2019-03-10T09:00:45Z</time>
      </trkpt>
      <trkpt lat="43.44433" lon="5.8594">
        <ele>329.87</ele>
        <time>2019-03-10T09:00:48Z</time>
      </trkpt>
      <trkpt lat="43.44431" lon="5.8594">
        <ele>329.87</ele>
        <time>2019-03-10T09:00:49Z</time>
      </trkpt>
      <trkpt lat="43.44428" lon="5.8594">
        <ele>329.87</ele>
        <time>2019-03-10T09:00:50Z</time>
      </trkpt>
      <trkpt lat="43.44425" lon="5.85941">
        <ele>329.87</ele>
        <time>2019-03-10T09:00:51Z</time>
      </trkpt>
      <trkpt lat="43.44422" lon="5.8594">
        <ele>330.35</ele>
        <time>2019-03-10T09:00:52Z</time>
      </trkpt>
      <trkpt lat="43.44418" lon="5.8594">
        <ele>330.35</ele>
        <time>2019-03-10T09:00:53Z</time>
      </trkpt>
      <trkpt lat="43.44387" lon="5.8593">
        <ele>331.31</ele>
        <time>2019-03-10T09:01:04Z</time>
      </trkpt>
      <trkpt lat="43.44332" lon="5.85908">
        <ele>332.75</ele>
        <time>2019-03-10T09:01:23Z</time>
      </trkpt>
      <trkpt lat="43.44281" lon="5.85889">
        <ele>335.16</ele>
        <time>2019-03-10T09:01:42Z</time>
      </trkpt>
      <trkpt lat="43.44232" lon="5.85872">
        <ele>337.08</ele>
        <time>2019-03-10T09:01:59Z</time>
      </trkpt>
      <trkpt lat="43.44185" lon="5.85854">
        <ele>338.52</ele>
        <time>2019-03-10T09:02:16Z</time>
      </trkpt>
      <trkpt lat="43.44136" lon="5.85834">
        <ele>340.44</ele>
        <time>2019-03-10T09:02:33Z</time>
      </trkpt>
      <trkpt lat="43.44087" lon="5.85815">
        <ele>342.37</ele>
        <time>2019-03-10T09:02:49Z</time>
      </trkpt>
      <trkpt lat="43.44037" lon="5.85796">
        <ele>345.25</ele>
        <time>2019-03-10T09:03:11Z</time>
      </trkpt>
      <trkpt lat="43.43997" lon="5.85779">
        <ele>347.17</ele>
        <time>2019-03-10T09:03:28Z</time>
      </trkpt>
      <trkpt lat="43.43953" lon="5.85757">
        <ele>349.1</ele>
        <time>2019-03-10T09:03:47Z</time>
      </trkpt>
      <trkpt lat="43.43951" lon="5.85743">
        <ele>349.1</ele>
        <time>2019-03-10T09:03:51Z</time>
      </trkpt>
      <trkpt lat="43.43952" lon="5.85738">
        <ele>349.1</ele>
        <time>2019-03-10T09:03:52Z</time>
      </trkpt>
      <trkpt lat="43.43965" lon="5.85674">
        <ele>349.1</ele>
        <time>2019-03-10T09:04:05Z</time>
      </trkpt>
      <trkpt lat="43.43972" lon="5.85588">
        <ele>347.65</ele>
        <time>2019-03-10T09:04:20Z</time>
      </trkpt>
      <trkpt lat="43.43988" lon="5.85514">
        <ele>348.13</ele>
        <time>2019-03-10T09:04:35Z</time>
      </trkpt>
      <trkpt lat="43.4399" lon="5.85458">
        <ele>351.02</ele>
        <time>2019-03-10T09:04:49Z</time>
      </trkpt>
      <trkpt lat="43.44" lon="5.85392">
        <ele>352.94</ele>
        <time>2019-03-10T09:05:04Z</time>
      </trkpt>
      <trkpt lat="43.44001" lon="5.85344">
        <ele>354.86</ele>
        <time>2019-03-10T09:05:18Z</time>
      </trkpt>
      <trkpt lat="43.44008" lon="5.85291">
        <ele>358.23</ele>
        <time>2019-03-10T09:05:35Z</time>
      </trkpt>
      <trkpt lat="43.44021" lon="5.85249">
        <ele>359.67</ele>
        <time>2019-03-10T09:05:49Z</time>
      </trkpt>
      <trkpt lat="43.44024" lon="5.85186">
        <ele>361.59</ele>
        <time>2019-03-10T09:06:05Z</time>
      </trkpt>
      <trkpt lat="43.44038" lon="5.85131">
        <ele>363.52</ele>
        <time>2019-03-10T09:06:21Z</time>
      </trkpt>
      <trkpt lat="43.44057" lon="5.85081">
        <ele>364.96</ele>
        <time>2019-03-10T09:06:34Z</time>
      </trkpt>
      <trkpt lat="43.44064" lon="5.85026">
        <ele>366.88</ele>
        <time>2019-03-10T09:06:48Z</time>
      </trkpt>
      <trkpt lat="43.44065" lon="5.84959">
        <ele>367.84</ele>
        <time>2019-03-10T09:07:03Z</time>
      </trkpt>
      <trkpt lat="43.44065" lon="5.84892">
        <ele>369.76</ele>
        <time>2019-03-10T09:07:21Z</time>
      </trkpt>
      <trkpt lat="43.44062" lon="5.84844">
        <ele>371.69</ele>
        <time>2019-03-10T09:07:34Z</time>
      </trkpt>
      <trkpt lat="43.44062" lon="5.84801">
        <ele>375.05</ele>
        <time>2019-03-10T09:07:47Z</time>
      </trkpt>
      <trkpt lat="43.44067" lon="5.84778">
        <ele>376.49</ele>
        <time>2019-03-10T09:07:53Z</time>
      </trkpt>
      <trkpt lat="43.44067" lon="5.84775">
        <ele>376.97</ele>
        <time>2019-03-10T09:07:54Z</time>
      </trkpt>
      <trkpt lat="43.44067" lon="5.84772">
        <ele>376.97</ele>
        <time>2019-03-10T09:07:55Z</time>
      </trkpt>
      <trkpt lat="43.44067" lon="5.84769">
        <ele>376.97</ele>
        <time>2019-03-10T09:07:56Z</time>
      </trkpt>
      <trkpt lat="43.44067" lon="5.84766">
        <ele>378.42</ele>
        <time>2019-03-10T09:07:57Z</time>
      </trkpt>
      <trkpt lat="43.44067" lon="5.84763">
        <ele>378.42</ele>
        <time>2019-03-10T09:07:58Z</time>
      </trkpt>
      <trkpt lat="43.44067" lon="5.8476">
        <ele>378.42</ele>
        <time>2019-03-10T09:07:59Z</time>
      </trkpt>
      <trkpt lat="43.44067" lon="5.84757">
        <ele>378.9</ele>
        <time>2019-03-10T09:08:00Z</time>
      </trkpt>
      <trkpt lat="43.44071" lon="5.84712">
        <ele>381.78</ele>
        <time>2019-03-10T09:08:17Z</time>
      </trkpt>
      <trkpt lat="43.44075" lon="5.84665">
        <ele>385.15</ele>
        <time>2019-03-10T09:08:34Z</time>
      </trkpt>
      <trkpt lat="43.44076" lon="5.84657">
        <ele>385.63</ele>
        <time>2019-03-10T09:08:37Z</time>
      </trkpt>
      <trkpt lat="43.44076" lon="5.84655">
        <ele>385.63</ele>
        <time>2019-03-10T09:08:38Z</time>
      </trkpt>
      <trkpt lat="43.44076" lon="5.84653">
        <ele>386.11</ele>
        <time>2019-03-10T09:08:39Z</time>
      </trkpt>
      <trkpt lat="43.44078" lon="5.84619">
        <ele>388.99</ele>
        <time>2019-03-10T09:08:54Z</time>
      </trkpt>
      <trkpt lat="43.44075" lon="5.84584">
        <ele>392.36</ele>
        <time>2019-03-10T09:09:08Z</time>
      </trkpt>
      <trkpt lat="43.44069" lon="5.84537">
        <ele>395.24</ele>
        <time>2019-03-10T09:09:25Z</time>
      </trkpt>
      <trkpt lat="43.44063" lon="5.84491">
        <ele>397.16</ele>
        <time>2019-03-10T09:09:43Z</time>
      </trkpt>
      <trkpt lat="43.4406" lon="5.8444">
        <ele>398.6</ele>
        <time>2019-03-10T09:10:01Z</time>
      </trkpt>
      <trkpt lat="43.44057" lon="5.84383">
        <ele>399.57</ele>
        <time>2019-03-10T09:10:20Z</time>
      </trkpt>
      <trkpt lat="43.44061" lon="5.84336">
        <ele>400.53</ele>
        <time>2019-03-10T09:10:36Z</time>
      </trkpt>
      <trkpt lat="43.4406" lon="5.84334">
        <ele>400.53</ele>
        <time>2019-03-10T09:10:37Z</time>
      </trkpt>
      <trkpt lat="43.44046" lon="5.84296">
        <ele>400.53</ele>
        <time>2019-03-10T09:10:51Z</time>
      </trkpt>
      <trkpt lat="43.44041" lon="5.84239">
        <ele>401.97</ele>
        <time>2019-03-10T09:11:07Z</time>
      </trkpt>
      <trkpt lat="43.44039" lon="5.84204">
        <ele>403.89</ele>
        <time>2019-03-10T09:11:19Z</time>
      </trkpt>
      <trkpt lat="43.44034" lon="5.84176">
        <ele>401.97</ele>
        <time>2019-03-10T09:11:26Z</time>
      </trkpt>
      <trkpt lat="43.44034" lon="5.84115">
        <ele>400.05</ele>
        <time>2019-03-10T09:11:39Z</time>
      </trkpt>
      <trkpt lat="43.44034" lon="5.8411">
        <ele>399.57</ele>
        <time>2019-03-10T09:11:40Z</time>
      </trkpt>
      <trkpt lat="43.44035" lon="5.84104">
        <ele>399.08</ele>
        <time>2019-03-10T09:11:41Z</time>
      </trkpt>
      <trkpt lat="43.44048" lon="5.84045">
        <ele>398.12</ele>
        <time>2019-03-10T09:11:54Z</time>
      </trkpt>
      <trkpt lat="43.44049" lon="5.84001">
        <ele>399.57</ele>
        <time>2019-03-10T09:12:05Z</time>
      </trkpt>
      <trkpt lat="43.44056" lon="5.83969">
        <ele>398.12</ele>
        <time>2019-03-10T09:12:14Z</time>
      </trkpt>
      <trkpt lat="43.4407" lon="5.83942">
        <ele>398.12</ele>
        <time>2019-03-10T09:12:24Z</time>
      </trkpt>
      <trkpt lat="43.44072" lon="5.83937">
        <ele>398.12</ele>
        <time>2019-03-10T09:12:26Z</time>
      </trkpt>
      <trkpt lat="43.44072" lon="5.83933">
        <ele>398.12</ele>
        <time>2019-03-10T09:12:27Z</time>
      </trkpt>
      <trkpt lat="43.44071" lon="5.83929">
        <ele>398.12</ele>
        <time>2019-03-10T09:12:28Z</time>
      </trkpt>
      <trkpt lat="43.4407" lon="5.83926">
        <ele>398.12</ele>
        <time>2019-03-10T09:12:29Z</time>
      </trkpt>
      <trkpt lat="43.4407" lon="5.83923">
        <ele>398.12</ele>
        <time>2019-03-10T09:12:30Z</time>
      </trkpt>
      <trkpt lat="43.44069" lon="5.8392">
        <ele>398.12</ele>
        <time>2019-03-10T09:12:31Z</time>
      </trkpt>
      <trkpt lat="43.44068" lon="5.83917">
        <ele>398.12</ele>
        <time>2019-03-10T09:12:32Z</time>
      </trkpt>
      <trkpt lat="43.44067" lon="5.83915">
        <ele>398.12</ele>
        <time>2019-03-10T09:12:33Z</time>
      </trkpt>
      <trkpt lat="43.44067" lon="5.83912">
        <ele>398.12</ele>
        <time>2019-03-10T09:12:34Z</time>
      </trkpt>
      <trkpt lat="43.44067" lon="5.8391">
        <ele>398.12</ele>
        <time>2019-03-10T09:12:35Z</time>
      </trkpt>
      <trkpt lat="43.44068" lon="5.83907">
        <ele>399.57</ele>
        <time>2019-03-10T09:12:36Z</time>
      </trkpt>
      <trkpt lat="43.44069" lon="5.83905">
        <ele>399.57</ele>
        <time>2019-03-10T09:12:37Z</time>
      </trkpt>
      <trkpt lat="43.44074" lon="5.83889">
        <ele>401.49</ele>
        <time>2019-03-10T09:12:46Z</time>
      </trkpt>
      <trkpt lat="43.44078" lon="5.83881">
        <ele>401.97</ele>
        <time>2019-03-10T09:12:50Z</time>
      </trkpt>
      <trkpt lat="43.4408" lon="5.83878">
        <ele>401.97</ele>
        <time>2019-03-10T09:12:51Z</time>
      </trkpt>
      <trkpt lat="43.44081" lon="5.83875">
        <ele>402.45</ele>
        <time>2019-03-10T09:12:52Z</time>
      </trkpt>
      <trkpt lat="43.44106" lon="5.83818">
        <ele>402.93</ele>
        <time>2019-03-10T09:13:09Z</time>
      </trkpt>
      <trkpt lat="43.44119" lon="5.83786">
        <ele>405.33</ele>
        <time>2019-03-10T09:13:21Z</time>
      </trkpt>
      <trkpt lat="43.44126" lon="5.83749">
        <ele>406.77</ele>
        <time>2019-03-10T09:13:34Z</time>
      </trkpt>
      <trkpt lat="43.44132" lon="5.83718">
        <ele>407.74</ele>
        <time>2019-03-10T09:13:46Z</time>
      </trkpt>
      <trkpt lat="43.44133" lon="5.83715">
        <ele>407.74</ele>
        <time>2019-03-10T09:13:47Z</time>
      </trkpt>
      <trkpt lat="43.44144" lon="5.83664">
        <ele>408.22</ele>
        <time>2019-03-10T09:14:02Z</time>
      </trkpt>
      <trkpt lat="43.44134" lon="5.83628">
        <ele>409.66</ele>
        <time>2019-03-10T09:14:16Z</time>
      </trkpt>
      <trkpt lat="43.44122" lon="5.836">
        <ele>410.14</ele>
        <time>2019-03-10T09:14:28Z</time>
      </trkpt>
      <trkpt lat="43.44121" lon="5.83596">
        <ele>410.14</ele>
        <time>2019-03-10T09:14:29Z</time>
      </trkpt>
      <trkpt lat="43.4412" lon="5.83593">
        <ele>410.62</ele>
        <time>2019-03-10T09:14:30Z</time>
      </trkpt>
      <trkpt lat="43.44119" lon="5.8359">
        <ele>410.62</ele>
        <time>2019-03-10T09:14:31Z</time>
      </trkpt>
      <trkpt lat="43.44119" lon="5.83587">
        <ele>410.62</ele>
        <time>2019-03-10T09:14:32Z</time>
      </trkpt>
      <trkpt lat="43.44117" lon="5.83545">
        <ele>411.58</ele>
        <time>2019-03-10T09:14:44Z</time>
      </trkpt>
      <trkpt lat="43.44116" lon="5.83541">
        <ele>411.58</ele>
        <time>2019-03-10T09:14:45Z</time>
      </trkpt>
      <trkpt lat="43.44111" lon="5.83504">
        <ele>412.54</ele>
        <time>2019-03-10T09:14:56Z</time>
      </trkpt>
      <trkpt lat="43.44099" lon="5.83469">
        <ele>413.5</ele>
        <time>2019-03-10T09:15:10Z</time>
      </trkpt>
      <trkpt lat="43.44096" lon="5.83461">
        <ele>413.5</ele>
        <time>2019-03-10T09:15:13Z</time>
      </trkpt>
      <trkpt lat="43.44096" lon="5.83458">
        <ele>414.47</ele>
        <time>2019-03-10T09:15:14Z</time>
      </trkpt>
      <trkpt lat="43.44095" lon="5.83455">
        <ele>414.47</ele>
        <time>2019-03-10T09:15:15Z</time>
      </trkpt>
      <trkpt lat="43.44094" lon="5.83452">
        <ele>414.95</ele>
        <time>2019-03-10T09:15:16Z</time>
      </trkpt>
      <trkpt lat="43.44094" lon="5.83449">
        <ele>414.95</ele>
        <time>2019-03-10T09:15:17Z</time>
      </trkpt>
      <trkpt lat="43.44093" lon="5.83446">
        <ele>414.95</ele>
        <time>2019-03-10T09:15:18Z</time>
      </trkpt>
      <trkpt lat="43.44083" lon="5.83387">
        <ele>416.39</ele>
        <time>2019-03-10T09:15:35Z</time>
      </trkpt>
      <trkpt lat="43.44075" lon="5.83335">
        <ele>418.31</ele>
        <time>2019-03-10T09:15:51Z</time>
      </trkpt>
      <trkpt lat="43.44071" lon="5.83288">
        <ele>418.31</ele>
        <time>2019-03-10T09:16:05Z</time>
      </trkpt>
      <trkpt lat="43.4407" lon="5.83236">
        <ele>420.71</ele>
        <time>2019-03-10T09:16:20Z</time>
      </trkpt>
      <trkpt lat="43.44073" lon="5.83192">
        <ele>422.16</ele>
        <time>2019-03-10T09:16:34Z</time>
      </trkpt>
      <trkpt lat="43.44069" lon="5.8314">
        <ele>423.6</ele>
        <time>2019-03-10T09:16:49Z</time>
      </trkpt>
      <trkpt lat="43.44067" lon="5.83103">
        <ele>424.56</ele>
        <time>2019-03-10T09:17:02Z</time>
      </trkpt>
      <trkpt lat="43.44066" lon="5.83067">
        <ele>426.48</ele>
        <time>2019-03-10T09:17:15Z</time>
      </trkpt>
      <trkpt lat="43.44056" lon="5.83026">
        <ele>427.92</ele>
        <time>2019-03-10T09:17:30Z</time>
      </trkpt>
      <trkpt lat="43.44038" lon="5.82989">
        <ele>429.37</ele>
        <time>2019-03-10T09:17:43Z</time>
      </trkpt>
      <trkpt lat="43.44041" lon="5.82943">
        <ele>430.33</ele>
        <time>2019-03-10T09:17:57Z</time>
      </trkpt>
      <trkpt lat="43.44038" lon="5.829">
        <ele>433.21</ele>
        <time>2019-03-10T09:18:12Z</time>
      </trkpt>
      <trkpt lat="43.44024" lon="5.82881">
        <ele>434.17</ele>
        <time>2019-03-10T09:18:25Z</time>
      </trkpt>
      <trkpt lat="43.44009" lon="5.82879">
        <ele>434.17</ele>
        <time>2019-03-10T09:18:39Z</time>
      </trkpt>
      <trkpt lat="43.44005" lon="5.82877">
        <ele>434.17</ele>
        <time>2019-03-10T09:19:00Z</time>
      </trkpt>
      <trkpt lat="43.4401" lon="5.8288">
        <ele>433.21</ele>
        <time>2019-03-10T09:19:23Z</time>
      </trkpt>
      <trkpt lat="43.44008" lon="5.82879">
        <ele>432.73</ele>
        <time>2019-03-10T09:19:57Z</time>
      </trkpt>
      <trkpt lat="43.44008" lon="5.82876">
        <ele>432.73</ele>
        <time>2019-03-10T09:20:10Z</time>
      </trkpt>
      <trkpt lat="43.44007" lon="5.82874">
        <ele>432.73</ele>
        <time>2019-03-10T09:20:11Z</time>
      </trkpt>
      <trkpt lat="43.44006" lon="5.82872">
        <ele>432.73</ele>
        <time>2019-03-10T09:20:12Z</time>
      </trkpt>
      <trkpt lat="43.44006" lon="5.8287">
        <ele>432.73</ele>
        <time>2019-03-10T09:20:13Z</time>
      </trkpt>
      <trkpt lat="43.44005" lon="5.82868">
        <ele>432.73</ele>
        <time>2019-03-10T09:20:14Z</time>
      </trkpt>
      <trkpt lat="43.44005" lon="5.82865">
        <ele>434.17</ele>
        <time>2019-03-10T09:20:15Z</time>
      </trkpt>
      <trkpt lat="43.44" lon="5.82823">
        <ele>434.65</ele>
        <time>2019-03-10T09:20:30Z</time>
      </trkpt>
      <trkpt lat="43.44004" lon="5.82761">
        <ele>435.61</ele>
        <time>2019-03-10T09:20:50Z</time>
      </trkpt>
      <trkpt lat="43.43999" lon="5.82716">
        <ele>437.54</ele>
        <time>2019-03-10T09:21:04Z</time>
      </trkpt>
      <trkpt lat="43.43986" lon="5.82668">
        <ele>438.98</ele>
        <time>2019-03-10T09:21:20Z</time>
      </trkpt>
      <trkpt lat="43.43989" lon="5.82615">
        <ele>441.38</ele>
        <time>2019-03-10T09:21:37Z</time>
      </trkpt>
      <trkpt lat="43.4399" lon="5.82569">
        <ele>441.86</ele>
        <time>2019-03-10T09:21:52Z</time>
      </trkpt>
      <trkpt lat="43.43992" lon="5.82532">
        <ele>444.27</ele>
        <time>2019-03-10T09:22:06Z</time>
      </trkpt>
      <trkpt lat="43.43994" lon="5.82512">
        <ele>444.75</ele>
        <time>2019-03-10T09:22:13Z</time>
      </trkpt>
      <trkpt lat="43.43994" lon="5.82509">
        <ele>444.75</ele>
        <time>2019-03-10T09:22:14Z</time>
      </trkpt>
      <trkpt lat="43.43992" lon="5.82452">
        <ele>446.67</ele>
        <time>2019-03-10T09:22:33Z</time>
      </trkpt>
      <trkpt lat="43.43992" lon="5.82408">
        <ele>448.11</ele>
        <time>2019-03-10T09:22:50Z</time>
      </trkpt>
      <trkpt lat="43.44014" lon="5.82384">
        <ele>449.55</ele>
        <time>2019-03-10T09:23:05Z</time>
      </trkpt>
      <trkpt lat="43.44035" lon="5.82356">
        <ele>449.55</ele>
        <time>2019-03-10T09:23:19Z</time>
      </trkpt>
      <trkpt lat="43.44058" lon="5.82333">
        <ele>451</ele>
        <time>2019-03-10T09:23:31Z</time>
      </trkpt>
      <trkpt lat="43.44068" lon="5.82285">
        <ele>452.44</ele>
        <time>2019-03-10T09:23:47Z</time>
      </trkpt>
      <trkpt lat="43.44076" lon="5.82247">
        <ele>454.36</ele>
        <time>2019-03-10T09:24:02Z</time>
      </trkpt>
      <trkpt lat="43.44077" lon="5.82246">
        <ele>454.84</ele>
        <time>2019-03-10T09:24:03Z</time>
      </trkpt>
      <trkpt lat="43.44079" lon="5.82237">
        <ele>454.84</ele>
        <time>2019-03-10T09:24:07Z</time>
      </trkpt>
      <trkpt lat="43.44083" lon="5.82203">
        <ele>456.28</ele>
        <time>2019-03-10T09:24:18Z</time>
      </trkpt>
      <trkpt lat="43.44092" lon="5.82156">
        <ele>458.69</ele>
        <time>2019-03-10T09:24:32Z</time>
      </trkpt>
      <trkpt lat="43.44099" lon="5.82111">
        <ele>460.61</ele>
        <time>2019-03-10T09:24:48Z</time>
      </trkpt>
      <trkpt lat="43.44108" lon="5.82073">
        <ele>462.05</ele>
        <time>2019-03-10T09:25:01Z</time>
      </trkpt>
      <trkpt lat="43.44115" lon="5.82036">
        <ele>463.97</ele>
        <time>2019-03-10T09:25:14Z</time>
      </trkpt>
      <trkpt lat="43.44124" lon="5.82">
        <ele>466.86</ele>
        <time>2019-03-10T09:25:27Z</time>
      </trkpt>
      <trkpt lat="43.44133" lon="5.81963">
        <ele>468.3</ele>
        <time>2019-03-10T09:25:40Z</time>
      </trkpt>
      <trkpt lat="43.44133" lon="5.8196">
        <ele>468.78</ele>
        <time>2019-03-10T09:25:41Z</time>
      </trkpt>
      <trkpt lat="43.44134" lon="5.81957">
        <ele>468.78</ele>
        <time>2019-03-10T09:25:42Z</time>
      </trkpt>
      <trkpt lat="43.44134" lon="5.81955">
        <ele>468.78</ele>
        <time>2019-03-10T09:25:43Z</time>
      </trkpt>
      <trkpt lat="43.44134" lon="5.81952">
        <ele>468.78</ele>
        <time>2019-03-10T09:25:44Z</time>
      </trkpt>
      <trkpt lat="43.44134" lon="5.81949">
        <ele>469.26</ele>
        <time>2019-03-10T09:25:45Z</time>
      </trkpt>
      <trkpt lat="43.44134" lon="5.81946">
        <ele>469.26</ele>
        <time>2019-03-10T09:25:46Z</time>
      </trkpt>
      <trkpt lat="43.44135" lon="5.81943">
        <ele>469.26</ele>
        <time>2019-03-10T09:25:47Z</time>
      </trkpt>
      <trkpt lat="43.44135" lon="5.8194">
        <ele>469.26</ele>
        <time>2019-03-10T09:25:48Z</time>
      </trkpt>
      <trkpt lat="43.44135" lon="5.81937">
        <ele>469.26</ele>
        <time>2019-03-10T09:25:49Z</time>
      </trkpt>
      <trkpt lat="43.44135" lon="5.81934">
        <ele>469.26</ele>
        <time>2019-03-10T09:25:50Z</time>
      </trkpt>
      <trkpt lat="43.44135" lon="5.81931">
        <ele>469.74</ele>
        <time>2019-03-10T09:25:51Z</time>
      </trkpt>
      <trkpt lat="43.44136" lon="5.81928">
        <ele>469.74</ele>
        <time>2019-03-10T09:25:52Z</time>
      </trkpt>
      <trkpt lat="43.44136" lon="5.81925">
        <ele>469.74</ele>
        <time>2019-03-10T09:25:53Z</time>
      </trkpt>
      <trkpt lat="43.44136" lon="5.81922">
        <ele>470.22</ele>
        <time>2019-03-10T09:25:54Z</time>
      </trkpt>
      <trkpt lat="43.44136" lon="5.81902">
        <ele>471.18</ele>
        <time>2019-03-10T09:26:02Z</time>
      </trkpt>
      <trkpt lat="43.44135" lon="5.819">
        <ele>471.18</ele>
        <time>2019-03-10T09:26:03Z</time>
      </trkpt>
      <trkpt lat="43.44135" lon="5.81897">
        <ele>471.66</ele>
        <time>2019-03-10T09:26:04Z</time>
      </trkpt>
      <trkpt lat="43.44135" lon="5.81895">
        <ele>471.66</ele>
        <time>2019-03-10T09:26:05Z</time>
      </trkpt>
      <trkpt lat="43.44136" lon="5.81892">
        <ele>471.66</ele>
        <time>2019-03-10T09:26:06Z</time>
      </trkpt>
      <trkpt lat="43.44137" lon="5.8189">
        <ele>471.66</ele>
        <time>2019-03-10T09:26:07Z</time>
      </trkpt>
      <trkpt lat="43.44137" lon="5.81887">
        <ele>471.66</ele>
        <time>2019-03-10T09:26:08Z</time>
      </trkpt>
      <trkpt lat="43.44142" lon="5.81844">
        <ele>473.11</ele>
        <time>2019-03-10T09:26:23Z</time>
      </trkpt>
      <trkpt lat="43.44148" lon="5.81813">
        <ele>475.51</ele>
        <time>2019-03-10T09:26:35Z</time>
      </trkpt>
      <trkpt lat="43.44155" lon="5.81789">
        <ele>476.47</ele>
        <time>2019-03-10T09:26:49Z</time>
      </trkpt>
      <trkpt lat="43.44154" lon="5.81781">
        <ele>476.47</ele>
        <time>2019-03-10T09:27:05Z</time>
      </trkpt>
      <trkpt lat="43.44156" lon="5.81776">
        <ele>476.47</ele>
        <time>2019-03-10T09:27:40Z</time>
      </trkpt>
      <trkpt lat="43.44152" lon="5.81773">
        <ele>476.47</ele>
        <time>2019-03-10T09:28:20Z</time>
      </trkpt>
      <trkpt lat="43.44152" lon="5.81773">
        <ele>476.47</ele>
        <time>2019-03-10T09:28:50Z</time>
      </trkpt>
      <trkpt lat="43.44155" lon="5.81776">
        <ele>476.47</ele>
        <time>2019-03-10T09:29:21Z</time>
      </trkpt>
      <trkpt lat="43.44155" lon="5.81778">
        <ele>476.47</ele>
        <time>2019-03-10T09:29:54Z</time>
      </trkpt>
      <trkpt lat="43.44155" lon="5.8178">
        <ele>475.51</ele>
        <time>2019-03-10T09:30:20Z</time>
      </trkpt>
      <trkpt lat="43.44157" lon="5.81779">
        <ele>476.95</ele>
        <time>2019-03-10T09:30:35Z</time>
      </trkpt>
      <trkpt lat="43.44157" lon="5.81779">
        <ele>476.95</ele>
        <time>2019-03-10T09:31:03Z</time>
      </trkpt>
      <trkpt lat="43.44156" lon="5.81765">
        <ele>477.91</ele>
        <time>2019-03-10T09:31:19Z</time>
      </trkpt>
      <trkpt lat="43.44155" lon="5.81754">
        <ele>478.39</ele>
        <time>2019-03-10T09:31:25Z</time>
      </trkpt>
      <trkpt lat="43.44156" lon="5.81751">
        <ele>478.87</ele>
        <time>2019-03-10T09:31:27Z</time>
      </trkpt>
      <trkpt lat="43.44155" lon="5.8173">
        <ele>479.84</ele>
        <time>2019-03-10T09:31:38Z</time>
      </trkpt>
      <trkpt lat="43.44155" lon="5.81728">
        <ele>479.84</ele>
        <time>2019-03-10T09:31:39Z</time>
      </trkpt>
      <trkpt lat="43.44156" lon="5.81726">
        <ele>479.84</ele>
        <time>2019-03-10T09:31:40Z</time>
      </trkpt>
      <trkpt lat="43.44156" lon="5.81723">
        <ele>479.84</ele>
        <time>2019-03-10T09:31:41Z</time>
      </trkpt>
      <trkpt lat="43.44156" lon="5.81721">
        <ele>480.32</ele>
        <time>2019-03-10T09:31:42Z</time>
      </trkpt>
      <trkpt lat="43.44156" lon="5.81719">
        <ele>480.32</ele>
        <time>2019-03-10T09:31:43Z</time>
      </trkpt>
      <trkpt lat="43.44161" lon="5.81696">
        <ele>482.72</ele>
        <time>2019-03-10T09:31:51Z</time>
      </trkpt>
      <trkpt lat="43.44167" lon="5.81665">
        <ele>484.64</ele>
        <time>2019-03-10T09:32:04Z</time>
      </trkpt>
      <trkpt lat="43.44181" lon="5.81629">
        <ele>485.12</ele>
        <time>2019-03-10T09:32:19Z</time>
      </trkpt>
      <trkpt lat="43.44189" lon="5.81611">
        <ele>486.08</ele>
        <time>2019-03-10T09:32:27Z</time>
      </trkpt>
      <trkpt lat="43.4419" lon="5.81609">
        <ele>486.08</ele>
        <time>2019-03-10T09:32:28Z</time>
      </trkpt>
      <trkpt lat="43.44208" lon="5.81571">
        <ele>488.01</ele>
        <time>2019-03-10T09:32:46Z</time>
      </trkpt>
      <trkpt lat="43.44217" lon="5.81547">
        <ele>490.41</ele>
        <time>2019-03-10T09:32:58Z</time>
      </trkpt>
      <trkpt lat="43.44222" lon="5.81521">
        <ele>492.81</ele>
        <time>2019-03-10T09:33:12Z</time>
      </trkpt>
      <trkpt lat="43.44223" lon="5.81492">
        <ele>495.7</ele>
        <time>2019-03-10T09:33:27Z</time>
      </trkpt>
      <trkpt lat="43.44229" lon="5.81466">
        <ele>499.06</ele>
        <time>2019-03-10T09:33:40Z</time>
      </trkpt>
      <trkpt lat="43.44239" lon="5.81429">
        <ele>500.98</ele>
        <time>2019-03-10T09:33:56Z</time>
      </trkpt>
      <trkpt lat="43.44246" lon="5.81397">
        <ele>502.91</ele>
        <time>2019-03-10T09:34:11Z</time>
      </trkpt>
      <trkpt lat="43.44254" lon="5.81364">
        <ele>505.31</ele>
        <time>2019-03-10T09:34:27Z</time>
      </trkpt>
      <trkpt lat="43.44263" lon="5.81327">
        <ele>507.71</ele>
        <time>2019-03-10T09:34:44Z</time>
      </trkpt>
      <trkpt lat="43.4427" lon="5.81298">
        <ele>511.08</ele>
        <time>2019-03-10T09:34:58Z</time>
      </trkpt>
      <trkpt lat="43.44274" lon="5.81293">
        <ele>511.08</ele>
        <time>2019-03-10T09:35:02Z</time>
      </trkpt>
      <trkpt lat="43.44275" lon="5.81292">
        <ele>511.08</ele>
        <time>2019-03-10T09:35:03Z</time>
      </trkpt>
      <trkpt lat="43.4428" lon="5.81282">
        <ele>512.04</ele>
        <time>2019-03-10T09:35:17Z</time>
      </trkpt>
      <trkpt lat="43.44289" lon="5.8127">
        <ele>513</ele>
        <time>2019-03-10T09:35:29Z</time>
      </trkpt>
      <trkpt lat="43.44305" lon="5.81259">
        <ele>514.92</ele>
        <time>2019-03-10T09:35:46Z</time>
      </trkpt>
      <trkpt lat="43.44314" lon="5.81247">
        <ele>515.88</ele>
        <time>2019-03-10T09:35:59Z</time>
      </trkpt>
      <trkpt lat="43.44314" lon="5.81246">
        <ele>515.88</ele>
        <time>2019-03-10T09:36:00Z</time>
      </trkpt>
      <trkpt lat="43.44315" lon="5.81233">
        <ele>516.37</ele>
        <time>2019-03-10T09:36:14Z</time>
      </trkpt>
      <trkpt lat="43.44314" lon="5.81228">
        <ele>517.81</ele>
        <time>2019-03-10T09:36:31Z</time>
      </trkpt>
      <trkpt lat="43.44314" lon="5.81229">
        <ele>517.81</ele>
        <time>2019-03-10T09:36:54Z</time>
      </trkpt>
      <trkpt lat="43.44314" lon="5.81227">
        <ele>518.29</ele>
        <time>2019-03-10T09:37:11Z</time>
      </trkpt>
      <trkpt lat="43.44314" lon="5.81226">
        <ele>517.81</ele>
        <time>2019-03-10T09:37:33Z</time>
      </trkpt>
      <trkpt lat="43.44315" lon="5.81226">
        <ele>516.85</ele>
        <time>2019-03-10T09:37:57Z</time>
      </trkpt>
      <trkpt lat="43.44314" lon="5.81226">
        <ele>517.81</ele>
        <time>2019-03-10T09:38:16Z</time>
      </trkpt>
      <trkpt lat="43.44316" lon="5.81232">
        <ele>516.85</ele>
        <time>2019-03-10T09:38:29Z</time>
      </trkpt>
      <trkpt lat="43.44313" lon="5.81227">
        <ele>516.85</ele>
        <time>2019-03-10T09:38:46Z</time>
      </trkpt>
      <trkpt lat="43.44306" lon="5.81219">
        <ele>517.81</ele>
        <time>2019-03-10T09:38:59Z</time>
      </trkpt>
      <trkpt lat="43.44299" lon="5.81205">
        <ele>520.69</ele>
        <time>2019-03-10T09:39:16Z</time>
      </trkpt>
      <trkpt lat="43.44291" lon="5.8119">
        <ele>521.17</ele>
        <time>2019-03-10T09:39:31Z</time>
      </trkpt>
      <trkpt lat="43.44287" lon="5.81179">
        <ele>522.13</ele>
        <time>2019-03-10T09:39:40Z</time>
      </trkpt>
      <trkpt lat="43.44277" lon="5.81162">
        <ele>525.02</ele>
        <time>2019-03-10T09:39:57Z</time>
      </trkpt>
      <trkpt lat="43.44265" lon="5.81148">
        <ele>526.46</ele>
        <time>2019-03-10T09:40:13Z</time>
      </trkpt>
      <trkpt lat="43.44266" lon="5.81144">
        <ele>526.46</ele>
        <time>2019-03-10T09:40:16Z</time>
      </trkpt>
      <trkpt lat="43.44267" lon="5.81143">
        <ele>526.46</ele>
        <time>2019-03-10T09:40:17Z</time>
      </trkpt>
      <trkpt lat="43.44268" lon="5.81141">
        <ele>526.46</ele>
        <time>2019-03-10T09:40:18Z</time>
      </trkpt>
      <trkpt lat="43.44275" lon="5.81138">
        <ele>526.94</ele>
        <time>2019-03-10T09:40:26Z</time>
      </trkpt>
      <trkpt lat="43.44293" lon="5.81134">
        <ele>529.82</ele>
        <time>2019-03-10T09:40:44Z</time>
      </trkpt>
      <trkpt lat="43.44296" lon="5.81132">
        <ele>529.82</ele>
        <time>2019-03-10T09:40:48Z</time>
      </trkpt>
      <trkpt lat="43.44303" lon="5.81128">
        <ele>530.3</ele>
        <time>2019-03-10T09:40:55Z</time>
      </trkpt>
      <trkpt lat="43.44316" lon="5.81131">
        <ele>532.71</ele>
        <time>2019-03-10T09:41:09Z</time>
      </trkpt>
      <trkpt lat="43.44332" lon="5.81138">
        <ele>533.67</ele>
        <time>2019-03-10T09:41:23Z</time>
      </trkpt>
      <trkpt lat="43.44342" lon="5.81139">
        <ele>535.11</ele>
        <time>2019-03-10T09:41:33Z</time>
      </trkpt>
      <trkpt lat="43.44355" lon="5.81141">
        <ele>536.07</ele>
        <time>2019-03-10T09:41:47Z</time>
      </trkpt>
      <trkpt lat="43.44369" lon="5.81138">
        <ele>537.51</ele>
        <time>2019-03-10T09:42:02Z</time>
      </trkpt>
      <trkpt lat="43.44372" lon="5.81136">
        <ele>537.99</ele>
        <time>2019-03-10T09:42:05Z</time>
      </trkpt>
      <trkpt lat="43.44387" lon="5.81132">
        <ele>539.44</ele>
        <time>2019-03-10T09:42:19Z</time>
      </trkpt>
      <trkpt lat="43.44398" lon="5.81126">
        <ele>539.92</ele>
        <time>2019-03-10T09:42:33Z</time>
      </trkpt>
      <trkpt lat="43.44405" lon="5.81122">
        <ele>540.88</ele>
        <time>2019-03-10T09:42:41Z</time>
      </trkpt>
      <trkpt lat="43.44414" lon="5.8111">
        <ele>542.32</ele>
        <time>2019-03-10T09:42:54Z</time>
      </trkpt>
      <trkpt lat="43.44416" lon="5.81102">
        <ele>542.32</ele>
        <time>2019-03-10T09:43:01Z</time>
      </trkpt>
      <trkpt lat="43.44417" lon="5.81081">
        <ele>543.76</ele>
        <time>2019-03-10T09:43:18Z</time>
      </trkpt>
      <trkpt lat="43.44419" lon="5.81064">
        <ele>544.72</ele>
        <time>2019-03-10T09:43:29Z</time>
      </trkpt>
      <trkpt lat="43.44427" lon="5.81025">
        <ele>546.65</ele>
        <time>2019-03-10T09:43:44Z</time>
      </trkpt>
      <trkpt lat="43.44439" lon="5.80995">
        <ele>548.57</ele>
        <time>2019-03-10T09:43:59Z</time>
      </trkpt>
      <trkpt lat="43.44447" lon="5.80972">
        <ele>550.97</ele>
        <time>2019-03-10T09:44:13Z</time>
      </trkpt>
      <trkpt lat="43.4445" lon="5.80955">
        <ele>552.9</ele>
        <time>2019-03-10T09:44:23Z</time>
      </trkpt>
      <trkpt lat="43.4445" lon="5.80953">
        <ele>552.9</ele>
        <time>2019-03-10T09:44:24Z</time>
      </trkpt>
      <trkpt lat="43.44456" lon="5.80935">
        <ele>554.34</ele>
        <time>2019-03-10T09:44:33Z</time>
      </trkpt>
      <trkpt lat="43.44458" lon="5.8093">
        <ele>554.34</ele>
        <time>2019-03-10T09:44:36Z</time>
      </trkpt>
      <trkpt lat="43.44459" lon="5.80929">
        <ele>554.82</ele>
        <time>2019-03-10T09:44:37Z</time>
      </trkpt>
      <trkpt lat="43.44471" lon="5.809">
        <ele>557.7</ele>
        <time>2019-03-10T09:44:52Z</time>
      </trkpt>
      <trkpt lat="43.44484" lon="5.80875">
        <ele>560.59</ele>
        <time>2019-03-10T09:45:08Z</time>
      </trkpt>
      <trkpt lat="43.44485" lon="5.80871">
        <ele>561.55</ele>
        <time>2019-03-10T09:45:10Z</time>
      </trkpt>
      <trkpt lat="43.44487" lon="5.8087">
        <ele>562.03</ele>
        <time>2019-03-10T09:45:11Z</time>
      </trkpt>
      <trkpt lat="43.44488" lon="5.80868">
        <ele>562.51</ele>
        <time>2019-03-10T09:45:12Z</time>
      </trkpt>
      <trkpt lat="43.44489" lon="5.80867">
        <ele>562.51</ele>
        <time>2019-03-10T09:45:13Z</time>
      </trkpt>
      <trkpt lat="43.44489" lon="5.80865">
        <ele>562.99</ele>
        <time>2019-03-10T09:45:14Z</time>
      </trkpt>
      <trkpt lat="43.44503" lon="5.80839">
        <ele>565.39</ele>
        <time>2019-03-10T09:45:29Z</time>
      </trkpt>
      <trkpt lat="43.44509" lon="5.8082">
        <ele>566.83</ele>
        <time>2019-03-10T09:45:37Z</time>
      </trkpt>
      <trkpt lat="43.44517" lon="5.80795">
        <ele>567.8</ele>
        <time>2019-03-10T09:45:53Z</time>
      </trkpt>
      <trkpt lat="43.44529" lon="5.80771">
        <ele>567.8</ele>
        <time>2019-03-10T09:46:06Z</time>
      </trkpt>
      <trkpt lat="43.4453" lon="5.80768">
        <ele>566.35</ele>
        <time>2019-03-10T09:46:07Z</time>
      </trkpt>
      <trkpt lat="43.44531" lon="5.80763">
        <ele>566.35</ele>
        <time>2019-03-10T09:46:08Z</time>
      </trkpt>
      <trkpt lat="43.44533" lon="5.80751">
        <ele>565.87</ele>
        <time>2019-03-10T09:46:10Z</time>
      </trkpt>
      <trkpt lat="43.44533" lon="5.80745">
        <ele>565.39</ele>
        <time>2019-03-10T09:46:11Z</time>
      </trkpt>
      <trkpt lat="43.44534" lon="5.80736">
        <ele>565.39</ele>
        <time>2019-03-10T09:46:12Z</time>
      </trkpt>
      <trkpt lat="43.44538" lon="5.80711">
        <ele>563.95</ele>
        <time>2019-03-10T09:46:15Z</time>
      </trkpt>
      <trkpt lat="43.44541" lon="5.80696">
        <ele>564.43</ele>
        <time>2019-03-10T09:46:17Z</time>
      </trkpt>
      <trkpt lat="43.44542" lon="5.80689">
        <ele>564.43</ele>
        <time>2019-03-10T09:46:18Z</time>
      </trkpt>
      <trkpt lat="43.44543" lon="5.80682">
        <ele>564.43</ele>
        <time>2019-03-10T09:46:19Z</time>
      </trkpt>
      <trkpt lat="43.44543" lon="5.80674">
        <ele>564.43</ele>
        <time>2019-03-10T09:46:20Z</time>
      </trkpt>
      <trkpt lat="43.44543" lon="5.80668">
        <ele>564.43</ele>
        <time>2019-03-10T09:46:21Z</time>
      </trkpt>
      <trkpt lat="43.44544" lon="5.80663">
        <ele>564.43</ele>
        <time>2019-03-10T09:46:22Z</time>
      </trkpt>
      <trkpt lat="43.44544" lon="5.80658">
        <ele>564.43</ele>
        <time>2019-03-10T09:46:23Z</time>
      </trkpt>
      <trkpt lat="43.44544" lon="5.80654">
        <ele>564.43</ele>
        <time>2019-03-10T09:46:24Z</time>
      </trkpt>
      <trkpt lat="43.44544" lon="5.80642">
        <ele>565.39</ele>
        <time>2019-03-10T09:46:28Z</time>
      </trkpt>
      <trkpt lat="43.44547" lon="5.80615">
        <ele>568.76</ele>
        <time>2019-03-10T09:46:38Z</time>
      </trkpt>
      <trkpt lat="43.44549" lon="5.80591">
        <ele>570.2</ele>
        <time>2019-03-10T09:46:51Z</time>
      </trkpt>
      <trkpt lat="43.44547" lon="5.80572">
        <ele>571.16</ele>
        <time>2019-03-10T09:47:04Z</time>
      </trkpt>
      <trkpt lat="43.44551" lon="5.8055">
        <ele>572.6</ele>
        <time>2019-03-10T09:47:21Z</time>
      </trkpt>
      <trkpt lat="43.44555" lon="5.80542">
        <ele>573.08</ele>
        <time>2019-03-10T09:47:26Z</time>
      </trkpt>
      <trkpt lat="43.44556" lon="5.80541">
        <ele>573.08</ele>
        <time>2019-03-10T09:47:27Z</time>
      </trkpt>
      <trkpt lat="43.44566" lon="5.80527">
        <ele>575.49</ele>
        <time>2019-03-10T09:47:43Z</time>
      </trkpt>
      <trkpt lat="43.44568" lon="5.80523">
        <ele>575.49</ele>
        <time>2019-03-10T09:47:47Z</time>
      </trkpt>
      <trkpt lat="43.4457" lon="5.80511">
        <ele>576.45</ele>
        <time>2019-03-10T09:47:59Z</time>
      </trkpt>
      <trkpt lat="43.44573" lon="5.80496">
        <ele>576.93</ele>
        <time>2019-03-10T09:48:12Z</time>
      </trkpt>
      <trkpt lat="43.44574" lon="5.8048">
        <ele>578.37</ele>
        <time>2019-03-10T09:48:27Z</time>
      </trkpt>
      <trkpt lat="43.44583" lon="5.80462">
        <ele>579.81</ele>
        <time>2019-03-10T09:48:41Z</time>
      </trkpt>
      <trkpt lat="43.44597" lon="5.80447">
        <ele>580.77</ele>
        <time>2019-03-10T09:48:55Z</time>
      </trkpt>
      <trkpt lat="43.44609" lon="5.80434">
        <ele>582.22</ele>
        <time>2019-03-10T09:49:10Z</time>
      </trkpt>
      <trkpt lat="43.44616" lon="5.80415">
        <ele>582.7</ele>
        <time>2019-03-10T09:49:25Z</time>
      </trkpt>
      <trkpt lat="43.44617" lon="5.80393">
        <ele>583.66</ele>
        <time>2019-03-10T09:49:41Z</time>
      </trkpt>
      <trkpt lat="43.4462" lon="5.80373">
        <ele>584.62</ele>
        <time>2019-03-10T09:49:52Z</time>
      </trkpt>
      <trkpt lat="43.44621" lon="5.80352">
        <ele>586.06</ele>
        <time>2019-03-10T09:50:07Z</time>
      </trkpt>
      <trkpt lat="43.44631" lon="5.80333">
        <ele>586.54</ele>
        <time>2019-03-10T09:50:22Z</time>
      </trkpt>
      <trkpt lat="43.44634" lon="5.80331">
        <ele>587.5</ele>
        <time>2019-03-10T09:50:25Z</time>
      </trkpt>
      <trkpt lat="43.44651" lon="5.80316">
        <ele>589.43</ele>
        <time>2019-03-10T09:50:41Z</time>
      </trkpt>
      <trkpt lat="43.44661" lon="5.8031">
        <ele>590.39</ele>
        <time>2019-03-10T09:50:57Z</time>
      </trkpt>
      <trkpt lat="43.44666" lon="5.80297">
        <ele>590.87</ele>
        <time>2019-03-10T09:51:11Z</time>
      </trkpt>
      <trkpt lat="43.44668" lon="5.8029">
        <ele>591.35</ele>
        <time>2019-03-10T09:51:16Z</time>
      </trkpt>
      <trkpt lat="43.44671" lon="5.80272">
        <ele>594.23</ele>
        <time>2019-03-10T09:51:31Z</time>
      </trkpt>
      <trkpt lat="43.44672" lon="5.80268">
        <ele>594.23</ele>
        <time>2019-03-10T09:51:34Z</time>
      </trkpt>
      <trkpt lat="43.44678" lon="5.80251">
        <ele>595.19</ele>
        <time>2019-03-10T09:51:47Z</time>
      </trkpt>
      <trkpt lat="43.44684" lon="5.80238">
        <ele>596.15</ele>
        <time>2019-03-10T09:51:58Z</time>
      </trkpt>
      <trkpt lat="43.44692" lon="5.80219">
        <ele>599.04</ele>
        <time>2019-03-10T09:52:14Z</time>
      </trkpt>
      <trkpt lat="43.44704" lon="5.80198">
        <ele>601.44</ele>
        <time>2019-03-10T09:52:32Z</time>
      </trkpt>
      <trkpt lat="43.44713" lon="5.80182">
        <ele>603.36</ele>
        <time>2019-03-10T09:52:47Z</time>
      </trkpt>
      <trkpt lat="43.44714" lon="5.80178">
        <ele>605.29</ele>
        <time>2019-03-10T09:52:50Z</time>
      </trkpt>
      <trkpt lat="43.44722" lon="5.80169">
        <ele>605.77</ele>
        <time>2019-03-10T09:53:04Z</time>
      </trkpt>
      <trkpt lat="43.44736" lon="5.80165">
        <ele>605.77</ele>
        <time>2019-03-10T09:53:15Z</time>
      </trkpt>
      <trkpt lat="43.44739" lon="5.80166">
        <ele>606.25</ele>
        <time>2019-03-10T09:53:18Z</time>
      </trkpt>
      <trkpt lat="43.44755" lon="5.80184">
        <ele>609.61</ele>
        <time>2019-03-10T09:53:33Z</time>
      </trkpt>
      <trkpt lat="43.44766" lon="5.80199">
        <ele>612.5</ele>
        <time>2019-03-10T09:53:42Z</time>
      </trkpt>
      <trkpt lat="43.44768" lon="5.80199">
        <ele>612.98</ele>
        <time>2019-03-10T09:53:43Z</time>
      </trkpt>
      <trkpt lat="43.44769" lon="5.80198">
        <ele>612.98</ele>
        <time>2019-03-10T09:53:44Z</time>
      </trkpt>
      <trkpt lat="43.44771" lon="5.80198">
        <ele>613.46</ele>
        <time>2019-03-10T09:53:45Z</time>
      </trkpt>
      <trkpt lat="43.44773" lon="5.80197">
        <ele>613.46</ele>
        <time>2019-03-10T09:53:46Z</time>
      </trkpt>
      <trkpt lat="43.44774" lon="5.80196">
        <ele>613.94</ele>
        <time>2019-03-10T09:53:47Z</time>
      </trkpt>
      <trkpt lat="43.44775" lon="5.80196">
        <ele>614.42</ele>
        <time>2019-03-10T09:53:48Z</time>
      </trkpt>
      <trkpt lat="43.4478" lon="5.80194">
        <ele>613.94</ele>
        <time>2019-03-10T09:53:52Z</time>
      </trkpt>
      <trkpt lat="43.44782" lon="5.80192">
        <ele>613.94</ele>
        <time>2019-03-10T09:53:53Z</time>
      </trkpt>
      <trkpt lat="43.44795" lon="5.80169">
        <ele>616.82</ele>
        <time>2019-03-10T09:54:09Z</time>
      </trkpt>
      <trkpt lat="43.44801" lon="5.80152">
        <ele>618.26</ele>
        <time>2019-03-10T09:54:22Z</time>
      </trkpt>
      <trkpt lat="43.44809" lon="5.80125">
        <ele>620.19</ele>
        <time>2019-03-10T09:54:37Z</time>
      </trkpt>
      <trkpt lat="43.44812" lon="5.80111">
        <ele>621.15</ele>
        <time>2019-03-10T09:54:51Z</time>
      </trkpt>
      <trkpt lat="43.44813" lon="5.80105">
        <ele>622.11</ele>
        <time>2019-03-10T09:55:03Z</time>
      </trkpt>
      <trkpt lat="43.44813" lon="5.80102">
        <ele>621.15</ele>
        <time>2019-03-10T09:55:09Z</time>
      </trkpt>
      <trkpt lat="43.44813" lon="5.80106">
        <ele>621.15</ele>
        <time>2019-03-10T09:55:23Z</time>
      </trkpt>
      <trkpt lat="43.44814" lon="5.80102">
        <ele>620.19</ele>
        <time>2019-03-10T09:56:01Z</time>
      </trkpt>
      <trkpt lat="43.44812" lon="5.80103">
        <ele>619.71</ele>
        <time>2019-03-10T09:56:45Z</time>
      </trkpt>
      <trkpt lat="43.44812" lon="5.80105">
        <ele>621.15</ele>
        <time>2019-03-10T09:57:17Z</time>
      </trkpt>
      <trkpt lat="43.44814" lon="5.80105">
        <ele>619.71</ele>
        <time>2019-03-10T09:57:51Z</time>
      </trkpt>
      <trkpt lat="43.44812" lon="5.80105">
        <ele>620.67</ele>
        <time>2019-03-10T09:58:25Z</time>
      </trkpt>
      <trkpt lat="43.44812" lon="5.80107">
        <ele>619.71</ele>
        <time>2019-03-10T09:58:52Z</time>
      </trkpt>
      <trkpt lat="43.44811" lon="5.80108">
        <ele>619.71</ele>
        <time>2019-03-10T09:59:01Z</time>
      </trkpt>
      <trkpt lat="43.44811" lon="5.80104">
        <ele>619.23</ele>
        <time>2019-03-10T09:59:40Z</time>
      </trkpt>
      <trkpt lat="43.44812" lon="5.80106">
        <ele>619.23</ele>
        <time>2019-03-10T10:00:12Z</time>
      </trkpt>
      <trkpt lat="43.44812" lon="5.80107">
        <ele>620.19</ele>
        <time>2019-03-10T10:00:41Z</time>
      </trkpt>
      <trkpt lat="43.44815" lon="5.80108">
        <ele>619.23</ele>
        <time>2019-03-10T10:00:51Z</time>
      </trkpt>
      <trkpt lat="43.44817" lon="5.80106">
        <ele>619.23</ele>
        <time>2019-03-10T10:01:02Z</time>
      </trkpt>
      <trkpt lat="43.44814" lon="5.80105">
        <ele>619.23</ele>
        <time>2019-03-10T10:01:17Z</time>
      </trkpt>
      <trkpt lat="43.44819" lon="5.80109">
        <ele>618.75</ele>
        <time>2019-03-10T10:01:29Z</time>
      </trkpt>
      <trkpt lat="43.4482" lon="5.8011">
        <ele>618.75</ele>
        <time>2019-03-10T10:01:31Z</time>
      </trkpt>
      <trkpt lat="43.44821" lon="5.80111">
        <ele>618.75</ele>
        <time>2019-03-10T10:01:32Z</time>
      </trkpt>
      <trkpt lat="43.44823" lon="5.80112">
        <ele>620.19</ele>
        <time>2019-03-10T10:01:33Z</time>
      </trkpt>
      <trkpt lat="43.44824" lon="5.80114">
        <ele>621.15</ele>
        <time>2019-03-10T10:01:34Z</time>
      </trkpt>
      <trkpt lat="43.44826" lon="5.80116">
        <ele>621.15</ele>
        <time>2019-03-10T10:01:35Z</time>
      </trkpt>
      <trkpt lat="43.44827" lon="5.80117">
        <ele>620.19</ele>
        <time>2019-03-10T10:01:36Z</time>
      </trkpt>
      <trkpt lat="43.44834" lon="5.80126">
        <ele>617.78</ele>
        <time>2019-03-10T10:01:40Z</time>
      </trkpt>
      <trkpt lat="43.44834" lon="5.80159">
        <ele>617.78</ele>
        <time>2019-03-10T10:01:53Z</time>
      </trkpt>
      <trkpt lat="43.44833" lon="5.80173">
        <ele>620.19</ele>
        <time>2019-03-10T10:01:59Z</time>
      </trkpt>
      <trkpt lat="43.44829" lon="5.80221">
        <ele>620.67</ele>
        <time>2019-03-10T10:02:16Z</time>
      </trkpt>
      <trkpt lat="43.44836" lon="5.80268">
        <ele>623.07</ele>
        <time>2019-03-10T10:02:30Z</time>
      </trkpt>
      <trkpt lat="43.44838" lon="5.80296">
        <ele>621.63</ele>
        <time>2019-03-10T10:02:37Z</time>
      </trkpt>
      <trkpt lat="43.44832" lon="5.80347">
        <ele>617.3</ele>
        <time>2019-03-10T10:02:48Z</time>
      </trkpt>
      <trkpt lat="43.44833" lon="5.80358">
        <ele>616.82</ele>
        <time>2019-03-10T10:02:50Z</time>
      </trkpt>
      <trkpt lat="43.44832" lon="5.80363">
        <ele>616.82</ele>
        <time>2019-03-10T10:02:51Z</time>
      </trkpt>
      <trkpt lat="43.44832" lon="5.80369">
        <ele>616.82</ele>
        <time>2019-03-10T10:02:52Z</time>
      </trkpt>
      <trkpt lat="43.44831" lon="5.80375">
        <ele>616.34</ele>
        <time>2019-03-10T10:02:53Z</time>
      </trkpt>
      <trkpt lat="43.4483" lon="5.80381">
        <ele>615.86</ele>
        <time>2019-03-10T10:02:54Z</time>
      </trkpt>
      <trkpt lat="43.4483" lon="5.80386">
        <ele>615.38</ele>
        <time>2019-03-10T10:02:55Z</time>
      </trkpt>
      <trkpt lat="43.44829" lon="5.80392">
        <ele>615.38</ele>
        <time>2019-03-10T10:02:56Z</time>
      </trkpt>
      <trkpt lat="43.44828" lon="5.80398">
        <ele>614.9</ele>
        <time>2019-03-10T10:02:57Z</time>
      </trkpt>
      <trkpt lat="43.44821" lon="5.8043">
        <ele>612.5</ele>
        <time>2019-03-10T10:03:03Z</time>
      </trkpt>
      <trkpt lat="43.4482" lon="5.80437">
        <ele>612.5</ele>
        <time>2019-03-10T10:03:04Z</time>
      </trkpt>
      <trkpt lat="43.4482" lon="5.80443">
        <ele>612.02</ele>
        <time>2019-03-10T10:03:05Z</time>
      </trkpt>
      <trkpt lat="43.4482" lon="5.80449">
        <ele>612.02</ele>
        <time>2019-03-10T10:03:06Z</time>
      </trkpt>
      <trkpt lat="43.4482" lon="5.80456">
        <ele>611.06</ele>
        <time>2019-03-10T10:03:07Z</time>
      </trkpt>
      <trkpt lat="43.44821" lon="5.8048">
        <ele>610.09</ele>
        <time>2019-03-10T10:03:10Z</time>
      </trkpt>
      <trkpt lat="43.44823" lon="5.80488">
        <ele>610.09</ele>
        <time>2019-03-10T10:03:11Z</time>
      </trkpt>
      <trkpt lat="43.44824" lon="5.80496">
        <ele>610.09</ele>
        <time>2019-03-10T10:03:12Z</time>
      </trkpt>
      <trkpt lat="43.44826" lon="5.80503">
        <ele>609.61</ele>
        <time>2019-03-10T10:03:13Z</time>
      </trkpt>
      <trkpt lat="43.44828" lon="5.8051">
        <ele>609.61</ele>
        <time>2019-03-10T10:03:14Z</time>
      </trkpt>
      <trkpt lat="43.44831" lon="5.80516">
        <ele>609.61</ele>
        <time>2019-03-10T10:03:15Z</time>
      </trkpt>
      <trkpt lat="43.44841" lon="5.80565">
        <ele>609.61</ele>
        <time>2019-03-10T10:03:24Z</time>
      </trkpt>
      <trkpt lat="43.44848" lon="5.80615">
        <ele>610.57</ele>
        <time>2019-03-10T10:03:32Z</time>
      </trkpt>
      <trkpt lat="43.44854" lon="5.80689">
        <ele>611.54</ele>
        <time>2019-03-10T10:03:44Z</time>
      </trkpt>
      <trkpt lat="43.44855" lon="5.80725">
        <ele>611.54</ele>
        <time>2019-03-10T10:03:50Z</time>
      </trkpt>
      <trkpt lat="43.44854" lon="5.80769">
        <ele>609.61</ele>
        <time>2019-03-10T10:04:00Z</time>
      </trkpt>
      <trkpt lat="43.44848" lon="5.80817">
        <ele>608.17</ele>
        <time>2019-03-10T10:04:12Z</time>
      </trkpt>
      <trkpt lat="43.44847" lon="5.80831">
        <ele>606.73</ele>
        <time>2019-03-10T10:04:23Z</time>
      </trkpt>
      <trkpt lat="43.44848" lon="5.8083">
        <ele>607.69</ele>
        <time>2019-03-10T10:04:31Z</time>
      </trkpt>
      <trkpt lat="43.44851" lon="5.8083">
        <ele>607.21</ele>
        <time>2019-03-10T10:04:45Z</time>
      </trkpt>
      <trkpt lat="43.44851" lon="5.80829">
        <ele>607.21</ele>
        <time>2019-03-10T10:04:46Z</time>
      </trkpt>
      <trkpt lat="43.44852" lon="5.80828">
        <ele>607.21</ele>
        <time>2019-03-10T10:04:47Z</time>
      </trkpt>
      <trkpt lat="43.44857" lon="5.80825">
        <ele>607.21</ele>
        <time>2019-03-10T10:04:51Z</time>
      </trkpt>
      <trkpt lat="43.44858" lon="5.80825">
        <ele>607.21</ele>
        <time>2019-03-10T10:04:52Z</time>
      </trkpt>
      <trkpt lat="43.44859" lon="5.80826">
        <ele>607.21</ele>
        <time>2019-03-10T10:04:53Z</time>
      </trkpt>
      <trkpt lat="43.4486" lon="5.80827">
        <ele>607.21</ele>
        <time>2019-03-10T10:04:54Z</time>
      </trkpt>
      <trkpt lat="43.44861" lon="5.80829">
        <ele>607.21</ele>
        <time>2019-03-10T10:04:55Z</time>
      </trkpt>
      <trkpt lat="43.44861" lon="5.80835">
        <ele>607.21</ele>
        <time>2019-03-10T10:05:06Z</time>
      </trkpt>
      <trkpt lat="43.44863" lon="5.80833">
        <ele>607.21</ele>
        <time>2019-03-10T10:05:20Z</time>
      </trkpt>
      <trkpt lat="43.4486" lon="5.80829">
        <ele>607.21</ele>
        <time>2019-03-10T10:05:26Z</time>
      </trkpt>
      <trkpt lat="43.44858" lon="5.80828">
        <ele>606.25</ele>
        <time>2019-03-10T10:05:28Z</time>
      </trkpt>
      <trkpt lat="43.44857" lon="5.80828">
        <ele>605.29</ele>
        <time>2019-03-10T10:05:29Z</time>
      </trkpt>
      <trkpt lat="43.44854" lon="5.80828">
        <ele>606.73</ele>
        <time>2019-03-10T10:05:32Z</time>
      </trkpt>
      <trkpt lat="43.44853" lon="5.80828">
        <ele>606.73</ele>
        <time>2019-03-10T10:05:33Z</time>
      </trkpt>
      <trkpt lat="43.44852" lon="5.80829">
        <ele>606.73</ele>
        <time>2019-03-10T10:05:34Z</time>
      </trkpt>
      <trkpt lat="43.44851" lon="5.8083">
        <ele>606.73</ele>
        <time>2019-03-10T10:05:35Z</time>
      </trkpt>
      <trkpt lat="43.4485" lon="5.80831">
        <ele>606.73</ele>
        <time>2019-03-10T10:05:36Z</time>
      </trkpt>
      <trkpt lat="43.44849" lon="5.80831">
        <ele>607.69</ele>
        <time>2019-03-10T10:05:51Z</time>
      </trkpt>
      <trkpt lat="43.4485" lon="5.80833">
        <ele>606.25</ele>
        <time>2019-03-10T10:06:02Z</time>
      </trkpt>
      <trkpt lat="43.4485" lon="5.80831">
        <ele>605.77</ele>
        <time>2019-03-10T10:06:28Z</time>
      </trkpt>
      <trkpt lat="43.4485" lon="5.80832">
        <ele>607.21</ele>
        <time>2019-03-10T10:06:49Z</time>
      </trkpt>
      <trkpt lat="43.44851" lon="5.80833">
        <ele>608.17</ele>
        <time>2019-03-10T10:07:15Z</time>
      </trkpt>
      <trkpt lat="43.44851" lon="5.80833">
        <ele>606.73</ele>
        <time>2019-03-10T10:07:20Z</time>
      </trkpt>
      <trkpt lat="43.44849" lon="5.80833">
        <ele>606.25</ele>
        <time>2019-03-10T10:07:47Z</time>
      </trkpt>
      <trkpt lat="43.44849" lon="5.80832">
        <ele>606.25</ele>
        <time>2019-03-10T10:07:48Z</time>
      </trkpt>
      <trkpt lat="43.4485" lon="5.80833">
        <ele>606.73</ele>
        <time>2019-03-10T10:08:23Z</time>
      </trkpt>
      <trkpt lat="43.4485" lon="5.80833">
        <ele>605.29</ele>
        <time>2019-03-10T10:08:25Z</time>
      </trkpt>
      <trkpt lat="43.4485" lon="5.80833">
        <ele>606.73</ele>
        <time>2019-03-10T10:08:31Z</time>
      </trkpt>
      <trkpt lat="43.4485" lon="5.80832">
        <ele>605.29</ele>
        <time>2019-03-10T10:08:36Z</time>
      </trkpt>
      <trkpt lat="43.4485" lon="5.8083">
        <ele>606.73</ele>
        <time>2019-03-10T10:08:59Z</time>
      </trkpt>
      <trkpt lat="43.44849" lon="5.80832">
        <ele>606.25</ele>
        <time>2019-03-10T10:09:13Z</time>
      </trkpt>
      <trkpt lat="43.44849" lon="5.80832">
        <ele>604.81</ele>
        <time>2019-03-10T10:09:15Z</time>
      </trkpt>
      <trkpt lat="43.44848" lon="5.80833">
        <ele>603.36</ele>
        <time>2019-03-10T10:09:46Z</time>
      </trkpt>
      <trkpt lat="43.44848" lon="5.80835">
        <ele>603.36</ele>
        <time>2019-03-10T10:10:05Z</time>
      </trkpt>
      <trkpt lat="43.4485" lon="5.80832">
        <ele>604.33</ele>
        <time>2019-03-10T10:10:30Z</time>
      </trkpt>
      <trkpt lat="43.44851" lon="5.80834">
        <ele>604.33</ele>
        <time>2019-03-10T10:10:36Z</time>
      </trkpt>
      <trkpt lat="43.44851" lon="5.80836">
        <ele>604.33</ele>
        <time>2019-03-10T10:10:38Z</time>
      </trkpt>
      <trkpt lat="43.44851" lon="5.80838">
        <ele>604.33</ele>
        <time>2019-03-10T10:10:39Z</time>
      </trkpt>
      <trkpt lat="43.44851" lon="5.8084">
        <ele>604.33</ele>
        <time>2019-03-10T10:10:40Z</time>
      </trkpt>
      <trkpt lat="43.44851" lon="5.80842">
        <ele>603.36</ele>
        <time>2019-03-10T10:10:41Z</time>
      </trkpt>
      <trkpt lat="43.44852" lon="5.80844">
        <ele>603.36</ele>
        <time>2019-03-10T10:10:42Z</time>
      </trkpt>
      <trkpt lat="43.44853" lon="5.80846">
        <ele>602.4</ele>
        <time>2019-03-10T10:10:44Z</time>
      </trkpt>
      <trkpt lat="43.44857" lon="5.80845">
        <ele>601.92</ele>
        <time>2019-03-10T10:10:50Z</time>
      </trkpt>
      <trkpt lat="43.44875" lon="5.80819">
        <ele>599.52</ele>
        <time>2019-03-10T10:11:00Z</time>
      </trkpt>
      <trkpt lat="43.44881" lon="5.80816">
        <ele>598.56</ele>
        <time>2019-03-10T10:11:03Z</time>
      </trkpt>
      <trkpt lat="43.44882" lon="5.80817">
        <ele>598.56</ele>
        <time>2019-03-10T10:11:04Z</time>
      </trkpt>
      <trkpt lat="43.44883" lon="5.80818">
        <ele>598.08</ele>
        <time>2019-03-10T10:11:05Z</time>
      </trkpt>
      <trkpt lat="43.44884" lon="5.80819">
        <ele>597.6</ele>
        <time>2019-03-10T10:11:06Z</time>
      </trkpt>
      <trkpt lat="43.44884" lon="5.80821">
        <ele>597.6</ele>
        <time>2019-03-10T10:11:07Z</time>
      </trkpt>
      <trkpt lat="43.44883" lon="5.80823">
        <ele>597.12</ele>
        <time>2019-03-10T10:11:08Z</time>
      </trkpt>
      <trkpt lat="43.44882" lon="5.80825">
        <ele>597.12</ele>
        <time>2019-03-10T10:11:09Z</time>
      </trkpt>
      <trkpt lat="43.44876" lon="5.80849">
        <ele>594.71</ele>
        <time>2019-03-10T10:11:14Z</time>
      </trkpt>
      <trkpt lat="43.44872" lon="5.80864">
        <ele>593.27</ele>
        <time>2019-03-10T10:11:17Z</time>
      </trkpt>
      <trkpt lat="43.44866" lon="5.80897">
        <ele>590.39</ele>
        <time>2019-03-10T10:11:26Z</time>
      </trkpt>
      <trkpt lat="43.44863" lon="5.80926">
        <ele>587.02</ele>
        <time>2019-03-10T10:11:33Z</time>
      </trkpt>
      <trkpt lat="43.4486" lon="5.80959">
        <ele>583.66</ele>
        <time>2019-03-10T10:11:44Z</time>
      </trkpt>
      <trkpt lat="43.44854" lon="5.80994">
        <ele>580.77</ele>
        <time>2019-03-10T10:11:55Z</time>
      </trkpt>
      <trkpt lat="43.4485" lon="5.81026">
        <ele>577.41</ele>
        <time>2019-03-10T10:12:05Z</time>
      </trkpt>
      <trkpt lat="43.44849" lon="5.81028">
        <ele>577.41</ele>
        <time>2019-03-10T10:12:06Z</time>
      </trkpt>
      <trkpt lat="43.44835" lon="5.81062">
        <ele>575.49</ele>
        <time>2019-03-10T10:12:19Z</time>
      </trkpt>
      <trkpt lat="43.44829" lon="5.81069">
        <ele>575.01</ele>
        <time>2019-03-10T10:12:40Z</time>
      </trkpt>
      <trkpt lat="43.4483" lon="5.81068">
        <ele>574.53</ele>
        <time>2019-03-10T10:12:41Z</time>
      </trkpt>
      <trkpt lat="43.44831" lon="5.81068">
        <ele>574.53</ele>
        <time>2019-03-10T10:12:42Z</time>
      </trkpt>
      <trkpt lat="43.44836" lon="5.81064">
        <ele>572.6</ele>
        <time>2019-03-10T10:12:46Z</time>
      </trkpt>
      <trkpt lat="43.44837" lon="5.81063">
        <ele>573.08</ele>
        <time>2019-03-10T10:12:47Z</time>
      </trkpt>
      <trkpt lat="43.44838" lon="5.81062">
        <ele>573.08</ele>
        <time>2019-03-10T10:12:48Z</time>
      </trkpt>
      <trkpt lat="43.44839" lon="5.8106">
        <ele>572.6</ele>
        <time>2019-03-10T10:12:49Z</time>
      </trkpt>
      <trkpt lat="43.44841" lon="5.81057">
        <ele>572.12</ele>
        <time>2019-03-10T10:12:50Z</time>
      </trkpt>
      <trkpt lat="43.44842" lon="5.81054">
        <ele>572.12</ele>
        <time>2019-03-10T10:12:51Z</time>
      </trkpt>
      <trkpt lat="43.44844" lon="5.81051">
        <ele>571.16</ele>
        <time>2019-03-10T10:12:52Z</time>
      </trkpt>
      <trkpt lat="43.44865" lon="5.81022">
        <ele>567.8</ele>
        <time>2019-03-10T10:13:02Z</time>
      </trkpt>
      <trkpt lat="43.44884" lon="5.81003">
        <ele>564.43</ele>
        <time>2019-03-10T10:13:15Z</time>
      </trkpt>
      <trkpt lat="43.44903" lon="5.80982">
        <ele>561.07</ele>
        <time>2019-03-10T10:13:27Z</time>
      </trkpt>
      <trkpt lat="43.44907" lon="5.80978">
        <ele>560.11</ele>
        <time>2019-03-10T10:13:30Z</time>
      </trkpt>
      <trkpt lat="43.44909" lon="5.80976">
        <ele>560.11</ele>
        <time>2019-03-10T10:13:31Z</time>
      </trkpt>
      <trkpt lat="43.4491" lon="5.80974">
        <ele>560.11</ele>
        <time>2019-03-10T10:13:32Z</time>
      </trkpt>
      <trkpt lat="43.44913" lon="5.80971">
        <ele>559.62</ele>
        <time>2019-03-10T10:13:34Z</time>
      </trkpt>
      <trkpt lat="43.44917" lon="5.80967">
        <ele>559.14</ele>
        <time>2019-03-10T10:13:38Z</time>
      </trkpt>
      <trkpt lat="43.44934" lon="5.80946">
        <ele>555.3</ele>
        <time>2019-03-10T10:13:48Z</time>
      </trkpt>
      <trkpt lat="43.44942" lon="5.80932">
        <ele>553.86</ele>
        <time>2019-03-10T10:13:53Z</time>
      </trkpt>
      <trkpt lat="43.44948" lon="5.80923">
        <ele>552.41</ele>
        <time>2019-03-10T10:13:56Z</time>
      </trkpt>
      <trkpt lat="43.44962" lon="5.80904">
        <ele>549.05</ele>
        <time>2019-03-10T10:14:03Z</time>
      </trkpt>
      <trkpt lat="43.44977" lon="5.80879">
        <ele>545.69</ele>
        <time>2019-03-10T10:14:11Z</time>
      </trkpt>
      <trkpt lat="43.44989" lon="5.80856">
        <ele>542.32</ele>
        <time>2019-03-10T10:14:20Z</time>
      </trkpt>
      <trkpt lat="43.45002" lon="5.80824">
        <ele>539.92</ele>
        <time>2019-03-10T10:14:30Z</time>
      </trkpt>
      <trkpt lat="43.45004" lon="5.80822">
        <ele>538.96</ele>
        <time>2019-03-10T10:14:31Z</time>
      </trkpt>
      <trkpt lat="43.45007" lon="5.80822">
        <ele>538.48</ele>
        <time>2019-03-10T10:14:33Z</time>
      </trkpt>
      <trkpt lat="43.45012" lon="5.80818">
        <ele>537.51</ele>
        <time>2019-03-10T10:14:37Z</time>
      </trkpt>
      <trkpt lat="43.45014" lon="5.80823">
        <ele>536.07</ele>
        <time>2019-03-10T10:14:43Z</time>
      </trkpt>
      <trkpt lat="43.45017" lon="5.80829">
        <ele>535.59</ele>
        <time>2019-03-10T10:14:47Z</time>
      </trkpt>
      <trkpt lat="43.45025" lon="5.80842">
        <ele>531.27</ele>
        <time>2019-03-10T10:14:55Z</time>
      </trkpt>
      <trkpt lat="43.45026" lon="5.80843">
        <ele>530.79</ele>
        <time>2019-03-10T10:14:56Z</time>
      </trkpt>
      <trkpt lat="43.45026" lon="5.80845">
        <ele>530.79</ele>
        <time>2019-03-10T10:15:13Z</time>
      </trkpt>
      <trkpt lat="43.45028" lon="5.80845">
        <ele>529.82</ele>
        <time>2019-03-10T10:15:14Z</time>
      </trkpt>
      <trkpt lat="43.45043" lon="5.80849">
        <ele>526.46</ele>
        <time>2019-03-10T10:15:22Z</time>
      </trkpt>
      <trkpt lat="43.45057" lon="5.80853">
        <ele>525.02</ele>
        <time>2019-03-10T10:15:32Z</time>
      </trkpt>
      <trkpt lat="43.45068" lon="5.80849">
        <ele>523.09</ele>
        <time>2019-03-10T10:15:36Z</time>
      </trkpt>
      <trkpt lat="43.4507" lon="5.80848">
        <ele>523.09</ele>
        <time>2019-03-10T10:15:37Z</time>
      </trkpt>
      <trkpt lat="43.45071" lon="5.80847">
        <ele>522.61</ele>
        <time>2019-03-10T10:15:38Z</time>
      </trkpt>
      <trkpt lat="43.45071" lon="5.80845">
        <ele>522.13</ele>
        <time>2019-03-10T10:15:39Z</time>
      </trkpt>
      <trkpt lat="43.45072" lon="5.80844">
        <ele>522.13</ele>
        <time>2019-03-10T10:15:40Z</time>
      </trkpt>
      <trkpt lat="43.45073" lon="5.80843">
        <ele>522.13</ele>
        <time>2019-03-10T10:15:41Z</time>
      </trkpt>
      <trkpt lat="43.45074" lon="5.80842">
        <ele>521.65</ele>
        <time>2019-03-10T10:15:42Z</time>
      </trkpt>
      <trkpt lat="43.45076" lon="5.8084">
        <ele>521.65</ele>
        <time>2019-03-10T10:15:43Z</time>
      </trkpt>
      <trkpt lat="43.45078" lon="5.80838">
        <ele>520.69</ele>
        <time>2019-03-10T10:15:44Z</time>
      </trkpt>
      <trkpt lat="43.45079" lon="5.80835">
        <ele>520.69</ele>
        <time>2019-03-10T10:15:45Z</time>
      </trkpt>
      <trkpt lat="43.45085" lon="5.80833">
        <ele>520.21</ele>
        <time>2019-03-10T10:15:47Z</time>
      </trkpt>
      <trkpt lat="43.45088" lon="5.80832">
        <ele>519.25</ele>
        <time>2019-03-10T10:15:48Z</time>
      </trkpt>
      <trkpt lat="43.4509" lon="5.80832">
        <ele>518.77</ele>
        <time>2019-03-10T10:15:49Z</time>
      </trkpt>
      <trkpt lat="43.45093" lon="5.80832">
        <ele>518.29</ele>
        <time>2019-03-10T10:15:50Z</time>
      </trkpt>
      <trkpt lat="43.45107" lon="5.80832">
        <ele>517.81</ele>
        <time>2019-03-10T10:15:58Z</time>
      </trkpt>
      <trkpt lat="43.45109" lon="5.80832">
        <ele>517.81</ele>
        <time>2019-03-10T10:15:59Z</time>
      </trkpt>
      <trkpt lat="43.45111" lon="5.80833">
        <ele>517.81</ele>
        <time>2019-03-10T10:16:00Z</time>
      </trkpt>
      <trkpt lat="43.45122" lon="5.8084">
        <ele>514.92</ele>
        <time>2019-03-10T10:16:06Z</time>
      </trkpt>
      <trkpt lat="43.45123" lon="5.80841">
        <ele>513.96</ele>
        <time>2019-03-10T10:16:07Z</time>
      </trkpt>
      <trkpt lat="43.45126" lon="5.80859">
        <ele>510.6</ele>
        <time>2019-03-10T10:16:16Z</time>
      </trkpt>
      <trkpt lat="43.45126" lon="5.80885">
        <ele>507.23</ele>
        <time>2019-03-10T10:16:26Z</time>
      </trkpt>
      <trkpt lat="43.45125" lon="5.80892">
        <ele>505.79</ele>
        <time>2019-03-10T10:16:29Z</time>
      </trkpt>
      <trkpt lat="43.45125" lon="5.80914">
        <ele>503.39</ele>
        <time>2019-03-10T10:16:38Z</time>
      </trkpt>
      <trkpt lat="43.45124" lon="5.80916">
        <ele>503.39</ele>
        <time>2019-03-10T10:16:39Z</time>
      </trkpt>
      <trkpt lat="43.45124" lon="5.80919">
        <ele>503.39</ele>
        <time>2019-03-10T10:16:40Z</time>
      </trkpt>
      <trkpt lat="43.45125" lon="5.80922">
        <ele>503.39</ele>
        <time>2019-03-10T10:16:41Z</time>
      </trkpt>
      <trkpt lat="43.45126" lon="5.80926">
        <ele>502.91</ele>
        <time>2019-03-10T10:16:42Z</time>
      </trkpt>
      <trkpt lat="43.45127" lon="5.80929">
        <ele>502.43</ele>
        <time>2019-03-10T10:16:43Z</time>
      </trkpt>
      <trkpt lat="43.45131" lon="5.8095">
        <ele>501.46</ele>
        <time>2019-03-10T10:16:54Z</time>
      </trkpt>
      <trkpt lat="43.45131" lon="5.80952">
        <ele>501.46</ele>
        <time>2019-03-10T10:17:06Z</time>
      </trkpt>
      <trkpt lat="43.45131" lon="5.80954">
        <ele>501.46</ele>
        <time>2019-03-10T10:17:07Z</time>
      </trkpt>
      <trkpt lat="43.45122" lon="5.80983">
        <ele>501.46</ele>
        <time>2019-03-10T10:17:19Z</time>
      </trkpt>
      <trkpt lat="43.45118" lon="5.81022">
        <ele>503.87</ele>
        <time>2019-03-10T10:17:33Z</time>
      </trkpt>
      <trkpt lat="43.45105" lon="5.81073">
        <ele>505.31</ele>
        <time>2019-03-10T10:17:49Z</time>
      </trkpt>
      <trkpt lat="43.45098" lon="5.81121">
        <ele>505.79</ele>
        <time>2019-03-10T10:18:03Z</time>
      </trkpt>
      <trkpt lat="43.4507" lon="5.81151">
        <ele>506.75</ele>
        <time>2019-03-10T10:18:14Z</time>
      </trkpt>
      <trkpt lat="43.45032" lon="5.81163">
        <ele>507.71</ele>
        <time>2019-03-10T10:18:27Z</time>
      </trkpt>
      <trkpt lat="43.45007" lon="5.8117">
        <ele>509.16</ele>
        <time>2019-03-10T10:18:37Z</time>
      </trkpt>
      <trkpt lat="43.45" lon="5.81183">
        <ele>507.23</ele>
        <time>2019-03-10T10:18:40Z</time>
      </trkpt>
      <trkpt lat="43.44989" lon="5.81212">
        <ele>503.87</ele>
        <time>2019-03-10T10:18:44Z</time>
      </trkpt>
      <trkpt lat="43.44986" lon="5.8122">
        <ele>503.87</ele>
        <time>2019-03-10T10:18:45Z</time>
      </trkpt>
      <trkpt lat="43.44973" lon="5.8126">
        <ele>500.98</ele>
        <time>2019-03-10T10:18:52Z</time>
      </trkpt>
      <trkpt lat="43.44961" lon="5.81294">
        <ele>498.1</ele>
        <time>2019-03-10T10:18:59Z</time>
      </trkpt>
      <trkpt lat="43.44924" lon="5.81355">
        <ele>497.62</ele>
        <time>2019-03-10T10:19:10Z</time>
      </trkpt>
      <trkpt lat="43.44893" lon="5.81416">
        <ele>496.18</ele>
        <time>2019-03-10T10:19:22Z</time>
      </trkpt>
      <trkpt lat="43.44874" lon="5.81456">
        <ele>493.77</ele>
        <time>2019-03-10T10:19:33Z</time>
      </trkpt>
      <trkpt lat="43.44871" lon="5.81465">
        <ele>491.85</ele>
        <time>2019-03-10T10:19:36Z</time>
      </trkpt>
      <trkpt lat="43.44847" lon="5.81494">
        <ele>493.29</ele>
        <time>2019-03-10T10:19:46Z</time>
      </trkpt>
      <trkpt lat="43.44827" lon="5.81526">
        <ele>495.7</ele>
        <time>2019-03-10T10:19:58Z</time>
      </trkpt>
      <trkpt lat="43.44815" lon="5.81567">
        <ele>496.66</ele>
        <time>2019-03-10T10:20:10Z</time>
      </trkpt>
      <trkpt lat="43.44786" lon="5.8162">
        <ele>498.58</ele>
        <time>2019-03-10T10:20:26Z</time>
      </trkpt>
      <trkpt lat="43.44765" lon="5.81663">
        <ele>497.14</ele>
        <time>2019-03-10T10:20:37Z</time>
      </trkpt>
      <trkpt lat="43.44734" lon="5.81706">
        <ele>497.14</ele>
        <time>2019-03-10T10:20:48Z</time>
      </trkpt>
      <trkpt lat="43.44716" lon="5.81719">
        <ele>500.02</ele>
        <time>2019-03-10T10:20:55Z</time>
      </trkpt>
      <trkpt lat="43.44693" lon="5.81746">
        <ele>502.43</ele>
        <time>2019-03-10T10:21:07Z</time>
      </trkpt>
      <trkpt lat="43.44677" lon="5.8176">
        <ele>504.35</ele>
        <time>2019-03-10T10:21:16Z</time>
      </trkpt>
      <trkpt lat="43.44656" lon="5.81788">
        <ele>504.83</ele>
        <time>2019-03-10T10:21:27Z</time>
      </trkpt>
      <trkpt lat="43.44634" lon="5.81816">
        <ele>505.79</ele>
        <time>2019-03-10T10:21:40Z</time>
      </trkpt>
      <trkpt lat="43.44622" lon="5.81834">
        <ele>506.75</ele>
        <time>2019-03-10T10:21:53Z</time>
      </trkpt>
      <trkpt lat="43.44621" lon="5.81841">
        <ele>506.75</ele>
        <time>2019-03-10T10:22:20Z</time>
      </trkpt>
      <trkpt lat="43.44611" lon="5.81848">
        <ele>506.75</ele>
        <time>2019-03-10T10:22:33Z</time>
      </trkpt>
      <trkpt lat="43.4461" lon="5.81849">
        <ele>506.75</ele>
        <time>2019-03-10T10:22:34Z</time>
      </trkpt>
      <trkpt lat="43.44609" lon="5.81851">
        <ele>506.75</ele>
        <time>2019-03-10T10:22:35Z</time>
      </trkpt>
      <trkpt lat="43.44608" lon="5.81853">
        <ele>506.75</ele>
        <time>2019-03-10T10:22:36Z</time>
      </trkpt>
      <trkpt lat="43.44606" lon="5.81855">
        <ele>507.23</ele>
        <time>2019-03-10T10:22:37Z</time>
      </trkpt>
      <trkpt lat="43.44605" lon="5.81857">
        <ele>507.23</ele>
        <time>2019-03-10T10:22:38Z</time>
      </trkpt>
      <trkpt lat="43.44603" lon="5.81861">
        <ele>507.23</ele>
        <time>2019-03-10T10:22:39Z</time>
      </trkpt>
      <trkpt lat="43.44602" lon="5.81866">
        <ele>505.79</ele>
        <time>2019-03-10T10:22:40Z</time>
      </trkpt>
      <trkpt lat="43.446" lon="5.81872">
        <ele>505.79</ele>
        <time>2019-03-10T10:22:41Z</time>
      </trkpt>
      <trkpt lat="43.44594" lon="5.81889">
        <ele>505.79</ele>
        <time>2019-03-10T10:22:44Z</time>
      </trkpt>
      <trkpt lat="43.44591" lon="5.81893">
        <ele>506.75</ele>
        <time>2019-03-10T10:22:45Z</time>
      </trkpt>
      <trkpt lat="43.44587" lon="5.81897">
        <ele>506.75</ele>
        <time>2019-03-10T10:22:46Z</time>
      </trkpt>
      <trkpt lat="43.44584" lon="5.81899">
        <ele>506.75</ele>
        <time>2019-03-10T10:22:47Z</time>
      </trkpt>
      <trkpt lat="43.4458" lon="5.81902">
        <ele>507.23</ele>
        <time>2019-03-10T10:22:48Z</time>
      </trkpt>
      <trkpt lat="43.44576" lon="5.81905">
        <ele>507.23</ele>
        <time>2019-03-10T10:22:49Z</time>
      </trkpt>
      <trkpt lat="43.44573" lon="5.81909">
        <ele>507.71</ele>
        <time>2019-03-10T10:22:50Z</time>
      </trkpt>
      <trkpt lat="43.4457" lon="5.81912">
        <ele>508.19</ele>
        <time>2019-03-10T10:22:51Z</time>
      </trkpt>
      <trkpt lat="43.44553" lon="5.81934">
        <ele>511.08</ele>
        <time>2019-03-10T10:22:59Z</time>
      </trkpt>
      <trkpt lat="43.44552" lon="5.81938">
        <ele>511.56</ele>
        <time>2019-03-10T10:23:00Z</time>
      </trkpt>
      <trkpt lat="43.4455" lon="5.8194">
        <ele>511.56</ele>
        <time>2019-03-10T10:23:01Z</time>
      </trkpt>
      <trkpt lat="43.44548" lon="5.81943">
        <ele>512.04</ele>
        <time>2019-03-10T10:23:02Z</time>
      </trkpt>
      <trkpt lat="43.44546" lon="5.81945">
        <ele>512.04</ele>
        <time>2019-03-10T10:23:03Z</time>
      </trkpt>
      <trkpt lat="43.44544" lon="5.81947">
        <ele>512.52</ele>
        <time>2019-03-10T10:23:04Z</time>
      </trkpt>
      <trkpt lat="43.44523" lon="5.81987">
        <ele>510.6</ele>
        <time>2019-03-10T10:23:17Z</time>
      </trkpt>
      <trkpt lat="43.4452" lon="5.82002">
        <ele>509.64</ele>
        <time>2019-03-10T10:23:19Z</time>
      </trkpt>
      <trkpt lat="43.44509" lon="5.8204">
        <ele>506.27</ele>
        <time>2019-03-10T10:23:24Z</time>
      </trkpt>
      <trkpt lat="43.44503" lon="5.82065">
        <ele>504.83</ele>
        <time>2019-03-10T10:23:27Z</time>
      </trkpt>
      <trkpt lat="43.44502" lon="5.82073">
        <ele>504.35</ele>
        <time>2019-03-10T10:23:28Z</time>
      </trkpt>
      <trkpt lat="43.44501" lon="5.82081">
        <ele>503.87</ele>
        <time>2019-03-10T10:23:29Z</time>
      </trkpt>
      <trkpt lat="43.44495" lon="5.82101">
        <ele>502.91</ele>
        <time>2019-03-10T10:23:34Z</time>
      </trkpt>
      <trkpt lat="43.44485" lon="5.82118">
        <ele>502.91</ele>
        <time>2019-03-10T10:23:38Z</time>
      </trkpt>
      <trkpt lat="43.44478" lon="5.8213">
        <ele>502.91</ele>
        <time>2019-03-10T10:23:40Z</time>
      </trkpt>
      <trkpt lat="43.44474" lon="5.82142">
        <ele>504.35</ele>
        <time>2019-03-10T10:23:42Z</time>
      </trkpt>
      <trkpt lat="43.44471" lon="5.82148">
        <ele>504.35</ele>
        <time>2019-03-10T10:23:43Z</time>
      </trkpt>
      <trkpt lat="43.44469" lon="5.82155">
        <ele>504.35</ele>
        <time>2019-03-10T10:23:44Z</time>
      </trkpt>
      <trkpt lat="43.44467" lon="5.82162">
        <ele>504.35</ele>
        <time>2019-03-10T10:23:45Z</time>
      </trkpt>
      <trkpt lat="43.44464" lon="5.82168">
        <ele>504.35</ele>
        <time>2019-03-10T10:23:46Z</time>
      </trkpt>
      <trkpt lat="43.44462" lon="5.82174">
        <ele>504.35</ele>
        <time>2019-03-10T10:23:47Z</time>
      </trkpt>
      <trkpt lat="43.44445" lon="5.82203">
        <ele>502.43</ele>
        <time>2019-03-10T10:23:52Z</time>
      </trkpt>
      <trkpt lat="43.44435" lon="5.82221">
        <ele>501.95</ele>
        <time>2019-03-10T10:23:55Z</time>
      </trkpt>
      <trkpt lat="43.44431" lon="5.82227">
        <ele>501.46</ele>
        <time>2019-03-10T10:23:56Z</time>
      </trkpt>
      <trkpt lat="43.44424" lon="5.82241">
        <ele>500.5</ele>
        <time>2019-03-10T10:23:58Z</time>
      </trkpt>
      <trkpt lat="43.44421" lon="5.8225">
        <ele>500.5</ele>
        <time>2019-03-10T10:23:59Z</time>
      </trkpt>
      <trkpt lat="43.44408" lon="5.82285">
        <ele>498.58</ele>
        <time>2019-03-10T10:24:03Z</time>
      </trkpt>
      <trkpt lat="43.44405" lon="5.82293">
        <ele>498.58</ele>
        <time>2019-03-10T10:24:04Z</time>
      </trkpt>
      <trkpt lat="43.44402" lon="5.823">
        <ele>498.58</ele>
        <time>2019-03-10T10:24:05Z</time>
      </trkpt>
      <trkpt lat="43.44399" lon="5.82308">
        <ele>498.58</ele>
        <time>2019-03-10T10:24:06Z</time>
      </trkpt>
      <trkpt lat="43.44396" lon="5.82316">
        <ele>498.1</ele>
        <time>2019-03-10T10:24:07Z</time>
      </trkpt>
      <trkpt lat="43.44392" lon="5.82325">
        <ele>498.1</ele>
        <time>2019-03-10T10:24:08Z</time>
      </trkpt>
      <trkpt lat="43.44389" lon="5.82332">
        <ele>498.1</ele>
        <time>2019-03-10T10:24:09Z</time>
      </trkpt>
      <trkpt lat="43.44382" lon="5.82345">
        <ele>496.66</ele>
        <time>2019-03-10T10:24:11Z</time>
      </trkpt>
      <trkpt lat="43.44376" lon="5.82358">
        <ele>495.7</ele>
        <time>2019-03-10T10:24:13Z</time>
      </trkpt>
      <trkpt lat="43.44374" lon="5.82365">
        <ele>495.22</ele>
        <time>2019-03-10T10:24:14Z</time>
      </trkpt>
      <trkpt lat="43.4437" lon="5.82371">
        <ele>494.26</ele>
        <time>2019-03-10T10:24:15Z</time>
      </trkpt>
      <trkpt lat="43.44367" lon="5.82378">
        <ele>494.26</ele>
        <time>2019-03-10T10:24:16Z</time>
      </trkpt>
      <trkpt lat="43.44358" lon="5.82401">
        <ele>494.26</ele>
        <time>2019-03-10T10:24:19Z</time>
      </trkpt>
      <trkpt lat="43.44354" lon="5.82408">
        <ele>493.29</ele>
        <time>2019-03-10T10:24:20Z</time>
      </trkpt>
      <trkpt lat="43.4434" lon="5.82437">
        <ele>492.81</ele>
        <time>2019-03-10T10:24:24Z</time>
      </trkpt>
      <trkpt lat="43.44337" lon="5.82445">
        <ele>493.29</ele>
        <time>2019-03-10T10:24:25Z</time>
      </trkpt>
      <trkpt lat="43.44335" lon="5.82454">
        <ele>492.33</ele>
        <time>2019-03-10T10:24:26Z</time>
      </trkpt>
      <trkpt lat="43.44334" lon="5.82461">
        <ele>492.33</ele>
        <time>2019-03-10T10:24:27Z</time>
      </trkpt>
      <trkpt lat="43.44335" lon="5.82467">
        <ele>491.85</ele>
        <time>2019-03-10T10:24:28Z</time>
      </trkpt>
      <trkpt lat="43.44338" lon="5.82472">
        <ele>491.37</ele>
        <time>2019-03-10T10:24:29Z</time>
      </trkpt>
      <trkpt lat="43.44339" lon="5.82475">
        <ele>491.37</ele>
        <time>2019-03-10T10:24:30Z</time>
      </trkpt>
      <trkpt lat="43.4434" lon="5.8248">
        <ele>491.37</ele>
        <time>2019-03-10T10:24:31Z</time>
      </trkpt>
      <trkpt lat="43.4434" lon="5.82483">
        <ele>491.37</ele>
        <time>2019-03-10T10:24:32Z</time>
      </trkpt>
      <trkpt lat="43.4434" lon="5.82486">
        <ele>491.37</ele>
        <time>2019-03-10T10:24:33Z</time>
      </trkpt>
      <trkpt lat="43.44334" lon="5.82495">
        <ele>491.37</ele>
        <time>2019-03-10T10:24:41Z</time>
      </trkpt>
      <trkpt lat="43.44331" lon="5.82503">
        <ele>491.37</ele>
        <time>2019-03-10T10:24:44Z</time>
      </trkpt>
      <trkpt lat="43.44329" lon="5.82507">
        <ele>491.37</ele>
        <time>2019-03-10T10:24:45Z</time>
      </trkpt>
      <trkpt lat="43.44313" lon="5.8255">
        <ele>490.89</ele>
        <time>2019-03-10T10:24:56Z</time>
      </trkpt>
      <trkpt lat="43.44291" lon="5.82601">
        <ele>490.41</ele>
        <time>2019-03-10T10:25:06Z</time>
      </trkpt>
      <trkpt lat="43.44285" lon="5.82632">
        <ele>490.41</ele>
        <time>2019-03-10T10:25:11Z</time>
      </trkpt>
      <trkpt lat="43.44279" lon="5.82659">
        <ele>490.89</ele>
        <time>2019-03-10T10:25:15Z</time>
      </trkpt>
      <trkpt lat="43.44275" lon="5.82678">
        <ele>490.89</ele>
        <time>2019-03-10T10:25:18Z</time>
      </trkpt>
      <trkpt lat="43.44275" lon="5.82722">
        <ele>490.89</ele>
        <time>2019-03-10T10:25:24Z</time>
      </trkpt>
      <trkpt lat="43.44268" lon="5.82763">
        <ele>489.93</ele>
        <time>2019-03-10T10:25:33Z</time>
      </trkpt>
      <trkpt lat="43.44265" lon="5.82774">
        <ele>489.45</ele>
        <time>2019-03-10T10:25:35Z</time>
      </trkpt>
      <trkpt lat="43.44263" lon="5.82789">
        <ele>488.49</ele>
        <time>2019-03-10T10:25:37Z</time>
      </trkpt>
      <trkpt lat="43.44263" lon="5.82797">
        <ele>488.49</ele>
        <time>2019-03-10T10:25:38Z</time>
      </trkpt>
      <trkpt lat="43.44264" lon="5.82804">
        <ele>488.01</ele>
        <time>2019-03-10T10:25:39Z</time>
      </trkpt>
      <trkpt lat="43.44265" lon="5.82812">
        <ele>487.53</ele>
        <time>2019-03-10T10:25:40Z</time>
      </trkpt>
      <trkpt lat="43.44266" lon="5.82821">
        <ele>487.53</ele>
        <time>2019-03-10T10:25:41Z</time>
      </trkpt>
      <trkpt lat="43.44266" lon="5.82829">
        <ele>485.6</ele>
        <time>2019-03-10T10:25:42Z</time>
      </trkpt>
      <trkpt lat="43.44265" lon="5.82837">
        <ele>485.6</ele>
        <time>2019-03-10T10:25:43Z</time>
      </trkpt>
      <trkpt lat="43.44265" lon="5.82844">
        <ele>485.6</ele>
        <time>2019-03-10T10:25:44Z</time>
      </trkpt>
      <trkpt lat="43.44263" lon="5.8286">
        <ele>482.72</ele>
        <time>2019-03-10T10:25:46Z</time>
      </trkpt>
      <trkpt lat="43.44262" lon="5.82868">
        <ele>482.72</ele>
        <time>2019-03-10T10:25:47Z</time>
      </trkpt>
      <trkpt lat="43.44259" lon="5.82896">
        <ele>481.76</ele>
        <time>2019-03-10T10:25:50Z</time>
      </trkpt>
      <trkpt lat="43.44259" lon="5.82907">
        <ele>480.8</ele>
        <time>2019-03-10T10:25:51Z</time>
      </trkpt>
      <trkpt lat="43.44259" lon="5.82917">
        <ele>480.8</ele>
        <time>2019-03-10T10:25:52Z</time>
      </trkpt>
      <trkpt lat="43.44259" lon="5.82955">
        <ele>479.35</ele>
        <time>2019-03-10T10:25:56Z</time>
      </trkpt>
      <trkpt lat="43.44258" lon="5.82964">
        <ele>479.35</ele>
        <time>2019-03-10T10:25:57Z</time>
      </trkpt>
      <trkpt lat="43.44257" lon="5.82983">
        <ele>478.87</ele>
        <time>2019-03-10T10:25:59Z</time>
      </trkpt>
      <trkpt lat="43.44258" lon="5.83027">
        <ele>478.39</ele>
        <time>2019-03-10T10:26:04Z</time>
      </trkpt>
      <trkpt lat="43.44255" lon="5.83053">
        <ele>476.95</ele>
        <time>2019-03-10T10:26:07Z</time>
      </trkpt>
      <trkpt lat="43.44256" lon="5.8306">
        <ele>476.95</ele>
        <time>2019-03-10T10:26:08Z</time>
      </trkpt>
      <trkpt lat="43.44256" lon="5.83066">
        <ele>476.47</ele>
        <time>2019-03-10T10:26:09Z</time>
      </trkpt>
      <trkpt lat="43.44256" lon="5.83072">
        <ele>476.47</ele>
        <time>2019-03-10T10:26:10Z</time>
      </trkpt>
      <trkpt lat="43.44256" lon="5.83077">
        <ele>476.47</ele>
        <time>2019-03-10T10:26:11Z</time>
      </trkpt>
      <trkpt lat="43.44257" lon="5.83083">
        <ele>475.51</ele>
        <time>2019-03-10T10:26:12Z</time>
      </trkpt>
      <trkpt lat="43.44261" lon="5.83139">
        <ele>474.55</ele>
        <time>2019-03-10T10:26:24Z</time>
      </trkpt>
      <trkpt lat="43.4426" lon="5.83216">
        <ele>473.11</ele>
        <time>2019-03-10T10:26:39Z</time>
      </trkpt>
      <trkpt lat="43.44263" lon="5.83288">
        <ele>471.18</ele>
        <time>2019-03-10T10:26:49Z</time>
      </trkpt>
      <trkpt lat="43.44262" lon="5.83296">
        <ele>470.22</ele>
        <time>2019-03-10T10:26:50Z</time>
      </trkpt>
      <trkpt lat="43.44261" lon="5.83303">
        <ele>470.22</ele>
        <time>2019-03-10T10:26:51Z</time>
      </trkpt>
      <trkpt lat="43.4426" lon="5.8331">
        <ele>470.22</ele>
        <time>2019-03-10T10:26:52Z</time>
      </trkpt>
      <trkpt lat="43.44259" lon="5.83318">
        <ele>470.22</ele>
        <time>2019-03-10T10:26:53Z</time>
      </trkpt>
      <trkpt lat="43.44258" lon="5.83326">
        <ele>470.22</ele>
        <time>2019-03-10T10:26:54Z</time>
      </trkpt>
      <trkpt lat="43.44251" lon="5.83357">
        <ele>468.78</ele>
        <time>2019-03-10T10:26:58Z</time>
      </trkpt>
      <trkpt lat="43.4425" lon="5.83365">
        <ele>468.3</ele>
        <time>2019-03-10T10:26:59Z</time>
      </trkpt>
      <trkpt lat="43.44251" lon="5.83372">
        <ele>467.34</ele>
        <time>2019-03-10T10:27:00Z</time>
      </trkpt>
      <trkpt lat="43.44252" lon="5.8338">
        <ele>467.34</ele>
        <time>2019-03-10T10:27:01Z</time>
      </trkpt>
      <trkpt lat="43.44252" lon="5.83389">
        <ele>466.38</ele>
        <time>2019-03-10T10:27:02Z</time>
      </trkpt>
      <trkpt lat="43.4425" lon="5.83399">
        <ele>464.93</ele>
        <time>2019-03-10T10:27:03Z</time>
      </trkpt>
      <trkpt lat="43.44249" lon="5.83407">
        <ele>465.9</ele>
        <time>2019-03-10T10:27:04Z</time>
      </trkpt>
      <trkpt lat="43.44247" lon="5.83416">
        <ele>465.9</ele>
        <time>2019-03-10T10:27:05Z</time>
      </trkpt>
      <trkpt lat="43.44246" lon="5.83426">
        <ele>464.45</ele>
        <time>2019-03-10T10:27:06Z</time>
      </trkpt>
      <trkpt lat="43.44246" lon="5.83435">
        <ele>463.97</ele>
        <time>2019-03-10T10:27:07Z</time>
      </trkpt>
      <trkpt lat="43.44246" lon="5.83443">
        <ele>463.49</ele>
        <time>2019-03-10T10:27:08Z</time>
      </trkpt>
      <trkpt lat="43.44247" lon="5.8345">
        <ele>463.01</ele>
        <time>2019-03-10T10:27:09Z</time>
      </trkpt>
      <trkpt lat="43.44247" lon="5.83457">
        <ele>462.53</ele>
        <time>2019-03-10T10:27:10Z</time>
      </trkpt>
      <trkpt lat="43.44247" lon="5.83465">
        <ele>461.09</ele>
        <time>2019-03-10T10:27:11Z</time>
      </trkpt>
      <trkpt lat="43.44246" lon="5.83473">
        <ele>461.09</ele>
        <time>2019-03-10T10:27:12Z</time>
      </trkpt>
      <trkpt lat="43.44246" lon="5.83481">
        <ele>460.13</ele>
        <time>2019-03-10T10:27:13Z</time>
      </trkpt>
      <trkpt lat="43.44247" lon="5.83487">
        <ele>459.17</ele>
        <time>2019-03-10T10:27:14Z</time>
      </trkpt>
      <trkpt lat="43.44248" lon="5.83492">
        <ele>458.69</ele>
        <time>2019-03-10T10:27:15Z</time>
      </trkpt>
      <trkpt lat="43.4425" lon="5.83509">
        <ele>455.32</ele>
        <time>2019-03-10T10:27:22Z</time>
      </trkpt>
      <trkpt lat="43.44239" lon="5.83535">
        <ele>455.8</ele>
        <time>2019-03-10T10:27:31Z</time>
      </trkpt>
      <trkpt lat="43.44236" lon="5.83541">
        <ele>455.8</ele>
        <time>2019-03-10T10:27:32Z</time>
      </trkpt>
      <trkpt lat="43.44234" lon="5.83548">
        <ele>455.8</ele>
        <time>2019-03-10T10:27:33Z</time>
      </trkpt>
      <trkpt lat="43.44233" lon="5.83555">
        <ele>455.8</ele>
        <time>2019-03-10T10:27:34Z</time>
      </trkpt>
      <trkpt lat="43.44233" lon="5.83563">
        <ele>455.8</ele>
        <time>2019-03-10T10:27:35Z</time>
      </trkpt>
      <trkpt lat="43.44233" lon="5.83571">
        <ele>455.32</ele>
        <time>2019-03-10T10:27:36Z</time>
      </trkpt>
      <trkpt lat="43.44234" lon="5.83579">
        <ele>455.32</ele>
        <time>2019-03-10T10:27:37Z</time>
      </trkpt>
      <trkpt lat="43.44235" lon="5.83595">
        <ele>454.36</ele>
        <time>2019-03-10T10:27:39Z</time>
      </trkpt>
      <trkpt lat="43.44235" lon="5.83603">
        <ele>453.88</ele>
        <time>2019-03-10T10:27:40Z</time>
      </trkpt>
      <trkpt lat="43.44233" lon="5.8361">
        <ele>453.4</ele>
        <time>2019-03-10T10:27:41Z</time>
      </trkpt>
      <trkpt lat="43.4423" lon="5.83617">
        <ele>453.4</ele>
        <time>2019-03-10T10:27:42Z</time>
      </trkpt>
      <trkpt lat="43.44225" lon="5.83624">
        <ele>452.44</ele>
        <time>2019-03-10T10:27:43Z</time>
      </trkpt>
      <trkpt lat="43.44221" lon="5.8363">
        <ele>452.44</ele>
        <time>2019-03-10T10:27:44Z</time>
      </trkpt>
      <trkpt lat="43.44219" lon="5.83637">
        <ele>452.44</ele>
        <time>2019-03-10T10:27:45Z</time>
      </trkpt>
      <trkpt lat="43.44218" lon="5.83643">
        <ele>451.48</ele>
        <time>2019-03-10T10:27:46Z</time>
      </trkpt>
      <trkpt lat="43.44217" lon="5.8365">
        <ele>451</ele>
        <time>2019-03-10T10:27:47Z</time>
      </trkpt>
      <trkpt lat="43.44217" lon="5.83656">
        <ele>450.52</ele>
        <time>2019-03-10T10:27:48Z</time>
      </trkpt>
      <trkpt lat="43.44213" lon="5.83716">
        <ele>447.63</ele>
        <time>2019-03-10T10:27:59Z</time>
      </trkpt>
      <trkpt lat="43.44213" lon="5.83753">
        <ele>446.19</ele>
        <time>2019-03-10T10:28:04Z</time>
      </trkpt>
      <trkpt lat="43.44212" lon="5.8376">
        <ele>445.23</ele>
        <time>2019-03-10T10:28:05Z</time>
      </trkpt>
      <trkpt lat="43.44212" lon="5.83767">
        <ele>445.23</ele>
        <time>2019-03-10T10:28:06Z</time>
      </trkpt>
      <trkpt lat="43.44211" lon="5.83774">
        <ele>445.23</ele>
        <time>2019-03-10T10:28:07Z</time>
      </trkpt>
      <trkpt lat="43.44209" lon="5.83781">
        <ele>445.23</ele>
        <time>2019-03-10T10:28:08Z</time>
      </trkpt>
      <trkpt lat="43.44197" lon="5.83867">
        <ele>441.86</ele>
        <time>2019-03-10T10:28:19Z</time>
      </trkpt>
      <trkpt lat="43.44195" lon="5.83874">
        <ele>441.86</ele>
        <time>2019-03-10T10:28:20Z</time>
      </trkpt>
      <trkpt lat="43.44194" lon="5.83882">
        <ele>441.86</ele>
        <time>2019-03-10T10:28:21Z</time>
      </trkpt>
      <trkpt lat="43.4418" lon="5.83967">
        <ele>439.46</ele>
        <time>2019-03-10T10:28:31Z</time>
      </trkpt>
      <trkpt lat="43.44171" lon="5.8401">
        <ele>437.06</ele>
        <time>2019-03-10T10:28:36Z</time>
      </trkpt>
      <trkpt lat="43.44166" lon="5.84032">
        <ele>435.13</ele>
        <time>2019-03-10T10:28:39Z</time>
      </trkpt>
      <trkpt lat="43.44164" lon="5.84037">
        <ele>435.13</ele>
        <time>2019-03-10T10:28:40Z</time>
      </trkpt>
      <trkpt lat="43.44161" lon="5.84041">
        <ele>434.17</ele>
        <time>2019-03-10T10:28:41Z</time>
      </trkpt>
      <trkpt lat="43.44152" lon="5.84056">
        <ele>430.81</ele>
        <time>2019-03-10T10:28:45Z</time>
      </trkpt>
      <trkpt lat="43.44147" lon="5.84066">
        <ele>429.85</ele>
        <time>2019-03-10T10:28:47Z</time>
      </trkpt>
      <trkpt lat="43.44131" lon="5.84101">
        <ele>426</ele>
        <time>2019-03-10T10:28:53Z</time>
      </trkpt>
      <trkpt lat="43.44125" lon="5.84111">
        <ele>425.04</ele>
        <time>2019-03-10T10:28:55Z</time>
      </trkpt>
      <trkpt lat="43.44116" lon="5.84133">
        <ele>423.6</ele>
        <time>2019-03-10T10:28:58Z</time>
      </trkpt>
      <trkpt lat="43.44102" lon="5.84169">
        <ele>420.71</ele>
        <time>2019-03-10T10:29:02Z</time>
      </trkpt>
      <trkpt lat="43.44092" lon="5.84203">
        <ele>418.31</ele>
        <time>2019-03-10T10:29:06Z</time>
      </trkpt>
      <trkpt lat="43.44079" lon="5.84248">
        <ele>414.47</ele>
        <time>2019-03-10T10:29:12Z</time>
      </trkpt>
      <trkpt lat="43.44071" lon="5.84274">
        <ele>411.1</ele>
        <time>2019-03-10T10:29:19Z</time>
      </trkpt>
      <trkpt lat="43.44063" lon="5.84322">
        <ele>408.7</ele>
        <time>2019-03-10T10:29:30Z</time>
      </trkpt>
      <trkpt lat="43.44062" lon="5.84393">
        <ele>406.77</ele>
        <time>2019-03-10T10:29:43Z</time>
      </trkpt>
      <trkpt lat="43.44063" lon="5.844">
        <ele>406.77</ele>
        <time>2019-03-10T10:29:44Z</time>
      </trkpt>
      <trkpt lat="43.44064" lon="5.84404">
        <ele>406.77</ele>
        <time>2019-03-10T10:29:45Z</time>
      </trkpt>
      <trkpt lat="43.44064" lon="5.8441">
        <ele>406.77</ele>
        <time>2019-03-10T10:29:46Z</time>
      </trkpt>
      <trkpt lat="43.44067" lon="5.84461">
        <ele>405.81</ele>
        <time>2019-03-10T10:29:55Z</time>
      </trkpt>
      <trkpt lat="43.44067" lon="5.84489">
        <ele>403.89</ele>
        <time>2019-03-10T10:30:00Z</time>
      </trkpt>
      <trkpt lat="43.44066" lon="5.84504">
        <ele>403.41</ele>
        <time>2019-03-10T10:30:02Z</time>
      </trkpt>
      <trkpt lat="43.44067" lon="5.84512">
        <ele>402.93</ele>
        <time>2019-03-10T10:30:03Z</time>
      </trkpt>
      <trkpt lat="43.44068" lon="5.84529">
        <ele>401.49</ele>
        <time>2019-03-10T10:30:06Z</time>
      </trkpt>
      <trkpt lat="43.44073" lon="5.84577">
        <ele>398.12</ele>
        <time>2019-03-10T10:30:13Z</time>
      </trkpt>
      <trkpt lat="43.44078" lon="5.84599">
        <ele>396.2</ele>
        <time>2019-03-10T10:30:18Z</time>
      </trkpt>
      <trkpt lat="43.44079" lon="5.84601">
        <ele>395.72</ele>
        <time>2019-03-10T10:30:19Z</time>
      </trkpt>
      <trkpt lat="43.4408" lon="5.84604">
        <ele>395.24</ele>
        <time>2019-03-10T10:30:20Z</time>
      </trkpt>
      <trkpt lat="43.44081" lon="5.84606">
        <ele>394.76</ele>
        <time>2019-03-10T10:30:21Z</time>
      </trkpt>
      <trkpt lat="43.44094" lon="5.84627">
        <ele>391.87</ele>
        <time>2019-03-10T10:30:32Z</time>
      </trkpt>
      <trkpt lat="43.44097" lon="5.84629">
        <ele>391.39</ele>
        <time>2019-03-10T10:30:33Z</time>
      </trkpt>
      <trkpt lat="43.44101" lon="5.8463">
        <ele>390.91</ele>
        <time>2019-03-10T10:30:34Z</time>
      </trkpt>
      <trkpt lat="43.4411" lon="5.84632">
        <ele>390.43</ele>
        <time>2019-03-10T10:30:36Z</time>
      </trkpt>
      <trkpt lat="43.44114" lon="5.84634">
        <ele>389.95</ele>
        <time>2019-03-10T10:30:37Z</time>
      </trkpt>
      <trkpt lat="43.44116" lon="5.84637">
        <ele>389.95</ele>
        <time>2019-03-10T10:30:38Z</time>
      </trkpt>
      <trkpt lat="43.44118" lon="5.84639">
        <ele>389.95</ele>
        <time>2019-03-10T10:30:39Z</time>
      </trkpt>
      <trkpt lat="43.44125" lon="5.84642">
        <ele>391.39</ele>
        <time>2019-03-10T10:30:46Z</time>
      </trkpt>
      <trkpt lat="43.44139" lon="5.8466">
        <ele>394.28</ele>
        <time>2019-03-10T10:31:02Z</time>
      </trkpt>
      <trkpt lat="43.44141" lon="5.84668">
        <ele>395.72</ele>
        <time>2019-03-10T10:31:08Z</time>
      </trkpt>
      <trkpt lat="43.4415" lon="5.8469">
        <ele>397.64</ele>
        <time>2019-03-10T10:31:24Z</time>
      </trkpt>
      <trkpt lat="43.44158" lon="5.84706">
        <ele>398.12</ele>
        <time>2019-03-10T10:31:39Z</time>
      </trkpt>
      <trkpt lat="43.44172" lon="5.8473">
        <ele>401.01</ele>
        <time>2019-03-10T10:31:52Z</time>
      </trkpt>
      <trkpt lat="43.44192" lon="5.84756">
        <ele>397.16</ele>
        <time>2019-03-10T10:32:04Z</time>
      </trkpt>
      <trkpt lat="43.44208" lon="5.84792">
        <ele>393.8</ele>
        <time>2019-03-10T10:32:10Z</time>
      </trkpt>
      <trkpt lat="43.44212" lon="5.84801">
        <ele>392.84</ele>
        <time>2019-03-10T10:32:11Z</time>
      </trkpt>
      <trkpt lat="43.44214" lon="5.8481">
        <ele>391.87</ele>
        <time>2019-03-10T10:32:12Z</time>
      </trkpt>
      <trkpt lat="43.44223" lon="5.84841">
        <ele>388.99</ele>
        <time>2019-03-10T10:32:17Z</time>
      </trkpt>
      <trkpt lat="43.44224" lon="5.84847">
        <ele>388.99</ele>
        <time>2019-03-10T10:32:18Z</time>
      </trkpt>
      <trkpt lat="43.44226" lon="5.84853">
        <ele>388.03</ele>
        <time>2019-03-10T10:32:19Z</time>
      </trkpt>
      <trkpt lat="43.4423" lon="5.84859">
        <ele>388.03</ele>
        <time>2019-03-10T10:32:20Z</time>
      </trkpt>
      <trkpt lat="43.44234" lon="5.84864">
        <ele>387.55</ele>
        <time>2019-03-10T10:32:21Z</time>
      </trkpt>
      <trkpt lat="43.44238" lon="5.8487">
        <ele>387.07</ele>
        <time>2019-03-10T10:32:22Z</time>
      </trkpt>
      <trkpt lat="43.44243" lon="5.84878">
        <ele>387.55</ele>
        <time>2019-03-10T10:32:23Z</time>
      </trkpt>
      <trkpt lat="43.44247" lon="5.84885">
        <ele>387.55</ele>
        <time>2019-03-10T10:32:24Z</time>
      </trkpt>
      <trkpt lat="43.44251" lon="5.84894">
        <ele>386.11</ele>
        <time>2019-03-10T10:32:25Z</time>
      </trkpt>
      <trkpt lat="43.44255" lon="5.84903">
        <ele>385.63</ele>
        <time>2019-03-10T10:32:26Z</time>
      </trkpt>
      <trkpt lat="43.44257" lon="5.84913">
        <ele>385.15</ele>
        <time>2019-03-10T10:32:27Z</time>
      </trkpt>
      <trkpt lat="43.44258" lon="5.84923">
        <ele>385.15</ele>
        <time>2019-03-10T10:32:28Z</time>
      </trkpt>
      <trkpt lat="43.44264" lon="5.84984">
        <ele>384.66</ele>
        <time>2019-03-10T10:32:34Z</time>
      </trkpt>
      <trkpt lat="43.44266" lon="5.84992">
        <ele>384.66</ele>
        <time>2019-03-10T10:32:35Z</time>
      </trkpt>
      <trkpt lat="43.44269" lon="5.85">
        <ele>384.66</ele>
        <time>2019-03-10T10:32:36Z</time>
      </trkpt>
      <trkpt lat="43.44275" lon="5.85015">
        <ele>384.66</ele>
        <time>2019-03-10T10:32:38Z</time>
      </trkpt>
      <trkpt lat="43.44277" lon="5.85022">
        <ele>384.66</ele>
        <time>2019-03-10T10:32:39Z</time>
      </trkpt>
      <trkpt lat="43.44281" lon="5.85036">
        <ele>384.18</ele>
        <time>2019-03-10T10:32:41Z</time>
      </trkpt>
      <trkpt lat="43.44283" lon="5.85043">
        <ele>383.7</ele>
        <time>2019-03-10T10:32:42Z</time>
      </trkpt>
      <trkpt lat="43.44293" lon="5.85068">
        <ele>381.78</ele>
        <time>2019-03-10T10:32:46Z</time>
      </trkpt>
      <trkpt lat="43.44295" lon="5.85075">
        <ele>381.78</ele>
        <time>2019-03-10T10:32:47Z</time>
      </trkpt>
      <trkpt lat="43.44297" lon="5.85082">
        <ele>381.3</ele>
        <time>2019-03-10T10:32:48Z</time>
      </trkpt>
      <trkpt lat="43.443" lon="5.85104">
        <ele>380.34</ele>
        <time>2019-03-10T10:32:52Z</time>
      </trkpt>
      <trkpt lat="43.443" lon="5.85109">
        <ele>380.34</ele>
        <time>2019-03-10T10:32:53Z</time>
      </trkpt>
      <trkpt lat="43.44301" lon="5.85115">
        <ele>379.86</ele>
        <time>2019-03-10T10:32:54Z</time>
      </trkpt>
      <trkpt lat="43.44303" lon="5.8512">
        <ele>379.38</ele>
        <time>2019-03-10T10:32:55Z</time>
      </trkpt>
      <trkpt lat="43.44304" lon="5.85126">
        <ele>379.38</ele>
        <time>2019-03-10T10:32:56Z</time>
      </trkpt>
      <trkpt lat="43.44309" lon="5.8516">
        <ele>378.9</ele>
        <time>2019-03-10T10:33:01Z</time>
      </trkpt>
      <trkpt lat="43.44311" lon="5.85167">
        <ele>377.94</ele>
        <time>2019-03-10T10:33:02Z</time>
      </trkpt>
      <trkpt lat="43.44314" lon="5.85174">
        <ele>377.94</ele>
        <time>2019-03-10T10:33:03Z</time>
      </trkpt>
      <trkpt lat="43.44319" lon="5.8518">
        <ele>376.97</ele>
        <time>2019-03-10T10:33:04Z</time>
      </trkpt>
      <trkpt lat="43.44323" lon="5.85187">
        <ele>376.97</ele>
        <time>2019-03-10T10:33:05Z</time>
      </trkpt>
      <trkpt lat="43.44338" lon="5.85207">
        <ele>374.09</ele>
        <time>2019-03-10T10:33:09Z</time>
      </trkpt>
      <trkpt lat="43.44344" lon="5.85215">
        <ele>372.65</ele>
        <time>2019-03-10T10:33:11Z</time>
      </trkpt>
      <trkpt lat="43.44352" lon="5.85225">
        <ele>371.69</ele>
        <time>2019-03-10T10:33:13Z</time>
      </trkpt>
      <trkpt lat="43.44355" lon="5.85233">
        <ele>370.73</ele>
        <time>2019-03-10T10:33:14Z</time>
      </trkpt>
      <trkpt lat="43.44384" lon="5.85308">
        <ele>367.36</ele>
        <time>2019-03-10T10:33:23Z</time>
      </trkpt>
      <trkpt lat="43.44386" lon="5.85315">
        <ele>366.88</ele>
        <time>2019-03-10T10:33:24Z</time>
      </trkpt>
      <trkpt lat="43.44396" lon="5.85375">
        <ele>363.52</ele>
        <time>2019-03-10T10:33:32Z</time>
      </trkpt>
      <trkpt lat="43.44405" lon="5.8543">
        <ele>361.11</ele>
        <time>2019-03-10T10:33:38Z</time>
      </trkpt>
      <trkpt lat="43.44406" lon="5.85438">
        <ele>360.15</ele>
        <time>2019-03-10T10:33:39Z</time>
      </trkpt>
      <trkpt lat="43.44407" lon="5.85447">
        <ele>359.67</ele>
        <time>2019-03-10T10:33:40Z</time>
      </trkpt>
      <trkpt lat="43.44419" lon="5.85496">
        <ele>356.31</ele>
        <time>2019-03-10T10:33:46Z</time>
      </trkpt>
      <trkpt lat="43.44437" lon="5.85575">
        <ele>352.94</ele>
        <time>2019-03-10T10:33:53Z</time>
      </trkpt>
      <trkpt lat="43.44446" lon="5.85607">
        <ele>349.1</ele>
        <time>2019-03-10T10:33:56Z</time>
      </trkpt>
      <trkpt lat="43.44462" lon="5.85664">
        <ele>345.25</ele>
        <time>2019-03-10T10:34:02Z</time>
      </trkpt>
      <trkpt lat="43.44503" lon="5.85725">
        <ele>333.23</ele>
        <time>2019-03-10T10:52:42Z</time>
      </trkpt>
      <trkpt lat="43.44508" lon="5.85731">
        <ele>332.75</ele>
        <time>2019-03-10T10:52:43Z</time>
      </trkpt>
      <trkpt lat="43.44523" lon="5.85752">
        <ele>331.31</ele>
        <time>2019-03-10T10:52:46Z</time>
      </trkpt>
      <trkpt lat="43.44547" lon="5.85786">
        <ele>331.31</ele>
        <time>2019-03-10T10:52:51Z</time>
      </trkpt>
      <trkpt lat="43.44554" lon="5.85794">
        <ele>331.31</ele>
        <time>2019-03-10T10:52:52Z</time>
      </trkpt>
      <trkpt lat="43.44558" lon="5.85803">
        <ele>331.31</ele>
        <time>2019-03-10T10:52:53Z</time>
      </trkpt>
      <trkpt lat="43.44563" lon="5.85813">
        <ele>331.31</ele>
        <time>2019-03-10T10:52:54Z</time>
      </trkpt>
      <trkpt lat="43.44568" lon="5.85824">
        <ele>330.35</ele>
        <time>2019-03-10T10:52:55Z</time>
      </trkpt>
      <trkpt lat="43.44624" lon="5.85933">
        <ele>328.43</ele>
        <time>2019-03-10T10:53:06Z</time>
      </trkpt>
      <trkpt lat="43.44644" lon="5.85963">
        <ele>327.95</ele>
        <time>2019-03-10T10:53:10Z</time>
      </trkpt>
      <trkpt lat="43.44652" lon="5.85972">
        <ele>326.99</ele>
        <time>2019-03-10T10:53:12Z</time>
      </trkpt>
      <trkpt lat="43.44654" lon="5.85978">
        <ele>326.99</ele>
        <time>2019-03-10T10:53:13Z</time>
      </trkpt>
      <trkpt lat="43.44655" lon="5.85987">
        <ele>326.99</ele>
        <time>2019-03-10T10:53:14Z</time>
      </trkpt>
      <trkpt lat="43.44655" lon="5.85991">
        <ele>327.47</ele>
        <time>2019-03-10T10:53:15Z</time>
      </trkpt>
      <trkpt lat="43.44652" lon="5.85998">
        <ele>326.99</ele>
        <time>2019-03-10T10:53:16Z</time>
      </trkpt>
      <trkpt lat="43.44646" lon="5.86013">
        <ele>326.99</ele>
        <time>2019-03-10T10:53:18Z</time>
      </trkpt>
      <trkpt lat="43.4464" lon="5.86019">
        <ele>326.99</ele>
        <time>2019-03-10T10:53:19Z</time>
      </trkpt>
    </trkseg>
  </trk>
  <trk>
    <name><![CDATA[BELGENT_BV]]></name>
    <desc><![CDATA[parcours BV modifié pour reconnaissance le 27 decembre]]></desc>
    <trkseg>
      <trkpt lat="43.24335" lon="6.00121">
        <ele>158.90625</ele>
      </trkpt>
      <trkpt lat="43.24387" lon="6.00063">
        <ele>154.8515625</ele>
      </trkpt>
      <trkpt lat="43.24418" lon="6.00049">
        <ele>153.875</ele>
      </trkpt>
      <trkpt lat="43.24451" lon="6.00048">
        <ele>153.60546875</ele>
      </trkpt>
      <trkpt lat="43.24502" lon="6.00044">
        <ele>154.12890625</ele>
      </trkpt>
      <trkpt lat="43.24517" lon="6.00039">
        <ele>154.53125</ele>
      </trkpt>
      <trkpt lat="43.24519" lon="6.00038">
        <ele>154.59375</ele>
      </trkpt>
      <trkpt lat="43.24515" lon="6.00017">
        <ele>154.57421875</ele>
      </trkpt>
      <trkpt lat="43.24526" lon="6.00002">
        <ele>155.52734375</ele>
      </trkpt>
      <trkpt lat="43.24528" lon="5.99996">
        <ele>155.78515625</ele>
      </trkpt>
      <trkpt lat="43.24516" lon="5.9996">
        <ele>156.70703125</ele>
      </trkpt>
      <trkpt lat="43.2451" lon="5.99941">
        <ele>157.78515625</ele>
      </trkpt>
      <trkpt lat="43.24511" lon="5.99936">
        <ele>158.1953125</ele>
      </trkpt>
      <trkpt lat="43.24526" lon="5.99922">
        <ele>160.00390625</ele>
      </trkpt>
      <trkpt lat="43.24529" lon="5.99919">
        <ele>160.35546875</ele>
      </trkpt>
      <trkpt lat="43.24539" lon="5.999">
        <ele>161.75390625</ele>
      </trkpt>
      <trkpt lat="43.2454" lon="5.99898">
        <ele>161.85546875</ele>
      </trkpt>
      <trkpt lat="43.24536" lon="5.99886">
        <ele>162.7890625</ele>
      </trkpt>
      <trkpt lat="43.24532" lon="5.99881">
        <ele>163.25</ele>
      </trkpt>
      <trkpt lat="43.24532" lon="5.99881">
        <ele>163.23828125</ele>
      </trkpt>
      <trkpt lat="43.2454" lon="5.99876">
        <ele>163.3828125</ele>
      </trkpt>
      <trkpt lat="43.24602" lon="5.99811">
        <ele>175.1</ele>
        <time>2018-12-24T13:20:37Z</time>
      </trkpt>
      <trkpt lat="43.24627" lon="5.99791">
        <ele>176.06</ele>
        <time>2018-12-24T13:21:00Z</time>
      </trkpt>
      <trkpt lat="43.24648" lon="5.99788">
        <ele>174.62</ele>
        <time>2018-12-24T13:21:20Z</time>
      </trkpt>
      <trkpt lat="43.24677" lon="5.99768">
        <ele>175.1</ele>
        <time>2018-12-24T13:21:43Z</time>
      </trkpt>
      <trkpt lat="43.24695" lon="5.99746">
        <ele>175.1</ele>
        <time>2018-12-24T13:22:02Z</time>
      </trkpt>
      <trkpt lat="43.24713" lon="5.99723">
        <ele>175.1</ele>
        <time>2018-12-24T13:22:23Z</time>
      </trkpt>
      <trkpt lat="43.24733" lon="5.99709">
        <ele>177.98</ele>
        <time>2018-12-24T13:22:45Z</time>
      </trkpt>
      <trkpt lat="43.24754" lon="5.99698">
        <ele>178.46</ele>
        <time>2018-12-24T13:23:04Z</time>
      </trkpt>
      <trkpt lat="43.24775" lon="5.99682">
        <ele>177.5</ele>
        <time>2018-12-24T13:23:23Z</time>
      </trkpt>
      <trkpt lat="43.24779" lon="5.99682">
        <ele>175.58</ele>
        <time>2018-12-24T13:23:25Z</time>
      </trkpt>
      <trkpt lat="43.24783" lon="5.99683">
        <ele>177.02</ele>
        <time>2018-12-24T13:23:27Z</time>
      </trkpt>
      <trkpt lat="43.24799" lon="5.9969">
        <ele>177.02</ele>
        <time>2018-12-24T13:23:42Z</time>
      </trkpt>
      <trkpt lat="43.24801" lon="5.9969">
        <ele>178.46</ele>
        <time>2018-12-24T13:23:44Z</time>
      </trkpt>
      <trkpt lat="43.2481" lon="5.99689">
        <ele>175.58</ele>
        <time>2018-12-24T13:23:53Z</time>
      </trkpt>
      <trkpt lat="43.24813" lon="5.99689">
        <ele>178.94</ele>
        <time>2018-12-24T13:24:01Z</time>
      </trkpt>
      <trkpt lat="43.24834" lon="5.9969">
        <ele>178.94</ele>
        <time>2018-12-24T13:24:20Z</time>
      </trkpt>
      <trkpt lat="43.24858" lon="5.99682">
        <ele>182.31</ele>
        <time>2018-12-24T13:24:38Z</time>
      </trkpt>
      <trkpt lat="43.24874" lon="5.99668">
        <ele>183.27</ele>
        <time>2018-12-24T13:24:58Z</time>
      </trkpt>
      <trkpt lat="43.24876" lon="5.99668">
        <ele>183.27</ele>
        <time>2018-12-24T13:24:59Z</time>
      </trkpt>
      <trkpt lat="43.24883" lon="5.99673">
        <ele>182.31</ele>
        <time>2018-12-24T13:25:01Z</time>
      </trkpt>
      <trkpt lat="43.24919" lon="5.99682">
        <ele>183.27</ele>
        <time>2018-12-24T13:25:25Z</time>
      </trkpt>
      <trkpt lat="43.24936" lon="5.99676">
        <ele>182.79</ele>
        <time>2018-12-24T13:25:43Z</time>
      </trkpt>
      <trkpt lat="43.24938" lon="5.99673">
        <ele>182.31</ele>
        <time>2018-12-24T13:25:47Z</time>
      </trkpt>
      <trkpt lat="43.24943" lon="5.9967">
        <ele>183.75</ele>
        <time>2018-12-24T13:25:50Z</time>
      </trkpt>
      <trkpt lat="43.24945" lon="5.99668">
        <ele>183.75</ele>
        <time>2018-12-24T13:25:51Z</time>
      </trkpt>
      <trkpt lat="43.24948" lon="5.99668">
        <ele>184.71</ele>
        <time>2018-12-24T13:25:52Z</time>
      </trkpt>
      <trkpt lat="43.24958" lon="5.99659">
        <ele>182.79</ele>
        <time>2018-12-24T13:25:58Z</time>
      </trkpt>
      <trkpt lat="43.24965" lon="5.99632">
        <ele>183.75</ele>
        <time>2018-12-24T13:26:17Z</time>
      </trkpt>
      <trkpt lat="43.2497" lon="5.99626">
        <ele>183.75</ele>
        <time>2018-12-24T13:26:34Z</time>
      </trkpt>
      <trkpt lat="43.24966" lon="5.99606">
        <ele>184.23</ele>
        <time>2018-12-24T13:26:50Z</time>
      </trkpt>
      <trkpt lat="43.24967" lon="5.9959">
        <ele>184.23</ele>
        <time>2018-12-24T13:26:59Z</time>
      </trkpt>
      <trkpt lat="43.24968" lon="5.99575">
        <ele>186.63</ele>
        <time>2018-12-24T13:27:06Z</time>
      </trkpt>
      <trkpt lat="43.2497" lon="5.99549">
        <ele>184.23</ele>
        <time>2018-12-24T13:27:24Z</time>
      </trkpt>
      <trkpt lat="43.24971" lon="5.99516">
        <ele>183.27</ele>
        <time>2018-12-24T13:27:48Z</time>
      </trkpt>
      <trkpt lat="43.24979" lon="5.99477">
        <ele>185.67</ele>
        <time>2018-12-24T13:28:10Z</time>
      </trkpt>
      <trkpt lat="43.24989" lon="5.99453">
        <ele>186.15</ele>
        <time>2018-12-24T13:28:30Z</time>
      </trkpt>
      <trkpt lat="43.25003" lon="5.99424">
        <ele>186.63</ele>
        <time>2018-12-24T13:28:50Z</time>
      </trkpt>
      <trkpt lat="43.25014" lon="5.99404">
        <ele>188.08</ele>
        <time>2018-12-24T13:29:03Z</time>
      </trkpt>
      <trkpt lat="43.25023" lon="5.99395">
        <ele>186.63</ele>
        <time>2018-12-24T13:29:15Z</time>
      </trkpt>
      <trkpt lat="43.25036" lon="5.99371">
        <ele>187.11</ele>
        <time>2018-12-24T13:29:29Z</time>
      </trkpt>
      <trkpt lat="43.25038" lon="5.9937">
        <ele>187.11</ele>
        <time>2018-12-24T13:29:30Z</time>
      </trkpt>
      <trkpt lat="43.25043" lon="5.99367">
        <ele>188.56</ele>
        <time>2018-12-24T13:29:35Z</time>
      </trkpt>
      <trkpt lat="43.25061" lon="5.99354">
        <ele>188.56</ele>
        <time>2018-12-24T13:29:57Z</time>
      </trkpt>
      <trkpt lat="43.25082" lon="5.99336">
        <ele>189.52</ele>
        <time>2018-12-24T13:30:19Z</time>
      </trkpt>
      <trkpt lat="43.25108" lon="5.99322">
        <ele>191.44</ele>
        <time>2018-12-24T13:30:40Z</time>
      </trkpt>
      <trkpt lat="43.25132" lon="5.99316">
        <ele>189.52</ele>
        <time>2018-12-24T13:31:00Z</time>
      </trkpt>
      <trkpt lat="43.25141" lon="5.9931">
        <ele>190</ele>
        <time>2018-12-24T13:31:22Z</time>
      </trkpt>
      <trkpt lat="43.2514" lon="5.99307">
        <ele>190.48</ele>
        <time>2018-12-24T13:31:37Z</time>
      </trkpt>
      <trkpt lat="43.25143" lon="5.99296">
        <ele>189.04</ele>
        <time>2018-12-24T13:31:47Z</time>
      </trkpt>
      <trkpt lat="43.25153" lon="5.99289">
        <ele>191.92</ele>
        <time>2018-12-24T13:32:09Z</time>
      </trkpt>
      <trkpt lat="43.25174" lon="5.99279">
        <ele>190.96</ele>
        <time>2018-12-24T13:32:29Z</time>
      </trkpt>
      <trkpt lat="43.25176" lon="5.99278">
        <ele>190.96</ele>
        <time>2018-12-24T13:32:31Z</time>
      </trkpt>
      <trkpt lat="43.25177" lon="5.99277">
        <ele>190.96</ele>
        <time>2018-12-24T13:32:32Z</time>
      </trkpt>
      <trkpt lat="43.25184" lon="5.99273">
        <ele>192.4</ele>
        <time>2018-12-24T13:32:37Z</time>
      </trkpt>
      <trkpt lat="43.25206" lon="5.99261">
        <ele>193.36</ele>
        <time>2018-12-24T13:32:58Z</time>
      </trkpt>
      <trkpt lat="43.25224" lon="5.99246">
        <ele>193.84</ele>
        <time>2018-12-24T13:33:16Z</time>
      </trkpt>
      <trkpt lat="43.25242" lon="5.99231">
        <ele>193.36</ele>
        <time>2018-12-24T13:33:33Z</time>
      </trkpt>
      <trkpt lat="43.25265" lon="5.99208">
        <ele>193.36</ele>
        <time>2018-12-24T13:33:55Z</time>
      </trkpt>
      <trkpt lat="43.25273" lon="5.99186">
        <ele>194.8</ele>
        <time>2018-12-24T13:34:06Z</time>
      </trkpt>
      <trkpt lat="43.25282" lon="5.99161">
        <ele>194.8</ele>
        <time>2018-12-24T13:34:21Z</time>
      </trkpt>
      <trkpt lat="43.25294" lon="5.99118">
        <ele>194.32</ele>
        <time>2018-12-24T13:34:44Z</time>
      </trkpt>
      <trkpt lat="43.25301" lon="5.991">
        <ele>195.77</ele>
        <time>2018-12-24T13:34:57Z</time>
      </trkpt>
      <trkpt lat="43.25305" lon="5.99082">
        <ele>195.28</ele>
        <time>2018-12-24T13:35:09Z</time>
      </trkpt>
      <trkpt lat="43.2531" lon="5.99061">
        <ele>196.73</ele>
        <time>2018-12-24T13:35:20Z</time>
      </trkpt>
      <trkpt lat="43.25316" lon="5.99024">
        <ele>195.28</ele>
        <time>2018-12-24T13:35:38Z</time>
      </trkpt>
      <trkpt lat="43.25319" lon="5.99">
        <ele>196.73</ele>
        <time>2018-12-24T13:35:53Z</time>
      </trkpt>
      <trkpt lat="43.25321" lon="5.98988">
        <ele>195.28</ele>
        <time>2018-12-24T13:35:59Z</time>
      </trkpt>
      <trkpt lat="43.25323" lon="5.98963">
        <ele>194.32</ele>
        <time>2018-12-24T13:36:17Z</time>
      </trkpt>
      <trkpt lat="43.25327" lon="5.98937">
        <ele>193.84</ele>
        <time>2018-12-24T13:36:35Z</time>
      </trkpt>
      <trkpt lat="43.25328" lon="5.98888">
        <ele>195.28</ele>
        <time>2018-12-24T13:37:00Z</time>
      </trkpt>
      <trkpt lat="43.25328" lon="5.98851">
        <ele>195.28</ele>
        <time>2018-12-24T13:37:21Z</time>
      </trkpt>
      <trkpt lat="43.25328" lon="5.98809">
        <ele>194.32</ele>
        <time>2018-12-24T13:37:43Z</time>
      </trkpt>
      <trkpt lat="43.25335" lon="5.98801">
        <ele>193.84</ele>
        <time>2018-12-24T13:38:00Z</time>
      </trkpt>
      <trkpt lat="43.2534" lon="5.98789">
        <ele>197.21</ele>
        <time>2018-12-24T13:38:16Z</time>
      </trkpt>
      <trkpt lat="43.25335" lon="5.98772">
        <ele>198.17</ele>
        <time>2018-12-24T13:38:29Z</time>
      </trkpt>
      <trkpt lat="43.25336" lon="5.98773">
        <ele>197.69</ele>
        <time>2018-12-24T13:38:32Z</time>
      </trkpt>
      <trkpt lat="43.25337" lon="5.98773">
        <ele>197.69</ele>
        <time>2018-12-24T13:38:33Z</time>
      </trkpt>
      <trkpt lat="43.25338" lon="5.98774">
        <ele>197.69</ele>
        <time>2018-12-24T13:38:34Z</time>
      </trkpt>
      <trkpt lat="43.25344" lon="5.98773">
        <ele>196.73</ele>
        <time>2018-12-24T13:38:49Z</time>
      </trkpt>
      <trkpt lat="43.25348" lon="5.98751">
        <ele>196.73</ele>
        <time>2018-12-24T13:39:09Z</time>
      </trkpt>
      <trkpt lat="43.25352" lon="5.98719">
        <ele>199.61</ele>
        <time>2018-12-24T13:39:28Z</time>
      </trkpt>
      <trkpt lat="43.25353" lon="5.98687">
        <ele>200.09</ele>
        <time>2018-12-24T13:39:46Z</time>
      </trkpt>
      <trkpt lat="43.25353" lon="5.98683">
        <ele>198.65</ele>
        <time>2018-12-24T13:39:49Z</time>
      </trkpt>
      <trkpt lat="43.25357" lon="5.98669">
        <ele>198.65</ele>
        <time>2018-12-24T13:40:04Z</time>
      </trkpt>
      <trkpt lat="43.25361" lon="5.98663">
        <ele>198.65</ele>
        <time>2018-12-24T13:40:09Z</time>
      </trkpt>
      <trkpt lat="43.25364" lon="5.98631">
        <ele>198.65</ele>
        <time>2018-12-24T13:40:29Z</time>
      </trkpt>
      <trkpt lat="43.25362" lon="5.98593">
        <ele>200.09</ele>
        <time>2018-12-24T13:40:50Z</time>
      </trkpt>
      <trkpt lat="43.25362" lon="5.98591">
        <ele>200.09</ele>
        <time>2018-12-24T13:40:51Z</time>
      </trkpt>
      <trkpt lat="43.25358" lon="5.98559">
        <ele>201.05</ele>
        <time>2018-12-24T13:41:11Z</time>
      </trkpt>
      <trkpt lat="43.25342" lon="5.98528">
        <ele>202.01</ele>
        <time>2018-12-24T13:41:33Z</time>
      </trkpt>
      <trkpt lat="43.25339" lon="5.98505">
        <ele>203.46</ele>
        <time>2018-12-24T13:41:48Z</time>
      </trkpt>
      <trkpt lat="43.25339" lon="5.98503">
        <ele>203.46</ele>
        <time>2018-12-24T13:41:49Z</time>
      </trkpt>
      <trkpt lat="43.25323" lon="5.98477">
        <ele>205.38</ele>
        <time>2018-12-24T13:42:12Z</time>
      </trkpt>
      <trkpt lat="43.25321" lon="5.98469">
        <ele>204.42</ele>
        <time>2018-12-24T13:42:22Z</time>
      </trkpt>
      <trkpt lat="43.25329" lon="5.98457">
        <ele>203.94</ele>
        <time>2018-12-24T13:42:40Z</time>
      </trkpt>
      <trkpt lat="43.25344" lon="5.98472">
        <ele>202.49</ele>
        <time>2018-12-24T13:43:01Z</time>
      </trkpt>
      <trkpt lat="43.25368" lon="5.98481">
        <ele>202.49</ele>
        <time>2018-12-24T13:43:19Z</time>
      </trkpt>
      <trkpt lat="43.254" lon="5.98464">
        <ele>202.49</ele>
        <time>2018-12-24T13:43:43Z</time>
      </trkpt>
      <trkpt lat="43.25411" lon="5.98431">
        <ele>203.94</ele>
        <time>2018-12-24T13:43:59Z</time>
      </trkpt>
      <trkpt lat="43.25424" lon="5.98403">
        <ele>202.98</ele>
        <time>2018-12-24T13:44:20Z</time>
      </trkpt>
      <trkpt lat="43.25434" lon="5.98365">
        <ele>202.98</ele>
        <time>2018-12-24T13:44:41Z</time>
      </trkpt>
      <trkpt lat="43.25436" lon="5.98347">
        <ele>203.94</ele>
        <time>2018-12-24T13:44:51Z</time>
      </trkpt>
      <trkpt lat="43.25435" lon="5.98311">
        <ele>205.86</ele>
        <time>2018-12-24T13:45:12Z</time>
      </trkpt>
      <trkpt lat="43.25436" lon="5.98274">
        <ele>204.42</ele>
        <time>2018-12-24T13:45:35Z</time>
      </trkpt>
      <trkpt lat="43.25432" lon="5.98242">
        <ele>205.86</ele>
        <time>2018-12-24T13:45:56Z</time>
      </trkpt>
      <trkpt lat="43.25431" lon="5.98214">
        <ele>205.86</ele>
        <time>2018-12-24T13:46:16Z</time>
      </trkpt>
      <trkpt lat="43.25428" lon="5.98193">
        <ele>206.34</ele>
        <time>2018-12-24T13:46:27Z</time>
      </trkpt>
      <trkpt lat="43.25423" lon="5.9817">
        <ele>210.19</ele>
        <time>2018-12-24T13:46:46Z</time>
      </trkpt>
      <trkpt lat="43.25425" lon="5.98155">
        <ele>206.34</ele>
        <time>2018-12-24T13:46:52Z</time>
      </trkpt>
      <trkpt lat="43.25427" lon="5.98144">
        <ele>209.22</ele>
        <time>2018-12-24T13:47:15Z</time>
      </trkpt>
      <trkpt lat="43.25424" lon="5.98135">
        <ele>209.7</ele>
        <time>2018-12-24T13:47:22Z</time>
      </trkpt>
      <trkpt lat="43.25423" lon="5.98131">
        <ele>208.26</ele>
        <time>2018-12-24T13:47:24Z</time>
      </trkpt>
      <trkpt lat="43.25417" lon="5.98116">
        <ele>210.67</ele>
        <time>2018-12-24T13:47:43Z</time>
      </trkpt>
      <trkpt lat="43.25417" lon="5.98113">
        <ele>210.67</ele>
        <time>2018-12-24T13:47:45Z</time>
      </trkpt>
      <trkpt lat="43.25413" lon="5.98081">
        <ele>211.15</ele>
        <time>2018-12-24T13:48:04Z</time>
      </trkpt>
      <trkpt lat="43.25413" lon="5.98077">
        <ele>212.59</ele>
        <time>2018-12-24T13:48:08Z</time>
      </trkpt>
      <trkpt lat="43.2541" lon="5.9806">
        <ele>214.03</ele>
        <time>2018-12-24T13:48:28Z</time>
      </trkpt>
      <trkpt lat="43.25397" lon="5.98056">
        <ele>217.4</ele>
        <time>2018-12-24T13:48:37Z</time>
      </trkpt>
      <trkpt lat="43.25396" lon="5.98052">
        <ele>210.25390625</ele>
      </trkpt>
      <trkpt lat="43.25376" lon="5.98013">
        <ele>215.609375</ele>
      </trkpt>
      <trkpt lat="43.25408" lon="5.98007">
        <ele>220.85546875</ele>
      </trkpt>
      <trkpt lat="43.25433" lon="5.98026">
        <ele>220.68359375</ele>
      </trkpt>
      <trkpt lat="43.25451" lon="5.98032">
        <ele>225.69921875</ele>
      </trkpt>
      <trkpt lat="43.25463" lon="5.97999">
        <ele>232.703125</ele>
      </trkpt>
      <trkpt lat="43.25488" lon="5.97972">
        <ele>239.85546875</ele>
      </trkpt>
      <trkpt lat="43.25498" lon="5.97966">
        <ele>243.23828125</ele>
      </trkpt>
      <trkpt lat="43.25501" lon="5.97953">
        <ele>245.03125</ele>
      </trkpt>
      <trkpt lat="43.25505" lon="5.97945">
        <ele>246.59375</ele>
      </trkpt>
      <trkpt lat="43.25501" lon="5.97952">
        <ele>245.13671875</ele>
      </trkpt>
      <trkpt lat="43.25488" lon="5.97948">
        <ele>242.63671875</ele>
      </trkpt>
      <trkpt lat="43.25477" lon="5.97945">
        <ele>240.72265625</ele>
      </trkpt>
      <trkpt lat="43.2547" lon="5.97945">
        <ele>240.35546875</ele>
      </trkpt>
      <trkpt lat="43.25452" lon="5.97937">
        <ele>242.640625</ele>
      </trkpt>
      <trkpt lat="43.25446" lon="5.97934">
        <ele>243.625</ele>
      </trkpt>
      <trkpt lat="43.25444" lon="5.97922">
        <ele>246.71484375</ele>
      </trkpt>
      <trkpt lat="43.25448" lon="5.97909">
        <ele>249.37890625</ele>
      </trkpt>
      <trkpt lat="43.25453" lon="5.97894">
        <ele>252.26171875</ele>
      </trkpt>
      <trkpt lat="43.25455" lon="5.97881">
        <ele>255.2109375</ele>
      </trkpt>
      <trkpt lat="43.25447" lon="5.97827">
        <ele>267.26171875</ele>
      </trkpt>
      <trkpt lat="43.25448" lon="5.97793">
        <ele>274.75</ele>
      </trkpt>
      <trkpt lat="43.25448" lon="5.97733">
        <ele>292.078125</ele>
      </trkpt>
      <trkpt lat="43.25449" lon="5.97702">
        <ele>301.8984375</ele>
      </trkpt>
      <trkpt lat="43.25453" lon="5.97688">
        <ele>305.859375</ele>
      </trkpt>
      <trkpt lat="43.25457" lon="5.9767">
        <ele>310.98828125</ele>
      </trkpt>
      <trkpt lat="43.25449" lon="5.97671">
        <ele>312.0546875</ele>
      </trkpt>
      <trkpt lat="43.2544" lon="5.97667">
        <ele>314.75</ele>
      </trkpt>
      <trkpt lat="43.25436" lon="5.97662">
        <ele>317.08203125</ele>
      </trkpt>
      <trkpt lat="43.25414" lon="5.97666">
        <ele>319.6328125</ele>
      </trkpt>
      <trkpt lat="43.25385" lon="5.97678">
        <ele>323.09765625</ele>
      </trkpt>
      <trkpt lat="43.25366" lon="5.97679">
        <ele>327.67578125</ele>
      </trkpt>
      <trkpt lat="43.25347" lon="5.97675">
        <ele>331.5859375</ele>
      </trkpt>
      <trkpt lat="43.25339" lon="5.97671">
        <ele>333.7265625</ele>
      </trkpt>
      <trkpt lat="43.25329" lon="5.97663">
        <ele>336.75</ele>
      </trkpt>
      <trkpt lat="43.2532" lon="5.97665">
        <ele>337.8046875</ele>
      </trkpt>
      <trkpt lat="43.2529" lon="5.97668">
        <ele>338.3359375</ele>
      </trkpt>
      <trkpt lat="43.25282" lon="5.97665">
        <ele>338.62109375</ele>
      </trkpt>
      <trkpt lat="43.25271" lon="5.97661">
        <ele>338.9375</ele>
      </trkpt>
      <trkpt lat="43.25263" lon="5.97663">
        <ele>338.35546875</ele>
      </trkpt>
      <trkpt lat="43.25253" lon="5.97662">
        <ele>338.2421875</ele>
      </trkpt>
      <trkpt lat="43.25249" lon="5.97656">
        <ele>338.73828125</ele>
      </trkpt>
      <trkpt lat="43.25231" lon="5.97644">
        <ele>338.71484375</ele>
      </trkpt>
      <trkpt lat="43.25217" lon="5.97641">
        <ele>337.6015625</ele>
      </trkpt>
      <trkpt lat="43.25196" lon="5.97647">
        <ele>333.32421875</ele>
      </trkpt>
      <trkpt lat="43.25175" lon="5.97653">
        <ele>328.9375</ele>
      </trkpt>
      <trkpt lat="43.25153" lon="5.97673">
        <ele>318.50390625</ele>
      </trkpt>
      <trkpt lat="43.25141" lon="5.9769">
        <ele>309.3671875</ele>
      </trkpt>
      <trkpt lat="43.25133" lon="5.97699">
        <ele>306.546875</ele>
      </trkpt>
      <trkpt lat="43.25119" lon="5.977">
        <ele>305.86328125</ele>
      </trkpt>
      <trkpt lat="43.25092" lon="5.97691">
        <ele>308.4453125</ele>
      </trkpt>
      <trkpt lat="43.25076" lon="5.97682">
        <ele>313.04296875</ele>
      </trkpt>
      <trkpt lat="43.25068" lon="5.97676">
        <ele>316.33203125</ele>
      </trkpt>
      <trkpt lat="43.25055" lon="5.97678">
        <ele>316.6796875</ele>
      </trkpt>
      <trkpt lat="43.25047" lon="5.97691">
        <ele>312.37890625</ele>
      </trkpt>
      <trkpt lat="43.25031" lon="5.97695">
        <ele>312.96484375</ele>
      </trkpt>
      <trkpt lat="43.25014" lon="5.97684">
        <ele>316.6171875</ele>
      </trkpt>
      <trkpt lat="43.24988" lon="5.97672">
        <ele>320.43359375</ele>
      </trkpt>
      <trkpt lat="43.24964" lon="5.9767">
        <ele>322.203125</ele>
      </trkpt>
      <trkpt lat="43.24953" lon="5.97669">
        <ele>323.5390625</ele>
      </trkpt>
      <trkpt lat="43.24944" lon="5.97679">
        <ele>322.35546875</ele>
      </trkpt>
      <trkpt lat="43.24939" lon="5.977">
        <ele>319.89453125</ele>
      </trkpt>
      <trkpt lat="43.24939" lon="5.97737">
        <ele>317.20703125</ele>
      </trkpt>
      <trkpt lat="43.24938" lon="5.97772">
        <ele>317.51171875</ele>
      </trkpt>
      <trkpt lat="43.2494" lon="5.97807">
        <ele>317.78515625</ele>
      </trkpt>
      <trkpt lat="43.24942" lon="5.97834">
        <ele>322.296875</ele>
      </trkpt>
      <trkpt lat="43.24941" lon="5.97846">
        <ele>324.73828125</ele>
      </trkpt>
      <trkpt lat="43.2493" lon="5.97858">
        <ele>329.484375</ele>
      </trkpt>
      <trkpt lat="43.24929" lon="5.97868">
        <ele>330.49609375</ele>
      </trkpt>
      <trkpt lat="43.24937" lon="5.97911">
        <ele>332.015625</ele>
      </trkpt>
      <trkpt lat="43.24953" lon="5.97938">
        <ele>329.5625</ele>
      </trkpt>
      <trkpt lat="43.24983" lon="5.9795">
        <ele>327.09765625</ele>
      </trkpt>
      <trkpt lat="43.24997" lon="5.97962">
        <ele>325.9765625</ele>
      </trkpt>
      <trkpt lat="43.25013" lon="5.97977">
        <ele>324.72265625</ele>
      </trkpt>
      <trkpt lat="43.25041" lon="5.98045">
        <ele>318.21875</ele>
      </trkpt>
      <trkpt lat="43.25053" lon="5.98078">
        <ele>313.06640625</ele>
      </trkpt>
      <trkpt lat="43.25083" lon="5.98109">
        <ele>308.5</ele>
      </trkpt>
      <trkpt lat="43.25091" lon="5.98127">
        <ele>305.609375</ele>
      </trkpt>
      <trkpt lat="43.25094" lon="5.98165">
        <ele>305.4609375</ele>
      </trkpt>
      <trkpt lat="43.25087" lon="5.98209">
        <ele>312.19921875</ele>
      </trkpt>
      <trkpt lat="43.25065" lon="5.98241">
        <ele>317.51171875</ele>
      </trkpt>
      <trkpt lat="43.25045" lon="5.98261">
        <ele>319.4921875</ele>
      </trkpt>
      <trkpt lat="43.25015" lon="5.9829">
        <ele>319.4296875</ele>
      </trkpt>
      <trkpt lat="43.24971" lon="5.98337">
        <ele>315.23828125</ele>
      </trkpt>
      <trkpt lat="43.24943" lon="5.9837">
        <ele>309.04296875</ele>
      </trkpt>
      <trkpt lat="43.24928" lon="5.98398">
        <ele>304.0625</ele>
      </trkpt>
      <trkpt lat="43.2493" lon="5.98412">
        <ele>303.4375</ele>
      </trkpt>
      <trkpt lat="43.24951" lon="5.98436">
        <ele>301.54296875</ele>
      </trkpt>
      <trkpt lat="43.24979" lon="5.9846">
        <ele>301.625</ele>
      </trkpt>
      <trkpt lat="43.2499" lon="5.98482">
        <ele>298.16015625</ele>
      </trkpt>
      <trkpt lat="43.24991" lon="5.98494">
        <ele>296.421875</ele>
      </trkpt>
      <trkpt lat="43.24988" lon="5.98526">
        <ele>291.46875</ele>
      </trkpt>
      <trkpt lat="43.24988" lon="5.98541">
        <ele>289.06640625</ele>
      </trkpt>
      <trkpt lat="43.24995" lon="5.98551">
        <ele>287.2578125</ele>
      </trkpt>
      <trkpt lat="43.25055" lon="5.98571">
        <ele>277.0546875</ele>
      </trkpt>
      <trkpt lat="43.25068" lon="5.98584">
        <ele>272.37109375</ele>
      </trkpt>
      <trkpt lat="43.25073" lon="5.98627">
        <ele>266.25390625</ele>
      </trkpt>
      <trkpt lat="43.25065" lon="5.98682">
        <ele>263.3828125</ele>
      </trkpt>
      <trkpt lat="43.25058" lon="5.98716">
        <ele>264.12890625</ele>
      </trkpt>
      <trkpt lat="43.25045" lon="5.98738">
        <ele>268.21875</ele>
      </trkpt>
      <trkpt lat="43.25042" lon="5.98741">
        <ele>269.05859375</ele>
      </trkpt>
      <trkpt lat="43.25028" lon="5.98728">
        <ele>273.76171875</ele>
      </trkpt>
      <trkpt lat="43.24998" lon="5.98714">
        <ele>276.65234375</ele>
      </trkpt>
      <trkpt lat="43.24972" lon="5.98712">
        <ele>278.34765625</ele>
      </trkpt>
      <trkpt lat="43.24914" lon="5.98758">
        <ele>278.98828125</ele>
      </trkpt>
      <trkpt lat="43.24914" lon="5.98759">
        <ele>284.21</ele>
        <time>2018-12-24T14:44:38Z</time>
      </trkpt>
      <trkpt lat="43.2491" lon="5.98768">
        <ele>283.73</ele>
        <time>2018-12-24T14:44:46Z</time>
      </trkpt>
      <trkpt lat="43.24907" lon="5.98776">
        <ele>283.73</ele>
        <time>2018-12-24T14:44:54Z</time>
      </trkpt>
      <trkpt lat="43.249" lon="5.98777">
        <ele>282.28</ele>
        <time>2018-12-24T14:45:04Z</time>
      </trkpt>
      <trkpt lat="43.24891" lon="5.98756">
        <ele>282.77</ele>
        <time>2018-12-24T14:45:22Z</time>
      </trkpt>
      <trkpt lat="43.24891" lon="5.98755">
        <ele>282.77</ele>
        <time>2018-12-24T14:45:23Z</time>
      </trkpt>
      <trkpt lat="43.24888" lon="5.98744">
        <ele>281.8</ele>
        <time>2018-12-24T14:45:32Z</time>
      </trkpt>
      <trkpt lat="43.24887" lon="5.98743">
        <ele>281.8</ele>
        <time>2018-12-24T14:45:33Z</time>
      </trkpt>
      <trkpt lat="43.24877" lon="5.98728">
        <ele>281.32</ele>
        <time>2018-12-24T14:45:47Z</time>
      </trkpt>
      <trkpt lat="43.24867" lon="5.98718">
        <ele>280.84</ele>
        <time>2018-12-24T14:46:02Z</time>
      </trkpt>
      <trkpt lat="43.24864" lon="5.98716">
        <ele>280.84</ele>
        <time>2018-12-24T14:46:05Z</time>
      </trkpt>
      <trkpt lat="43.24845" lon="5.98708">
        <ele>279.4</ele>
        <time>2018-12-24T14:46:23Z</time>
      </trkpt>
      <trkpt lat="43.24838" lon="5.98705">
        <ele>277</ele>
        <time>2018-12-24T14:46:29Z</time>
      </trkpt>
      <trkpt lat="43.24818" lon="5.98707">
        <ele>274.11</ele>
        <time>2018-12-24T14:46:45Z</time>
      </trkpt>
      <trkpt lat="43.24816" lon="5.98708">
        <ele>274.11</ele>
        <time>2018-12-24T14:46:46Z</time>
      </trkpt>
      <trkpt lat="43.24806" lon="5.98706">
        <ele>275.56</ele>
        <time>2018-12-24T14:46:54Z</time>
      </trkpt>
      <trkpt lat="43.248" lon="5.98708">
        <ele>274.11</ele>
        <time>2018-12-24T14:47:00Z</time>
      </trkpt>
      <trkpt lat="43.24791" lon="5.98706">
        <ele>272.19</ele>
        <time>2018-12-24T14:47:16Z</time>
      </trkpt>
      <trkpt lat="43.24781" lon="5.98715">
        <ele>271.71</ele>
        <time>2018-12-24T14:47:36Z</time>
      </trkpt>
      <trkpt lat="43.24777" lon="5.98723">
        <ele>271.23</ele>
        <time>2018-12-24T14:47:50Z</time>
      </trkpt>
      <trkpt lat="43.24773" lon="5.98725">
        <ele>270.75</ele>
        <time>2018-12-24T14:47:54Z</time>
      </trkpt>
      <trkpt lat="43.24761" lon="5.98739">
        <ele>269.31</ele>
        <time>2018-12-24T14:48:10Z</time>
      </trkpt>
      <trkpt lat="43.24756" lon="5.98751">
        <ele>267.38</ele>
        <time>2018-12-24T14:48:29Z</time>
      </trkpt>
      <trkpt lat="43.24757" lon="5.98751">
        <ele>268.83</ele>
        <time>2018-12-24T14:48:33Z</time>
      </trkpt>
      <trkpt lat="43.24745" lon="5.98759">
        <ele>266.42</ele>
        <time>2018-12-24T14:48:44Z</time>
      </trkpt>
      <trkpt lat="43.24739" lon="5.98765">
        <ele>264.5</ele>
        <time>2018-12-24T14:48:51Z</time>
      </trkpt>
      <trkpt lat="43.24734" lon="5.98766">
        <ele>263.54</ele>
        <time>2018-12-24T14:49:07Z</time>
      </trkpt>
      <trkpt lat="43.24731" lon="5.9877">
        <ele>263.54</ele>
        <time>2018-12-24T14:49:17Z</time>
      </trkpt>
      <trkpt lat="43.24726" lon="5.98779">
        <ele>262.58</ele>
        <time>2018-12-24T14:49:25Z</time>
      </trkpt>
      <trkpt lat="43.24723" lon="5.98788">
        <ele>264.02</ele>
        <time>2018-12-24T14:49:31Z</time>
      </trkpt>
      <trkpt lat="43.24719" lon="5.98808">
        <ele>264.5</ele>
        <time>2018-12-24T14:49:42Z</time>
      </trkpt>
      <trkpt lat="43.24715" lon="5.98818">
        <ele>264.98</ele>
        <time>2018-12-24T14:49:58Z</time>
      </trkpt>
      <trkpt lat="43.24716" lon="5.98833">
        <ele>264.5</ele>
        <time>2018-12-24T14:50:20Z</time>
      </trkpt>
      <trkpt lat="43.24719" lon="5.98844">
        <ele>264.5</ele>
        <time>2018-12-24T14:50:44Z</time>
      </trkpt>
      <trkpt lat="43.24717" lon="5.98861">
        <ele>265.94</ele>
        <time>2018-12-24T14:50:59Z</time>
      </trkpt>
      <trkpt lat="43.24717" lon="5.98867">
        <ele>266.42</ele>
        <time>2018-12-24T14:51:15Z</time>
      </trkpt>
      <trkpt lat="43.24718" lon="5.98879">
        <ele>267.86</ele>
        <time>2018-12-24T14:51:32Z</time>
      </trkpt>
      <trkpt lat="43.24717" lon="5.98894">
        <ele>266.9</ele>
        <time>2018-12-24T14:51:45Z</time>
      </trkpt>
      <trkpt lat="43.24678" lon="5.99096">
        <ele>261.14</ele>
        <time>2018-12-24T15:11:28Z</time>
      </trkpt>
      <trkpt lat="43.24668" lon="5.99105">
        <ele>257.77</ele>
        <time>2018-12-24T15:11:44Z</time>
      </trkpt>
      <trkpt lat="43.24661" lon="5.99113">
        <ele>254.89</ele>
        <time>2018-12-24T15:11:59Z</time>
      </trkpt>
      <trkpt lat="43.24655" lon="5.99117">
        <ele>252.96</ele>
        <time>2018-12-24T15:12:07Z</time>
      </trkpt>
      <trkpt lat="43.24642" lon="5.99134">
        <ele>250.08</ele>
        <time>2018-12-24T15:12:24Z</time>
      </trkpt>
      <trkpt lat="43.24636" lon="5.99143">
        <ele>247.2</ele>
        <time>2018-12-24T15:12:35Z</time>
      </trkpt>
      <trkpt lat="43.24627" lon="5.99154">
        <ele>243.83</ele>
        <time>2018-12-24T15:12:48Z</time>
      </trkpt>
      <trkpt lat="43.24625" lon="5.99158">
        <ele>243.83</ele>
        <time>2018-12-24T15:12:51Z</time>
      </trkpt>
      <trkpt lat="43.2462" lon="5.99172">
        <ele>242.87</ele>
        <time>2018-12-24T15:13:01Z</time>
      </trkpt>
      <trkpt lat="43.24612" lon="5.99191">
        <ele>242.39</ele>
        <time>2018-12-24T15:13:16Z</time>
      </trkpt>
      <trkpt lat="43.24612" lon="5.99194">
        <ele>242.39</ele>
        <time>2018-12-24T15:13:18Z</time>
      </trkpt>
      <trkpt lat="43.24601" lon="5.99213">
        <ele>239.02</ele>
        <time>2018-12-24T15:13:36Z</time>
      </trkpt>
      <trkpt lat="43.24598" lon="5.99219">
        <ele>238.06</ele>
        <time>2018-12-24T15:13:42Z</time>
      </trkpt>
      <trkpt lat="43.24591" lon="5.99235">
        <ele>236.62</ele>
        <time>2018-12-24T15:13:57Z</time>
      </trkpt>
      <trkpt lat="43.24582" lon="5.99257">
        <ele>234.7</ele>
        <time>2018-12-24T15:14:15Z</time>
      </trkpt>
      <trkpt lat="43.24578" lon="5.99264">
        <ele>233.74</ele>
        <time>2018-12-24T15:14:22Z</time>
      </trkpt>
      <trkpt lat="43.24569" lon="5.99279">
        <ele>231.33</ele>
        <time>2018-12-24T15:14:37Z</time>
      </trkpt>
      <trkpt lat="43.24562" lon="5.99298">
        <ele>228.93</ele>
        <time>2018-12-24T15:14:54Z</time>
      </trkpt>
      <trkpt lat="43.24558" lon="5.99315">
        <ele>227.01</ele>
        <time>2018-12-24T15:15:09Z</time>
      </trkpt>
      <trkpt lat="43.24551" lon="5.99333">
        <ele>224.61</ele>
        <time>2018-12-24T15:15:26Z</time>
      </trkpt>
      <trkpt lat="43.24543" lon="5.99352">
        <ele>222.68</ele>
        <time>2018-12-24T15:15:41Z</time>
      </trkpt>
      <trkpt lat="43.24539" lon="5.9937">
        <ele>221.24</ele>
        <time>2018-12-24T15:15:55Z</time>
      </trkpt>
      <trkpt lat="43.24535" lon="5.99379">
        <ele>219.8</ele>
        <time>2018-12-24T15:16:06Z</time>
      </trkpt>
      <trkpt lat="43.24531" lon="5.99387">
        <ele>217.4</ele>
        <time>2018-12-24T15:16:14Z</time>
      </trkpt>
      <trkpt lat="43.24529" lon="5.99391">
        <ele>215.95</ele>
        <time>2018-12-24T15:16:18Z</time>
      </trkpt>
      <trkpt lat="43.24519" lon="5.99409">
        <ele>213.07</ele>
        <time>2018-12-24T15:16:35Z</time>
      </trkpt>
      <trkpt lat="43.24512" lon="5.9942">
        <ele>211.63</ele>
        <time>2018-12-24T15:16:51Z</time>
      </trkpt>
      <trkpt lat="43.24508" lon="5.99433">
        <ele>210.19</ele>
        <time>2018-12-24T15:17:06Z</time>
      </trkpt>
      <trkpt lat="43.24504" lon="5.99446">
        <ele>210.19</ele>
        <time>2018-12-24T15:17:21Z</time>
      </trkpt>
      <trkpt lat="43.24502" lon="5.99458">
        <ele>210.19</ele>
        <time>2018-12-24T15:17:36Z</time>
      </trkpt>
      <trkpt lat="43.24502" lon="5.99477">
        <ele>209.22</ele>
        <time>2018-12-24T15:17:51Z</time>
      </trkpt>
      <trkpt lat="43.24498" lon="5.99492">
        <ele>206.82</ele>
        <time>2018-12-24T15:18:06Z</time>
      </trkpt>
      <trkpt lat="43.24498" lon="5.99512">
        <ele>204.9</ele>
        <time>2018-12-24T15:18:21Z</time>
      </trkpt>
      <trkpt lat="43.24497" lon="5.99533">
        <ele>202.49</ele>
        <time>2018-12-24T15:18:37Z</time>
      </trkpt>
      <trkpt lat="43.24494" lon="5.99549">
        <ele>200.57</ele>
        <time>2018-12-24T15:18:53Z</time>
      </trkpt>
      <trkpt lat="43.24494" lon="5.99566">
        <ele>198.17</ele>
        <time>2018-12-24T15:19:07Z</time>
      </trkpt>
      <trkpt lat="43.24495" lon="5.99566">
        <ele>199.61</ele>
        <time>2018-12-24T15:19:09Z</time>
      </trkpt>
      <trkpt lat="43.24494" lon="5.99566">
        <ele>198.17</ele>
        <time>2018-12-24T15:19:13Z</time>
      </trkpt>
      <trkpt lat="43.24492" lon="5.99576">
        <ele>195.77</ele>
        <time>2018-12-24T15:19:25Z</time>
      </trkpt>
      <trkpt lat="43.24489" lon="5.99585">
        <ele>194.32</ele>
        <time>2018-12-24T15:19:35Z</time>
      </trkpt>
      <trkpt lat="43.24488" lon="5.99595">
        <ele>193.84</ele>
        <time>2018-12-24T15:19:49Z</time>
      </trkpt>
      <trkpt lat="43.24487" lon="5.99602">
        <ele>193.36</ele>
        <time>2018-12-24T15:19:57Z</time>
      </trkpt>
      <trkpt lat="43.24484" lon="5.99617">
        <ele>191.44</ele>
        <time>2018-12-24T15:20:10Z</time>
      </trkpt>
      <trkpt lat="43.24484" lon="5.9963">
        <ele>189.04</ele>
        <time>2018-12-24T15:20:23Z</time>
      </trkpt>
      <trkpt lat="43.24483" lon="5.99646">
        <ele>187.59</ele>
        <time>2018-12-24T15:20:37Z</time>
      </trkpt>
      <trkpt lat="43.24486" lon="5.99667">
        <ele>185.67</ele>
        <time>2018-12-24T15:20:52Z</time>
      </trkpt>
      <trkpt lat="43.24486" lon="5.99669">
        <ele>184.71</ele>
        <time>2018-12-24T15:20:54Z</time>
      </trkpt>
      <trkpt lat="43.24484" lon="5.99688">
        <ele>184.71</ele>
        <time>2018-12-24T15:21:10Z</time>
      </trkpt>
      <trkpt lat="43.24489" lon="5.9971">
        <ele>184.23</ele>
        <time>2018-12-24T15:21:25Z</time>
      </trkpt>
      <trkpt lat="43.24493" lon="5.99733">
        <ele>181.83</ele>
        <time>2018-12-24T15:21:41Z</time>
      </trkpt>
      <trkpt lat="43.24498" lon="5.99751">
        <ele>178.94</ele>
        <time>2018-12-24T15:21:54Z</time>
      </trkpt>
      <trkpt lat="43.24498" lon="5.99765">
        <ele>178.94</ele>
        <time>2018-12-24T15:22:06Z</time>
      </trkpt>
      <trkpt lat="43.24497" lon="5.99769">
        <ele>177.98</ele>
        <time>2018-12-24T15:22:10Z</time>
      </trkpt>
      <trkpt lat="43.24498" lon="5.99777">
        <ele>177.02</ele>
        <time>2018-12-24T15:22:22Z</time>
      </trkpt>
      <trkpt lat="43.24497" lon="5.9978">
        <ele>174.62</ele>
        <time>2018-12-24T15:22:40Z</time>
      </trkpt>
      <trkpt lat="43.24493" lon="5.99785">
        <ele>172.69</ele>
        <time>2018-12-24T15:22:52Z</time>
      </trkpt>
      <trkpt lat="43.24498" lon="5.99793">
        <ele>171.25</ele>
        <time>2018-12-24T15:23:06Z</time>
      </trkpt>
      <trkpt lat="43.24501" lon="5.99811">
        <ele>170.29</ele>
        <time>2018-12-24T15:23:20Z</time>
      </trkpt>
      <trkpt lat="43.245" lon="5.9983">
        <ele>168.85</ele>
        <time>2018-12-24T15:23:34Z</time>
      </trkpt>
      <trkpt lat="43.24501" lon="5.99841">
        <ele>168.37</ele>
        <time>2018-12-24T15:23:49Z</time>
      </trkpt>
      <trkpt lat="43.24505" lon="5.99845">
        <ele>168.37</ele>
        <time>2018-12-24T15:24:06Z</time>
      </trkpt>
      <trkpt lat="43.24511" lon="5.99853">
        <ele>169.81</ele>
        <time>2018-12-24T15:24:16Z</time>
      </trkpt>
      <trkpt lat="43.24519" lon="5.99865">
        <ele>170.29</ele>
        <time>2018-12-24T15:24:33Z</time>
      </trkpt>
      <trkpt lat="43.24535" lon="5.99888">
        <ele>162.65625</ele>
      </trkpt>
      <trkpt lat="43.24538" lon="5.99898">
        <ele>161.890625</ele>
      </trkpt>
      <trkpt lat="43.24529" lon="5.99915">
        <ele>160.66015625</ele>
      </trkpt>
      <trkpt lat="43.24526" lon="5.99921">
        <ele>160.09765625</ele>
      </trkpt>
      <trkpt lat="43.2451" lon="5.99935">
        <ele>158.16796875</ele>
      </trkpt>
      <trkpt lat="43.24509" lon="5.99939">
        <ele>157.8125</ele>
      </trkpt>
      <trkpt lat="43.2452" lon="5.99977">
        <ele>156.04296875</ele>
      </trkpt>
      <trkpt lat="43.24526" lon="5.99999">
        <ele>155.60546875</ele>
      </trkpt>
      <trkpt lat="43.24519" lon="6.00009">
        <ele>155.01171875</ele>
      </trkpt>
      <trkpt lat="43.24513" lon="6.00017">
        <ele>154.5234375</ele>
      </trkpt>
      <trkpt lat="43.24516" lon="6.00036">
        <ele>154.5</ele>
      </trkpt>
      <trkpt lat="43.24484" lon="6.00043">
        <ele>153.57421875</ele>
      </trkpt>
      <trkpt lat="43.24454" lon="6.00045">
        <ele>153.4453125</ele>
      </trkpt>
      <trkpt lat="43.24414" lon="6.00046">
        <ele>153.640625</ele>
      </trkpt>
      <trkpt lat="43.24389" lon="6.00055">
        <ele>154.265625</ele>
      </trkpt>
      <trkpt lat="43.24364" lon="6.00079">
        <ele>155.984375</ele>
      </trkpt>
      <trkpt lat="43.24346" lon="6.00101">
        <ele>157.1796875</ele>
      </trkpt>
      <trkpt lat="43.24335" lon="6.0012">
        <ele>158.21875</ele>
      </trkpt>
    </trkseg>
  </trk>
  <trk>
    <name><![CDATA[BELGENT_BV_REV]]></name>
    <desc><![CDATA[parcours BV modifié pour reconnaissance le 27 decembre]]></desc>
    <trkseg>
      <trkpt lat="43.24335" lon="6.0012">
        <ele>158.21875</ele>
      </trkpt>
      <trkpt lat="43.24346" lon="6.00101">
        <ele>157.1796875</ele>
      </trkpt>
      <trkpt lat="43.24364" lon="6.00079">
        <ele>155.984375</ele>
      </trkpt>
      <trkpt lat="43.24389" lon="6.00055">
        <ele>154.265625</ele>
      </trkpt>
      <trkpt lat="43.24414" lon="6.00046">
        <ele>153.640625</ele>
      </trkpt>
      <trkpt lat="43.24454" lon="6.00045">
        <ele>153.4453125</ele>
      </trkpt>
      <trkpt lat="43.24484" lon="6.00043">
        <ele>153.57421875</ele>
      </trkpt>
      <trkpt lat="43.24516" lon="6.00036">
        <ele>154.5</ele>
      </trkpt>
      <trkpt lat="43.24513" lon="6.00017">
        <ele>154.5234375</ele>
      </trkpt>
      <trkpt lat="43.24519" lon="6.00009">
        <ele>155.01171875</ele>
      </trkpt>
      <trkpt lat="43.24526" lon="5.99999">
        <ele>155.60546875</ele>
      </trkpt>
      <trkpt lat="43.2452" lon="5.99977">
        <ele>156.04296875</ele>
      </trkpt>
      <trkpt lat="43.24509" lon="5.99939">
        <ele>157.8125</ele>
      </trkpt>
      <trkpt lat="43.2451" lon="5.99935">
        <ele>158.16796875</ele>
      </trkpt>
      <trkpt lat="43.24526" lon="5.99921">
        <ele>160.09765625</ele>
      </trkpt>
      <trkpt lat="43.24529" lon="5.99915">
        <ele>160.66015625</ele>
      </trkpt>
      <trkpt lat="43.24538" lon="5.99898">
        <ele>161.890625</ele>
      </trkpt>
      <trkpt lat="43.24535" lon="5.99888">
        <ele>162.65625</ele>
      </trkpt>
      <trkpt lat="43.24519" lon="5.99865">
        <ele>170.29</ele>
        <time>2018-12-24T15:24:33Z</time>
      </trkpt>
      <trkpt lat="43.24511" lon="5.99853">
        <ele>169.81</ele>
        <time>2018-12-24T15:24:16Z</time>
      </trkpt>
      <trkpt lat="43.24505" lon="5.99845">
        <ele>168.37</ele>
        <time>2018-12-24T15:24:06Z</time>
      </trkpt>
      <trkpt lat="43.24501" lon="5.99841">
        <ele>168.37</ele>
        <time>2018-12-24T15:23:49Z</time>
      </trkpt>
      <trkpt lat="43.245" lon="5.9983">
        <ele>168.85</ele>
        <time>2018-12-24T15:23:34Z</time>
      </trkpt>
      <trkpt lat="43.24501" lon="5.99811">
        <ele>170.29</ele>
        <time>2018-12-24T15:23:20Z</time>
      </trkpt>
      <trkpt lat="43.24498" lon="5.99793">
        <ele>171.25</ele>
        <time>2018-12-24T15:23:06Z</time>
      </trkpt>
      <trkpt lat="43.24493" lon="5.99785">
        <ele>172.69</ele>
        <time>2018-12-24T15:22:52Z</time>
      </trkpt>
      <trkpt lat="43.24497" lon="5.9978">
        <ele>174.62</ele>
        <time>2018-12-24T15:22:40Z</time>
      </trkpt>
      <trkpt lat="43.24498" lon="5.99777">
        <ele>177.02</ele>
        <time>2018-12-24T15:22:22Z</time>
      </trkpt>
      <trkpt lat="43.24497" lon="5.99769">
        <ele>177.98</ele>
        <time>2018-12-24T15:22:10Z</time>
      </trkpt>
      <trkpt lat="43.24498" lon="5.99765">
        <ele>178.94</ele>
        <time>2018-12-24T15:22:06Z</time>
      </trkpt>
      <trkpt lat="43.24498" lon="5.99751">
        <ele>178.94</ele>
        <time>2018-12-24T15:21:54Z</time>
      </trkpt>
      <trkpt lat="43.24493" lon="5.99733">
        <ele>181.83</ele>
        <time>2018-12-24T15:21:41Z</time>
      </trkpt>
      <trkpt lat="43.24489" lon="5.9971">
        <ele>184.23</ele>
        <time>2018-12-24T15:21:25Z</time>
      </trkpt>
      <trkpt lat="43.24484" lon="5.99688">
        <ele>184.71</ele>
        <time>2018-12-24T15:21:10Z</time>
      </trkpt>
      <trkpt lat="43.24486" lon="5.99669">
        <ele>184.71</ele>
        <time>2018-12-24T15:20:54Z</time>
      </trkpt>
      <trkpt lat="43.24486" lon="5.99667">
        <ele>185.67</ele>
        <time>2018-12-24T15:20:52Z</time>
      </trkpt>
      <trkpt lat="43.24483" lon="5.99646">
        <ele>187.59</ele>
        <time>2018-12-24T15:20:37Z</time>
      </trkpt>
      <trkpt lat="43.24484" lon="5.9963">
        <ele>189.04</ele>
        <time>2018-12-24T15:20:23Z</time>
      </trkpt>
      <trkpt lat="43.24484" lon="5.99617">
        <ele>191.44</ele>
        <time>2018-12-24T15:20:10Z</time>
      </trkpt>
      <trkpt lat="43.24487" lon="5.99602">
        <ele>193.36</ele>
        <time>2018-12-24T15:19:57Z</time>
      </trkpt>
      <trkpt lat="43.24488" lon="5.99595">
        <ele>193.84</ele>
        <time>2018-12-24T15:19:49Z</time>
      </trkpt>
      <trkpt lat="43.24489" lon="5.99585">
        <ele>194.32</ele>
        <time>2018-12-24T15:19:35Z</time>
      </trkpt>
      <trkpt lat="43.24492" lon="5.99576">
        <ele>195.77</ele>
        <time>2018-12-24T15:19:25Z</time>
      </trkpt>
      <trkpt lat="43.24494" lon="5.99566">
        <ele>198.17</ele>
        <time>2018-12-24T15:19:13Z</time>
      </trkpt>
      <trkpt lat="43.24495" lon="5.99566">
        <ele>199.61</ele>
        <time>2018-12-24T15:19:09Z</time>
      </trkpt>
      <trkpt lat="43.24494" lon="5.99566">
        <ele>198.17</ele>
        <time>2018-12-24T15:19:07Z</time>
      </trkpt>
      <trkpt lat="43.24494" lon="5.99549">
        <ele>200.57</ele>
        <time>2018-12-24T15:18:53Z</time>
      </trkpt>
      <trkpt lat="43.24497" lon="5.99533">
        <ele>202.49</ele>
        <time>2018-12-24T15:18:37Z</time>
      </trkpt>
      <trkpt lat="43.24498" lon="5.99512">
        <ele>204.9</ele>
        <time>2018-12-24T15:18:21Z</time>
      </trkpt>
      <trkpt lat="43.24498" lon="5.99492">
        <ele>206.82</ele>
        <time>2018-12-24T15:18:06Z</time>
      </trkpt>
      <trkpt lat="43.24502" lon="5.99477">
        <ele>209.22</ele>
        <time>2018-12-24T15:17:51Z</time>
      </trkpt>
      <trkpt lat="43.24502" lon="5.99458">
        <ele>210.19</ele>
        <time>2018-12-24T15:17:36Z</time>
      </trkpt>
      <trkpt lat="43.24504" lon="5.99446">
        <ele>210.19</ele>
        <time>2018-12-24T15:17:21Z</time>
      </trkpt>
      <trkpt lat="43.24508" lon="5.99433">
        <ele>210.19</ele>
        <time>2018-12-24T15:17:06Z</time>
      </trkpt>
      <trkpt lat="43.24512" lon="5.9942">
        <ele>211.63</ele>
        <time>2018-12-24T15:16:51Z</time>
      </trkpt>
      <trkpt lat="43.24519" lon="5.99409">
        <ele>213.07</ele>
        <time>2018-12-24T15:16:35Z</time>
      </trkpt>
      <trkpt lat="43.24529" lon="5.99391">
        <ele>215.95</ele>
        <time>2018-12-24T15:16:18Z</time>
      </trkpt>
      <trkpt lat="43.24531" lon="5.99387">
        <ele>217.4</ele>
        <time>2018-12-24T15:16:14Z</time>
      </trkpt>
      <trkpt lat="43.24535" lon="5.99379">
        <ele>219.8</ele>
        <time>2018-12-24T15:16:06Z</time>
      </trkpt>
      <trkpt lat="43.24539" lon="5.9937">
        <ele>221.24</ele>
        <time>2018-12-24T15:15:55Z</time>
      </trkpt>
      <trkpt lat="43.24543" lon="5.99352">
        <ele>222.68</ele>
        <time>2018-12-24T15:15:41Z</time>
      </trkpt>
      <trkpt lat="43.24551" lon="5.99333">
        <ele>224.61</ele>
        <time>2018-12-24T15:15:26Z</time>
      </trkpt>
      <trkpt lat="43.24558" lon="5.99315">
        <ele>227.01</ele>
        <time>2018-12-24T15:15:09Z</time>
      </trkpt>
      <trkpt lat="43.24562" lon="5.99298">
        <ele>228.93</ele>
        <time>2018-12-24T15:14:54Z</time>
      </trkpt>
      <trkpt lat="43.24569" lon="5.99279">
        <ele>231.33</ele>
        <time>2018-12-24T15:14:37Z</time>
      </trkpt>
      <trkpt lat="43.24578" lon="5.99264">
        <ele>233.74</ele>
        <time>2018-12-24T15:14:22Z</time>
      </trkpt>
      <trkpt lat="43.24582" lon="5.99257">
        <ele>234.7</ele>
        <time>2018-12-24T15:14:15Z</time>
      </trkpt>
      <trkpt lat="43.24591" lon="5.99235">
        <ele>236.62</ele>
        <time>2018-12-24T15:13:57Z</time>
      </trkpt>
      <trkpt lat="43.24598" lon="5.99219">
        <ele>238.06</ele>
        <time>2018-12-24T15:13:42Z</time>
      </trkpt>
      <trkpt lat="43.24601" lon="5.99213">
        <ele>239.02</ele>
        <time>2018-12-24T15:13:36Z</time>
      </trkpt>
      <trkpt lat="43.24612" lon="5.99194">
        <ele>242.39</ele>
        <time>2018-12-24T15:13:18Z</time>
      </trkpt>
      <trkpt lat="43.24612" lon="5.99191">
        <ele>242.39</ele>
        <time>2018-12-24T15:13:16Z</time>
      </trkpt>
      <trkpt lat="43.2462" lon="5.99172">
        <ele>242.87</ele>
        <time>2018-12-24T15:13:01Z</time>
      </trkpt>
      <trkpt lat="43.24625" lon="5.99158">
        <ele>243.83</ele>
        <time>2018-12-24T15:12:51Z</time>
      </trkpt>
      <trkpt lat="43.24627" lon="5.99154">
        <ele>243.83</ele>
        <time>2018-12-24T15:12:48Z</time>
      </trkpt>
      <trkpt lat="43.24636" lon="5.99143">
        <ele>247.2</ele>
        <time>2018-12-24T15:12:35Z</time>
      </trkpt>
      <trkpt lat="43.24642" lon="5.99134">
        <ele>250.08</ele>
        <time>2018-12-24T15:12:24Z</time>
      </trkpt>
      <trkpt lat="43.24655" lon="5.99117">
        <ele>252.96</ele>
        <time>2018-12-24T15:12:07Z</time>
      </trkpt>
      <trkpt lat="43.24661" lon="5.99113">
        <ele>254.89</ele>
        <time>2018-12-24T15:11:59Z</time>
      </trkpt>
      <trkpt lat="43.24668" lon="5.99105">
        <ele>257.77</ele>
        <time>2018-12-24T15:11:44Z</time>
      </trkpt>
      <trkpt lat="43.24678" lon="5.99096">
        <ele>261.14</ele>
        <time>2018-12-24T15:11:28Z</time>
      </trkpt>
      <trkpt lat="43.24717" lon="5.98894">
        <ele>266.9</ele>
        <time>2018-12-24T14:51:45Z</time>
      </trkpt>
      <trkpt lat="43.24718" lon="5.98879">
        <ele>267.86</ele>
        <time>2018-12-24T14:51:32Z</time>
      </trkpt>
      <trkpt lat="43.24717" lon="5.98867">
        <ele>266.42</ele>
        <time>2018-12-24T14:51:15Z</time>
      </trkpt>
      <trkpt lat="43.24717" lon="5.98861">
        <ele>265.94</ele>
        <time>2018-12-24T14:50:59Z</time>
      </trkpt>
      <trkpt lat="43.24719" lon="5.98844">
        <ele>264.5</ele>
        <time>2018-12-24T14:50:44Z</time>
      </trkpt>
      <trkpt lat="43.24716" lon="5.98833">
        <ele>264.5</ele>
        <time>2018-12-24T14:50:20Z</time>
      </trkpt>
      <trkpt lat="43.24715" lon="5.98818">
        <ele>264.98</ele>
        <time>2018-12-24T14:49:58Z</time>
      </trkpt>
      <trkpt lat="43.24719" lon="5.98808">
        <ele>264.5</ele>
        <time>2018-12-24T14:49:42Z</time>
      </trkpt>
      <trkpt lat="43.24723" lon="5.98788">
        <ele>264.02</ele>
        <time>2018-12-24T14:49:31Z</time>
      </trkpt>
      <trkpt lat="43.24726" lon="5.98779">
        <ele>262.58</ele>
        <time>2018-12-24T14:49:25Z</time>
      </trkpt>
      <trkpt lat="43.24731" lon="5.9877">
        <ele>263.54</ele>
        <time>2018-12-24T14:49:17Z</time>
      </trkpt>
      <trkpt lat="43.24734" lon="5.98766">
        <ele>263.54</ele>
        <time>2018-12-24T14:49:07Z</time>
      </trkpt>
      <trkpt lat="43.24739" lon="5.98765">
        <ele>264.5</ele>
        <time>2018-12-24T14:48:51Z</time>
      </trkpt>
      <trkpt lat="43.24745" lon="5.98759">
        <ele>266.42</ele>
        <time>2018-12-24T14:48:44Z</time>
      </trkpt>
      <trkpt lat="43.24757" lon="5.98751">
        <ele>268.83</ele>
        <time>2018-12-24T14:48:33Z</time>
      </trkpt>
      <trkpt lat="43.24756" lon="5.98751">
        <ele>267.38</ele>
        <time>2018-12-24T14:48:29Z</time>
      </trkpt>
      <trkpt lat="43.24761" lon="5.98739">
        <ele>269.31</ele>
        <time>2018-12-24T14:48:10Z</time>
      </trkpt>
      <trkpt lat="43.24773" lon="5.98725">
        <ele>270.75</ele>
        <time>2018-12-24T14:47:54Z</time>
      </trkpt>
      <trkpt lat="43.24777" lon="5.98723">
        <ele>271.23</ele>
        <time>2018-12-24T14:47:50Z</time>
      </trkpt>
      <trkpt lat="43.24781" lon="5.98715">
        <ele>271.71</ele>
        <time>2018-12-24T14:47:36Z</time>
      </trkpt>
      <trkpt lat="43.24791" lon="5.98706">
        <ele>272.19</ele>
        <time>2018-12-24T14:47:16Z</time>
      </trkpt>
      <trkpt lat="43.248" lon="5.98708">
        <ele>274.11</ele>
        <time>2018-12-24T14:47:00Z</time>
      </trkpt>
      <trkpt lat="43.24806" lon="5.98706">
        <ele>275.56</ele>
        <time>2018-12-24T14:46:54Z</time>
      </trkpt>
      <trkpt lat="43.24816" lon="5.98708">
        <ele>274.11</ele>
        <time>2018-12-24T14:46:46Z</time>
      </trkpt>
      <trkpt lat="43.24818" lon="5.98707">
        <ele>274.11</ele>
        <time>2018-12-24T14:46:45Z</time>
      </trkpt>
      <trkpt lat="43.24838" lon="5.98705">
        <ele>277</ele>
        <time>2018-12-24T14:46:29Z</time>
      </trkpt>
      <trkpt lat="43.24845" lon="5.98708">
        <ele>279.4</ele>
        <time>2018-12-24T14:46:23Z</time>
      </trkpt>
      <trkpt lat="43.24864" lon="5.98716">
        <ele>280.84</ele>
        <time>2018-12-24T14:46:05Z</time>
      </trkpt>
      <trkpt lat="43.24867" lon="5.98718">
        <ele>280.84</ele>
        <time>2018-12-24T14:46:02Z</time>
      </trkpt>
      <trkpt lat="43.24877" lon="5.98728">
        <ele>281.32</ele>
        <time>2018-12-24T14:45:47Z</time>
      </trkpt>
      <trkpt lat="43.24887" lon="5.98743">
        <ele>281.8</ele>
        <time>2018-12-24T14:45:33Z</time>
      </trkpt>
      <trkpt lat="43.24888" lon="5.98744">
        <ele>281.8</ele>
        <time>2018-12-24T14:45:32Z</time>
      </trkpt>
      <trkpt lat="43.24891" lon="5.98755">
        <ele>282.77</ele>
        <time>2018-12-24T14:45:23Z</time>
      </trkpt>
      <trkpt lat="43.24891" lon="5.98756">
        <ele>282.77</ele>
        <time>2018-12-24T14:45:22Z</time>
      </trkpt>
      <trkpt lat="43.249" lon="5.98777">
        <ele>282.28</ele>
        <time>2018-12-24T14:45:04Z</time>
      </trkpt>
      <trkpt lat="43.24907" lon="5.98776">
        <ele>283.73</ele>
        <time>2018-12-24T14:44:54Z</time>
      </trkpt>
      <trkpt lat="43.2491" lon="5.98768">
        <ele>283.73</ele>
        <time>2018-12-24T14:44:46Z</time>
      </trkpt>
      <trkpt lat="43.24914" lon="5.98759">
        <ele>284.21</ele>
        <time>2018-12-24T14:44:38Z</time>
      </trkpt>
      <trkpt lat="43.24914" lon="5.98758">
        <ele>278.98828125</ele>
      </trkpt>
      <trkpt lat="43.24972" lon="5.98712">
        <ele>278.34765625</ele>
      </trkpt>
      <trkpt lat="43.24998" lon="5.98714">
        <ele>276.65234375</ele>
      </trkpt>
      <trkpt lat="43.25028" lon="5.98728">
        <ele>273.76171875</ele>
      </trkpt>
      <trkpt lat="43.25042" lon="5.98741">
        <ele>269.05859375</ele>
      </trkpt>
      <trkpt lat="43.25045" lon="5.98738">
        <ele>268.21875</ele>
      </trkpt>
      <trkpt lat="43.25058" lon="5.98716">
        <ele>264.12890625</ele>
      </trkpt>
      <trkpt lat="43.25065" lon="5.98682">
        <ele>263.3828125</ele>
      </trkpt>
      <trkpt lat="43.25073" lon="5.98627">
        <ele>266.25390625</ele>
      </trkpt>
      <trkpt lat="43.25068" lon="5.98584">
        <ele>272.37109375</ele>
      </trkpt>
      <trkpt lat="43.25055" lon="5.98571">
        <ele>277.0546875</ele>
      </trkpt>
      <trkpt lat="43.24995" lon="5.98551">
        <ele>287.2578125</ele>
      </trkpt>
      <trkpt lat="43.24988" lon="5.98541">
        <ele>289.06640625</ele>
      </trkpt>
      <trkpt lat="43.24988" lon="5.98526">
        <ele>291.46875</ele>
      </trkpt>
      <trkpt lat="43.24991" lon="5.98494">
        <ele>296.421875</ele>
      </trkpt>
      <trkpt lat="43.2499" lon="5.98482">
        <ele>298.16015625</ele>
      </trkpt>
      <trkpt lat="43.24979" lon="5.9846">
        <ele>301.625</ele>
      </trkpt>
      <trkpt lat="43.24951" lon="5.98436">
        <ele>301.54296875</ele>
      </trkpt>
      <trkpt lat="43.2493" lon="5.98412">
        <ele>303.4375</ele>
      </trkpt>
      <trkpt lat="43.24928" lon="5.98398">
        <ele>304.0625</ele>
      </trkpt>
      <trkpt lat="43.24943" lon="5.9837">
        <ele>309.04296875</ele>
      </trkpt>
      <trkpt lat="43.24971" lon="5.98337">
        <ele>315.23828125</ele>
      </trkpt>
      <trkpt lat="43.25015" lon="5.9829">
        <ele>319.4296875</ele>
      </trkpt>
      <trkpt lat="43.25045" lon="5.98261">
        <ele>319.4921875</ele>
      </trkpt>
      <trkpt lat="43.25065" lon="5.98241">
        <ele>317.51171875</ele>
      </trkpt>
      <trkpt lat="43.25087" lon="5.98209">
        <ele>312.19921875</ele>
      </trkpt>
      <trkpt lat="43.25094" lon="5.98165">
        <ele>305.4609375</ele>
      </trkpt>
      <trkpt lat="43.25091" lon="5.98127">
        <ele>305.609375</ele>
      </trkpt>
      <trkpt lat="43.25083" lon="5.98109">
        <ele>308.5</ele>
      </trkpt>
      <trkpt lat="43.25053" lon="5.98078">
        <ele>313.06640625</ele>
      </trkpt>
      <trkpt lat="43.25041" lon="5.98045">
        <ele>318.21875</ele>
      </trkpt>
      <trkpt lat="43.25013" lon="5.97977">
        <ele>324.72265625</ele>
      </trkpt>
      <trkpt lat="43.24997" lon="5.97962">
        <ele>325.9765625</ele>
      </trkpt>
      <trkpt lat="43.24983" lon="5.9795">
        <ele>327.09765625</ele>
      </trkpt>
      <trkpt lat="43.24953" lon="5.97938">
        <ele>329.5625</ele>
      </trkpt>
      <trkpt lat="43.24937" lon="5.97911">
        <ele>332.015625</ele>
      </trkpt>
      <trkpt lat="43.24929" lon="5.97868">
        <ele>330.49609375</ele>
      </trkpt>
      <trkpt lat="43.2493" lon="5.97858">
        <ele>329.484375</ele>
      </trkpt>
      <trkpt lat="43.24941" lon="5.97846">
        <ele>324.73828125</ele>
      </trkpt>
      <trkpt lat="43.24942" lon="5.97834">
        <ele>322.296875</ele>
      </trkpt>
      <trkpt lat="43.2494" lon="5.97807">
        <ele>317.78515625</ele>
      </trkpt>
      <trkpt lat="43.24938" lon="5.97772">
        <ele>317.51171875</ele>
      </trkpt>
      <trkpt lat="43.24939" lon="5.97737">
        <ele>317.20703125</ele>
      </trkpt>
      <trkpt lat="43.24939" lon="5.977">
        <ele>319.89453125</ele>
      </trkpt>
      <trkpt lat="43.24944" lon="5.97679">
        <ele>322.35546875</ele>
      </trkpt>
      <trkpt lat="43.24953" lon="5.97669">
        <ele>323.5390625</ele>
      </trkpt>
      <trkpt lat="43.24964" lon="5.9767">
        <ele>322.203125</ele>
      </trkpt>
      <trkpt lat="43.24988" lon="5.97672">
        <ele>320.43359375</ele>
      </trkpt>
      <trkpt lat="43.25014" lon="5.97684">
        <ele>316.6171875</ele>
      </trkpt>
      <trkpt lat="43.25031" lon="5.97695">
        <ele>312.96484375</ele>
      </trkpt>
      <trkpt lat="43.25047" lon="5.97691">
        <ele>312.37890625</ele>
      </trkpt>
      <trkpt lat="43.25055" lon="5.97678">
        <ele>316.6796875</ele>
      </trkpt>
      <trkpt lat="43.25068" lon="5.97676">
        <ele>316.33203125</ele>
      </trkpt>
      <trkpt lat="43.25076" lon="5.97682">
        <ele>313.04296875</ele>
      </trkpt>
      <trkpt lat="43.25092" lon="5.97691">
        <ele>308.4453125</ele>
      </trkpt>
      <trkpt lat="43.25119" lon="5.977">
        <ele>305.86328125</ele>
      </trkpt>
      <trkpt lat="43.25133" lon="5.97699">
        <ele>306.546875</ele>
      </trkpt>
      <trkpt lat="43.25141" lon="5.9769">
        <ele>309.3671875</ele>
      </trkpt>
      <trkpt lat="43.25153" lon="5.97673">
        <ele>318.50390625</ele>
      </trkpt>
      <trkpt lat="43.25175" lon="5.97653">
        <ele>328.9375</ele>
      </trkpt>
      <trkpt lat="43.25196" lon="5.97647">
        <ele>333.32421875</ele>
      </trkpt>
      <trkpt lat="43.25217" lon="5.97641">
        <ele>337.6015625</ele>
      </trkpt>
      <trkpt lat="43.25231" lon="5.97644">
        <ele>338.71484375</ele>
      </trkpt>
      <trkpt lat="43.25249" lon="5.97656">
        <ele>338.73828125</ele>
      </trkpt>
      <trkpt lat="43.25253" lon="5.97662">
        <ele>338.2421875</ele>
      </trkpt>
      <trkpt lat="43.25263" lon="5.97663">
        <ele>338.35546875</ele>
      </trkpt>
      <trkpt lat="43.25271" lon="5.97661">
        <ele>338.9375</ele>
      </trkpt>
      <trkpt lat="43.25282" lon="5.97665">
        <ele>338.62109375</ele>
      </trkpt>
      <trkpt lat="43.2529" lon="5.97668">
        <ele>338.3359375</ele>
      </trkpt>
      <trkpt lat="43.2532" lon="5.97665">
        <ele>337.8046875</ele>
      </trkpt>
      <trkpt lat="43.25329" lon="5.97663">
        <ele>336.75</ele>
      </trkpt>
      <trkpt lat="43.25339" lon="5.97671">
        <ele>333.7265625</ele>
      </trkpt>
      <trkpt lat="43.25347" lon="5.97675">
        <ele>331.5859375</ele>
      </trkpt>
      <trkpt lat="43.25366" lon="5.97679">
        <ele>327.67578125</ele>
      </trkpt>
      <trkpt lat="43.25385" lon="5.97678">
        <ele>323.09765625</ele>
      </trkpt>
      <trkpt lat="43.25414" lon="5.97666">
        <ele>319.6328125</ele>
      </trkpt>
      <trkpt lat="43.25436" lon="5.97662">
        <ele>317.08203125</ele>
      </trkpt>
      <trkpt lat="43.2544" lon="5.97667">
        <ele>314.75</ele>
      </trkpt>
      <trkpt lat="43.25449" lon="5.97671">
        <ele>312.0546875</ele>
      </trkpt>
      <trkpt lat="43.25457" lon="5.9767">
        <ele>310.98828125</ele>
      </trkpt>
      <trkpt lat="43.25453" lon="5.97688">
        <ele>305.859375</ele>
      </trkpt>
      <trkpt lat="43.25449" lon="5.97702">
        <ele>301.8984375</ele>
      </trkpt>
      <trkpt lat="43.25448" lon="5.97733">
        <ele>292.078125</ele>
      </trkpt>
      <trkpt lat="43.25448" lon="5.97793">
        <ele>274.75</ele>
      </trkpt>
      <trkpt lat="43.25447" lon="5.97827">
        <ele>267.26171875</ele>
      </trkpt>
      <trkpt lat="43.25455" lon="5.97881">
        <ele>255.2109375</ele>
      </trkpt>
      <trkpt lat="43.25453" lon="5.97894">
        <ele>252.26171875</ele>
      </trkpt>
      <trkpt lat="43.25448" lon="5.97909">
        <ele>249.37890625</ele>
      </trkpt>
      <trkpt lat="43.25444" lon="5.97922">
        <ele>246.71484375</ele>
      </trkpt>
      <trkpt lat="43.25446" lon="5.97934">
        <ele>243.625</ele>
      </trkpt>
      <trkpt lat="43.25452" lon="5.97937">
        <ele>242.640625</ele>
      </trkpt>
      <trkpt lat="43.2547" lon="5.97945">
        <ele>240.35546875</ele>
      </trkpt>
      <trkpt lat="43.25477" lon="5.97945">
        <ele>240.72265625</ele>
      </trkpt>
      <trkpt lat="43.25488" lon="5.97948">
        <ele>242.63671875</ele>
      </trkpt>
      <trkpt lat="43.25501" lon="5.97952">
        <ele>245.13671875</ele>
      </trkpt>
      <trkpt lat="43.25505" lon="5.97945">
        <ele>246.59375</ele>
      </trkpt>
      <trkpt lat="43.25501" lon="5.97953">
        <ele>245.03125</ele>
      </trkpt>
      <trkpt lat="43.25498" lon="5.97966">
        <ele>243.23828125</ele>
      </trkpt>
      <trkpt lat="43.25488" lon="5.97972">
        <ele>239.85546875</ele>
      </trkpt>
      <trkpt lat="43.25463" lon="5.97999">
        <ele>232.703125</ele>
      </trkpt>
      <trkpt lat="43.25451" lon="5.98032">
        <ele>225.69921875</ele>
      </trkpt>
      <trkpt lat="43.25433" lon="5.98026">
        <ele>220.68359375</ele>
      </trkpt>
      <trkpt lat="43.25408" lon="5.98007">
        <ele>220.85546875</ele>
      </trkpt>
      <trkpt lat="43.25376" lon="5.98013">
        <ele>215.609375</ele>
      </trkpt>
      <trkpt lat="43.25396" lon="5.98052">
        <ele>210.25390625</ele>
      </trkpt>
      <trkpt lat="43.25397" lon="5.98056">
        <ele>217.4</ele>
        <time>2018-12-24T13:48:37Z</time>
      </trkpt>
      <trkpt lat="43.2541" lon="5.9806">
        <ele>214.03</ele>
        <time>2018-12-24T13:48:28Z</time>
      </trkpt>
      <trkpt lat="43.25413" lon="5.98077">
        <ele>212.59</ele>
        <time>2018-12-24T13:48:08Z</time>
      </trkpt>
      <trkpt lat="43.25413" lon="5.98081">
        <ele>211.15</ele>
        <time>2018-12-24T13:48:04Z</time>
      </trkpt>
      <trkpt lat="43.25417" lon="5.98113">
        <ele>210.67</ele>
        <time>2018-12-24T13:47:45Z</time>
      </trkpt>
      <trkpt lat="43.25417" lon="5.98116">
        <ele>210.67</ele>
        <time>2018-12-24T13:47:43Z</time>
      </trkpt>
      <trkpt lat="43.25423" lon="5.98131">
        <ele>208.26</ele>
        <time>2018-12-24T13:47:24Z</time>
      </trkpt>
      <trkpt lat="43.25424" lon="5.98135">
        <ele>209.7</ele>
        <time>2018-12-24T13:47:22Z</time>
      </trkpt>
      <trkpt lat="43.25427" lon="5.98144">
        <ele>209.22</ele>
        <time>2018-12-24T13:47:15Z</time>
      </trkpt>
      <trkpt lat="43.25425" lon="5.98155">
        <ele>206.34</ele>
        <time>2018-12-24T13:46:52Z</time>
      </trkpt>
      <trkpt lat="43.25423" lon="5.9817">
        <ele>210.19</ele>
        <time>2018-12-24T13:46:46Z</time>
      </trkpt>
      <trkpt lat="43.25428" lon="5.98193">
        <ele>206.34</ele>
        <time>2018-12-24T13:46:27Z</time>
      </trkpt>
      <trkpt lat="43.25431" lon="5.98214">
        <ele>205.86</ele>
        <time>2018-12-24T13:46:16Z</time>
      </trkpt>
      <trkpt lat="43.25432" lon="5.98242">
        <ele>205.86</ele>
        <time>2018-12-24T13:45:56Z</time>
      </trkpt>
      <trkpt lat="43.25436" lon="5.98274">
        <ele>204.42</ele>
        <time>2018-12-24T13:45:35Z</time>
      </trkpt>
      <trkpt lat="43.25435" lon="5.98311">
        <ele>205.86</ele>
        <time>2018-12-24T13:45:12Z</time>
      </trkpt>
      <trkpt lat="43.25436" lon="5.98347">
        <ele>203.94</ele>
        <time>2018-12-24T13:44:51Z</time>
      </trkpt>
      <trkpt lat="43.25434" lon="5.98365">
        <ele>202.98</ele>
        <time>2018-12-24T13:44:41Z</time>
      </trkpt>
      <trkpt lat="43.25424" lon="5.98403">
        <ele>202.98</ele>
        <time>2018-12-24T13:44:20Z</time>
      </trkpt>
      <trkpt lat="43.25411" lon="5.98431">
        <ele>203.94</ele>
        <time>2018-12-24T13:43:59Z</time>
      </trkpt>
      <trkpt lat="43.254" lon="5.98464">
        <ele>202.49</ele>
        <time>2018-12-24T13:43:43Z</time>
      </trkpt>
      <trkpt lat="43.25368" lon="5.98481">
        <ele>202.49</ele>
        <time>2018-12-24T13:43:19Z</time>
      </trkpt>
      <trkpt lat="43.25344" lon="5.98472">
        <ele>202.49</ele>
        <time>2018-12-24T13:43:01Z</time>
      </trkpt>
      <trkpt lat="43.25329" lon="5.98457">
        <ele>203.94</ele>
        <time>2018-12-24T13:42:40Z</time>
      </trkpt>
      <trkpt lat="43.25321" lon="5.98469">
        <ele>204.42</ele>
        <time>2018-12-24T13:42:22Z</time>
      </trkpt>
      <trkpt lat="43.25323" lon="5.98477">
        <ele>205.38</ele>
        <time>2018-12-24T13:42:12Z</time>
      </trkpt>
      <trkpt lat="43.25339" lon="5.98503">
        <ele>203.46</ele>
        <time>2018-12-24T13:41:49Z</time>
      </trkpt>
      <trkpt lat="43.25339" lon="5.98505">
        <ele>203.46</ele>
        <time>2018-12-24T13:41:48Z</time>
      </trkpt>
      <trkpt lat="43.25342" lon="5.98528">
        <ele>202.01</ele>
        <time>2018-12-24T13:41:33Z</time>
      </trkpt>
      <trkpt lat="43.25358" lon="5.98559">
        <ele>201.05</ele>
        <time>2018-12-24T13:41:11Z</time>
      </trkpt>
      <trkpt lat="43.25362" lon="5.98591">
        <ele>200.09</ele>
        <time>2018-12-24T13:40:51Z</time>
      </trkpt>
      <trkpt lat="43.25362" lon="5.98593">
        <ele>200.09</ele>
        <time>2018-12-24T13:40:50Z</time>
      </trkpt>
      <trkpt lat="43.25364" lon="5.98631">
        <ele>198.65</ele>
        <time>2018-12-24T13:40:29Z</time>
      </trkpt>
      <trkpt lat="43.25361" lon="5.98663">
        <ele>198.65</ele>
        <time>2018-12-24T13:40:09Z</time>
      </trkpt>
      <trkpt lat="43.25357" lon="5.98669">
        <ele>198.65</ele>
        <time>2018-12-24T13:40:04Z</time>
      </trkpt>
      <trkpt lat="43.25353" lon="5.98683">
        <ele>198.65</ele>
        <time>2018-12-24T13:39:49Z</time>
      </trkpt>
      <trkpt lat="43.25353" lon="5.98687">
        <ele>200.09</ele>
        <time>2018-12-24T13:39:46Z</time>
      </trkpt>
      <trkpt lat="43.25352" lon="5.98719">
        <ele>199.61</ele>
        <time>2018-12-24T13:39:28Z</time>
      </trkpt>
      <trkpt lat="43.25348" lon="5.98751">
        <ele>196.73</ele>
        <time>2018-12-24T13:39:09Z</time>
      </trkpt>
      <trkpt lat="43.25344" lon="5.98773">
        <ele>196.73</ele>
        <time>2018-12-24T13:38:49Z</time>
      </trkpt>
      <trkpt lat="43.25338" lon="5.98774">
        <ele>197.69</ele>
        <time>2018-12-24T13:38:34Z</time>
      </trkpt>
      <trkpt lat="43.25337" lon="5.98773">
        <ele>197.69</ele>
        <time>2018-12-24T13:38:33Z</time>
      </trkpt>
      <trkpt lat="43.25336" lon="5.98773">
        <ele>197.69</ele>
        <time>2018-12-24T13:38:32Z</time>
      </trkpt>
      <trkpt lat="43.25335" lon="5.98772">
        <ele>198.17</ele>
        <time>2018-12-24T13:38:29Z</time>
      </trkpt>
      <trkpt lat="43.2534" lon="5.98789">
        <ele>197.21</ele>
        <time>2018-12-24T13:38:16Z</time>
      </trkpt>
      <trkpt lat="43.25335" lon="5.98801">
        <ele>193.84</ele>
        <time>2018-12-24T13:38:00Z</time>
      </trkpt>
      <trkpt lat="43.25328" lon="5.98809">
        <ele>194.32</ele>
        <time>2018-12-24T13:37:43Z</time>
      </trkpt>
      <trkpt lat="43.25328" lon="5.98851">
        <ele>195.28</ele>
        <time>2018-12-24T13:37:21Z</time>
      </trkpt>
      <trkpt lat="43.25328" lon="5.98888">
        <ele>195.28</ele>
        <time>2018-12-24T13:37:00Z</time>
      </trkpt>
      <trkpt lat="43.25327" lon="5.98937">
        <ele>193.84</ele>
        <time>2018-12-24T13:36:35Z</time>
      </trkpt>
      <trkpt lat="43.25323" lon="5.98963">
        <ele>194.32</ele>
        <time>2018-12-24T13:36:17Z</time>
      </trkpt>
      <trkpt lat="43.25321" lon="5.98988">
        <ele>195.28</ele>
        <time>2018-12-24T13:35:59Z</time>
      </trkpt>
      <trkpt lat="43.25319" lon="5.99">
        <ele>196.73</ele>
        <time>2018-12-24T13:35:53Z</time>
      </trkpt>
      <trkpt lat="43.25316" lon="5.99024">
        <ele>195.28</ele>
        <time>2018-12-24T13:35:38Z</time>
      </trkpt>
      <trkpt lat="43.2531" lon="5.99061">
        <ele>196.73</ele>
        <time>2018-12-24T13:35:20Z</time>
      </trkpt>
      <trkpt lat="43.25305" lon="5.99082">
        <ele>195.28</ele>
        <time>2018-12-24T13:35:09Z</time>
      </trkpt>
      <trkpt lat="43.25301" lon="5.991">
        <ele>195.77</ele>
        <time>2018-12-24T13:34:57Z</time>
      </trkpt>
      <trkpt lat="43.25294" lon="5.99118">
        <ele>194.32</ele>
        <time>2018-12-24T13:34:44Z</time>
      </trkpt>
      <trkpt lat="43.25282" lon="5.99161">
        <ele>194.8</ele>
        <time>2018-12-24T13:34:21Z</time>
      </trkpt>
      <trkpt lat="43.25273" lon="5.99186">
        <ele>194.8</ele>
        <time>2018-12-24T13:34:06Z</time>
      </trkpt>
      <trkpt lat="43.25265" lon="5.99208">
        <ele>193.36</ele>
        <time>2018-12-24T13:33:55Z</time>
      </trkpt>
      <trkpt lat="43.25242" lon="5.99231">
        <ele>193.36</ele>
        <time>2018-12-24T13:33:33Z</time>
      </trkpt>
      <trkpt lat="43.25224" lon="5.99246">
        <ele>193.84</ele>
        <time>2018-12-24T13:33:16Z</time>
      </trkpt>
      <trkpt lat="43.25206" lon="5.99261">
        <ele>193.36</ele>
        <time>2018-12-24T13:32:58Z</time>
      </trkpt>
      <trkpt lat="43.25184" lon="5.99273">
        <ele>192.4</ele>
        <time>2018-12-24T13:32:37Z</time>
      </trkpt>
      <trkpt lat="43.25177" lon="5.99277">
        <ele>190.96</ele>
        <time>2018-12-24T13:32:32Z</time>
      </trkpt>
      <trkpt lat="43.25176" lon="5.99278">
        <ele>190.96</ele>
        <time>2018-12-24T13:32:31Z</time>
      </trkpt>
      <trkpt lat="43.25174" lon="5.99279">
        <ele>190.96</ele>
        <time>2018-12-24T13:32:29Z</time>
      </trkpt>
      <trkpt lat="43.25153" lon="5.99289">
        <ele>191.92</ele>
        <time>2018-12-24T13:32:09Z</time>
      </trkpt>
      <trkpt lat="43.25143" lon="5.99296">
        <ele>189.04</ele>
        <time>2018-12-24T13:31:47Z</time>
      </trkpt>
      <trkpt lat="43.2514" lon="5.99307">
        <ele>190.48</ele>
        <time>2018-12-24T13:31:37Z</time>
      </trkpt>
      <trkpt lat="43.25141" lon="5.9931">
        <ele>190</ele>
        <time>2018-12-24T13:31:22Z</time>
      </trkpt>
      <trkpt lat="43.25132" lon="5.99316">
        <ele>189.52</ele>
        <time>2018-12-24T13:31:00Z</time>
      </trkpt>
      <trkpt lat="43.25108" lon="5.99322">
        <ele>191.44</ele>
        <time>2018-12-24T13:30:40Z</time>
      </trkpt>
      <trkpt lat="43.25082" lon="5.99336">
        <ele>189.52</ele>
        <time>2018-12-24T13:30:19Z</time>
      </trkpt>
      <trkpt lat="43.25061" lon="5.99354">
        <ele>188.56</ele>
        <time>2018-12-24T13:29:57Z</time>
      </trkpt>
      <trkpt lat="43.25043" lon="5.99367">
        <ele>188.56</ele>
        <time>2018-12-24T13:29:35Z</time>
      </trkpt>
      <trkpt lat="43.25038" lon="5.9937">
        <ele>187.11</ele>
        <time>2018-12-24T13:29:30Z</time>
      </trkpt>
      <trkpt lat="43.25036" lon="5.99371">
        <ele>187.11</ele>
        <time>2018-12-24T13:29:29Z</time>
      </trkpt>
      <trkpt lat="43.25023" lon="5.99395">
        <ele>186.63</ele>
        <time>2018-12-24T13:29:15Z</time>
      </trkpt>
      <trkpt lat="43.25014" lon="5.99404">
        <ele>188.08</ele>
        <time>2018-12-24T13:29:03Z</time>
      </trkpt>
      <trkpt lat="43.25003" lon="5.99424">
        <ele>186.63</ele>
        <time>2018-12-24T13:28:50Z</time>
      </trkpt>
      <trkpt lat="43.24989" lon="5.99453">
        <ele>186.15</ele>
        <time>2018-12-24T13:28:30Z</time>
      </trkpt>
      <trkpt lat="43.24979" lon="5.99477">
        <ele>185.67</ele>
        <time>2018-12-24T13:28:10Z</time>
      </trkpt>
      <trkpt lat="43.24971" lon="5.99516">
        <ele>183.27</ele>
        <time>2018-12-24T13:27:48Z</time>
      </trkpt>
      <trkpt lat="43.2497" lon="5.99549">
        <ele>184.23</ele>
        <time>2018-12-24T13:27:24Z</time>
      </trkpt>
      <trkpt lat="43.24968" lon="5.99575">
        <ele>186.63</ele>
        <time>2018-12-24T13:27:06Z</time>
      </trkpt>
      <trkpt lat="43.24967" lon="5.9959">
        <ele>184.23</ele>
        <time>2018-12-24T13:26:59Z</time>
      </trkpt>
      <trkpt lat="43.24966" lon="5.99606">
        <ele>184.23</ele>
        <time>2018-12-24T13:26:50Z</time>
      </trkpt>
      <trkpt lat="43.2497" lon="5.99626">
        <ele>183.75</ele>
        <time>2018-12-24T13:26:34Z</time>
      </trkpt>
      <trkpt lat="43.24965" lon="5.99632">
        <ele>183.75</ele>
        <time>2018-12-24T13:26:17Z</time>
      </trkpt>
      <trkpt lat="43.24958" lon="5.99659">
        <ele>182.79</ele>
        <time>2018-12-24T13:25:58Z</time>
      </trkpt>
      <trkpt lat="43.24948" lon="5.99668">
        <ele>184.71</ele>
        <time>2018-12-24T13:25:52Z</time>
      </trkpt>
      <trkpt lat="43.24945" lon="5.99668">
        <ele>183.75</ele>
        <time>2018-12-24T13:25:51Z</time>
      </trkpt>
      <trkpt lat="43.24943" lon="5.9967">
        <ele>183.75</ele>
        <time>2018-12-24T13:25:50Z</time>
      </trkpt>
      <trkpt lat="43.24938" lon="5.99673">
        <ele>182.31</ele>
        <time>2018-12-24T13:25:47Z</time>
      </trkpt>
      <trkpt lat="43.24936" lon="5.99676">
        <ele>182.79</ele>
        <time>2018-12-24T13:25:43Z</time>
      </trkpt>
      <trkpt lat="43.24919" lon="5.99682">
        <ele>183.27</ele>
        <time>2018-12-24T13:25:25Z</time>
      </trkpt>
      <trkpt lat="43.24883" lon="5.99673">
        <ele>182.31</ele>
        <time>2018-12-24T13:25:01Z</time>
      </trkpt>
      <trkpt lat="43.24876" lon="5.99668">
        <ele>183.27</ele>
        <time>2018-12-24T13:24:59Z</time>
      </trkpt>
      <trkpt lat="43.24874" lon="5.99668">
        <ele>183.27</ele>
        <time>2018-12-24T13:24:58Z</time>
      </trkpt>
      <trkpt lat="43.24858" lon="5.99682">
        <ele>182.31</ele>
        <time>2018-12-24T13:24:38Z</time>
      </trkpt>
      <trkpt lat="43.24834" lon="5.9969">
        <ele>178.94</ele>
        <time>2018-12-24T13:24:20Z</time>
      </trkpt>
      <trkpt lat="43.24813" lon="5.99689">
        <ele>178.94</ele>
        <time>2018-12-24T13:24:01Z</time>
      </trkpt>
      <trkpt lat="43.2481" lon="5.99689">
        <ele>175.58</ele>
        <time>2018-12-24T13:23:53Z</time>
      </trkpt>
      <trkpt lat="43.24801" lon="5.9969">
        <ele>178.46</ele>
        <time>2018-12-24T13:23:44Z</time>
      </trkpt>
      <trkpt lat="43.24799" lon="5.9969">
        <ele>177.02</ele>
        <time>2018-12-24T13:23:42Z</time>
      </trkpt>
      <trkpt lat="43.24783" lon="5.99683">
        <ele>177.02</ele>
        <time>2018-12-24T13:23:27Z</time>
      </trkpt>
      <trkpt lat="43.24779" lon="5.99682">
        <ele>175.58</ele>
        <time>2018-12-24T13:23:25Z</time>
      </trkpt>
      <trkpt lat="43.24775" lon="5.99682">
        <ele>177.5</ele>
        <time>2018-12-24T13:23:23Z</time>
      </trkpt>
      <trkpt lat="43.24754" lon="5.99698">
        <ele>178.46</ele>
        <time>2018-12-24T13:23:04Z</time>
      </trkpt>
      <trkpt lat="43.24733" lon="5.99709">
        <ele>177.98</ele>
        <time>2018-12-24T13:22:45Z</time>
      </trkpt>
      <trkpt lat="43.24713" lon="5.99723">
        <ele>175.1</ele>
        <time>2018-12-24T13:22:23Z</time>
      </trkpt>
      <trkpt lat="43.24695" lon="5.99746">
        <ele>175.1</ele>
        <time>2018-12-24T13:22:02Z</time>
      </trkpt>
      <trkpt lat="43.24677" lon="5.99768">
        <ele>175.1</ele>
        <time>2018-12-24T13:21:43Z</time>
      </trkpt>
      <trkpt lat="43.24648" lon="5.99788">
        <ele>174.62</ele>
        <time>2018-12-24T13:21:20Z</time>
      </trkpt>
      <trkpt lat="43.24627" lon="5.99791">
        <ele>176.06</ele>
        <time>2018-12-24T13:21:00Z</time>
      </trkpt>
      <trkpt lat="43.24602" lon="5.99811">
        <ele>175.1</ele>
        <time>2018-12-24T13:20:37Z</time>
      </trkpt>
      <trkpt lat="43.2454" lon="5.99876">
        <ele>163.3828125</ele>
      </trkpt>
      <trkpt lat="43.24532" lon="5.99881">
        <ele>163.23828125</ele>
      </trkpt>
      <trkpt lat="43.24532" lon="5.99881">
        <ele>163.25</ele>
      </trkpt>
      <trkpt lat="43.24536" lon="5.99886">
        <ele>162.7890625</ele>
      </trkpt>
      <trkpt lat="43.2454" lon="5.99898">
        <ele>161.85546875</ele>
      </trkpt>
      <trkpt lat="43.24539" lon="5.999">
        <ele>161.75390625</ele>
      </trkpt>
      <trkpt lat="43.24529" lon="5.99919">
        <ele>160.35546875</ele>
      </trkpt>
      <trkpt lat="43.24526" lon="5.99922">
        <ele>160.00390625</ele>
      </trkpt>
      <trkpt lat="43.24511" lon="5.99936">
        <ele>158.1953125</ele>
      </trkpt>
      <trkpt lat="43.2451" lon="5.99941">
        <ele>157.78515625</ele>
      </trkpt>
      <trkpt lat="43.24516" lon="5.9996">
        <ele>156.70703125</ele>
      </trkpt>
      <trkpt lat="43.24528" lon="5.99996">
        <ele>155.78515625</ele>
      </trkpt>
      <trkpt lat="43.24526" lon="6.00002">
        <ele>155.52734375</ele>
      </trkpt>
      <trkpt lat="43.24515" lon="6.00017">
        <ele>154.57421875</ele>
      </trkpt>
      <trkpt lat="43.24519" lon="6.00038">
        <ele>154.59375</ele>
      </trkpt>
      <trkpt lat="43.24517" lon="6.00039">
        <ele>154.53125</ele>
      </trkpt>
      <trkpt lat="43.24502" lon="6.00044">
        <ele>154.12890625</ele>
      </trkpt>
      <trkpt lat="43.24451" lon="6.00048">
        <ele>153.60546875</ele>
      </trkpt>
      <trkpt lat="43.24418" lon="6.00049">
        <ele>153.875</ele>
      </trkpt>
      <trkpt lat="43.24387" lon="6.00063">
        <ele>154.8515625</ele>
      </trkpt>
      <trkpt lat="43.24335" lon="6.00121">
        <ele>158.90625</ele>
      </trkpt>
    </trkseg>
  </trk>
  <trk>
    <name><![CDATA[BELGENT_ORIG]]></name>
    <trkseg>
      <trkpt lat="43.24345" lon="6.00102">
        <ele>156</ele>
        <time>2018-12-24T09:24:44Z</time>
      </trkpt>
      <trkpt lat="43.24365" lon="6.00079">
        <ele>156</ele>
        <time>2018-12-24T09:24:49Z</time>
      </trkpt>
      <trkpt lat="43.24388" lon="6.00055">
        <ele>157</ele>
        <time>2018-12-24T09:24:54Z</time>
      </trkpt>
      <trkpt lat="43.24414" lon="6.00047">
        <ele>157</ele>
        <time>2018-12-24T09:24:59Z</time>
      </trkpt>
      <trkpt lat="43.24451" lon="6.00044">
        <ele>158</ele>
        <time>2018-12-24T09:25:04Z</time>
      </trkpt>
      <trkpt lat="43.24468" lon="6.00044">
        <ele>158</ele>
        <time>2018-12-24T09:25:09Z</time>
      </trkpt>
      <trkpt lat="43.24515" lon="6.00038">
        <ele>159</ele>
        <time>2018-12-24T09:25:14Z</time>
      </trkpt>
      <trkpt lat="43.24513" lon="6.00017">
        <ele>159</ele>
        <time>2018-12-24T09:25:19Z</time>
      </trkpt>
      <trkpt lat="43.24526" lon="5.99999">
        <ele>160</ele>
        <time>2018-12-24T09:25:24Z</time>
      </trkpt>
      <trkpt lat="43.24519" lon="5.99974">
        <ele>160</ele>
        <time>2018-12-24T09:25:29Z</time>
      </trkpt>
      <trkpt lat="43.24511" lon="5.9995">
        <ele>161</ele>
        <time>2018-12-24T09:25:34Z</time>
      </trkpt>
      <trkpt lat="43.24508" lon="5.99937">
        <ele>161</ele>
        <time>2018-12-24T09:25:39Z</time>
      </trkpt>
      <trkpt lat="43.24527" lon="5.9992">
        <ele>162</ele>
        <time>2018-12-24T09:25:44Z</time>
      </trkpt>
      <trkpt lat="43.24538" lon="5.99898">
        <ele>164</ele>
        <time>2018-12-24T09:25:49Z</time>
      </trkpt>
      <trkpt lat="43.24532" lon="5.99879">
        <ele>165</ele>
        <time>2018-12-24T09:25:54Z</time>
      </trkpt>
      <trkpt lat="43.24556" lon="5.99856">
        <ele>168</ele>
        <time>2018-12-24T09:25:59Z</time>
      </trkpt>
      <trkpt lat="43.24588" lon="5.99819">
        <ele>174</ele>
        <time>2018-12-24T09:26:04Z</time>
      </trkpt>
      <trkpt lat="43.24616" lon="5.99798">
        <ele>177</ele>
        <time>2018-12-24T09:26:09Z</time>
      </trkpt>
      <trkpt lat="43.24637" lon="5.99787">
        <ele>176</ele>
        <time>2018-12-24T09:26:14Z</time>
      </trkpt>
      <trkpt lat="43.24685" lon="5.99757">
        <ele>176</ele>
        <time>2018-12-24T09:26:19Z</time>
      </trkpt>
      <trkpt lat="43.2471" lon="5.99703">
        <ele>186</ele>
        <time>2018-12-24T09:26:24Z</time>
      </trkpt>
      <trkpt lat="43.24719" lon="5.99695">
        <ele>186</ele>
        <time>2018-12-24T09:26:29Z</time>
      </trkpt>
      <trkpt lat="43.24757" lon="5.99678">
        <ele>183</ele>
        <time>2018-12-24T09:26:34Z</time>
      </trkpt>
      <trkpt lat="43.24772" lon="5.9968">
        <ele>182</ele>
        <time>2018-12-24T09:26:39Z</time>
      </trkpt>
      <trkpt lat="43.24792" lon="5.99682">
        <ele>181</ele>
        <time>2018-12-24T09:26:44Z</time>
      </trkpt>
      <trkpt lat="43.24811" lon="5.99678">
        <ele>181</ele>
        <time>2018-12-24T09:26:49Z</time>
      </trkpt>
      <trkpt lat="43.24862" lon="5.99678">
        <ele>180</ele>
        <time>2018-12-24T09:26:54Z</time>
      </trkpt>
      <trkpt lat="43.24901" lon="5.99675">
        <ele>181</ele>
        <time>2018-12-24T09:26:59Z</time>
      </trkpt>
      <trkpt lat="43.24944" lon="5.99663">
        <ele>180</ele>
        <time>2018-12-24T09:27:04Z</time>
      </trkpt>
      <trkpt lat="43.24955" lon="5.99654">
        <ele>181</ele>
        <time>2018-12-24T09:27:09Z</time>
      </trkpt>
      <trkpt lat="43.24961" lon="5.99639">
        <ele>182</ele>
        <time>2018-12-24T09:27:14Z</time>
      </trkpt>
      <trkpt lat="43.24966" lon="5.9962">
        <ele>184</ele>
        <time>2018-12-24T09:27:19Z</time>
      </trkpt>
      <trkpt lat="43.24966" lon="5.99585">
        <ele>189</ele>
        <time>2018-12-24T09:27:24Z</time>
      </trkpt>
      <trkpt lat="43.24963" lon="5.99562">
        <ele>193</ele>
        <time>2018-12-24T09:27:29Z</time>
      </trkpt>
      <trkpt lat="43.24966" lon="5.99527">
        <ele>196</ele>
        <time>2018-12-24T09:27:34Z</time>
      </trkpt>
      <trkpt lat="43.2497" lon="5.99495">
        <ele>198</ele>
        <time>2018-12-24T09:27:39Z</time>
      </trkpt>
      <trkpt lat="43.24978" lon="5.99448">
        <ele>200</ele>
        <time>2018-12-24T09:27:44Z</time>
      </trkpt>
      <trkpt lat="43.24987" lon="5.99431">
        <ele>197</ele>
        <time>2018-12-24T09:27:49Z</time>
      </trkpt>
      <trkpt lat="43.24996" lon="5.99407">
        <ele>196</ele>
        <time>2018-12-24T09:27:54Z</time>
      </trkpt>
      <trkpt lat="43.25006" lon="5.99384">
        <ele>198</ele>
        <time>2018-12-24T09:27:59Z</time>
      </trkpt>
      <trkpt lat="43.25026" lon="5.99351">
        <ele>201</ele>
        <time>2018-12-24T09:28:04Z</time>
      </trkpt>
      <trkpt lat="43.25041" lon="5.99332">
        <ele>199</ele>
        <time>2018-12-24T09:28:09Z</time>
      </trkpt>
      <trkpt lat="43.25058" lon="5.99315">
        <ele>199</ele>
        <time>2018-12-24T09:28:14Z</time>
      </trkpt>
      <trkpt lat="43.25075" lon="5.993">
        <ele>197</ele>
        <time>2018-12-24T09:28:19Z</time>
      </trkpt>
      <trkpt lat="43.25131" lon="5.99283">
        <ele>192</ele>
        <time>2018-12-24T09:28:24Z</time>
      </trkpt>
      <trkpt lat="43.25152" lon="5.99276">
        <ele>190</ele>
        <time>2018-12-24T09:28:29Z</time>
      </trkpt>
      <trkpt lat="43.25161" lon="5.99276">
        <ele>189</ele>
        <time>2018-12-24T09:28:34Z</time>
      </trkpt>
      <trkpt lat="43.25174" lon="5.99266">
        <ele>189</ele>
        <time>2018-12-24T09:28:39Z</time>
      </trkpt>
      <trkpt lat="43.25191" lon="5.99242">
        <ele>192</ele>
        <time>2018-12-24T09:28:44Z</time>
      </trkpt>
      <trkpt lat="43.25229" lon="5.99197">
        <ele>194</ele>
        <time>2018-12-24T09:28:49Z</time>
      </trkpt>
      <trkpt lat="43.25244" lon="5.99186">
        <ele>192</ele>
        <time>2018-12-24T09:28:54Z</time>
      </trkpt>
      <trkpt lat="43.25259" lon="5.99171">
        <ele>190</ele>
        <time>2018-12-24T09:28:59Z</time>
      </trkpt>
      <trkpt lat="43.2527" lon="5.99156">
        <ele>191</ele>
        <time>2018-12-24T09:29:04Z</time>
      </trkpt>
      <trkpt lat="43.25279" lon="5.9913">
        <ele>195</ele>
        <time>2018-12-24T09:29:09Z</time>
      </trkpt>
      <trkpt lat="43.25289" lon="5.99115">
        <ele>194</ele>
        <time>2018-12-24T09:29:14Z</time>
      </trkpt>
      <trkpt lat="43.25313" lon="5.99019">
        <ele>195</ele>
        <time>2018-12-24T09:29:19Z</time>
      </trkpt>
      <trkpt lat="43.2533" lon="5.9891">
        <ele>189</ele>
        <time>2018-12-24T09:29:24Z</time>
      </trkpt>
      <trkpt lat="43.25326" lon="5.98809">
        <ele>191</ele>
        <time>2018-12-24T09:29:29Z</time>
      </trkpt>
      <trkpt lat="43.25328" lon="5.98785">
        <ele>193</ele>
        <time>2018-12-24T09:29:34Z</time>
      </trkpt>
      <trkpt lat="43.25338" lon="5.98775">
        <ele>192</ele>
        <time>2018-12-24T09:29:39Z</time>
      </trkpt>
      <trkpt lat="43.25345" lon="5.98759">
        <ele>193</ele>
        <time>2018-12-24T09:29:44Z</time>
      </trkpt>
      <trkpt lat="43.2535" lon="5.98714">
        <ele>195</ele>
        <time>2018-12-24T09:29:49Z</time>
      </trkpt>
      <trkpt lat="43.25343" lon="5.98703">
        <ele>196</ele>
        <time>2018-12-24T09:29:54Z</time>
      </trkpt>
      <trkpt lat="43.25337" lon="5.9868">
        <ele>198</ele>
        <time>2018-12-24T09:29:59Z</time>
      </trkpt>
      <trkpt lat="43.2536" lon="5.98641">
        <ele>196</ele>
        <time>2018-12-24T09:30:04Z</time>
      </trkpt>
      <trkpt lat="43.25362" lon="5.9863">
        <ele>195</ele>
        <time>2018-12-24T09:30:09Z</time>
      </trkpt>
      <trkpt lat="43.25362" lon="5.98594">
        <ele>196</ele>
        <time>2018-12-24T09:30:14Z</time>
      </trkpt>
      <trkpt lat="43.25356" lon="5.98564">
        <ele>198</ele>
        <time>2018-12-24T09:30:19Z</time>
      </trkpt>
      <trkpt lat="43.25343" lon="5.98525">
        <ele>201</ele>
        <time>2018-12-24T09:30:24Z</time>
      </trkpt>
      <trkpt lat="43.25332" lon="5.985">
        <ele>204</ele>
        <time>2018-12-24T09:30:29Z</time>
      </trkpt>
      <trkpt lat="43.25313" lon="5.98463">
        <ele>217</ele>
        <time>2018-12-24T09:30:34Z</time>
      </trkpt>
      <trkpt lat="43.25322" lon="5.98437">
        <ele>218</ele>
        <time>2018-12-24T09:30:39Z</time>
      </trkpt>
      <trkpt lat="43.25339" lon="5.98452">
        <ele>211</ele>
        <time>2018-12-24T09:30:44Z</time>
      </trkpt>
      <trkpt lat="43.25367" lon="5.98455">
        <ele>206</ele>
        <time>2018-12-24T09:30:49Z</time>
      </trkpt>
      <trkpt lat="43.25388" lon="5.98448">
        <ele>203</ele>
        <time>2018-12-24T09:30:54Z</time>
      </trkpt>
      <trkpt lat="43.25401" lon="5.98439">
        <ele>201</ele>
        <time>2018-12-24T09:30:59Z</time>
      </trkpt>
      <trkpt lat="43.25414" lon="5.98414">
        <ele>202</ele>
        <time>2018-12-24T09:31:04Z</time>
      </trkpt>
      <trkpt lat="43.25427" lon="5.98371">
        <ele>205</ele>
        <time>2018-12-24T09:31:09Z</time>
      </trkpt>
      <trkpt lat="43.25431" lon="5.98334">
        <ele>209</ele>
        <time>2018-12-24T09:31:14Z</time>
      </trkpt>
      <trkpt lat="43.25429" lon="5.98306">
        <ele>211</ele>
        <time>2018-12-24T09:31:19Z</time>
      </trkpt>
      <trkpt lat="43.25429" lon="5.98257">
        <ele>215</ele>
        <time>2018-12-24T09:31:24Z</time>
      </trkpt>
      <trkpt lat="43.2542" lon="5.98203">
        <ele>215</ele>
        <time>2018-12-24T09:31:29Z</time>
      </trkpt>
      <trkpt lat="43.25418" lon="5.98167">
        <ele>213</ele>
        <time>2018-12-24T09:31:34Z</time>
      </trkpt>
      <trkpt lat="43.25412" lon="5.98126">
        <ele>216</ele>
        <time>2018-12-24T09:31:39Z</time>
      </trkpt>
      <trkpt lat="43.25407" lon="5.98102">
        <ele>218</ele>
        <time>2018-12-24T09:31:44Z</time>
      </trkpt>
      <trkpt lat="43.25407" lon="5.98079">
        <ele>219</ele>
        <time>2018-12-24T09:31:49Z</time>
      </trkpt>
      <trkpt lat="43.25373" lon="5.98015">
        <ele>235</ele>
        <time>2018-12-24T09:31:54Z</time>
      </trkpt>
      <trkpt lat="43.25388" lon="5.98006">
        <ele>233</ele>
        <time>2018-12-24T09:31:59Z</time>
      </trkpt>
      <trkpt lat="43.25407" lon="5.98006">
        <ele>230</ele>
        <time>2018-12-24T09:32:04Z</time>
      </trkpt>
      <trkpt lat="43.25435" lon="5.98028">
        <ele>227</ele>
        <time>2018-12-24T09:32:09Z</time>
      </trkpt>
      <trkpt lat="43.25446" lon="5.9803">
        <ele>228</ele>
        <time>2018-12-24T09:32:14Z</time>
      </trkpt>
      <trkpt lat="43.25459" lon="5.98004">
        <ele>233</ele>
        <time>2018-12-24T09:32:19Z</time>
      </trkpt>
      <trkpt lat="43.25472" lon="5.97985">
        <ele>238</ele>
        <time>2018-12-24T09:32:24Z</time>
      </trkpt>
      <trkpt lat="43.25476" lon="5.97976">
        <ele>240</ele>
        <time>2018-12-24T09:32:29Z</time>
      </trkpt>
      <trkpt lat="43.25493" lon="5.97965">
        <ele>243</ele>
        <time>2018-12-24T09:32:34Z</time>
      </trkpt>
      <trkpt lat="43.25508" lon="5.97935">
        <ele>250</ele>
        <time>2018-12-24T09:32:39Z</time>
      </trkpt>
      <trkpt lat="43.25525" lon="5.97929">
        <ele>254</ele>
        <time>2018-12-24T09:32:44Z</time>
      </trkpt>
      <trkpt lat="43.25545" lon="5.97935">
        <ele>256</ele>
        <time>2018-12-24T09:32:49Z</time>
      </trkpt>
      <trkpt lat="43.25566" lon="5.97937">
        <ele>259</ele>
        <time>2018-12-24T09:32:54Z</time>
      </trkpt>
      <trkpt lat="43.25571" lon="5.97918">
        <ele>260</ele>
        <time>2018-12-24T09:32:59Z</time>
      </trkpt>
      <trkpt lat="43.25583" lon="5.97888">
        <ele>264</ele>
        <time>2018-12-24T09:33:04Z</time>
      </trkpt>
      <trkpt lat="43.25596" lon="5.97873">
        <ele>268</ele>
        <time>2018-12-24T09:33:09Z</time>
      </trkpt>
      <trkpt lat="43.25607" lon="5.97851">
        <ele>271</ele>
        <time>2018-12-24T09:33:14Z</time>
      </trkpt>
      <trkpt lat="43.25607" lon="5.9783">
        <ele>273</ele>
        <time>2018-12-24T09:33:19Z</time>
      </trkpt>
      <trkpt lat="43.25597" lon="5.97829">
        <ele>271</ele>
        <time>2018-12-24T09:33:24Z</time>
      </trkpt>
      <trkpt lat="43.25581" lon="5.97815">
        <ele>271</ele>
        <time>2018-12-24T09:33:29Z</time>
      </trkpt>
      <trkpt lat="43.25566" lon="5.97804">
        <ele>275</ele>
        <time>2018-12-24T09:33:34Z</time>
      </trkpt>
      <trkpt lat="43.25545" lon="5.97802">
        <ele>276</ele>
        <time>2018-12-24T09:33:39Z</time>
      </trkpt>
      <trkpt lat="43.25532" lon="5.97809">
        <ele>275</ele>
        <time>2018-12-24T09:33:44Z</time>
      </trkpt>
      <trkpt lat="43.25521" lon="5.97807">
        <ele>276</ele>
        <time>2018-12-24T09:33:49Z</time>
      </trkpt>
      <trkpt lat="43.25504" lon="5.97783">
        <ele>283</ele>
        <time>2018-12-24T09:33:54Z</time>
      </trkpt>
      <trkpt lat="43.25491" lon="5.97751">
        <ele>294</ele>
        <time>2018-12-24T09:33:59Z</time>
      </trkpt>
      <trkpt lat="43.25504" lon="5.97731">
        <ele>300</ele>
        <time>2018-12-24T09:34:04Z</time>
      </trkpt>
      <trkpt lat="43.25511" lon="5.97703">
        <ele>310</ele>
        <time>2018-12-24T09:34:09Z</time>
      </trkpt>
      <trkpt lat="43.25504" lon="5.97695">
        <ele>313</ele>
        <time>2018-12-24T09:34:14Z</time>
      </trkpt>
      <trkpt lat="43.25481" lon="5.97682">
        <ele>321</ele>
        <time>2018-12-24T09:34:19Z</time>
      </trkpt>
      <trkpt lat="43.25468" lon="5.97669">
        <ele>328</ele>
        <time>2018-12-24T09:34:24Z</time>
      </trkpt>
      <trkpt lat="43.2545" lon="5.97671">
        <ele>330</ele>
        <time>2018-12-24T09:34:29Z</time>
      </trkpt>
      <trkpt lat="43.25435" lon="5.9766">
        <ele>336</ele>
        <time>2018-12-24T09:34:34Z</time>
      </trkpt>
      <trkpt lat="43.25401" lon="5.97667">
        <ele>339</ele>
        <time>2018-12-24T09:34:39Z</time>
      </trkpt>
      <trkpt lat="43.25382" lon="5.97678">
        <ele>338</ele>
        <time>2018-12-24T09:34:44Z</time>
      </trkpt>
      <trkpt lat="43.25352" lon="5.97676">
        <ele>342</ele>
        <time>2018-12-24T09:34:49Z</time>
      </trkpt>
      <trkpt lat="43.25343" lon="5.97673">
        <ele>344</ele>
        <time>2018-12-24T09:34:54Z</time>
      </trkpt>
      <trkpt lat="43.25326" lon="5.97662">
        <ele>348</ele>
        <time>2018-12-24T09:34:59Z</time>
      </trkpt>
      <trkpt lat="43.25289" lon="5.97665">
        <ele>347</ele>
        <time>2018-12-24T09:35:04Z</time>
      </trkpt>
      <trkpt lat="43.25279" lon="5.9766">
        <ele>348</ele>
        <time>2018-12-24T09:35:09Z</time>
      </trkpt>
      <trkpt lat="43.25262" lon="5.97663">
        <ele>347</ele>
        <time>2018-12-24T09:35:14Z</time>
      </trkpt>
      <trkpt lat="43.25249" lon="5.97654">
        <ele>350</ele>
        <time>2018-12-24T09:35:19Z</time>
      </trkpt>
      <trkpt lat="43.25234" lon="5.97643">
        <ele>354</ele>
        <time>2018-12-24T09:35:24Z</time>
      </trkpt>
      <trkpt lat="43.25223" lon="5.97639">
        <ele>356</ele>
        <time>2018-12-24T09:35:29Z</time>
      </trkpt>
      <trkpt lat="43.25197" lon="5.97643">
        <ele>354</ele>
        <time>2018-12-24T09:35:34Z</time>
      </trkpt>
      <trkpt lat="43.25184" lon="5.9765">
        <ele>350</ele>
        <time>2018-12-24T09:35:39Z</time>
      </trkpt>
      <trkpt lat="43.25167" lon="5.97654">
        <ele>347</ele>
        <time>2018-12-24T09:35:44Z</time>
      </trkpt>
      <trkpt lat="43.2515" lon="5.97673">
        <ele>334</ele>
        <time>2018-12-24T09:35:49Z</time>
      </trkpt>
      <trkpt lat="43.25137" lon="5.97693">
        <ele>327</ele>
        <time>2018-12-24T09:35:54Z</time>
      </trkpt>
      <trkpt lat="43.25122" lon="5.97699">
        <ele>325</ele>
        <time>2018-12-24T09:35:59Z</time>
      </trkpt>
      <trkpt lat="43.25098" lon="5.97691">
        <ele>329</ele>
        <time>2018-12-24T09:36:04Z</time>
      </trkpt>
      <trkpt lat="43.25075" lon="5.9768">
        <ele>333</ele>
        <time>2018-12-24T09:36:09Z</time>
      </trkpt>
      <trkpt lat="43.25058" lon="5.97676">
        <ele>334</ele>
        <time>2018-12-24T09:36:14Z</time>
      </trkpt>
      <trkpt lat="43.25045" lon="5.97691">
        <ele>330</ele>
        <time>2018-12-24T09:36:19Z</time>
      </trkpt>
      <trkpt lat="43.25026" lon="5.97693">
        <ele>330</ele>
        <time>2018-12-24T09:36:24Z</time>
      </trkpt>
      <trkpt lat="43.25006" lon="5.9768">
        <ele>333</ele>
        <time>2018-12-24T09:36:29Z</time>
      </trkpt>
      <trkpt lat="43.25" lon="5.97678">
        <ele>334</ele>
        <time>2018-12-24T09:36:34Z</time>
      </trkpt>
      <trkpt lat="43.24985" lon="5.97669">
        <ele>338</ele>
        <time>2018-12-24T09:36:39Z</time>
      </trkpt>
      <trkpt lat="43.24974" lon="5.97669">
        <ele>339</ele>
        <time>2018-12-24T09:36:44Z</time>
      </trkpt>
      <trkpt lat="43.24953" lon="5.97667">
        <ele>341</ele>
        <time>2018-12-24T09:36:49Z</time>
      </trkpt>
      <trkpt lat="43.2494" lon="5.97686">
        <ele>340</ele>
        <time>2018-12-24T09:36:54Z</time>
      </trkpt>
      <trkpt lat="43.24935" lon="5.97742">
        <ele>334</ele>
        <time>2018-12-24T09:36:59Z</time>
      </trkpt>
      <trkpt lat="43.24935" lon="5.97763">
        <ele>332</ele>
        <time>2018-12-24T09:37:04Z</time>
      </trkpt>
      <trkpt lat="43.2494" lon="5.97804">
        <ele>329</ele>
        <time>2018-12-24T09:37:09Z</time>
      </trkpt>
      <trkpt lat="43.2494" lon="5.97841">
        <ele>328</ele>
        <time>2018-12-24T09:37:14Z</time>
      </trkpt>
      <trkpt lat="43.24927" lon="5.97864">
        <ele>332</ele>
        <time>2018-12-24T09:37:19Z</time>
      </trkpt>
      <trkpt lat="43.24943" lon="5.97871">
        <ele>329</ele>
        <time>2018-12-24T09:37:24Z</time>
      </trkpt>
      <trkpt lat="43.24966" lon="5.97894">
        <ele>328</ele>
        <time>2018-12-24T09:37:29Z</time>
      </trkpt>
      <trkpt lat="43.24978" lon="5.97908">
        <ele>329</ele>
        <time>2018-12-24T09:37:34Z</time>
      </trkpt>
      <trkpt lat="43.24993" lon="5.97927">
        <ele>329</ele>
        <time>2018-12-24T09:37:39Z</time>
      </trkpt>
      <trkpt lat="43.25007" lon="5.97957">
        <ele>328</ele>
        <time>2018-12-24T09:37:44Z</time>
      </trkpt>
      <trkpt lat="43.2501" lon="5.97974">
        <ele>327</ele>
        <time>2018-12-24T09:37:49Z</time>
      </trkpt>
      <trkpt lat="43.25021" lon="5.97993">
        <ele>327</ele>
        <time>2018-12-24T09:37:54Z</time>
      </trkpt>
      <trkpt lat="43.25033" lon="5.98019">
        <ele>325</ele>
        <time>2018-12-24T09:37:59Z</time>
      </trkpt>
      <trkpt lat="43.25038" lon="5.98042">
        <ele>322</ele>
        <time>2018-12-24T09:38:04Z</time>
      </trkpt>
      <trkpt lat="43.25043" lon="5.9806">
        <ele>321</ele>
        <time>2018-12-24T09:38:09Z</time>
      </trkpt>
      <trkpt lat="43.25049" lon="5.98075">
        <ele>319</ele>
        <time>2018-12-24T09:38:14Z</time>
      </trkpt>
      <trkpt lat="43.25081" lon="5.98105">
        <ele>317</ele>
        <time>2018-12-24T09:38:19Z</time>
      </trkpt>
      <trkpt lat="43.25088" lon="5.98118">
        <ele>315</ele>
        <time>2018-12-24T09:38:24Z</time>
      </trkpt>
      <trkpt lat="43.25092" lon="5.98165">
        <ele>309</ele>
        <time>2018-12-24T09:38:29Z</time>
      </trkpt>
      <trkpt lat="43.25092" lon="5.98186">
        <ele>311</ele>
        <time>2018-12-24T09:38:34Z</time>
      </trkpt>
      <trkpt lat="43.25088" lon="5.98199">
        <ele>313</ele>
        <time>2018-12-24T09:38:39Z</time>
      </trkpt>
      <trkpt lat="43.25058" lon="5.98248">
        <ele>313</ele>
        <time>2018-12-24T09:38:44Z</time>
      </trkpt>
      <trkpt lat="43.25032" lon="5.98268">
        <ele>310</ele>
        <time>2018-12-24T09:38:49Z</time>
      </trkpt>
      <trkpt lat="43.25013" lon="5.98289">
        <ele>310</ele>
        <time>2018-12-24T09:38:54Z</time>
      </trkpt>
      <trkpt lat="43.24997" lon="5.98309">
        <ele>310</ele>
        <time>2018-12-24T09:38:59Z</time>
      </trkpt>
      <trkpt lat="43.24966" lon="5.98343">
        <ele>306</ele>
        <time>2018-12-24T09:39:04Z</time>
      </trkpt>
      <trkpt lat="43.24953" lon="5.98352">
        <ele>303</ele>
        <time>2018-12-24T09:39:09Z</time>
      </trkpt>
      <trkpt lat="43.24938" lon="5.98373">
        <ele>301</ele>
        <time>2018-12-24T09:39:14Z</time>
      </trkpt>
      <trkpt lat="43.24925" lon="5.98403">
        <ele>301</ele>
        <time>2018-12-24T09:39:19Z</time>
      </trkpt>
      <trkpt lat="43.24927" lon="5.98412">
        <ele>302</ele>
        <time>2018-12-24T09:39:24Z</time>
      </trkpt>
      <trkpt lat="43.24961" lon="5.98442">
        <ele>306</ele>
        <time>2018-12-24T09:39:29Z</time>
      </trkpt>
      <trkpt lat="43.24978" lon="5.98461">
        <ele>307</ele>
        <time>2018-12-24T09:39:34Z</time>
      </trkpt>
      <trkpt lat="43.24987" lon="5.98478">
        <ele>306</ele>
        <time>2018-12-24T09:39:39Z</time>
      </trkpt>
      <trkpt lat="43.24989" lon="5.98489">
        <ele>305</ele>
        <time>2018-12-24T09:39:44Z</time>
      </trkpt>
      <trkpt lat="43.24985" lon="5.98538">
        <ele>295</ele>
        <time>2018-12-24T09:39:49Z</time>
      </trkpt>
      <trkpt lat="43.25" lon="5.98549">
        <ele>297</ele>
        <time>2018-12-24T09:39:54Z</time>
      </trkpt>
      <trkpt lat="43.25026" lon="5.9856">
        <ele>293</ele>
        <time>2018-12-24T09:39:59Z</time>
      </trkpt>
      <trkpt lat="43.25043" lon="5.98564">
        <ele>291</ele>
        <time>2018-12-24T09:40:04Z</time>
      </trkpt>
      <trkpt lat="43.25062" lon="5.98579">
        <ele>287</ele>
        <time>2018-12-24T09:40:09Z</time>
      </trkpt>
      <trkpt lat="43.25071" lon="5.98613">
        <ele>282</ele>
        <time>2018-12-24T09:40:14Z</time>
      </trkpt>
      <trkpt lat="43.25071" lon="5.98645">
        <ele>278</ele>
        <time>2018-12-24T09:40:19Z</time>
      </trkpt>
      <trkpt lat="43.25066" lon="5.98671">
        <ele>276</ele>
        <time>2018-12-24T09:40:24Z</time>
      </trkpt>
      <trkpt lat="43.2506" lon="5.98693">
        <ele>276</ele>
        <time>2018-12-24T09:40:29Z</time>
      </trkpt>
      <trkpt lat="43.25058" lon="5.98716">
        <ele>277</ele>
        <time>2018-12-24T09:40:34Z</time>
      </trkpt>
      <trkpt lat="43.25045" lon="5.98736">
        <ele>278</ele>
        <time>2018-12-24T09:40:39Z</time>
      </trkpt>
      <trkpt lat="43.25029" lon="5.98727">
        <ele>280</ele>
        <time>2018-12-24T09:40:44Z</time>
      </trkpt>
      <trkpt lat="43.25" lon="5.98714">
        <ele>282</ele>
        <time>2018-12-24T09:40:49Z</time>
      </trkpt>
      <trkpt lat="43.24987" lon="5.9871">
        <ele>281</ele>
        <time>2018-12-24T09:40:54Z</time>
      </trkpt>
      <trkpt lat="43.24972" lon="5.9871">
        <ele>281</ele>
        <time>2018-12-24T09:40:59Z</time>
      </trkpt>
      <trkpt lat="43.24947" lon="5.98729">
        <ele>281</ele>
        <time>2018-12-24T09:41:04Z</time>
      </trkpt>
      <trkpt lat="43.2492" lon="5.98744">
        <ele>282</ele>
        <time>2018-12-24T09:41:09Z</time>
      </trkpt>
      <trkpt lat="43.24901" lon="5.98774">
        <ele>287</ele>
        <time>2018-12-24T09:41:14Z</time>
      </trkpt>
      <trkpt lat="43.24893" lon="5.98779">
        <ele>288</ele>
        <time>2018-12-24T09:41:19Z</time>
      </trkpt>
      <trkpt lat="43.24882" lon="5.98757">
        <ele>285</ele>
        <time>2018-12-24T09:41:24Z</time>
      </trkpt>
      <trkpt lat="43.24873" lon="5.98727">
        <ele>279</ele>
        <time>2018-12-24T09:41:29Z</time>
      </trkpt>
      <trkpt lat="43.24862" lon="5.98716">
        <ele>277</ele>
        <time>2018-12-24T09:41:34Z</time>
      </trkpt>
      <trkpt lat="43.24848" lon="5.98705">
        <ele>273</ele>
        <time>2018-12-24T09:41:39Z</time>
      </trkpt>
      <trkpt lat="43.24824" lon="5.98697">
        <ele>267</ele>
        <time>2018-12-24T09:41:44Z</time>
      </trkpt>
      <trkpt lat="43.248" lon="5.98701">
        <ele>262</ele>
        <time>2018-12-24T09:41:49Z</time>
      </trkpt>
      <trkpt lat="43.24783" lon="5.9871">
        <ele>259</ele>
        <time>2018-12-24T09:41:54Z</time>
      </trkpt>
      <trkpt lat="43.24742" lon="5.98751">
        <ele>255</ele>
        <time>2018-12-24T09:41:59Z</time>
      </trkpt>
      <trkpt lat="43.24732" lon="5.98766">
        <ele>252</ele>
        <time>2018-12-24T09:42:04Z</time>
      </trkpt>
      <trkpt lat="43.24723" lon="5.98787">
        <ele>251</ele>
        <time>2018-12-24T09:42:09Z</time>
      </trkpt>
      <trkpt lat="43.24717" lon="5.98836">
        <ele>255</ele>
        <time>2018-12-24T09:42:14Z</time>
      </trkpt>
      <trkpt lat="43.24717" lon="5.98864">
        <ele>257</ele>
        <time>2018-12-24T09:42:19Z</time>
      </trkpt>
      <trkpt lat="43.24719" lon="5.98886">
        <ele>259</ele>
        <time>2018-12-24T09:42:24Z</time>
      </trkpt>
      <trkpt lat="43.24712" lon="5.98944">
        <ele>261</ele>
        <time>2018-12-24T09:42:29Z</time>
      </trkpt>
      <trkpt lat="43.24704" lon="5.98987">
        <ele>260</ele>
        <time>2018-12-24T09:42:34Z</time>
      </trkpt>
      <trkpt lat="43.24691" lon="5.99029">
        <ele>259</ele>
        <time>2018-12-24T09:42:39Z</time>
      </trkpt>
      <trkpt lat="43.24674" lon="5.99045">
        <ele>251</ele>
        <time>2018-12-24T09:42:44Z</time>
      </trkpt>
      <trkpt lat="43.24663" lon="5.99066">
        <ele>249</ele>
        <time>2018-12-24T09:42:49Z</time>
      </trkpt>
      <trkpt lat="43.24652" lon="5.99113">
        <ele>251</ele>
        <time>2018-12-24T09:42:54Z</time>
      </trkpt>
      <trkpt lat="43.24641" lon="5.99132">
        <ele>248</ele>
        <time>2018-12-24T09:42:59Z</time>
      </trkpt>
      <trkpt lat="43.24631" lon="5.99145">
        <ele>244</ele>
        <time>2018-12-24T09:43:04Z</time>
      </trkpt>
      <trkpt lat="43.2462" lon="5.99163">
        <ele>241</ele>
        <time>2018-12-24T09:43:09Z</time>
      </trkpt>
      <trkpt lat="43.24605" lon="5.99203">
        <ele>238</ele>
        <time>2018-12-24T09:43:14Z</time>
      </trkpt>
      <trkpt lat="43.24596" lon="5.99223">
        <ele>236</ele>
        <time>2018-12-24T09:43:19Z</time>
      </trkpt>
      <trkpt lat="43.24586" lon="5.99248">
        <ele>233</ele>
        <time>2018-12-24T09:43:24Z</time>
      </trkpt>
      <trkpt lat="43.24575" lon="5.99279">
        <ele>230</ele>
        <time>2018-12-24T09:43:29Z</time>
      </trkpt>
      <trkpt lat="43.24566" lon="5.99289">
        <ele>226</ele>
        <time>2018-12-24T09:43:34Z</time>
      </trkpt>
      <trkpt lat="43.24553" lon="5.99315">
        <ele>222</ele>
        <time>2018-12-24T09:43:39Z</time>
      </trkpt>
      <trkpt lat="43.24534" lon="5.99381">
        <ele>216</ele>
        <time>2018-12-24T09:43:44Z</time>
      </trkpt>
      <trkpt lat="43.24517" lon="5.99403">
        <ele>209</ele>
        <time>2018-12-24T09:43:49Z</time>
      </trkpt>
      <trkpt lat="43.24504" lon="5.99426">
        <ele>204</ele>
        <time>2018-12-24T09:43:54Z</time>
      </trkpt>
      <trkpt lat="43.245" lon="5.9945">
        <ele>203</ele>
        <time>2018-12-24T09:43:59Z</time>
      </trkpt>
      <trkpt lat="43.245" lon="5.99478">
        <ele>204</ele>
        <time>2018-12-24T09:44:04Z</time>
      </trkpt>
      <trkpt lat="43.24496" lon="5.99495">
        <ele>203</ele>
        <time>2018-12-24T09:44:09Z</time>
      </trkpt>
      <trkpt lat="43.24498" lon="5.99512">
        <ele>203</ele>
        <time>2018-12-24T09:44:14Z</time>
      </trkpt>
      <trkpt lat="43.24496" lon="5.99538">
        <ele>200</ele>
        <time>2018-12-24T09:44:19Z</time>
      </trkpt>
      <trkpt lat="43.24492" lon="5.99568">
        <ele>197</ele>
        <time>2018-12-24T09:44:24Z</time>
      </trkpt>
      <trkpt lat="43.24488" lon="5.99591">
        <ele>194</ele>
        <time>2018-12-24T09:44:29Z</time>
      </trkpt>
      <trkpt lat="43.24487" lon="5.9962">
        <ele>190</ele>
        <time>2018-12-24T09:44:34Z</time>
      </trkpt>
      <trkpt lat="43.24485" lon="5.99645">
        <ele>188</ele>
        <time>2018-12-24T09:44:39Z</time>
      </trkpt>
      <trkpt lat="43.24487" lon="5.99667">
        <ele>186</ele>
        <time>2018-12-24T09:44:44Z</time>
      </trkpt>
      <trkpt lat="43.24487" lon="5.99699">
        <ele>182</ele>
        <time>2018-12-24T09:44:49Z</time>
      </trkpt>
      <trkpt lat="43.24491" lon="5.99729">
        <ele>179</ele>
        <time>2018-12-24T09:44:54Z</time>
      </trkpt>
      <trkpt lat="43.24496" lon="5.99748">
        <ele>177</ele>
        <time>2018-12-24T09:44:59Z</time>
      </trkpt>
      <trkpt lat="43.24493" lon="5.99778">
        <ele>173</ele>
        <time>2018-12-24T09:45:04Z</time>
      </trkpt>
      <trkpt lat="43.24496" lon="5.99806">
        <ele>169</ele>
        <time>2018-12-24T09:45:09Z</time>
      </trkpt>
      <trkpt lat="43.24491" lon="5.99832">
        <ele>165</ele>
        <time>2018-12-24T09:45:14Z</time>
      </trkpt>
      <trkpt lat="43.24502" lon="5.99843">
        <ele>166</ele>
        <time>2018-12-24T09:45:19Z</time>
      </trkpt>
      <trkpt lat="43.24521" lon="5.99866">
        <ele>165</ele>
        <time>2018-12-24T09:45:24Z</time>
      </trkpt>
      <trkpt lat="43.2452" lon="5.99883">
        <ele>164</ele>
        <time>2018-12-24T09:45:29Z</time>
      </trkpt>
      <trkpt lat="43.24526" lon="5.99901">
        <ele>163</ele>
        <time>2018-12-24T09:45:34Z</time>
      </trkpt>
      <trkpt lat="43.24504" lon="5.99912">
        <ele>161</ele>
        <time>2018-12-24T09:45:39Z</time>
      </trkpt>
      <trkpt lat="43.24509" lon="5.99937">
        <ele>161</ele>
        <time>2018-12-24T09:45:44Z</time>
      </trkpt>
      <trkpt lat="43.2451" lon="5.99949">
        <ele>161</ele>
        <time>2018-12-24T09:45:49Z</time>
      </trkpt>
      <trkpt lat="43.24519" lon="5.99974">
        <ele>160</ele>
        <time>2018-12-24T09:45:54Z</time>
      </trkpt>
      <trkpt lat="43.24526" lon="5.99999">
        <ele>160</ele>
        <time>2018-12-24T09:45:59Z</time>
      </trkpt>
      <trkpt lat="43.24513" lon="6.00017">
        <ele>159</ele>
        <time>2018-12-24T09:46:04Z</time>
      </trkpt>
      <trkpt lat="43.24515" lon="6.00038">
        <ele>159</ele>
        <time>2018-12-24T09:46:09Z</time>
      </trkpt>
      <trkpt lat="43.24468" lon="6.00044">
        <ele>158</ele>
        <time>2018-12-24T09:46:14Z</time>
      </trkpt>
      <trkpt lat="43.24451" lon="6.00044">
        <ele>158</ele>
        <time>2018-12-24T09:46:19Z</time>
      </trkpt>
      <trkpt lat="43.24414" lon="6.00047">
        <ele>157</ele>
        <time>2018-12-24T09:46:24Z</time>
      </trkpt>
      <trkpt lat="43.24388" lon="6.00055">
        <ele>157</ele>
        <time>2018-12-24T09:46:29Z</time>
      </trkpt>
      <trkpt lat="43.24365" lon="6.00079">
        <ele>156</ele>
        <time>2018-12-24T09:46:34Z</time>
      </trkpt>
      <trkpt lat="43.24345" lon="6.00102">
        <ele>156</ele>
        <time>2018-12-24T09:46:39Z</time>
      </trkpt>
      <trkpt lat="43.24345" lon="6.00102">
        <ele>156</ele>
        <time>2018-12-24T09:46:44Z</time>
      </trkpt>
    </trkseg>
  </trk>
  <trk>
    <name><![CDATA[Fontaine_Guillandiere]]></name>
    <trkseg>
      <trkpt lat="43.39373" lon="5.85108">
        <ele>356.69140625</ele>
      </trkpt>
      <trkpt lat="43.38855" lon="5.85131">
        <ele>398</ele>
        <time>2019-03-03T15:09:45Z</time>
      </trkpt>
      <trkpt lat="43.38842" lon="5.85205">
        <ele>406</ele>
        <time>2019-03-03T15:09:35Z</time>
      </trkpt>
      <trkpt lat="43.38838" lon="5.85275">
        <ele>420</ele>
        <time>2019-03-03T15:09:25Z</time>
      </trkpt>
      <trkpt lat="43.38837" lon="5.85342">
        <ele>422</ele>
        <time>2019-03-03T15:09:20Z</time>
      </trkpt>
      <trkpt lat="43.38819" lon="5.85403">
        <ele>428</ele>
        <time>2019-03-03T15:09:15Z</time>
      </trkpt>
      <trkpt lat="43.38787" lon="5.85439">
        <ele>432</ele>
        <time>2019-03-03T15:09:10Z</time>
      </trkpt>
      <trkpt lat="43.38751" lon="5.85466">
        <ele>434</ele>
        <time>2019-03-03T15:09:05Z</time>
      </trkpt>
      <trkpt lat="43.38669" lon="5.85497">
        <ele>439</ele>
        <time>2019-03-03T15:08:55Z</time>
      </trkpt>
      <trkpt lat="43.38623" lon="5.85525">
        <ele>441</ele>
        <time>2019-03-03T15:08:50Z</time>
      </trkpt>
      <trkpt lat="43.38581" lon="5.85567">
        <ele>446</ele>
        <time>2019-03-03T15:08:45Z</time>
      </trkpt>
      <trkpt lat="43.38523" lon="5.85614">
        <ele>452</ele>
        <time>2019-03-03T15:08:35Z</time>
      </trkpt>
      <trkpt lat="43.3848" lon="5.8564">
        <ele>460</ele>
        <time>2019-03-03T15:08:20Z</time>
      </trkpt>
      <trkpt lat="43.38442" lon="5.85667">
        <ele>463</ele>
        <time>2019-03-03T15:08:15Z</time>
      </trkpt>
      <trkpt lat="43.38392" lon="5.85686">
        <ele>467</ele>
        <time>2019-03-03T15:08:10Z</time>
      </trkpt>
      <trkpt lat="43.38368" lon="5.85743">
        <ele>468</ele>
        <time>2019-03-03T15:08:05Z</time>
      </trkpt>
      <trkpt lat="43.3834" lon="5.85822">
        <ele>474</ele>
        <time>2019-03-03T15:07:55Z</time>
      </trkpt>
      <trkpt lat="43.38302" lon="5.85863">
        <ele>479</ele>
        <time>2019-03-03T15:07:45Z</time>
      </trkpt>
      <trkpt lat="43.38265" lon="5.85941">
        <ele>483</ele>
        <time>2019-03-03T15:07:35Z</time>
      </trkpt>
      <trkpt lat="43.38226" lon="5.85979">
        <ele>493</ele>
        <time>2019-03-03T15:07:25Z</time>
      </trkpt>
      <trkpt lat="43.3819" lon="5.85992">
        <ele>501</ele>
        <time>2019-03-03T15:07:10Z</time>
      </trkpt>
      <trkpt lat="43.38129" lon="5.86053">
        <ele>517</ele>
        <time>2019-03-03T15:07:00Z</time>
      </trkpt>
      <trkpt lat="43.38039" lon="5.8609">
        <ele>523</ele>
        <time>2019-03-03T15:06:55Z</time>
      </trkpt>
      <trkpt lat="43.37923" lon="5.86095">
        <ele>538</ele>
        <time>2019-03-03T15:06:50Z</time>
      </trkpt>
      <trkpt lat="43.37863" lon="5.86067">
        <ele>541</ele>
        <time>2019-03-03T15:06:45Z</time>
      </trkpt>
      <trkpt lat="43.37824" lon="5.85987">
        <ele>552</ele>
        <time>2019-03-03T15:06:35Z</time>
      </trkpt>
      <trkpt lat="43.37782" lon="5.85823">
        <ele>559</ele>
        <time>2019-03-03T15:06:30Z</time>
      </trkpt>
      <trkpt lat="43.37764" lon="5.8571">
        <ele>568</ele>
        <time>2019-03-03T15:06:20Z</time>
      </trkpt>
      <trkpt lat="43.3775" lon="5.85653">
        <ele>570</ele>
        <time>2019-03-03T15:06:15Z</time>
      </trkpt>
      <trkpt lat="43.37725" lon="5.85632">
        <ele>566</ele>
        <time>2019-03-03T15:06:05Z</time>
      </trkpt>
      <trkpt lat="43.37729" lon="5.85707">
        <ele>511</ele>
        <time>2019-03-03T15:01:20Z</time>
      </trkpt>
      <trkpt lat="43.37716" lon="5.85733">
        <ele>511</ele>
        <time>2019-03-03T15:01:15Z</time>
      </trkpt>
      <trkpt lat="43.37704" lon="5.85747">
        <ele>512</ele>
        <time>2019-03-03T15:01:10Z</time>
      </trkpt>
      <trkpt lat="43.37699" lon="5.85865">
        <ele>514</ele>
        <time>2019-03-03T15:01:05Z</time>
      </trkpt>
      <trkpt lat="43.3771" lon="5.85964">
        <ele>514</ele>
        <time>2019-03-03T15:01:00Z</time>
      </trkpt>
      <trkpt lat="43.37728" lon="5.86088">
        <ele>515</ele>
        <time>2019-03-03T15:00:55Z</time>
      </trkpt>
      <trkpt lat="43.37722" lon="5.86237">
        <ele>517</ele>
        <time>2019-03-03T15:00:50Z</time>
      </trkpt>
      <trkpt lat="43.37692" lon="5.86288">
        <ele>519</ele>
        <time>2019-03-03T15:00:45Z</time>
      </trkpt>
      <trkpt lat="43.3765" lon="5.86331">
        <ele>519</ele>
        <time>2019-03-03T15:00:40Z</time>
      </trkpt>
      <trkpt lat="43.3761" lon="5.86594">
        <ele>520</ele>
        <time>2019-03-03T15:00:35Z</time>
      </trkpt>
      <trkpt lat="43.37598" lon="5.86777">
        <ele>521</ele>
        <time>2019-03-03T15:00:30Z</time>
      </trkpt>
      <trkpt lat="43.37443" lon="5.86946">
        <ele>520.80859375</ele>
      </trkpt>
      <trkpt lat="43.37435" lon="5.87056">
        <ele>514.19921875</ele>
      </trkpt>
      <trkpt lat="43.37437" lon="5.87188">
        <ele>518.16015625</ele>
      </trkpt>
      <trkpt lat="43.37393" lon="5.87253">
        <ele>522</ele>
      </trkpt>
      <trkpt lat="43.37379" lon="5.87175">
        <ele>522.76953125</ele>
      </trkpt>
      <trkpt lat="43.37347" lon="5.87109">
        <ele>524.52734375</ele>
      </trkpt>
      <trkpt lat="43.37342" lon="5.8696">
        <ele>530.1171875</ele>
      </trkpt>
      <trkpt lat="43.37326" lon="5.86815">
        <ele>536.2109375</ele>
      </trkpt>
      <trkpt lat="43.37325" lon="5.86735">
        <ele>539.53125</ele>
      </trkpt>
      <trkpt lat="43.37323" lon="5.86651">
        <ele>543.73046875</ele>
      </trkpt>
      <trkpt lat="43.37307" lon="5.86561">
        <ele>549.78125</ele>
      </trkpt>
      <trkpt lat="43.37286" lon="5.86487">
        <ele>549.28515625</ele>
      </trkpt>
      <trkpt lat="43.3726" lon="5.86409">
        <ele>549.171875</ele>
      </trkpt>
      <trkpt lat="43.37233" lon="5.86348">
        <ele>549.05078125</ele>
      </trkpt>
      <trkpt lat="43.37237" lon="5.86321">
        <ele>548.33203125</ele>
      </trkpt>
      <trkpt lat="43.37215" lon="5.86174">
        <ele>548.609375</ele>
      </trkpt>
      <trkpt lat="43.37214" lon="5.86068">
        <ele>550.02734375</ele>
      </trkpt>
      <trkpt lat="43.37196" lon="5.85968">
        <ele>549.58203125</ele>
      </trkpt>
      <trkpt lat="43.3718" lon="5.85896">
        <ele>549.82421875</ele>
      </trkpt>
      <trkpt lat="43.37164" lon="5.85824">
        <ele>549.96484375</ele>
      </trkpt>
      <trkpt lat="43.37151" lon="5.85776">
        <ele>550.86328125</ele>
      </trkpt>
      <trkpt lat="43.37128" lon="5.85768">
        <ele>551.93359375</ele>
      </trkpt>
      <trkpt lat="43.37105" lon="5.85753">
        <ele>552.03125</ele>
      </trkpt>
      <trkpt lat="43.37102" lon="5.85797">
        <ele>551.07421875</ele>
      </trkpt>
      <trkpt lat="43.37074" lon="5.85828">
        <ele>548.7890625</ele>
      </trkpt>
      <trkpt lat="43.37062" lon="5.85857">
        <ele>546.20703125</ele>
      </trkpt>
      <trkpt lat="43.37053" lon="5.85894">
        <ele>543.421875</ele>
      </trkpt>
      <trkpt lat="43.37033" lon="5.85889">
        <ele>540.640625</ele>
      </trkpt>
      <trkpt lat="43.37017" lon="5.85918">
        <ele>535.5234375</ele>
      </trkpt>
      <trkpt lat="43.36996" lon="5.85922">
        <ele>529.74609375</ele>
      </trkpt>
      <trkpt lat="43.36966" lon="5.85955">
        <ele>518.4765625</ele>
      </trkpt>
      <trkpt lat="43.36962" lon="5.86011">
        <ele>514.4765625</ele>
      </trkpt>
      <trkpt lat="43.3693" lon="5.86029">
        <ele>504.2890625</ele>
      </trkpt>
      <trkpt lat="43.36923" lon="5.86015">
        <ele>502.96875</ele>
      </trkpt>
      <trkpt lat="43.36915" lon="5.85959">
        <ele>504.09765625</ele>
      </trkpt>
      <trkpt lat="43.36885" lon="5.859">
        <ele>506.50390625</ele>
      </trkpt>
      <trkpt lat="43.3687" lon="5.85848">
        <ele>507.22265625</ele>
      </trkpt>
      <trkpt lat="43.36845" lon="5.85817">
        <ele>507.36328125</ele>
      </trkpt>
      <trkpt lat="43.36831" lon="5.85755">
        <ele>512.06640625</ele>
      </trkpt>
      <trkpt lat="43.36818" lon="5.8571">
        <ele>513.234375</ele>
      </trkpt>
      <trkpt lat="43.36807" lon="5.8564">
        <ele>513.7734375</ele>
      </trkpt>
      <trkpt lat="43.36802" lon="5.8558">
        <ele>516.46875</ele>
      </trkpt>
      <trkpt lat="43.36798" lon="5.85541">
        <ele>518.265625</ele>
      </trkpt>
      <trkpt lat="43.36804" lon="5.8547">
        <ele>521.80859375</ele>
      </trkpt>
      <trkpt lat="43.36849" lon="5.85436">
        <ele>534.60546875</ele>
      </trkpt>
      <trkpt lat="43.36889" lon="5.85375">
        <ele>539.609375</ele>
      </trkpt>
      <trkpt lat="43.36903" lon="5.85384">
        <ele>541.22265625</ele>
      </trkpt>
      <trkpt lat="43.36915" lon="5.85363">
        <ele>541.93359375</ele>
      </trkpt>
      <trkpt lat="43.36917" lon="5.85346">
        <ele>541.9375</ele>
      </trkpt>
      <trkpt lat="43.36954" lon="5.85362">
        <ele>540.66015625</ele>
      </trkpt>
      <trkpt lat="43.36973" lon="5.8539">
        <ele>540.296875</ele>
      </trkpt>
      <trkpt lat="43.37001" lon="5.85398">
        <ele>539.3359375</ele>
      </trkpt>
      <trkpt lat="43.37008" lon="5.8541">
        <ele>538.953125</ele>
      </trkpt>
      <trkpt lat="43.37032" lon="5.85415">
        <ele>537.98046875</ele>
      </trkpt>
      <trkpt lat="43.37118" lon="5.85489">
        <ele>537.484375</ele>
      </trkpt>
      <trkpt lat="43.37162" lon="5.85508">
        <ele>535.46875</ele>
      </trkpt>
      <trkpt lat="43.37215" lon="5.85532">
        <ele>532.57421875</ele>
      </trkpt>
      <trkpt lat="43.37253" lon="5.8554">
        <ele>532.140625</ele>
      </trkpt>
      <trkpt lat="43.37304" lon="5.85627">
        <ele>528.52734375</ele>
      </trkpt>
      <trkpt lat="43.37352" lon="5.85699">
        <ele>523.4140625</ele>
      </trkpt>
      <trkpt lat="43.37403" lon="5.85734">
        <ele>520.0625</ele>
      </trkpt>
      <trkpt lat="43.37449" lon="5.85778">
        <ele>520.7421875</ele>
      </trkpt>
      <trkpt lat="43.37497" lon="5.85788">
        <ele>520.8203125</ele>
      </trkpt>
      <trkpt lat="43.37526" lon="5.85761">
        <ele>518.734375</ele>
      </trkpt>
      <trkpt lat="43.37564" lon="5.85688">
        <ele>515.4296875</ele>
      </trkpt>
      <trkpt lat="43.37611" lon="5.85657">
        <ele>514.640625</ele>
      </trkpt>
      <trkpt lat="43.37662" lon="5.8564">
        <ele>512.546875</ele>
      </trkpt>
      <trkpt lat="43.37691" lon="5.85635">
        <ele>511.13671875</ele>
      </trkpt>
      <trkpt lat="43.37718" lon="5.85627">
        <ele>510.9921875</ele>
      </trkpt>
      <trkpt lat="43.37755" lon="5.85659">
        <ele>510.03125</ele>
      </trkpt>
      <trkpt lat="43.37775" lon="5.85698">
        <ele>512.91015625</ele>
      </trkpt>
      <trkpt lat="43.37796" lon="5.85773">
        <ele>508.00390625</ele>
      </trkpt>
      <trkpt lat="43.37826" lon="5.85851">
        <ele>502.45703125</ele>
      </trkpt>
      <trkpt lat="43.37862" lon="5.85922">
        <ele>494.3046875</ele>
      </trkpt>
      <trkpt lat="43.37907" lon="5.85988">
        <ele>480.72265625</ele>
      </trkpt>
      <trkpt lat="43.3795" lon="5.86013">
        <ele>471.73046875</ele>
      </trkpt>
      <trkpt lat="43.38018" lon="5.86001">
        <ele>472.0625</ele>
      </trkpt>
      <trkpt lat="43.38073" lon="5.85992">
        <ele>465.828125</ele>
      </trkpt>
      <trkpt lat="43.38138" lon="5.85942">
        <ele>459.9140625</ele>
      </trkpt>
      <trkpt lat="43.3818" lon="5.85867">
        <ele>458.1953125</ele>
      </trkpt>
      <trkpt lat="43.38219" lon="5.85801">
        <ele>453.0234375</ele>
      </trkpt>
      <trkpt lat="43.3825" lon="5.85714">
        <ele>449.67578125</ele>
      </trkpt>
      <trkpt lat="43.38271" lon="5.85645">
        <ele>450.80859375</ele>
      </trkpt>
      <trkpt lat="43.38339" lon="5.85609">
        <ele>443.8203125</ele>
      </trkpt>
      <trkpt lat="43.38393" lon="5.85603">
        <ele>439.5859375</ele>
      </trkpt>
      <trkpt lat="43.38445" lon="5.85619">
        <ele>431.38671875</ele>
      </trkpt>
      <trkpt lat="43.38482" lon="5.85632">
        <ele>423.6484375</ele>
      </trkpt>
      <trkpt lat="43.3854" lon="5.85579">
        <ele>421.734375</ele>
      </trkpt>
      <trkpt lat="43.38593" lon="5.85542">
        <ele>416.40234375</ele>
      </trkpt>
      <trkpt lat="43.3864" lon="5.85501">
        <ele>415.06640625</ele>
      </trkpt>
      <trkpt lat="43.38703" lon="5.85476">
        <ele>411.4921875</ele>
      </trkpt>
      <trkpt lat="43.38753" lon="5.85453">
        <ele>408.58984375</ele>
      </trkpt>
      <trkpt lat="43.38814" lon="5.854">
        <ele>402.7265625</ele>
      </trkpt>
      <trkpt lat="43.3884" lon="5.85324">
        <ele>398.36328125</ele>
      </trkpt>
      <trkpt lat="43.38846" lon="5.85176">
        <ele>396.96484375</ele>
      </trkpt>
      <trkpt lat="43.38855" lon="5.85126">
        <ele>394.0859375</ele>
      </trkpt>
      <trkpt lat="43.38913" lon="5.85119">
        <ele>385.4609375</ele>
      </trkpt>
      <trkpt lat="43.38974" lon="5.85132">
        <ele>380.515625</ele>
      </trkpt>
      <trkpt lat="43.39043" lon="5.85137">
        <ele>375.48046875</ele>
      </trkpt>
      <trkpt lat="43.39115" lon="5.85126">
        <ele>370.80859375</ele>
      </trkpt>
      <trkpt lat="43.39199" lon="5.85119">
        <ele>365.9296875</ele>
      </trkpt>
      <trkpt lat="43.39266" lon="5.85113">
        <ele>361.7109375</ele>
      </trkpt>
      <trkpt lat="43.39295" lon="5.85096">
        <ele>360.16796875</ele>
      </trkpt>
      <trkpt lat="43.39372" lon="5.85107">
        <ele>356.7109375</ele>
      </trkpt>
    </trkseg>
  </trk>
  <trk>
    <name><![CDATA[Nans]]></name>
    <trkseg>
      <trkpt lat="43.36634" lon="5.78065">
        <ele>434</ele>
        <time>2019-01-04T13:24:23Z</time>
      </trkpt>
      <trkpt lat="43.36634" lon="5.78065">
        <ele>430</ele>
        <time>2019-01-04T13:24:40Z</time>
      </trkpt>
      <trkpt lat="43.36632" lon="5.7806">
        <ele>425</ele>
        <time>2019-01-04T13:24:44Z</time>
      </trkpt>
      <trkpt lat="43.36632" lon="5.78065">
        <ele>419</ele>
        <time>2019-01-04T13:25:10Z</time>
      </trkpt>
      <trkpt lat="43.36637" lon="5.78067">
        <ele>425</ele>
        <time>2019-01-04T13:25:14Z</time>
      </trkpt>
      <trkpt lat="43.36644" lon="5.78063">
        <ele>424</ele>
        <time>2019-01-04T13:25:15Z</time>
      </trkpt>
      <trkpt lat="43.36649" lon="5.78064">
        <ele>422</ele>
        <time>2019-01-04T13:25:40Z</time>
      </trkpt>
      <trkpt lat="43.36632" lon="5.78067">
        <ele>420</ele>
        <time>2019-01-04T13:25:44Z</time>
      </trkpt>
      <trkpt lat="43.36642" lon="5.78072">
        <ele>424</ele>
        <time>2019-01-04T13:25:45Z</time>
      </trkpt>
      <trkpt lat="43.36642" lon="5.78069">
        <ele>425</ele>
        <time>2019-01-04T13:26:10Z</time>
      </trkpt>
      <trkpt lat="43.36639" lon="5.78071">
        <ele>433</ele>
        <time>2019-01-04T13:26:14Z</time>
      </trkpt>
      <trkpt lat="43.36642" lon="5.78066">
        <ele>437</ele>
        <time>2019-01-04T13:26:21Z</time>
      </trkpt>
      <trkpt lat="43.36646" lon="5.7807">
        <ele>442</ele>
        <time>2019-01-04T13:26:35Z</time>
      </trkpt>
      <trkpt lat="43.36651" lon="5.78071">
        <ele>442</ele>
        <time>2019-01-04T13:26:40Z</time>
      </trkpt>
      <trkpt lat="43.36655" lon="5.78074">
        <ele>440</ele>
        <time>2019-01-04T13:26:47Z</time>
      </trkpt>
      <trkpt lat="43.3666" lon="5.78074">
        <ele>435</ele>
        <time>2019-01-04T13:26:52Z</time>
      </trkpt>
      <trkpt lat="43.36665" lon="5.78073">
        <ele>432</ele>
        <time>2019-01-04T13:26:58Z</time>
      </trkpt>
      <trkpt lat="43.36669" lon="5.78075">
        <ele>430</ele>
        <time>2019-01-04T13:27:05Z</time>
      </trkpt>
      <trkpt lat="43.36675" lon="5.78077">
        <ele>429</ele>
        <time>2019-01-04T13:27:12Z</time>
      </trkpt>
      <trkpt lat="43.36679" lon="5.78079">
        <ele>429</ele>
        <time>2019-01-04T13:27:17Z</time>
      </trkpt>
      <trkpt lat="43.36684" lon="5.78081">
        <ele>428</ele>
        <time>2019-01-04T13:27:23Z</time>
      </trkpt>
      <trkpt lat="43.36688" lon="5.78084">
        <ele>428</ele>
        <time>2019-01-04T13:27:28Z</time>
      </trkpt>
      <trkpt lat="43.36693" lon="5.78087">
        <ele>428</ele>
        <time>2019-01-04T13:27:33Z</time>
      </trkpt>
      <trkpt lat="43.36697" lon="5.78089">
        <ele>427</ele>
        <time>2019-01-04T13:27:37Z</time>
      </trkpt>
      <trkpt lat="43.36702" lon="5.78091">
        <ele>427</ele>
        <time>2019-01-04T13:27:42Z</time>
      </trkpt>
      <trkpt lat="43.36707" lon="5.78094">
        <ele>426</ele>
        <time>2019-01-04T13:27:48Z</time>
      </trkpt>
      <trkpt lat="43.36712" lon="5.78096">
        <ele>426</ele>
        <time>2019-01-04T13:27:54Z</time>
      </trkpt>
      <trkpt lat="43.36717" lon="5.78097">
        <ele>425</ele>
        <time>2019-01-04T13:28:02Z</time>
      </trkpt>
      <trkpt lat="43.36712" lon="5.78097">
        <ele>424</ele>
        <time>2019-01-04T13:28:19Z</time>
      </trkpt>
      <trkpt lat="43.36707" lon="5.78095">
        <ele>424</ele>
        <time>2019-01-04T13:28:24Z</time>
      </trkpt>
      <trkpt lat="43.36702" lon="5.78091">
        <ele>424</ele>
        <time>2019-01-04T13:28:30Z</time>
      </trkpt>
      <trkpt lat="43.36697" lon="5.78088">
        <ele>424</ele>
        <time>2019-01-04T13:28:36Z</time>
      </trkpt>
      <trkpt lat="43.36693" lon="5.78087">
        <ele>424</ele>
        <time>2019-01-04T13:28:41Z</time>
      </trkpt>
      <trkpt lat="43.36689" lon="5.78083">
        <ele>424</ele>
        <time>2019-01-04T13:28:47Z</time>
      </trkpt>
      <trkpt lat="43.36684" lon="5.7808">
        <ele>424</ele>
        <time>2019-01-04T13:28:52Z</time>
      </trkpt>
      <trkpt lat="43.36678" lon="5.78078">
        <ele>425</ele>
        <time>2019-01-04T13:28:57Z</time>
      </trkpt>
      <trkpt lat="43.36673" lon="5.78077">
        <ele>426</ele>
        <time>2019-01-04T13:29:02Z</time>
      </trkpt>
      <trkpt lat="43.36668" lon="5.78075">
        <ele>426</ele>
        <time>2019-01-04T13:29:07Z</time>
      </trkpt>
      <trkpt lat="43.36663" lon="5.78074">
        <ele>427</ele>
        <time>2019-01-04T13:29:12Z</time>
      </trkpt>
      <trkpt lat="43.36657" lon="5.78073">
        <ele>427</ele>
        <time>2019-01-04T13:29:17Z</time>
      </trkpt>
      <trkpt lat="43.36652" lon="5.78072">
        <ele>427</ele>
        <time>2019-01-04T13:29:22Z</time>
      </trkpt>
      <trkpt lat="43.36647" lon="5.78072">
        <ele>427</ele>
        <time>2019-01-04T13:29:27Z</time>
      </trkpt>
      <trkpt lat="43.36642" lon="5.78069">
        <ele>428</ele>
        <time>2019-01-04T13:29:32Z</time>
      </trkpt>
      <trkpt lat="43.36637" lon="5.78067">
        <ele>427</ele>
        <time>2019-01-04T13:29:40Z</time>
      </trkpt>
      <trkpt lat="43.36632" lon="5.78068">
        <ele>427</ele>
        <time>2019-01-04T13:29:46Z</time>
      </trkpt>
      <trkpt lat="43.36626" lon="5.78067">
        <ele>427</ele>
        <time>2019-01-04T13:29:51Z</time>
      </trkpt>
      <trkpt lat="43.36622" lon="5.78067">
        <ele>427</ele>
        <time>2019-01-04T13:29:57Z</time>
      </trkpt>
      <trkpt lat="43.36617" lon="5.78069">
        <ele>427</ele>
        <time>2019-01-04T13:30:02Z</time>
      </trkpt>
      <trkpt lat="43.36612" lon="5.78069">
        <ele>427</ele>
        <time>2019-01-04T13:30:07Z</time>
      </trkpt>
      <trkpt lat="43.36606" lon="5.78068">
        <ele>427</ele>
        <time>2019-01-04T13:30:12Z</time>
      </trkpt>
      <trkpt lat="43.36601" lon="5.78067">
        <ele>427</ele>
        <time>2019-01-04T13:30:17Z</time>
      </trkpt>
      <trkpt lat="43.36596" lon="5.78066">
        <ele>427</ele>
        <time>2019-01-04T13:30:22Z</time>
      </trkpt>
      <trkpt lat="43.36591" lon="5.78065">
        <ele>428</ele>
        <time>2019-01-04T13:30:28Z</time>
      </trkpt>
      <trkpt lat="43.36586" lon="5.78064">
        <ele>428</ele>
        <time>2019-01-04T13:30:34Z</time>
      </trkpt>
      <trkpt lat="43.36581" lon="5.78061">
        <ele>428</ele>
        <time>2019-01-04T13:30:38Z</time>
      </trkpt>
      <trkpt lat="43.36576" lon="5.78058">
        <ele>429</ele>
        <time>2019-01-04T13:30:42Z</time>
      </trkpt>
      <trkpt lat="43.36572" lon="5.78055">
        <ele>430</ele>
        <time>2019-01-04T13:30:46Z</time>
      </trkpt>
      <trkpt lat="43.36567" lon="5.78052">
        <ele>431</ele>
        <time>2019-01-04T13:30:50Z</time>
      </trkpt>
      <trkpt lat="43.36562" lon="5.7805">
        <ele>431</ele>
        <time>2019-01-04T13:30:53Z</time>
      </trkpt>
      <trkpt lat="43.36558" lon="5.78046">
        <ele>432</ele>
        <time>2019-01-04T13:30:57Z</time>
      </trkpt>
      <trkpt lat="43.36553" lon="5.78044">
        <ele>433</ele>
        <time>2019-01-04T13:31:01Z</time>
      </trkpt>
      <trkpt lat="43.36548" lon="5.78042">
        <ele>433</ele>
        <time>2019-01-04T13:31:05Z</time>
      </trkpt>
      <trkpt lat="43.36545" lon="5.78037">
        <ele>433</ele>
        <time>2019-01-04T13:31:08Z</time>
      </trkpt>
      <trkpt lat="43.36541" lon="5.78032">
        <ele>433</ele>
        <time>2019-01-04T13:31:12Z</time>
      </trkpt>
      <trkpt lat="43.36537" lon="5.78027">
        <ele>434</ele>
        <time>2019-01-04T13:31:18Z</time>
      </trkpt>
      <trkpt lat="43.36533" lon="5.78025">
        <ele>434</ele>
        <time>2019-01-04T13:31:21Z</time>
      </trkpt>
      <trkpt lat="43.36529" lon="5.78022">
        <ele>434</ele>
        <time>2019-01-04T13:31:26Z</time>
      </trkpt>
      <trkpt lat="43.36526" lon="5.78016">
        <ele>436</ele>
        <time>2019-01-04T13:31:33Z</time>
      </trkpt>
      <trkpt lat="43.36522" lon="5.78012">
        <ele>436</ele>
        <time>2019-01-04T13:31:38Z</time>
      </trkpt>
      <trkpt lat="43.36518" lon="5.78007">
        <ele>438</ele>
        <time>2019-01-04T13:31:43Z</time>
      </trkpt>
      <trkpt lat="43.36514" lon="5.78005">
        <ele>439</ele>
        <time>2019-01-04T13:31:47Z</time>
      </trkpt>
      <trkpt lat="43.36509" lon="5.78">
        <ele>441</ele>
        <time>2019-01-04T13:31:52Z</time>
      </trkpt>
      <trkpt lat="43.36505" lon="5.77995">
        <ele>442</ele>
        <time>2019-01-04T13:31:56Z</time>
      </trkpt>
      <trkpt lat="43.36503" lon="5.77989">
        <ele>443</ele>
        <time>2019-01-04T13:32:00Z</time>
      </trkpt>
      <trkpt lat="43.365" lon="5.77983">
        <ele>443</ele>
        <time>2019-01-04T13:32:05Z</time>
      </trkpt>
      <trkpt lat="43.36495" lon="5.7798">
        <ele>444</ele>
        <time>2019-01-04T13:32:09Z</time>
      </trkpt>
      <trkpt lat="43.36491" lon="5.77975">
        <ele>444</ele>
        <time>2019-01-04T13:32:14Z</time>
      </trkpt>
      <trkpt lat="43.36486" lon="5.77972">
        <ele>445</ele>
        <time>2019-01-04T13:32:19Z</time>
      </trkpt>
      <trkpt lat="43.36482" lon="5.77967">
        <ele>446</ele>
        <time>2019-01-04T13:32:25Z</time>
      </trkpt>
      <trkpt lat="43.36477" lon="5.77965">
        <ele>447</ele>
        <time>2019-01-04T13:32:32Z</time>
      </trkpt>
      <trkpt lat="43.36471" lon="5.77963">
        <ele>448</ele>
        <time>2019-01-04T13:32:38Z</time>
      </trkpt>
      <trkpt lat="43.36466" lon="5.77961">
        <ele>449</ele>
        <time>2019-01-04T13:32:43Z</time>
      </trkpt>
      <trkpt lat="43.36461" lon="5.77959">
        <ele>450</ele>
        <time>2019-01-04T13:32:48Z</time>
      </trkpt>
      <trkpt lat="43.36456" lon="5.77955">
        <ele>451</ele>
        <time>2019-01-04T13:32:53Z</time>
      </trkpt>
      <trkpt lat="43.36451" lon="5.77952">
        <ele>452</ele>
        <time>2019-01-04T13:32:59Z</time>
      </trkpt>
      <trkpt lat="43.36447" lon="5.77951">
        <ele>454</ele>
        <time>2019-01-04T13:33:05Z</time>
      </trkpt>
      <trkpt lat="43.36442" lon="5.77946">
        <ele>454</ele>
        <time>2019-01-04T13:33:09Z</time>
      </trkpt>
      <trkpt lat="43.36438" lon="5.77943">
        <ele>455</ele>
        <time>2019-01-04T13:33:13Z</time>
      </trkpt>
      <trkpt lat="43.36433" lon="5.7794">
        <ele>456</ele>
        <time>2019-01-04T13:33:17Z</time>
      </trkpt>
      <trkpt lat="43.36429" lon="5.77935">
        <ele>457</ele>
        <time>2019-01-04T13:33:24Z</time>
      </trkpt>
      <trkpt lat="43.36425" lon="5.77932">
        <ele>457</ele>
        <time>2019-01-04T13:33:30Z</time>
      </trkpt>
      <trkpt lat="43.36419" lon="5.77926">
        <ele>457</ele>
        <time>2019-01-04T13:33:36Z</time>
      </trkpt>
      <trkpt lat="43.36414" lon="5.77922">
        <ele>458</ele>
        <time>2019-01-04T13:33:42Z</time>
      </trkpt>
      <trkpt lat="43.36409" lon="5.7792">
        <ele>459</ele>
        <time>2019-01-04T13:33:46Z</time>
      </trkpt>
      <trkpt lat="43.36406" lon="5.77915">
        <ele>460</ele>
        <time>2019-01-04T13:33:51Z</time>
      </trkpt>
      <trkpt lat="43.36402" lon="5.77909">
        <ele>461</ele>
        <time>2019-01-04T13:33:57Z</time>
      </trkpt>
      <trkpt lat="43.36398" lon="5.77906">
        <ele>463</ele>
        <time>2019-01-04T13:34:00Z</time>
      </trkpt>
      <trkpt lat="43.36394" lon="5.77901">
        <ele>464</ele>
        <time>2019-01-04T13:34:04Z</time>
      </trkpt>
      <trkpt lat="43.36389" lon="5.77897">
        <ele>465</ele>
        <time>2019-01-04T13:34:09Z</time>
      </trkpt>
      <trkpt lat="43.36385" lon="5.77894">
        <ele>466</ele>
        <time>2019-01-04T13:34:14Z</time>
      </trkpt>
      <trkpt lat="43.36379" lon="5.77891">
        <ele>466</ele>
        <time>2019-01-04T13:34:18Z</time>
      </trkpt>
      <trkpt lat="43.36375" lon="5.77888">
        <ele>466</ele>
        <time>2019-01-04T13:34:22Z</time>
      </trkpt>
      <trkpt lat="43.36372" lon="5.77884">
        <ele>466</ele>
        <time>2019-01-04T13:34:26Z</time>
      </trkpt>
      <trkpt lat="43.36368" lon="5.77878">
        <ele>466</ele>
        <time>2019-01-04T13:34:30Z</time>
      </trkpt>
      <trkpt lat="43.36364" lon="5.77875">
        <ele>466</ele>
        <time>2019-01-04T13:34:34Z</time>
      </trkpt>
      <trkpt lat="43.36359" lon="5.7787">
        <ele>466</ele>
        <time>2019-01-04T13:34:39Z</time>
      </trkpt>
      <trkpt lat="43.36355" lon="5.77866">
        <ele>466</ele>
        <time>2019-01-04T13:34:43Z</time>
      </trkpt>
      <trkpt lat="43.36351" lon="5.77865">
        <ele>467</ele>
        <time>2019-01-04T13:34:48Z</time>
      </trkpt>
      <trkpt lat="43.36346" lon="5.77864">
        <ele>467</ele>
        <time>2019-01-04T13:34:51Z</time>
      </trkpt>
      <trkpt lat="43.36341" lon="5.77862">
        <ele>467</ele>
        <time>2019-01-04T13:34:55Z</time>
      </trkpt>
      <trkpt lat="43.36337" lon="5.77858">
        <ele>466</ele>
        <time>2019-01-04T13:35:00Z</time>
      </trkpt>
      <trkpt lat="43.36332" lon="5.77855">
        <ele>466</ele>
        <time>2019-01-04T13:35:05Z</time>
      </trkpt>
      <trkpt lat="43.36326" lon="5.77853">
        <ele>466</ele>
        <time>2019-01-04T13:35:11Z</time>
      </trkpt>
      <trkpt lat="43.36321" lon="5.77851">
        <ele>465</ele>
        <time>2019-01-04T13:35:15Z</time>
      </trkpt>
      <trkpt lat="43.36316" lon="5.7785">
        <ele>465</ele>
        <time>2019-01-04T13:35:19Z</time>
      </trkpt>
      <trkpt lat="43.36311" lon="5.77849">
        <ele>465</ele>
        <time>2019-01-04T13:35:24Z</time>
      </trkpt>
      <trkpt lat="43.36306" lon="5.77848">
        <ele>465</ele>
        <time>2019-01-04T13:35:29Z</time>
      </trkpt>
      <trkpt lat="43.36302" lon="5.77849">
        <ele>465</ele>
        <time>2019-01-04T13:35:32Z</time>
      </trkpt>
      <trkpt lat="43.36297" lon="5.77848">
        <ele>465</ele>
        <time>2019-01-04T13:35:36Z</time>
      </trkpt>
      <trkpt lat="43.36291" lon="5.77848">
        <ele>465</ele>
        <time>2019-01-04T13:35:40Z</time>
      </trkpt>
      <trkpt lat="43.36285" lon="5.77849">
        <ele>465</ele>
        <time>2019-01-04T13:35:45Z</time>
      </trkpt>
      <trkpt lat="43.3628" lon="5.77848">
        <ele>466</ele>
        <time>2019-01-04T13:35:50Z</time>
      </trkpt>
      <trkpt lat="43.36275" lon="5.77847">
        <ele>466</ele>
        <time>2019-01-04T13:35:55Z</time>
      </trkpt>
      <trkpt lat="43.36271" lon="5.77848">
        <ele>467</ele>
        <time>2019-01-04T13:35:58Z</time>
      </trkpt>
      <trkpt lat="43.36266" lon="5.77849">
        <ele>467</ele>
        <time>2019-01-04T13:36:02Z</time>
      </trkpt>
      <trkpt lat="43.3626" lon="5.7785">
        <ele>468</ele>
        <time>2019-01-04T13:36:07Z</time>
      </trkpt>
      <trkpt lat="43.36255" lon="5.77849">
        <ele>468</ele>
        <time>2019-01-04T13:36:12Z</time>
      </trkpt>
      <trkpt lat="43.36249" lon="5.7785">
        <ele>468</ele>
        <time>2019-01-04T13:36:17Z</time>
      </trkpt>
      <trkpt lat="43.36245" lon="5.77851">
        <ele>468</ele>
        <time>2019-01-04T13:36:20Z</time>
      </trkpt>
      <trkpt lat="43.36241" lon="5.77852">
        <ele>468</ele>
        <time>2019-01-04T13:36:36Z</time>
      </trkpt>
      <trkpt lat="43.36222" lon="5.77869">
        <ele>462</ele>
        <time>2019-01-04T13:36:40Z</time>
      </trkpt>
      <trkpt lat="43.36237" lon="5.77855">
        <ele>459</ele>
        <time>2019-01-04T13:36:42Z</time>
      </trkpt>
      <trkpt lat="43.36232" lon="5.77858">
        <ele>455</ele>
        <time>2019-01-04T13:37:00Z</time>
      </trkpt>
      <trkpt lat="43.36228" lon="5.77863">
        <ele>451</ele>
        <time>2019-01-04T13:37:05Z</time>
      </trkpt>
      <trkpt lat="43.36224" lon="5.77867">
        <ele>449</ele>
        <time>2019-01-04T13:37:11Z</time>
      </trkpt>
      <trkpt lat="43.36221" lon="5.77871">
        <ele>451</ele>
        <time>2019-01-04T13:37:18Z</time>
      </trkpt>
      <trkpt lat="43.36216" lon="5.77873">
        <ele>452</ele>
        <time>2019-01-04T13:37:25Z</time>
      </trkpt>
      <trkpt lat="43.36211" lon="5.77877">
        <ele>454</ele>
        <time>2019-01-04T13:37:47Z</time>
      </trkpt>
      <trkpt lat="43.36206" lon="5.77876">
        <ele>457</ele>
        <time>2019-01-04T13:37:53Z</time>
      </trkpt>
      <trkpt lat="43.36201" lon="5.77876">
        <ele>459</ele>
        <time>2019-01-04T13:37:57Z</time>
      </trkpt>
      <trkpt lat="43.36196" lon="5.77875">
        <ele>460</ele>
        <time>2019-01-04T13:38:01Z</time>
      </trkpt>
      <trkpt lat="43.3619" lon="5.77877">
        <ele>462</ele>
        <time>2019-01-04T13:38:05Z</time>
      </trkpt>
      <trkpt lat="43.36186" lon="5.77878">
        <ele>463</ele>
        <time>2019-01-04T13:38:09Z</time>
      </trkpt>
      <trkpt lat="43.3618" lon="5.77879">
        <ele>463</ele>
        <time>2019-01-04T13:38:14Z</time>
      </trkpt>
      <trkpt lat="43.36175" lon="5.7788">
        <ele>464</ele>
        <time>2019-01-04T13:38:18Z</time>
      </trkpt>
      <trkpt lat="43.36169" lon="5.77881">
        <ele>464</ele>
        <time>2019-01-04T13:38:23Z</time>
      </trkpt>
      <trkpt lat="43.36164" lon="5.77883">
        <ele>464</ele>
        <time>2019-01-04T13:38:27Z</time>
      </trkpt>
      <trkpt lat="43.3616" lon="5.77884">
        <ele>464</ele>
        <time>2019-01-04T13:38:31Z</time>
      </trkpt>
      <trkpt lat="43.36154" lon="5.77886">
        <ele>464</ele>
        <time>2019-01-04T13:38:35Z</time>
      </trkpt>
      <trkpt lat="43.3615" lon="5.7789">
        <ele>463</ele>
        <time>2019-01-04T13:38:39Z</time>
      </trkpt>
      <trkpt lat="43.36146" lon="5.77894">
        <ele>464</ele>
        <time>2019-01-04T13:38:46Z</time>
      </trkpt>
      <trkpt lat="43.36142" lon="5.77898">
        <ele>464</ele>
        <time>2019-01-04T13:38:52Z</time>
      </trkpt>
      <trkpt lat="43.36137" lon="5.77901">
        <ele>465</ele>
        <time>2019-01-04T13:38:55Z</time>
      </trkpt>
      <trkpt lat="43.36133" lon="5.77903">
        <ele>465</ele>
        <time>2019-01-04T13:38:58Z</time>
      </trkpt>
      <trkpt lat="43.36129" lon="5.77906">
        <ele>466</ele>
        <time>2019-01-04T13:39:02Z</time>
      </trkpt>
      <trkpt lat="43.36124" lon="5.77907">
        <ele>465</ele>
        <time>2019-01-04T13:39:07Z</time>
      </trkpt>
      <trkpt lat="43.3612" lon="5.7791">
        <ele>465</ele>
        <time>2019-01-04T13:39:10Z</time>
      </trkpt>
      <trkpt lat="43.36115" lon="5.77911">
        <ele>465</ele>
        <time>2019-01-04T13:39:14Z</time>
      </trkpt>
      <trkpt lat="43.36111" lon="5.77912">
        <ele>464</ele>
        <time>2019-01-04T13:39:18Z</time>
      </trkpt>
      <trkpt lat="43.36106" lon="5.77912">
        <ele>464</ele>
        <time>2019-01-04T13:39:23Z</time>
      </trkpt>
      <trkpt lat="43.361" lon="5.77913">
        <ele>464</ele>
        <time>2019-01-04T13:39:29Z</time>
      </trkpt>
      <trkpt lat="43.36095" lon="5.77913">
        <ele>463</ele>
        <time>2019-01-04T13:39:35Z</time>
      </trkpt>
      <trkpt lat="43.36091" lon="5.77915">
        <ele>463</ele>
        <time>2019-01-04T13:39:41Z</time>
      </trkpt>
      <trkpt lat="43.36086" lon="5.77913">
        <ele>463</ele>
        <time>2019-01-04T13:39:44Z</time>
      </trkpt>
      <trkpt lat="43.36081" lon="5.77911">
        <ele>463</ele>
        <time>2019-01-04T13:39:47Z</time>
      </trkpt>
      <trkpt lat="43.36077" lon="5.77907">
        <ele>463</ele>
        <time>2019-01-04T13:39:50Z</time>
      </trkpt>
      <trkpt lat="43.36072" lon="5.77902">
        <ele>464</ele>
        <time>2019-01-04T13:39:55Z</time>
      </trkpt>
      <trkpt lat="43.36069" lon="5.77899">
        <ele>463</ele>
        <time>2019-01-04T13:40:00Z</time>
      </trkpt>
      <trkpt lat="43.36065" lon="5.77894">
        <ele>463</ele>
        <time>2019-01-04T13:40:05Z</time>
      </trkpt>
      <trkpt lat="43.3606" lon="5.7789">
        <ele>464</ele>
        <time>2019-01-04T13:40:10Z</time>
      </trkpt>
      <trkpt lat="43.36056" lon="5.77887">
        <ele>464</ele>
        <time>2019-01-04T13:40:13Z</time>
      </trkpt>
      <trkpt lat="43.36053" lon="5.77881">
        <ele>464</ele>
        <time>2019-01-04T13:40:17Z</time>
      </trkpt>
      <trkpt lat="43.3605" lon="5.77876">
        <ele>465</ele>
        <time>2019-01-04T13:40:20Z</time>
      </trkpt>
      <trkpt lat="43.36048" lon="5.7787">
        <ele>465</ele>
        <time>2019-01-04T13:40:24Z</time>
      </trkpt>
      <trkpt lat="43.36047" lon="5.77863">
        <ele>465</ele>
        <time>2019-01-04T13:40:27Z</time>
      </trkpt>
      <trkpt lat="43.36043" lon="5.77859">
        <ele>465</ele>
        <time>2019-01-04T13:40:31Z</time>
      </trkpt>
      <trkpt lat="43.36039" lon="5.77856">
        <ele>465</ele>
        <time>2019-01-04T13:40:36Z</time>
      </trkpt>
      <trkpt lat="43.36037" lon="5.77851">
        <ele>465</ele>
        <time>2019-01-04T13:40:41Z</time>
      </trkpt>
      <trkpt lat="43.36034" lon="5.77846">
        <ele>465</ele>
        <time>2019-01-04T13:40:45Z</time>
      </trkpt>
      <trkpt lat="43.3603" lon="5.77841">
        <ele>465</ele>
        <time>2019-01-04T13:40:49Z</time>
      </trkpt>
      <trkpt lat="43.36026" lon="5.77835">
        <ele>465</ele>
        <time>2019-01-04T13:40:54Z</time>
      </trkpt>
      <trkpt lat="43.36021" lon="5.77831">
        <ele>465</ele>
        <time>2019-01-04T13:40:58Z</time>
      </trkpt>
      <trkpt lat="43.36018" lon="5.77827">
        <ele>466</ele>
        <time>2019-01-04T13:41:02Z</time>
      </trkpt>
      <trkpt lat="43.36014" lon="5.77824">
        <ele>466</ele>
        <time>2019-01-04T13:41:06Z</time>
      </trkpt>
      <trkpt lat="43.36011" lon="5.77819">
        <ele>467</ele>
        <time>2019-01-04T13:41:10Z</time>
      </trkpt>
      <trkpt lat="43.36006" lon="5.77816">
        <ele>467</ele>
        <time>2019-01-04T13:41:14Z</time>
      </trkpt>
      <trkpt lat="43.36001" lon="5.77815">
        <ele>467</ele>
        <time>2019-01-04T13:41:17Z</time>
      </trkpt>
      <trkpt lat="43.35996" lon="5.77811">
        <ele>466</ele>
        <time>2019-01-04T13:41:21Z</time>
      </trkpt>
      <trkpt lat="43.35991" lon="5.77809">
        <ele>464</ele>
        <time>2019-01-04T13:41:27Z</time>
      </trkpt>
      <trkpt lat="43.35987" lon="5.77805">
        <ele>463</ele>
        <time>2019-01-04T13:41:32Z</time>
      </trkpt>
      <trkpt lat="43.35983" lon="5.77802">
        <ele>460</ele>
        <time>2019-01-04T13:41:35Z</time>
      </trkpt>
      <trkpt lat="43.35979" lon="5.77798">
        <ele>458</ele>
        <time>2019-01-04T13:41:38Z</time>
      </trkpt>
      <trkpt lat="43.35976" lon="5.77794">
        <ele>457</ele>
        <time>2019-01-04T13:41:41Z</time>
      </trkpt>
      <trkpt lat="43.35972" lon="5.7779">
        <ele>456</ele>
        <time>2019-01-04T13:41:45Z</time>
      </trkpt>
      <trkpt lat="43.35968" lon="5.77786">
        <ele>456</ele>
        <time>2019-01-04T13:41:52Z</time>
      </trkpt>
      <trkpt lat="43.35963" lon="5.77783">
        <ele>456</ele>
        <time>2019-01-04T13:41:56Z</time>
      </trkpt>
      <trkpt lat="43.35959" lon="5.77777">
        <ele>457</ele>
        <time>2019-01-04T13:42:00Z</time>
      </trkpt>
      <trkpt lat="43.35955" lon="5.77773">
        <ele>457</ele>
        <time>2019-01-04T13:42:04Z</time>
      </trkpt>
      <trkpt lat="43.35951" lon="5.77768">
        <ele>458</ele>
        <time>2019-01-04T13:42:08Z</time>
      </trkpt>
      <trkpt lat="43.35947" lon="5.77765">
        <ele>458</ele>
        <time>2019-01-04T13:42:12Z</time>
      </trkpt>
      <trkpt lat="43.35943" lon="5.7776">
        <ele>459</ele>
        <time>2019-01-04T13:42:16Z</time>
      </trkpt>
      <trkpt lat="43.35939" lon="5.77756">
        <ele>460</ele>
        <time>2019-01-04T13:42:20Z</time>
      </trkpt>
      <trkpt lat="43.35934" lon="5.77752">
        <ele>461</ele>
        <time>2019-01-04T13:42:24Z</time>
      </trkpt>
      <trkpt lat="43.35931" lon="5.77749">
        <ele>462</ele>
        <time>2019-01-04T13:42:28Z</time>
      </trkpt>
      <trkpt lat="43.35926" lon="5.77747">
        <ele>462</ele>
        <time>2019-01-04T13:42:32Z</time>
      </trkpt>
      <trkpt lat="43.35921" lon="5.77745">
        <ele>462</ele>
        <time>2019-01-04T13:42:36Z</time>
      </trkpt>
      <trkpt lat="43.35917" lon="5.77743">
        <ele>462</ele>
        <time>2019-01-04T13:42:40Z</time>
      </trkpt>
      <trkpt lat="43.35911" lon="5.77741">
        <ele>462</ele>
        <time>2019-01-04T13:42:45Z</time>
      </trkpt>
      <trkpt lat="43.35906" lon="5.77739">
        <ele>461</ele>
        <time>2019-01-04T13:42:51Z</time>
      </trkpt>
      <trkpt lat="43.35902" lon="5.7774">
        <ele>461</ele>
        <time>2019-01-04T13:42:56Z</time>
      </trkpt>
      <trkpt lat="43.35898" lon="5.77737">
        <ele>462</ele>
        <time>2019-01-04T13:43:00Z</time>
      </trkpt>
      <trkpt lat="43.35893" lon="5.77735">
        <ele>463</ele>
        <time>2019-01-04T13:43:03Z</time>
      </trkpt>
      <trkpt lat="43.35888" lon="5.77733">
        <ele>464</ele>
        <time>2019-01-04T13:43:07Z</time>
      </trkpt>
      <trkpt lat="43.35883" lon="5.77731">
        <ele>465</ele>
        <time>2019-01-04T13:43:10Z</time>
      </trkpt>
      <trkpt lat="43.35878" lon="5.77728">
        <ele>465</ele>
        <time>2019-01-04T13:43:14Z</time>
      </trkpt>
      <trkpt lat="43.35875" lon="5.77724">
        <ele>466</ele>
        <time>2019-01-04T13:43:18Z</time>
      </trkpt>
      <trkpt lat="43.3587" lon="5.77722">
        <ele>467</ele>
        <time>2019-01-04T13:43:22Z</time>
      </trkpt>
      <trkpt lat="43.35865" lon="5.77722">
        <ele>467</ele>
        <time>2019-01-04T13:43:26Z</time>
      </trkpt>
      <trkpt lat="43.35859" lon="5.77719">
        <ele>467</ele>
        <time>2019-01-04T13:43:31Z</time>
      </trkpt>
      <trkpt lat="43.35854" lon="5.77719">
        <ele>467</ele>
        <time>2019-01-04T13:43:35Z</time>
      </trkpt>
      <trkpt lat="43.3585" lon="5.77717">
        <ele>466</ele>
        <time>2019-01-04T13:43:39Z</time>
      </trkpt>
      <trkpt lat="43.35845" lon="5.77717">
        <ele>465</ele>
        <time>2019-01-04T13:43:43Z</time>
      </trkpt>
      <trkpt lat="43.35841" lon="5.77717">
        <ele>464</ele>
        <time>2019-01-04T13:43:46Z</time>
      </trkpt>
      <trkpt lat="43.35836" lon="5.77715">
        <ele>463</ele>
        <time>2019-01-04T13:43:50Z</time>
      </trkpt>
      <trkpt lat="43.3583" lon="5.77715">
        <ele>461</ele>
        <time>2019-01-04T13:43:54Z</time>
      </trkpt>
      <trkpt lat="43.35825" lon="5.77713">
        <ele>460</ele>
        <time>2019-01-04T13:43:58Z</time>
      </trkpt>
      <trkpt lat="43.3582" lon="5.77715">
        <ele>459</ele>
        <time>2019-01-04T13:44:02Z</time>
      </trkpt>
      <trkpt lat="43.35815" lon="5.77713">
        <ele>458</ele>
        <time>2019-01-04T13:44:06Z</time>
      </trkpt>
      <trkpt lat="43.3581" lon="5.77713">
        <ele>457</ele>
        <time>2019-01-04T13:44:09Z</time>
      </trkpt>
      <trkpt lat="43.35805" lon="5.77713">
        <ele>457</ele>
        <time>2019-01-04T13:44:12Z</time>
      </trkpt>
      <trkpt lat="43.358" lon="5.77715">
        <ele>456</ele>
        <time>2019-01-04T13:44:16Z</time>
      </trkpt>
      <trkpt lat="43.35794" lon="5.77714">
        <ele>456</ele>
        <time>2019-01-04T13:44:20Z</time>
      </trkpt>
      <trkpt lat="43.35789" lon="5.77713">
        <ele>455</ele>
        <time>2019-01-04T13:44:25Z</time>
      </trkpt>
      <trkpt lat="43.35785" lon="5.77711">
        <ele>454</ele>
        <time>2019-01-04T13:44:29Z</time>
      </trkpt>
      <trkpt lat="43.3578" lon="5.77709">
        <ele>454</ele>
        <time>2019-01-04T13:44:33Z</time>
      </trkpt>
      <trkpt lat="43.35775" lon="5.77708">
        <ele>454</ele>
        <time>2019-01-04T13:44:40Z</time>
      </trkpt>
      <trkpt lat="43.3577" lon="5.77707">
        <ele>454</ele>
        <time>2019-01-04T13:44:45Z</time>
      </trkpt>
      <trkpt lat="43.35766" lon="5.77705">
        <ele>454</ele>
        <time>2019-01-04T13:44:49Z</time>
      </trkpt>
      <trkpt lat="43.35762" lon="5.777">
        <ele>454</ele>
        <time>2019-01-04T13:44:55Z</time>
      </trkpt>
      <trkpt lat="43.35755" lon="5.77698">
        <ele>454</ele>
        <time>2019-01-04T13:45:00Z</time>
      </trkpt>
      <trkpt lat="43.3575" lon="5.77698">
        <ele>454</ele>
        <time>2019-01-04T13:45:03Z</time>
      </trkpt>
      <trkpt lat="43.35745" lon="5.77695">
        <ele>455</ele>
        <time>2019-01-04T13:45:08Z</time>
      </trkpt>
      <trkpt lat="43.3574" lon="5.77692">
        <ele>455</ele>
        <time>2019-01-04T13:45:12Z</time>
      </trkpt>
      <trkpt lat="43.35736" lon="5.77688">
        <ele>456</ele>
        <time>2019-01-04T13:45:16Z</time>
      </trkpt>
      <trkpt lat="43.35731" lon="5.77691">
        <ele>456</ele>
        <time>2019-01-04T13:45:21Z</time>
      </trkpt>
      <trkpt lat="43.3573" lon="5.77698">
        <ele>454</ele>
        <time>2019-01-04T13:45:27Z</time>
      </trkpt>
      <trkpt lat="43.35725" lon="5.77702">
        <ele>452</ele>
        <time>2019-01-04T13:45:33Z</time>
      </trkpt>
      <trkpt lat="43.3572" lon="5.77703">
        <ele>450</ele>
        <time>2019-01-04T13:45:38Z</time>
      </trkpt>
      <trkpt lat="43.35717" lon="5.77707">
        <ele>448</ele>
        <time>2019-01-04T13:45:42Z</time>
      </trkpt>
      <trkpt lat="43.35712" lon="5.77709">
        <ele>447</ele>
        <time>2019-01-04T13:45:49Z</time>
      </trkpt>
      <trkpt lat="43.35707" lon="5.77712">
        <ele>447</ele>
        <time>2019-01-04T13:45:57Z</time>
      </trkpt>
      <trkpt lat="43.35704" lon="5.77718">
        <ele>447</ele>
        <time>2019-01-04T13:46:04Z</time>
      </trkpt>
      <trkpt lat="43.35704" lon="5.77724">
        <ele>446</ele>
        <time>2019-01-04T13:46:09Z</time>
      </trkpt>
      <trkpt lat="43.35704" lon="5.77732">
        <ele>445</ele>
        <time>2019-01-04T13:46:16Z</time>
      </trkpt>
      <trkpt lat="43.35703" lon="5.77738">
        <ele>444</ele>
        <time>2019-01-04T13:46:20Z</time>
      </trkpt>
      <trkpt lat="43.357" lon="5.77746">
        <ele>442</ele>
        <time>2019-01-04T13:46:26Z</time>
      </trkpt>
      <trkpt lat="43.35699" lon="5.77753">
        <ele>441</ele>
        <time>2019-01-04T13:46:30Z</time>
      </trkpt>
      <trkpt lat="43.35697" lon="5.77759">
        <ele>440</ele>
        <time>2019-01-04T13:46:34Z</time>
      </trkpt>
      <trkpt lat="43.35693" lon="5.77763">
        <ele>440</ele>
        <time>2019-01-04T13:46:38Z</time>
      </trkpt>
      <trkpt lat="43.35689" lon="5.77768">
        <ele>440</ele>
        <time>2019-01-04T13:46:41Z</time>
      </trkpt>
      <trkpt lat="43.35685" lon="5.77772">
        <ele>440</ele>
        <time>2019-01-04T13:46:44Z</time>
      </trkpt>
      <trkpt lat="43.3568" lon="5.77775">
        <ele>440</ele>
        <time>2019-01-04T13:46:49Z</time>
      </trkpt>
      <trkpt lat="43.35675" lon="5.77775">
        <ele>441</ele>
        <time>2019-01-04T13:46:55Z</time>
      </trkpt>
      <trkpt lat="43.35671" lon="5.77773">
        <ele>442</ele>
        <time>2019-01-04T13:46:59Z</time>
      </trkpt>
      <trkpt lat="43.35666" lon="5.77772">
        <ele>442</ele>
        <time>2019-01-04T13:47:04Z</time>
      </trkpt>
      <trkpt lat="43.3566" lon="5.7777">
        <ele>443</ele>
        <time>2019-01-04T13:47:07Z</time>
      </trkpt>
      <trkpt lat="43.35655" lon="5.77769">
        <ele>443</ele>
        <time>2019-01-04T13:47:10Z</time>
      </trkpt>
      <trkpt lat="43.3565" lon="5.77768">
        <ele>443</ele>
        <time>2019-01-04T13:47:15Z</time>
      </trkpt>
      <trkpt lat="43.35645" lon="5.77768">
        <ele>444</ele>
        <time>2019-01-04T13:47:19Z</time>
      </trkpt>
      <trkpt lat="43.35641" lon="5.77768">
        <ele>444</ele>
        <time>2019-01-04T13:47:23Z</time>
      </trkpt>
      <trkpt lat="43.35635" lon="5.77764">
        <ele>445</ele>
        <time>2019-01-04T13:47:28Z</time>
      </trkpt>
      <trkpt lat="43.35631" lon="5.77762">
        <ele>445</ele>
        <time>2019-01-04T13:47:31Z</time>
      </trkpt>
      <trkpt lat="43.35627" lon="5.77758">
        <ele>445</ele>
        <time>2019-01-04T13:47:37Z</time>
      </trkpt>
      <trkpt lat="43.35624" lon="5.77754">
        <ele>445</ele>
        <time>2019-01-04T13:47:41Z</time>
      </trkpt>
      <trkpt lat="43.35619" lon="5.77751">
        <ele>445</ele>
        <time>2019-01-04T13:47:45Z</time>
      </trkpt>
      <trkpt lat="43.35614" lon="5.77751">
        <ele>445</ele>
        <time>2019-01-04T13:47:48Z</time>
      </trkpt>
      <trkpt lat="43.35608" lon="5.77751">
        <ele>445</ele>
        <time>2019-01-04T13:47:51Z</time>
      </trkpt>
      <trkpt lat="43.35604" lon="5.77751">
        <ele>445</ele>
        <time>2019-01-04T13:47:54Z</time>
      </trkpt>
      <trkpt lat="43.356" lon="5.77746">
        <ele>444</ele>
        <time>2019-01-04T13:48:00Z</time>
      </trkpt>
      <trkpt lat="43.35596" lon="5.7774">
        <ele>444</ele>
        <time>2019-01-04T13:48:05Z</time>
      </trkpt>
      <trkpt lat="43.35592" lon="5.77736">
        <ele>443</ele>
        <time>2019-01-04T13:48:09Z</time>
      </trkpt>
      <trkpt lat="43.35586" lon="5.77735">
        <ele>443</ele>
        <time>2019-01-04T13:48:15Z</time>
      </trkpt>
      <trkpt lat="43.35582" lon="5.77731">
        <ele>443</ele>
        <time>2019-01-04T13:48:21Z</time>
      </trkpt>
      <trkpt lat="43.35577" lon="5.77727">
        <ele>444</ele>
        <time>2019-01-04T13:48:25Z</time>
      </trkpt>
      <trkpt lat="43.35573" lon="5.77724">
        <ele>444</ele>
        <time>2019-01-04T13:48:28Z</time>
      </trkpt>
      <trkpt lat="43.35568" lon="5.77723">
        <ele>445</ele>
        <time>2019-01-04T13:48:31Z</time>
      </trkpt>
      <trkpt lat="43.35563" lon="5.77724">
        <ele>444</ele>
        <time>2019-01-04T13:48:36Z</time>
      </trkpt>
      <trkpt lat="43.35562" lon="5.7773">
        <ele>443</ele>
        <time>2019-01-04T13:48:41Z</time>
      </trkpt>
      <trkpt lat="43.35558" lon="5.77732">
        <ele>441</ele>
        <time>2019-01-04T13:48:47Z</time>
      </trkpt>
      <trkpt lat="43.35553" lon="5.77731">
        <ele>439</ele>
        <time>2019-01-04T13:48:50Z</time>
      </trkpt>
      <trkpt lat="43.35548" lon="5.7773">
        <ele>437</ele>
        <time>2019-01-04T13:48:54Z</time>
      </trkpt>
      <trkpt lat="43.35543" lon="5.77728">
        <ele>435</ele>
        <time>2019-01-04T13:48:57Z</time>
      </trkpt>
      <trkpt lat="43.35538" lon="5.77728">
        <ele>435</ele>
        <time>2019-01-04T13:49:00Z</time>
      </trkpt>
      <trkpt lat="43.35532" lon="5.77727">
        <ele>435</ele>
        <time>2019-01-04T13:49:04Z</time>
      </trkpt>
      <trkpt lat="43.35528" lon="5.77728">
        <ele>436</ele>
        <time>2019-01-04T13:49:08Z</time>
      </trkpt>
      <trkpt lat="43.35522" lon="5.77728">
        <ele>436</ele>
        <time>2019-01-04T13:49:12Z</time>
      </trkpt>
      <trkpt lat="43.35516" lon="5.77727">
        <ele>437</ele>
        <time>2019-01-04T13:49:15Z</time>
      </trkpt>
      <trkpt lat="43.35511" lon="5.77726">
        <ele>438</ele>
        <time>2019-01-04T13:49:20Z</time>
      </trkpt>
      <trkpt lat="43.35505" lon="5.77728">
        <ele>439</ele>
        <time>2019-01-04T13:49:23Z</time>
      </trkpt>
      <trkpt lat="43.35501" lon="5.77731">
        <ele>439</ele>
        <time>2019-01-04T13:49:28Z</time>
      </trkpt>
      <trkpt lat="43.35496" lon="5.77732">
        <ele>439</ele>
        <time>2019-01-04T13:49:33Z</time>
      </trkpt>
      <trkpt lat="43.35491" lon="5.77732">
        <ele>438</ele>
        <time>2019-01-04T13:49:38Z</time>
      </trkpt>
      <trkpt lat="43.35488" lon="5.77726">
        <ele>437</ele>
        <time>2019-01-04T13:49:42Z</time>
      </trkpt>
      <trkpt lat="43.35486" lon="5.7772">
        <ele>435</ele>
        <time>2019-01-04T13:49:46Z</time>
      </trkpt>
      <trkpt lat="43.35482" lon="5.77716">
        <ele>434</ele>
        <time>2019-01-04T13:49:50Z</time>
      </trkpt>
      <trkpt lat="43.35479" lon="5.77711">
        <ele>434</ele>
        <time>2019-01-04T13:49:54Z</time>
      </trkpt>
      <trkpt lat="43.35476" lon="5.77706">
        <ele>435</ele>
        <time>2019-01-04T13:49:57Z</time>
      </trkpt>
      <trkpt lat="43.35472" lon="5.77702">
        <ele>435</ele>
        <time>2019-01-04T13:50:00Z</time>
      </trkpt>
      <trkpt lat="43.35468" lon="5.77697">
        <ele>436</ele>
        <time>2019-01-04T13:50:04Z</time>
      </trkpt>
      <trkpt lat="43.35465" lon="5.77692">
        <ele>436</ele>
        <time>2019-01-04T13:50:08Z</time>
      </trkpt>
      <trkpt lat="43.35461" lon="5.77688">
        <ele>438</ele>
        <time>2019-01-04T13:50:16Z</time>
      </trkpt>
      <trkpt lat="43.35455" lon="5.77687">
        <ele>439</ele>
        <time>2019-01-04T13:50:20Z</time>
      </trkpt>
      <trkpt lat="43.3545" lon="5.77686">
        <ele>440</ele>
        <time>2019-01-04T13:50:24Z</time>
      </trkpt>
      <trkpt lat="43.35445" lon="5.77685">
        <ele>440</ele>
        <time>2019-01-04T13:50:28Z</time>
      </trkpt>
      <trkpt lat="43.3544" lon="5.77685">
        <ele>440</ele>
        <time>2019-01-04T13:50:32Z</time>
      </trkpt>
      <trkpt lat="43.35435" lon="5.77684">
        <ele>440</ele>
        <time>2019-01-04T13:50:36Z</time>
      </trkpt>
      <trkpt lat="43.3543" lon="5.77683">
        <ele>441</ele>
        <time>2019-01-04T13:50:40Z</time>
      </trkpt>
      <trkpt lat="43.35424" lon="5.77681">
        <ele>441</ele>
        <time>2019-01-04T13:50:45Z</time>
      </trkpt>
      <trkpt lat="43.3542" lon="5.77681">
        <ele>441</ele>
        <time>2019-01-04T13:50:48Z</time>
      </trkpt>
      <trkpt lat="43.35414" lon="5.77681">
        <ele>442</ele>
        <time>2019-01-04T13:50:52Z</time>
      </trkpt>
      <trkpt lat="43.35408" lon="5.77681">
        <ele>442</ele>
        <time>2019-01-04T13:50:56Z</time>
      </trkpt>
      <trkpt lat="43.35403" lon="5.77681">
        <ele>443</ele>
        <time>2019-01-04T13:51:01Z</time>
      </trkpt>
      <trkpt lat="43.35399" lon="5.77678">
        <ele>443</ele>
        <time>2019-01-04T13:51:06Z</time>
      </trkpt>
      <trkpt lat="43.35394" lon="5.77677">
        <ele>444</ele>
        <time>2019-01-04T13:51:10Z</time>
      </trkpt>
      <trkpt lat="43.35389" lon="5.77675">
        <ele>444</ele>
        <time>2019-01-04T13:51:14Z</time>
      </trkpt>
      <trkpt lat="43.35384" lon="5.77675">
        <ele>444</ele>
        <time>2019-01-04T13:51:19Z</time>
      </trkpt>
      <trkpt lat="43.35379" lon="5.77676">
        <ele>445</ele>
        <time>2019-01-04T13:51:22Z</time>
      </trkpt>
      <trkpt lat="43.35374" lon="5.77674">
        <ele>445</ele>
        <time>2019-01-04T13:51:26Z</time>
      </trkpt>
      <trkpt lat="43.35368" lon="5.77672">
        <ele>446</ele>
        <time>2019-01-04T13:51:35Z</time>
      </trkpt>
      <trkpt lat="43.35363" lon="5.77671">
        <ele>446</ele>
        <time>2019-01-04T13:51:39Z</time>
      </trkpt>
      <trkpt lat="43.35358" lon="5.77667">
        <ele>446</ele>
        <time>2019-01-04T13:51:43Z</time>
      </trkpt>
      <trkpt lat="43.35354" lon="5.77666">
        <ele>446</ele>
        <time>2019-01-04T13:51:47Z</time>
      </trkpt>
      <trkpt lat="43.3535" lon="5.77664">
        <ele>445</ele>
        <time>2019-01-04T13:51:51Z</time>
      </trkpt>
      <trkpt lat="43.35346" lon="5.77662">
        <ele>444</ele>
        <time>2019-01-04T13:51:56Z</time>
      </trkpt>
      <trkpt lat="43.3534" lon="5.7766">
        <ele>444</ele>
        <time>2019-01-04T13:52:00Z</time>
      </trkpt>
      <trkpt lat="43.35336" lon="5.77656">
        <ele>443</ele>
        <time>2019-01-04T13:52:05Z</time>
      </trkpt>
      <trkpt lat="43.35332" lon="5.77653">
        <ele>442</ele>
        <time>2019-01-04T13:52:09Z</time>
      </trkpt>
      <trkpt lat="43.35328" lon="5.77648">
        <ele>442</ele>
        <time>2019-01-04T13:52:13Z</time>
      </trkpt>
      <trkpt lat="43.35324" lon="5.77644">
        <ele>442</ele>
        <time>2019-01-04T13:52:18Z</time>
      </trkpt>
      <trkpt lat="43.35319" lon="5.77641">
        <ele>443</ele>
        <time>2019-01-04T13:52:24Z</time>
      </trkpt>
      <trkpt lat="43.35315" lon="5.77638">
        <ele>443</ele>
        <time>2019-01-04T13:52:28Z</time>
      </trkpt>
      <trkpt lat="43.35311" lon="5.77634">
        <ele>444</ele>
        <time>2019-01-04T13:52:32Z</time>
      </trkpt>
      <trkpt lat="43.35306" lon="5.77633">
        <ele>445</ele>
        <time>2019-01-04T13:52:36Z</time>
      </trkpt>
      <trkpt lat="43.35301" lon="5.77631">
        <ele>445</ele>
        <time>2019-01-04T13:52:40Z</time>
      </trkpt>
      <trkpt lat="43.35298" lon="5.77627">
        <ele>444</ele>
        <time>2019-01-04T13:52:45Z</time>
      </trkpt>
      <trkpt lat="43.35293" lon="5.77624">
        <ele>443</ele>
        <time>2019-01-04T13:52:50Z</time>
      </trkpt>
      <trkpt lat="43.35288" lon="5.77622">
        <ele>442</ele>
        <time>2019-01-04T13:52:54Z</time>
      </trkpt>
      <trkpt lat="43.35284" lon="5.77617">
        <ele>442</ele>
        <time>2019-01-04T13:52:59Z</time>
      </trkpt>
      <trkpt lat="43.3528" lon="5.77613">
        <ele>442</ele>
        <time>2019-01-04T13:53:06Z</time>
      </trkpt>
      <trkpt lat="43.35275" lon="5.77612">
        <ele>442</ele>
        <time>2019-01-04T13:53:11Z</time>
      </trkpt>
      <trkpt lat="43.35271" lon="5.77609">
        <ele>442</ele>
        <time>2019-01-04T13:53:16Z</time>
      </trkpt>
      <trkpt lat="43.35267" lon="5.77605">
        <ele>444</ele>
        <time>2019-01-04T13:53:21Z</time>
      </trkpt>
      <trkpt lat="43.35261" lon="5.77603">
        <ele>444</ele>
        <time>2019-01-04T13:53:38Z</time>
      </trkpt>
      <trkpt lat="43.35257" lon="5.77598">
        <ele>445</ele>
        <time>2019-01-04T13:53:45Z</time>
      </trkpt>
      <trkpt lat="43.35252" lon="5.77595">
        <ele>445</ele>
        <time>2019-01-04T13:53:51Z</time>
      </trkpt>
      <trkpt lat="43.35249" lon="5.77591">
        <ele>445</ele>
        <time>2019-01-04T13:53:58Z</time>
      </trkpt>
      <trkpt lat="43.35244" lon="5.77587">
        <ele>445</ele>
        <time>2019-01-04T13:54:03Z</time>
      </trkpt>
      <trkpt lat="43.3524" lon="5.77583">
        <ele>447</ele>
        <time>2019-01-04T13:54:08Z</time>
      </trkpt>
      <trkpt lat="43.35237" lon="5.77578">
        <ele>448</ele>
        <time>2019-01-04T13:54:15Z</time>
      </trkpt>
      <trkpt lat="43.35233" lon="5.77575">
        <ele>449</ele>
        <time>2019-01-04T13:54:21Z</time>
      </trkpt>
      <trkpt lat="43.35229" lon="5.77573">
        <ele>450</ele>
        <time>2019-01-04T13:54:26Z</time>
      </trkpt>
      <trkpt lat="43.35224" lon="5.77571">
        <ele>451</ele>
        <time>2019-01-04T13:54:31Z</time>
      </trkpt>
      <trkpt lat="43.3522" lon="5.77567">
        <ele>452</ele>
        <time>2019-01-04T13:54:36Z</time>
      </trkpt>
      <trkpt lat="43.35216" lon="5.77562">
        <ele>452</ele>
        <time>2019-01-04T13:54:41Z</time>
      </trkpt>
      <trkpt lat="43.35216" lon="5.77552">
        <ele>452</ele>
        <time>2019-01-04T13:54:54Z</time>
      </trkpt>
      <trkpt lat="43.35212" lon="5.77546">
        <ele>453</ele>
        <time>2019-01-04T13:55:07Z</time>
      </trkpt>
      <trkpt lat="43.35211" lon="5.7754">
        <ele>453</ele>
        <time>2019-01-04T13:55:13Z</time>
      </trkpt>
      <trkpt lat="43.35209" lon="5.77534">
        <ele>453</ele>
        <time>2019-01-04T13:55:18Z</time>
      </trkpt>
      <trkpt lat="43.35206" lon="5.77525">
        <ele>452</ele>
        <time>2019-01-04T13:55:26Z</time>
      </trkpt>
      <trkpt lat="43.35206" lon="5.77518">
        <ele>451</ele>
        <time>2019-01-04T13:55:30Z</time>
      </trkpt>
      <trkpt lat="43.35205" lon="5.77512">
        <ele>451</ele>
        <time>2019-01-04T13:55:34Z</time>
      </trkpt>
      <trkpt lat="43.35205" lon="5.77505">
        <ele>451</ele>
        <time>2019-01-04T13:55:38Z</time>
      </trkpt>
      <trkpt lat="43.35204" lon="5.77499">
        <ele>452</ele>
        <time>2019-01-04T13:55:43Z</time>
      </trkpt>
      <trkpt lat="43.35204" lon="5.77492">
        <ele>452</ele>
        <time>2019-01-04T13:55:47Z</time>
      </trkpt>
      <trkpt lat="43.35203" lon="5.77484">
        <ele>453</ele>
        <time>2019-01-04T13:55:52Z</time>
      </trkpt>
      <trkpt lat="43.35205" lon="5.77478">
        <ele>453</ele>
        <time>2019-01-04T13:55:56Z</time>
      </trkpt>
      <trkpt lat="43.35206" lon="5.7747">
        <ele>452</ele>
        <time>2019-01-04T13:56:01Z</time>
      </trkpt>
      <trkpt lat="43.35207" lon="5.77464">
        <ele>452</ele>
        <time>2019-01-04T13:56:04Z</time>
      </trkpt>
      <trkpt lat="43.35207" lon="5.77456">
        <ele>451</ele>
        <time>2019-01-04T13:56:08Z</time>
      </trkpt>
      <trkpt lat="43.35208" lon="5.77449">
        <ele>450</ele>
        <time>2019-01-04T13:56:12Z</time>
      </trkpt>
      <trkpt lat="43.35208" lon="5.7744">
        <ele>450</ele>
        <time>2019-01-04T13:56:17Z</time>
      </trkpt>
      <trkpt lat="43.35209" lon="5.77434">
        <ele>450</ele>
        <time>2019-01-04T13:56:21Z</time>
      </trkpt>
      <trkpt lat="43.3521" lon="5.77427">
        <ele>450</ele>
        <time>2019-01-04T13:56:27Z</time>
      </trkpt>
      <trkpt lat="43.35211" lon="5.77421">
        <ele>450</ele>
        <time>2019-01-04T13:56:31Z</time>
      </trkpt>
      <trkpt lat="43.35212" lon="5.77414">
        <ele>449</ele>
        <time>2019-01-04T13:56:35Z</time>
      </trkpt>
      <trkpt lat="43.35212" lon="5.77407">
        <ele>448</ele>
        <time>2019-01-04T13:56:39Z</time>
      </trkpt>
      <trkpt lat="43.35212" lon="5.77401">
        <ele>448</ele>
        <time>2019-01-04T13:56:43Z</time>
      </trkpt>
      <trkpt lat="43.35214" lon="5.77393">
        <ele>448</ele>
        <time>2019-01-04T13:56:46Z</time>
      </trkpt>
      <trkpt lat="43.35216" lon="5.77387">
        <ele>449</ele>
        <time>2019-01-04T13:56:49Z</time>
      </trkpt>
      <trkpt lat="43.35217" lon="5.77379">
        <ele>449</ele>
        <time>2019-01-04T13:56:54Z</time>
      </trkpt>
      <trkpt lat="43.35216" lon="5.77372">
        <ele>450</ele>
        <time>2019-01-04T13:57:12Z</time>
      </trkpt>
      <trkpt lat="43.35218" lon="5.77366">
        <ele>451</ele>
        <time>2019-01-04T13:57:16Z</time>
      </trkpt>
      <trkpt lat="43.35219" lon="5.77359">
        <ele>451</ele>
        <time>2019-01-04T13:57:20Z</time>
      </trkpt>
      <trkpt lat="43.35218" lon="5.77352">
        <ele>451</ele>
        <time>2019-01-04T13:57:24Z</time>
      </trkpt>
      <trkpt lat="43.3522" lon="5.77346">
        <ele>452</ele>
        <time>2019-01-04T13:57:28Z</time>
      </trkpt>
      <trkpt lat="43.35221" lon="5.7734">
        <ele>452</ele>
        <time>2019-01-04T13:57:40Z</time>
      </trkpt>
      <trkpt lat="43.35221" lon="5.77333">
        <ele>452</ele>
        <time>2019-01-04T13:57:45Z</time>
      </trkpt>
      <trkpt lat="43.35222" lon="5.77325">
        <ele>452</ele>
        <time>2019-01-04T13:57:55Z</time>
      </trkpt>
      <trkpt lat="43.35221" lon="5.77318">
        <ele>452</ele>
        <time>2019-01-04T13:57:58Z</time>
      </trkpt>
      <trkpt lat="43.35221" lon="5.77312">
        <ele>452</ele>
        <time>2019-01-04T13:58:02Z</time>
      </trkpt>
      <trkpt lat="43.35219" lon="5.77305">
        <ele>452</ele>
        <time>2019-01-04T13:58:06Z</time>
      </trkpt>
      <trkpt lat="43.3522" lon="5.77298">
        <ele>453</ele>
        <time>2019-01-04T13:58:10Z</time>
      </trkpt>
      <trkpt lat="43.3522" lon="5.7729">
        <ele>453</ele>
        <time>2019-01-04T13:58:14Z</time>
      </trkpt>
      <trkpt lat="43.3522" lon="5.77282">
        <ele>453</ele>
        <time>2019-01-04T13:58:18Z</time>
      </trkpt>
      <trkpt lat="43.35221" lon="5.77274">
        <ele>453</ele>
        <time>2019-01-04T13:58:21Z</time>
      </trkpt>
      <trkpt lat="43.3522" lon="5.77266">
        <ele>453</ele>
        <time>2019-01-04T13:58:25Z</time>
      </trkpt>
      <trkpt lat="43.3522" lon="5.77259">
        <ele>453</ele>
        <time>2019-01-04T13:58:29Z</time>
      </trkpt>
      <trkpt lat="43.35218" lon="5.77252">
        <ele>454</ele>
        <time>2019-01-04T13:58:35Z</time>
      </trkpt>
      <trkpt lat="43.35217" lon="5.77244">
        <ele>455</ele>
        <time>2019-01-04T13:58:40Z</time>
      </trkpt>
      <trkpt lat="43.35217" lon="5.77237">
        <ele>456</ele>
        <time>2019-01-04T13:58:45Z</time>
      </trkpt>
      <trkpt lat="43.35216" lon="5.7723">
        <ele>456</ele>
        <time>2019-01-04T13:58:49Z</time>
      </trkpt>
      <trkpt lat="43.35215" lon="5.77222">
        <ele>457</ele>
        <time>2019-01-04T13:58:53Z</time>
      </trkpt>
      <trkpt lat="43.35213" lon="5.77213">
        <ele>457</ele>
        <time>2019-01-04T13:58:57Z</time>
      </trkpt>
      <trkpt lat="43.3521" lon="5.77207">
        <ele>456</ele>
        <time>2019-01-04T13:59:01Z</time>
      </trkpt>
      <trkpt lat="43.35209" lon="5.77201">
        <ele>456</ele>
        <time>2019-01-04T13:59:04Z</time>
      </trkpt>
      <trkpt lat="43.35207" lon="5.77193">
        <ele>456</ele>
        <time>2019-01-04T13:59:08Z</time>
      </trkpt>
      <trkpt lat="43.35207" lon="5.77187">
        <ele>456</ele>
        <time>2019-01-04T13:59:11Z</time>
      </trkpt>
      <trkpt lat="43.35205" lon="5.77181">
        <ele>457</ele>
        <time>2019-01-04T13:59:15Z</time>
      </trkpt>
      <trkpt lat="43.35204" lon="5.77173">
        <ele>458</ele>
        <time>2019-01-04T13:59:20Z</time>
      </trkpt>
      <trkpt lat="43.35205" lon="5.77166">
        <ele>458</ele>
        <time>2019-01-04T13:59:23Z</time>
      </trkpt>
      <trkpt lat="43.35205" lon="5.77158">
        <ele>458</ele>
        <time>2019-01-04T13:59:27Z</time>
      </trkpt>
      <trkpt lat="43.35206" lon="5.7715">
        <ele>458</ele>
        <time>2019-01-04T13:59:31Z</time>
      </trkpt>
      <trkpt lat="43.35206" lon="5.77144">
        <ele>458</ele>
        <time>2019-01-04T13:59:35Z</time>
      </trkpt>
      <trkpt lat="43.35208" lon="5.77137">
        <ele>459</ele>
        <time>2019-01-04T13:59:42Z</time>
      </trkpt>
      <trkpt lat="43.3521" lon="5.7713">
        <ele>460</ele>
        <time>2019-01-04T13:59:45Z</time>
      </trkpt>
      <trkpt lat="43.35209" lon="5.77124">
        <ele>461</ele>
        <time>2019-01-04T13:59:48Z</time>
      </trkpt>
      <trkpt lat="43.3521" lon="5.77117">
        <ele>461</ele>
        <time>2019-01-04T13:59:51Z</time>
      </trkpt>
      <trkpt lat="43.35212" lon="5.77111">
        <ele>461</ele>
        <time>2019-01-04T13:59:55Z</time>
      </trkpt>
      <trkpt lat="43.35215" lon="5.77105">
        <ele>460</ele>
        <time>2019-01-04T13:59:59Z</time>
      </trkpt>
      <trkpt lat="43.3522" lon="5.77104">
        <ele>460</ele>
        <time>2019-01-04T14:00:05Z</time>
      </trkpt>
      <trkpt lat="43.35224" lon="5.77103">
        <ele>460</ele>
        <time>2019-01-04T14:00:11Z</time>
      </trkpt>
      <trkpt lat="43.35228" lon="5.77099">
        <ele>460</ele>
        <time>2019-01-04T14:00:16Z</time>
      </trkpt>
      <trkpt lat="43.35234" lon="5.77096">
        <ele>459</ele>
        <time>2019-01-04T14:00:21Z</time>
      </trkpt>
      <trkpt lat="43.3524" lon="5.77099">
        <ele>459</ele>
        <time>2019-01-04T14:00:25Z</time>
      </trkpt>
      <trkpt lat="43.35244" lon="5.77099">
        <ele>458</ele>
        <time>2019-01-04T14:00:28Z</time>
      </trkpt>
      <trkpt lat="43.3525" lon="5.77098">
        <ele>457</ele>
        <time>2019-01-04T14:00:32Z</time>
      </trkpt>
      <trkpt lat="43.35255" lon="5.77097">
        <ele>457</ele>
        <time>2019-01-04T14:00:35Z</time>
      </trkpt>
      <trkpt lat="43.35261" lon="5.77097">
        <ele>456</ele>
        <time>2019-01-04T14:00:39Z</time>
      </trkpt>
      <trkpt lat="43.35265" lon="5.77097">
        <ele>455</ele>
        <time>2019-01-04T14:00:42Z</time>
      </trkpt>
      <trkpt lat="43.3527" lon="5.77096">
        <ele>455</ele>
        <time>2019-01-04T14:00:46Z</time>
      </trkpt>
      <trkpt lat="43.35275" lon="5.77096">
        <ele>455</ele>
        <time>2019-01-04T14:00:50Z</time>
      </trkpt>
      <trkpt lat="43.3528" lon="5.77094">
        <ele>455</ele>
        <time>2019-01-04T14:00:53Z</time>
      </trkpt>
      <trkpt lat="43.35284" lon="5.77096">
        <ele>455</ele>
        <time>2019-01-04T14:00:56Z</time>
      </trkpt>
      <trkpt lat="43.35289" lon="5.77099">
        <ele>456</ele>
        <time>2019-01-04T14:01:00Z</time>
      </trkpt>
      <trkpt lat="43.35294" lon="5.77098">
        <ele>456</ele>
        <time>2019-01-04T14:01:04Z</time>
      </trkpt>
      <trkpt lat="43.35297" lon="5.77092">
        <ele>456</ele>
        <time>2019-01-04T14:01:11Z</time>
      </trkpt>
      <trkpt lat="43.35299" lon="5.77086">
        <ele>456</ele>
        <time>2019-01-04T14:01:15Z</time>
      </trkpt>
      <trkpt lat="43.35298" lon="5.77079">
        <ele>456</ele>
        <time>2019-01-04T14:01:19Z</time>
      </trkpt>
      <trkpt lat="43.35296" lon="5.77073">
        <ele>455</ele>
        <time>2019-01-04T14:01:23Z</time>
      </trkpt>
      <trkpt lat="43.35293" lon="5.77067">
        <ele>455</ele>
        <time>2019-01-04T14:01:26Z</time>
      </trkpt>
      <trkpt lat="43.35292" lon="5.7706">
        <ele>455</ele>
        <time>2019-01-04T14:01:32Z</time>
      </trkpt>
      <trkpt lat="43.35294" lon="5.77053">
        <ele>454</ele>
        <time>2019-01-04T14:01:37Z</time>
      </trkpt>
      <trkpt lat="43.35298" lon="5.77048">
        <ele>455</ele>
        <time>2019-01-04T14:01:42Z</time>
      </trkpt>
      <trkpt lat="43.353" lon="5.77043">
        <ele>455</ele>
        <time>2019-01-04T14:01:48Z</time>
      </trkpt>
      <trkpt lat="43.35303" lon="5.77037">
        <ele>457</ele>
        <time>2019-01-04T14:01:54Z</time>
      </trkpt>
      <trkpt lat="43.35302" lon="5.77031">
        <ele>458</ele>
        <time>2019-01-04T14:01:59Z</time>
      </trkpt>
      <trkpt lat="43.35299" lon="5.77024">
        <ele>460</ele>
        <time>2019-01-04T14:02:04Z</time>
      </trkpt>
      <trkpt lat="43.35297" lon="5.77017">
        <ele>461</ele>
        <time>2019-01-04T14:02:09Z</time>
      </trkpt>
      <trkpt lat="43.35293" lon="5.77012">
        <ele>462</ele>
        <time>2019-01-04T14:02:15Z</time>
      </trkpt>
      <trkpt lat="43.35289" lon="5.77009">
        <ele>464</ele>
        <time>2019-01-04T14:02:19Z</time>
      </trkpt>
      <trkpt lat="43.35286" lon="5.77003">
        <ele>464</ele>
        <time>2019-01-04T14:02:22Z</time>
      </trkpt>
      <trkpt lat="43.35283" lon="5.76999">
        <ele>465</ele>
        <time>2019-01-04T14:02:27Z</time>
      </trkpt>
      <trkpt lat="43.35279" lon="5.76994">
        <ele>467</ele>
        <time>2019-01-04T14:02:30Z</time>
      </trkpt>
      <trkpt lat="43.35275" lon="5.76989">
        <ele>468</ele>
        <time>2019-01-04T14:02:36Z</time>
      </trkpt>
      <trkpt lat="43.35271" lon="5.76984">
        <ele>468</ele>
        <time>2019-01-04T14:02:41Z</time>
      </trkpt>
      <trkpt lat="43.35268" lon="5.76979">
        <ele>469</ele>
        <time>2019-01-04T14:02:45Z</time>
      </trkpt>
      <trkpt lat="43.35264" lon="5.7697">
        <ele>470</ele>
        <time>2019-01-04T14:02:50Z</time>
      </trkpt>
      <trkpt lat="43.35264" lon="5.76964">
        <ele>470</ele>
        <time>2019-01-04T14:02:54Z</time>
      </trkpt>
      <trkpt lat="43.35261" lon="5.76959">
        <ele>471</ele>
        <time>2019-01-04T14:02:58Z</time>
      </trkpt>
      <trkpt lat="43.35258" lon="5.76954">
        <ele>471</ele>
        <time>2019-01-04T14:03:02Z</time>
      </trkpt>
      <trkpt lat="43.35257" lon="5.76948">
        <ele>472</ele>
        <time>2019-01-04T14:03:06Z</time>
      </trkpt>
      <trkpt lat="43.35253" lon="5.76943">
        <ele>472</ele>
        <time>2019-01-04T14:03:11Z</time>
      </trkpt>
      <trkpt lat="43.3525" lon="5.76938">
        <ele>472</ele>
        <time>2019-01-04T14:03:17Z</time>
      </trkpt>
      <trkpt lat="43.35247" lon="5.7693">
        <ele>473</ele>
        <time>2019-01-04T14:03:22Z</time>
      </trkpt>
      <trkpt lat="43.35245" lon="5.76923">
        <ele>474</ele>
        <time>2019-01-04T14:03:31Z</time>
      </trkpt>
      <trkpt lat="43.35244" lon="5.76917">
        <ele>475</ele>
        <time>2019-01-04T14:03:37Z</time>
      </trkpt>
      <trkpt lat="43.35244" lon="5.7691">
        <ele>477</ele>
        <time>2019-01-04T14:03:43Z</time>
      </trkpt>
      <trkpt lat="43.35243" lon="5.76903">
        <ele>478</ele>
        <time>2019-01-04T14:03:47Z</time>
      </trkpt>
      <trkpt lat="43.35241" lon="5.76897">
        <ele>479</ele>
        <time>2019-01-04T14:03:52Z</time>
      </trkpt>
      <trkpt lat="43.35239" lon="5.7689">
        <ele>479</ele>
        <time>2019-01-04T14:03:57Z</time>
      </trkpt>
      <trkpt lat="43.35239" lon="5.76883">
        <ele>479</ele>
        <time>2019-01-04T14:04:02Z</time>
      </trkpt>
      <trkpt lat="43.35236" lon="5.76877">
        <ele>479</ele>
        <time>2019-01-04T14:04:07Z</time>
      </trkpt>
      <trkpt lat="43.35235" lon="5.7687">
        <ele>480</ele>
        <time>2019-01-04T14:04:11Z</time>
      </trkpt>
      <trkpt lat="43.35231" lon="5.76866">
        <ele>481</ele>
        <time>2019-01-04T14:04:15Z</time>
      </trkpt>
      <trkpt lat="43.35229" lon="5.76859">
        <ele>481</ele>
        <time>2019-01-04T14:04:20Z</time>
      </trkpt>
      <trkpt lat="43.35228" lon="5.76853">
        <ele>482</ele>
        <time>2019-01-04T14:04:24Z</time>
      </trkpt>
      <trkpt lat="43.35224" lon="5.76848">
        <ele>482</ele>
        <time>2019-01-04T14:04:29Z</time>
      </trkpt>
      <trkpt lat="43.35223" lon="5.76841">
        <ele>482</ele>
        <time>2019-01-04T14:04:33Z</time>
      </trkpt>
      <trkpt lat="43.35221" lon="5.76835">
        <ele>482</ele>
        <time>2019-01-04T14:04:39Z</time>
      </trkpt>
      <trkpt lat="43.35204" lon="5.76828">
        <ele>482</ele>
        <time>2019-01-04T14:04:46Z</time>
      </trkpt>
      <trkpt lat="43.35217" lon="5.76821">
        <ele>482</ele>
        <time>2019-01-04T14:04:50Z</time>
      </trkpt>
      <trkpt lat="43.35215" lon="5.76815">
        <ele>482</ele>
        <time>2019-01-04T14:04:55Z</time>
      </trkpt>
      <trkpt lat="43.35215" lon="5.76808">
        <ele>482</ele>
        <time>2019-01-04T14:04:59Z</time>
      </trkpt>
      <trkpt lat="43.35212" lon="5.76799">
        <ele>482</ele>
        <time>2019-01-04T14:05:03Z</time>
      </trkpt>
      <trkpt lat="43.35208" lon="5.76792">
        <ele>483</ele>
        <time>2019-01-04T14:05:08Z</time>
      </trkpt>
      <trkpt lat="43.35206" lon="5.76785">
        <ele>483</ele>
        <time>2019-01-04T14:05:13Z</time>
      </trkpt>
      <trkpt lat="43.35203" lon="5.76778">
        <ele>484</ele>
        <time>2019-01-04T14:05:19Z</time>
      </trkpt>
      <trkpt lat="43.35201" lon="5.76772">
        <ele>484</ele>
        <time>2019-01-04T14:05:23Z</time>
      </trkpt>
      <trkpt lat="43.35199" lon="5.76766">
        <ele>484</ele>
        <time>2019-01-04T14:05:28Z</time>
      </trkpt>
      <trkpt lat="43.35197" lon="5.7676">
        <ele>484</ele>
        <time>2019-01-04T14:05:31Z</time>
      </trkpt>
      <trkpt lat="43.35195" lon="5.76754">
        <ele>484</ele>
        <time>2019-01-04T14:05:36Z</time>
      </trkpt>
      <trkpt lat="43.35195" lon="5.76748">
        <ele>484</ele>
        <time>2019-01-04T14:05:49Z</time>
      </trkpt>
      <trkpt lat="43.35194" lon="5.76742">
        <ele>484</ele>
        <time>2019-01-04T14:05:54Z</time>
      </trkpt>
      <trkpt lat="43.35191" lon="5.76736">
        <ele>484</ele>
        <time>2019-01-04T14:05:58Z</time>
      </trkpt>
      <trkpt lat="43.35189" lon="5.7673">
        <ele>484</ele>
        <time>2019-01-04T14:06:02Z</time>
      </trkpt>
      <trkpt lat="43.35187" lon="5.76724">
        <ele>484</ele>
        <time>2019-01-04T14:06:07Z</time>
      </trkpt>
      <trkpt lat="43.35185" lon="5.76718">
        <ele>484</ele>
        <time>2019-01-04T14:06:12Z</time>
      </trkpt>
      <trkpt lat="43.35181" lon="5.76713">
        <ele>483</ele>
        <time>2019-01-04T14:06:16Z</time>
      </trkpt>
      <trkpt lat="43.35179" lon="5.76707">
        <ele>482</ele>
        <time>2019-01-04T14:06:20Z</time>
      </trkpt>
      <trkpt lat="43.35176" lon="5.76701">
        <ele>481</ele>
        <time>2019-01-04T14:06:25Z</time>
      </trkpt>
      <trkpt lat="43.35173" lon="5.76696">
        <ele>481</ele>
        <time>2019-01-04T14:06:29Z</time>
      </trkpt>
      <trkpt lat="43.35171" lon="5.76689">
        <ele>480</ele>
        <time>2019-01-04T14:06:35Z</time>
      </trkpt>
      <trkpt lat="43.3517" lon="5.76683">
        <ele>480</ele>
        <time>2019-01-04T14:06:39Z</time>
      </trkpt>
      <trkpt lat="43.35168" lon="5.76676">
        <ele>479</ele>
        <time>2019-01-04T14:06:42Z</time>
      </trkpt>
      <trkpt lat="43.35165" lon="5.7667">
        <ele>478</ele>
        <time>2019-01-04T14:06:46Z</time>
      </trkpt>
      <trkpt lat="43.35164" lon="5.76664">
        <ele>478</ele>
        <time>2019-01-04T14:06:50Z</time>
      </trkpt>
      <trkpt lat="43.35163" lon="5.76657">
        <ele>478</ele>
        <time>2019-01-04T14:06:54Z</time>
      </trkpt>
      <trkpt lat="43.35162" lon="5.7665">
        <ele>477</ele>
        <time>2019-01-04T14:06:58Z</time>
      </trkpt>
      <trkpt lat="43.3516" lon="5.76644">
        <ele>477</ele>
        <time>2019-01-04T14:07:03Z</time>
      </trkpt>
      <trkpt lat="43.3516" lon="5.76636">
        <ele>477</ele>
        <time>2019-01-04T14:07:07Z</time>
      </trkpt>
      <trkpt lat="43.3516" lon="5.76628">
        <ele>477</ele>
        <time>2019-01-04T14:07:12Z</time>
      </trkpt>
      <trkpt lat="43.3516" lon="5.7662">
        <ele>478</ele>
        <time>2019-01-04T14:07:16Z</time>
      </trkpt>
      <trkpt lat="43.3516" lon="5.76614">
        <ele>479</ele>
        <time>2019-01-04T14:07:20Z</time>
      </trkpt>
      <trkpt lat="43.3516" lon="5.76606">
        <ele>479</ele>
        <time>2019-01-04T14:07:25Z</time>
      </trkpt>
      <trkpt lat="43.35161" lon="5.766">
        <ele>480</ele>
        <time>2019-01-04T14:07:28Z</time>
      </trkpt>
      <trkpt lat="43.3516" lon="5.76593">
        <ele>480</ele>
        <time>2019-01-04T14:07:31Z</time>
      </trkpt>
      <trkpt lat="43.35159" lon="5.76586">
        <ele>480</ele>
        <time>2019-01-04T14:07:34Z</time>
      </trkpt>
      <trkpt lat="43.35157" lon="5.76579">
        <ele>480</ele>
        <time>2019-01-04T14:07:37Z</time>
      </trkpt>
      <trkpt lat="43.35157" lon="5.76573">
        <ele>480</ele>
        <time>2019-01-04T14:07:42Z</time>
      </trkpt>
      <trkpt lat="43.35157" lon="5.76564">
        <ele>479</ele>
        <time>2019-01-04T14:07:47Z</time>
      </trkpt>
      <trkpt lat="43.35156" lon="5.76556">
        <ele>478</ele>
        <time>2019-01-04T14:07:52Z</time>
      </trkpt>
      <trkpt lat="43.35151" lon="5.76556">
        <ele>478</ele>
        <time>2019-01-04T14:08:02Z</time>
      </trkpt>
      <trkpt lat="43.35152" lon="5.76549">
        <ele>477</ele>
        <time>2019-01-04T14:08:05Z</time>
      </trkpt>
      <trkpt lat="43.35153" lon="5.76541">
        <ele>476</ele>
        <time>2019-01-04T14:08:10Z</time>
      </trkpt>
      <trkpt lat="43.35152" lon="5.76534">
        <ele>476</ele>
        <time>2019-01-04T14:08:14Z</time>
      </trkpt>
      <trkpt lat="43.35152" lon="5.76526">
        <ele>475</ele>
        <time>2019-01-04T14:08:18Z</time>
      </trkpt>
      <trkpt lat="43.35152" lon="5.76519">
        <ele>475</ele>
        <time>2019-01-04T14:08:22Z</time>
      </trkpt>
      <trkpt lat="43.35152" lon="5.76512">
        <ele>474</ele>
        <time>2019-01-04T14:08:26Z</time>
      </trkpt>
      <trkpt lat="43.35152" lon="5.76505">
        <ele>473</ele>
        <time>2019-01-04T14:08:30Z</time>
      </trkpt>
      <trkpt lat="43.35149" lon="5.76499">
        <ele>472</ele>
        <time>2019-01-04T14:08:34Z</time>
      </trkpt>
      <trkpt lat="43.35149" lon="5.76493">
        <ele>471</ele>
        <time>2019-01-04T14:08:37Z</time>
      </trkpt>
      <trkpt lat="43.35149" lon="5.76486">
        <ele>471</ele>
        <time>2019-01-04T14:08:41Z</time>
      </trkpt>
      <trkpt lat="43.35148" lon="5.7648">
        <ele>470</ele>
        <time>2019-01-04T14:08:45Z</time>
      </trkpt>
      <trkpt lat="43.35146" lon="5.76472">
        <ele>471</ele>
        <time>2019-01-04T14:08:50Z</time>
      </trkpt>
      <trkpt lat="43.35146" lon="5.76464">
        <ele>471</ele>
        <time>2019-01-04T14:08:56Z</time>
      </trkpt>
      <trkpt lat="43.35146" lon="5.76457">
        <ele>471</ele>
        <time>2019-01-04T14:09:02Z</time>
      </trkpt>
      <trkpt lat="43.35146" lon="5.76451">
        <ele>471</ele>
        <time>2019-01-04T14:09:06Z</time>
      </trkpt>
      <trkpt lat="43.35147" lon="5.76444">
        <ele>470</ele>
        <time>2019-01-04T14:09:11Z</time>
      </trkpt>
      <trkpt lat="43.35146" lon="5.76438">
        <ele>470</ele>
        <time>2019-01-04T14:09:14Z</time>
      </trkpt>
      <trkpt lat="43.35146" lon="5.76431">
        <ele>469</ele>
        <time>2019-01-04T14:09:17Z</time>
      </trkpt>
      <trkpt lat="43.35145" lon="5.76425">
        <ele>468</ele>
        <time>2019-01-04T14:09:20Z</time>
      </trkpt>
      <trkpt lat="43.35137" lon="5.7642">
        <ele>460</ele>
        <time>2019-01-04T14:10:23Z</time>
      </trkpt>
      <trkpt lat="43.35129" lon="5.76416">
        <ele>460</ele>
        <time>2019-01-04T14:10:28Z</time>
      </trkpt>
      <trkpt lat="43.35102" lon="5.76435">
        <ele>460</ele>
        <time>2019-01-04T14:10:32Z</time>
      </trkpt>
      <trkpt lat="43.35034" lon="5.76484">
        <ele>460</ele>
        <time>2019-01-04T14:10:35Z</time>
      </trkpt>
      <trkpt lat="43.3475" lon="5.76406">
        <ele>460</ele>
        <time>2019-01-04T14:10:38Z</time>
      </trkpt>
      <trkpt lat="43.3462" lon="5.76302">
        <ele>460</ele>
        <time>2019-01-04T14:10:41Z</time>
      </trkpt>
      <trkpt lat="43.34767" lon="5.76407">
        <ele>459</ele>
        <time>2019-01-04T14:10:44Z</time>
      </trkpt>
      <trkpt lat="43.34943" lon="5.76417">
        <ele>459</ele>
        <time>2019-01-04T14:10:55Z</time>
      </trkpt>
      <trkpt lat="43.35101" lon="5.76046">
        <ele>459</ele>
        <time>2019-01-04T14:10:58Z</time>
      </trkpt>
      <trkpt lat="43.35118" lon="5.7613">
        <ele>458</ele>
        <time>2019-01-04T14:11:02Z</time>
      </trkpt>
      <trkpt lat="43.35162" lon="5.76153">
        <ele>458</ele>
        <time>2019-01-04T14:11:06Z</time>
      </trkpt>
      <trkpt lat="43.35163" lon="5.76154">
        <ele>458</ele>
        <time>2019-01-04T14:11:10Z</time>
      </trkpt>
      <trkpt lat="43.35163" lon="5.76151">
        <ele>457</ele>
        <time>2019-01-04T14:11:14Z</time>
      </trkpt>
      <trkpt lat="43.35158" lon="5.76152">
        <ele>457</ele>
        <time>2019-01-04T14:11:18Z</time>
      </trkpt>
      <trkpt lat="43.35156" lon="5.76151">
        <ele>456</ele>
        <time>2019-01-04T14:11:25Z</time>
      </trkpt>
      <trkpt lat="43.35153" lon="5.7615">
        <ele>456</ele>
        <time>2019-01-04T14:11:29Z</time>
      </trkpt>
      <trkpt lat="43.35156" lon="5.76152">
        <ele>456</ele>
        <time>2019-01-04T14:11:34Z</time>
      </trkpt>
      <trkpt lat="43.35158" lon="5.76152">
        <ele>441</ele>
        <time>2019-01-04T14:16:47Z</time>
      </trkpt>
      <trkpt lat="43.35164" lon="5.76151">
        <ele>440</ele>
        <time>2019-01-04T14:17:06Z</time>
      </trkpt>
      <trkpt lat="43.35166" lon="5.76145">
        <ele>439</ele>
        <time>2019-01-04T14:17:10Z</time>
      </trkpt>
      <trkpt lat="43.35168" lon="5.76138">
        <ele>439</ele>
        <time>2019-01-04T14:17:15Z</time>
      </trkpt>
      <trkpt lat="43.35171" lon="5.76132">
        <ele>439</ele>
        <time>2019-01-04T14:17:19Z</time>
      </trkpt>
      <trkpt lat="43.35175" lon="5.76126">
        <ele>439</ele>
        <time>2019-01-04T14:17:24Z</time>
      </trkpt>
      <trkpt lat="43.35178" lon="5.76121">
        <ele>439</ele>
        <time>2019-01-04T14:17:28Z</time>
      </trkpt>
      <trkpt lat="43.35183" lon="5.76117">
        <ele>439</ele>
        <time>2019-01-04T14:17:32Z</time>
      </trkpt>
      <trkpt lat="43.35185" lon="5.76112">
        <ele>440</ele>
        <time>2019-01-04T14:17:36Z</time>
      </trkpt>
      <trkpt lat="43.35189" lon="5.76109">
        <ele>440</ele>
        <time>2019-01-04T14:17:40Z</time>
      </trkpt>
      <trkpt lat="43.35193" lon="5.76104">
        <ele>440</ele>
        <time>2019-01-04T14:17:44Z</time>
      </trkpt>
      <trkpt lat="43.35196" lon="5.76098">
        <ele>440</ele>
        <time>2019-01-04T14:17:49Z</time>
      </trkpt>
      <trkpt lat="43.35199" lon="5.76091">
        <ele>440</ele>
        <time>2019-01-04T14:17:53Z</time>
      </trkpt>
      <trkpt lat="43.35202" lon="5.76085">
        <ele>441</ele>
        <time>2019-01-04T14:17:57Z</time>
      </trkpt>
      <trkpt lat="43.35204" lon="5.7608">
        <ele>441</ele>
        <time>2019-01-04T14:18:01Z</time>
      </trkpt>
      <trkpt lat="43.35207" lon="5.76073">
        <ele>441</ele>
        <time>2019-01-04T14:18:06Z</time>
      </trkpt>
      <trkpt lat="43.35208" lon="5.76068">
        <ele>440</ele>
        <time>2019-01-04T14:18:10Z</time>
      </trkpt>
      <trkpt lat="43.3521" lon="5.76062">
        <ele>439</ele>
        <time>2019-01-04T14:18:14Z</time>
      </trkpt>
      <trkpt lat="43.35213" lon="5.76056">
        <ele>438</ele>
        <time>2019-01-04T14:18:18Z</time>
      </trkpt>
      <trkpt lat="43.35216" lon="5.76052">
        <ele>437</ele>
        <time>2019-01-04T14:18:22Z</time>
      </trkpt>
      <trkpt lat="43.3522" lon="5.76046">
        <ele>437</ele>
        <time>2019-01-04T14:18:27Z</time>
      </trkpt>
      <trkpt lat="43.35222" lon="5.76041">
        <ele>436</ele>
        <time>2019-01-04T14:18:31Z</time>
      </trkpt>
      <trkpt lat="43.35226" lon="5.76036">
        <ele>436</ele>
        <time>2019-01-04T14:18:36Z</time>
      </trkpt>
      <trkpt lat="43.35321" lon="5.75952">
        <ele>420</ele>
        <time>2019-01-04T14:25:04Z</time>
      </trkpt>
      <trkpt lat="43.35327" lon="5.75949">
        <ele>419</ele>
        <time>2019-01-04T14:25:10Z</time>
      </trkpt>
      <trkpt lat="43.35332" lon="5.7595">
        <ele>415</ele>
        <time>2019-01-04T14:25:17Z</time>
      </trkpt>
      <trkpt lat="43.35337" lon="5.75949">
        <ele>414</ele>
        <time>2019-01-04T14:25:22Z</time>
      </trkpt>
      <trkpt lat="43.35342" lon="5.75947">
        <ele>415</ele>
        <time>2019-01-04T14:25:27Z</time>
      </trkpt>
      <trkpt lat="43.35347" lon="5.75945">
        <ele>415</ele>
        <time>2019-01-04T14:25:33Z</time>
      </trkpt>
      <trkpt lat="43.35352" lon="5.75943">
        <ele>415</ele>
        <time>2019-01-04T14:25:38Z</time>
      </trkpt>
      <trkpt lat="43.35356" lon="5.75943">
        <ele>415</ele>
        <time>2019-01-04T14:25:45Z</time>
      </trkpt>
      <trkpt lat="43.35361" lon="5.75942">
        <ele>415</ele>
        <time>2019-01-04T14:25:51Z</time>
      </trkpt>
      <trkpt lat="43.35366" lon="5.75939">
        <ele>416</ele>
        <time>2019-01-04T14:25:57Z</time>
      </trkpt>
      <trkpt lat="43.3537" lon="5.75935">
        <ele>416</ele>
        <time>2019-01-04T14:26:02Z</time>
      </trkpt>
      <trkpt lat="43.35374" lon="5.75932">
        <ele>418</ele>
        <time>2019-01-04T14:26:06Z</time>
      </trkpt>
      <trkpt lat="43.35379" lon="5.75929">
        <ele>419</ele>
        <time>2019-01-04T14:26:10Z</time>
      </trkpt>
      <trkpt lat="43.35384" lon="5.75925">
        <ele>420</ele>
        <time>2019-01-04T14:26:14Z</time>
      </trkpt>
      <trkpt lat="43.35389" lon="5.75922">
        <ele>420</ele>
        <time>2019-01-04T14:26:18Z</time>
      </trkpt>
      <trkpt lat="43.35392" lon="5.75917">
        <ele>421</ele>
        <time>2019-01-04T14:26:22Z</time>
      </trkpt>
      <trkpt lat="43.35395" lon="5.75913">
        <ele>421</ele>
        <time>2019-01-04T14:26:26Z</time>
      </trkpt>
      <trkpt lat="43.35398" lon="5.75908">
        <ele>421</ele>
        <time>2019-01-04T14:26:30Z</time>
      </trkpt>
      <trkpt lat="43.35401" lon="5.75903">
        <ele>421</ele>
        <time>2019-01-04T14:26:34Z</time>
      </trkpt>
      <trkpt lat="43.35404" lon="5.75898">
        <ele>421</ele>
        <time>2019-01-04T14:26:38Z</time>
      </trkpt>
      <trkpt lat="43.35408" lon="5.75892">
        <ele>420</ele>
        <time>2019-01-04T14:26:43Z</time>
      </trkpt>
      <trkpt lat="43.35411" lon="5.75888">
        <ele>420</ele>
        <time>2019-01-04T14:26:47Z</time>
      </trkpt>
      <trkpt lat="43.35414" lon="5.75882">
        <ele>420</ele>
        <time>2019-01-04T14:26:51Z</time>
      </trkpt>
      <trkpt lat="43.35417" lon="5.75877">
        <ele>420</ele>
        <time>2019-01-04T14:26:55Z</time>
      </trkpt>
      <trkpt lat="43.3542" lon="5.75872">
        <ele>420</ele>
        <time>2019-01-04T14:26:59Z</time>
      </trkpt>
      <trkpt lat="43.35423" lon="5.75868">
        <ele>420</ele>
        <time>2019-01-04T14:27:03Z</time>
      </trkpt>
      <trkpt lat="43.35426" lon="5.75861">
        <ele>420</ele>
        <time>2019-01-04T14:27:08Z</time>
      </trkpt>
      <trkpt lat="43.3543" lon="5.75856">
        <ele>419</ele>
        <time>2019-01-04T14:27:12Z</time>
      </trkpt>
      <trkpt lat="43.35434" lon="5.75852">
        <ele>419</ele>
        <time>2019-01-04T14:27:17Z</time>
      </trkpt>
      <trkpt lat="43.35437" lon="5.75846">
        <ele>419</ele>
        <time>2019-01-04T14:27:22Z</time>
      </trkpt>
      <trkpt lat="43.35441" lon="5.75842">
        <ele>419</ele>
        <time>2019-01-04T14:27:26Z</time>
      </trkpt>
      <trkpt lat="43.35445" lon="5.75838">
        <ele>418</ele>
        <time>2019-01-04T14:27:30Z</time>
      </trkpt>
      <trkpt lat="43.35449" lon="5.75834">
        <ele>418</ele>
        <time>2019-01-04T14:27:35Z</time>
      </trkpt>
      <trkpt lat="43.35453" lon="5.75829">
        <ele>418</ele>
        <time>2019-01-04T14:27:41Z</time>
      </trkpt>
      <trkpt lat="43.35457" lon="5.75825">
        <ele>418</ele>
        <time>2019-01-04T14:27:47Z</time>
      </trkpt>
      <trkpt lat="43.3546" lon="5.75821">
        <ele>417</ele>
        <time>2019-01-04T14:27:51Z</time>
      </trkpt>
      <trkpt lat="43.35465" lon="5.75816">
        <ele>418</ele>
        <time>2019-01-04T14:27:55Z</time>
      </trkpt>
      <trkpt lat="43.35469" lon="5.75812">
        <ele>418</ele>
        <time>2019-01-04T14:27:58Z</time>
      </trkpt>
      <trkpt lat="43.35471" lon="5.75806">
        <ele>418</ele>
        <time>2019-01-04T14:28:04Z</time>
      </trkpt>
      <trkpt lat="43.35475" lon="5.75801">
        <ele>418</ele>
        <time>2019-01-04T14:28:08Z</time>
      </trkpt>
      <trkpt lat="43.3548" lon="5.758">
        <ele>419</ele>
        <time>2019-01-04T14:28:12Z</time>
      </trkpt>
      <trkpt lat="43.35485" lon="5.75798">
        <ele>420</ele>
        <time>2019-01-04T14:28:17Z</time>
      </trkpt>
      <trkpt lat="43.35489" lon="5.75794">
        <ele>420</ele>
        <time>2019-01-04T14:28:22Z</time>
      </trkpt>
      <trkpt lat="43.35493" lon="5.75789">
        <ele>421</ele>
        <time>2019-01-04T14:28:27Z</time>
      </trkpt>
      <trkpt lat="43.35498" lon="5.75786">
        <ele>422</ele>
        <time>2019-01-04T14:28:32Z</time>
      </trkpt>
      <trkpt lat="43.35503" lon="5.75784">
        <ele>423</ele>
        <time>2019-01-04T14:28:36Z</time>
      </trkpt>
      <trkpt lat="43.35508" lon="5.75781">
        <ele>423</ele>
        <time>2019-01-04T14:28:40Z</time>
      </trkpt>
      <trkpt lat="43.35512" lon="5.75779">
        <ele>423</ele>
        <time>2019-01-04T14:28:44Z</time>
      </trkpt>
      <trkpt lat="43.35518" lon="5.75776">
        <ele>423</ele>
        <time>2019-01-04T14:28:49Z</time>
      </trkpt>
      <trkpt lat="43.35523" lon="5.75773">
        <ele>423</ele>
        <time>2019-01-04T14:28:53Z</time>
      </trkpt>
      <trkpt lat="43.35528" lon="5.75772">
        <ele>423</ele>
        <time>2019-01-04T14:28:58Z</time>
      </trkpt>
      <trkpt lat="43.35533" lon="5.7577">
        <ele>422</ele>
        <time>2019-01-04T14:29:02Z</time>
      </trkpt>
      <trkpt lat="43.35537" lon="5.75768">
        <ele>421</ele>
        <time>2019-01-04T14:29:06Z</time>
      </trkpt>
      <trkpt lat="43.35542" lon="5.75763">
        <ele>421</ele>
        <time>2019-01-04T14:29:15Z</time>
      </trkpt>
      <trkpt lat="43.35545" lon="5.75759">
        <ele>420</ele>
        <time>2019-01-04T14:29:19Z</time>
      </trkpt>
      <trkpt lat="43.3555" lon="5.75755">
        <ele>420</ele>
        <time>2019-01-04T14:29:23Z</time>
      </trkpt>
      <trkpt lat="43.35554" lon="5.75752">
        <ele>420</ele>
        <time>2019-01-04T14:29:27Z</time>
      </trkpt>
      <trkpt lat="43.35557" lon="5.75747">
        <ele>421</ele>
        <time>2019-01-04T14:29:32Z</time>
      </trkpt>
      <trkpt lat="43.35561" lon="5.75743">
        <ele>421</ele>
        <time>2019-01-04T14:29:37Z</time>
      </trkpt>
      <trkpt lat="43.35566" lon="5.7574">
        <ele>421</ele>
        <time>2019-01-04T14:29:42Z</time>
      </trkpt>
      <trkpt lat="43.35572" lon="5.75738">
        <ele>421</ele>
        <time>2019-01-04T14:29:45Z</time>
      </trkpt>
      <trkpt lat="43.35577" lon="5.75735">
        <ele>421</ele>
        <time>2019-01-04T14:29:48Z</time>
      </trkpt>
      <trkpt lat="43.35581" lon="5.75732">
        <ele>421</ele>
        <time>2019-01-04T14:29:52Z</time>
      </trkpt>
      <trkpt lat="43.35587" lon="5.7573">
        <ele>421</ele>
        <time>2019-01-04T14:29:58Z</time>
      </trkpt>
      <trkpt lat="43.35591" lon="5.75726">
        <ele>421</ele>
        <time>2019-01-04T14:30:02Z</time>
      </trkpt>
      <trkpt lat="43.35596" lon="5.75722">
        <ele>421</ele>
        <time>2019-01-04T14:30:06Z</time>
      </trkpt>
      <trkpt lat="43.35598" lon="5.75716">
        <ele>420</ele>
        <time>2019-01-04T14:30:11Z</time>
      </trkpt>
      <trkpt lat="43.35601" lon="5.7571">
        <ele>419</ele>
        <time>2019-01-04T14:30:16Z</time>
      </trkpt>
      <trkpt lat="43.35605" lon="5.75706">
        <ele>418</ele>
        <time>2019-01-04T14:30:19Z</time>
      </trkpt>
      <trkpt lat="43.35608" lon="5.75702">
        <ele>417</ele>
        <time>2019-01-04T14:30:24Z</time>
      </trkpt>
      <trkpt lat="43.35612" lon="5.75698">
        <ele>416</ele>
        <time>2019-01-04T14:30:27Z</time>
      </trkpt>
      <trkpt lat="43.35616" lon="5.75693">
        <ele>416</ele>
        <time>2019-01-04T14:30:32Z</time>
      </trkpt>
      <trkpt lat="43.3562" lon="5.75689">
        <ele>416</ele>
        <time>2019-01-04T14:30:37Z</time>
      </trkpt>
      <trkpt lat="43.35624" lon="5.75686">
        <ele>416</ele>
        <time>2019-01-04T14:30:44Z</time>
      </trkpt>
      <trkpt lat="43.35628" lon="5.75682">
        <ele>415</ele>
        <time>2019-01-04T14:30:49Z</time>
      </trkpt>
      <trkpt lat="43.35632" lon="5.75678">
        <ele>415</ele>
        <time>2019-01-04T14:30:53Z</time>
      </trkpt>
      <trkpt lat="43.35635" lon="5.75673">
        <ele>415</ele>
        <time>2019-01-04T14:30:57Z</time>
      </trkpt>
      <trkpt lat="43.35638" lon="5.75667">
        <ele>415</ele>
        <time>2019-01-04T14:31:03Z</time>
      </trkpt>
      <trkpt lat="43.35641" lon="5.75662">
        <ele>416</ele>
        <time>2019-01-04T14:31:07Z</time>
      </trkpt>
      <trkpt lat="43.35645" lon="5.75659">
        <ele>416</ele>
        <time>2019-01-04T14:31:10Z</time>
      </trkpt>
      <trkpt lat="43.3565" lon="5.75655">
        <ele>417</ele>
        <time>2019-01-04T14:31:14Z</time>
      </trkpt>
      <trkpt lat="43.35654" lon="5.75654">
        <ele>416</ele>
        <time>2019-01-04T14:31:20Z</time>
      </trkpt>
      <trkpt lat="43.35659" lon="5.75651">
        <ele>416</ele>
        <time>2019-01-04T14:31:25Z</time>
      </trkpt>
      <trkpt lat="43.35664" lon="5.75648">
        <ele>415</ele>
        <time>2019-01-04T14:31:30Z</time>
      </trkpt>
      <trkpt lat="43.35668" lon="5.75644">
        <ele>414</ele>
        <time>2019-01-04T14:31:35Z</time>
      </trkpt>
      <trkpt lat="43.35672" lon="5.75641">
        <ele>413</ele>
        <time>2019-01-04T14:31:39Z</time>
      </trkpt>
      <trkpt lat="43.35677" lon="5.7564">
        <ele>412</ele>
        <time>2019-01-04T14:31:42Z</time>
      </trkpt>
      <trkpt lat="43.35682" lon="5.75641">
        <ele>412</ele>
        <time>2019-01-04T14:31:47Z</time>
      </trkpt>
      <trkpt lat="43.35687" lon="5.75638">
        <ele>412</ele>
        <time>2019-01-04T14:31:51Z</time>
      </trkpt>
      <trkpt lat="43.35691" lon="5.75634">
        <ele>412</ele>
        <time>2019-01-04T14:31:55Z</time>
      </trkpt>
      <trkpt lat="43.35696" lon="5.7563">
        <ele>412</ele>
        <time>2019-01-04T14:32:01Z</time>
      </trkpt>
      <trkpt lat="43.35701" lon="5.75629">
        <ele>413</ele>
        <time>2019-01-04T14:32:05Z</time>
      </trkpt>
      <trkpt lat="43.35706" lon="5.7563">
        <ele>413</ele>
        <time>2019-01-04T14:32:10Z</time>
      </trkpt>
      <trkpt lat="43.35711" lon="5.75627">
        <ele>413</ele>
        <time>2019-01-04T14:32:14Z</time>
      </trkpt>
      <trkpt lat="43.35715" lon="5.75624">
        <ele>414</ele>
        <time>2019-01-04T14:32:18Z</time>
      </trkpt>
      <trkpt lat="43.3572" lon="5.75622">
        <ele>414</ele>
        <time>2019-01-04T14:32:23Z</time>
      </trkpt>
      <trkpt lat="43.35723" lon="5.75618">
        <ele>414</ele>
        <time>2019-01-04T14:32:27Z</time>
      </trkpt>
      <trkpt lat="43.35725" lon="5.75611">
        <ele>413</ele>
        <time>2019-01-04T14:32:32Z</time>
      </trkpt>
      <trkpt lat="43.35729" lon="5.75604">
        <ele>413</ele>
        <time>2019-01-04T14:32:36Z</time>
      </trkpt>
      <trkpt lat="43.3573" lon="5.75598">
        <ele>413</ele>
        <time>2019-01-04T14:32:39Z</time>
      </trkpt>
      <trkpt lat="43.35732" lon="5.75591">
        <ele>412</ele>
        <time>2019-01-04T14:32:44Z</time>
      </trkpt>
      <trkpt lat="43.35734" lon="5.75585">
        <ele>412</ele>
        <time>2019-01-04T14:32:48Z</time>
      </trkpt>
      <trkpt lat="43.35736" lon="5.7558">
        <ele>412</ele>
        <time>2019-01-04T14:32:51Z</time>
      </trkpt>
      <trkpt lat="43.3574" lon="5.75575">
        <ele>412</ele>
        <time>2019-01-04T14:32:55Z</time>
      </trkpt>
      <trkpt lat="43.35745" lon="5.7557">
        <ele>412</ele>
        <time>2019-01-04T14:32:59Z</time>
      </trkpt>
      <trkpt lat="43.35749" lon="5.75566">
        <ele>412</ele>
        <time>2019-01-04T14:33:04Z</time>
      </trkpt>
      <trkpt lat="43.35751" lon="5.7556">
        <ele>412</ele>
        <time>2019-01-04T14:33:07Z</time>
      </trkpt>
      <trkpt lat="43.35753" lon="5.75554">
        <ele>412</ele>
        <time>2019-01-04T14:33:12Z</time>
      </trkpt>
      <trkpt lat="43.35757" lon="5.75551">
        <ele>411</ele>
        <time>2019-01-04T14:33:18Z</time>
      </trkpt>
      <trkpt lat="43.35762" lon="5.75546">
        <ele>411</ele>
        <time>2019-01-04T14:33:24Z</time>
      </trkpt>
      <trkpt lat="43.35764" lon="5.75542">
        <ele>411</ele>
        <time>2019-01-04T14:33:28Z</time>
      </trkpt>
      <trkpt lat="43.35767" lon="5.75535">
        <ele>411</ele>
        <time>2019-01-04T14:33:35Z</time>
      </trkpt>
      <trkpt lat="43.3577" lon="5.7553">
        <ele>411</ele>
        <time>2019-01-04T14:33:40Z</time>
      </trkpt>
      <trkpt lat="43.35771" lon="5.75524">
        <ele>411</ele>
        <time>2019-01-04T14:33:46Z</time>
      </trkpt>
      <trkpt lat="43.35772" lon="5.75517">
        <ele>411</ele>
        <time>2019-01-04T14:33:50Z</time>
      </trkpt>
      <trkpt lat="43.35776" lon="5.75511">
        <ele>411</ele>
        <time>2019-01-04T14:33:58Z</time>
      </trkpt>
      <trkpt lat="43.35779" lon="5.75507">
        <ele>411</ele>
        <time>2019-01-04T14:34:03Z</time>
      </trkpt>
      <trkpt lat="43.35783" lon="5.75504">
        <ele>411</ele>
        <time>2019-01-04T14:34:10Z</time>
      </trkpt>
      <trkpt lat="43.35786" lon="5.75499">
        <ele>411</ele>
        <time>2019-01-04T14:34:17Z</time>
      </trkpt>
      <trkpt lat="43.35788" lon="5.75493">
        <ele>411</ele>
        <time>2019-01-04T14:34:32Z</time>
      </trkpt>
      <trkpt lat="43.35791" lon="5.75487">
        <ele>411</ele>
        <time>2019-01-04T14:34:38Z</time>
      </trkpt>
      <trkpt lat="43.35794" lon="5.75482">
        <ele>411</ele>
        <time>2019-01-04T14:34:43Z</time>
      </trkpt>
      <trkpt lat="43.35797" lon="5.75477">
        <ele>411</ele>
        <time>2019-01-04T14:34:47Z</time>
      </trkpt>
      <trkpt lat="43.35798" lon="5.75471">
        <ele>410</ele>
        <time>2019-01-04T14:34:51Z</time>
      </trkpt>
      <trkpt lat="43.35801" lon="5.75466">
        <ele>410</ele>
        <time>2019-01-04T14:34:55Z</time>
      </trkpt>
      <trkpt lat="43.35804" lon="5.75461">
        <ele>409</ele>
        <time>2019-01-04T14:34:59Z</time>
      </trkpt>
      <trkpt lat="43.35808" lon="5.75455">
        <ele>409</ele>
        <time>2019-01-04T14:35:02Z</time>
      </trkpt>
      <trkpt lat="43.35811" lon="5.75448">
        <ele>408</ele>
        <time>2019-01-04T14:35:07Z</time>
      </trkpt>
      <trkpt lat="43.35813" lon="5.75443">
        <ele>408</ele>
        <time>2019-01-04T14:35:11Z</time>
      </trkpt>
      <trkpt lat="43.35818" lon="5.75439">
        <ele>408</ele>
        <time>2019-01-04T14:35:16Z</time>
      </trkpt>
      <trkpt lat="43.35821" lon="5.75433">
        <ele>408</ele>
        <time>2019-01-04T14:35:21Z</time>
      </trkpt>
      <trkpt lat="43.35823" lon="5.75427">
        <ele>408</ele>
        <time>2019-01-04T14:35:26Z</time>
      </trkpt>
      <trkpt lat="43.35827" lon="5.75422">
        <ele>407</ele>
        <time>2019-01-04T14:35:31Z</time>
      </trkpt>
      <trkpt lat="43.35829" lon="5.75416">
        <ele>407</ele>
        <time>2019-01-04T14:35:36Z</time>
      </trkpt>
      <trkpt lat="43.35833" lon="5.75412">
        <ele>406</ele>
        <time>2019-01-04T14:35:40Z</time>
      </trkpt>
      <trkpt lat="43.35838" lon="5.75409">
        <ele>406</ele>
        <time>2019-01-04T14:35:45Z</time>
      </trkpt>
      <trkpt lat="43.35841" lon="5.75404">
        <ele>405</ele>
        <time>2019-01-04T14:35:50Z</time>
      </trkpt>
      <trkpt lat="43.35844" lon="5.75398">
        <ele>405</ele>
        <time>2019-01-04T14:35:54Z</time>
      </trkpt>
      <trkpt lat="43.35848" lon="5.75394">
        <ele>405</ele>
        <time>2019-01-04T14:35:59Z</time>
      </trkpt>
      <trkpt lat="43.35851" lon="5.75389">
        <ele>406</ele>
        <time>2019-01-04T14:36:04Z</time>
      </trkpt>
      <trkpt lat="43.35856" lon="5.7539">
        <ele>406</ele>
        <time>2019-01-04T14:36:20Z</time>
      </trkpt>
      <trkpt lat="43.35861" lon="5.75387">
        <ele>407</ele>
        <time>2019-01-04T14:36:26Z</time>
      </trkpt>
      <trkpt lat="43.35863" lon="5.75382">
        <ele>407</ele>
        <time>2019-01-04T14:36:34Z</time>
      </trkpt>
      <trkpt lat="43.35865" lon="5.75375">
        <ele>408</ele>
        <time>2019-01-04T14:36:40Z</time>
      </trkpt>
      <trkpt lat="43.35869" lon="5.75371">
        <ele>408</ele>
        <time>2019-01-04T14:36:48Z</time>
      </trkpt>
      <trkpt lat="43.35872" lon="5.75366">
        <ele>408</ele>
        <time>2019-01-04T14:36:52Z</time>
      </trkpt>
      <trkpt lat="43.35876" lon="5.75361">
        <ele>408</ele>
        <time>2019-01-04T14:36:57Z</time>
      </trkpt>
      <trkpt lat="43.3588" lon="5.75357">
        <ele>409</ele>
        <time>2019-01-04T14:37:02Z</time>
      </trkpt>
      <trkpt lat="43.35884" lon="5.75352">
        <ele>409</ele>
        <time>2019-01-04T14:37:07Z</time>
      </trkpt>
      <trkpt lat="43.35886" lon="5.75347">
        <ele>409</ele>
        <time>2019-01-04T14:37:11Z</time>
      </trkpt>
      <trkpt lat="43.35889" lon="5.75341">
        <ele>410</ele>
        <time>2019-01-04T14:37:16Z</time>
      </trkpt>
      <trkpt lat="43.35894" lon="5.7534">
        <ele>410</ele>
        <time>2019-01-04T14:37:20Z</time>
      </trkpt>
      <trkpt lat="43.35899" lon="5.7534">
        <ele>411</ele>
        <time>2019-01-04T14:37:27Z</time>
      </trkpt>
      <trkpt lat="43.35903" lon="5.75343">
        <ele>411</ele>
        <time>2019-01-04T14:37:42Z</time>
      </trkpt>
      <trkpt lat="43.35904" lon="5.75344">
        <ele>411</ele>
        <time>2019-01-04T14:38:08Z</time>
      </trkpt>
      <trkpt lat="43.35906" lon="5.75336">
        <ele>412</ele>
        <time>2019-01-04T14:38:11Z</time>
      </trkpt>
      <trkpt lat="43.3591" lon="5.75342">
        <ele>412</ele>
        <time>2019-01-04T14:38:33Z</time>
      </trkpt>
      <trkpt lat="43.35911" lon="5.75344">
        <ele>411</ele>
        <time>2019-01-04T14:38:53Z</time>
      </trkpt>
      <trkpt lat="43.35913" lon="5.7534">
        <ele>412</ele>
        <time>2019-01-04T14:38:57Z</time>
      </trkpt>
      <trkpt lat="43.35907" lon="5.75343">
        <ele>411</ele>
        <time>2019-01-04T14:38:57Z</time>
      </trkpt>
      <trkpt lat="43.35911" lon="5.75346">
        <ele>409</ele>
        <time>2019-01-04T14:39:00Z</time>
      </trkpt>
      <trkpt lat="43.35916" lon="5.75346">
        <ele>408</ele>
        <time>2019-01-04T14:39:09Z</time>
      </trkpt>
      <trkpt lat="43.3592" lon="5.75345">
        <ele>409</ele>
        <time>2019-01-04T14:39:15Z</time>
      </trkpt>
      <trkpt lat="43.35925" lon="5.75347">
        <ele>407</ele>
        <time>2019-01-04T14:39:36Z</time>
      </trkpt>
      <trkpt lat="43.35931" lon="5.75348">
        <ele>408</ele>
        <time>2019-01-04T14:39:41Z</time>
      </trkpt>
      <trkpt lat="43.35934" lon="5.75343">
        <ele>410</ele>
        <time>2019-01-04T14:39:46Z</time>
      </trkpt>
      <trkpt lat="43.35933" lon="5.75342">
        <ele>410</ele>
        <time>2019-01-04T14:40:08Z</time>
      </trkpt>
      <trkpt lat="43.35929" lon="5.75339">
        <ele>410</ele>
        <time>2019-01-04T14:40:12Z</time>
      </trkpt>
      <trkpt lat="43.35935" lon="5.7535">
        <ele>408</ele>
        <time>2019-01-04T14:40:13Z</time>
      </trkpt>
      <trkpt lat="43.35931" lon="5.75334">
        <ele>407</ele>
        <time>2019-01-04T14:40:14Z</time>
      </trkpt>
      <trkpt lat="43.35935" lon="5.75337">
        <ele>405</ele>
        <time>2019-01-04T14:40:22Z</time>
      </trkpt>
      <trkpt lat="43.35958" lon="5.75461">
        <ele>432.22265625</ele>
      </trkpt>
      <trkpt lat="43.35924" lon="5.75569">
        <ele>439.9453125</ele>
      </trkpt>
      <trkpt lat="43.36024" lon="5.75899">
        <ele>485.8515625</ele>
      </trkpt>
      <trkpt lat="43.36059" lon="5.7601">
        <ele>500.59375</ele>
      </trkpt>
      <trkpt lat="43.36154" lon="5.76037">
        <ele>518.3671875</ele>
      </trkpt>
      <trkpt lat="43.36228" lon="5.76189">
        <ele>522.40625</ele>
      </trkpt>
      <trkpt lat="43.3625" lon="5.76215">
        <ele>520.90625</ele>
      </trkpt>
      <trkpt lat="43.36255" lon="5.76222">
        <ele>517.32421875</ele>
      </trkpt>
      <trkpt lat="43.36268" lon="5.7623">
        <ele>511.87109375</ele>
      </trkpt>
      <trkpt lat="43.36271" lon="5.76243">
        <ele>510.65234375</ele>
      </trkpt>
      <trkpt lat="43.36335" lon="5.76358">
        <ele>503.24609375</ele>
      </trkpt>
      <trkpt lat="43.36362" lon="5.76339">
        <ele>498.77734375</ele>
      </trkpt>
      <trkpt lat="43.36419" lon="5.76302">
        <ele>498.35546875</ele>
      </trkpt>
      <trkpt lat="43.36469" lon="5.76434">
        <ele>501.97265625</ele>
      </trkpt>
      <trkpt lat="43.3647" lon="5.76448">
        <ele>503.1015625</ele>
      </trkpt>
      <trkpt lat="43.36486" lon="5.76461">
        <ele>501.44921875</ele>
      </trkpt>
      <trkpt lat="43.36521" lon="5.7644">
        <ele>492.703125</ele>
      </trkpt>
      <trkpt lat="43.36551" lon="5.76444">
        <ele>487.625</ele>
      </trkpt>
      <trkpt lat="43.36585" lon="5.76494">
        <ele>485.515625</ele>
      </trkpt>
      <trkpt lat="43.36614" lon="5.76571">
        <ele>486.1328125</ele>
      </trkpt>
      <trkpt lat="43.36629" lon="5.76609">
        <ele>486.58203125</ele>
      </trkpt>
      <trkpt lat="43.36742" lon="5.76663">
        <ele>471.89453125</ele>
      </trkpt>
      <trkpt lat="43.36795" lon="5.76718">
        <ele>467.35546875</ele>
      </trkpt>
      <trkpt lat="43.36872" lon="5.76792">
        <ele>455.23046875</ele>
      </trkpt>
      <trkpt lat="43.36918" lon="5.76881">
        <ele>447.9921875</ele>
      </trkpt>
      <trkpt lat="43.3696" lon="5.76981">
        <ele>444.71484375</ele>
      </trkpt>
      <trkpt lat="43.37042" lon="5.77051">
        <ele>434.60546875</ele>
      </trkpt>
      <trkpt lat="43.37085" lon="5.77086">
        <ele>430.32421875</ele>
      </trkpt>
      <trkpt lat="43.37111" lon="5.77109">
        <ele>427.79296875</ele>
      </trkpt>
      <trkpt lat="43.37132" lon="5.77198">
        <ele>422.37890625</ele>
      </trkpt>
      <trkpt lat="43.37136" lon="5.77247">
        <ele>418.8515625</ele>
      </trkpt>
      <trkpt lat="43.37108" lon="5.7745">
        <ele>412.140625</ele>
      </trkpt>
      <trkpt lat="43.37093" lon="5.77593">
        <ele>408.63671875</ele>
      </trkpt>
      <trkpt lat="43.3717" lon="5.77613">
        <ele>405.765625</ele>
      </trkpt>
      <trkpt lat="43.37251" lon="5.77577">
        <ele>405.09765625</ele>
      </trkpt>
      <trkpt lat="43.37257" lon="5.77577">
        <ele>404.97265625</ele>
      </trkpt>
      <trkpt lat="43.37234" lon="5.77715">
        <ele>400.54296875</ele>
      </trkpt>
      <trkpt lat="43.3722" lon="5.77865">
        <ele>396.48828125</ele>
      </trkpt>
      <trkpt lat="43.37001" lon="5.7784">
        <ele>410.9296875</ele>
      </trkpt>
      <trkpt lat="43.36997" lon="5.77939">
        <ele>407.8359375</ele>
      </trkpt>
      <trkpt lat="43.37003" lon="5.78096">
        <ele>403.00390625</ele>
      </trkpt>
      <trkpt lat="43.36974" lon="5.78167">
        <ele>405.28125</ele>
      </trkpt>
      <trkpt lat="43.36812" lon="5.78091">
        <ele>417.66015625</ele>
      </trkpt>
      <trkpt lat="43.36628" lon="5.78057">
        <ele>426.22265625</ele>
      </trkpt>
    </trkseg>
  </trk>
  <trk>
    <name><![CDATA[Tracé actuel: 10 MARS 2019 12:01]]></name>
    <trkseg>
      <trkpt lat="43.43973" lon="5.86036">
        <ele>339.96</ele>
        <time>2019-03-10T11:01:57Z</time>
      </trkpt>
      <trkpt lat="43.43973" lon="5.86036">
        <ele>339.96</ele>
        <time>2019-03-10T11:01:58Z</time>
      </trkpt>
      <trkpt lat="43.43973" lon="5.86036">
        <ele>345.25</ele>
        <time>2019-03-10T11:02:02Z</time>
      </trkpt>
      <trkpt lat="43.43973" lon="5.86036">
        <ele>345.25</ele>
        <time>2019-03-10T11:02:03Z</time>
      </trkpt>
      <trkpt lat="43.4397" lon="5.86034">
        <ele>344.29</ele>
        <time>2019-03-10T11:02:26Z</time>
      </trkpt>
      <trkpt lat="43.43967" lon="5.86033">
        <ele>345.73</ele>
        <time>2019-03-10T11:02:30Z</time>
      </trkpt>
      <trkpt lat="43.43965" lon="5.86021">
        <ele>346.69</ele>
        <time>2019-03-10T11:02:41Z</time>
      </trkpt>
      <trkpt lat="43.43962" lon="5.86024">
        <ele>345.25</ele>
        <time>2019-03-10T11:03:08Z</time>
      </trkpt>
      <trkpt lat="43.43964" lon="5.86025">
        <ele>346.69</ele>
        <time>2019-03-10T11:03:43Z</time>
      </trkpt>
      <trkpt lat="43.43963" lon="5.86024">
        <ele>347.17</ele>
        <time>2019-03-10T11:04:12Z</time>
      </trkpt>
      <trkpt lat="43.43961" lon="5.86021">
        <ele>346.21</ele>
        <time>2019-03-10T11:04:40Z</time>
      </trkpt>
      <trkpt lat="43.43961" lon="5.86021">
        <ele>346.21</ele>
        <time>2019-03-10T11:05:06Z</time>
      </trkpt>
      <trkpt lat="43.43961" lon="5.86021">
        <ele>346.21</ele>
        <time>2019-03-10T11:05:38Z</time>
      </trkpt>
      <trkpt lat="43.43961" lon="5.86022">
        <ele>346.21</ele>
        <time>2019-03-10T11:06:06Z</time>
      </trkpt>
      <trkpt lat="43.4396" lon="5.86022">
        <ele>346.69</ele>
        <time>2019-03-10T11:06:30Z</time>
      </trkpt>
      <trkpt lat="43.43962" lon="5.86024">
        <ele>347.65</ele>
        <time>2019-03-10T11:07:05Z</time>
      </trkpt>
      <trkpt lat="43.43962" lon="5.86024">
        <ele>347.65</ele>
        <time>2019-03-10T11:07:06Z</time>
      </trkpt>
      <trkpt lat="43.43962" lon="5.86026">
        <ele>347.65</ele>
        <time>2019-03-10T11:07:39Z</time>
      </trkpt>
      <trkpt lat="43.43964" lon="5.86022">
        <ele>348.13</ele>
        <time>2019-03-10T11:08:20Z</time>
      </trkpt>
      <trkpt lat="43.43961" lon="5.86022">
        <ele>348.13</ele>
        <time>2019-03-10T11:08:58Z</time>
      </trkpt>
      <trkpt lat="43.4396" lon="5.86022">
        <ele>348.13</ele>
        <time>2019-03-10T11:09:35Z</time>
      </trkpt>
      <trkpt lat="43.4396" lon="5.86021">
        <ele>347.17</ele>
        <time>2019-03-10T11:09:58Z</time>
      </trkpt>
      <trkpt lat="43.43961" lon="5.8602">
        <ele>346.69</ele>
        <time>2019-03-10T11:10:33Z</time>
      </trkpt>
      <trkpt lat="43.43961" lon="5.86019">
        <ele>348.13</ele>
        <time>2019-03-10T11:11:11Z</time>
      </trkpt>
      <trkpt lat="43.43962" lon="5.86017">
        <ele>348.13</ele>
        <time>2019-03-10T11:11:46Z</time>
      </trkpt>
      <trkpt lat="43.4396" lon="5.86018">
        <ele>348.13</ele>
        <time>2019-03-10T11:12:27Z</time>
      </trkpt>
      <trkpt lat="43.43961" lon="5.8602">
        <ele>348.62</ele>
        <time>2019-03-10T11:12:55Z</time>
      </trkpt>
      <trkpt lat="43.43959" lon="5.86019">
        <ele>348.62</ele>
        <time>2019-03-10T11:13:27Z</time>
      </trkpt>
      <trkpt lat="43.43959" lon="5.8602">
        <ele>348.62</ele>
        <time>2019-03-10T11:13:56Z</time>
      </trkpt>
      <trkpt lat="43.43961" lon="5.86017">
        <ele>348.62</ele>
        <time>2019-03-10T11:14:30Z</time>
      </trkpt>
      <trkpt lat="43.4396" lon="5.86017">
        <ele>349.1</ele>
        <time>2019-03-10T11:15:06Z</time>
      </trkpt>
      <trkpt lat="43.4396" lon="5.86018">
        <ele>349.1</ele>
        <time>2019-03-10T11:15:36Z</time>
      </trkpt>
      <trkpt lat="43.4396" lon="5.86018">
        <ele>349.58</ele>
        <time>2019-03-10T11:16:10Z</time>
      </trkpt>
      <trkpt lat="43.43957" lon="5.86015">
        <ele>349.58</ele>
        <time>2019-03-10T11:16:45Z</time>
      </trkpt>
      <trkpt lat="43.43954" lon="5.86016">
        <ele>348.62</ele>
        <time>2019-03-10T11:17:19Z</time>
      </trkpt>
      <trkpt lat="43.43957" lon="5.86016">
        <ele>348.62</ele>
        <time>2019-03-10T11:17:49Z</time>
      </trkpt>
      <trkpt lat="43.4396" lon="5.86016">
        <ele>350.06</ele>
        <time>2019-03-10T11:18:06Z</time>
      </trkpt>
      <trkpt lat="43.43964" lon="5.8602">
        <ele>350.54</ele>
        <time>2019-03-10T11:18:43Z</time>
      </trkpt>
      <trkpt lat="43.43963" lon="5.86021">
        <ele>350.54</ele>
        <time>2019-03-10T11:19:13Z</time>
      </trkpt>
      <trkpt lat="43.43964" lon="5.86023">
        <ele>351.02</ele>
        <time>2019-03-10T11:19:45Z</time>
      </trkpt>
      <trkpt lat="43.43961" lon="5.86021">
        <ele>351.02</ele>
        <time>2019-03-10T11:20:16Z</time>
      </trkpt>
      <trkpt lat="43.43962" lon="5.86022">
        <ele>350.06</ele>
        <time>2019-03-10T11:20:52Z</time>
      </trkpt>
      <trkpt lat="43.43964" lon="5.86024">
        <ele>350.06</ele>
        <time>2019-03-10T11:21:22Z</time>
      </trkpt>
      <trkpt lat="43.43965" lon="5.86025">
        <ele>351.02</ele>
        <time>2019-03-10T11:21:56Z</time>
      </trkpt>
      <trkpt lat="43.43962" lon="5.86025">
        <ele>351.5</ele>
        <time>2019-03-10T11:22:24Z</time>
      </trkpt>
      <trkpt lat="43.43962" lon="5.86024">
        <ele>351.5</ele>
        <time>2019-03-10T11:22:59Z</time>
      </trkpt>
      <trkpt lat="43.43961" lon="5.86023">
        <ele>351.5</ele>
        <time>2019-03-10T11:23:30Z</time>
      </trkpt>
      <trkpt lat="43.4396" lon="5.86024">
        <ele>351.5</ele>
        <time>2019-03-10T11:24:05Z</time>
      </trkpt>
      <trkpt lat="43.43962" lon="5.86025">
        <ele>350.54</ele>
        <time>2019-03-10T11:24:34Z</time>
      </trkpt>
      <trkpt lat="43.4396" lon="5.86025">
        <ele>350.54</ele>
        <time>2019-03-10T11:25:06Z</time>
      </trkpt>
      <trkpt lat="43.43961" lon="5.86025">
        <ele>350.54</ele>
        <time>2019-03-10T11:25:41Z</time>
      </trkpt>
      <trkpt lat="43.43961" lon="5.86025">
        <ele>351.5</ele>
        <time>2019-03-10T11:25:47Z</time>
      </trkpt>
      <trkpt lat="43.43961" lon="5.86023">
        <ele>350.54</ele>
        <time>2019-03-10T11:26:19Z</time>
      </trkpt>
      <trkpt lat="43.43961" lon="5.8602">
        <ele>350.54</ele>
        <time>2019-03-10T11:26:57Z</time>
      </trkpt>
      <trkpt lat="43.43959" lon="5.86019">
        <ele>351.5</ele>
        <time>2019-03-10T11:27:31Z</time>
      </trkpt>
      <trkpt lat="43.43959" lon="5.8602">
        <ele>351.5</ele>
        <time>2019-03-10T11:28:02Z</time>
      </trkpt>
      <trkpt lat="43.43961" lon="5.86019">
        <ele>350.54</ele>
        <time>2019-03-10T11:28:35Z</time>
      </trkpt>
      <trkpt lat="43.43961" lon="5.8602">
        <ele>351.5</ele>
        <time>2019-03-10T11:28:41Z</time>
      </trkpt>
      <trkpt lat="43.43963" lon="5.86023">
        <ele>352.46</ele>
        <time>2019-03-10T11:29:14Z</time>
      </trkpt>
      <trkpt lat="43.43962" lon="5.86022">
        <ele>351.5</ele>
        <time>2019-03-10T11:29:43Z</time>
      </trkpt>
      <trkpt lat="43.43962" lon="5.86023">
        <ele>351.5</ele>
        <time>2019-03-10T11:30:13Z</time>
      </trkpt>
      <trkpt lat="43.43963" lon="5.86022">
        <ele>351.5</ele>
        <time>2019-03-10T11:30:49Z</time>
      </trkpt>
      <trkpt lat="43.43963" lon="5.86024">
        <ele>351.02</ele>
        <time>2019-03-10T11:31:27Z</time>
      </trkpt>
      <trkpt lat="43.43963" lon="5.86024">
        <ele>351.98</ele>
        <time>2019-03-10T11:31:54Z</time>
      </trkpt>
      <trkpt lat="43.43964" lon="5.86024">
        <ele>351.98</ele>
        <time>2019-03-10T11:32:20Z</time>
      </trkpt>
      <trkpt lat="43.43963" lon="5.86024">
        <ele>351.98</ele>
        <time>2019-03-10T11:32:51Z</time>
      </trkpt>
      <trkpt lat="43.43962" lon="5.86025">
        <ele>351.98</ele>
        <time>2019-03-10T11:33:22Z</time>
      </trkpt>
      <trkpt lat="43.43962" lon="5.86025">
        <ele>351.98</ele>
        <time>2019-03-10T11:33:53Z</time>
      </trkpt>
      <trkpt lat="43.43962" lon="5.86024">
        <ele>352.46</ele>
        <time>2019-03-10T11:34:23Z</time>
      </trkpt>
      <trkpt lat="43.43964" lon="5.86024">
        <ele>352.46</ele>
        <time>2019-03-10T11:34:51Z</time>
      </trkpt>
      <trkpt lat="43.43962" lon="5.86023">
        <ele>350.54</ele>
        <time>2019-03-10T11:35:16Z</time>
      </trkpt>
      <trkpt lat="43.43961" lon="5.86022">
        <ele>352.46</ele>
        <time>2019-03-10T11:35:43Z</time>
      </trkpt>
      <trkpt lat="43.43961" lon="5.86021">
        <ele>352.46</ele>
        <time>2019-03-10T11:36:01Z</time>
      </trkpt>
      <trkpt lat="43.43961" lon="5.86021">
        <ele>352.94</ele>
        <time>2019-03-10T11:36:09Z</time>
      </trkpt>
      <trkpt lat="43.43961" lon="5.86021">
        <ele>351.5</ele>
        <time>2019-03-10T11:36:17Z</time>
      </trkpt>
      <trkpt lat="43.43961" lon="5.86021">
        <ele>351.5</ele>
        <time>2019-03-10T11:36:24Z</time>
      </trkpt>
      <trkpt lat="43.43961" lon="5.86021">
        <ele>351.98</ele>
        <time>2019-03-10T11:36:45Z</time>
      </trkpt>
      <trkpt lat="43.43961" lon="5.86021">
        <ele>351.5</ele>
        <time>2019-03-10T11:37:11Z</time>
      </trkpt>
      <trkpt lat="43.4396" lon="5.86021">
        <ele>352.46</ele>
        <time>2019-03-10T11:37:40Z</time>
      </trkpt>
      <trkpt lat="43.4396" lon="5.86021">
        <ele>351.5</ele>
        <time>2019-03-10T11:37:53Z</time>
      </trkpt>
      <trkpt lat="43.4396" lon="5.86021">
        <ele>352.46</ele>
        <time>2019-03-10T11:38:16Z</time>
      </trkpt>
      <trkpt lat="43.4396" lon="5.8602">
        <ele>351.5</ele>
        <time>2019-03-10T11:38:47Z</time>
      </trkpt>
      <trkpt lat="43.4396" lon="5.86021">
        <ele>352.46</ele>
        <time>2019-03-10T11:39:11Z</time>
      </trkpt>
      <trkpt lat="43.43962" lon="5.86022">
        <ele>352.46</ele>
        <time>2019-03-10T11:39:42Z</time>
      </trkpt>
      <trkpt lat="43.43961" lon="5.86021">
        <ele>352.46</ele>
        <time>2019-03-10T11:40:11Z</time>
      </trkpt>
      <trkpt lat="43.43961" lon="5.86021">
        <ele>351.5</ele>
        <time>2019-03-10T11:40:17Z</time>
      </trkpt>
      <trkpt lat="43.4396" lon="5.8602">
        <ele>351.5</ele>
        <time>2019-03-10T11:40:45Z</time>
      </trkpt>
      <trkpt lat="43.43959" lon="5.8602">
        <ele>351.02</ele>
        <time>2019-03-10T11:41:07Z</time>
      </trkpt>
      <trkpt lat="43.43958" lon="5.86019">
        <ele>351.02</ele>
        <time>2019-03-10T11:41:37Z</time>
      </trkpt>
      <trkpt lat="43.43958" lon="5.86019">
        <ele>351.02</ele>
        <time>2019-03-10T11:41:57Z</time>
      </trkpt>
      <trkpt lat="43.43959" lon="5.86019">
        <ele>351.02</ele>
        <time>2019-03-10T11:42:21Z</time>
      </trkpt>
      <trkpt lat="43.43959" lon="5.86019">
        <ele>352.94</ele>
        <time>2019-03-10T11:42:26Z</time>
      </trkpt>
      <trkpt lat="43.43959" lon="5.86019">
        <ele>351.02</ele>
        <time>2019-03-10T11:42:33Z</time>
      </trkpt>
      <trkpt lat="43.43959" lon="5.8602">
        <ele>350.54</ele>
        <time>2019-03-10T11:43:03Z</time>
      </trkpt>
      <trkpt lat="43.43961" lon="5.86022">
        <ele>350.54</ele>
        <time>2019-03-10T11:43:33Z</time>
      </trkpt>
      <trkpt lat="43.43961" lon="5.86022">
        <ele>350.54</ele>
        <time>2019-03-10T11:43:56Z</time>
      </trkpt>
      <trkpt lat="43.43961" lon="5.86023">
        <ele>350.54</ele>
        <time>2019-03-10T11:44:23Z</time>
      </trkpt>
      <trkpt lat="43.4396" lon="5.86023">
        <ele>351.98</ele>
        <time>2019-03-10T11:44:47Z</time>
      </trkpt>
      <trkpt lat="43.43961" lon="5.86022">
        <ele>351.98</ele>
        <time>2019-03-10T11:45:19Z</time>
      </trkpt>
      <trkpt lat="43.43961" lon="5.86024">
        <ele>351.98</ele>
        <time>2019-03-10T11:45:48Z</time>
      </trkpt>
      <trkpt lat="43.43961" lon="5.86024">
        <ele>352.46</ele>
        <time>2019-03-10T11:46:13Z</time>
      </trkpt>
      <trkpt lat="43.43961" lon="5.86025">
        <ele>351.5</ele>
        <time>2019-03-10T11:46:41Z</time>
      </trkpt>
      <trkpt lat="43.43959" lon="5.86025">
        <ele>351.5</ele>
        <time>2019-03-10T11:47:07Z</time>
      </trkpt>
      <trkpt lat="43.4396" lon="5.86025">
        <ele>351.5</ele>
        <time>2019-03-10T11:47:30Z</time>
      </trkpt>
      <trkpt lat="43.43962" lon="5.86024">
        <ele>351.5</ele>
        <time>2019-03-10T11:47:57Z</time>
      </trkpt>
      <trkpt lat="43.43962" lon="5.86024">
        <ele>351.98</ele>
        <time>2019-03-10T11:48:23Z</time>
      </trkpt>
      <trkpt lat="43.43961" lon="5.86024">
        <ele>351.98</ele>
        <time>2019-03-10T11:48:45Z</time>
      </trkpt>
      <trkpt lat="43.43961" lon="5.86024">
        <ele>352.94</ele>
        <time>2019-03-10T11:49:11Z</time>
      </trkpt>
      <trkpt lat="43.43963" lon="5.86026">
        <ele>352.94</ele>
        <time>2019-03-10T11:49:43Z</time>
      </trkpt>
      <trkpt lat="43.43962" lon="5.86026">
        <ele>353.9</ele>
        <time>2019-03-10T11:50:09Z</time>
      </trkpt>
      <trkpt lat="43.43961" lon="5.86026">
        <ele>351.98</ele>
        <time>2019-03-10T11:50:21Z</time>
      </trkpt>
      <trkpt lat="43.43961" lon="5.86026">
        <ele>353.42</ele>
        <time>2019-03-10T11:50:52Z</time>
      </trkpt>
      <trkpt lat="43.4396" lon="5.86024">
        <ele>353.42</ele>
        <time>2019-03-10T11:51:18Z</time>
      </trkpt>
      <trkpt lat="43.43959" lon="5.86024">
        <ele>354.38</ele>
        <time>2019-03-10T11:51:51Z</time>
      </trkpt>
      <trkpt lat="43.43959" lon="5.86025">
        <ele>353.9</ele>
        <time>2019-03-10T11:52:24Z</time>
      </trkpt>
      <trkpt lat="43.4396" lon="5.86024">
        <ele>352.94</ele>
        <time>2019-03-10T11:52:53Z</time>
      </trkpt>
      <trkpt lat="43.43958" lon="5.86023">
        <ele>352.94</ele>
        <time>2019-03-10T11:53:30Z</time>
      </trkpt>
      <trkpt lat="43.43959" lon="5.86022">
        <ele>353.9</ele>
        <time>2019-03-10T11:53:51Z</time>
      </trkpt>
      <trkpt lat="43.43959" lon="5.86023">
        <ele>353.9</ele>
        <time>2019-03-10T11:54:25Z</time>
      </trkpt>
      <trkpt lat="43.43958" lon="5.86022">
        <ele>353.9</ele>
        <time>2019-03-10T11:54:59Z</time>
      </trkpt>
      <trkpt lat="43.43959" lon="5.86022">
        <ele>353.9</ele>
        <time>2019-03-10T11:55:34Z</time>
      </trkpt>
      <trkpt lat="43.4396" lon="5.86022">
        <ele>353.9</ele>
        <time>2019-03-10T11:56:08Z</time>
      </trkpt>
      <trkpt lat="43.43961" lon="5.86021">
        <ele>353.9</ele>
        <time>2019-03-10T11:56:41Z</time>
      </trkpt>
      <trkpt lat="43.43963" lon="5.8602">
        <ele>353.9</ele>
        <time>2019-03-10T11:57:08Z</time>
      </trkpt>
      <trkpt lat="43.43964" lon="5.86021">
        <ele>353.9</ele>
        <time>2019-03-10T11:57:43Z</time>
      </trkpt>
      <trkpt lat="43.43965" lon="5.86023">
        <ele>353.9</ele>
        <time>2019-03-10T11:58:17Z</time>
      </trkpt>
      <trkpt lat="43.43965" lon="5.86022">
        <ele>353.9</ele>
        <time>2019-03-10T11:58:58Z</time>
      </trkpt>
      <trkpt lat="43.43963" lon="5.86024">
        <ele>353.9</ele>
        <time>2019-03-10T11:59:37Z</time>
      </trkpt>
      <trkpt lat="43.43962" lon="5.86021">
        <ele>353.9</ele>
        <time>2019-03-10T12:00:19Z</time>
      </trkpt>
      <trkpt lat="43.43962" lon="5.86022">
        <ele>354.86</ele>
        <time>2019-03-10T12:00:53Z</time>
      </trkpt>
      <trkpt lat="43.43961" lon="5.86022">
        <ele>353.42</ele>
        <time>2019-03-10T12:01:07Z</time>
      </trkpt>
      <trkpt lat="43.43963" lon="5.86022">
        <ele>354.38</ele>
        <time>2019-03-10T12:01:44Z</time>
      </trkpt>
      <trkpt lat="43.43964" lon="5.86023">
        <ele>353.42</ele>
        <time>2019-03-10T12:01:48Z</time>
      </trkpt>
      <trkpt lat="43.43963" lon="5.86022">
        <ele>354.38</ele>
        <time>2019-03-10T12:02:26Z</time>
      </trkpt>
      <trkpt lat="43.43963" lon="5.86022">
        <ele>354.38</ele>
        <time>2019-03-10T12:03:00Z</time>
      </trkpt>
      <trkpt lat="43.43962" lon="5.86021">
        <ele>354.38</ele>
        <time>2019-03-10T12:03:33Z</time>
      </trkpt>
      <trkpt lat="43.43962" lon="5.86021">
        <ele>354.38</ele>
        <time>2019-03-10T12:04:11Z</time>
      </trkpt>
      <trkpt lat="43.43963" lon="5.8602">
        <ele>354.38</ele>
        <time>2019-03-10T12:04:48Z</time>
      </trkpt>
      <trkpt lat="43.43965" lon="5.86019">
        <ele>354.38</ele>
        <time>2019-03-10T12:05:29Z</time>
      </trkpt>
      <trkpt lat="43.43965" lon="5.86021">
        <ele>354.38</ele>
        <time>2019-03-10T12:05:58Z</time>
      </trkpt>
      <trkpt lat="43.43966" lon="5.86019">
        <ele>354.86</ele>
        <time>2019-03-10T12:06:30Z</time>
      </trkpt>
      <trkpt lat="43.43966" lon="5.86019">
        <ele>353.9</ele>
        <time>2019-03-10T12:06:37Z</time>
      </trkpt>
      <trkpt lat="43.43965" lon="5.8602">
        <ele>354.86</ele>
        <time>2019-03-10T12:07:14Z</time>
      </trkpt>
      <trkpt lat="43.43965" lon="5.8602">
        <ele>355.83</ele>
        <time>2019-03-10T12:07:23Z</time>
      </trkpt>
      <trkpt lat="43.43964" lon="5.86021">
        <ele>355.83</ele>
        <time>2019-03-10T12:07:44Z</time>
      </trkpt>
      <trkpt lat="43.43964" lon="5.86021">
        <ele>355.83</ele>
        <time>2019-03-10T12:08:22Z</time>
      </trkpt>
      <trkpt lat="43.43964" lon="5.86021">
        <ele>354.38</ele>
        <time>2019-03-10T12:08:25Z</time>
      </trkpt>
      <trkpt lat="43.43963" lon="5.8602">
        <ele>354.38</ele>
        <time>2019-03-10T12:09:03Z</time>
      </trkpt>
      <trkpt lat="43.43964" lon="5.86019">
        <ele>354.38</ele>
        <time>2019-03-10T12:09:18Z</time>
      </trkpt>
      <trkpt lat="43.43964" lon="5.86021">
        <ele>353.9</ele>
        <time>2019-03-10T12:09:53Z</time>
      </trkpt>
      <trkpt lat="43.43965" lon="5.86022">
        <ele>353.9</ele>
        <time>2019-03-10T12:10:25Z</time>
      </trkpt>
      <trkpt lat="43.43963" lon="5.86022">
        <ele>355.34</ele>
        <time>2019-03-10T12:11:01Z</time>
      </trkpt>
      <trkpt lat="43.43959" lon="5.86024">
        <ele>353.42</ele>
        <time>2019-03-10T12:11:39Z</time>
      </trkpt>
      <trkpt lat="43.4396" lon="5.86025">
        <ele>353.42</ele>
        <time>2019-03-10T12:12:12Z</time>
      </trkpt>
      <trkpt lat="43.43959" lon="5.86025">
        <ele>354.86</ele>
        <time>2019-03-10T12:12:42Z</time>
      </trkpt>
      <trkpt lat="43.43959" lon="5.86025">
        <ele>354.38</ele>
        <time>2019-03-10T12:12:43Z</time>
      </trkpt>
      <trkpt lat="43.43961" lon="5.86024">
        <ele>354.38</ele>
        <time>2019-03-10T12:13:16Z</time>
      </trkpt>
      <trkpt lat="43.43961" lon="5.86024">
        <ele>354.38</ele>
        <time>2019-03-10T12:13:53Z</time>
      </trkpt>
      <trkpt lat="43.43961" lon="5.86025">
        <ele>354.38</ele>
        <time>2019-03-10T12:14:27Z</time>
      </trkpt>
      <trkpt lat="43.43961" lon="5.86024">
        <ele>354.86</ele>
        <time>2019-03-10T12:14:57Z</time>
      </trkpt>
      <trkpt lat="43.43961" lon="5.86022">
        <ele>354.86</ele>
        <time>2019-03-10T12:15:22Z</time>
      </trkpt>
      <trkpt lat="43.43962" lon="5.86023">
        <ele>353.42</ele>
        <time>2019-03-10T12:15:47Z</time>
      </trkpt>
      <trkpt lat="43.43962" lon="5.86023">
        <ele>353.42</ele>
        <time>2019-03-10T12:16:20Z</time>
      </trkpt>
      <trkpt lat="43.43962" lon="5.86023">
        <ele>353.42</ele>
        <time>2019-03-10T12:16:47Z</time>
      </trkpt>
      <trkpt lat="43.43961" lon="5.86023">
        <ele>353.42</ele>
        <time>2019-03-10T12:17:15Z</time>
      </trkpt>
      <trkpt lat="43.43961" lon="5.86024">
        <ele>354.38</ele>
        <time>2019-03-10T12:17:29Z</time>
      </trkpt>
      <trkpt lat="43.43961" lon="5.86024">
        <ele>354.38</ele>
        <time>2019-03-10T12:18:02Z</time>
      </trkpt>
      <trkpt lat="43.43962" lon="5.86024">
        <ele>354.38</ele>
        <time>2019-03-10T12:18:03Z</time>
      </trkpt>
      <trkpt lat="43.43961" lon="5.86024">
        <ele>354.86</ele>
        <time>2019-03-10T12:18:40Z</time>
      </trkpt>
      <trkpt lat="43.43961" lon="5.86024">
        <ele>353.42</ele>
        <time>2019-03-10T12:18:42Z</time>
      </trkpt>
      <trkpt lat="43.4396" lon="5.86022">
        <ele>352.46</ele>
        <time>2019-03-10T12:19:13Z</time>
      </trkpt>
      <trkpt lat="43.43961" lon="5.86023">
        <ele>352.46</ele>
        <time>2019-03-10T12:19:42Z</time>
      </trkpt>
      <trkpt lat="43.4396" lon="5.86024">
        <ele>353.42</ele>
        <time>2019-03-10T12:20:15Z</time>
      </trkpt>
      <trkpt lat="43.4396" lon="5.86024">
        <ele>353.9</ele>
        <time>2019-03-10T12:20:46Z</time>
      </trkpt>
      <trkpt lat="43.4396" lon="5.86024">
        <ele>353.9</ele>
        <time>2019-03-10T12:21:18Z</time>
      </trkpt>
      <trkpt lat="43.43959" lon="5.86024">
        <ele>352.94</ele>
        <time>2019-03-10T12:21:35Z</time>
      </trkpt>
      <trkpt lat="43.43958" lon="5.86026">
        <ele>352.46</ele>
        <time>2019-03-10T12:22:06Z</time>
      </trkpt>
      <trkpt lat="43.43959" lon="5.86026">
        <ele>352.46</ele>
        <time>2019-03-10T12:22:35Z</time>
      </trkpt>
      <trkpt lat="43.43961" lon="5.86024">
        <ele>352.94</ele>
        <time>2019-03-10T12:23:16Z</time>
      </trkpt>
      <trkpt lat="43.43962" lon="5.86024">
        <ele>353.42</ele>
        <time>2019-03-10T12:23:36Z</time>
      </trkpt>
      <trkpt lat="43.43963" lon="5.86024">
        <ele>353.9</ele>
        <time>2019-03-10T12:23:58Z</time>
      </trkpt>
      <trkpt lat="43.43963" lon="5.86024">
        <ele>353.9</ele>
        <time>2019-03-10T12:24:40Z</time>
      </trkpt>
      <trkpt lat="43.43963" lon="5.86024">
        <ele>353.9</ele>
        <time>2019-03-10T12:25:16Z</time>
      </trkpt>
      <trkpt lat="43.43963" lon="5.86024">
        <ele>354.38</ele>
        <time>2019-03-10T12:25:46Z</time>
      </trkpt>
      <trkpt lat="43.43964" lon="5.86023">
        <ele>353.42</ele>
        <time>2019-03-10T12:26:21Z</time>
      </trkpt>
      <trkpt lat="43.43964" lon="5.86022">
        <ele>354.38</ele>
        <time>2019-03-10T12:26:32Z</time>
      </trkpt>
      <trkpt lat="43.43963" lon="5.86023">
        <ele>353.42</ele>
        <time>2019-03-10T12:27:04Z</time>
      </trkpt>
      <trkpt lat="43.43962" lon="5.86022">
        <ele>352.94</ele>
        <time>2019-03-10T12:27:43Z</time>
      </trkpt>
      <trkpt lat="43.43963" lon="5.86023">
        <ele>352.94</ele>
        <time>2019-03-10T12:28:17Z</time>
      </trkpt>
      <trkpt lat="43.43963" lon="5.86022">
        <ele>354.38</ele>
        <time>2019-03-10T12:28:47Z</time>
      </trkpt>
      <trkpt lat="43.43964" lon="5.86022">
        <ele>354.38</ele>
        <time>2019-03-10T12:29:31Z</time>
      </trkpt>
      <trkpt lat="43.43963" lon="5.86023">
        <ele>354.38</ele>
        <time>2019-03-10T12:30:10Z</time>
      </trkpt>
      <trkpt lat="43.43963" lon="5.86023">
        <ele>353.42</ele>
        <time>2019-03-10T12:30:25Z</time>
      </trkpt>
      <trkpt lat="43.43963" lon="5.86023">
        <ele>354.86</ele>
        <time>2019-03-10T12:30:31Z</time>
      </trkpt>
      <trkpt lat="43.43963" lon="5.86022">
        <ele>355.34</ele>
        <time>2019-03-10T12:31:04Z</time>
      </trkpt>
      <trkpt lat="43.43963" lon="5.86023">
        <ele>354.38</ele>
        <time>2019-03-10T12:31:31Z</time>
      </trkpt>
      <trkpt lat="43.43962" lon="5.86024">
        <ele>353.9</ele>
        <time>2019-03-10T12:32:09Z</time>
      </trkpt>
      <trkpt lat="43.43961" lon="5.86024">
        <ele>353.9</ele>
        <time>2019-03-10T12:32:43Z</time>
      </trkpt>
      <trkpt lat="43.43961" lon="5.86025">
        <ele>353.42</ele>
        <time>2019-03-10T12:33:10Z</time>
      </trkpt>
      <trkpt lat="43.43961" lon="5.86024">
        <ele>354.38</ele>
        <time>2019-03-10T12:33:36Z</time>
      </trkpt>
      <trkpt lat="43.4396" lon="5.86024">
        <ele>354.38</ele>
        <time>2019-03-10T12:34:11Z</time>
      </trkpt>
      <trkpt lat="43.43959" lon="5.86023">
        <ele>354.86</ele>
        <time>2019-03-10T12:34:49Z</time>
      </trkpt>
      <trkpt lat="43.4396" lon="5.86024">
        <ele>353.42</ele>
        <time>2019-03-10T12:35:15Z</time>
      </trkpt>
      <trkpt lat="43.43959" lon="5.86025">
        <ele>353.42</ele>
        <time>2019-03-10T12:35:51Z</time>
      </trkpt>
      <trkpt lat="43.4396" lon="5.86026">
        <ele>354.38</ele>
        <time>2019-03-10T12:36:28Z</time>
      </trkpt>
      <trkpt lat="43.43961" lon="5.86026">
        <ele>354.38</ele>
        <time>2019-03-10T12:36:57Z</time>
      </trkpt>
      <trkpt lat="43.43959" lon="5.86026">
        <ele>354.38</ele>
        <time>2019-03-10T12:37:34Z</time>
      </trkpt>
      <trkpt lat="43.43963" lon="5.86025">
        <ele>354.86</ele>
        <time>2019-03-10T12:38:05Z</time>
      </trkpt>
      <trkpt lat="43.43962" lon="5.86021">
        <ele>355.34</ele>
        <time>2019-03-10T12:38:41Z</time>
      </trkpt>
      <trkpt lat="43.43962" lon="5.8602">
        <ele>353.9</ele>
        <time>2019-03-10T12:38:54Z</time>
      </trkpt>
      <trkpt lat="43.43961" lon="5.86021">
        <ele>354.38</ele>
        <time>2019-03-10T12:39:05Z</time>
      </trkpt>
      <trkpt lat="43.43961" lon="5.86018">
        <ele>354.86</ele>
        <time>2019-03-10T12:39:41Z</time>
      </trkpt>
      <trkpt lat="43.4396" lon="5.86016">
        <ele>355.34</ele>
        <time>2019-03-10T12:40:19Z</time>
      </trkpt>
      <trkpt lat="43.4396" lon="5.86015">
        <ele>354.38</ele>
        <time>2019-03-10T12:40:42Z</time>
      </trkpt>
      <trkpt lat="43.43961" lon="5.86015">
        <ele>353.9</ele>
        <time>2019-03-10T12:41:17Z</time>
      </trkpt>
      <trkpt lat="43.43959" lon="5.86015">
        <ele>355.34</ele>
        <time>2019-03-10T12:41:54Z</time>
      </trkpt>
      <trkpt lat="43.43958" lon="5.86014">
        <ele>355.83</ele>
        <time>2019-03-10T12:42:21Z</time>
      </trkpt>
      <trkpt lat="43.43958" lon="5.86013">
        <ele>354.86</ele>
        <time>2019-03-10T12:42:42Z</time>
      </trkpt>
      <trkpt lat="43.43959" lon="5.8601">
        <ele>354.86</ele>
        <time>2019-03-10T12:43:17Z</time>
      </trkpt>
      <trkpt lat="43.43959" lon="5.86016">
        <ele>354.38</ele>
        <time>2019-03-10T12:43:51Z</time>
      </trkpt>
      <trkpt lat="43.4396" lon="5.86017">
        <ele>355.83</ele>
        <time>2019-03-10T12:44:30Z</time>
      </trkpt>
      <trkpt lat="43.43962" lon="5.8602">
        <ele>355.83</ele>
        <time>2019-03-10T12:45:04Z</time>
      </trkpt>
      <trkpt lat="43.4396" lon="5.8602">
        <ele>355.83</ele>
        <time>2019-03-10T12:45:37Z</time>
      </trkpt>
      <trkpt lat="43.4396" lon="5.86023">
        <ele>355.83</ele>
        <time>2019-03-10T12:46:04Z</time>
      </trkpt>
      <trkpt lat="43.4396" lon="5.86023">
        <ele>355.83</ele>
        <time>2019-03-10T12:46:32Z</time>
      </trkpt>
      <trkpt lat="43.43962" lon="5.86024">
        <ele>355.83</ele>
        <time>2019-03-10T12:47:06Z</time>
      </trkpt>
      <trkpt lat="43.43962" lon="5.86023">
        <ele>356.31</ele>
        <time>2019-03-10T12:47:42Z</time>
      </trkpt>
      <trkpt lat="43.43962" lon="5.86023">
        <ele>356.31</ele>
        <time>2019-03-10T12:48:15Z</time>
      </trkpt>
      <trkpt lat="43.43961" lon="5.86022">
        <ele>356.31</ele>
        <time>2019-03-10T12:48:50Z</time>
      </trkpt>
      <trkpt lat="43.43961" lon="5.86023">
        <ele>356.31</ele>
        <time>2019-03-10T12:49:23Z</time>
      </trkpt>
      <trkpt lat="43.43961" lon="5.86025">
        <ele>354.86</ele>
        <time>2019-03-10T12:49:57Z</time>
      </trkpt>
      <trkpt lat="43.4396" lon="5.86026">
        <ele>355.83</ele>
        <time>2019-03-10T12:50:26Z</time>
      </trkpt>
      <trkpt lat="43.43961" lon="5.86027">
        <ele>355.83</ele>
        <time>2019-03-10T12:50:59Z</time>
      </trkpt>
      <trkpt lat="43.43961" lon="5.86025">
        <ele>356.31</ele>
        <time>2019-03-10T12:51:31Z</time>
      </trkpt>
      <trkpt lat="43.4396" lon="5.86025">
        <ele>356.79</ele>
        <time>2019-03-10T12:51:58Z</time>
      </trkpt>
      <trkpt lat="43.43961" lon="5.86025">
        <ele>356.31</ele>
        <time>2019-03-10T12:52:28Z</time>
      </trkpt>
      <trkpt lat="43.4396" lon="5.86024">
        <ele>355.34</ele>
        <time>2019-03-10T12:53:02Z</time>
      </trkpt>
      <trkpt lat="43.43961" lon="5.86024">
        <ele>355.34</ele>
        <time>2019-03-10T12:53:37Z</time>
      </trkpt>
      <trkpt lat="43.43963" lon="5.86021">
        <ele>356.31</ele>
        <time>2019-03-10T12:54:07Z</time>
      </trkpt>
      <trkpt lat="43.4396" lon="5.86022">
        <ele>356.31</ele>
        <time>2019-03-10T12:54:34Z</time>
      </trkpt>
      <trkpt lat="43.43959" lon="5.86023">
        <ele>355.83</ele>
        <time>2019-03-10T12:55:04Z</time>
      </trkpt>
      <trkpt lat="43.43959" lon="5.86022">
        <ele>355.83</ele>
        <time>2019-03-10T12:55:38Z</time>
      </trkpt>
      <trkpt lat="43.43958" lon="5.86023">
        <ele>355.83</ele>
        <time>2019-03-10T12:56:08Z</time>
      </trkpt>
      <trkpt lat="43.43959" lon="5.86023">
        <ele>356.31</ele>
        <time>2019-03-10T12:56:44Z</time>
      </trkpt>
      <trkpt lat="43.43958" lon="5.86022">
        <ele>356.31</ele>
        <time>2019-03-10T12:57:06Z</time>
      </trkpt>
      <trkpt lat="43.43959" lon="5.86022">
        <ele>356.31</ele>
        <time>2019-03-10T12:57:36Z</time>
      </trkpt>
      <trkpt lat="43.43958" lon="5.86024">
        <ele>356.79</ele>
        <time>2019-03-10T12:57:58Z</time>
      </trkpt>
      <trkpt lat="43.4396" lon="5.86022">
        <ele>357.75</ele>
        <time>2019-03-10T12:58:28Z</time>
      </trkpt>
      <trkpt lat="43.43959" lon="5.86023">
        <ele>356.31</ele>
        <time>2019-03-10T12:59:01Z</time>
      </trkpt>
      <trkpt lat="43.43958" lon="5.86021">
        <ele>355.34</ele>
        <time>2019-03-10T12:59:34Z</time>
      </trkpt>
      <trkpt lat="43.43957" lon="5.86022">
        <ele>354.38</ele>
        <time>2019-03-10T13:00:02Z</time>
      </trkpt>
      <trkpt lat="43.43956" lon="5.86023">
        <ele>354.38</ele>
        <time>2019-03-10T13:00:31Z</time>
      </trkpt>
      <trkpt lat="43.43965" lon="5.86018">
        <ele>354.38</ele>
        <time>2019-03-10T13:00:56Z</time>
      </trkpt>
      <trkpt lat="43.43963" lon="5.8602">
        <ele>354.38</ele>
        <time>2019-03-10T13:01:30Z</time>
      </trkpt>
      <trkpt lat="43.4396" lon="5.86021">
        <ele>355.34</ele>
        <time>2019-03-10T13:02:10Z</time>
      </trkpt>
      <trkpt lat="43.43962" lon="5.8602">
        <ele>355.34</ele>
        <time>2019-03-10T13:02:36Z</time>
      </trkpt>
      <trkpt lat="43.4396" lon="5.8602">
        <ele>355.83</ele>
        <time>2019-03-10T13:03:04Z</time>
      </trkpt>
      <trkpt lat="43.4396" lon="5.86021">
        <ele>355.83</ele>
        <time>2019-03-10T13:03:30Z</time>
      </trkpt>
      <trkpt lat="43.4396" lon="5.8602">
        <ele>354.86</ele>
        <time>2019-03-10T13:03:36Z</time>
      </trkpt>
      <trkpt lat="43.4396" lon="5.8602">
        <ele>355.34</ele>
        <time>2019-03-10T13:04:11Z</time>
      </trkpt>
      <trkpt lat="43.43961" lon="5.8602">
        <ele>355.34</ele>
        <time>2019-03-10T13:04:36Z</time>
      </trkpt>
      <trkpt lat="43.43961" lon="5.86021">
        <ele>355.34</ele>
        <time>2019-03-10T13:05:04Z</time>
      </trkpt>
      <trkpt lat="43.43959" lon="5.86022">
        <ele>354.86</ele>
        <time>2019-03-10T13:05:38Z</time>
      </trkpt>
      <trkpt lat="43.43957" lon="5.86023">
        <ele>354.38</ele>
        <time>2019-03-10T13:06:01Z</time>
      </trkpt>
      <trkpt lat="43.43958" lon="5.86023">
        <ele>353.9</ele>
        <time>2019-03-10T13:06:26Z</time>
      </trkpt>
      <trkpt lat="43.43958" lon="5.86022">
        <ele>354.86</ele>
        <time>2019-03-10T13:06:45Z</time>
      </trkpt>
      <trkpt lat="43.43958" lon="5.86022">
        <ele>354.86</ele>
        <time>2019-03-10T13:07:13Z</time>
      </trkpt>
      <trkpt lat="43.43959" lon="5.86021">
        <ele>353.9</ele>
        <time>2019-03-10T13:07:51Z</time>
      </trkpt>
      <trkpt lat="43.43959" lon="5.8602">
        <ele>354.38</ele>
        <time>2019-03-10T13:08:18Z</time>
      </trkpt>
      <trkpt lat="43.43958" lon="5.8602">
        <ele>354.38</ele>
        <time>2019-03-10T13:08:53Z</time>
      </trkpt>
      <trkpt lat="43.43958" lon="5.86021">
        <ele>354.38</ele>
        <time>2019-03-10T13:09:26Z</time>
      </trkpt>
      <trkpt lat="43.43958" lon="5.86022">
        <ele>354.38</ele>
        <time>2019-03-10T13:09:57Z</time>
      </trkpt>
      <trkpt lat="43.43959" lon="5.86022">
        <ele>353.9</ele>
        <time>2019-03-10T13:10:26Z</time>
      </trkpt>
      <trkpt lat="43.43959" lon="5.86022">
        <ele>353.9</ele>
        <time>2019-03-10T13:10:54Z</time>
      </trkpt>
      <trkpt lat="43.4396" lon="5.86021">
        <ele>352.94</ele>
        <time>2019-03-10T13:11:26Z</time>
      </trkpt>
      <trkpt lat="43.4396" lon="5.86021">
        <ele>352.94</ele>
        <time>2019-03-10T13:11:27Z</time>
      </trkpt>
      <trkpt lat="43.43961" lon="5.86021">
        <ele>353.9</ele>
        <time>2019-03-10T13:11:50Z</time>
      </trkpt>
      <trkpt lat="43.43961" lon="5.8602">
        <ele>354.38</ele>
        <time>2019-03-10T13:12:21Z</time>
      </trkpt>
      <trkpt lat="43.43961" lon="5.86021">
        <ele>352.94</ele>
        <time>2019-03-10T13:12:28Z</time>
      </trkpt>
      <trkpt lat="43.43961" lon="5.8602">
        <ele>354.38</ele>
        <time>2019-03-10T13:12:33Z</time>
      </trkpt>
      <trkpt lat="43.43962" lon="5.8602">
        <ele>352.94</ele>
        <time>2019-03-10T13:13:02Z</time>
      </trkpt>
      <trkpt lat="43.43962" lon="5.86021">
        <ele>354.38</ele>
        <time>2019-03-10T13:13:28Z</time>
      </trkpt>
      <trkpt lat="43.43963" lon="5.86021">
        <ele>354.38</ele>
        <time>2019-03-10T13:13:54Z</time>
      </trkpt>
      <trkpt lat="43.43962" lon="5.86021">
        <ele>352.94</ele>
        <time>2019-03-10T13:14:20Z</time>
      </trkpt>
      <trkpt lat="43.43962" lon="5.86022">
        <ele>352.94</ele>
        <time>2019-03-10T13:14:52Z</time>
      </trkpt>
      <trkpt lat="43.43964" lon="5.86021">
        <ele>352.94</ele>
        <time>2019-03-10T13:15:32Z</time>
      </trkpt>
      <trkpt lat="43.43963" lon="5.86021">
        <ele>353.9</ele>
        <time>2019-03-10T13:15:47Z</time>
      </trkpt>
      <trkpt lat="43.43963" lon="5.8602">
        <ele>351.98</ele>
        <time>2019-03-10T13:15:54Z</time>
      </trkpt>
      <trkpt lat="43.43962" lon="5.86019">
        <ele>352.94</ele>
        <time>2019-03-10T13:16:29Z</time>
      </trkpt>
      <trkpt lat="43.43962" lon="5.8602">
        <ele>353.42</ele>
        <time>2019-03-10T13:16:48Z</time>
      </trkpt>
      <trkpt lat="43.43961" lon="5.86021">
        <ele>351.98</ele>
        <time>2019-03-10T13:17:06Z</time>
      </trkpt>
      <trkpt lat="43.43961" lon="5.86019">
        <ele>352.94</ele>
        <time>2019-03-10T13:17:44Z</time>
      </trkpt>
      <trkpt lat="43.43961" lon="5.86016">
        <ele>353.42</ele>
        <time>2019-03-10T13:18:18Z</time>
      </trkpt>
      <trkpt lat="43.43958" lon="5.86018">
        <ele>353.42</ele>
        <time>2019-03-10T13:18:47Z</time>
      </trkpt>
      <trkpt lat="43.43959" lon="5.86017">
        <ele>351.98</ele>
        <time>2019-03-10T13:19:07Z</time>
      </trkpt>
      <trkpt lat="43.43959" lon="5.86019">
        <ele>353.42</ele>
        <time>2019-03-10T13:19:44Z</time>
      </trkpt>
      <trkpt lat="43.43959" lon="5.86019">
        <ele>351.98</ele>
        <time>2019-03-10T13:20:08Z</time>
      </trkpt>
      <trkpt lat="43.4396" lon="5.86019">
        <ele>353.42</ele>
        <time>2019-03-10T13:20:29Z</time>
      </trkpt>
      <trkpt lat="43.43958" lon="5.86018">
        <ele>352.94</ele>
        <time>2019-03-10T13:20:58Z</time>
      </trkpt>
      <trkpt lat="43.43957" lon="5.86018">
        <ele>352.46</ele>
        <time>2019-03-10T13:21:37Z</time>
      </trkpt>
      <trkpt lat="43.43956" lon="5.86017">
        <ele>351.98</ele>
        <time>2019-03-10T13:22:14Z</time>
      </trkpt>
      <trkpt lat="43.43957" lon="5.86017">
        <ele>353.42</ele>
        <time>2019-03-10T13:22:43Z</time>
      </trkpt>
      <trkpt lat="43.43957" lon="5.86017">
        <ele>352.46</ele>
        <time>2019-03-10T13:22:47Z</time>
      </trkpt>
      <trkpt lat="43.43958" lon="5.86017">
        <ele>352.46</ele>
        <time>2019-03-10T13:23:10Z</time>
      </trkpt>
      <trkpt lat="43.43959" lon="5.86018">
        <ele>353.42</ele>
        <time>2019-03-10T13:23:24Z</time>
      </trkpt>
      <trkpt lat="43.4396" lon="5.86019">
        <ele>353.9</ele>
        <time>2019-03-10T13:23:43Z</time>
      </trkpt>
    </trkseg>
  </trk>
</gpx>